<?xml version="1.0" encoding="UTF-8" standalone="no" ?>
<gpx xmlns="http://www.topografix.com/GPX/1/1" xmlns:xsi="http://www.w3.org/2001/XMLSchema-instance" xsi:schemaLocation="http://www.topografix.com/GPX/1/1 http://www.topografix.com/GPX/1/1/gpx.xsd" version="1.1" creator="VisuGPX - https://www.visugpx.com">
  <metadata>
    <name>Séjour VTT 2022 - Speedeure</name>
    <desc><![CDATA[3 journées de VTT dans les Vosges à LA BRESSE
26, 27 et 28 Mai 2022]]></desc>
  </metadata>
  <trk>
    <name><![CDATA[26/05 Tour de la Bresse et Hohneck]]></name>
    <extensions>
      <line xmlns="http://www.topografix.com/GPX/gpx_style/0/2">
        <color>000000</color>
        <width>4</width>
      </line>
    </extensions>
    <trkseg>
      <trkpt lat="48.03597" lon="6.92479">
        <ele>857.112915</ele>
        <time>2022-05-26T06:59:38Z</time>
      </trkpt>
      <trkpt lat="48.03597" lon="6.92478">
        <ele>856.907776</ele>
        <time>2022-05-26T06:59:57Z</time>
      </trkpt>
      <trkpt lat="48.036" lon="6.92473">
        <ele>857.293945</ele>
        <time>2022-05-26T07:00:07Z</time>
      </trkpt>
      <trkpt lat="48.036" lon="6.92474">
        <ele>857.3</ele>
        <time>2022-05-26T07:00:33Z</time>
      </trkpt>
      <trkpt lat="48.03603" lon="6.92488">
        <ele>855.3</ele>
        <time>2022-05-26T07:01:07Z</time>
      </trkpt>
      <trkpt lat="48.03607" lon="6.92504">
        <ele>854.6</ele>
        <time>2022-05-26T07:01:10Z</time>
      </trkpt>
      <trkpt lat="48.03614" lon="6.92516">
        <ele>854.1</ele>
        <time>2022-05-26T07:01:14Z</time>
      </trkpt>
      <trkpt lat="48.03621" lon="6.92531">
        <ele>853.4</ele>
        <time>2022-05-26T07:01:18Z</time>
      </trkpt>
      <trkpt lat="48.03628" lon="6.92543">
        <ele>853.3</ele>
        <time>2022-05-26T07:01:21Z</time>
      </trkpt>
      <trkpt lat="48.03635" lon="6.92557">
        <ele>853.1</ele>
        <time>2022-05-26T07:01:24Z</time>
      </trkpt>
      <trkpt lat="48.03641" lon="6.9257">
        <ele>853.3</ele>
        <time>2022-05-26T07:01:27Z</time>
      </trkpt>
      <trkpt lat="48.03646" lon="6.92582">
        <ele>853.7</ele>
        <time>2022-05-26T07:01:30Z</time>
      </trkpt>
      <trkpt lat="48.03649" lon="6.92596">
        <ele>853.9</ele>
        <time>2022-05-26T07:01:33Z</time>
      </trkpt>
      <trkpt lat="48.0365" lon="6.92611">
        <ele>853.9</ele>
        <time>2022-05-26T07:01:36Z</time>
      </trkpt>
      <trkpt lat="48.03656" lon="6.92626">
        <ele>854.8</ele>
        <time>2022-05-26T07:01:40Z</time>
      </trkpt>
      <trkpt lat="48.03662" lon="6.9264">
        <ele>855.4</ele>
        <time>2022-05-26T07:01:45Z</time>
      </trkpt>
      <trkpt lat="48.03668" lon="6.9265">
        <ele>856.9</ele>
        <time>2022-05-26T07:01:49Z</time>
      </trkpt>
      <trkpt lat="48.03676" lon="6.92658">
        <ele>857.4</ele>
        <time>2022-05-26T07:01:53Z</time>
      </trkpt>
      <trkpt lat="48.03685" lon="6.92661">
        <ele>858.1</ele>
        <time>2022-05-26T07:01:57Z</time>
      </trkpt>
      <trkpt lat="48.03696" lon="6.92659">
        <ele>858.6</ele>
        <time>2022-05-26T07:02:02Z</time>
      </trkpt>
      <trkpt lat="48.03706" lon="6.92656">
        <ele>859.3</ele>
        <time>2022-05-26T07:02:07Z</time>
      </trkpt>
      <trkpt lat="48.03717" lon="6.92654">
        <ele>859.8</ele>
        <time>2022-05-26T07:02:12Z</time>
      </trkpt>
      <trkpt lat="48.03727" lon="6.92656">
        <ele>859.9</ele>
        <time>2022-05-26T07:02:16Z</time>
      </trkpt>
      <trkpt lat="48.03737" lon="6.92663">
        <ele>860.7</ele>
        <time>2022-05-26T07:02:20Z</time>
      </trkpt>
      <trkpt lat="48.03747" lon="6.92671">
        <ele>860.9</ele>
        <time>2022-05-26T07:02:24Z</time>
      </trkpt>
      <trkpt lat="48.03755" lon="6.92679">
        <ele>861.7</ele>
        <time>2022-05-26T07:02:28Z</time>
      </trkpt>
      <trkpt lat="48.03762" lon="6.92687">
        <ele>861.8</ele>
        <time>2022-05-26T07:02:32Z</time>
      </trkpt>
      <trkpt lat="48.0377" lon="6.92696">
        <ele>863</ele>
        <time>2022-05-26T07:02:36Z</time>
      </trkpt>
      <trkpt lat="48.03778" lon="6.92706">
        <ele>863.6</ele>
        <time>2022-05-26T07:02:41Z</time>
      </trkpt>
      <trkpt lat="48.03786" lon="6.92716">
        <ele>863.8</ele>
        <time>2022-05-26T07:02:45Z</time>
      </trkpt>
      <trkpt lat="48.03794" lon="6.92726">
        <ele>863.6</ele>
        <time>2022-05-26T07:02:49Z</time>
      </trkpt>
      <trkpt lat="48.03803" lon="6.92737">
        <ele>864.1</ele>
        <time>2022-05-26T07:02:53Z</time>
      </trkpt>
      <trkpt lat="48.0381" lon="6.92748">
        <ele>864.5</ele>
        <time>2022-05-26T07:02:57Z</time>
      </trkpt>
      <trkpt lat="48.03818" lon="6.92758">
        <ele>865.3</ele>
        <time>2022-05-26T07:03:01Z</time>
      </trkpt>
      <trkpt lat="48.03825" lon="6.92769">
        <ele>866</ele>
        <time>2022-05-26T07:03:05Z</time>
      </trkpt>
      <trkpt lat="48.03833" lon="6.92777">
        <ele>866.6</ele>
        <time>2022-05-26T07:03:09Z</time>
      </trkpt>
      <trkpt lat="48.03841" lon="6.92784">
        <ele>867.2</ele>
        <time>2022-05-26T07:03:13Z</time>
      </trkpt>
      <trkpt lat="48.0385" lon="6.92789">
        <ele>867.6</ele>
        <time>2022-05-26T07:03:17Z</time>
      </trkpt>
      <trkpt lat="48.0386" lon="6.92791">
        <ele>868</ele>
        <time>2022-05-26T07:03:21Z</time>
      </trkpt>
      <trkpt lat="48.03871" lon="6.92798">
        <ele>868.9</ele>
        <time>2022-05-26T07:03:26Z</time>
      </trkpt>
      <trkpt lat="48.0388" lon="6.92803">
        <ele>869.2</ele>
        <time>2022-05-26T07:03:31Z</time>
      </trkpt>
      <trkpt lat="48.03889" lon="6.92811">
        <ele>870.3</ele>
        <time>2022-05-26T07:03:36Z</time>
      </trkpt>
      <trkpt lat="48.03897" lon="6.92817">
        <ele>871</ele>
        <time>2022-05-26T07:03:40Z</time>
      </trkpt>
      <trkpt lat="48.03908" lon="6.92823">
        <ele>871.8</ele>
        <time>2022-05-26T07:03:44Z</time>
      </trkpt>
      <trkpt lat="48.03918" lon="6.9283">
        <ele>872.1</ele>
        <time>2022-05-26T07:03:48Z</time>
      </trkpt>
      <trkpt lat="48.03928" lon="6.92838">
        <ele>872.1</ele>
        <time>2022-05-26T07:03:52Z</time>
      </trkpt>
      <trkpt lat="48.03935" lon="6.92847">
        <ele>873.5</ele>
        <time>2022-05-26T07:03:56Z</time>
      </trkpt>
      <trkpt lat="48.03942" lon="6.92857">
        <ele>873.9</ele>
        <time>2022-05-26T07:04:00Z</time>
      </trkpt>
      <trkpt lat="48.03947" lon="6.92869">
        <ele>875</ele>
        <time>2022-05-26T07:04:04Z</time>
      </trkpt>
      <trkpt lat="48.03952" lon="6.92881">
        <ele>875.2</ele>
        <time>2022-05-26T07:04:08Z</time>
      </trkpt>
      <trkpt lat="48.03962" lon="6.92882">
        <ele>876.8</ele>
        <time>2022-05-26T07:04:14Z</time>
      </trkpt>
      <trkpt lat="48.03963" lon="6.92869">
        <ele>876.7</ele>
        <time>2022-05-26T07:04:18Z</time>
      </trkpt>
      <trkpt lat="48.03962" lon="6.92853">
        <ele>878</ele>
        <time>2022-05-26T07:04:23Z</time>
      </trkpt>
      <trkpt lat="48.03959" lon="6.92839">
        <ele>879.1</ele>
        <time>2022-05-26T07:04:28Z</time>
      </trkpt>
      <trkpt lat="48.03956" lon="6.92827">
        <ele>880</ele>
        <time>2022-05-26T07:04:33Z</time>
      </trkpt>
      <trkpt lat="48.0395" lon="6.92815">
        <ele>881.4</ele>
        <time>2022-05-26T07:04:39Z</time>
      </trkpt>
      <trkpt lat="48.03944" lon="6.92804">
        <ele>882.7</ele>
        <time>2022-05-26T07:04:45Z</time>
      </trkpt>
      <trkpt lat="48.03937" lon="6.92792">
        <ele>884.5</ele>
        <time>2022-05-26T07:04:51Z</time>
      </trkpt>
      <trkpt lat="48.0393" lon="6.92781">
        <ele>886.2</ele>
        <time>2022-05-26T07:04:57Z</time>
      </trkpt>
      <trkpt lat="48.03922" lon="6.92771">
        <ele>887.4</ele>
        <time>2022-05-26T07:05:03Z</time>
      </trkpt>
      <trkpt lat="48.03914" lon="6.92761">
        <ele>888.1</ele>
        <time>2022-05-26T07:05:09Z</time>
      </trkpt>
      <trkpt lat="48.03907" lon="6.92751">
        <ele>889.8</ele>
        <time>2022-05-26T07:05:15Z</time>
      </trkpt>
      <trkpt lat="48.039" lon="6.92739">
        <ele>891.2</ele>
        <time>2022-05-26T07:05:21Z</time>
      </trkpt>
      <trkpt lat="48.03893" lon="6.92728">
        <ele>893.8</ele>
        <time>2022-05-26T07:05:27Z</time>
      </trkpt>
      <trkpt lat="48.03886" lon="6.92718">
        <ele>894.1</ele>
        <time>2022-05-26T07:05:32Z</time>
      </trkpt>
      <trkpt lat="48.0388" lon="6.92708">
        <ele>894.1</ele>
        <time>2022-05-26T07:05:37Z</time>
      </trkpt>
      <trkpt lat="48.03872" lon="6.92697">
        <ele>896.1</ele>
        <time>2022-05-26T07:05:42Z</time>
      </trkpt>
      <trkpt lat="48.03865" lon="6.92688">
        <ele>897.4</ele>
        <time>2022-05-26T07:05:47Z</time>
      </trkpt>
      <trkpt lat="48.03859" lon="6.92676">
        <ele>898.4</ele>
        <time>2022-05-26T07:05:53Z</time>
      </trkpt>
      <trkpt lat="48.03856" lon="6.92662">
        <ele>899.1</ele>
        <time>2022-05-26T07:05:59Z</time>
      </trkpt>
      <trkpt lat="48.03855" lon="6.92647">
        <ele>899.5</ele>
        <time>2022-05-26T07:06:04Z</time>
      </trkpt>
      <trkpt lat="48.03854" lon="6.92632">
        <ele>900</ele>
        <time>2022-05-26T07:06:09Z</time>
      </trkpt>
      <trkpt lat="48.03849" lon="6.92618">
        <ele>901.2</ele>
        <time>2022-05-26T07:06:15Z</time>
      </trkpt>
      <trkpt lat="48.03844" lon="6.92605">
        <ele>903</ele>
        <time>2022-05-26T07:06:21Z</time>
      </trkpt>
      <trkpt lat="48.03841" lon="6.92591">
        <ele>905.5</ele>
        <time>2022-05-26T07:06:28Z</time>
      </trkpt>
      <trkpt lat="48.03839" lon="6.92578">
        <ele>906.8</ele>
        <time>2022-05-26T07:06:35Z</time>
      </trkpt>
      <trkpt lat="48.03835" lon="6.92563">
        <ele>908.2</ele>
        <time>2022-05-26T07:06:42Z</time>
      </trkpt>
      <trkpt lat="48.03829" lon="6.92551">
        <ele>909.6</ele>
        <time>2022-05-26T07:06:48Z</time>
      </trkpt>
      <trkpt lat="48.03821" lon="6.92543">
        <ele>910.2</ele>
        <time>2022-05-26T07:06:54Z</time>
      </trkpt>
      <trkpt lat="48.03814" lon="6.92533">
        <ele>911</ele>
        <time>2022-05-26T07:07:00Z</time>
      </trkpt>
      <trkpt lat="48.03807" lon="6.92526">
        <ele>911.4</ele>
        <time>2022-05-26T07:07:06Z</time>
      </trkpt>
      <trkpt lat="48.038" lon="6.92515">
        <ele>913.3</ele>
        <time>2022-05-26T07:07:12Z</time>
      </trkpt>
      <trkpt lat="48.03797" lon="6.92501">
        <ele>914.1</ele>
        <time>2022-05-26T07:07:18Z</time>
      </trkpt>
      <trkpt lat="48.03798" lon="6.92486">
        <ele>916.1</ele>
        <time>2022-05-26T07:07:25Z</time>
      </trkpt>
      <trkpt lat="48.03801" lon="6.92472">
        <ele>917.6</ele>
        <time>2022-05-26T07:07:31Z</time>
      </trkpt>
      <trkpt lat="48.03802" lon="6.92457">
        <ele>918.8</ele>
        <time>2022-05-26T07:07:37Z</time>
      </trkpt>
      <trkpt lat="48.03803" lon="6.92443">
        <ele>919.5</ele>
        <time>2022-05-26T07:07:42Z</time>
      </trkpt>
      <trkpt lat="48.03806" lon="6.92428">
        <ele>920.4</ele>
        <time>2022-05-26T07:07:48Z</time>
      </trkpt>
      <trkpt lat="48.03813" lon="6.92417">
        <ele>920.1</ele>
        <time>2022-05-26T07:07:54Z</time>
      </trkpt>
      <trkpt lat="48.03819" lon="6.92405">
        <ele>922.1</ele>
        <time>2022-05-26T07:07:59Z</time>
      </trkpt>
      <trkpt lat="48.03822" lon="6.92393">
        <ele>923.6</ele>
        <time>2022-05-26T07:08:05Z</time>
      </trkpt>
      <trkpt lat="48.03828" lon="6.9238">
        <ele>924.9</ele>
        <time>2022-05-26T07:08:12Z</time>
      </trkpt>
      <trkpt lat="48.03833" lon="6.92368">
        <ele>926.5</ele>
        <time>2022-05-26T07:08:18Z</time>
      </trkpt>
      <trkpt lat="48.03838" lon="6.92355">
        <ele>927.9</ele>
        <time>2022-05-26T07:08:24Z</time>
      </trkpt>
      <trkpt lat="48.03844" lon="6.92343">
        <ele>929.4</ele>
        <time>2022-05-26T07:08:30Z</time>
      </trkpt>
      <trkpt lat="48.03848" lon="6.9233">
        <ele>930.2</ele>
        <time>2022-05-26T07:08:36Z</time>
      </trkpt>
      <trkpt lat="48.03846" lon="6.92316">
        <ele>929.8</ele>
        <time>2022-05-26T07:08:41Z</time>
      </trkpt>
      <trkpt lat="48.0384" lon="6.92305">
        <ele>931</ele>
        <time>2022-05-26T07:08:46Z</time>
      </trkpt>
      <trkpt lat="48.03832" lon="6.92299">
        <ele>931.8</ele>
        <time>2022-05-26T07:08:52Z</time>
      </trkpt>
      <trkpt lat="48.03823" lon="6.92293">
        <ele>932.5</ele>
        <time>2022-05-26T07:08:58Z</time>
      </trkpt>
      <trkpt lat="48.03814" lon="6.92287">
        <ele>932.5</ele>
        <time>2022-05-26T07:09:03Z</time>
      </trkpt>
      <trkpt lat="48.03807" lon="6.92278">
        <ele>932.9</ele>
        <time>2022-05-26T07:09:08Z</time>
      </trkpt>
      <trkpt lat="48.03803" lon="6.92266">
        <ele>933.2</ele>
        <time>2022-05-26T07:09:13Z</time>
      </trkpt>
      <trkpt lat="48.038" lon="6.92253">
        <ele>934.2</ele>
        <time>2022-05-26T07:09:18Z</time>
      </trkpt>
      <trkpt lat="48.03797" lon="6.9224">
        <ele>934.9</ele>
        <time>2022-05-26T07:09:23Z</time>
      </trkpt>
      <trkpt lat="48.03795" lon="6.92225">
        <ele>937.2</ele>
        <time>2022-05-26T07:09:29Z</time>
      </trkpt>
      <trkpt lat="48.03792" lon="6.9221">
        <ele>939</ele>
        <time>2022-05-26T07:09:36Z</time>
      </trkpt>
      <trkpt lat="48.03788" lon="6.92198">
        <ele>939.6</ele>
        <time>2022-05-26T07:09:41Z</time>
      </trkpt>
      <trkpt lat="48.03783" lon="6.92184">
        <ele>940.6</ele>
        <time>2022-05-26T07:09:47Z</time>
      </trkpt>
      <trkpt lat="48.03779" lon="6.9217">
        <ele>941.2</ele>
        <time>2022-05-26T07:09:53Z</time>
      </trkpt>
      <trkpt lat="48.03775" lon="6.92159">
        <ele>941.8</ele>
        <time>2022-05-26T07:09:58Z</time>
      </trkpt>
      <trkpt lat="48.03769" lon="6.92148">
        <ele>942.4</ele>
        <time>2022-05-26T07:10:03Z</time>
      </trkpt>
      <trkpt lat="48.03761" lon="6.92139">
        <ele>943.2</ele>
        <time>2022-05-26T07:10:08Z</time>
      </trkpt>
      <trkpt lat="48.03753" lon="6.92129">
        <ele>943.1</ele>
        <time>2022-05-26T07:10:13Z</time>
      </trkpt>
      <trkpt lat="48.03746" lon="6.92119">
        <ele>943.3</ele>
        <time>2022-05-26T07:10:18Z</time>
      </trkpt>
      <trkpt lat="48.03739" lon="6.92108">
        <ele>943.8</ele>
        <time>2022-05-26T07:10:23Z</time>
      </trkpt>
      <trkpt lat="48.03733" lon="6.92096">
        <ele>945.3</ele>
        <time>2022-05-26T07:10:28Z</time>
      </trkpt>
      <trkpt lat="48.03725" lon="6.92085">
        <ele>946.1</ele>
        <time>2022-05-26T07:10:34Z</time>
      </trkpt>
      <trkpt lat="48.03723" lon="6.9207">
        <ele>947.5</ele>
        <time>2022-05-26T07:10:40Z</time>
      </trkpt>
      <trkpt lat="48.03732" lon="6.92064">
        <ele>948.3</ele>
        <time>2022-05-26T07:10:45Z</time>
      </trkpt>
      <trkpt lat="48.0374" lon="6.92073">
        <ele>949.1</ele>
        <time>2022-05-26T07:10:50Z</time>
      </trkpt>
      <trkpt lat="48.03746" lon="6.92085">
        <ele>949.2</ele>
        <time>2022-05-26T07:10:55Z</time>
      </trkpt>
      <trkpt lat="48.03751" lon="6.92098">
        <ele>949.3</ele>
        <time>2022-05-26T07:11:00Z</time>
      </trkpt>
      <trkpt lat="48.03759" lon="6.9211">
        <ele>949.3</ele>
        <time>2022-05-26T07:11:05Z</time>
      </trkpt>
      <trkpt lat="48.03768" lon="6.92118">
        <ele>950.6</ele>
        <time>2022-05-26T07:11:10Z</time>
      </trkpt>
      <trkpt lat="48.03777" lon="6.92125">
        <ele>949.7</ele>
        <time>2022-05-26T07:11:15Z</time>
      </trkpt>
      <trkpt lat="48.03787" lon="6.92133">
        <ele>950.9</ele>
        <time>2022-05-26T07:11:20Z</time>
      </trkpt>
      <trkpt lat="48.03794" lon="6.92141">
        <ele>951.1</ele>
        <time>2022-05-26T07:11:25Z</time>
      </trkpt>
      <trkpt lat="48.03802" lon="6.92152">
        <ele>951.7</ele>
        <time>2022-05-26T07:11:30Z</time>
      </trkpt>
      <trkpt lat="48.0381" lon="6.92164">
        <ele>952.4</ele>
        <time>2022-05-26T07:11:35Z</time>
      </trkpt>
      <trkpt lat="48.03817" lon="6.92173">
        <ele>952.6</ele>
        <time>2022-05-26T07:11:39Z</time>
      </trkpt>
      <trkpt lat="48.03824" lon="6.92182">
        <ele>952.7</ele>
        <time>2022-05-26T07:11:43Z</time>
      </trkpt>
      <trkpt lat="48.03833" lon="6.92191">
        <ele>953.3</ele>
        <time>2022-05-26T07:11:48Z</time>
      </trkpt>
      <trkpt lat="48.03842" lon="6.92199">
        <ele>952.7</ele>
        <time>2022-05-26T07:11:53Z</time>
      </trkpt>
      <trkpt lat="48.03851" lon="6.92207">
        <ele>952.8</ele>
        <time>2022-05-26T07:11:57Z</time>
      </trkpt>
      <trkpt lat="48.0386" lon="6.92215">
        <ele>953.1</ele>
        <time>2022-05-26T07:12:01Z</time>
      </trkpt>
      <trkpt lat="48.03869" lon="6.92222">
        <ele>953</ele>
        <time>2022-05-26T07:12:05Z</time>
      </trkpt>
      <trkpt lat="48.03877" lon="6.92232">
        <ele>952.7</ele>
        <time>2022-05-26T07:12:09Z</time>
      </trkpt>
      <trkpt lat="48.03884" lon="6.92242">
        <ele>953.5</ele>
        <time>2022-05-26T07:12:13Z</time>
      </trkpt>
      <trkpt lat="48.03893" lon="6.92251">
        <ele>953.5</ele>
        <time>2022-05-26T07:12:17Z</time>
      </trkpt>
      <trkpt lat="48.039" lon="6.9226">
        <ele>954.6</ele>
        <time>2022-05-26T07:12:21Z</time>
      </trkpt>
      <trkpt lat="48.03908" lon="6.92268">
        <ele>955.3</ele>
        <time>2022-05-26T07:12:25Z</time>
      </trkpt>
      <trkpt lat="48.03916" lon="6.92275">
        <ele>955.2</ele>
        <time>2022-05-26T07:12:29Z</time>
      </trkpt>
      <trkpt lat="48.03925" lon="6.92286">
        <ele>955.6</ele>
        <time>2022-05-26T07:12:34Z</time>
      </trkpt>
      <trkpt lat="48.03927" lon="6.923">
        <ele>956.1</ele>
        <time>2022-05-26T07:12:38Z</time>
      </trkpt>
      <trkpt lat="48.03925" lon="6.92315">
        <ele>955.7</ele>
        <time>2022-05-26T07:12:42Z</time>
      </trkpt>
      <trkpt lat="48.0392" lon="6.9233">
        <ele>956.6</ele>
        <time>2022-05-26T07:12:46Z</time>
      </trkpt>
      <trkpt lat="48.03917" lon="6.92347">
        <ele>955.8</ele>
        <time>2022-05-26T07:12:50Z</time>
      </trkpt>
      <trkpt lat="48.03917" lon="6.92361">
        <ele>956.1</ele>
        <time>2022-05-26T07:12:53Z</time>
      </trkpt>
      <trkpt lat="48.03918" lon="6.92375">
        <ele>955.5</ele>
        <time>2022-05-26T07:12:56Z</time>
      </trkpt>
      <trkpt lat="48.0392" lon="6.92392">
        <ele>955.7</ele>
        <time>2022-05-26T07:13:00Z</time>
      </trkpt>
      <trkpt lat="48.03925" lon="6.92407">
        <ele>956.1</ele>
        <time>2022-05-26T07:13:04Z</time>
      </trkpt>
      <trkpt lat="48.03931" lon="6.92421">
        <ele>956.7</ele>
        <time>2022-05-26T07:13:08Z</time>
      </trkpt>
      <trkpt lat="48.03936" lon="6.92434">
        <ele>956.7</ele>
        <time>2022-05-26T07:13:12Z</time>
      </trkpt>
      <trkpt lat="48.03942" lon="6.92446">
        <ele>956.8</ele>
        <time>2022-05-26T07:13:16Z</time>
      </trkpt>
      <trkpt lat="48.03949" lon="6.92457">
        <ele>957.6</ele>
        <time>2022-05-26T07:13:20Z</time>
      </trkpt>
      <trkpt lat="48.03957" lon="6.92467">
        <ele>957.7</ele>
        <time>2022-05-26T07:13:24Z</time>
      </trkpt>
      <trkpt lat="48.03965" lon="6.92477">
        <ele>959.4</ele>
        <time>2022-05-26T07:13:29Z</time>
      </trkpt>
      <trkpt lat="48.03973" lon="6.92486">
        <ele>959.4</ele>
        <time>2022-05-26T07:13:34Z</time>
      </trkpt>
      <trkpt lat="48.03981" lon="6.92493">
        <ele>961.6</ele>
        <time>2022-05-26T07:13:39Z</time>
      </trkpt>
      <trkpt lat="48.03989" lon="6.925">
        <ele>963.3</ele>
        <time>2022-05-26T07:13:44Z</time>
      </trkpt>
      <trkpt lat="48.03999" lon="6.92505">
        <ele>965.1</ele>
        <time>2022-05-26T07:13:50Z</time>
      </trkpt>
      <trkpt lat="48.04009" lon="6.92509">
        <ele>966.4</ele>
        <time>2022-05-26T07:13:55Z</time>
      </trkpt>
      <trkpt lat="48.04019" lon="6.92513">
        <ele>967.3</ele>
        <time>2022-05-26T07:14:00Z</time>
      </trkpt>
      <trkpt lat="48.04028" lon="6.92516">
        <ele>967.9</ele>
        <time>2022-05-26T07:14:07Z</time>
      </trkpt>
      <trkpt lat="48.04039" lon="6.92519">
        <ele>969.5</ele>
        <time>2022-05-26T07:14:14Z</time>
      </trkpt>
      <trkpt lat="48.04048" lon="6.92527">
        <ele>970.7</ele>
        <time>2022-05-26T07:14:20Z</time>
      </trkpt>
      <trkpt lat="48.04055" lon="6.92534">
        <ele>972.2</ele>
        <time>2022-05-26T07:14:25Z</time>
      </trkpt>
      <trkpt lat="48.04065" lon="6.92542">
        <ele>972.8</ele>
        <time>2022-05-26T07:14:31Z</time>
      </trkpt>
      <trkpt lat="48.04073" lon="6.92548">
        <ele>973.6</ele>
        <time>2022-05-26T07:14:36Z</time>
      </trkpt>
      <trkpt lat="48.04082" lon="6.92554">
        <ele>974.2</ele>
        <time>2022-05-26T07:14:41Z</time>
      </trkpt>
      <trkpt lat="48.04092" lon="6.92559">
        <ele>974.8</ele>
        <time>2022-05-26T07:14:46Z</time>
      </trkpt>
      <trkpt lat="48.041" lon="6.92565">
        <ele>974.7</ele>
        <time>2022-05-26T07:14:51Z</time>
      </trkpt>
      <trkpt lat="48.0411" lon="6.92567">
        <ele>975.9</ele>
        <time>2022-05-26T07:14:56Z</time>
      </trkpt>
      <trkpt lat="48.04108" lon="6.92553">
        <ele>976.5</ele>
        <time>2022-05-26T07:15:04Z</time>
      </trkpt>
      <trkpt lat="48.041" lon="6.92546">
        <ele>977.9</ele>
        <time>2022-05-26T07:15:10Z</time>
      </trkpt>
      <trkpt lat="48.04093" lon="6.92536">
        <ele>979.4</ele>
        <time>2022-05-26T07:15:15Z</time>
      </trkpt>
      <trkpt lat="48.04088" lon="6.92524">
        <ele>979.2</ele>
        <time>2022-05-26T07:15:20Z</time>
      </trkpt>
      <trkpt lat="48.04082" lon="6.9251">
        <ele>980</ele>
        <time>2022-05-26T07:15:25Z</time>
      </trkpt>
      <trkpt lat="48.04078" lon="6.92498">
        <ele>980.4</ele>
        <time>2022-05-26T07:15:29Z</time>
      </trkpt>
      <trkpt lat="48.04072" lon="6.92485">
        <ele>980.5</ele>
        <time>2022-05-26T07:15:34Z</time>
      </trkpt>
      <trkpt lat="48.04067" lon="6.92471">
        <ele>982.9</ele>
        <time>2022-05-26T07:15:39Z</time>
      </trkpt>
      <trkpt lat="48.04062" lon="6.92458">
        <ele>982.5</ele>
        <time>2022-05-26T07:15:44Z</time>
      </trkpt>
      <trkpt lat="48.04057" lon="6.92443">
        <ele>984.6</ele>
        <time>2022-05-26T07:15:49Z</time>
      </trkpt>
      <trkpt lat="48.04053" lon="6.92429">
        <ele>985</ele>
        <time>2022-05-26T07:15:54Z</time>
      </trkpt>
      <trkpt lat="48.04048" lon="6.92414">
        <ele>985.9</ele>
        <time>2022-05-26T07:15:59Z</time>
      </trkpt>
      <trkpt lat="48.04044" lon="6.92402">
        <ele>985.6</ele>
        <time>2022-05-26T07:16:03Z</time>
      </trkpt>
      <trkpt lat="48.0404" lon="6.92389">
        <ele>986.2</ele>
        <time>2022-05-26T07:16:07Z</time>
      </trkpt>
      <trkpt lat="48.04035" lon="6.92376">
        <ele>986.4</ele>
        <time>2022-05-26T07:16:11Z</time>
      </trkpt>
      <trkpt lat="48.04032" lon="6.92362">
        <ele>986.3</ele>
        <time>2022-05-26T07:16:15Z</time>
      </trkpt>
      <trkpt lat="48.04032" lon="6.92348">
        <ele>986.3</ele>
        <time>2022-05-26T07:16:19Z</time>
      </trkpt>
      <trkpt lat="48.04033" lon="6.92333">
        <ele>986.2</ele>
        <time>2022-05-26T07:16:23Z</time>
      </trkpt>
      <trkpt lat="48.04034" lon="6.92318">
        <ele>986.6</ele>
        <time>2022-05-26T07:16:27Z</time>
      </trkpt>
      <trkpt lat="48.04036" lon="6.92302">
        <ele>987.2</ele>
        <time>2022-05-26T07:16:32Z</time>
      </trkpt>
      <trkpt lat="48.04039" lon="6.92287">
        <ele>987.8</ele>
        <time>2022-05-26T07:16:36Z</time>
      </trkpt>
      <trkpt lat="48.04043" lon="6.92274">
        <ele>988.8</ele>
        <time>2022-05-26T07:16:40Z</time>
      </trkpt>
      <trkpt lat="48.04049" lon="6.92263">
        <ele>989.5</ele>
        <time>2022-05-26T07:16:46Z</time>
      </trkpt>
      <trkpt lat="48.04056" lon="6.92253">
        <ele>990.5</ele>
        <time>2022-05-26T07:16:51Z</time>
      </trkpt>
      <trkpt lat="48.04063" lon="6.92241">
        <ele>991.1</ele>
        <time>2022-05-26T07:16:56Z</time>
      </trkpt>
      <trkpt lat="48.04068" lon="6.9223">
        <ele>992</ele>
        <time>2022-05-26T07:17:01Z</time>
      </trkpt>
      <trkpt lat="48.04071" lon="6.92216">
        <ele>992.4</ele>
        <time>2022-05-26T07:17:06Z</time>
      </trkpt>
      <trkpt lat="48.0407" lon="6.92203">
        <ele>994.2</ele>
        <time>2022-05-26T07:17:11Z</time>
      </trkpt>
      <trkpt lat="48.04067" lon="6.92188">
        <ele>995.4</ele>
        <time>2022-05-26T07:17:17Z</time>
      </trkpt>
      <trkpt lat="48.04063" lon="6.92174">
        <ele>996.6</ele>
        <time>2022-05-26T07:17:23Z</time>
      </trkpt>
      <trkpt lat="48.04059" lon="6.9216">
        <ele>997.3</ele>
        <time>2022-05-26T07:17:29Z</time>
      </trkpt>
      <trkpt lat="48.04053" lon="6.92149">
        <ele>998.2</ele>
        <time>2022-05-26T07:17:35Z</time>
      </trkpt>
      <trkpt lat="48.04047" lon="6.92138">
        <ele>999.6</ele>
        <time>2022-05-26T07:17:41Z</time>
      </trkpt>
      <trkpt lat="48.04041" lon="6.92127">
        <ele>1000.1</ele>
        <time>2022-05-26T07:17:47Z</time>
      </trkpt>
      <trkpt lat="48.04035" lon="6.92118">
        <ele>1002.5</ele>
        <time>2022-05-26T07:17:52Z</time>
      </trkpt>
      <trkpt lat="48.04029" lon="6.92107">
        <ele>1003.2</ele>
        <time>2022-05-26T07:17:58Z</time>
      </trkpt>
      <trkpt lat="48.04021" lon="6.92096">
        <ele>1004.2</ele>
        <time>2022-05-26T07:18:04Z</time>
      </trkpt>
      <trkpt lat="48.04014" lon="6.92088">
        <ele>1005.5</ele>
        <time>2022-05-26T07:18:10Z</time>
      </trkpt>
      <trkpt lat="48.04007" lon="6.92078">
        <ele>1006.8</ele>
        <time>2022-05-26T07:18:16Z</time>
      </trkpt>
      <trkpt lat="48.04" lon="6.92069">
        <ele>1007.8</ele>
        <time>2022-05-26T07:18:21Z</time>
      </trkpt>
      <trkpt lat="48.03993" lon="6.92059">
        <ele>1009.1</ele>
        <time>2022-05-26T07:18:26Z</time>
      </trkpt>
      <trkpt lat="48.03986" lon="6.92049">
        <ele>1010.8</ele>
        <time>2022-05-26T07:18:32Z</time>
      </trkpt>
      <trkpt lat="48.03979" lon="6.9204">
        <ele>1010.8</ele>
        <time>2022-05-26T07:18:37Z</time>
      </trkpt>
      <trkpt lat="48.03972" lon="6.9203">
        <ele>1011.7</ele>
        <time>2022-05-26T07:18:42Z</time>
      </trkpt>
      <trkpt lat="48.03966" lon="6.92019">
        <ele>1011.9</ele>
        <time>2022-05-26T07:18:47Z</time>
      </trkpt>
      <trkpt lat="48.0396" lon="6.92007">
        <ele>1013.8</ele>
        <time>2022-05-26T07:18:53Z</time>
      </trkpt>
      <trkpt lat="48.03956" lon="6.91995">
        <ele>1015.4</ele>
        <time>2022-05-26T07:18:58Z</time>
      </trkpt>
      <trkpt lat="48.03951" lon="6.91981">
        <ele>1016.7</ele>
        <time>2022-05-26T07:19:04Z</time>
      </trkpt>
      <trkpt lat="48.03947" lon="6.91967">
        <ele>1018.4</ele>
        <time>2022-05-26T07:19:10Z</time>
      </trkpt>
      <trkpt lat="48.03944" lon="6.91953">
        <ele>1019.3</ele>
        <time>2022-05-26T07:19:16Z</time>
      </trkpt>
      <trkpt lat="48.0394" lon="6.91941">
        <ele>1021.3</ele>
        <time>2022-05-26T07:19:22Z</time>
      </trkpt>
      <trkpt lat="48.03933" lon="6.91931">
        <ele>1022.5</ele>
        <time>2022-05-26T07:19:28Z</time>
      </trkpt>
      <trkpt lat="48.03924" lon="6.91925">
        <ele>1024.4</ele>
        <time>2022-05-26T07:19:35Z</time>
      </trkpt>
      <trkpt lat="48.03915" lon="6.91924">
        <ele>1025.1</ele>
        <time>2022-05-26T07:19:41Z</time>
      </trkpt>
      <trkpt lat="48.03906" lon="6.91919">
        <ele>1026.8</ele>
        <time>2022-05-26T07:19:47Z</time>
      </trkpt>
      <trkpt lat="48.03901" lon="6.91908">
        <ele>1027.6</ele>
        <time>2022-05-26T07:19:53Z</time>
      </trkpt>
      <trkpt lat="48.03905" lon="6.91894">
        <ele>1028.2</ele>
        <time>2022-05-26T07:19:59Z</time>
      </trkpt>
      <trkpt lat="48.0391" lon="6.91883">
        <ele>1028.5</ele>
        <time>2022-05-26T07:20:04Z</time>
      </trkpt>
      <trkpt lat="48.03916" lon="6.91872">
        <ele>1029.5</ele>
        <time>2022-05-26T07:20:09Z</time>
      </trkpt>
      <trkpt lat="48.03923" lon="6.91861">
        <ele>1030.5</ele>
        <time>2022-05-26T07:20:15Z</time>
      </trkpt>
      <trkpt lat="48.03932" lon="6.91858">
        <ele>1032.7</ele>
        <time>2022-05-26T07:20:21Z</time>
      </trkpt>
      <trkpt lat="48.03938" lon="6.91858">
        <ele>1033.6</ele>
        <time>2022-05-26T07:20:27Z</time>
      </trkpt>
      <trkpt lat="48.03939" lon="6.91858">
        <ele>1033.9</ele>
        <time>2022-05-26T07:20:28Z</time>
      </trkpt>
      <trkpt lat="48.03946" lon="6.91865">
        <ele>1035.3</ele>
        <time>2022-05-26T07:20:33Z</time>
      </trkpt>
      <trkpt lat="48.03956" lon="6.9187">
        <ele>1035.7</ele>
        <time>2022-05-26T07:20:39Z</time>
      </trkpt>
      <trkpt lat="48.03966" lon="6.91877">
        <ele>1037.5</ele>
        <time>2022-05-26T07:20:45Z</time>
      </trkpt>
      <trkpt lat="48.03975" lon="6.91885">
        <ele>1038</ele>
        <time>2022-05-26T07:20:51Z</time>
      </trkpt>
      <trkpt lat="48.03983" lon="6.91895">
        <ele>1039.5</ele>
        <time>2022-05-26T07:20:57Z</time>
      </trkpt>
      <trkpt lat="48.03991" lon="6.91904">
        <ele>1039.7</ele>
        <time>2022-05-26T07:21:03Z</time>
      </trkpt>
      <trkpt lat="48.04" lon="6.91911">
        <ele>1041.8</ele>
        <time>2022-05-26T07:21:10Z</time>
      </trkpt>
      <trkpt lat="48.04008" lon="6.91915">
        <ele>1042.2</ele>
        <time>2022-05-26T07:21:16Z</time>
      </trkpt>
      <trkpt lat="48.04019" lon="6.91919">
        <ele>1043.4</ele>
        <time>2022-05-26T07:21:22Z</time>
      </trkpt>
      <trkpt lat="48.04028" lon="6.9192">
        <ele>1044.9</ele>
        <time>2022-05-26T07:21:26Z</time>
      </trkpt>
      <trkpt lat="48.04035" lon="6.91922">
        <ele>1046.1</ele>
        <time>2022-05-26T07:21:33Z</time>
      </trkpt>
      <trkpt lat="48.04044" lon="6.9192">
        <ele>1046.7</ele>
        <time>2022-05-26T07:21:39Z</time>
      </trkpt>
      <trkpt lat="48.0404" lon="6.91908">
        <ele>1048.1</ele>
        <time>2022-05-26T07:21:46Z</time>
      </trkpt>
      <trkpt lat="48.04033" lon="6.91899">
        <ele>1050.1</ele>
        <time>2022-05-26T07:21:52Z</time>
      </trkpt>
      <trkpt lat="48.04027" lon="6.91887">
        <ele>1051</ele>
        <time>2022-05-26T07:21:59Z</time>
      </trkpt>
      <trkpt lat="48.04021" lon="6.91874">
        <ele>1051.7</ele>
        <time>2022-05-26T07:22:06Z</time>
      </trkpt>
      <trkpt lat="48.04015" lon="6.91861">
        <ele>1053.2</ele>
        <time>2022-05-26T07:22:12Z</time>
      </trkpt>
      <trkpt lat="48.04008" lon="6.9185">
        <ele>1053.1</ele>
        <time>2022-05-26T07:22:17Z</time>
      </trkpt>
      <trkpt lat="48.04002" lon="6.91838">
        <ele>1053.4</ele>
        <time>2022-05-26T07:22:21Z</time>
      </trkpt>
      <trkpt lat="48.03995" lon="6.91826">
        <ele>1054.2</ele>
        <time>2022-05-26T07:22:26Z</time>
      </trkpt>
      <trkpt lat="48.03989" lon="6.91814">
        <ele>1055</ele>
        <time>2022-05-26T07:22:31Z</time>
      </trkpt>
      <trkpt lat="48.03983" lon="6.91801">
        <ele>1056</ele>
        <time>2022-05-26T07:22:36Z</time>
      </trkpt>
      <trkpt lat="48.03978" lon="6.91789">
        <ele>1056.5</ele>
        <time>2022-05-26T07:22:41Z</time>
      </trkpt>
      <trkpt lat="48.03973" lon="6.91776">
        <ele>1058.4</ele>
        <time>2022-05-26T07:22:46Z</time>
      </trkpt>
      <trkpt lat="48.03968" lon="6.91763">
        <ele>1058.9</ele>
        <time>2022-05-26T07:22:51Z</time>
      </trkpt>
      <trkpt lat="48.03964" lon="6.91749">
        <ele>1059.6</ele>
        <time>2022-05-26T07:22:56Z</time>
      </trkpt>
      <trkpt lat="48.03959" lon="6.91736">
        <ele>1059.9</ele>
        <time>2022-05-26T07:23:01Z</time>
      </trkpt>
      <trkpt lat="48.03954" lon="6.91723">
        <ele>1060.1</ele>
        <time>2022-05-26T07:23:05Z</time>
      </trkpt>
      <trkpt lat="48.0395" lon="6.9171">
        <ele>1060.1</ele>
        <time>2022-05-26T07:23:09Z</time>
      </trkpt>
      <trkpt lat="48.03949" lon="6.91695">
        <ele>1061.7</ele>
        <time>2022-05-26T07:23:14Z</time>
      </trkpt>
      <trkpt lat="48.03948" lon="6.91681">
        <ele>1062.9</ele>
        <time>2022-05-26T07:23:19Z</time>
      </trkpt>
      <trkpt lat="48.03951" lon="6.91666">
        <ele>1065.8</ele>
        <time>2022-05-26T07:23:25Z</time>
      </trkpt>
      <trkpt lat="48.03954" lon="6.91653">
        <ele>1066.1</ele>
        <time>2022-05-26T07:23:31Z</time>
      </trkpt>
      <trkpt lat="48.03962" lon="6.91645">
        <ele>1066.6</ele>
        <time>2022-05-26T07:23:38Z</time>
      </trkpt>
      <trkpt lat="48.03971" lon="6.9164">
        <ele>1068.5</ele>
        <time>2022-05-26T07:23:43Z</time>
      </trkpt>
      <trkpt lat="48.0398" lon="6.91636">
        <ele>1069</ele>
        <time>2022-05-26T07:23:48Z</time>
      </trkpt>
      <trkpt lat="48.0398" lon="6.91623">
        <ele>1070.2</ele>
        <time>2022-05-26T07:23:58Z</time>
      </trkpt>
      <trkpt lat="48.03971" lon="6.91613">
        <ele>1069.9</ele>
        <time>2022-05-26T07:24:04Z</time>
      </trkpt>
      <trkpt lat="48.03966" lon="6.9161">
        <ele>1069.6</ele>
        <time>2022-05-26T07:24:15Z</time>
      </trkpt>
      <trkpt lat="48.03965" lon="6.9161">
        <ele>1069.5</ele>
        <time>2022-05-26T07:28:58Z</time>
      </trkpt>
      <trkpt lat="48.03964" lon="6.9161">
        <ele>1069.2</ele>
        <time>2022-05-26T07:29:50Z</time>
      </trkpt>
      <trkpt lat="48.03957" lon="6.91598">
        <ele>1070.5</ele>
        <time>2022-05-26T07:29:57Z</time>
      </trkpt>
      <trkpt lat="48.03949" lon="6.91588">
        <ele>1070.8</ele>
        <time>2022-05-26T07:30:02Z</time>
      </trkpt>
      <trkpt lat="48.0394" lon="6.91584">
        <ele>1071.1</ele>
        <time>2022-05-26T07:30:06Z</time>
      </trkpt>
      <trkpt lat="48.03929" lon="6.91583">
        <ele>1071.6</ele>
        <time>2022-05-26T07:30:10Z</time>
      </trkpt>
      <trkpt lat="48.0392" lon="6.91579">
        <ele>1071.6</ele>
        <time>2022-05-26T07:30:15Z</time>
      </trkpt>
      <trkpt lat="48.03919" lon="6.91579">
        <ele>1071.6</ele>
        <time>2022-05-26T07:30:18Z</time>
      </trkpt>
      <trkpt lat="48.03919" lon="6.9158">
        <ele>1071.2</ele>
        <time>2022-05-26T07:33:19Z</time>
      </trkpt>
      <trkpt lat="48.03918" lon="6.91579">
        <ele>1071.4</ele>
        <time>2022-05-26T07:34:13Z</time>
      </trkpt>
      <trkpt lat="48.03907" lon="6.91577">
        <ele>1071.6</ele>
        <time>2022-05-26T07:34:19Z</time>
      </trkpt>
      <trkpt lat="48.03896" lon="6.91573">
        <ele>1072</ele>
        <time>2022-05-26T07:34:23Z</time>
      </trkpt>
      <trkpt lat="48.03887" lon="6.91568">
        <ele>1070.9</ele>
        <time>2022-05-26T07:34:26Z</time>
      </trkpt>
      <trkpt lat="48.03878" lon="6.9156">
        <ele>1070</ele>
        <time>2022-05-26T07:34:29Z</time>
      </trkpt>
      <trkpt lat="48.0387" lon="6.91552">
        <ele>1069.1</ele>
        <time>2022-05-26T07:34:32Z</time>
      </trkpt>
      <trkpt lat="48.03862" lon="6.91542">
        <ele>1071.8</ele>
        <time>2022-05-26T07:34:35Z</time>
      </trkpt>
      <trkpt lat="48.03853" lon="6.91529">
        <ele>1069.6</ele>
        <time>2022-05-26T07:34:38Z</time>
      </trkpt>
      <trkpt lat="48.03847" lon="6.91516">
        <ele>1069.4</ele>
        <time>2022-05-26T07:34:41Z</time>
      </trkpt>
      <trkpt lat="48.0384" lon="6.91504">
        <ele>1069.3</ele>
        <time>2022-05-26T07:34:44Z</time>
      </trkpt>
      <trkpt lat="48.03834" lon="6.91491">
        <ele>1069.7</ele>
        <time>2022-05-26T07:34:47Z</time>
      </trkpt>
      <trkpt lat="48.0383" lon="6.91478">
        <ele>1069.9</ele>
        <time>2022-05-26T07:34:50Z</time>
      </trkpt>
      <trkpt lat="48.03827" lon="6.91461">
        <ele>1070.9</ele>
        <time>2022-05-26T07:34:54Z</time>
      </trkpt>
      <trkpt lat="48.03825" lon="6.91446">
        <ele>1071.2</ele>
        <time>2022-05-26T07:34:58Z</time>
      </trkpt>
      <trkpt lat="48.03821" lon="6.91431">
        <ele>1071.6</ele>
        <time>2022-05-26T07:35:02Z</time>
      </trkpt>
      <trkpt lat="48.03818" lon="6.91415">
        <ele>1072.8</ele>
        <time>2022-05-26T07:35:06Z</time>
      </trkpt>
      <trkpt lat="48.03809" lon="6.91401">
        <ele>1070.4</ele>
        <time>2022-05-26T07:35:10Z</time>
      </trkpt>
      <trkpt lat="48.03801" lon="6.91393">
        <ele>1068.8</ele>
        <time>2022-05-26T07:35:12Z</time>
      </trkpt>
      <trkpt lat="48.03791" lon="6.91384">
        <ele>1067.4</ele>
        <time>2022-05-26T07:35:14Z</time>
      </trkpt>
      <trkpt lat="48.0378" lon="6.91371">
        <ele>1065.3</ele>
        <time>2022-05-26T07:35:16Z</time>
      </trkpt>
      <trkpt lat="48.0377" lon="6.91359">
        <ele>1067.6</ele>
        <time>2022-05-26T07:35:18Z</time>
      </trkpt>
      <trkpt lat="48.03762" lon="6.91346">
        <ele>1066.7</ele>
        <time>2022-05-26T07:35:20Z</time>
      </trkpt>
      <trkpt lat="48.03754" lon="6.9133">
        <ele>1065.5</ele>
        <time>2022-05-26T07:35:22Z</time>
      </trkpt>
      <trkpt lat="48.03745" lon="6.91314">
        <ele>1065.6</ele>
        <time>2022-05-26T07:35:24Z</time>
      </trkpt>
      <trkpt lat="48.03735" lon="6.91299">
        <ele>1065.7</ele>
        <time>2022-05-26T07:35:26Z</time>
      </trkpt>
      <trkpt lat="48.03725" lon="6.91286">
        <ele>1065</ele>
        <time>2022-05-26T07:35:28Z</time>
      </trkpt>
      <trkpt lat="48.03716" lon="6.91274">
        <ele>1066.2</ele>
        <time>2022-05-26T07:35:30Z</time>
      </trkpt>
      <trkpt lat="48.03709" lon="6.91263">
        <ele>1067.8</ele>
        <time>2022-05-26T07:35:32Z</time>
      </trkpt>
      <trkpt lat="48.03701" lon="6.91251">
        <ele>1068</ele>
        <time>2022-05-26T07:35:35Z</time>
      </trkpt>
      <trkpt lat="48.03693" lon="6.91243">
        <ele>1069.3</ele>
        <time>2022-05-26T07:35:38Z</time>
      </trkpt>
      <trkpt lat="48.03684" lon="6.91233">
        <ele>1068.2</ele>
        <time>2022-05-26T07:35:42Z</time>
      </trkpt>
      <trkpt lat="48.03676" lon="6.91226">
        <ele>1069.8</ele>
        <time>2022-05-26T07:35:45Z</time>
      </trkpt>
      <trkpt lat="48.03666" lon="6.9122">
        <ele>1070.2</ele>
        <time>2022-05-26T07:35:48Z</time>
      </trkpt>
      <trkpt lat="48.03656" lon="6.91216">
        <ele>1070.3</ele>
        <time>2022-05-26T07:35:51Z</time>
      </trkpt>
      <trkpt lat="48.03645" lon="6.91212">
        <ele>1069.7</ele>
        <time>2022-05-26T07:35:54Z</time>
      </trkpt>
      <trkpt lat="48.03635" lon="6.91208">
        <ele>1069.8</ele>
        <time>2022-05-26T07:35:57Z</time>
      </trkpt>
      <trkpt lat="48.03625" lon="6.91203">
        <ele>1070.3</ele>
        <time>2022-05-26T07:36:00Z</time>
      </trkpt>
      <trkpt lat="48.03614" lon="6.91198">
        <ele>1071.1</ele>
        <time>2022-05-26T07:36:03Z</time>
      </trkpt>
      <trkpt lat="48.03604" lon="6.91191">
        <ele>1070.6</ele>
        <time>2022-05-26T07:36:06Z</time>
      </trkpt>
      <trkpt lat="48.03594" lon="6.91185">
        <ele>1071.7</ele>
        <time>2022-05-26T07:36:09Z</time>
      </trkpt>
      <trkpt lat="48.03585" lon="6.91179">
        <ele>1073.1</ele>
        <time>2022-05-26T07:36:12Z</time>
      </trkpt>
      <trkpt lat="48.03576" lon="6.91171">
        <ele>1071.8</ele>
        <time>2022-05-26T07:36:15Z</time>
      </trkpt>
      <trkpt lat="48.03567" lon="6.91164">
        <ele>1071</ele>
        <time>2022-05-26T07:36:18Z</time>
      </trkpt>
      <trkpt lat="48.03558" lon="6.91158">
        <ele>1070.9</ele>
        <time>2022-05-26T07:36:23Z</time>
      </trkpt>
      <trkpt lat="48.03558" lon="6.91157">
        <ele>1070.8</ele>
        <time>2022-05-26T07:36:26Z</time>
      </trkpt>
      <trkpt lat="48.03558" lon="6.91158">
        <ele>1070.9</ele>
        <time>2022-05-26T07:37:23Z</time>
      </trkpt>
      <trkpt lat="48.03557" lon="6.91156">
        <ele>1070.6</ele>
        <time>2022-05-26T07:39:08Z</time>
      </trkpt>
      <trkpt lat="48.0355" lon="6.91146">
        <ele>1069</ele>
        <time>2022-05-26T07:39:12Z</time>
      </trkpt>
      <trkpt lat="48.0354" lon="6.91134">
        <ele>1067</ele>
        <time>2022-05-26T07:39:15Z</time>
      </trkpt>
      <trkpt lat="48.03531" lon="6.91126">
        <ele>1065</ele>
        <time>2022-05-26T07:39:17Z</time>
      </trkpt>
      <trkpt lat="48.03519" lon="6.9112">
        <ele>1062.7</ele>
        <time>2022-05-26T07:39:19Z</time>
      </trkpt>
      <trkpt lat="48.03507" lon="6.91113">
        <ele>1065.5</ele>
        <time>2022-05-26T07:39:21Z</time>
      </trkpt>
      <trkpt lat="48.03498" lon="6.91102">
        <ele>1067.2</ele>
        <time>2022-05-26T07:39:23Z</time>
      </trkpt>
      <trkpt lat="48.03488" lon="6.9109">
        <ele>1063.9</ele>
        <time>2022-05-26T07:39:25Z</time>
      </trkpt>
      <trkpt lat="48.03477" lon="6.91077">
        <ele>1059.9</ele>
        <time>2022-05-26T07:39:27Z</time>
      </trkpt>
      <trkpt lat="48.03467" lon="6.9106">
        <ele>1061.5</ele>
        <time>2022-05-26T07:39:29Z</time>
      </trkpt>
      <trkpt lat="48.03458" lon="6.91045">
        <ele>1062.4</ele>
        <time>2022-05-26T07:39:31Z</time>
      </trkpt>
      <trkpt lat="48.0345" lon="6.91034">
        <ele>1063.4</ele>
        <time>2022-05-26T07:39:33Z</time>
      </trkpt>
      <trkpt lat="48.03443" lon="6.91025">
        <ele>1063.4</ele>
        <time>2022-05-26T07:39:35Z</time>
      </trkpt>
      <trkpt lat="48.03434" lon="6.91013">
        <ele>1064.5</ele>
        <time>2022-05-26T07:39:38Z</time>
      </trkpt>
      <trkpt lat="48.03428" lon="6.91002">
        <ele>1063.3</ele>
        <time>2022-05-26T07:39:41Z</time>
      </trkpt>
      <trkpt lat="48.03423" lon="6.90987">
        <ele>1062.8</ele>
        <time>2022-05-26T07:39:44Z</time>
      </trkpt>
      <trkpt lat="48.03418" lon="6.90969">
        <ele>1062.6</ele>
        <time>2022-05-26T07:39:47Z</time>
      </trkpt>
      <trkpt lat="48.03415" lon="6.90949">
        <ele>1059.9</ele>
        <time>2022-05-26T07:39:50Z</time>
      </trkpt>
      <trkpt lat="48.03413" lon="6.90934">
        <ele>1060.1</ele>
        <time>2022-05-26T07:39:52Z</time>
      </trkpt>
      <trkpt lat="48.0341" lon="6.90916">
        <ele>1061.4</ele>
        <time>2022-05-26T07:39:55Z</time>
      </trkpt>
      <trkpt lat="48.03406" lon="6.90901">
        <ele>1061.9</ele>
        <time>2022-05-26T07:39:58Z</time>
      </trkpt>
      <trkpt lat="48.03401" lon="6.90882">
        <ele>1060.5</ele>
        <time>2022-05-26T07:40:01Z</time>
      </trkpt>
      <trkpt lat="48.03397" lon="6.90866">
        <ele>1060</ele>
        <time>2022-05-26T07:40:03Z</time>
      </trkpt>
      <trkpt lat="48.03393" lon="6.9085">
        <ele>1059.6</ele>
        <time>2022-05-26T07:40:05Z</time>
      </trkpt>
      <trkpt lat="48.0339" lon="6.90837">
        <ele>1060.4</ele>
        <time>2022-05-26T07:40:07Z</time>
      </trkpt>
      <trkpt lat="48.03387" lon="6.9082">
        <ele>1060.7</ele>
        <time>2022-05-26T07:40:10Z</time>
      </trkpt>
      <trkpt lat="48.03385" lon="6.90804">
        <ele>1061.1</ele>
        <time>2022-05-26T07:40:13Z</time>
      </trkpt>
      <trkpt lat="48.03383" lon="6.90789">
        <ele>1060.6</ele>
        <time>2022-05-26T07:40:16Z</time>
      </trkpt>
      <trkpt lat="48.03383" lon="6.90774">
        <ele>1063</ele>
        <time>2022-05-26T07:40:19Z</time>
      </trkpt>
      <trkpt lat="48.03381" lon="6.90759">
        <ele>1063.3</ele>
        <time>2022-05-26T07:40:22Z</time>
      </trkpt>
      <trkpt lat="48.0338" lon="6.90746">
        <ele>1064</ele>
        <time>2022-05-26T07:40:25Z</time>
      </trkpt>
      <trkpt lat="48.03377" lon="6.90729">
        <ele>1064</ele>
        <time>2022-05-26T07:40:29Z</time>
      </trkpt>
      <trkpt lat="48.03377" lon="6.90715">
        <ele>1065.4</ele>
        <time>2022-05-26T07:40:33Z</time>
      </trkpt>
      <trkpt lat="48.03374" lon="6.90701">
        <ele>1068.3</ele>
        <time>2022-05-26T07:40:39Z</time>
      </trkpt>
      <trkpt lat="48.03369" lon="6.90688">
        <ele>1070.4</ele>
        <time>2022-05-26T07:40:46Z</time>
      </trkpt>
      <trkpt lat="48.03365" lon="6.90674">
        <ele>1072</ele>
        <time>2022-05-26T07:40:52Z</time>
      </trkpt>
      <trkpt lat="48.03364" lon="6.90658">
        <ele>1073.5</ele>
        <time>2022-05-26T07:40:57Z</time>
      </trkpt>
      <trkpt lat="48.03362" lon="6.90645">
        <ele>1075</ele>
        <time>2022-05-26T07:41:02Z</time>
      </trkpt>
      <trkpt lat="48.03358" lon="6.90631">
        <ele>1076.9</ele>
        <time>2022-05-26T07:41:08Z</time>
      </trkpt>
      <trkpt lat="48.03355" lon="6.90616">
        <ele>1078.1</ele>
        <time>2022-05-26T07:41:15Z</time>
      </trkpt>
      <trkpt lat="48.03356" lon="6.90602">
        <ele>1078.9</ele>
        <time>2022-05-26T07:41:21Z</time>
      </trkpt>
      <trkpt lat="48.03357" lon="6.90587">
        <ele>1080</ele>
        <time>2022-05-26T07:41:27Z</time>
      </trkpt>
      <trkpt lat="48.03359" lon="6.90572">
        <ele>1081.1</ele>
        <time>2022-05-26T07:41:33Z</time>
      </trkpt>
      <trkpt lat="48.03363" lon="6.90558">
        <ele>1082.4</ele>
        <time>2022-05-26T07:41:39Z</time>
      </trkpt>
      <trkpt lat="48.03365" lon="6.90543">
        <ele>1083.3</ele>
        <time>2022-05-26T07:41:45Z</time>
      </trkpt>
      <trkpt lat="48.03367" lon="6.90529">
        <ele>1084.6</ele>
        <time>2022-05-26T07:41:50Z</time>
      </trkpt>
      <trkpt lat="48.03371" lon="6.90517">
        <ele>1086.1</ele>
        <time>2022-05-26T07:41:55Z</time>
      </trkpt>
      <trkpt lat="48.03374" lon="6.90501">
        <ele>1087.4</ele>
        <time>2022-05-26T07:42:01Z</time>
      </trkpt>
      <trkpt lat="48.03376" lon="6.90488">
        <ele>1087.9</ele>
        <time>2022-05-26T07:42:06Z</time>
      </trkpt>
      <trkpt lat="48.03377" lon="6.90474">
        <ele>1088.6</ele>
        <time>2022-05-26T07:42:11Z</time>
      </trkpt>
      <trkpt lat="48.03377" lon="6.9046">
        <ele>1089.5</ele>
        <time>2022-05-26T07:42:16Z</time>
      </trkpt>
      <trkpt lat="48.03377" lon="6.90444">
        <ele>1088.9</ele>
        <time>2022-05-26T07:42:21Z</time>
      </trkpt>
      <trkpt lat="48.03374" lon="6.90427">
        <ele>1089.2</ele>
        <time>2022-05-26T07:42:26Z</time>
      </trkpt>
      <trkpt lat="48.03373" lon="6.90414">
        <ele>1089.9</ele>
        <time>2022-05-26T07:42:30Z</time>
      </trkpt>
      <trkpt lat="48.03371" lon="6.904">
        <ele>1089.9</ele>
        <time>2022-05-26T07:42:34Z</time>
      </trkpt>
      <trkpt lat="48.03369" lon="6.90383">
        <ele>1090</ele>
        <time>2022-05-26T07:42:38Z</time>
      </trkpt>
      <trkpt lat="48.03368" lon="6.90366">
        <ele>1090.4</ele>
        <time>2022-05-26T07:42:42Z</time>
      </trkpt>
      <trkpt lat="48.03369" lon="6.90349">
        <ele>1090.9</ele>
        <time>2022-05-26T07:42:46Z</time>
      </trkpt>
      <trkpt lat="48.03371" lon="6.90333">
        <ele>1090.7</ele>
        <time>2022-05-26T07:42:50Z</time>
      </trkpt>
      <trkpt lat="48.03374" lon="6.90316">
        <ele>1091.1</ele>
        <time>2022-05-26T07:42:55Z</time>
      </trkpt>
      <trkpt lat="48.03377" lon="6.90302">
        <ele>1091.4</ele>
        <time>2022-05-26T07:42:59Z</time>
      </trkpt>
      <trkpt lat="48.03379" lon="6.90285">
        <ele>1090.6</ele>
        <time>2022-05-26T07:43:04Z</time>
      </trkpt>
      <trkpt lat="48.0338" lon="6.90272">
        <ele>1088.6</ele>
        <time>2022-05-26T07:43:07Z</time>
      </trkpt>
      <trkpt lat="48.03385" lon="6.90258">
        <ele>1088.1</ele>
        <time>2022-05-26T07:43:11Z</time>
      </trkpt>
      <trkpt lat="48.03386" lon="6.90243">
        <ele>1085.3</ele>
        <time>2022-05-26T07:43:14Z</time>
      </trkpt>
      <trkpt lat="48.03384" lon="6.9023">
        <ele>1082.8</ele>
        <time>2022-05-26T07:43:16Z</time>
      </trkpt>
      <trkpt lat="48.03387" lon="6.90216">
        <ele>1082.6</ele>
        <time>2022-05-26T07:43:19Z</time>
      </trkpt>
      <trkpt lat="48.03396" lon="6.90209">
        <ele>1083</ele>
        <time>2022-05-26T07:43:23Z</time>
      </trkpt>
      <trkpt lat="48.03406" lon="6.90206">
        <ele>1083.3</ele>
        <time>2022-05-26T07:43:27Z</time>
      </trkpt>
      <trkpt lat="48.03414" lon="6.90196">
        <ele>1082.1</ele>
        <time>2022-05-26T07:43:31Z</time>
      </trkpt>
      <trkpt lat="48.03419" lon="6.90182">
        <ele>1081.3</ele>
        <time>2022-05-26T07:43:35Z</time>
      </trkpt>
      <trkpt lat="48.03426" lon="6.90168">
        <ele>1078</ele>
        <time>2022-05-26T07:43:38Z</time>
      </trkpt>
      <trkpt lat="48.03429" lon="6.90155">
        <ele>1078.3</ele>
        <time>2022-05-26T07:43:40Z</time>
      </trkpt>
      <trkpt lat="48.03432" lon="6.90141">
        <ele>1075.5</ele>
        <time>2022-05-26T07:43:42Z</time>
      </trkpt>
      <trkpt lat="48.03436" lon="6.90124">
        <ele>1072.5</ele>
        <time>2022-05-26T07:43:44Z</time>
      </trkpt>
      <trkpt lat="48.03438" lon="6.90099">
        <ele>1068.6</ele>
        <time>2022-05-26T07:43:46Z</time>
      </trkpt>
      <trkpt lat="48.0344" lon="6.90085">
        <ele>1067.3</ele>
        <time>2022-05-26T07:43:47Z</time>
      </trkpt>
      <trkpt lat="48.03442" lon="6.90072">
        <ele>1066.5</ele>
        <time>2022-05-26T07:43:48Z</time>
      </trkpt>
      <trkpt lat="48.0345" lon="6.90049">
        <ele>1066.2</ele>
        <time>2022-05-26T07:43:50Z</time>
      </trkpt>
      <trkpt lat="48.03455" lon="6.90024">
        <ele>1068.1</ele>
        <time>2022-05-26T07:43:52Z</time>
      </trkpt>
      <trkpt lat="48.03457" lon="6.90002">
        <ele>1067.4</ele>
        <time>2022-05-26T07:43:54Z</time>
      </trkpt>
      <trkpt lat="48.0346" lon="6.89982">
        <ele>1064.4</ele>
        <time>2022-05-26T07:43:56Z</time>
      </trkpt>
      <trkpt lat="48.03466" lon="6.89964">
        <ele>1062.8</ele>
        <time>2022-05-26T07:43:58Z</time>
      </trkpt>
      <trkpt lat="48.03474" lon="6.89947">
        <ele>1060.8</ele>
        <time>2022-05-26T07:44:00Z</time>
      </trkpt>
      <trkpt lat="48.03483" lon="6.89928">
        <ele>1060.9</ele>
        <time>2022-05-26T07:44:02Z</time>
      </trkpt>
      <trkpt lat="48.03491" lon="6.89906">
        <ele>1058.9</ele>
        <time>2022-05-26T07:44:04Z</time>
      </trkpt>
      <trkpt lat="48.03497" lon="6.89885">
        <ele>1058.4</ele>
        <time>2022-05-26T07:44:06Z</time>
      </trkpt>
      <trkpt lat="48.03501" lon="6.89866">
        <ele>1058.4</ele>
        <time>2022-05-26T07:44:08Z</time>
      </trkpt>
      <trkpt lat="48.03495" lon="6.89853">
        <ele>1058.3</ele>
        <time>2022-05-26T07:44:11Z</time>
      </trkpt>
      <trkpt lat="48.03487" lon="6.89844">
        <ele>1057.5</ele>
        <time>2022-05-26T07:44:14Z</time>
      </trkpt>
      <trkpt lat="48.03475" lon="6.89838">
        <ele>1056.1</ele>
        <time>2022-05-26T07:44:17Z</time>
      </trkpt>
      <trkpt lat="48.03463" lon="6.8984">
        <ele>1056.4</ele>
        <time>2022-05-26T07:44:20Z</time>
      </trkpt>
      <trkpt lat="48.03452" lon="6.89843">
        <ele>1058.1</ele>
        <time>2022-05-26T07:44:23Z</time>
      </trkpt>
      <trkpt lat="48.03441" lon="6.89846">
        <ele>1057.5</ele>
        <time>2022-05-26T07:44:26Z</time>
      </trkpt>
      <trkpt lat="48.03431" lon="6.89847">
        <ele>1057.1</ele>
        <time>2022-05-26T07:44:29Z</time>
      </trkpt>
      <trkpt lat="48.03421" lon="6.89846">
        <ele>1057.7</ele>
        <time>2022-05-26T07:44:33Z</time>
      </trkpt>
      <trkpt lat="48.03412" lon="6.89842">
        <ele>1058.4</ele>
        <time>2022-05-26T07:44:37Z</time>
      </trkpt>
      <trkpt lat="48.03401" lon="6.89837">
        <ele>1057.6</ele>
        <time>2022-05-26T07:44:41Z</time>
      </trkpt>
      <trkpt lat="48.03392" lon="6.89832">
        <ele>1058.4</ele>
        <time>2022-05-26T07:44:45Z</time>
      </trkpt>
      <trkpt lat="48.03384" lon="6.89824">
        <ele>1058.7</ele>
        <time>2022-05-26T07:44:49Z</time>
      </trkpt>
      <trkpt lat="48.03374" lon="6.89819">
        <ele>1058.1</ele>
        <time>2022-05-26T07:44:54Z</time>
      </trkpt>
      <trkpt lat="48.03366" lon="6.89815">
        <ele>1056.9</ele>
        <time>2022-05-26T07:45:00Z</time>
      </trkpt>
      <trkpt lat="48.03366" lon="6.89814">
        <ele>1056.5</ele>
        <time>2022-05-26T07:45:20Z</time>
      </trkpt>
      <trkpt lat="48.03367" lon="6.89814">
        <ele>1057.7</ele>
        <time>2022-05-26T07:47:57Z</time>
      </trkpt>
      <trkpt lat="48.03376" lon="6.89818">
        <ele>1058</ele>
        <time>2022-05-26T07:48:05Z</time>
      </trkpt>
      <trkpt lat="48.03378" lon="6.89823">
        <ele>1058.8</ele>
        <time>2022-05-26T07:48:15Z</time>
      </trkpt>
      <trkpt lat="48.03379" lon="6.89823">
        <ele>1058.6</ele>
        <time>2022-05-26T07:48:33Z</time>
      </trkpt>
      <trkpt lat="48.03382" lon="6.89821">
        <ele>1058.6</ele>
        <time>2022-05-26T07:48:55Z</time>
      </trkpt>
      <trkpt lat="48.03381" lon="6.89821">
        <ele>1058.4</ele>
        <time>2022-05-26T07:49:40Z</time>
      </trkpt>
      <trkpt lat="48.03373" lon="6.89815">
        <ele>1056.8</ele>
        <time>2022-05-26T07:49:46Z</time>
      </trkpt>
      <trkpt lat="48.03367" lon="6.89813">
        <ele>1056.8</ele>
        <time>2022-05-26T07:49:53Z</time>
      </trkpt>
      <trkpt lat="48.03366" lon="6.89813">
        <ele>1056.4</ele>
        <time>2022-05-26T07:50:46Z</time>
      </trkpt>
      <trkpt lat="48.03366" lon="6.89814">
        <ele>1056.5</ele>
        <time>2022-05-26T07:50:51Z</time>
      </trkpt>
      <trkpt lat="48.03366" lon="6.89813">
        <ele>1056.3</ele>
        <time>2022-05-26T07:51:08Z</time>
      </trkpt>
      <trkpt lat="48.03358" lon="6.89803">
        <ele>1054</ele>
        <time>2022-05-26T07:51:12Z</time>
      </trkpt>
      <trkpt lat="48.0335" lon="6.89793">
        <ele>1055.3</ele>
        <time>2022-05-26T07:51:15Z</time>
      </trkpt>
      <trkpt lat="48.03341" lon="6.89783">
        <ele>1054.2</ele>
        <time>2022-05-26T07:51:18Z</time>
      </trkpt>
      <trkpt lat="48.03333" lon="6.89775">
        <ele>1053.6</ele>
        <time>2022-05-26T07:51:21Z</time>
      </trkpt>
      <trkpt lat="48.03324" lon="6.89767">
        <ele>1054.6</ele>
        <time>2022-05-26T07:51:25Z</time>
      </trkpt>
      <trkpt lat="48.03317" lon="6.89757">
        <ele>1053.2</ele>
        <time>2022-05-26T07:51:28Z</time>
      </trkpt>
      <trkpt lat="48.03308" lon="6.89744">
        <ele>1053.4</ele>
        <time>2022-05-26T07:51:31Z</time>
      </trkpt>
      <trkpt lat="48.03301" lon="6.89734">
        <ele>1051.2</ele>
        <time>2022-05-26T07:51:33Z</time>
      </trkpt>
      <trkpt lat="48.03291" lon="6.89723">
        <ele>1049.1</ele>
        <time>2022-05-26T07:51:35Z</time>
      </trkpt>
      <trkpt lat="48.03284" lon="6.89709">
        <ele>1049.9</ele>
        <time>2022-05-26T07:51:37Z</time>
      </trkpt>
      <trkpt lat="48.03275" lon="6.89696">
        <ele>1048.4</ele>
        <time>2022-05-26T07:51:39Z</time>
      </trkpt>
      <trkpt lat="48.03264" lon="6.89686">
        <ele>1048</ele>
        <time>2022-05-26T07:51:41Z</time>
      </trkpt>
      <trkpt lat="48.03252" lon="6.89679">
        <ele>1047.2</ele>
        <time>2022-05-26T07:51:43Z</time>
      </trkpt>
      <trkpt lat="48.0324" lon="6.89676">
        <ele>1046.9</ele>
        <time>2022-05-26T07:51:45Z</time>
      </trkpt>
      <trkpt lat="48.03229" lon="6.89674">
        <ele>1047.5</ele>
        <time>2022-05-26T07:51:47Z</time>
      </trkpt>
      <trkpt lat="48.03218" lon="6.89667">
        <ele>1047</ele>
        <time>2022-05-26T07:51:49Z</time>
      </trkpt>
      <trkpt lat="48.03209" lon="6.89656">
        <ele>1042.7</ele>
        <time>2022-05-26T07:51:51Z</time>
      </trkpt>
      <trkpt lat="48.032" lon="6.89643">
        <ele>1041.2</ele>
        <time>2022-05-26T07:51:53Z</time>
      </trkpt>
      <trkpt lat="48.03191" lon="6.89628">
        <ele>1040.8</ele>
        <time>2022-05-26T07:51:55Z</time>
      </trkpt>
      <trkpt lat="48.0318" lon="6.89613">
        <ele>1041.3</ele>
        <time>2022-05-26T07:51:57Z</time>
      </trkpt>
      <trkpt lat="48.03169" lon="6.89598">
        <ele>1039.9</ele>
        <time>2022-05-26T07:51:59Z</time>
      </trkpt>
      <trkpt lat="48.03156" lon="6.89582">
        <ele>1034.5</ele>
        <time>2022-05-26T07:52:01Z</time>
      </trkpt>
      <trkpt lat="48.03142" lon="6.89567">
        <ele>1032.3</ele>
        <time>2022-05-26T07:52:03Z</time>
      </trkpt>
      <trkpt lat="48.03128" lon="6.8955">
        <ele>1033.7</ele>
        <time>2022-05-26T07:52:05Z</time>
      </trkpt>
      <trkpt lat="48.03116" lon="6.89531">
        <ele>1031.8</ele>
        <time>2022-05-26T07:52:07Z</time>
      </trkpt>
      <trkpt lat="48.03104" lon="6.89512">
        <ele>1032.7</ele>
        <time>2022-05-26T07:52:09Z</time>
      </trkpt>
      <trkpt lat="48.03097" lon="6.89502">
        <ele>1032.8</ele>
        <time>2022-05-26T07:52:10Z</time>
      </trkpt>
      <trkpt lat="48.03091" lon="6.89491">
        <ele>1030.6</ele>
        <time>2022-05-26T07:52:11Z</time>
      </trkpt>
      <trkpt lat="48.03085" lon="6.8948">
        <ele>1028</ele>
        <time>2022-05-26T07:52:12Z</time>
      </trkpt>
      <trkpt lat="48.0308" lon="6.89468">
        <ele>1027.4</ele>
        <time>2022-05-26T07:52:13Z</time>
      </trkpt>
      <trkpt lat="48.03075" lon="6.89457">
        <ele>1027.4</ele>
        <time>2022-05-26T07:52:14Z</time>
      </trkpt>
      <trkpt lat="48.03069" lon="6.89447">
        <ele>1028.2</ele>
        <time>2022-05-26T07:52:15Z</time>
      </trkpt>
      <trkpt lat="48.03059" lon="6.89426">
        <ele>1027.7</ele>
        <time>2022-05-26T07:52:17Z</time>
      </trkpt>
      <trkpt lat="48.0305" lon="6.89404">
        <ele>1023.2</ele>
        <time>2022-05-26T07:52:19Z</time>
      </trkpt>
      <trkpt lat="48.03045" lon="6.89392">
        <ele>1021.8</ele>
        <time>2022-05-26T07:52:20Z</time>
      </trkpt>
      <trkpt lat="48.03041" lon="6.8938">
        <ele>1021.9</ele>
        <time>2022-05-26T07:52:21Z</time>
      </trkpt>
      <trkpt lat="48.03031" lon="6.89358">
        <ele>1018.4</ele>
        <time>2022-05-26T07:52:23Z</time>
      </trkpt>
      <trkpt lat="48.0302" lon="6.8934">
        <ele>1021.4</ele>
        <time>2022-05-26T07:52:25Z</time>
      </trkpt>
      <trkpt lat="48.03005" lon="6.89327">
        <ele>1021.6</ele>
        <time>2022-05-26T07:52:27Z</time>
      </trkpt>
      <trkpt lat="48.02997" lon="6.89321">
        <ele>1022</ele>
        <time>2022-05-26T07:52:28Z</time>
      </trkpt>
      <trkpt lat="48.02988" lon="6.89316">
        <ele>1020.6</ele>
        <time>2022-05-26T07:52:29Z</time>
      </trkpt>
      <trkpt lat="48.02979" lon="6.89312">
        <ele>1021.2</ele>
        <time>2022-05-26T07:52:30Z</time>
      </trkpt>
      <trkpt lat="48.0297" lon="6.89309">
        <ele>1018.7</ele>
        <time>2022-05-26T07:52:31Z</time>
      </trkpt>
      <trkpt lat="48.02961" lon="6.89306">
        <ele>1016.6</ele>
        <time>2022-05-26T07:52:32Z</time>
      </trkpt>
      <trkpt lat="48.02945" lon="6.89299">
        <ele>1016.1</ele>
        <time>2022-05-26T07:52:34Z</time>
      </trkpt>
      <trkpt lat="48.02931" lon="6.89288">
        <ele>1012.4</ele>
        <time>2022-05-26T07:52:36Z</time>
      </trkpt>
      <trkpt lat="48.02917" lon="6.89273">
        <ele>1010.1</ele>
        <time>2022-05-26T07:52:38Z</time>
      </trkpt>
      <trkpt lat="48.02904" lon="6.89257">
        <ele>1008.8</ele>
        <time>2022-05-26T07:52:40Z</time>
      </trkpt>
      <trkpt lat="48.02898" lon="6.89247">
        <ele>1006.7</ele>
        <time>2022-05-26T07:52:41Z</time>
      </trkpt>
      <trkpt lat="48.02892" lon="6.89237">
        <ele>1002.8</ele>
        <time>2022-05-26T07:52:42Z</time>
      </trkpt>
      <trkpt lat="48.02886" lon="6.89226">
        <ele>1001.9</ele>
        <time>2022-05-26T07:52:43Z</time>
      </trkpt>
      <trkpt lat="48.02879" lon="6.89215">
        <ele>998</ele>
        <time>2022-05-26T07:52:44Z</time>
      </trkpt>
      <trkpt lat="48.02872" lon="6.89204">
        <ele>996.3</ele>
        <time>2022-05-26T07:52:45Z</time>
      </trkpt>
      <trkpt lat="48.02865" lon="6.89193">
        <ele>993</ele>
        <time>2022-05-26T07:52:46Z</time>
      </trkpt>
      <trkpt lat="48.02858" lon="6.89181">
        <ele>994.4</ele>
        <time>2022-05-26T07:52:47Z</time>
      </trkpt>
      <trkpt lat="48.02852" lon="6.8917">
        <ele>994.2</ele>
        <time>2022-05-26T07:52:48Z</time>
      </trkpt>
      <trkpt lat="48.02847" lon="6.89158">
        <ele>995</ele>
        <time>2022-05-26T07:52:49Z</time>
      </trkpt>
      <trkpt lat="48.02842" lon="6.89146">
        <ele>993.5</ele>
        <time>2022-05-26T07:52:50Z</time>
      </trkpt>
      <trkpt lat="48.02838" lon="6.89133">
        <ele>993.6</ele>
        <time>2022-05-26T07:52:51Z</time>
      </trkpt>
      <trkpt lat="48.02833" lon="6.8912">
        <ele>990.3</ele>
        <time>2022-05-26T07:52:52Z</time>
      </trkpt>
      <trkpt lat="48.02828" lon="6.89107">
        <ele>990.5</ele>
        <time>2022-05-26T07:52:53Z</time>
      </trkpt>
      <trkpt lat="48.02823" lon="6.89094">
        <ele>988.9</ele>
        <time>2022-05-26T07:52:54Z</time>
      </trkpt>
      <trkpt lat="48.02818" lon="6.8908">
        <ele>988.9</ele>
        <time>2022-05-26T07:52:55Z</time>
      </trkpt>
      <trkpt lat="48.02813" lon="6.89068">
        <ele>987.1</ele>
        <time>2022-05-26T07:52:56Z</time>
      </trkpt>
      <trkpt lat="48.02807" lon="6.89055">
        <ele>985.8</ele>
        <time>2022-05-26T07:52:57Z</time>
      </trkpt>
      <trkpt lat="48.02801" lon="6.89043">
        <ele>986.4</ele>
        <time>2022-05-26T07:52:58Z</time>
      </trkpt>
      <trkpt lat="48.02794" lon="6.89031">
        <ele>987.6</ele>
        <time>2022-05-26T07:52:59Z</time>
      </trkpt>
      <trkpt lat="48.02787" lon="6.89018">
        <ele>985.7</ele>
        <time>2022-05-26T07:53:00Z</time>
      </trkpt>
      <trkpt lat="48.02781" lon="6.89005">
        <ele>983.8</ele>
        <time>2022-05-26T07:53:01Z</time>
      </trkpt>
      <trkpt lat="48.02776" lon="6.88991">
        <ele>980.8</ele>
        <time>2022-05-26T07:53:02Z</time>
      </trkpt>
      <trkpt lat="48.02771" lon="6.88977">
        <ele>978.3</ele>
        <time>2022-05-26T07:53:03Z</time>
      </trkpt>
      <trkpt lat="48.02766" lon="6.88963">
        <ele>978</ele>
        <time>2022-05-26T07:53:04Z</time>
      </trkpt>
      <trkpt lat="48.02763" lon="6.88948">
        <ele>979</ele>
        <time>2022-05-26T07:53:05Z</time>
      </trkpt>
      <trkpt lat="48.0276" lon="6.88933">
        <ele>978.9</ele>
        <time>2022-05-26T07:53:06Z</time>
      </trkpt>
      <trkpt lat="48.02757" lon="6.88918">
        <ele>978.2</ele>
        <time>2022-05-26T07:53:07Z</time>
      </trkpt>
      <trkpt lat="48.02753" lon="6.88904">
        <ele>978.4</ele>
        <time>2022-05-26T07:53:08Z</time>
      </trkpt>
      <trkpt lat="48.02749" lon="6.8889">
        <ele>979.7</ele>
        <time>2022-05-26T07:53:09Z</time>
      </trkpt>
      <trkpt lat="48.02744" lon="6.88877">
        <ele>979</ele>
        <time>2022-05-26T07:53:10Z</time>
      </trkpt>
      <trkpt lat="48.0274" lon="6.88864">
        <ele>978.6</ele>
        <time>2022-05-26T07:53:11Z</time>
      </trkpt>
      <trkpt lat="48.02733" lon="6.8884">
        <ele>976.5</ele>
        <time>2022-05-26T07:53:13Z</time>
      </trkpt>
      <trkpt lat="48.02728" lon="6.88817">
        <ele>974.5</ele>
        <time>2022-05-26T07:53:15Z</time>
      </trkpt>
      <trkpt lat="48.02723" lon="6.88794">
        <ele>975.8</ele>
        <time>2022-05-26T07:53:17Z</time>
      </trkpt>
      <trkpt lat="48.02713" lon="6.88776">
        <ele>978</ele>
        <time>2022-05-26T07:53:19Z</time>
      </trkpt>
      <trkpt lat="48.027" lon="6.88762">
        <ele>978.4</ele>
        <time>2022-05-26T07:53:21Z</time>
      </trkpt>
      <trkpt lat="48.0269" lon="6.88742">
        <ele>974.8</ele>
        <time>2022-05-26T07:53:23Z</time>
      </trkpt>
      <trkpt lat="48.02685" lon="6.8873">
        <ele>974</ele>
        <time>2022-05-26T07:53:24Z</time>
      </trkpt>
      <trkpt lat="48.0268" lon="6.88719">
        <ele>971.8</ele>
        <time>2022-05-26T07:53:25Z</time>
      </trkpt>
      <trkpt lat="48.02674" lon="6.88708">
        <ele>971.5</ele>
        <time>2022-05-26T07:53:26Z</time>
      </trkpt>
      <trkpt lat="48.02661" lon="6.88692">
        <ele>968.2</ele>
        <time>2022-05-26T07:53:28Z</time>
      </trkpt>
      <trkpt lat="48.02651" lon="6.88677">
        <ele>965.4</ele>
        <time>2022-05-26T07:53:30Z</time>
      </trkpt>
      <trkpt lat="48.02647" lon="6.88663">
        <ele>967.9</ele>
        <time>2022-05-26T07:53:32Z</time>
      </trkpt>
      <trkpt lat="48.02647" lon="6.88644">
        <ele>966.1</ele>
        <time>2022-05-26T07:53:35Z</time>
      </trkpt>
      <trkpt lat="48.02645" lon="6.88629">
        <ele>963</ele>
        <time>2022-05-26T07:53:37Z</time>
      </trkpt>
      <trkpt lat="48.02641" lon="6.88613">
        <ele>962</ele>
        <time>2022-05-26T07:53:39Z</time>
      </trkpt>
      <trkpt lat="48.02638" lon="6.88596">
        <ele>960.2</ele>
        <time>2022-05-26T07:53:41Z</time>
      </trkpt>
      <trkpt lat="48.02636" lon="6.88578">
        <ele>961</ele>
        <time>2022-05-26T07:53:44Z</time>
      </trkpt>
      <trkpt lat="48.0264" lon="6.88564">
        <ele>961.8</ele>
        <time>2022-05-26T07:53:48Z</time>
      </trkpt>
      <trkpt lat="48.02644" lon="6.8855">
        <ele>962.6</ele>
        <time>2022-05-26T07:53:53Z</time>
      </trkpt>
      <trkpt lat="48.02648" lon="6.88536">
        <ele>963.5</ele>
        <time>2022-05-26T07:54:00Z</time>
      </trkpt>
      <trkpt lat="48.0265" lon="6.88521">
        <ele>963.3</ele>
        <time>2022-05-26T07:54:05Z</time>
      </trkpt>
      <trkpt lat="48.02654" lon="6.88505">
        <ele>962.4</ele>
        <time>2022-05-26T07:54:09Z</time>
      </trkpt>
      <trkpt lat="48.02658" lon="6.88492">
        <ele>963</ele>
        <time>2022-05-26T07:54:12Z</time>
      </trkpt>
      <trkpt lat="48.02662" lon="6.88478">
        <ele>963.2</ele>
        <time>2022-05-26T07:54:15Z</time>
      </trkpt>
      <trkpt lat="48.02667" lon="6.88463">
        <ele>963.2</ele>
        <time>2022-05-26T07:54:18Z</time>
      </trkpt>
      <trkpt lat="48.02671" lon="6.88447">
        <ele>963.9</ele>
        <time>2022-05-26T07:54:21Z</time>
      </trkpt>
      <trkpt lat="48.02675" lon="6.88432">
        <ele>964.3</ele>
        <time>2022-05-26T07:54:24Z</time>
      </trkpt>
      <trkpt lat="48.02682" lon="6.88423">
        <ele>966.2</ele>
        <time>2022-05-26T07:54:31Z</time>
      </trkpt>
      <trkpt lat="48.02683" lon="6.88423">
        <ele>965.7</ele>
        <time>2022-05-26T07:55:06Z</time>
      </trkpt>
      <trkpt lat="48.0268" lon="6.88426">
        <ele>965.4</ele>
        <time>2022-05-26T07:57:30Z</time>
      </trkpt>
      <trkpt lat="48.0268" lon="6.88427">
        <ele>964.9</ele>
        <time>2022-05-26T08:00:43Z</time>
      </trkpt>
      <trkpt lat="48.02672" lon="6.88437">
        <ele>964.4</ele>
        <time>2022-05-26T08:02:21Z</time>
      </trkpt>
      <trkpt lat="48.02667" lon="6.88452">
        <ele>964.2</ele>
        <time>2022-05-26T08:02:25Z</time>
      </trkpt>
      <trkpt lat="48.02663" lon="6.88465">
        <ele>964</ele>
        <time>2022-05-26T08:02:28Z</time>
      </trkpt>
      <trkpt lat="48.02658" lon="6.8848">
        <ele>963.6</ele>
        <time>2022-05-26T08:02:31Z</time>
      </trkpt>
      <trkpt lat="48.02655" lon="6.88494">
        <ele>963.8</ele>
        <time>2022-05-26T08:02:34Z</time>
      </trkpt>
      <trkpt lat="48.0265" lon="6.88509">
        <ele>963.8</ele>
        <time>2022-05-26T08:02:37Z</time>
      </trkpt>
      <trkpt lat="48.02646" lon="6.88527">
        <ele>963.1</ele>
        <time>2022-05-26T08:02:40Z</time>
      </trkpt>
      <trkpt lat="48.02642" lon="6.88545">
        <ele>962.2</ele>
        <time>2022-05-26T08:02:43Z</time>
      </trkpt>
      <trkpt lat="48.02638" lon="6.8856">
        <ele>962.1</ele>
        <time>2022-05-26T08:02:45Z</time>
      </trkpt>
      <trkpt lat="48.02634" lon="6.88574">
        <ele>961.3</ele>
        <time>2022-05-26T08:02:47Z</time>
      </trkpt>
      <trkpt lat="48.02626" lon="6.88581">
        <ele>960.4</ele>
        <time>2022-05-26T08:02:49Z</time>
      </trkpt>
      <trkpt lat="48.02615" lon="6.88581">
        <ele>958.9</ele>
        <time>2022-05-26T08:02:51Z</time>
      </trkpt>
      <trkpt lat="48.02604" lon="6.88576">
        <ele>957.7</ele>
        <time>2022-05-26T08:02:53Z</time>
      </trkpt>
      <trkpt lat="48.02592" lon="6.8857">
        <ele>957.5</ele>
        <time>2022-05-26T08:02:55Z</time>
      </trkpt>
      <trkpt lat="48.0258" lon="6.88563">
        <ele>957.3</ele>
        <time>2022-05-26T08:02:57Z</time>
      </trkpt>
      <trkpt lat="48.0257" lon="6.88555">
        <ele>958.2</ele>
        <time>2022-05-26T08:02:59Z</time>
      </trkpt>
      <trkpt lat="48.02562" lon="6.88541">
        <ele>956.9</ele>
        <time>2022-05-26T08:03:01Z</time>
      </trkpt>
      <trkpt lat="48.02557" lon="6.88525">
        <ele>954.6</ele>
        <time>2022-05-26T08:03:03Z</time>
      </trkpt>
      <trkpt lat="48.02554" lon="6.88508">
        <ele>957.8</ele>
        <time>2022-05-26T08:03:05Z</time>
      </trkpt>
      <trkpt lat="48.0255" lon="6.88493">
        <ele>955.9</ele>
        <time>2022-05-26T08:03:07Z</time>
      </trkpt>
      <trkpt lat="48.02546" lon="6.88479">
        <ele>955.2</ele>
        <time>2022-05-26T08:03:09Z</time>
      </trkpt>
      <trkpt lat="48.02539" lon="6.88467">
        <ele>956.7</ele>
        <time>2022-05-26T08:03:12Z</time>
      </trkpt>
      <trkpt lat="48.0253" lon="6.88457">
        <ele>957.4</ele>
        <time>2022-05-26T08:03:16Z</time>
      </trkpt>
      <trkpt lat="48.0252" lon="6.88447">
        <ele>958.3</ele>
        <time>2022-05-26T08:03:20Z</time>
      </trkpt>
      <trkpt lat="48.0251" lon="6.88441">
        <ele>958.7</ele>
        <time>2022-05-26T08:03:23Z</time>
      </trkpt>
      <trkpt lat="48.02501" lon="6.88436">
        <ele>957.9</ele>
        <time>2022-05-26T08:03:26Z</time>
      </trkpt>
      <trkpt lat="48.02491" lon="6.88434">
        <ele>957.8</ele>
        <time>2022-05-26T08:03:29Z</time>
      </trkpt>
      <trkpt lat="48.02481" lon="6.88433">
        <ele>958.4</ele>
        <time>2022-05-26T08:03:32Z</time>
      </trkpt>
      <trkpt lat="48.02471" lon="6.88434">
        <ele>958.8</ele>
        <time>2022-05-26T08:03:35Z</time>
      </trkpt>
      <trkpt lat="48.02461" lon="6.88439">
        <ele>958.7</ele>
        <time>2022-05-26T08:03:38Z</time>
      </trkpt>
      <trkpt lat="48.0245" lon="6.88442">
        <ele>957.8</ele>
        <time>2022-05-26T08:03:41Z</time>
      </trkpt>
      <trkpt lat="48.02439" lon="6.88441">
        <ele>957.8</ele>
        <time>2022-05-26T08:03:44Z</time>
      </trkpt>
      <trkpt lat="48.02429" lon="6.88433">
        <ele>956.8</ele>
        <time>2022-05-26T08:03:47Z</time>
      </trkpt>
      <trkpt lat="48.0242" lon="6.88422">
        <ele>954.4</ele>
        <time>2022-05-26T08:03:49Z</time>
      </trkpt>
      <trkpt lat="48.02408" lon="6.88407">
        <ele>950.3</ele>
        <time>2022-05-26T08:03:51Z</time>
      </trkpt>
      <trkpt lat="48.02394" lon="6.88398">
        <ele>953.8</ele>
        <time>2022-05-26T08:03:53Z</time>
      </trkpt>
      <trkpt lat="48.02382" lon="6.88395">
        <ele>953.8</ele>
        <time>2022-05-26T08:03:55Z</time>
      </trkpt>
      <trkpt lat="48.0237" lon="6.88392">
        <ele>955.4</ele>
        <time>2022-05-26T08:03:58Z</time>
      </trkpt>
      <trkpt lat="48.02361" lon="6.88391">
        <ele>957.6</ele>
        <time>2022-05-26T08:04:01Z</time>
      </trkpt>
      <trkpt lat="48.02351" lon="6.88392">
        <ele>956.5</ele>
        <time>2022-05-26T08:04:05Z</time>
      </trkpt>
      <trkpt lat="48.02342" lon="6.88395">
        <ele>959.3</ele>
        <time>2022-05-26T08:04:10Z</time>
      </trkpt>
      <trkpt lat="48.02333" lon="6.88404">
        <ele>959</ele>
        <time>2022-05-26T08:04:15Z</time>
      </trkpt>
      <trkpt lat="48.02325" lon="6.88411">
        <ele>960.9</ele>
        <time>2022-05-26T08:04:19Z</time>
      </trkpt>
      <trkpt lat="48.02316" lon="6.88418">
        <ele>961.9</ele>
        <time>2022-05-26T08:04:24Z</time>
      </trkpt>
      <trkpt lat="48.02306" lon="6.88421">
        <ele>962.7</ele>
        <time>2022-05-26T08:04:29Z</time>
      </trkpt>
      <trkpt lat="48.02297" lon="6.88418">
        <ele>962.9</ele>
        <time>2022-05-26T08:04:34Z</time>
      </trkpt>
      <trkpt lat="48.02286" lon="6.88413">
        <ele>962.4</ele>
        <time>2022-05-26T08:04:39Z</time>
      </trkpt>
      <trkpt lat="48.02277" lon="6.88408">
        <ele>961.9</ele>
        <time>2022-05-26T08:04:43Z</time>
      </trkpt>
      <trkpt lat="48.0227" lon="6.884">
        <ele>962.6</ele>
        <time>2022-05-26T08:04:48Z</time>
      </trkpt>
      <trkpt lat="48.02269" lon="6.884">
        <ele>962.1</ele>
        <time>2022-05-26T08:04:51Z</time>
      </trkpt>
      <trkpt lat="48.0226" lon="6.88396">
        <ele>959.9</ele>
        <time>2022-05-26T08:04:55Z</time>
      </trkpt>
      <trkpt lat="48.02251" lon="6.88389">
        <ele>958.4</ele>
        <time>2022-05-26T08:04:57Z</time>
      </trkpt>
      <trkpt lat="48.0224" lon="6.88382">
        <ele>956.1</ele>
        <time>2022-05-26T08:04:59Z</time>
      </trkpt>
      <trkpt lat="48.02228" lon="6.88376">
        <ele>955.6</ele>
        <time>2022-05-26T08:05:01Z</time>
      </trkpt>
      <trkpt lat="48.02216" lon="6.88371">
        <ele>956.5</ele>
        <time>2022-05-26T08:05:03Z</time>
      </trkpt>
      <trkpt lat="48.02207" lon="6.88366">
        <ele>958.2</ele>
        <time>2022-05-26T08:05:05Z</time>
      </trkpt>
      <trkpt lat="48.022" lon="6.88355">
        <ele>960.3</ele>
        <time>2022-05-26T08:05:09Z</time>
      </trkpt>
      <trkpt lat="48.02196" lon="6.88342">
        <ele>962.2</ele>
        <time>2022-05-26T08:05:14Z</time>
      </trkpt>
      <trkpt lat="48.02188" lon="6.88333">
        <ele>961.7</ele>
        <time>2022-05-26T08:05:22Z</time>
      </trkpt>
      <trkpt lat="48.02182" lon="6.88329">
        <ele>964.3</ele>
        <time>2022-05-26T08:05:28Z</time>
      </trkpt>
      <trkpt lat="48.02182" lon="6.8833">
        <ele>964</ele>
        <time>2022-05-26T08:05:31Z</time>
      </trkpt>
      <trkpt lat="48.02183" lon="6.8833">
        <ele>964.1</ele>
        <time>2022-05-26T08:05:36Z</time>
      </trkpt>
      <trkpt lat="48.02192" lon="6.88334">
        <ele>963</ele>
        <time>2022-05-26T08:05:47Z</time>
      </trkpt>
      <trkpt lat="48.02199" lon="6.88339">
        <ele>963</ele>
        <time>2022-05-26T08:05:57Z</time>
      </trkpt>
      <trkpt lat="48.022" lon="6.8834">
        <ele>963.1</ele>
        <time>2022-05-26T08:06:08Z</time>
      </trkpt>
      <trkpt lat="48.02209" lon="6.88348">
        <ele>962</ele>
        <time>2022-05-26T08:06:13Z</time>
      </trkpt>
      <trkpt lat="48.0222" lon="6.88355">
        <ele>960.3</ele>
        <time>2022-05-26T08:06:17Z</time>
      </trkpt>
      <trkpt lat="48.0223" lon="6.8836">
        <ele>961.3</ele>
        <time>2022-05-26T08:06:20Z</time>
      </trkpt>
      <trkpt lat="48.0224" lon="6.88366">
        <ele>962</ele>
        <time>2022-05-26T08:06:23Z</time>
      </trkpt>
      <trkpt lat="48.0225" lon="6.88373">
        <ele>961.8</ele>
        <time>2022-05-26T08:06:27Z</time>
      </trkpt>
      <trkpt lat="48.02259" lon="6.88382">
        <ele>962.4</ele>
        <time>2022-05-26T08:06:31Z</time>
      </trkpt>
      <trkpt lat="48.02266" lon="6.88394">
        <ele>960.3</ele>
        <time>2022-05-26T08:06:35Z</time>
      </trkpt>
      <trkpt lat="48.02272" lon="6.88404">
        <ele>962.3</ele>
        <time>2022-05-26T08:06:39Z</time>
      </trkpt>
      <trkpt lat="48.0228" lon="6.88414">
        <ele>962.6</ele>
        <time>2022-05-26T08:06:44Z</time>
      </trkpt>
      <trkpt lat="48.02271" lon="6.88404">
        <ele>962.6</ele>
        <time>2022-05-26T08:07:00Z</time>
      </trkpt>
      <trkpt lat="48.0226" lon="6.88395">
        <ele>960.1</ele>
        <time>2022-05-26T08:07:03Z</time>
      </trkpt>
      <trkpt lat="48.02249" lon="6.88386">
        <ele>956.8</ele>
        <time>2022-05-26T08:07:05Z</time>
      </trkpt>
      <trkpt lat="48.0224" lon="6.88381">
        <ele>958.1</ele>
        <time>2022-05-26T08:07:07Z</time>
      </trkpt>
      <trkpt lat="48.02246" lon="6.88397">
        <ele>954.6</ele>
        <time>2022-05-26T08:07:13Z</time>
      </trkpt>
      <trkpt lat="48.02253" lon="6.88407">
        <ele>953.8</ele>
        <time>2022-05-26T08:07:15Z</time>
      </trkpt>
      <trkpt lat="48.02252" lon="6.88421">
        <ele>954.2</ele>
        <time>2022-05-26T08:07:19Z</time>
      </trkpt>
      <trkpt lat="48.02243" lon="6.88411">
        <ele>954.1</ele>
        <time>2022-05-26T08:07:23Z</time>
      </trkpt>
      <trkpt lat="48.02236" lon="6.88402">
        <ele>954.2</ele>
        <time>2022-05-26T08:07:26Z</time>
      </trkpt>
      <trkpt lat="48.02228" lon="6.88394">
        <ele>953.9</ele>
        <time>2022-05-26T08:07:29Z</time>
      </trkpt>
      <trkpt lat="48.02219" lon="6.88388">
        <ele>953.9</ele>
        <time>2022-05-26T08:07:32Z</time>
      </trkpt>
      <trkpt lat="48.0221" lon="6.88383">
        <ele>953.9</ele>
        <time>2022-05-26T08:07:35Z</time>
      </trkpt>
      <trkpt lat="48.02199" lon="6.88377">
        <ele>953.7</ele>
        <time>2022-05-26T08:07:38Z</time>
      </trkpt>
      <trkpt lat="48.02188" lon="6.8837">
        <ele>952.9</ele>
        <time>2022-05-26T08:07:41Z</time>
      </trkpt>
      <trkpt lat="48.0218" lon="6.88363">
        <ele>952.5</ele>
        <time>2022-05-26T08:07:43Z</time>
      </trkpt>
      <trkpt lat="48.02171" lon="6.88355">
        <ele>952.3</ele>
        <time>2022-05-26T08:07:45Z</time>
      </trkpt>
      <trkpt lat="48.02163" lon="6.88348">
        <ele>951.6</ele>
        <time>2022-05-26T08:07:47Z</time>
      </trkpt>
      <trkpt lat="48.02155" lon="6.88341">
        <ele>950.6</ele>
        <time>2022-05-26T08:07:49Z</time>
      </trkpt>
      <trkpt lat="48.02146" lon="6.88335">
        <ele>950.3</ele>
        <time>2022-05-26T08:07:51Z</time>
      </trkpt>
      <trkpt lat="48.02136" lon="6.8833">
        <ele>950.4</ele>
        <time>2022-05-26T08:07:53Z</time>
      </trkpt>
      <trkpt lat="48.02127" lon="6.88324">
        <ele>950.8</ele>
        <time>2022-05-26T08:07:55Z</time>
      </trkpt>
      <trkpt lat="48.02115" lon="6.88318">
        <ele>951.2</ele>
        <time>2022-05-26T08:07:58Z</time>
      </trkpt>
      <trkpt lat="48.02103" lon="6.88311">
        <ele>951.5</ele>
        <time>2022-05-26T08:08:01Z</time>
      </trkpt>
      <trkpt lat="48.02091" lon="6.88305">
        <ele>951.6</ele>
        <time>2022-05-26T08:08:04Z</time>
      </trkpt>
      <trkpt lat="48.02079" lon="6.88299">
        <ele>951.3</ele>
        <time>2022-05-26T08:08:07Z</time>
      </trkpt>
      <trkpt lat="48.02066" lon="6.88294">
        <ele>951.3</ele>
        <time>2022-05-26T08:08:10Z</time>
      </trkpt>
      <trkpt lat="48.02054" lon="6.8829">
        <ele>950.3</ele>
        <time>2022-05-26T08:08:13Z</time>
      </trkpt>
      <trkpt lat="48.02045" lon="6.88287">
        <ele>949.5</ele>
        <time>2022-05-26T08:08:15Z</time>
      </trkpt>
      <trkpt lat="48.02036" lon="6.88281">
        <ele>949.9</ele>
        <time>2022-05-26T08:08:17Z</time>
      </trkpt>
      <trkpt lat="48.02027" lon="6.88273">
        <ele>950.5</ele>
        <time>2022-05-26T08:08:19Z</time>
      </trkpt>
      <trkpt lat="48.0202" lon="6.88264">
        <ele>950</ele>
        <time>2022-05-26T08:08:21Z</time>
      </trkpt>
      <trkpt lat="48.02013" lon="6.88255">
        <ele>949.9</ele>
        <time>2022-05-26T08:08:23Z</time>
      </trkpt>
      <trkpt lat="48.02006" lon="6.88245">
        <ele>949.7</ele>
        <time>2022-05-26T08:08:25Z</time>
      </trkpt>
      <trkpt lat="48.02" lon="6.88236">
        <ele>948.9</ele>
        <time>2022-05-26T08:08:27Z</time>
      </trkpt>
      <trkpt lat="48.01993" lon="6.88226">
        <ele>948.9</ele>
        <time>2022-05-26T08:08:29Z</time>
      </trkpt>
      <trkpt lat="48.01988" lon="6.88215">
        <ele>949.3</ele>
        <time>2022-05-26T08:08:31Z</time>
      </trkpt>
      <trkpt lat="48.01982" lon="6.88204">
        <ele>949.8</ele>
        <time>2022-05-26T08:08:33Z</time>
      </trkpt>
      <trkpt lat="48.01974" lon="6.8819">
        <ele>950.8</ele>
        <time>2022-05-26T08:08:36Z</time>
      </trkpt>
      <trkpt lat="48.01968" lon="6.88179">
        <ele>952.2</ele>
        <time>2022-05-26T08:08:39Z</time>
      </trkpt>
      <trkpt lat="48.01962" lon="6.88168">
        <ele>953.3</ele>
        <time>2022-05-26T08:08:42Z</time>
      </trkpt>
      <trkpt lat="48.01956" lon="6.88158">
        <ele>953.3</ele>
        <time>2022-05-26T08:08:45Z</time>
      </trkpt>
      <trkpt lat="48.01948" lon="6.88145">
        <ele>954.1</ele>
        <time>2022-05-26T08:08:49Z</time>
      </trkpt>
      <trkpt lat="48.01941" lon="6.88132">
        <ele>955</ele>
        <time>2022-05-26T08:08:53Z</time>
      </trkpt>
      <trkpt lat="48.01934" lon="6.88118">
        <ele>956.6</ele>
        <time>2022-05-26T08:08:57Z</time>
      </trkpt>
      <trkpt lat="48.01927" lon="6.88104">
        <ele>957.4</ele>
        <time>2022-05-26T08:09:01Z</time>
      </trkpt>
      <trkpt lat="48.01922" lon="6.8809">
        <ele>958.8</ele>
        <time>2022-05-26T08:09:05Z</time>
      </trkpt>
      <trkpt lat="48.01918" lon="6.88075">
        <ele>959.6</ele>
        <time>2022-05-26T08:09:09Z</time>
      </trkpt>
      <trkpt lat="48.01914" lon="6.8806">
        <ele>960.9</ele>
        <time>2022-05-26T08:09:13Z</time>
      </trkpt>
      <trkpt lat="48.01909" lon="6.88045">
        <ele>962.3</ele>
        <time>2022-05-26T08:09:17Z</time>
      </trkpt>
      <trkpt lat="48.01902" lon="6.88032">
        <ele>962.8</ele>
        <time>2022-05-26T08:09:21Z</time>
      </trkpt>
      <trkpt lat="48.01895" lon="6.88018">
        <ele>963.3</ele>
        <time>2022-05-26T08:09:25Z</time>
      </trkpt>
      <trkpt lat="48.01888" lon="6.88003">
        <ele>964.3</ele>
        <time>2022-05-26T08:09:29Z</time>
      </trkpt>
      <trkpt lat="48.0188" lon="6.87991">
        <ele>964.6</ele>
        <time>2022-05-26T08:09:33Z</time>
      </trkpt>
      <trkpt lat="48.01873" lon="6.87981">
        <ele>964.6</ele>
        <time>2022-05-26T08:09:36Z</time>
      </trkpt>
      <trkpt lat="48.01867" lon="6.8797">
        <ele>964.6</ele>
        <time>2022-05-26T08:09:39Z</time>
      </trkpt>
      <trkpt lat="48.01861" lon="6.87954">
        <ele>964.9</ele>
        <time>2022-05-26T08:09:43Z</time>
      </trkpt>
      <trkpt lat="48.01857" lon="6.87939">
        <ele>964.8</ele>
        <time>2022-05-26T08:09:46Z</time>
      </trkpt>
      <trkpt lat="48.01853" lon="6.87925">
        <ele>964.5</ele>
        <time>2022-05-26T08:09:49Z</time>
      </trkpt>
      <trkpt lat="48.01849" lon="6.87909">
        <ele>964.2</ele>
        <time>2022-05-26T08:09:52Z</time>
      </trkpt>
      <trkpt lat="48.01842" lon="6.87896">
        <ele>964</ele>
        <time>2022-05-26T08:09:55Z</time>
      </trkpt>
      <trkpt lat="48.01836" lon="6.87883">
        <ele>963.8</ele>
        <time>2022-05-26T08:09:58Z</time>
      </trkpt>
      <trkpt lat="48.01829" lon="6.87872">
        <ele>964.1</ele>
        <time>2022-05-26T08:10:01Z</time>
      </trkpt>
      <trkpt lat="48.01824" lon="6.8786">
        <ele>964.7</ele>
        <time>2022-05-26T08:10:04Z</time>
      </trkpt>
      <trkpt lat="48.0182" lon="6.87847">
        <ele>965.4</ele>
        <time>2022-05-26T08:10:07Z</time>
      </trkpt>
      <trkpt lat="48.01816" lon="6.87832">
        <ele>965.9</ele>
        <time>2022-05-26T08:10:10Z</time>
      </trkpt>
      <trkpt lat="48.01814" lon="6.87817">
        <ele>966.6</ele>
        <time>2022-05-26T08:10:13Z</time>
      </trkpt>
      <trkpt lat="48.01813" lon="6.87801">
        <ele>966.4</ele>
        <time>2022-05-26T08:10:16Z</time>
      </trkpt>
      <trkpt lat="48.01811" lon="6.87785">
        <ele>966.1</ele>
        <time>2022-05-26T08:10:19Z</time>
      </trkpt>
      <trkpt lat="48.01807" lon="6.87769">
        <ele>965.8</ele>
        <time>2022-05-26T08:10:22Z</time>
      </trkpt>
      <trkpt lat="48.01802" lon="6.87753">
        <ele>966.4</ele>
        <time>2022-05-26T08:10:25Z</time>
      </trkpt>
      <trkpt lat="48.01797" lon="6.87738">
        <ele>967</ele>
        <time>2022-05-26T08:10:28Z</time>
      </trkpt>
      <trkpt lat="48.01794" lon="6.87724">
        <ele>967.7</ele>
        <time>2022-05-26T08:10:31Z</time>
      </trkpt>
      <trkpt lat="48.0179" lon="6.87709">
        <ele>967.1</ele>
        <time>2022-05-26T08:10:34Z</time>
      </trkpt>
      <trkpt lat="48.01784" lon="6.87695">
        <ele>967.6</ele>
        <time>2022-05-26T08:10:37Z</time>
      </trkpt>
      <trkpt lat="48.01777" lon="6.87684">
        <ele>968.7</ele>
        <time>2022-05-26T08:10:40Z</time>
      </trkpt>
      <trkpt lat="48.01771" lon="6.87672">
        <ele>968.9</ele>
        <time>2022-05-26T08:10:43Z</time>
      </trkpt>
      <trkpt lat="48.01767" lon="6.87656">
        <ele>968.5</ele>
        <time>2022-05-26T08:10:46Z</time>
      </trkpt>
      <trkpt lat="48.01765" lon="6.87638">
        <ele>968.6</ele>
        <time>2022-05-26T08:10:49Z</time>
      </trkpt>
      <trkpt lat="48.01762" lon="6.8762">
        <ele>968.5</ele>
        <time>2022-05-26T08:10:52Z</time>
      </trkpt>
      <trkpt lat="48.01758" lon="6.87604">
        <ele>969.1</ele>
        <time>2022-05-26T08:10:55Z</time>
      </trkpt>
      <trkpt lat="48.01752" lon="6.87589">
        <ele>968.2</ele>
        <time>2022-05-26T08:10:58Z</time>
      </trkpt>
      <trkpt lat="48.01742" lon="6.87576">
        <ele>967.6</ele>
        <time>2022-05-26T08:11:01Z</time>
      </trkpt>
      <trkpt lat="48.01734" lon="6.87569">
        <ele>967.1</ele>
        <time>2022-05-26T08:11:03Z</time>
      </trkpt>
      <trkpt lat="48.01722" lon="6.87561">
        <ele>966.7</ele>
        <time>2022-05-26T08:11:06Z</time>
      </trkpt>
      <trkpt lat="48.01713" lon="6.8755">
        <ele>967.8</ele>
        <time>2022-05-26T08:11:09Z</time>
      </trkpt>
      <trkpt lat="48.01709" lon="6.87536">
        <ele>969</ele>
        <time>2022-05-26T08:11:12Z</time>
      </trkpt>
      <trkpt lat="48.0171" lon="6.87522">
        <ele>969.1</ele>
        <time>2022-05-26T08:11:15Z</time>
      </trkpt>
      <trkpt lat="48.01711" lon="6.87507">
        <ele>969.5</ele>
        <time>2022-05-26T08:11:18Z</time>
      </trkpt>
      <trkpt lat="48.01711" lon="6.8749">
        <ele>970.8</ele>
        <time>2022-05-26T08:11:21Z</time>
      </trkpt>
      <trkpt lat="48.0171" lon="6.87475">
        <ele>970.2</ele>
        <time>2022-05-26T08:11:24Z</time>
      </trkpt>
      <trkpt lat="48.0171" lon="6.8746">
        <ele>971.9</ele>
        <time>2022-05-26T08:11:27Z</time>
      </trkpt>
      <trkpt lat="48.01715" lon="6.87447">
        <ele>972.8</ele>
        <time>2022-05-26T08:11:30Z</time>
      </trkpt>
      <trkpt lat="48.01722" lon="6.87434">
        <ele>974.3</ele>
        <time>2022-05-26T08:11:34Z</time>
      </trkpt>
      <trkpt lat="48.01731" lon="6.87423">
        <ele>975.2</ele>
        <time>2022-05-26T08:11:38Z</time>
      </trkpt>
      <trkpt lat="48.01739" lon="6.87411">
        <ele>975.9</ele>
        <time>2022-05-26T08:11:42Z</time>
      </trkpt>
      <trkpt lat="48.01744" lon="6.87398">
        <ele>976</ele>
        <time>2022-05-26T08:11:46Z</time>
      </trkpt>
      <trkpt lat="48.01746" lon="6.87385">
        <ele>977</ele>
        <time>2022-05-26T08:11:50Z</time>
      </trkpt>
      <trkpt lat="48.01745" lon="6.87371">
        <ele>978.7</ele>
        <time>2022-05-26T08:11:54Z</time>
      </trkpt>
      <trkpt lat="48.01743" lon="6.87357">
        <ele>979.5</ele>
        <time>2022-05-26T08:11:58Z</time>
      </trkpt>
      <trkpt lat="48.01741" lon="6.87343">
        <ele>981.3</ele>
        <time>2022-05-26T08:12:02Z</time>
      </trkpt>
      <trkpt lat="48.01738" lon="6.87328">
        <ele>982.8</ele>
        <time>2022-05-26T08:12:07Z</time>
      </trkpt>
      <trkpt lat="48.01736" lon="6.87312">
        <ele>984.7</ele>
        <time>2022-05-26T08:12:12Z</time>
      </trkpt>
      <trkpt lat="48.01735" lon="6.87298">
        <ele>985.8</ele>
        <time>2022-05-26T08:12:16Z</time>
      </trkpt>
      <trkpt lat="48.01734" lon="6.87283">
        <ele>985.9</ele>
        <time>2022-05-26T08:12:21Z</time>
      </trkpt>
      <trkpt lat="48.01734" lon="6.87278">
        <ele>986.4</ele>
        <time>2022-05-26T08:12:26Z</time>
      </trkpt>
      <trkpt lat="48.01735" lon="6.87277">
        <ele>986.2</ele>
        <time>2022-05-26T08:13:07Z</time>
      </trkpt>
      <trkpt lat="48.01738" lon="6.87261">
        <ele>984.1</ele>
        <time>2022-05-26T08:13:11Z</time>
      </trkpt>
      <trkpt lat="48.01741" lon="6.87247">
        <ele>982.1</ele>
        <time>2022-05-26T08:13:13Z</time>
      </trkpt>
      <trkpt lat="48.01745" lon="6.87229">
        <ele>981.2</ele>
        <time>2022-05-26T08:13:15Z</time>
      </trkpt>
      <trkpt lat="48.01748" lon="6.87209">
        <ele>978.7</ele>
        <time>2022-05-26T08:13:17Z</time>
      </trkpt>
      <trkpt lat="48.01744" lon="6.87192">
        <ele>978</ele>
        <time>2022-05-26T08:13:19Z</time>
      </trkpt>
      <trkpt lat="48.01734" lon="6.8718">
        <ele>978.3</ele>
        <time>2022-05-26T08:13:21Z</time>
      </trkpt>
      <trkpt lat="48.01724" lon="6.87166">
        <ele>977.3</ele>
        <time>2022-05-26T08:13:23Z</time>
      </trkpt>
      <trkpt lat="48.01715" lon="6.87148">
        <ele>975.8</ele>
        <time>2022-05-26T08:13:25Z</time>
      </trkpt>
      <trkpt lat="48.01706" lon="6.8713">
        <ele>976.1</ele>
        <time>2022-05-26T08:13:27Z</time>
      </trkpt>
      <trkpt lat="48.01696" lon="6.87115">
        <ele>976.5</ele>
        <time>2022-05-26T08:13:29Z</time>
      </trkpt>
      <trkpt lat="48.01685" lon="6.87102">
        <ele>975.3</ele>
        <time>2022-05-26T08:13:31Z</time>
      </trkpt>
      <trkpt lat="48.01676" lon="6.87091">
        <ele>976.6</ele>
        <time>2022-05-26T08:13:33Z</time>
      </trkpt>
      <trkpt lat="48.01667" lon="6.87079">
        <ele>975.4</ele>
        <time>2022-05-26T08:13:35Z</time>
      </trkpt>
      <trkpt lat="48.0166" lon="6.87065">
        <ele>975.1</ele>
        <time>2022-05-26T08:13:37Z</time>
      </trkpt>
      <trkpt lat="48.01655" lon="6.8705">
        <ele>976.1</ele>
        <time>2022-05-26T08:13:39Z</time>
      </trkpt>
      <trkpt lat="48.01654" lon="6.8703">
        <ele>973.1</ele>
        <time>2022-05-26T08:13:41Z</time>
      </trkpt>
      <trkpt lat="48.01654" lon="6.8701">
        <ele>972.1</ele>
        <time>2022-05-26T08:13:43Z</time>
      </trkpt>
      <trkpt lat="48.01654" lon="6.86992">
        <ele>972.6</ele>
        <time>2022-05-26T08:13:45Z</time>
      </trkpt>
      <trkpt lat="48.01656" lon="6.86975">
        <ele>974.7</ele>
        <time>2022-05-26T08:13:47Z</time>
      </trkpt>
      <trkpt lat="48.01659" lon="6.86957">
        <ele>973.4</ele>
        <time>2022-05-26T08:13:49Z</time>
      </trkpt>
      <trkpt lat="48.01662" lon="6.86938">
        <ele>970.7</ele>
        <time>2022-05-26T08:13:51Z</time>
      </trkpt>
      <trkpt lat="48.01667" lon="6.86921">
        <ele>967.1</ele>
        <time>2022-05-26T08:13:53Z</time>
      </trkpt>
      <trkpt lat="48.01671" lon="6.86904">
        <ele>965.7</ele>
        <time>2022-05-26T08:13:55Z</time>
      </trkpt>
      <trkpt lat="48.01673" lon="6.8689">
        <ele>967.8</ele>
        <time>2022-05-26T08:13:57Z</time>
      </trkpt>
      <trkpt lat="48.01666" lon="6.86878">
        <ele>968.1</ele>
        <time>2022-05-26T08:14:00Z</time>
      </trkpt>
      <trkpt lat="48.01656" lon="6.86876">
        <ele>969.7</ele>
        <time>2022-05-26T08:14:03Z</time>
      </trkpt>
      <trkpt lat="48.01644" lon="6.86872">
        <ele>970.4</ele>
        <time>2022-05-26T08:14:07Z</time>
      </trkpt>
      <trkpt lat="48.01634" lon="6.86868">
        <ele>970.1</ele>
        <time>2022-05-26T08:14:10Z</time>
      </trkpt>
      <trkpt lat="48.01624" lon="6.86862">
        <ele>972.8</ele>
        <time>2022-05-26T08:14:13Z</time>
      </trkpt>
      <trkpt lat="48.01612" lon="6.86859">
        <ele>973.9</ele>
        <time>2022-05-26T08:14:17Z</time>
      </trkpt>
      <trkpt lat="48.01602" lon="6.86861">
        <ele>973.9</ele>
        <time>2022-05-26T08:14:20Z</time>
      </trkpt>
      <trkpt lat="48.01591" lon="6.86867">
        <ele>974.5</ele>
        <time>2022-05-26T08:14:23Z</time>
      </trkpt>
      <trkpt lat="48.01582" lon="6.86871">
        <ele>974.9</ele>
        <time>2022-05-26T08:14:26Z</time>
      </trkpt>
      <trkpt lat="48.01573" lon="6.86874">
        <ele>974.9</ele>
        <time>2022-05-26T08:14:29Z</time>
      </trkpt>
      <trkpt lat="48.01564" lon="6.86873">
        <ele>974.5</ele>
        <time>2022-05-26T08:14:32Z</time>
      </trkpt>
      <trkpt lat="48.01554" lon="6.86867">
        <ele>975.1</ele>
        <time>2022-05-26T08:14:35Z</time>
      </trkpt>
      <trkpt lat="48.01547" lon="6.86856">
        <ele>974.4</ele>
        <time>2022-05-26T08:14:38Z</time>
      </trkpt>
      <trkpt lat="48.01541" lon="6.86844">
        <ele>974.6</ele>
        <time>2022-05-26T08:14:41Z</time>
      </trkpt>
      <trkpt lat="48.01536" lon="6.86832">
        <ele>976</ele>
        <time>2022-05-26T08:14:44Z</time>
      </trkpt>
      <trkpt lat="48.01531" lon="6.86818">
        <ele>975.8</ele>
        <time>2022-05-26T08:14:47Z</time>
      </trkpt>
      <trkpt lat="48.01526" lon="6.86805">
        <ele>976.7</ele>
        <time>2022-05-26T08:14:50Z</time>
      </trkpt>
      <trkpt lat="48.01523" lon="6.86791">
        <ele>976.3</ele>
        <time>2022-05-26T08:14:53Z</time>
      </trkpt>
      <trkpt lat="48.0152" lon="6.86773">
        <ele>975.8</ele>
        <time>2022-05-26T08:14:56Z</time>
      </trkpt>
      <trkpt lat="48.01519" lon="6.86755">
        <ele>976.4</ele>
        <time>2022-05-26T08:14:59Z</time>
      </trkpt>
      <trkpt lat="48.01519" lon="6.86737">
        <ele>975.5</ele>
        <time>2022-05-26T08:15:02Z</time>
      </trkpt>
      <trkpt lat="48.01521" lon="6.86722">
        <ele>974.9</ele>
        <time>2022-05-26T08:15:04Z</time>
      </trkpt>
      <trkpt lat="48.01522" lon="6.86705">
        <ele>972.7</ele>
        <time>2022-05-26T08:15:06Z</time>
      </trkpt>
      <trkpt lat="48.01523" lon="6.86687">
        <ele>972.7</ele>
        <time>2022-05-26T08:15:08Z</time>
      </trkpt>
      <trkpt lat="48.01524" lon="6.86669">
        <ele>971.5</ele>
        <time>2022-05-26T08:15:10Z</time>
      </trkpt>
      <trkpt lat="48.01524" lon="6.86652">
        <ele>972.2</ele>
        <time>2022-05-26T08:15:12Z</time>
      </trkpt>
      <trkpt lat="48.01522" lon="6.86636">
        <ele>972.9</ele>
        <time>2022-05-26T08:15:14Z</time>
      </trkpt>
      <trkpt lat="48.0152" lon="6.86622">
        <ele>973.2</ele>
        <time>2022-05-26T08:15:16Z</time>
      </trkpt>
      <trkpt lat="48.01518" lon="6.86608">
        <ele>974.4</ele>
        <time>2022-05-26T08:15:18Z</time>
      </trkpt>
      <trkpt lat="48.01516" lon="6.86595">
        <ele>974.7</ele>
        <time>2022-05-26T08:15:20Z</time>
      </trkpt>
      <trkpt lat="48.01515" lon="6.86581">
        <ele>973.1</ele>
        <time>2022-05-26T08:15:22Z</time>
      </trkpt>
      <trkpt lat="48.01514" lon="6.86563">
        <ele>975.2</ele>
        <time>2022-05-26T08:15:25Z</time>
      </trkpt>
      <trkpt lat="48.01512" lon="6.86546">
        <ele>976.3</ele>
        <time>2022-05-26T08:15:28Z</time>
      </trkpt>
      <trkpt lat="48.01505" lon="6.86532">
        <ele>976.3</ele>
        <time>2022-05-26T08:15:31Z</time>
      </trkpt>
      <trkpt lat="48.01492" lon="6.86526">
        <ele>976.2</ele>
        <time>2022-05-26T08:15:34Z</time>
      </trkpt>
      <trkpt lat="48.01481" lon="6.86524">
        <ele>977.4</ele>
        <time>2022-05-26T08:15:37Z</time>
      </trkpt>
      <trkpt lat="48.01475" lon="6.86509">
        <ele>978.4</ele>
        <time>2022-05-26T08:15:41Z</time>
      </trkpt>
      <trkpt lat="48.01477" lon="6.86495">
        <ele>978.9</ele>
        <time>2022-05-26T08:15:44Z</time>
      </trkpt>
      <trkpt lat="48.01477" lon="6.8648">
        <ele>979.4</ele>
        <time>2022-05-26T08:15:47Z</time>
      </trkpt>
      <trkpt lat="48.01476" lon="6.86465">
        <ele>980.4</ele>
        <time>2022-05-26T08:15:50Z</time>
      </trkpt>
      <trkpt lat="48.01475" lon="6.86448">
        <ele>981.8</ele>
        <time>2022-05-26T08:15:54Z</time>
      </trkpt>
      <trkpt lat="48.01479" lon="6.86434">
        <ele>982.2</ele>
        <time>2022-05-26T08:15:58Z</time>
      </trkpt>
      <trkpt lat="48.01485" lon="6.86421">
        <ele>982.1</ele>
        <time>2022-05-26T08:16:02Z</time>
      </trkpt>
      <trkpt lat="48.01493" lon="6.86411">
        <ele>981.6</ele>
        <time>2022-05-26T08:16:05Z</time>
      </trkpt>
      <trkpt lat="48.015" lon="6.86399">
        <ele>983.1</ele>
        <time>2022-05-26T08:16:08Z</time>
      </trkpt>
      <trkpt lat="48.01507" lon="6.86387">
        <ele>983.3</ele>
        <time>2022-05-26T08:16:11Z</time>
      </trkpt>
      <trkpt lat="48.01515" lon="6.86375">
        <ele>983</ele>
        <time>2022-05-26T08:16:14Z</time>
      </trkpt>
      <trkpt lat="48.0152" lon="6.86362">
        <ele>983.3</ele>
        <time>2022-05-26T08:16:17Z</time>
      </trkpt>
      <trkpt lat="48.01517" lon="6.86347">
        <ele>985.3</ele>
        <time>2022-05-26T08:16:21Z</time>
      </trkpt>
      <trkpt lat="48.01508" lon="6.86344">
        <ele>986</ele>
        <time>2022-05-26T08:16:25Z</time>
      </trkpt>
      <trkpt lat="48.01497" lon="6.86345">
        <ele>986.7</ele>
        <time>2022-05-26T08:16:30Z</time>
      </trkpt>
      <trkpt lat="48.01487" lon="6.86347">
        <ele>988.5</ele>
        <time>2022-05-26T08:16:34Z</time>
      </trkpt>
      <trkpt lat="48.01477" lon="6.86349">
        <ele>988.8</ele>
        <time>2022-05-26T08:16:38Z</time>
      </trkpt>
      <trkpt lat="48.01467" lon="6.86353">
        <ele>990</ele>
        <time>2022-05-26T08:16:42Z</time>
      </trkpt>
      <trkpt lat="48.01457" lon="6.86358">
        <ele>990.6</ele>
        <time>2022-05-26T08:16:46Z</time>
      </trkpt>
      <trkpt lat="48.01446" lon="6.86362">
        <ele>992.7</ele>
        <time>2022-05-26T08:16:53Z</time>
      </trkpt>
      <trkpt lat="48.01435" lon="6.86364">
        <ele>992.4</ele>
        <time>2022-05-26T08:16:57Z</time>
      </trkpt>
      <trkpt lat="48.01424" lon="6.86361">
        <ele>993.7</ele>
        <time>2022-05-26T08:17:01Z</time>
      </trkpt>
      <trkpt lat="48.01416" lon="6.86351">
        <ele>994</ele>
        <time>2022-05-26T08:17:05Z</time>
      </trkpt>
      <trkpt lat="48.0141" lon="6.86339">
        <ele>993.6</ele>
        <time>2022-05-26T08:17:09Z</time>
      </trkpt>
      <trkpt lat="48.01404" lon="6.86326">
        <ele>994.3</ele>
        <time>2022-05-26T08:17:13Z</time>
      </trkpt>
      <trkpt lat="48.01398" lon="6.86312">
        <ele>994.2</ele>
        <time>2022-05-26T08:17:17Z</time>
      </trkpt>
      <trkpt lat="48.0139" lon="6.86299">
        <ele>995.6</ele>
        <time>2022-05-26T08:17:21Z</time>
      </trkpt>
      <trkpt lat="48.01382" lon="6.8629">
        <ele>997</ele>
        <time>2022-05-26T08:17:25Z</time>
      </trkpt>
      <trkpt lat="48.01374" lon="6.86281">
        <ele>997.8</ele>
        <time>2022-05-26T08:17:29Z</time>
      </trkpt>
      <trkpt lat="48.01366" lon="6.86273">
        <ele>998.6</ele>
        <time>2022-05-26T08:17:33Z</time>
      </trkpt>
      <trkpt lat="48.0136" lon="6.86261">
        <ele>999.3</ele>
        <time>2022-05-26T08:17:37Z</time>
      </trkpt>
      <trkpt lat="48.01354" lon="6.86248">
        <ele>999.5</ele>
        <time>2022-05-26T08:17:41Z</time>
      </trkpt>
      <trkpt lat="48.01348" lon="6.86237">
        <ele>999.7</ele>
        <time>2022-05-26T08:17:44Z</time>
      </trkpt>
      <trkpt lat="48.0134" lon="6.86226">
        <ele>998.5</ele>
        <time>2022-05-26T08:17:48Z</time>
      </trkpt>
      <trkpt lat="48.0133" lon="6.86215">
        <ele>999</ele>
        <time>2022-05-26T08:17:52Z</time>
      </trkpt>
      <trkpt lat="48.01322" lon="6.86207">
        <ele>999.9</ele>
        <time>2022-05-26T08:17:55Z</time>
      </trkpt>
      <trkpt lat="48.01313" lon="6.86196">
        <ele>1000.8</ele>
        <time>2022-05-26T08:17:59Z</time>
      </trkpt>
      <trkpt lat="48.01307" lon="6.86183">
        <ele>1001.2</ele>
        <time>2022-05-26T08:18:03Z</time>
      </trkpt>
      <trkpt lat="48.01303" lon="6.86169">
        <ele>1002.8</ele>
        <time>2022-05-26T08:18:07Z</time>
      </trkpt>
      <trkpt lat="48.013" lon="6.86155">
        <ele>1003</ele>
        <time>2022-05-26T08:18:11Z</time>
      </trkpt>
      <trkpt lat="48.01298" lon="6.86141">
        <ele>1002.6</ele>
        <time>2022-05-26T08:18:15Z</time>
      </trkpt>
      <trkpt lat="48.01289" lon="6.86131">
        <ele>1001.1</ele>
        <time>2022-05-26T08:18:19Z</time>
      </trkpt>
      <trkpt lat="48.01279" lon="6.86132">
        <ele>1001.8</ele>
        <time>2022-05-26T08:18:22Z</time>
      </trkpt>
      <trkpt lat="48.01265" lon="6.86136">
        <ele>1000.9</ele>
        <time>2022-05-26T08:18:25Z</time>
      </trkpt>
      <trkpt lat="48.01254" lon="6.86137">
        <ele>999.5</ele>
        <time>2022-05-26T08:18:27Z</time>
      </trkpt>
      <trkpt lat="48.0124" lon="6.86136">
        <ele>998.7</ele>
        <time>2022-05-26T08:18:29Z</time>
      </trkpt>
      <trkpt lat="48.01226" lon="6.86132">
        <ele>996.2</ele>
        <time>2022-05-26T08:18:31Z</time>
      </trkpt>
      <trkpt lat="48.01212" lon="6.86124">
        <ele>997.8</ele>
        <time>2022-05-26T08:18:33Z</time>
      </trkpt>
      <trkpt lat="48.01199" lon="6.86114">
        <ele>995.8</ele>
        <time>2022-05-26T08:18:35Z</time>
      </trkpt>
      <trkpt lat="48.01185" lon="6.86106">
        <ele>994.5</ele>
        <time>2022-05-26T08:18:37Z</time>
      </trkpt>
      <trkpt lat="48.0117" lon="6.86098">
        <ele>992.8</ele>
        <time>2022-05-26T08:18:39Z</time>
      </trkpt>
      <trkpt lat="48.01155" lon="6.86092">
        <ele>992.7</ele>
        <time>2022-05-26T08:18:41Z</time>
      </trkpt>
      <trkpt lat="48.01139" lon="6.8609">
        <ele>990.8</ele>
        <time>2022-05-26T08:18:43Z</time>
      </trkpt>
      <trkpt lat="48.01125" lon="6.86089">
        <ele>988.8</ele>
        <time>2022-05-26T08:18:45Z</time>
      </trkpt>
      <trkpt lat="48.01111" lon="6.8609">
        <ele>991.1</ele>
        <time>2022-05-26T08:18:47Z</time>
      </trkpt>
      <trkpt lat="48.01098" lon="6.86089">
        <ele>990.7</ele>
        <time>2022-05-26T08:18:49Z</time>
      </trkpt>
      <trkpt lat="48.01085" lon="6.86087">
        <ele>991.7</ele>
        <time>2022-05-26T08:18:51Z</time>
      </trkpt>
      <trkpt lat="48.01076" lon="6.86078">
        <ele>991</ele>
        <time>2022-05-26T08:18:53Z</time>
      </trkpt>
      <trkpt lat="48.01068" lon="6.86068">
        <ele>991.4</ele>
        <time>2022-05-26T08:18:55Z</time>
      </trkpt>
      <trkpt lat="48.01061" lon="6.86059">
        <ele>992.2</ele>
        <time>2022-05-26T08:18:57Z</time>
      </trkpt>
      <trkpt lat="48.01053" lon="6.86044">
        <ele>992.5</ele>
        <time>2022-05-26T08:19:00Z</time>
      </trkpt>
      <trkpt lat="48.01047" lon="6.86027">
        <ele>993</ele>
        <time>2022-05-26T08:19:03Z</time>
      </trkpt>
      <trkpt lat="48.01042" lon="6.86011">
        <ele>993.7</ele>
        <time>2022-05-26T08:19:06Z</time>
      </trkpt>
      <trkpt lat="48.01037" lon="6.85996">
        <ele>993.7</ele>
        <time>2022-05-26T08:19:09Z</time>
      </trkpt>
      <trkpt lat="48.0103" lon="6.85985">
        <ele>995.3</ele>
        <time>2022-05-26T08:19:12Z</time>
      </trkpt>
      <trkpt lat="48.01022" lon="6.85971">
        <ele>995.8</ele>
        <time>2022-05-26T08:19:16Z</time>
      </trkpt>
      <trkpt lat="48.01017" lon="6.85959">
        <ele>996.6</ele>
        <time>2022-05-26T08:19:19Z</time>
      </trkpt>
      <trkpt lat="48.01012" lon="6.85947">
        <ele>996.8</ele>
        <time>2022-05-26T08:19:22Z</time>
      </trkpt>
      <trkpt lat="48.01008" lon="6.85932">
        <ele>999.2</ele>
        <time>2022-05-26T08:19:26Z</time>
      </trkpt>
      <trkpt lat="48.01006" lon="6.85918">
        <ele>1000.1</ele>
        <time>2022-05-26T08:19:30Z</time>
      </trkpt>
      <trkpt lat="48.01007" lon="6.85902">
        <ele>1002.3</ele>
        <time>2022-05-26T08:19:35Z</time>
      </trkpt>
      <trkpt lat="48.01008" lon="6.85887">
        <ele>1003.4</ele>
        <time>2022-05-26T08:19:40Z</time>
      </trkpt>
      <trkpt lat="48.01012" lon="6.85871">
        <ele>1004.1</ele>
        <time>2022-05-26T08:19:45Z</time>
      </trkpt>
      <trkpt lat="48.01014" lon="6.85858">
        <ele>1004.9</ele>
        <time>2022-05-26T08:19:49Z</time>
      </trkpt>
      <trkpt lat="48.01016" lon="6.85844">
        <ele>1005.8</ele>
        <time>2022-05-26T08:19:53Z</time>
      </trkpt>
      <trkpt lat="48.01017" lon="6.8583">
        <ele>1007.2</ele>
        <time>2022-05-26T08:19:57Z</time>
      </trkpt>
      <trkpt lat="48.01016" lon="6.85817">
        <ele>1007.8</ele>
        <time>2022-05-26T08:20:01Z</time>
      </trkpt>
      <trkpt lat="48.01015" lon="6.85803">
        <ele>1008.5</ele>
        <time>2022-05-26T08:20:05Z</time>
      </trkpt>
      <trkpt lat="48.01015" lon="6.85788">
        <ele>1010.1</ele>
        <time>2022-05-26T08:20:10Z</time>
      </trkpt>
      <trkpt lat="48.01018" lon="6.85773">
        <ele>1011.6</ele>
        <time>2022-05-26T08:20:15Z</time>
      </trkpt>
      <trkpt lat="48.01021" lon="6.85758">
        <ele>1012.3</ele>
        <time>2022-05-26T08:20:20Z</time>
      </trkpt>
      <trkpt lat="48.0102" lon="6.85741">
        <ele>1012.5</ele>
        <time>2022-05-26T08:20:25Z</time>
      </trkpt>
      <trkpt lat="48.01017" lon="6.85728">
        <ele>1014.3</ele>
        <time>2022-05-26T08:20:29Z</time>
      </trkpt>
      <trkpt lat="48.01014" lon="6.85714">
        <ele>1014.6</ele>
        <time>2022-05-26T08:20:35Z</time>
      </trkpt>
      <trkpt lat="48.01011" lon="6.85714">
        <ele>1014.7</ele>
        <time>2022-05-26T08:20:42Z</time>
      </trkpt>
      <trkpt lat="48.01011" lon="6.85715">
        <ele>1014.3</ele>
        <time>2022-05-26T08:20:56Z</time>
      </trkpt>
      <trkpt lat="48.01009" lon="6.85703">
        <ele>1014.3</ele>
        <time>2022-05-26T08:22:10Z</time>
      </trkpt>
      <trkpt lat="48.01009" lon="6.85704">
        <ele>1014</ele>
        <time>2022-05-26T08:22:34Z</time>
      </trkpt>
      <trkpt lat="48.0101" lon="6.85704">
        <ele>1013.9</ele>
        <time>2022-05-26T08:22:37Z</time>
      </trkpt>
      <trkpt lat="48.0101" lon="6.85703">
        <ele>1013.4</ele>
        <time>2022-05-26T08:25:19Z</time>
      </trkpt>
      <trkpt lat="48.01011" lon="6.85702">
        <ele>1013.5</ele>
        <time>2022-05-26T08:25:22Z</time>
      </trkpt>
      <trkpt lat="48.0101" lon="6.85686">
        <ele>1012.7</ele>
        <time>2022-05-26T08:25:28Z</time>
      </trkpt>
      <trkpt lat="48.0101" lon="6.85669">
        <ele>1013.5</ele>
        <time>2022-05-26T08:25:33Z</time>
      </trkpt>
      <trkpt lat="48.01008" lon="6.85655">
        <ele>1013.5</ele>
        <time>2022-05-26T08:25:38Z</time>
      </trkpt>
      <trkpt lat="48.01006" lon="6.85639">
        <ele>1013.5</ele>
        <time>2022-05-26T08:25:43Z</time>
      </trkpt>
      <trkpt lat="48.01006" lon="6.85624">
        <ele>1014.5</ele>
        <time>2022-05-26T08:25:47Z</time>
      </trkpt>
      <trkpt lat="48.01007" lon="6.85609">
        <ele>1015.3</ele>
        <time>2022-05-26T08:25:51Z</time>
      </trkpt>
      <trkpt lat="48.01009" lon="6.85593">
        <ele>1015.6</ele>
        <time>2022-05-26T08:25:56Z</time>
      </trkpt>
      <trkpt lat="48.01011" lon="6.85576">
        <ele>1016.2</ele>
        <time>2022-05-26T08:26:01Z</time>
      </trkpt>
      <trkpt lat="48.01017" lon="6.8556">
        <ele>1014.8</ele>
        <time>2022-05-26T08:26:05Z</time>
      </trkpt>
      <trkpt lat="48.01021" lon="6.85545">
        <ele>1013.9</ele>
        <time>2022-05-26T08:26:08Z</time>
      </trkpt>
      <trkpt lat="48.01026" lon="6.85528">
        <ele>1013.7</ele>
        <time>2022-05-26T08:26:11Z</time>
      </trkpt>
      <trkpt lat="48.01029" lon="6.85513">
        <ele>1014.8</ele>
        <time>2022-05-26T08:26:14Z</time>
      </trkpt>
      <trkpt lat="48.01031" lon="6.85496">
        <ele>1015.4</ele>
        <time>2022-05-26T08:26:18Z</time>
      </trkpt>
      <trkpt lat="48.01032" lon="6.85481">
        <ele>1013.9</ele>
        <time>2022-05-26T08:26:21Z</time>
      </trkpt>
      <trkpt lat="48.01035" lon="6.85463">
        <ele>1014.6</ele>
        <time>2022-05-26T08:26:24Z</time>
      </trkpt>
      <trkpt lat="48.01038" lon="6.85444">
        <ele>1012.8</ele>
        <time>2022-05-26T08:26:27Z</time>
      </trkpt>
      <trkpt lat="48.01042" lon="6.85426">
        <ele>1013.1</ele>
        <time>2022-05-26T08:26:30Z</time>
      </trkpt>
      <trkpt lat="48.01047" lon="6.85411">
        <ele>1013</ele>
        <time>2022-05-26T08:26:33Z</time>
      </trkpt>
      <trkpt lat="48.01054" lon="6.85399">
        <ele>1013.3</ele>
        <time>2022-05-26T08:26:36Z</time>
      </trkpt>
      <trkpt lat="48.01063" lon="6.85391">
        <ele>1013.5</ele>
        <time>2022-05-26T08:26:39Z</time>
      </trkpt>
      <trkpt lat="48.01072" lon="6.85383">
        <ele>1013.1</ele>
        <time>2022-05-26T08:26:42Z</time>
      </trkpt>
      <trkpt lat="48.0108" lon="6.8537">
        <ele>1013.3</ele>
        <time>2022-05-26T08:26:45Z</time>
      </trkpt>
      <trkpt lat="48.01086" lon="6.85359">
        <ele>1014.3</ele>
        <time>2022-05-26T08:26:48Z</time>
      </trkpt>
      <trkpt lat="48.01092" lon="6.85343">
        <ele>1016.8</ele>
        <time>2022-05-26T08:26:52Z</time>
      </trkpt>
      <trkpt lat="48.01095" lon="6.85329">
        <ele>1017.9</ele>
        <time>2022-05-26T08:26:56Z</time>
      </trkpt>
      <trkpt lat="48.01097" lon="6.85315">
        <ele>1018.3</ele>
        <time>2022-05-26T08:27:00Z</time>
      </trkpt>
      <trkpt lat="48.01101" lon="6.85299">
        <ele>1019.1</ele>
        <time>2022-05-26T08:27:04Z</time>
      </trkpt>
      <trkpt lat="48.01104" lon="6.85286">
        <ele>1018.2</ele>
        <time>2022-05-26T08:27:07Z</time>
      </trkpt>
      <trkpt lat="48.01106" lon="6.85272">
        <ele>1018.4</ele>
        <time>2022-05-26T08:27:10Z</time>
      </trkpt>
      <trkpt lat="48.01111" lon="6.85255">
        <ele>1019.1</ele>
        <time>2022-05-26T08:27:14Z</time>
      </trkpt>
      <trkpt lat="48.01116" lon="6.8524">
        <ele>1020.9</ele>
        <time>2022-05-26T08:27:18Z</time>
      </trkpt>
      <trkpt lat="48.01123" lon="6.85227">
        <ele>1020.9</ele>
        <time>2022-05-26T08:27:23Z</time>
      </trkpt>
      <trkpt lat="48.01127" lon="6.85211">
        <ele>1020.6</ele>
        <time>2022-05-26T08:27:27Z</time>
      </trkpt>
      <trkpt lat="48.0113" lon="6.85195">
        <ele>1021.5</ele>
        <time>2022-05-26T08:27:31Z</time>
      </trkpt>
      <trkpt lat="48.01133" lon="6.85179">
        <ele>1021.9</ele>
        <time>2022-05-26T08:27:35Z</time>
      </trkpt>
      <trkpt lat="48.01139" lon="6.85166">
        <ele>1022.7</ele>
        <time>2022-05-26T08:27:39Z</time>
      </trkpt>
      <trkpt lat="48.01148" lon="6.85161">
        <ele>1021.8</ele>
        <time>2022-05-26T08:27:42Z</time>
      </trkpt>
      <trkpt lat="48.01157" lon="6.85156">
        <ele>1020.5</ele>
        <time>2022-05-26T08:27:46Z</time>
      </trkpt>
      <trkpt lat="48.01167" lon="6.85152">
        <ele>1019.5</ele>
        <time>2022-05-26T08:27:53Z</time>
      </trkpt>
      <trkpt lat="48.01176" lon="6.85148">
        <ele>1019.1</ele>
        <time>2022-05-26T08:27:58Z</time>
      </trkpt>
      <trkpt lat="48.01186" lon="6.85147">
        <ele>1018</ele>
        <time>2022-05-26T08:28:02Z</time>
      </trkpt>
      <trkpt lat="48.01195" lon="6.85153">
        <ele>1017.4</ele>
        <time>2022-05-26T08:28:06Z</time>
      </trkpt>
      <trkpt lat="48.01204" lon="6.85158">
        <ele>1017.9</ele>
        <time>2022-05-26T08:28:09Z</time>
      </trkpt>
      <trkpt lat="48.01213" lon="6.8516">
        <ele>1018.4</ele>
        <time>2022-05-26T08:28:13Z</time>
      </trkpt>
      <trkpt lat="48.01222" lon="6.85165">
        <ele>1018.7</ele>
        <time>2022-05-26T08:28:16Z</time>
      </trkpt>
      <trkpt lat="48.01234" lon="6.85168">
        <ele>1017.5</ele>
        <time>2022-05-26T08:28:19Z</time>
      </trkpt>
      <trkpt lat="48.01244" lon="6.85164">
        <ele>1017.9</ele>
        <time>2022-05-26T08:28:22Z</time>
      </trkpt>
      <trkpt lat="48.01254" lon="6.85159">
        <ele>1015.9</ele>
        <time>2022-05-26T08:28:24Z</time>
      </trkpt>
      <trkpt lat="48.01265" lon="6.8515">
        <ele>1014.9</ele>
        <time>2022-05-26T08:28:26Z</time>
      </trkpt>
      <trkpt lat="48.01275" lon="6.85141">
        <ele>1013.4</ele>
        <time>2022-05-26T08:28:28Z</time>
      </trkpt>
      <trkpt lat="48.01283" lon="6.85133">
        <ele>1014.3</ele>
        <time>2022-05-26T08:28:30Z</time>
      </trkpt>
      <trkpt lat="48.01295" lon="6.85121">
        <ele>1012.9</ele>
        <time>2022-05-26T08:28:33Z</time>
      </trkpt>
      <trkpt lat="48.01304" lon="6.85114">
        <ele>1011.7</ele>
        <time>2022-05-26T08:28:35Z</time>
      </trkpt>
      <trkpt lat="48.01313" lon="6.85105">
        <ele>1012.1</ele>
        <time>2022-05-26T08:28:37Z</time>
      </trkpt>
      <trkpt lat="48.01322" lon="6.85097">
        <ele>1012.7</ele>
        <time>2022-05-26T08:28:39Z</time>
      </trkpt>
      <trkpt lat="48.01331" lon="6.8509">
        <ele>1014.2</ele>
        <time>2022-05-26T08:28:42Z</time>
      </trkpt>
      <trkpt lat="48.0134" lon="6.85079">
        <ele>1013.2</ele>
        <time>2022-05-26T08:28:45Z</time>
      </trkpt>
      <trkpt lat="48.01348" lon="6.85071">
        <ele>1010.6</ele>
        <time>2022-05-26T08:28:47Z</time>
      </trkpt>
      <trkpt lat="48.01358" lon="6.85061">
        <ele>1009.9</ele>
        <time>2022-05-26T08:28:49Z</time>
      </trkpt>
      <trkpt lat="48.01368" lon="6.85052">
        <ele>1009</ele>
        <time>2022-05-26T08:28:51Z</time>
      </trkpt>
      <trkpt lat="48.01378" lon="6.85049">
        <ele>1008</ele>
        <time>2022-05-26T08:28:53Z</time>
      </trkpt>
      <trkpt lat="48.0139" lon="6.85048">
        <ele>1004.7</ele>
        <time>2022-05-26T08:28:56Z</time>
      </trkpt>
      <trkpt lat="48.01399" lon="6.8505">
        <ele>1005.9</ele>
        <time>2022-05-26T08:28:58Z</time>
      </trkpt>
      <trkpt lat="48.0141" lon="6.85054">
        <ele>1005.6</ele>
        <time>2022-05-26T08:29:00Z</time>
      </trkpt>
      <trkpt lat="48.0142" lon="6.85054">
        <ele>1005.4</ele>
        <time>2022-05-26T08:29:02Z</time>
      </trkpt>
      <trkpt lat="48.0143" lon="6.85056">
        <ele>1004.9</ele>
        <time>2022-05-26T08:29:04Z</time>
      </trkpt>
      <trkpt lat="48.0144" lon="6.85058">
        <ele>1005</ele>
        <time>2022-05-26T08:29:06Z</time>
      </trkpt>
      <trkpt lat="48.01451" lon="6.85063">
        <ele>1002.8</ele>
        <time>2022-05-26T08:29:09Z</time>
      </trkpt>
      <trkpt lat="48.0146" lon="6.85068">
        <ele>1001.9</ele>
        <time>2022-05-26T08:29:12Z</time>
      </trkpt>
      <trkpt lat="48.01456" lon="6.85054">
        <ele>1001.5</ele>
        <time>2022-05-26T08:29:20Z</time>
      </trkpt>
      <trkpt lat="48.01446" lon="6.85049">
        <ele>999.4</ele>
        <time>2022-05-26T08:29:24Z</time>
      </trkpt>
      <trkpt lat="48.01435" lon="6.85041">
        <ele>993.4</ele>
        <time>2022-05-26T08:29:27Z</time>
      </trkpt>
      <trkpt lat="48.01427" lon="6.85026">
        <ele>994.4</ele>
        <time>2022-05-26T08:29:30Z</time>
      </trkpt>
      <trkpt lat="48.01418" lon="6.85013">
        <ele>994.6</ele>
        <time>2022-05-26T08:29:33Z</time>
      </trkpt>
      <trkpt lat="48.01409" lon="6.85003">
        <ele>993.2</ele>
        <time>2022-05-26T08:29:35Z</time>
      </trkpt>
      <trkpt lat="48.01401" lon="6.84995">
        <ele>993.6</ele>
        <time>2022-05-26T08:29:37Z</time>
      </trkpt>
      <trkpt lat="48.0139" lon="6.84989">
        <ele>990.9</ele>
        <time>2022-05-26T08:29:39Z</time>
      </trkpt>
      <trkpt lat="48.01378" lon="6.84983">
        <ele>990.5</ele>
        <time>2022-05-26T08:29:41Z</time>
      </trkpt>
      <trkpt lat="48.01368" lon="6.84982">
        <ele>990.9</ele>
        <time>2022-05-26T08:29:43Z</time>
      </trkpt>
      <trkpt lat="48.01356" lon="6.84984">
        <ele>992.8</ele>
        <time>2022-05-26T08:29:46Z</time>
      </trkpt>
      <trkpt lat="48.01347" lon="6.84988">
        <ele>992.9</ele>
        <time>2022-05-26T08:29:49Z</time>
      </trkpt>
      <trkpt lat="48.01336" lon="6.84998">
        <ele>994.8</ele>
        <time>2022-05-26T08:29:54Z</time>
      </trkpt>
      <trkpt lat="48.01328" lon="6.85006">
        <ele>993.9</ele>
        <time>2022-05-26T08:29:57Z</time>
      </trkpt>
      <trkpt lat="48.0132" lon="6.85013">
        <ele>995.6</ele>
        <time>2022-05-26T08:30:00Z</time>
      </trkpt>
      <trkpt lat="48.0131" lon="6.85021">
        <ele>994.7</ele>
        <time>2022-05-26T08:30:03Z</time>
      </trkpt>
      <trkpt lat="48.013" lon="6.85022">
        <ele>994.8</ele>
        <time>2022-05-26T08:30:05Z</time>
      </trkpt>
      <trkpt lat="48.01291" lon="6.85015">
        <ele>994.9</ele>
        <time>2022-05-26T08:30:08Z</time>
      </trkpt>
      <trkpt lat="48.01284" lon="6.85006">
        <ele>997.4</ele>
        <time>2022-05-26T08:30:11Z</time>
      </trkpt>
      <trkpt lat="48.01275" lon="6.84999">
        <ele>998.6</ele>
        <time>2022-05-26T08:30:15Z</time>
      </trkpt>
      <trkpt lat="48.01266" lon="6.84995">
        <ele>996.6</ele>
        <time>2022-05-26T08:30:18Z</time>
      </trkpt>
      <trkpt lat="48.01256" lon="6.84993">
        <ele>998.1</ele>
        <time>2022-05-26T08:30:22Z</time>
      </trkpt>
      <trkpt lat="48.01247" lon="6.85003">
        <ele>1000</ele>
        <time>2022-05-26T08:30:27Z</time>
      </trkpt>
      <trkpt lat="48.01238" lon="6.85007">
        <ele>997.5</ele>
        <time>2022-05-26T08:30:30Z</time>
      </trkpt>
      <trkpt lat="48.01234" lon="6.84994">
        <ele>997.7</ele>
        <time>2022-05-26T08:30:33Z</time>
      </trkpt>
      <trkpt lat="48.01234" lon="6.84978">
        <ele>998</ele>
        <time>2022-05-26T08:30:36Z</time>
      </trkpt>
      <trkpt lat="48.01234" lon="6.84963">
        <ele>998</ele>
        <time>2022-05-26T08:30:39Z</time>
      </trkpt>
      <trkpt lat="48.01226" lon="6.84944">
        <ele>998.8</ele>
        <time>2022-05-26T08:30:42Z</time>
      </trkpt>
      <trkpt lat="48.01221" lon="6.84928">
        <ele>999</ele>
        <time>2022-05-26T08:30:45Z</time>
      </trkpt>
      <trkpt lat="48.01215" lon="6.84914">
        <ele>998.3</ele>
        <time>2022-05-26T08:30:48Z</time>
      </trkpt>
      <trkpt lat="48.01213" lon="6.84898">
        <ele>1000</ele>
        <time>2022-05-26T08:30:51Z</time>
      </trkpt>
      <trkpt lat="48.01212" lon="6.84882">
        <ele>997.9</ele>
        <time>2022-05-26T08:30:54Z</time>
      </trkpt>
      <trkpt lat="48.01208" lon="6.8487">
        <ele>997.3</ele>
        <time>2022-05-26T08:30:56Z</time>
      </trkpt>
      <trkpt lat="48.012" lon="6.84854">
        <ele>997.6</ele>
        <time>2022-05-26T08:30:59Z</time>
      </trkpt>
      <trkpt lat="48.01194" lon="6.84844">
        <ele>997.9</ele>
        <time>2022-05-26T08:31:01Z</time>
      </trkpt>
      <trkpt lat="48.01183" lon="6.84836">
        <ele>996.1</ele>
        <time>2022-05-26T08:31:04Z</time>
      </trkpt>
      <trkpt lat="48.01171" lon="6.8483">
        <ele>996.5</ele>
        <time>2022-05-26T08:31:07Z</time>
      </trkpt>
      <trkpt lat="48.01158" lon="6.84827">
        <ele>994.7</ele>
        <time>2022-05-26T08:31:10Z</time>
      </trkpt>
      <trkpt lat="48.01148" lon="6.84818">
        <ele>991</ele>
        <time>2022-05-26T08:31:13Z</time>
      </trkpt>
      <trkpt lat="48.0114" lon="6.84807">
        <ele>991.1</ele>
        <time>2022-05-26T08:31:15Z</time>
      </trkpt>
      <trkpt lat="48.01134" lon="6.84797">
        <ele>992.4</ele>
        <time>2022-05-26T08:31:17Z</time>
      </trkpt>
      <trkpt lat="48.01129" lon="6.84785">
        <ele>992.6</ele>
        <time>2022-05-26T08:31:19Z</time>
      </trkpt>
      <trkpt lat="48.01125" lon="6.84772">
        <ele>990.7</ele>
        <time>2022-05-26T08:31:21Z</time>
      </trkpt>
      <trkpt lat="48.01123" lon="6.84755">
        <ele>992.9</ele>
        <time>2022-05-26T08:31:24Z</time>
      </trkpt>
      <trkpt lat="48.01119" lon="6.84739">
        <ele>994.4</ele>
        <time>2022-05-26T08:31:27Z</time>
      </trkpt>
      <trkpt lat="48.01116" lon="6.84726">
        <ele>996.7</ele>
        <time>2022-05-26T08:31:31Z</time>
      </trkpt>
      <trkpt lat="48.01108" lon="6.84714">
        <ele>996.6</ele>
        <time>2022-05-26T08:31:35Z</time>
      </trkpt>
      <trkpt lat="48.01097" lon="6.84706">
        <ele>997.2</ele>
        <time>2022-05-26T08:31:39Z</time>
      </trkpt>
      <trkpt lat="48.01089" lon="6.84702">
        <ele>996.6</ele>
        <time>2022-05-26T08:31:42Z</time>
      </trkpt>
      <trkpt lat="48.01078" lon="6.84696">
        <ele>997.4</ele>
        <time>2022-05-26T08:31:46Z</time>
      </trkpt>
      <trkpt lat="48.01067" lon="6.84691">
        <ele>996.9</ele>
        <time>2022-05-26T08:31:50Z</time>
      </trkpt>
      <trkpt lat="48.01057" lon="6.84685">
        <ele>998.8</ele>
        <time>2022-05-26T08:31:55Z</time>
      </trkpt>
      <trkpt lat="48.01049" lon="6.84675">
        <ele>1000.9</ele>
        <time>2022-05-26T08:32:01Z</time>
      </trkpt>
      <trkpt lat="48.01044" lon="6.84663">
        <ele>1002.2</ele>
        <time>2022-05-26T08:32:06Z</time>
      </trkpt>
      <trkpt lat="48.0104" lon="6.84649">
        <ele>1003.1</ele>
        <time>2022-05-26T08:32:11Z</time>
      </trkpt>
      <trkpt lat="48.01037" lon="6.84635">
        <ele>1004.9</ele>
        <time>2022-05-26T08:32:16Z</time>
      </trkpt>
      <trkpt lat="48.01035" lon="6.8462">
        <ele>1006.5</ele>
        <time>2022-05-26T08:32:22Z</time>
      </trkpt>
      <trkpt lat="48.01033" lon="6.84606">
        <ele>1007.4</ele>
        <time>2022-05-26T08:32:27Z</time>
      </trkpt>
      <trkpt lat="48.0103" lon="6.8459">
        <ele>1007.4</ele>
        <time>2022-05-26T08:32:32Z</time>
      </trkpt>
      <trkpt lat="48.01028" lon="6.84575">
        <ele>1009.4</ele>
        <time>2022-05-26T08:32:37Z</time>
      </trkpt>
      <trkpt lat="48.01023" lon="6.8456">
        <ele>1009.6</ele>
        <time>2022-05-26T08:32:42Z</time>
      </trkpt>
      <trkpt lat="48.01018" lon="6.84548">
        <ele>1010.5</ele>
        <time>2022-05-26T08:32:46Z</time>
      </trkpt>
      <trkpt lat="48.01012" lon="6.84536">
        <ele>1011.2</ele>
        <time>2022-05-26T08:32:51Z</time>
      </trkpt>
      <trkpt lat="48.01006" lon="6.84523">
        <ele>1011.4</ele>
        <time>2022-05-26T08:32:56Z</time>
      </trkpt>
      <trkpt lat="48.01003" lon="6.84506">
        <ele>1011.4</ele>
        <time>2022-05-26T08:33:01Z</time>
      </trkpt>
      <trkpt lat="48.01003" lon="6.84492">
        <ele>1012.1</ele>
        <time>2022-05-26T08:33:05Z</time>
      </trkpt>
      <trkpt lat="48.01002" lon="6.84478">
        <ele>1012.6</ele>
        <time>2022-05-26T08:33:09Z</time>
      </trkpt>
      <trkpt lat="48.00996" lon="6.84464">
        <ele>1012.9</ele>
        <time>2022-05-26T08:33:14Z</time>
      </trkpt>
      <trkpt lat="48.00992" lon="6.84452">
        <ele>1013.1</ele>
        <time>2022-05-26T08:33:18Z</time>
      </trkpt>
      <trkpt lat="48.00989" lon="6.84438">
        <ele>1014.8</ele>
        <time>2022-05-26T08:33:24Z</time>
      </trkpt>
      <trkpt lat="48.0099" lon="6.84422">
        <ele>1015.9</ele>
        <time>2022-05-26T08:33:29Z</time>
      </trkpt>
      <trkpt lat="48.00993" lon="6.84407">
        <ele>1017.9</ele>
        <time>2022-05-26T08:33:34Z</time>
      </trkpt>
      <trkpt lat="48.00995" lon="6.84391">
        <ele>1017.8</ele>
        <time>2022-05-26T08:33:39Z</time>
      </trkpt>
      <trkpt lat="48.00994" lon="6.84376">
        <ele>1019.4</ele>
        <time>2022-05-26T08:33:43Z</time>
      </trkpt>
      <trkpt lat="48.00992" lon="6.84362">
        <ele>1019.2</ele>
        <time>2022-05-26T08:33:49Z</time>
      </trkpt>
      <trkpt lat="48.00985" lon="6.84352">
        <ele>1020.6</ele>
        <time>2022-05-26T08:33:54Z</time>
      </trkpt>
      <trkpt lat="48.00976" lon="6.84344">
        <ele>1021.4</ele>
        <time>2022-05-26T08:33:59Z</time>
      </trkpt>
      <trkpt lat="48.00967" lon="6.8434">
        <ele>1021.9</ele>
        <time>2022-05-26T08:34:04Z</time>
      </trkpt>
      <trkpt lat="48.00957" lon="6.84337">
        <ele>1021.9</ele>
        <time>2022-05-26T08:34:07Z</time>
      </trkpt>
      <trkpt lat="48.00946" lon="6.84335">
        <ele>1022.7</ele>
        <time>2022-05-26T08:34:11Z</time>
      </trkpt>
      <trkpt lat="48.00935" lon="6.84337">
        <ele>1023.6</ele>
        <time>2022-05-26T08:34:16Z</time>
      </trkpt>
      <trkpt lat="48.00926" lon="6.84341">
        <ele>1023.2</ele>
        <time>2022-05-26T08:34:19Z</time>
      </trkpt>
      <trkpt lat="48.00914" lon="6.84344">
        <ele>1024.2</ele>
        <time>2022-05-26T08:34:23Z</time>
      </trkpt>
      <trkpt lat="48.00902" lon="6.84344">
        <ele>1024.6</ele>
        <time>2022-05-26T08:34:27Z</time>
      </trkpt>
      <trkpt lat="48.00891" lon="6.84345">
        <ele>1025.7</ele>
        <time>2022-05-26T08:34:32Z</time>
      </trkpt>
      <trkpt lat="48.00882" lon="6.8435">
        <ele>1027.3</ele>
        <time>2022-05-26T08:34:38Z</time>
      </trkpt>
      <trkpt lat="48.00874" lon="6.84355">
        <ele>1029.8</ele>
        <time>2022-05-26T08:34:44Z</time>
      </trkpt>
      <trkpt lat="48.00865" lon="6.84357">
        <ele>1032.8</ele>
        <time>2022-05-26T08:34:53Z</time>
      </trkpt>
      <trkpt lat="48.00856" lon="6.84349">
        <ele>1033.7</ele>
        <time>2022-05-26T08:34:59Z</time>
      </trkpt>
      <trkpt lat="48.00853" lon="6.84336">
        <ele>1033.9</ele>
        <time>2022-05-26T08:35:04Z</time>
      </trkpt>
      <trkpt lat="48.00851" lon="6.84321">
        <ele>1034.6</ele>
        <time>2022-05-26T08:35:09Z</time>
      </trkpt>
      <trkpt lat="48.0085" lon="6.84304">
        <ele>1036.2</ele>
        <time>2022-05-26T08:35:14Z</time>
      </trkpt>
      <trkpt lat="48.00848" lon="6.84289">
        <ele>1036.6</ele>
        <time>2022-05-26T08:35:19Z</time>
      </trkpt>
      <trkpt lat="48.00849" lon="6.84276">
        <ele>1038.3</ele>
        <time>2022-05-26T08:35:24Z</time>
      </trkpt>
      <trkpt lat="48.00852" lon="6.84262">
        <ele>1039.1</ele>
        <time>2022-05-26T08:35:30Z</time>
      </trkpt>
      <trkpt lat="48.00857" lon="6.84247">
        <ele>1040</ele>
        <time>2022-05-26T08:35:35Z</time>
      </trkpt>
      <trkpt lat="48.0086" lon="6.84234">
        <ele>1040.1</ele>
        <time>2022-05-26T08:35:39Z</time>
      </trkpt>
      <trkpt lat="48.00861" lon="6.8422">
        <ele>1041.4</ele>
        <time>2022-05-26T08:35:43Z</time>
      </trkpt>
      <trkpt lat="48.00862" lon="6.84204">
        <ele>1041.6</ele>
        <time>2022-05-26T08:35:48Z</time>
      </trkpt>
      <trkpt lat="48.00862" lon="6.8419">
        <ele>1043.3</ele>
        <time>2022-05-26T08:35:52Z</time>
      </trkpt>
      <trkpt lat="48.00863" lon="6.84175">
        <ele>1044.7</ele>
        <time>2022-05-26T08:35:57Z</time>
      </trkpt>
      <trkpt lat="48.00867" lon="6.84161">
        <ele>1045.6</ele>
        <time>2022-05-26T08:36:02Z</time>
      </trkpt>
      <trkpt lat="48.00873" lon="6.84149">
        <ele>1046.8</ele>
        <time>2022-05-26T08:36:07Z</time>
      </trkpt>
      <trkpt lat="48.0088" lon="6.84134">
        <ele>1046.3</ele>
        <time>2022-05-26T08:36:12Z</time>
      </trkpt>
      <trkpt lat="48.00885" lon="6.84121">
        <ele>1047.7</ele>
        <time>2022-05-26T08:36:16Z</time>
      </trkpt>
      <trkpt lat="48.00887" lon="6.84105">
        <ele>1048.1</ele>
        <time>2022-05-26T08:36:21Z</time>
      </trkpt>
      <trkpt lat="48.00886" lon="6.84088">
        <ele>1049.6</ele>
        <time>2022-05-26T08:36:26Z</time>
      </trkpt>
      <trkpt lat="48.00884" lon="6.84075">
        <ele>1050.2</ele>
        <time>2022-05-26T08:36:32Z</time>
      </trkpt>
      <trkpt lat="48.00883" lon="6.8406">
        <ele>1051.7</ele>
        <time>2022-05-26T08:36:38Z</time>
      </trkpt>
      <trkpt lat="48.0088" lon="6.84047">
        <ele>1052.8</ele>
        <time>2022-05-26T08:36:46Z</time>
      </trkpt>
      <trkpt lat="48.00874" lon="6.84035">
        <ele>1053.9</ele>
        <time>2022-05-26T08:36:51Z</time>
      </trkpt>
      <trkpt lat="48.00867" lon="6.84023">
        <ele>1055</ele>
        <time>2022-05-26T08:36:57Z</time>
      </trkpt>
      <trkpt lat="48.0086" lon="6.84014">
        <ele>1056</ele>
        <time>2022-05-26T08:37:01Z</time>
      </trkpt>
      <trkpt lat="48.0085" lon="6.84005">
        <ele>1055.9</ele>
        <time>2022-05-26T08:37:05Z</time>
      </trkpt>
      <trkpt lat="48.00842" lon="6.83996">
        <ele>1056.2</ele>
        <time>2022-05-26T08:37:09Z</time>
      </trkpt>
      <trkpt lat="48.00836" lon="6.83981">
        <ele>1056.4</ele>
        <time>2022-05-26T08:37:13Z</time>
      </trkpt>
      <trkpt lat="48.0083" lon="6.83968">
        <ele>1054.7</ele>
        <time>2022-05-26T08:37:16Z</time>
      </trkpt>
      <trkpt lat="48.00826" lon="6.83957">
        <ele>1055.4</ele>
        <time>2022-05-26T08:37:19Z</time>
      </trkpt>
      <trkpt lat="48.0082" lon="6.83942">
        <ele>1054.7</ele>
        <time>2022-05-26T08:37:22Z</time>
      </trkpt>
      <trkpt lat="48.00815" lon="6.8393">
        <ele>1054.4</ele>
        <time>2022-05-26T08:37:24Z</time>
      </trkpt>
      <trkpt lat="48.00806" lon="6.83918">
        <ele>1054.7</ele>
        <time>2022-05-26T08:37:27Z</time>
      </trkpt>
      <trkpt lat="48.00798" lon="6.8391">
        <ele>1055.4</ele>
        <time>2022-05-26T08:37:30Z</time>
      </trkpt>
      <trkpt lat="48.00788" lon="6.83904">
        <ele>1055.3</ele>
        <time>2022-05-26T08:37:34Z</time>
      </trkpt>
      <trkpt lat="48.00779" lon="6.83897">
        <ele>1055.6</ele>
        <time>2022-05-26T08:37:37Z</time>
      </trkpt>
      <trkpt lat="48.0077" lon="6.83893">
        <ele>1055.3</ele>
        <time>2022-05-26T08:37:40Z</time>
      </trkpt>
      <trkpt lat="48.00758" lon="6.83892">
        <ele>1054.2</ele>
        <time>2022-05-26T08:37:43Z</time>
      </trkpt>
      <trkpt lat="48.00748" lon="6.83889">
        <ele>1054</ele>
        <time>2022-05-26T08:37:46Z</time>
      </trkpt>
      <trkpt lat="48.00736" lon="6.83885">
        <ele>1054.6</ele>
        <time>2022-05-26T08:37:50Z</time>
      </trkpt>
      <trkpt lat="48.00727" lon="6.83884">
        <ele>1054.3</ele>
        <time>2022-05-26T08:37:53Z</time>
      </trkpt>
      <trkpt lat="48.00718" lon="6.8388">
        <ele>1054.5</ele>
        <time>2022-05-26T08:37:56Z</time>
      </trkpt>
      <trkpt lat="48.00706" lon="6.83878">
        <ele>1055.2</ele>
        <time>2022-05-26T08:38:00Z</time>
      </trkpt>
      <trkpt lat="48.00694" lon="6.83874">
        <ele>1055.6</ele>
        <time>2022-05-26T08:38:03Z</time>
      </trkpt>
      <trkpt lat="48.00682" lon="6.83871">
        <ele>1054.8</ele>
        <time>2022-05-26T08:38:06Z</time>
      </trkpt>
      <trkpt lat="48.0067" lon="6.83867">
        <ele>1055.5</ele>
        <time>2022-05-26T08:38:09Z</time>
      </trkpt>
      <trkpt lat="48.00661" lon="6.83864">
        <ele>1054.6</ele>
        <time>2022-05-26T08:38:11Z</time>
      </trkpt>
      <trkpt lat="48.00652" lon="6.83858">
        <ele>1054.5</ele>
        <time>2022-05-26T08:38:13Z</time>
      </trkpt>
      <trkpt lat="48.00639" lon="6.83853">
        <ele>1052.9</ele>
        <time>2022-05-26T08:38:16Z</time>
      </trkpt>
      <trkpt lat="48.00629" lon="6.83849">
        <ele>1053</ele>
        <time>2022-05-26T08:38:18Z</time>
      </trkpt>
      <trkpt lat="48.00618" lon="6.83845">
        <ele>1051.8</ele>
        <time>2022-05-26T08:38:20Z</time>
      </trkpt>
      <trkpt lat="48.00608" lon="6.83841">
        <ele>1051.5</ele>
        <time>2022-05-26T08:38:22Z</time>
      </trkpt>
      <trkpt lat="48.00599" lon="6.83823">
        <ele>1049.4</ele>
        <time>2022-05-26T08:38:25Z</time>
      </trkpt>
      <trkpt lat="48.00598" lon="6.83801">
        <ele>1047.1</ele>
        <time>2022-05-26T08:38:27Z</time>
      </trkpt>
      <trkpt lat="48.00597" lon="6.83779">
        <ele>1048.3</ele>
        <time>2022-05-26T08:38:29Z</time>
      </trkpt>
      <trkpt lat="48.00594" lon="6.83757">
        <ele>1046</ele>
        <time>2022-05-26T08:38:31Z</time>
      </trkpt>
      <trkpt lat="48.00588" lon="6.83736">
        <ele>1041</ele>
        <time>2022-05-26T08:38:33Z</time>
      </trkpt>
      <trkpt lat="48.0058" lon="6.83721">
        <ele>1042.9</ele>
        <time>2022-05-26T08:38:35Z</time>
      </trkpt>
      <trkpt lat="48.0057" lon="6.83713">
        <ele>1042.9</ele>
        <time>2022-05-26T08:38:37Z</time>
      </trkpt>
      <trkpt lat="48.00558" lon="6.83706">
        <ele>1043.3</ele>
        <time>2022-05-26T08:38:39Z</time>
      </trkpt>
      <trkpt lat="48.00549" lon="6.83696">
        <ele>1044</ele>
        <time>2022-05-26T08:38:41Z</time>
      </trkpt>
      <trkpt lat="48.00544" lon="6.83679">
        <ele>1040.2</ele>
        <time>2022-05-26T08:38:43Z</time>
      </trkpt>
      <trkpt lat="48.00541" lon="6.83659">
        <ele>1036.8</ele>
        <time>2022-05-26T08:38:45Z</time>
      </trkpt>
      <trkpt lat="48.00536" lon="6.83642">
        <ele>1039.4</ele>
        <time>2022-05-26T08:38:47Z</time>
      </trkpt>
      <trkpt lat="48.00529" lon="6.83634">
        <ele>1038.7</ele>
        <time>2022-05-26T08:38:49Z</time>
      </trkpt>
      <trkpt lat="48.00518" lon="6.83633">
        <ele>1037.5</ele>
        <time>2022-05-26T08:38:51Z</time>
      </trkpt>
      <trkpt lat="48.00508" lon="6.83639">
        <ele>1035.8</ele>
        <time>2022-05-26T08:38:53Z</time>
      </trkpt>
      <trkpt lat="48.00498" lon="6.83652">
        <ele>1031.2</ele>
        <time>2022-05-26T08:38:55Z</time>
      </trkpt>
      <trkpt lat="48.00487" lon="6.83665">
        <ele>1032</ele>
        <time>2022-05-26T08:38:57Z</time>
      </trkpt>
      <trkpt lat="48.00476" lon="6.83675">
        <ele>1032.4</ele>
        <time>2022-05-26T08:38:59Z</time>
      </trkpt>
      <trkpt lat="48.00466" lon="6.83687">
        <ele>1030.9</ele>
        <time>2022-05-26T08:39:01Z</time>
      </trkpt>
      <trkpt lat="48.00455" lon="6.83692">
        <ele>1032.9</ele>
        <time>2022-05-26T08:39:03Z</time>
      </trkpt>
      <trkpt lat="48.00445" lon="6.83692">
        <ele>1032.6</ele>
        <time>2022-05-26T08:39:05Z</time>
      </trkpt>
      <trkpt lat="48.00436" lon="6.83685">
        <ele>1033</ele>
        <time>2022-05-26T08:39:07Z</time>
      </trkpt>
      <trkpt lat="48.00428" lon="6.83674">
        <ele>1029.8</ele>
        <time>2022-05-26T08:39:10Z</time>
      </trkpt>
      <trkpt lat="48.00424" lon="6.83658">
        <ele>1027.4</ele>
        <time>2022-05-26T08:39:14Z</time>
      </trkpt>
      <trkpt lat="48.00424" lon="6.8364">
        <ele>1024.8</ele>
        <time>2022-05-26T08:39:18Z</time>
      </trkpt>
      <trkpt lat="48.00423" lon="6.83625">
        <ele>1024.7</ele>
        <time>2022-05-26T08:39:20Z</time>
      </trkpt>
      <trkpt lat="48.00424" lon="6.83604">
        <ele>1020.8</ele>
        <time>2022-05-26T08:39:22Z</time>
      </trkpt>
      <trkpt lat="48.00426" lon="6.83584">
        <ele>1018.2</ele>
        <time>2022-05-26T08:39:24Z</time>
      </trkpt>
      <trkpt lat="48.00425" lon="6.83563">
        <ele>1018.6</ele>
        <time>2022-05-26T08:39:26Z</time>
      </trkpt>
      <trkpt lat="48.00421" lon="6.83547">
        <ele>1018.3</ele>
        <time>2022-05-26T08:39:28Z</time>
      </trkpt>
      <trkpt lat="48.0041" lon="6.83542">
        <ele>1022.3</ele>
        <time>2022-05-26T08:39:31Z</time>
      </trkpt>
      <trkpt lat="48.00399" lon="6.8354">
        <ele>1023.4</ele>
        <time>2022-05-26T08:39:36Z</time>
      </trkpt>
      <trkpt lat="48.00401" lon="6.83525">
        <ele>1024.1</ele>
        <time>2022-05-26T08:39:40Z</time>
      </trkpt>
      <trkpt lat="48.00405" lon="6.83508">
        <ele>1024.4</ele>
        <time>2022-05-26T08:39:44Z</time>
      </trkpt>
      <trkpt lat="48.00406" lon="6.83494">
        <ele>1024.2</ele>
        <time>2022-05-26T08:39:47Z</time>
      </trkpt>
      <trkpt lat="48.00403" lon="6.83479">
        <ele>1022.7</ele>
        <time>2022-05-26T08:39:51Z</time>
      </trkpt>
      <trkpt lat="48.00392" lon="6.83469">
        <ele>1022.3</ele>
        <time>2022-05-26T08:39:54Z</time>
      </trkpt>
      <trkpt lat="48.00383" lon="6.83462">
        <ele>1020.1</ele>
        <time>2022-05-26T08:39:56Z</time>
      </trkpt>
      <trkpt lat="48.00373" lon="6.83458">
        <ele>1017.4</ele>
        <time>2022-05-26T08:39:58Z</time>
      </trkpt>
      <trkpt lat="48.00361" lon="6.8345">
        <ele>1016.7</ele>
        <time>2022-05-26T08:40:01Z</time>
      </trkpt>
      <trkpt lat="48.00352" lon="6.83439">
        <ele>1016.1</ele>
        <time>2022-05-26T08:40:03Z</time>
      </trkpt>
      <trkpt lat="48.00345" lon="6.83425">
        <ele>1016.2</ele>
        <time>2022-05-26T08:40:05Z</time>
      </trkpt>
      <trkpt lat="48.00342" lon="6.8341">
        <ele>1015.8</ele>
        <time>2022-05-26T08:40:07Z</time>
      </trkpt>
      <trkpt lat="48.00343" lon="6.83395">
        <ele>1014.9</ele>
        <time>2022-05-26T08:40:09Z</time>
      </trkpt>
      <trkpt lat="48.00343" lon="6.83381">
        <ele>1014.3</ele>
        <time>2022-05-26T08:40:11Z</time>
      </trkpt>
      <trkpt lat="48.00337" lon="6.83365">
        <ele>1015.9</ele>
        <time>2022-05-26T08:40:14Z</time>
      </trkpt>
      <trkpt lat="48.00328" lon="6.83355">
        <ele>1016.1</ele>
        <time>2022-05-26T08:40:17Z</time>
      </trkpt>
      <trkpt lat="48.00321" lon="6.83346">
        <ele>1017.8</ele>
        <time>2022-05-26T08:40:20Z</time>
      </trkpt>
      <trkpt lat="48.00311" lon="6.83346">
        <ele>1019.2</ele>
        <time>2022-05-26T08:40:24Z</time>
      </trkpt>
      <trkpt lat="48.003" lon="6.83349">
        <ele>1019.3</ele>
        <time>2022-05-26T08:40:28Z</time>
      </trkpt>
      <trkpt lat="48.00289" lon="6.83351">
        <ele>1020</ele>
        <time>2022-05-26T08:40:32Z</time>
      </trkpt>
      <trkpt lat="48.00279" lon="6.83353">
        <ele>1020.5</ele>
        <time>2022-05-26T08:40:36Z</time>
      </trkpt>
      <trkpt lat="48.00269" lon="6.83352">
        <ele>1022.2</ele>
        <time>2022-05-26T08:40:41Z</time>
      </trkpt>
      <trkpt lat="48.0026" lon="6.83348">
        <ele>1022.8</ele>
        <time>2022-05-26T08:40:45Z</time>
      </trkpt>
      <trkpt lat="48.00251" lon="6.83341">
        <ele>1022.5</ele>
        <time>2022-05-26T08:40:49Z</time>
      </trkpt>
      <trkpt lat="48.0024" lon="6.83334">
        <ele>1022.3</ele>
        <time>2022-05-26T08:40:53Z</time>
      </trkpt>
      <trkpt lat="48.00233" lon="6.83326">
        <ele>1022.4</ele>
        <time>2022-05-26T08:40:56Z</time>
      </trkpt>
      <trkpt lat="48.00225" lon="6.83316">
        <ele>1022.2</ele>
        <time>2022-05-26T08:40:59Z</time>
      </trkpt>
      <trkpt lat="48.00217" lon="6.83309">
        <ele>1023.9</ele>
        <time>2022-05-26T08:41:02Z</time>
      </trkpt>
      <trkpt lat="48.00207" lon="6.83299">
        <ele>1023.9</ele>
        <time>2022-05-26T08:41:06Z</time>
      </trkpt>
      <trkpt lat="48.00203" lon="6.83287">
        <ele>1025.8</ele>
        <time>2022-05-26T08:41:09Z</time>
      </trkpt>
      <trkpt lat="48.00198" lon="6.83272">
        <ele>1026.8</ele>
        <time>2022-05-26T08:41:13Z</time>
      </trkpt>
      <trkpt lat="48.0019" lon="6.8326">
        <ele>1027.2</ele>
        <time>2022-05-26T08:41:17Z</time>
      </trkpt>
      <trkpt lat="48.00183" lon="6.83247">
        <ele>1027.4</ele>
        <time>2022-05-26T08:41:21Z</time>
      </trkpt>
      <trkpt lat="48.00178" lon="6.83236">
        <ele>1029.8</ele>
        <time>2022-05-26T08:41:25Z</time>
      </trkpt>
      <trkpt lat="48.00172" lon="6.83221">
        <ele>1030.6</ele>
        <time>2022-05-26T08:41:30Z</time>
      </trkpt>
      <trkpt lat="48.00167" lon="6.83206">
        <ele>1029.8</ele>
        <time>2022-05-26T08:41:34Z</time>
      </trkpt>
      <trkpt lat="48.00164" lon="6.83189">
        <ele>1028.4</ele>
        <time>2022-05-26T08:41:37Z</time>
      </trkpt>
      <trkpt lat="48.0016" lon="6.83172">
        <ele>1028.9</ele>
        <time>2022-05-26T08:41:40Z</time>
      </trkpt>
      <trkpt lat="48.00154" lon="6.83157">
        <ele>1030.2</ele>
        <time>2022-05-26T08:41:43Z</time>
      </trkpt>
      <trkpt lat="48.00149" lon="6.83141">
        <ele>1029.2</ele>
        <time>2022-05-26T08:41:46Z</time>
      </trkpt>
      <trkpt lat="48.00146" lon="6.83129">
        <ele>1029.4</ele>
        <time>2022-05-26T08:41:48Z</time>
      </trkpt>
      <trkpt lat="48.00139" lon="6.83115">
        <ele>1030.7</ele>
        <time>2022-05-26T08:41:51Z</time>
      </trkpt>
      <trkpt lat="48.00133" lon="6.83103">
        <ele>1027.7</ele>
        <time>2022-05-26T08:41:54Z</time>
      </trkpt>
      <trkpt lat="48.00129" lon="6.83085">
        <ele>1027.9</ele>
        <time>2022-05-26T08:41:57Z</time>
      </trkpt>
      <trkpt lat="48.00121" lon="6.83073">
        <ele>1030.7</ele>
        <time>2022-05-26T08:42:01Z</time>
      </trkpt>
      <trkpt lat="48.0011" lon="6.83072">
        <ele>1029.6</ele>
        <time>2022-05-26T08:42:05Z</time>
      </trkpt>
      <trkpt lat="48.001" lon="6.83077">
        <ele>1030</ele>
        <time>2022-05-26T08:42:09Z</time>
      </trkpt>
      <trkpt lat="48.00089" lon="6.8308">
        <ele>1030.4</ele>
        <time>2022-05-26T08:42:14Z</time>
      </trkpt>
      <trkpt lat="48.0008" lon="6.83083">
        <ele>1031</ele>
        <time>2022-05-26T08:42:19Z</time>
      </trkpt>
      <trkpt lat="48.0007" lon="6.83087">
        <ele>1031.9</ele>
        <time>2022-05-26T08:42:24Z</time>
      </trkpt>
      <trkpt lat="48.00062" lon="6.83094">
        <ele>1032.8</ele>
        <time>2022-05-26T08:42:32Z</time>
      </trkpt>
      <trkpt lat="48.00062" lon="6.83093">
        <ele>1032.8</ele>
        <time>2022-05-26T08:42:33Z</time>
      </trkpt>
      <trkpt lat="48.00061" lon="6.83093">
        <ele>1032.7</ele>
        <time>2022-05-26T08:43:56Z</time>
      </trkpt>
      <trkpt lat="48.00061" lon="6.83094">
        <ele>1032.7</ele>
        <time>2022-05-26T08:43:58Z</time>
      </trkpt>
      <trkpt lat="48.00059" lon="6.83095">
        <ele>1032.9</ele>
        <time>2022-05-26T08:44:18Z</time>
      </trkpt>
      <trkpt lat="48.00059" lon="6.83096">
        <ele>1033</ele>
        <time>2022-05-26T08:44:23Z</time>
      </trkpt>
      <trkpt lat="48.00057" lon="6.83098">
        <ele>1032.9</ele>
        <time>2022-05-26T08:44:29Z</time>
      </trkpt>
      <trkpt lat="48.00057" lon="6.83097">
        <ele>1032.7</ele>
        <time>2022-05-26T08:44:34Z</time>
      </trkpt>
      <trkpt lat="48.00059" lon="6.83096">
        <ele>1032.9</ele>
        <time>2022-05-26T08:44:42Z</time>
      </trkpt>
      <trkpt lat="48.00058" lon="6.83096">
        <ele>1033.4</ele>
        <time>2022-05-26T08:45:14Z</time>
      </trkpt>
      <trkpt lat="48.00047" lon="6.83097">
        <ele>1031.4</ele>
        <time>2022-05-26T08:45:20Z</time>
      </trkpt>
      <trkpt lat="48.00037" lon="6.83098">
        <ele>1031.4</ele>
        <time>2022-05-26T08:45:23Z</time>
      </trkpt>
      <trkpt lat="48.00026" lon="6.83099">
        <ele>1031.2</ele>
        <time>2022-05-26T08:45:26Z</time>
      </trkpt>
      <trkpt lat="48.00015" lon="6.83107">
        <ele>1031.5</ele>
        <time>2022-05-26T08:45:29Z</time>
      </trkpt>
      <trkpt lat="48.00006" lon="6.83117">
        <ele>1031.2</ele>
        <time>2022-05-26T08:45:32Z</time>
      </trkpt>
      <trkpt lat="47.99995" lon="6.83128">
        <ele>1029.9</ele>
        <time>2022-05-26T08:45:35Z</time>
      </trkpt>
      <trkpt lat="47.99985" lon="6.83138">
        <ele>1032.6</ele>
        <time>2022-05-26T08:45:38Z</time>
      </trkpt>
      <trkpt lat="47.99976" lon="6.83146">
        <ele>1031.4</ele>
        <time>2022-05-26T08:45:42Z</time>
      </trkpt>
      <trkpt lat="47.99964" lon="6.83151">
        <ele>1031.9</ele>
        <time>2022-05-26T08:45:45Z</time>
      </trkpt>
      <trkpt lat="47.99952" lon="6.83152">
        <ele>1030.8</ele>
        <time>2022-05-26T08:45:48Z</time>
      </trkpt>
      <trkpt lat="47.99943" lon="6.83146">
        <ele>1031.9</ele>
        <time>2022-05-26T08:45:51Z</time>
      </trkpt>
      <trkpt lat="47.99935" lon="6.83137">
        <ele>1033.1</ele>
        <time>2022-05-26T08:45:54Z</time>
      </trkpt>
      <trkpt lat="47.99927" lon="6.83128">
        <ele>1034.6</ele>
        <time>2022-05-26T08:45:57Z</time>
      </trkpt>
      <trkpt lat="47.99921" lon="6.83118">
        <ele>1034.9</ele>
        <time>2022-05-26T08:46:02Z</time>
      </trkpt>
      <trkpt lat="47.99916" lon="6.8311">
        <ele>1036.3</ele>
        <time>2022-05-26T08:46:16Z</time>
      </trkpt>
      <trkpt lat="47.99916" lon="6.83109">
        <ele>1036.4</ele>
        <time>2022-05-26T08:46:18Z</time>
      </trkpt>
      <trkpt lat="47.99912" lon="6.83096">
        <ele>1035.6</ele>
        <time>2022-05-26T08:46:24Z</time>
      </trkpt>
      <trkpt lat="47.99907" lon="6.83085">
        <ele>1035.7</ele>
        <time>2022-05-26T08:46:27Z</time>
      </trkpt>
      <trkpt lat="47.99901" lon="6.83072">
        <ele>1035.9</ele>
        <time>2022-05-26T08:46:31Z</time>
      </trkpt>
      <trkpt lat="47.99894" lon="6.83061">
        <ele>1036.9</ele>
        <time>2022-05-26T08:46:35Z</time>
      </trkpt>
      <trkpt lat="47.99886" lon="6.83056">
        <ele>1034.6</ele>
        <time>2022-05-26T08:46:38Z</time>
      </trkpt>
      <trkpt lat="47.99874" lon="6.83053">
        <ele>1034</ele>
        <time>2022-05-26T08:46:41Z</time>
      </trkpt>
      <trkpt lat="47.99861" lon="6.8305">
        <ele>1034.4</ele>
        <time>2022-05-26T08:46:44Z</time>
      </trkpt>
      <trkpt lat="47.9985" lon="6.83046">
        <ele>1035.1</ele>
        <time>2022-05-26T08:46:47Z</time>
      </trkpt>
      <trkpt lat="47.99841" lon="6.83043">
        <ele>1035.7</ele>
        <time>2022-05-26T08:46:50Z</time>
      </trkpt>
      <trkpt lat="47.99832" lon="6.83038">
        <ele>1036.4</ele>
        <time>2022-05-26T08:46:53Z</time>
      </trkpt>
      <trkpt lat="47.99822" lon="6.83031">
        <ele>1037.8</ele>
        <time>2022-05-26T08:46:57Z</time>
      </trkpt>
      <trkpt lat="47.99813" lon="6.83022">
        <ele>1037.6</ele>
        <time>2022-05-26T08:47:01Z</time>
      </trkpt>
      <trkpt lat="47.99806" lon="6.83012">
        <ele>1038.1</ele>
        <time>2022-05-26T08:47:04Z</time>
      </trkpt>
      <trkpt lat="47.998" lon="6.82999">
        <ele>1037.2</ele>
        <time>2022-05-26T08:47:07Z</time>
      </trkpt>
      <trkpt lat="47.99794" lon="6.82988">
        <ele>1036.9</ele>
        <time>2022-05-26T08:47:10Z</time>
      </trkpt>
      <trkpt lat="47.99787" lon="6.82975">
        <ele>1035.5</ele>
        <time>2022-05-26T08:47:13Z</time>
      </trkpt>
      <trkpt lat="47.9978" lon="6.8296">
        <ele>1036.4</ele>
        <time>2022-05-26T08:47:16Z</time>
      </trkpt>
      <trkpt lat="47.99773" lon="6.82946">
        <ele>1036.6</ele>
        <time>2022-05-26T08:47:19Z</time>
      </trkpt>
      <trkpt lat="47.99765" lon="6.82933">
        <ele>1036.9</ele>
        <time>2022-05-26T08:47:22Z</time>
      </trkpt>
      <trkpt lat="47.99756" lon="6.8292">
        <ele>1036.6</ele>
        <time>2022-05-26T08:47:25Z</time>
      </trkpt>
      <trkpt lat="47.99747" lon="6.82907">
        <ele>1037</ele>
        <time>2022-05-26T08:47:28Z</time>
      </trkpt>
      <trkpt lat="47.9974" lon="6.82895">
        <ele>1038</ele>
        <time>2022-05-26T08:47:31Z</time>
      </trkpt>
      <trkpt lat="47.99732" lon="6.82884">
        <ele>1036.7</ele>
        <time>2022-05-26T08:47:34Z</time>
      </trkpt>
      <trkpt lat="47.99724" lon="6.8287">
        <ele>1036.5</ele>
        <time>2022-05-26T08:47:37Z</time>
      </trkpt>
      <trkpt lat="47.99719" lon="6.82855">
        <ele>1035.8</ele>
        <time>2022-05-26T08:47:40Z</time>
      </trkpt>
      <trkpt lat="47.99714" lon="6.82837">
        <ele>1035.7</ele>
        <time>2022-05-26T08:47:43Z</time>
      </trkpt>
      <trkpt lat="47.99705" lon="6.82822">
        <ele>1034.8</ele>
        <time>2022-05-26T08:47:46Z</time>
      </trkpt>
      <trkpt lat="47.99694" lon="6.82811">
        <ele>1034.7</ele>
        <time>2022-05-26T08:47:49Z</time>
      </trkpt>
      <trkpt lat="47.99683" lon="6.82805">
        <ele>1035.3</ele>
        <time>2022-05-26T08:47:52Z</time>
      </trkpt>
      <trkpt lat="47.99672" lon="6.82799">
        <ele>1036.2</ele>
        <time>2022-05-26T08:47:55Z</time>
      </trkpt>
      <trkpt lat="47.99663" lon="6.82796">
        <ele>1037.3</ele>
        <time>2022-05-26T08:47:58Z</time>
      </trkpt>
      <trkpt lat="47.99654" lon="6.82796">
        <ele>1036.7</ele>
        <time>2022-05-26T08:48:02Z</time>
      </trkpt>
      <trkpt lat="47.99643" lon="6.82794">
        <ele>1037.8</ele>
        <time>2022-05-26T08:48:06Z</time>
      </trkpt>
      <trkpt lat="47.99632" lon="6.82783">
        <ele>1033.4</ele>
        <time>2022-05-26T08:48:09Z</time>
      </trkpt>
      <trkpt lat="47.99624" lon="6.82774">
        <ele>1034.3</ele>
        <time>2022-05-26T08:48:11Z</time>
      </trkpt>
      <trkpt lat="47.99616" lon="6.82762">
        <ele>1032</ele>
        <time>2022-05-26T08:48:14Z</time>
      </trkpt>
      <trkpt lat="47.99608" lon="6.82751">
        <ele>1031.2</ele>
        <time>2022-05-26T08:48:18Z</time>
      </trkpt>
      <trkpt lat="47.99599" lon="6.82741">
        <ele>1027.8</ele>
        <time>2022-05-26T08:48:22Z</time>
      </trkpt>
      <trkpt lat="47.99595" lon="6.82726">
        <ele>1025.2</ele>
        <time>2022-05-26T08:48:25Z</time>
      </trkpt>
      <trkpt lat="47.99591" lon="6.82711">
        <ele>1022.3</ele>
        <time>2022-05-26T08:48:27Z</time>
      </trkpt>
      <trkpt lat="47.99587" lon="6.82697">
        <ele>1020.3</ele>
        <time>2022-05-26T08:48:29Z</time>
      </trkpt>
      <trkpt lat="47.99582" lon="6.82682">
        <ele>1019.6</ele>
        <time>2022-05-26T08:48:31Z</time>
      </trkpt>
      <trkpt lat="47.99575" lon="6.82668">
        <ele>1021.6</ele>
        <time>2022-05-26T08:48:33Z</time>
      </trkpt>
      <trkpt lat="47.99568" lon="6.82656">
        <ele>1022.4</ele>
        <time>2022-05-26T08:48:35Z</time>
      </trkpt>
      <trkpt lat="47.99561" lon="6.82642">
        <ele>1021.9</ele>
        <time>2022-05-26T08:48:37Z</time>
      </trkpt>
      <trkpt lat="47.99555" lon="6.82627">
        <ele>1021.6</ele>
        <time>2022-05-26T08:48:39Z</time>
      </trkpt>
      <trkpt lat="47.99551" lon="6.82612">
        <ele>1019.2</ele>
        <time>2022-05-26T08:48:41Z</time>
      </trkpt>
      <trkpt lat="47.99547" lon="6.82598">
        <ele>1017.9</ele>
        <time>2022-05-26T08:48:43Z</time>
      </trkpt>
      <trkpt lat="47.99541" lon="6.82586">
        <ele>1020.5</ele>
        <time>2022-05-26T08:48:45Z</time>
      </trkpt>
      <trkpt lat="47.99533" lon="6.82573">
        <ele>1018.4</ele>
        <time>2022-05-26T08:48:47Z</time>
      </trkpt>
      <trkpt lat="47.99525" lon="6.82558">
        <ele>1015.5</ele>
        <time>2022-05-26T08:48:49Z</time>
      </trkpt>
      <trkpt lat="47.99517" lon="6.82543">
        <ele>1012.6</ele>
        <time>2022-05-26T08:48:51Z</time>
      </trkpt>
      <trkpt lat="47.99509" lon="6.82528">
        <ele>1015.8</ele>
        <time>2022-05-26T08:48:53Z</time>
      </trkpt>
      <trkpt lat="47.99503" lon="6.82517">
        <ele>1017</ele>
        <time>2022-05-26T08:48:55Z</time>
      </trkpt>
      <trkpt lat="47.99499" lon="6.82511">
        <ele>1018.3</ele>
        <time>2022-05-26T08:48:59Z</time>
      </trkpt>
      <trkpt lat="47.99499" lon="6.82512">
        <ele>1018.3</ele>
        <time>2022-05-26T08:49:08Z</time>
      </trkpt>
      <trkpt lat="47.995" lon="6.82512">
        <ele>1018.5</ele>
        <time>2022-05-26T08:49:12Z</time>
      </trkpt>
      <trkpt lat="47.99501" lon="6.82513">
        <ele>1018.5</ele>
        <time>2022-05-26T08:49:15Z</time>
      </trkpt>
      <trkpt lat="47.99507" lon="6.82525">
        <ele>1017.9</ele>
        <time>2022-05-26T08:49:21Z</time>
      </trkpt>
      <trkpt lat="47.99514" lon="6.82536">
        <ele>1018.5</ele>
        <time>2022-05-26T08:49:25Z</time>
      </trkpt>
      <trkpt lat="47.99521" lon="6.82549">
        <ele>1019.2</ele>
        <time>2022-05-26T08:49:29Z</time>
      </trkpt>
      <trkpt lat="47.99526" lon="6.8256">
        <ele>1019.2</ele>
        <time>2022-05-26T08:49:32Z</time>
      </trkpt>
      <trkpt lat="47.99532" lon="6.82572">
        <ele>1019.5</ele>
        <time>2022-05-26T08:49:35Z</time>
      </trkpt>
      <trkpt lat="47.99539" lon="6.82583">
        <ele>1020.1</ele>
        <time>2022-05-26T08:49:38Z</time>
      </trkpt>
      <trkpt lat="47.99545" lon="6.82594">
        <ele>1022</ele>
        <time>2022-05-26T08:49:42Z</time>
      </trkpt>
      <trkpt lat="47.9955" lon="6.82606">
        <ele>1022.3</ele>
        <time>2022-05-26T08:49:47Z</time>
      </trkpt>
      <trkpt lat="47.99553" lon="6.82612">
        <ele>1021.7</ele>
        <time>2022-05-26T08:49:53Z</time>
      </trkpt>
      <trkpt lat="47.99552" lon="6.82612">
        <ele>1021.8</ele>
        <time>2022-05-26T08:49:54Z</time>
      </trkpt>
      <trkpt lat="47.99547" lon="6.82602">
        <ele>1022.6</ele>
        <time>2022-05-26T08:50:10Z</time>
      </trkpt>
      <trkpt lat="47.99546" lon="6.82602">
        <ele>1023</ele>
        <time>2022-05-26T08:50:15Z</time>
      </trkpt>
      <trkpt lat="47.99545" lon="6.82603">
        <ele>1023.2</ele>
        <time>2022-05-26T08:50:18Z</time>
      </trkpt>
      <trkpt lat="47.99546" lon="6.82617">
        <ele>1020.9</ele>
        <time>2022-05-26T08:50:30Z</time>
      </trkpt>
      <trkpt lat="47.99547" lon="6.82637">
        <ele>1017</ele>
        <time>2022-05-26T08:50:33Z</time>
      </trkpt>
      <trkpt lat="47.99545" lon="6.82653">
        <ele>1015.6</ele>
        <time>2022-05-26T08:50:35Z</time>
      </trkpt>
      <trkpt lat="47.99545" lon="6.82667">
        <ele>1015.5</ele>
        <time>2022-05-26T08:50:37Z</time>
      </trkpt>
      <trkpt lat="47.99547" lon="6.82682">
        <ele>1015.5</ele>
        <time>2022-05-26T08:50:39Z</time>
      </trkpt>
      <trkpt lat="47.99548" lon="6.82701">
        <ele>1013.8</ele>
        <time>2022-05-26T08:50:41Z</time>
      </trkpt>
      <trkpt lat="47.99548" lon="6.82718">
        <ele>1012.3</ele>
        <time>2022-05-26T08:50:43Z</time>
      </trkpt>
      <trkpt lat="47.99546" lon="6.82736">
        <ele>1010.3</ele>
        <time>2022-05-26T08:50:46Z</time>
      </trkpt>
      <trkpt lat="47.99544" lon="6.8275">
        <ele>1007.7</ele>
        <time>2022-05-26T08:50:48Z</time>
      </trkpt>
      <trkpt lat="47.99544" lon="6.82764">
        <ele>1006.7</ele>
        <time>2022-05-26T08:50:50Z</time>
      </trkpt>
      <trkpt lat="47.99546" lon="6.82782">
        <ele>1005</ele>
        <time>2022-05-26T08:50:53Z</time>
      </trkpt>
      <trkpt lat="47.99545" lon="6.82799">
        <ele>1005.6</ele>
        <time>2022-05-26T08:50:56Z</time>
      </trkpt>
      <trkpt lat="47.99544" lon="6.82815">
        <ele>1006.2</ele>
        <time>2022-05-26T08:51:00Z</time>
      </trkpt>
      <trkpt lat="47.99542" lon="6.82833">
        <ele>1002.8</ele>
        <time>2022-05-26T08:51:03Z</time>
      </trkpt>
      <trkpt lat="47.99542" lon="6.82853">
        <ele>1000.4</ele>
        <time>2022-05-26T08:51:06Z</time>
      </trkpt>
      <trkpt lat="47.9954" lon="6.82869">
        <ele>999.4</ele>
        <time>2022-05-26T08:51:08Z</time>
      </trkpt>
      <trkpt lat="47.99539" lon="6.82889">
        <ele>997.2</ele>
        <time>2022-05-26T08:51:10Z</time>
      </trkpt>
      <trkpt lat="47.9954" lon="6.82906">
        <ele>993.6</ele>
        <time>2022-05-26T08:51:12Z</time>
      </trkpt>
      <trkpt lat="47.99542" lon="6.82924">
        <ele>994.4</ele>
        <time>2022-05-26T08:51:15Z</time>
      </trkpt>
      <trkpt lat="47.99547" lon="6.82936">
        <ele>993.5</ele>
        <time>2022-05-26T08:51:17Z</time>
      </trkpt>
      <trkpt lat="47.99552" lon="6.82947">
        <ele>993</ele>
        <time>2022-05-26T08:51:19Z</time>
      </trkpt>
      <trkpt lat="47.9956" lon="6.82962">
        <ele>990.2</ele>
        <time>2022-05-26T08:51:22Z</time>
      </trkpt>
      <trkpt lat="47.99565" lon="6.82977">
        <ele>986.8</ele>
        <time>2022-05-26T08:51:25Z</time>
      </trkpt>
      <trkpt lat="47.99565" lon="6.82995">
        <ele>983.6</ele>
        <time>2022-05-26T08:51:28Z</time>
      </trkpt>
      <trkpt lat="47.99566" lon="6.83014">
        <ele>984.9</ele>
        <time>2022-05-26T08:51:31Z</time>
      </trkpt>
      <trkpt lat="47.99568" lon="6.83031">
        <ele>981.4</ele>
        <time>2022-05-26T08:51:34Z</time>
      </trkpt>
      <trkpt lat="47.99571" lon="6.83044">
        <ele>979.3</ele>
        <time>2022-05-26T08:51:37Z</time>
      </trkpt>
      <trkpt lat="47.99574" lon="6.83061">
        <ele>979</ele>
        <time>2022-05-26T08:51:40Z</time>
      </trkpt>
      <trkpt lat="47.99579" lon="6.83077">
        <ele>975.3</ele>
        <time>2022-05-26T08:51:43Z</time>
      </trkpt>
      <trkpt lat="47.99582" lon="6.83092">
        <ele>972.1</ele>
        <time>2022-05-26T08:51:47Z</time>
      </trkpt>
      <trkpt lat="47.99583" lon="6.83106">
        <ele>968.9</ele>
        <time>2022-05-26T08:51:51Z</time>
      </trkpt>
      <trkpt lat="47.99584" lon="6.83119">
        <ele>968.2</ele>
        <time>2022-05-26T08:51:54Z</time>
      </trkpt>
      <trkpt lat="47.99589" lon="6.83134">
        <ele>965</ele>
        <time>2022-05-26T08:51:57Z</time>
      </trkpt>
      <trkpt lat="47.99594" lon="6.83151">
        <ele>960.8</ele>
        <time>2022-05-26T08:52:00Z</time>
      </trkpt>
      <trkpt lat="47.996" lon="6.83164">
        <ele>960.5</ele>
        <time>2022-05-26T08:52:03Z</time>
      </trkpt>
      <trkpt lat="47.99606" lon="6.83174">
        <ele>956.2</ele>
        <time>2022-05-26T08:52:07Z</time>
      </trkpt>
      <trkpt lat="47.99616" lon="6.8318">
        <ele>954.2</ele>
        <time>2022-05-26T08:52:11Z</time>
      </trkpt>
      <trkpt lat="47.9962" lon="6.83193">
        <ele>950.9</ele>
        <time>2022-05-26T08:52:16Z</time>
      </trkpt>
      <trkpt lat="47.99616" lon="6.83212">
        <ele>948.5</ele>
        <time>2022-05-26T08:52:19Z</time>
      </trkpt>
      <trkpt lat="47.99615" lon="6.83226">
        <ele>945.1</ele>
        <time>2022-05-26T08:52:21Z</time>
      </trkpt>
      <trkpt lat="47.99612" lon="6.83243">
        <ele>942.4</ele>
        <time>2022-05-26T08:52:23Z</time>
      </trkpt>
      <trkpt lat="47.9961" lon="6.83258">
        <ele>939.6</ele>
        <time>2022-05-26T08:52:25Z</time>
      </trkpt>
      <trkpt lat="47.99607" lon="6.83275">
        <ele>937.2</ele>
        <time>2022-05-26T08:52:27Z</time>
      </trkpt>
      <trkpt lat="47.99604" lon="6.83291">
        <ele>935.1</ele>
        <time>2022-05-26T08:52:29Z</time>
      </trkpt>
      <trkpt lat="47.996" lon="6.83309">
        <ele>932.6</ele>
        <time>2022-05-26T08:52:32Z</time>
      </trkpt>
      <trkpt lat="47.99597" lon="6.83322">
        <ele>931.6</ele>
        <time>2022-05-26T08:52:34Z</time>
      </trkpt>
      <trkpt lat="47.99593" lon="6.83338">
        <ele>929.6</ele>
        <time>2022-05-26T08:52:37Z</time>
      </trkpt>
      <trkpt lat="47.99593" lon="6.83352">
        <ele>927.5</ele>
        <time>2022-05-26T08:52:40Z</time>
      </trkpt>
      <trkpt lat="47.99594" lon="6.83368">
        <ele>925.9</ele>
        <time>2022-05-26T08:52:45Z</time>
      </trkpt>
      <trkpt lat="47.99594" lon="6.83379">
        <ele>923.7</ele>
        <time>2022-05-26T08:52:51Z</time>
      </trkpt>
      <trkpt lat="47.99594" lon="6.8338">
        <ele>923.8</ele>
        <time>2022-05-26T08:53:47Z</time>
      </trkpt>
      <trkpt lat="47.99587" lon="6.83388">
        <ele>920.5</ele>
        <time>2022-05-26T08:53:52Z</time>
      </trkpt>
      <trkpt lat="47.9958" lon="6.83404">
        <ele>918.8</ele>
        <time>2022-05-26T08:53:55Z</time>
      </trkpt>
      <trkpt lat="47.99573" lon="6.83422">
        <ele>916.2</ele>
        <time>2022-05-26T08:53:58Z</time>
      </trkpt>
      <trkpt lat="47.99568" lon="6.83433">
        <ele>915.5</ele>
        <time>2022-05-26T08:54:00Z</time>
      </trkpt>
      <trkpt lat="47.99562" lon="6.83451">
        <ele>914.4</ele>
        <time>2022-05-26T08:54:03Z</time>
      </trkpt>
      <trkpt lat="47.99558" lon="6.83464">
        <ele>913.1</ele>
        <time>2022-05-26T08:54:05Z</time>
      </trkpt>
      <trkpt lat="47.99556" lon="6.83481">
        <ele>908.4</ele>
        <time>2022-05-26T08:54:07Z</time>
      </trkpt>
      <trkpt lat="47.99555" lon="6.83497">
        <ele>907.9</ele>
        <time>2022-05-26T08:54:09Z</time>
      </trkpt>
      <trkpt lat="47.99554" lon="6.83513">
        <ele>906</ele>
        <time>2022-05-26T08:54:12Z</time>
      </trkpt>
      <trkpt lat="47.99552" lon="6.83531">
        <ele>905.5</ele>
        <time>2022-05-26T08:54:15Z</time>
      </trkpt>
      <trkpt lat="47.99553" lon="6.83546">
        <ele>905.2</ele>
        <time>2022-05-26T08:54:17Z</time>
      </trkpt>
      <trkpt lat="47.99553" lon="6.83565">
        <ele>901.1</ele>
        <time>2022-05-26T08:54:19Z</time>
      </trkpt>
      <trkpt lat="47.99551" lon="6.83586">
        <ele>897.9</ele>
        <time>2022-05-26T08:54:21Z</time>
      </trkpt>
      <trkpt lat="47.99554" lon="6.83609">
        <ele>896.7</ele>
        <time>2022-05-26T08:54:23Z</time>
      </trkpt>
      <trkpt lat="47.99557" lon="6.83627">
        <ele>897.6</ele>
        <time>2022-05-26T08:54:25Z</time>
      </trkpt>
      <trkpt lat="47.99562" lon="6.83641">
        <ele>897.8</ele>
        <time>2022-05-26T08:54:27Z</time>
      </trkpt>
      <trkpt lat="47.99563" lon="6.83657">
        <ele>896.4</ele>
        <time>2022-05-26T08:54:30Z</time>
      </trkpt>
      <trkpt lat="47.99559" lon="6.83669">
        <ele>895.2</ele>
        <time>2022-05-26T08:54:32Z</time>
      </trkpt>
      <trkpt lat="47.99553" lon="6.83684">
        <ele>893.5</ele>
        <time>2022-05-26T08:54:34Z</time>
      </trkpt>
      <trkpt lat="47.99545" lon="6.83695">
        <ele>892.7</ele>
        <time>2022-05-26T08:54:36Z</time>
      </trkpt>
      <trkpt lat="47.99537" lon="6.83701">
        <ele>892</ele>
        <time>2022-05-26T08:54:38Z</time>
      </trkpt>
      <trkpt lat="47.99526" lon="6.83706">
        <ele>890</ele>
        <time>2022-05-26T08:54:40Z</time>
      </trkpt>
      <trkpt lat="47.99514" lon="6.83708">
        <ele>889.2</ele>
        <time>2022-05-26T08:54:42Z</time>
      </trkpt>
      <trkpt lat="47.99502" lon="6.83708">
        <ele>889</ele>
        <time>2022-05-26T08:54:45Z</time>
      </trkpt>
      <trkpt lat="47.99492" lon="6.83716">
        <ele>887.4</ele>
        <time>2022-05-26T08:54:49Z</time>
      </trkpt>
      <trkpt lat="47.99484" lon="6.83728">
        <ele>885.8</ele>
        <time>2022-05-26T08:54:52Z</time>
      </trkpt>
      <trkpt lat="47.99478" lon="6.83739">
        <ele>887.2</ele>
        <time>2022-05-26T08:54:54Z</time>
      </trkpt>
      <trkpt lat="47.99474" lon="6.83758">
        <ele>882.6</ele>
        <time>2022-05-26T08:54:57Z</time>
      </trkpt>
      <trkpt lat="47.99473" lon="6.83777">
        <ele>883.2</ele>
        <time>2022-05-26T08:55:00Z</time>
      </trkpt>
      <trkpt lat="47.99474" lon="6.8379">
        <ele>880.7</ele>
        <time>2022-05-26T08:55:02Z</time>
      </trkpt>
      <trkpt lat="47.99477" lon="6.83804">
        <ele>879.9</ele>
        <time>2022-05-26T08:55:04Z</time>
      </trkpt>
      <trkpt lat="47.99479" lon="6.83817">
        <ele>877.4</ele>
        <time>2022-05-26T08:55:06Z</time>
      </trkpt>
      <trkpt lat="47.99481" lon="6.83831">
        <ele>873.4</ele>
        <time>2022-05-26T08:55:08Z</time>
      </trkpt>
      <trkpt lat="47.99479" lon="6.83849">
        <ele>871.6</ele>
        <time>2022-05-26T08:55:11Z</time>
      </trkpt>
      <trkpt lat="47.99476" lon="6.83863">
        <ele>869.4</ele>
        <time>2022-05-26T08:55:14Z</time>
      </trkpt>
      <trkpt lat="47.99468" lon="6.83873">
        <ele>869.2</ele>
        <time>2022-05-26T08:55:18Z</time>
      </trkpt>
      <trkpt lat="47.99474" lon="6.83885">
        <ele>867.9</ele>
        <time>2022-05-26T08:55:23Z</time>
      </trkpt>
      <trkpt lat="47.99485" lon="6.83897">
        <ele>867.3</ele>
        <time>2022-05-26T08:55:26Z</time>
      </trkpt>
      <trkpt lat="47.99493" lon="6.83907">
        <ele>867</ele>
        <time>2022-05-26T08:55:28Z</time>
      </trkpt>
      <trkpt lat="47.995" lon="6.83919">
        <ele>865.3</ele>
        <time>2022-05-26T08:55:30Z</time>
      </trkpt>
      <trkpt lat="47.99508" lon="6.83932">
        <ele>864.1</ele>
        <time>2022-05-26T08:55:32Z</time>
      </trkpt>
      <trkpt lat="47.99518" lon="6.83941">
        <ele>862.3</ele>
        <time>2022-05-26T08:55:34Z</time>
      </trkpt>
      <trkpt lat="47.9953" lon="6.83945">
        <ele>860.1</ele>
        <time>2022-05-26T08:55:36Z</time>
      </trkpt>
      <trkpt lat="47.9954" lon="6.83947">
        <ele>859.3</ele>
        <time>2022-05-26T08:55:38Z</time>
      </trkpt>
      <trkpt lat="47.9955" lon="6.83948">
        <ele>857.4</ele>
        <time>2022-05-26T08:55:41Z</time>
      </trkpt>
      <trkpt lat="47.99555" lon="6.83959">
        <ele>854.7</ele>
        <time>2022-05-26T08:55:49Z</time>
      </trkpt>
      <trkpt lat="47.99551" lon="6.83974">
        <ele>851.1</ele>
        <time>2022-05-26T08:55:52Z</time>
      </trkpt>
      <trkpt lat="47.99542" lon="6.83983">
        <ele>848.2</ele>
        <time>2022-05-26T08:55:55Z</time>
      </trkpt>
      <trkpt lat="47.99532" lon="6.83991">
        <ele>848.2</ele>
        <time>2022-05-26T08:55:59Z</time>
      </trkpt>
      <trkpt lat="47.99524" lon="6.84004">
        <ele>844.8</ele>
        <time>2022-05-26T08:56:02Z</time>
      </trkpt>
      <trkpt lat="47.99525" lon="6.84023">
        <ele>842.7</ele>
        <time>2022-05-26T08:56:05Z</time>
      </trkpt>
      <trkpt lat="47.99531" lon="6.84032">
        <ele>841</ele>
        <time>2022-05-26T08:56:07Z</time>
      </trkpt>
      <trkpt lat="47.99543" lon="6.84036">
        <ele>838.5</ele>
        <time>2022-05-26T08:56:10Z</time>
      </trkpt>
      <trkpt lat="47.99556" lon="6.84035">
        <ele>835.8</ele>
        <time>2022-05-26T08:56:13Z</time>
      </trkpt>
      <trkpt lat="47.99569" lon="6.84029">
        <ele>835.4</ele>
        <time>2022-05-26T08:56:16Z</time>
      </trkpt>
      <trkpt lat="47.99577" lon="6.84021">
        <ele>833.7</ele>
        <time>2022-05-26T08:56:19Z</time>
      </trkpt>
      <trkpt lat="47.99588" lon="6.84012">
        <ele>828.2</ele>
        <time>2022-05-26T08:56:22Z</time>
      </trkpt>
      <trkpt lat="47.99597" lon="6.84004">
        <ele>828.6</ele>
        <time>2022-05-26T08:56:25Z</time>
      </trkpt>
      <trkpt lat="47.99607" lon="6.84001">
        <ele>827.6</ele>
        <time>2022-05-26T08:56:32Z</time>
      </trkpt>
      <trkpt lat="47.99603" lon="6.84015">
        <ele>824.5</ele>
        <time>2022-05-26T08:56:40Z</time>
      </trkpt>
      <trkpt lat="47.99598" lon="6.84028">
        <ele>820.6</ele>
        <time>2022-05-26T08:56:43Z</time>
      </trkpt>
      <trkpt lat="47.99595" lon="6.84041">
        <ele>820.1</ele>
        <time>2022-05-26T08:56:45Z</time>
      </trkpt>
      <trkpt lat="47.99592" lon="6.84057">
        <ele>815.7</ele>
        <time>2022-05-26T08:56:47Z</time>
      </trkpt>
      <trkpt lat="47.99589" lon="6.84071">
        <ele>814.1</ele>
        <time>2022-05-26T08:56:49Z</time>
      </trkpt>
      <trkpt lat="47.996" lon="6.84073">
        <ele>814.7</ele>
        <time>2022-05-26T08:56:55Z</time>
      </trkpt>
      <trkpt lat="47.99605" lon="6.84071">
        <ele>814.5</ele>
        <time>2022-05-26T08:57:06Z</time>
      </trkpt>
      <trkpt lat="47.99605" lon="6.84072">
        <ele>814.3</ele>
        <time>2022-05-26T08:57:49Z</time>
      </trkpt>
      <trkpt lat="47.99596" lon="6.84084">
        <ele>812.3</ele>
        <time>2022-05-26T08:57:53Z</time>
      </trkpt>
      <trkpt lat="47.99587" lon="6.8409">
        <ele>812.1</ele>
        <time>2022-05-26T08:57:55Z</time>
      </trkpt>
      <trkpt lat="47.99577" lon="6.84095">
        <ele>812</ele>
        <time>2022-05-26T08:57:58Z</time>
      </trkpt>
      <trkpt lat="47.99568" lon="6.84103">
        <ele>811.7</ele>
        <time>2022-05-26T08:58:01Z</time>
      </trkpt>
      <trkpt lat="47.9956" lon="6.84117">
        <ele>810.1</ele>
        <time>2022-05-26T08:58:05Z</time>
      </trkpt>
      <trkpt lat="47.99554" lon="6.84132">
        <ele>808.9</ele>
        <time>2022-05-26T08:58:07Z</time>
      </trkpt>
      <trkpt lat="47.99545" lon="6.84146">
        <ele>806.3</ele>
        <time>2022-05-26T08:58:09Z</time>
      </trkpt>
      <trkpt lat="47.99535" lon="6.8416">
        <ele>804.2</ele>
        <time>2022-05-26T08:58:11Z</time>
      </trkpt>
      <trkpt lat="47.99525" lon="6.84172">
        <ele>804.6</ele>
        <time>2022-05-26T08:58:13Z</time>
      </trkpt>
      <trkpt lat="47.99516" lon="6.84183">
        <ele>803.8</ele>
        <time>2022-05-26T08:58:15Z</time>
      </trkpt>
      <trkpt lat="47.9951" lon="6.84193">
        <ele>801</ele>
        <time>2022-05-26T08:58:17Z</time>
      </trkpt>
      <trkpt lat="47.99503" lon="6.84204">
        <ele>798.9</ele>
        <time>2022-05-26T08:58:19Z</time>
      </trkpt>
      <trkpt lat="47.99496" lon="6.84218">
        <ele>794.7</ele>
        <time>2022-05-26T08:58:21Z</time>
      </trkpt>
      <trkpt lat="47.9949" lon="6.84233">
        <ele>793.8</ele>
        <time>2022-05-26T08:58:23Z</time>
      </trkpt>
      <trkpt lat="47.99484" lon="6.84247">
        <ele>793.8</ele>
        <time>2022-05-26T08:58:25Z</time>
      </trkpt>
      <trkpt lat="47.99476" lon="6.84257">
        <ele>788.5</ele>
        <time>2022-05-26T08:58:27Z</time>
      </trkpt>
      <trkpt lat="47.99466" lon="6.84265">
        <ele>787.1</ele>
        <time>2022-05-26T08:58:29Z</time>
      </trkpt>
      <trkpt lat="47.99456" lon="6.8427">
        <ele>787.3</ele>
        <time>2022-05-26T08:58:31Z</time>
      </trkpt>
      <trkpt lat="47.99445" lon="6.84274">
        <ele>784.4</ele>
        <time>2022-05-26T08:58:34Z</time>
      </trkpt>
      <trkpt lat="47.99436" lon="6.84277">
        <ele>783</ele>
        <time>2022-05-26T08:58:37Z</time>
      </trkpt>
      <trkpt lat="47.99427" lon="6.84279">
        <ele>781</ele>
        <time>2022-05-26T08:58:40Z</time>
      </trkpt>
      <trkpt lat="47.99415" lon="6.84276">
        <ele>777.6</ele>
        <time>2022-05-26T08:58:44Z</time>
      </trkpt>
      <trkpt lat="47.99404" lon="6.84272">
        <ele>774.4</ele>
        <time>2022-05-26T08:58:48Z</time>
      </trkpt>
      <trkpt lat="47.99395" lon="6.84269">
        <ele>773.3</ele>
        <time>2022-05-26T08:58:51Z</time>
      </trkpt>
      <trkpt lat="47.99386" lon="6.84266">
        <ele>767.7</ele>
        <time>2022-05-26T08:58:54Z</time>
      </trkpt>
      <trkpt lat="47.99376" lon="6.84258">
        <ele>767.3</ele>
        <time>2022-05-26T08:58:56Z</time>
      </trkpt>
      <trkpt lat="47.99367" lon="6.84247">
        <ele>765.7</ele>
        <time>2022-05-26T08:58:58Z</time>
      </trkpt>
      <trkpt lat="47.99358" lon="6.84235">
        <ele>765.2</ele>
        <time>2022-05-26T08:59:01Z</time>
      </trkpt>
      <trkpt lat="47.9935" lon="6.84229">
        <ele>763.3</ele>
        <time>2022-05-26T08:59:04Z</time>
      </trkpt>
      <trkpt lat="47.99343" lon="6.8422">
        <ele>762.7</ele>
        <time>2022-05-26T08:59:06Z</time>
      </trkpt>
      <trkpt lat="47.99335" lon="6.84213">
        <ele>760.3</ele>
        <time>2022-05-26T08:59:08Z</time>
      </trkpt>
      <trkpt lat="47.99337" lon="6.84228">
        <ele>759.2</ele>
        <time>2022-05-26T08:59:16Z</time>
      </trkpt>
      <trkpt lat="47.99339" lon="6.8423">
        <ele>759.1</ele>
        <time>2022-05-26T08:59:20Z</time>
      </trkpt>
      <trkpt lat="47.9934" lon="6.8423">
        <ele>759.1</ele>
        <time>2022-05-26T08:59:31Z</time>
      </trkpt>
      <trkpt lat="47.99344" lon="6.84243">
        <ele>757.9</ele>
        <time>2022-05-26T08:59:37Z</time>
      </trkpt>
      <trkpt lat="47.99349" lon="6.84256">
        <ele>756.6</ele>
        <time>2022-05-26T08:59:41Z</time>
      </trkpt>
      <trkpt lat="47.99355" lon="6.84268">
        <ele>759.5</ele>
        <time>2022-05-26T08:59:47Z</time>
      </trkpt>
      <trkpt lat="47.99363" lon="6.84283">
        <ele>759</ele>
        <time>2022-05-26T08:59:51Z</time>
      </trkpt>
      <trkpt lat="47.99368" lon="6.84302">
        <ele>756.6</ele>
        <time>2022-05-26T08:59:54Z</time>
      </trkpt>
      <trkpt lat="47.99375" lon="6.84321">
        <ele>754.5</ele>
        <time>2022-05-26T08:59:56Z</time>
      </trkpt>
      <trkpt lat="47.99385" lon="6.84339">
        <ele>753.3</ele>
        <time>2022-05-26T08:59:58Z</time>
      </trkpt>
      <trkpt lat="47.99387" lon="6.84358">
        <ele>751.4</ele>
        <time>2022-05-26T09:00:01Z</time>
      </trkpt>
      <trkpt lat="47.9938" lon="6.84375">
        <ele>746.7</ele>
        <time>2022-05-26T09:00:03Z</time>
      </trkpt>
      <trkpt lat="47.99373" lon="6.84395">
        <ele>746.4</ele>
        <time>2022-05-26T09:00:05Z</time>
      </trkpt>
      <trkpt lat="47.9937" lon="6.84417">
        <ele>745.1</ele>
        <time>2022-05-26T09:00:07Z</time>
      </trkpt>
      <trkpt lat="47.99366" lon="6.84437">
        <ele>744</ele>
        <time>2022-05-26T09:00:09Z</time>
      </trkpt>
      <trkpt lat="47.99364" lon="6.84452">
        <ele>743.8</ele>
        <time>2022-05-26T09:00:11Z</time>
      </trkpt>
      <trkpt lat="47.99371" lon="6.84467">
        <ele>741.8</ele>
        <time>2022-05-26T09:00:13Z</time>
      </trkpt>
      <trkpt lat="47.99382" lon="6.8448">
        <ele>739</ele>
        <time>2022-05-26T09:00:15Z</time>
      </trkpt>
      <trkpt lat="47.9939" lon="6.84489">
        <ele>737.4</ele>
        <time>2022-05-26T09:00:17Z</time>
      </trkpt>
      <trkpt lat="47.99393" lon="6.84495">
        <ele>736.4</ele>
        <time>2022-05-26T09:00:27Z</time>
      </trkpt>
      <trkpt lat="47.99393" lon="6.84494">
        <ele>736.7</ele>
        <time>2022-05-26T09:00:34Z</time>
      </trkpt>
      <trkpt lat="47.99384" lon="6.84491">
        <ele>735.2</ele>
        <time>2022-05-26T09:00:55Z</time>
      </trkpt>
      <trkpt lat="47.99377" lon="6.845">
        <ele>730.9</ele>
        <time>2022-05-26T09:01:11Z</time>
      </trkpt>
      <trkpt lat="47.99368" lon="6.845">
        <ele>730.4</ele>
        <time>2022-05-26T09:01:17Z</time>
      </trkpt>
      <trkpt lat="47.99358" lon="6.84499">
        <ele>727.9</ele>
        <time>2022-05-26T09:01:21Z</time>
      </trkpt>
      <trkpt lat="47.99348" lon="6.84499">
        <ele>725</ele>
        <time>2022-05-26T09:01:26Z</time>
      </trkpt>
      <trkpt lat="47.99339" lon="6.84494">
        <ele>722.2</ele>
        <time>2022-05-26T09:01:35Z</time>
      </trkpt>
      <trkpt lat="47.99331" lon="6.84489">
        <ele>720.1</ele>
        <time>2022-05-26T09:01:38Z</time>
      </trkpt>
      <trkpt lat="47.99325" lon="6.84501">
        <ele>717.9</ele>
        <time>2022-05-26T09:01:45Z</time>
      </trkpt>
      <trkpt lat="47.99331" lon="6.84517">
        <ele>713.3</ele>
        <time>2022-05-26T09:01:49Z</time>
      </trkpt>
      <trkpt lat="47.99339" lon="6.84525">
        <ele>712.7</ele>
        <time>2022-05-26T09:01:52Z</time>
      </trkpt>
      <trkpt lat="47.99348" lon="6.84532">
        <ele>712.7</ele>
        <time>2022-05-26T09:02:00Z</time>
      </trkpt>
      <trkpt lat="47.99347" lon="6.84543">
        <ele>709.4</ele>
        <time>2022-05-26T09:02:16Z</time>
      </trkpt>
      <trkpt lat="47.9935" lon="6.8455">
        <ele>708.2</ele>
        <time>2022-05-26T09:02:28Z</time>
      </trkpt>
      <trkpt lat="47.9935" lon="6.84549">
        <ele>707.5</ele>
        <time>2022-05-26T09:02:30Z</time>
      </trkpt>
      <trkpt lat="47.99341" lon="6.84553">
        <ele>703.4</ele>
        <time>2022-05-26T09:02:37Z</time>
      </trkpt>
      <trkpt lat="47.99331" lon="6.84545">
        <ele>700.7</ele>
        <time>2022-05-26T09:02:43Z</time>
      </trkpt>
      <trkpt lat="47.99322" lon="6.84536">
        <ele>697.3</ele>
        <time>2022-05-26T09:02:46Z</time>
      </trkpt>
      <trkpt lat="47.9931" lon="6.84529">
        <ele>695.1</ele>
        <time>2022-05-26T09:02:49Z</time>
      </trkpt>
      <trkpt lat="47.99303" lon="6.84521">
        <ele>694.9</ele>
        <time>2022-05-26T09:02:51Z</time>
      </trkpt>
      <trkpt lat="47.99295" lon="6.84512">
        <ele>695</ele>
        <time>2022-05-26T09:02:54Z</time>
      </trkpt>
      <trkpt lat="47.99294" lon="6.84527">
        <ele>693.1</ele>
        <time>2022-05-26T09:03:01Z</time>
      </trkpt>
      <trkpt lat="47.99297" lon="6.8454">
        <ele>689.7</ele>
        <time>2022-05-26T09:03:05Z</time>
      </trkpt>
      <trkpt lat="47.993" lon="6.84555">
        <ele>687.4</ele>
        <time>2022-05-26T09:03:10Z</time>
      </trkpt>
      <trkpt lat="47.993" lon="6.84571">
        <ele>684.8</ele>
        <time>2022-05-26T09:03:14Z</time>
      </trkpt>
      <trkpt lat="47.99298" lon="6.84589">
        <ele>684.5</ele>
        <time>2022-05-26T09:03:17Z</time>
      </trkpt>
      <trkpt lat="47.99298" lon="6.84603">
        <ele>682.1</ele>
        <time>2022-05-26T09:03:20Z</time>
      </trkpt>
      <trkpt lat="47.99297" lon="6.84622">
        <ele>679.6</ele>
        <time>2022-05-26T09:03:23Z</time>
      </trkpt>
      <trkpt lat="47.99302" lon="6.84638">
        <ele>679.1</ele>
        <time>2022-05-26T09:03:26Z</time>
      </trkpt>
      <trkpt lat="47.99305" lon="6.84653">
        <ele>674.6</ele>
        <time>2022-05-26T09:03:29Z</time>
      </trkpt>
      <trkpt lat="47.99304" lon="6.84667">
        <ele>673.4</ele>
        <time>2022-05-26T09:03:32Z</time>
      </trkpt>
      <trkpt lat="47.99303" lon="6.84683">
        <ele>671.8</ele>
        <time>2022-05-26T09:03:35Z</time>
      </trkpt>
      <trkpt lat="47.99304" lon="6.847">
        <ele>666.8</ele>
        <time>2022-05-26T09:03:37Z</time>
      </trkpt>
      <trkpt lat="47.99305" lon="6.84717">
        <ele>664.8</ele>
        <time>2022-05-26T09:03:39Z</time>
      </trkpt>
      <trkpt lat="47.99308" lon="6.8473">
        <ele>663.3</ele>
        <time>2022-05-26T09:03:41Z</time>
      </trkpt>
      <trkpt lat="47.99315" lon="6.84745">
        <ele>664.3</ele>
        <time>2022-05-26T09:03:44Z</time>
      </trkpt>
      <trkpt lat="47.99318" lon="6.84761">
        <ele>661.4</ele>
        <time>2022-05-26T09:03:47Z</time>
      </trkpt>
      <trkpt lat="47.99313" lon="6.84773">
        <ele>659.4</ele>
        <time>2022-05-26T09:03:52Z</time>
      </trkpt>
      <trkpt lat="47.99304" lon="6.8477">
        <ele>658.7</ele>
        <time>2022-05-26T09:03:54Z</time>
      </trkpt>
      <trkpt lat="47.99295" lon="6.84767">
        <ele>655.1</ele>
        <time>2022-05-26T09:03:56Z</time>
      </trkpt>
      <trkpt lat="47.99284" lon="6.84763">
        <ele>654</ele>
        <time>2022-05-26T09:03:59Z</time>
      </trkpt>
      <trkpt lat="47.99274" lon="6.84758">
        <ele>650.9</ele>
        <time>2022-05-26T09:04:02Z</time>
      </trkpt>
      <trkpt lat="47.99266" lon="6.84748">
        <ele>648.9</ele>
        <time>2022-05-26T09:04:04Z</time>
      </trkpt>
      <trkpt lat="47.99257" lon="6.84743">
        <ele>649.3</ele>
        <time>2022-05-26T09:04:07Z</time>
      </trkpt>
      <trkpt lat="47.99261" lon="6.8475">
        <ele>647.9</ele>
        <time>2022-05-26T09:04:17Z</time>
      </trkpt>
      <trkpt lat="47.99262" lon="6.8475">
        <ele>647.3</ele>
        <time>2022-05-26T09:04:22Z</time>
      </trkpt>
      <trkpt lat="47.99262" lon="6.84749">
        <ele>646.7</ele>
        <time>2022-05-26T09:05:39Z</time>
      </trkpt>
      <trkpt lat="47.99262" lon="6.8475">
        <ele>646.5</ele>
        <time>2022-05-26T09:09:27Z</time>
      </trkpt>
      <trkpt lat="47.99261" lon="6.8475">
        <ele>646.8</ele>
        <time>2022-05-26T09:10:46Z</time>
      </trkpt>
      <trkpt lat="47.9926" lon="6.84749">
        <ele>646.5</ele>
        <time>2022-05-26T09:10:51Z</time>
      </trkpt>
      <trkpt lat="47.9926" lon="6.84748">
        <ele>646.4</ele>
        <time>2022-05-26T09:10:52Z</time>
      </trkpt>
      <trkpt lat="47.9926" lon="6.84747">
        <ele>645.5</ele>
        <time>2022-05-26T09:14:39Z</time>
      </trkpt>
      <trkpt lat="47.9925" lon="6.84736">
        <ele>643.2</ele>
        <time>2022-05-26T09:14:44Z</time>
      </trkpt>
      <trkpt lat="47.99242" lon="6.84727">
        <ele>642</ele>
        <time>2022-05-26T09:14:46Z</time>
      </trkpt>
      <trkpt lat="47.99232" lon="6.84715">
        <ele>639.8</ele>
        <time>2022-05-26T09:14:48Z</time>
      </trkpt>
      <trkpt lat="47.9922" lon="6.84706">
        <ele>638.1</ele>
        <time>2022-05-26T09:14:50Z</time>
      </trkpt>
      <trkpt lat="47.99206" lon="6.84701">
        <ele>635.1</ele>
        <time>2022-05-26T09:14:52Z</time>
      </trkpt>
      <trkpt lat="47.99192" lon="6.84694">
        <ele>634.3</ele>
        <time>2022-05-26T09:14:54Z</time>
      </trkpt>
      <trkpt lat="47.99177" lon="6.84686">
        <ele>630.8</ele>
        <time>2022-05-26T09:14:56Z</time>
      </trkpt>
      <trkpt lat="47.99163" lon="6.8468">
        <ele>627.3</ele>
        <time>2022-05-26T09:14:58Z</time>
      </trkpt>
      <trkpt lat="47.99151" lon="6.84678">
        <ele>629.3</ele>
        <time>2022-05-26T09:15:01Z</time>
      </trkpt>
      <trkpt lat="47.99149" lon="6.84696">
        <ele>627.7</ele>
        <time>2022-05-26T09:15:04Z</time>
      </trkpt>
      <trkpt lat="47.9915" lon="6.84713">
        <ele>625.3</ele>
        <time>2022-05-26T09:15:06Z</time>
      </trkpt>
      <trkpt lat="47.99152" lon="6.84732">
        <ele>623</ele>
        <time>2022-05-26T09:15:08Z</time>
      </trkpt>
      <trkpt lat="47.99153" lon="6.84748">
        <ele>622.9</ele>
        <time>2022-05-26T09:15:10Z</time>
      </trkpt>
      <trkpt lat="47.99145" lon="6.84764">
        <ele>619.9</ele>
        <time>2022-05-26T09:15:13Z</time>
      </trkpt>
      <trkpt lat="47.99132" lon="6.84768">
        <ele>617.6</ele>
        <time>2022-05-26T09:15:15Z</time>
      </trkpt>
      <trkpt lat="47.99118" lon="6.84771">
        <ele>615.2</ele>
        <time>2022-05-26T09:15:17Z</time>
      </trkpt>
      <trkpt lat="47.99108" lon="6.84781">
        <ele>614.5</ele>
        <time>2022-05-26T09:15:19Z</time>
      </trkpt>
      <trkpt lat="47.99105" lon="6.84799">
        <ele>614</ele>
        <time>2022-05-26T09:15:21Z</time>
      </trkpt>
      <trkpt lat="47.99105" lon="6.84819">
        <ele>611.9</ele>
        <time>2022-05-26T09:15:23Z</time>
      </trkpt>
      <trkpt lat="47.99104" lon="6.84837">
        <ele>612.6</ele>
        <time>2022-05-26T09:15:25Z</time>
      </trkpt>
      <trkpt lat="47.99102" lon="6.84852">
        <ele>613.8</ele>
        <time>2022-05-26T09:15:27Z</time>
      </trkpt>
      <trkpt lat="47.99101" lon="6.84866">
        <ele>614.7</ele>
        <time>2022-05-26T09:15:29Z</time>
      </trkpt>
      <trkpt lat="47.99109" lon="6.8488">
        <ele>615.9</ele>
        <time>2022-05-26T09:15:32Z</time>
      </trkpt>
      <trkpt lat="47.99117" lon="6.84889">
        <ele>616.6</ele>
        <time>2022-05-26T09:15:35Z</time>
      </trkpt>
      <trkpt lat="47.99124" lon="6.849">
        <ele>618.4</ele>
        <time>2022-05-26T09:15:39Z</time>
      </trkpt>
      <trkpt lat="47.99127" lon="6.84914">
        <ele>619.1</ele>
        <time>2022-05-26T09:15:44Z</time>
      </trkpt>
      <trkpt lat="47.99135" lon="6.84922">
        <ele>619</ele>
        <time>2022-05-26T09:15:47Z</time>
      </trkpt>
      <trkpt lat="47.99142" lon="6.84931">
        <ele>619.1</ele>
        <time>2022-05-26T09:15:50Z</time>
      </trkpt>
      <trkpt lat="47.9914" lon="6.84948">
        <ele>619.7</ele>
        <time>2022-05-26T09:15:54Z</time>
      </trkpt>
      <trkpt lat="47.99141" lon="6.84964">
        <ele>621.4</ele>
        <time>2022-05-26T09:15:59Z</time>
      </trkpt>
      <trkpt lat="47.99145" lon="6.84978">
        <ele>623.6</ele>
        <time>2022-05-26T09:16:05Z</time>
      </trkpt>
      <trkpt lat="47.99147" lon="6.84992">
        <ele>625.5</ele>
        <time>2022-05-26T09:16:11Z</time>
      </trkpt>
      <trkpt lat="47.99151" lon="6.85005">
        <ele>627.3</ele>
        <time>2022-05-26T09:16:17Z</time>
      </trkpt>
      <trkpt lat="47.99154" lon="6.8502">
        <ele>628.8</ele>
        <time>2022-05-26T09:16:24Z</time>
      </trkpt>
      <trkpt lat="47.99158" lon="6.85032">
        <ele>630.4</ele>
        <time>2022-05-26T09:16:31Z</time>
      </trkpt>
      <trkpt lat="47.99162" lon="6.85046">
        <ele>632.2</ele>
        <time>2022-05-26T09:16:38Z</time>
      </trkpt>
      <trkpt lat="47.99165" lon="6.85058">
        <ele>633.9</ele>
        <time>2022-05-26T09:16:43Z</time>
      </trkpt>
      <trkpt lat="47.99169" lon="6.85071">
        <ele>635.9</ele>
        <time>2022-05-26T09:16:49Z</time>
      </trkpt>
      <trkpt lat="47.99162" lon="6.8508">
        <ele>637.5</ele>
        <time>2022-05-26T09:16:59Z</time>
      </trkpt>
      <trkpt lat="47.99153" lon="6.85077">
        <ele>639.6</ele>
        <time>2022-05-26T09:17:06Z</time>
      </trkpt>
      <trkpt lat="47.99144" lon="6.85069">
        <ele>640.8</ele>
        <time>2022-05-26T09:17:13Z</time>
      </trkpt>
      <trkpt lat="47.99136" lon="6.8506">
        <ele>641.7</ele>
        <time>2022-05-26T09:17:19Z</time>
      </trkpt>
      <trkpt lat="47.99128" lon="6.85052">
        <ele>642.9</ele>
        <time>2022-05-26T09:17:25Z</time>
      </trkpt>
      <trkpt lat="47.99119" lon="6.85046">
        <ele>644.3</ele>
        <time>2022-05-26T09:17:33Z</time>
      </trkpt>
      <trkpt lat="47.99111" lon="6.85038">
        <ele>646.6</ele>
        <time>2022-05-26T09:17:41Z</time>
      </trkpt>
      <trkpt lat="47.99103" lon="6.8503">
        <ele>647.5</ele>
        <time>2022-05-26T09:17:47Z</time>
      </trkpt>
      <trkpt lat="47.99096" lon="6.85021">
        <ele>648.3</ele>
        <time>2022-05-26T09:17:53Z</time>
      </trkpt>
      <trkpt lat="47.99088" lon="6.85011">
        <ele>650.5</ele>
        <time>2022-05-26T09:18:00Z</time>
      </trkpt>
      <trkpt lat="47.99078" lon="6.85006">
        <ele>651.5</ele>
        <time>2022-05-26T09:18:06Z</time>
      </trkpt>
      <trkpt lat="47.99069" lon="6.84999">
        <ele>652.6</ele>
        <time>2022-05-26T09:18:12Z</time>
      </trkpt>
      <trkpt lat="47.99061" lon="6.84991">
        <ele>653.5</ele>
        <time>2022-05-26T09:18:18Z</time>
      </trkpt>
      <trkpt lat="47.99052" lon="6.84983">
        <ele>654.8</ele>
        <time>2022-05-26T09:18:24Z</time>
      </trkpt>
      <trkpt lat="47.99043" lon="6.84975">
        <ele>656.9</ele>
        <time>2022-05-26T09:18:31Z</time>
      </trkpt>
      <trkpt lat="47.99034" lon="6.84967">
        <ele>658.8</ele>
        <time>2022-05-26T09:18:38Z</time>
      </trkpt>
      <trkpt lat="47.99026" lon="6.84962">
        <ele>659.4</ele>
        <time>2022-05-26T09:18:44Z</time>
      </trkpt>
      <trkpt lat="47.99017" lon="6.84956">
        <ele>661.2</ele>
        <time>2022-05-26T09:18:50Z</time>
      </trkpt>
      <trkpt lat="47.99008" lon="6.84953">
        <ele>663.1</ele>
        <time>2022-05-26T09:18:58Z</time>
      </trkpt>
      <trkpt lat="47.98998" lon="6.84951">
        <ele>664.3</ele>
        <time>2022-05-26T09:19:05Z</time>
      </trkpt>
      <trkpt lat="47.98988" lon="6.84949">
        <ele>666.6</ele>
        <time>2022-05-26T09:19:13Z</time>
      </trkpt>
      <trkpt lat="47.98988" lon="6.84964">
        <ele>669.5</ele>
        <time>2022-05-26T09:19:24Z</time>
      </trkpt>
      <trkpt lat="47.98992" lon="6.84976">
        <ele>671.2</ele>
        <time>2022-05-26T09:19:32Z</time>
      </trkpt>
      <trkpt lat="47.98997" lon="6.84988">
        <ele>671.9</ele>
        <time>2022-05-26T09:19:39Z</time>
      </trkpt>
      <trkpt lat="47.99003" lon="6.85">
        <ele>674</ele>
        <time>2022-05-26T09:19:47Z</time>
      </trkpt>
      <trkpt lat="47.99009" lon="6.85012">
        <ele>675.7</ele>
        <time>2022-05-26T09:19:54Z</time>
      </trkpt>
      <trkpt lat="47.99016" lon="6.85022">
        <ele>677</ele>
        <time>2022-05-26T09:20:01Z</time>
      </trkpt>
      <trkpt lat="47.99021" lon="6.85034">
        <ele>678</ele>
        <time>2022-05-26T09:20:08Z</time>
      </trkpt>
      <trkpt lat="47.99026" lon="6.85046">
        <ele>679.4</ele>
        <time>2022-05-26T09:20:13Z</time>
      </trkpt>
      <trkpt lat="47.99031" lon="6.85058">
        <ele>681.7</ele>
        <time>2022-05-26T09:20:20Z</time>
      </trkpt>
      <trkpt lat="47.99035" lon="6.8507">
        <ele>683.5</ele>
        <time>2022-05-26T09:20:28Z</time>
      </trkpt>
      <trkpt lat="47.99039" lon="6.85084">
        <ele>684.6</ele>
        <time>2022-05-26T09:20:35Z</time>
      </trkpt>
      <trkpt lat="47.99044" lon="6.85097">
        <ele>686.4</ele>
        <time>2022-05-26T09:20:43Z</time>
      </trkpt>
      <trkpt lat="47.99049" lon="6.85109">
        <ele>688.3</ele>
        <time>2022-05-26T09:20:50Z</time>
      </trkpt>
      <trkpt lat="47.99054" lon="6.85122">
        <ele>690.1</ele>
        <time>2022-05-26T09:20:58Z</time>
      </trkpt>
      <trkpt lat="47.99059" lon="6.85128">
        <ele>690</ele>
        <time>2022-05-26T09:21:04Z</time>
      </trkpt>
      <trkpt lat="47.99061" lon="6.85132">
        <ele>690</ele>
        <time>2022-05-26T09:21:10Z</time>
      </trkpt>
      <trkpt lat="47.99064" lon="6.85141">
        <ele>691.7</ele>
        <time>2022-05-26T09:21:24Z</time>
      </trkpt>
      <trkpt lat="47.9907" lon="6.85153">
        <ele>693.2</ele>
        <time>2022-05-26T09:21:38Z</time>
      </trkpt>
      <trkpt lat="47.99075" lon="6.85165">
        <ele>695.4</ele>
        <time>2022-05-26T09:21:49Z</time>
      </trkpt>
      <trkpt lat="47.9908" lon="6.85177">
        <ele>698</ele>
        <time>2022-05-26T09:22:00Z</time>
      </trkpt>
      <trkpt lat="47.99083" lon="6.8519">
        <ele>699.5</ele>
        <time>2022-05-26T09:22:11Z</time>
      </trkpt>
      <trkpt lat="47.9909" lon="6.85199">
        <ele>700.7</ele>
        <time>2022-05-26T09:22:24Z</time>
      </trkpt>
      <trkpt lat="47.99092" lon="6.85213">
        <ele>701.1</ele>
        <time>2022-05-26T09:22:34Z</time>
      </trkpt>
      <trkpt lat="47.99094" lon="6.85227">
        <ele>702.7</ele>
        <time>2022-05-26T09:22:40Z</time>
      </trkpt>
      <trkpt lat="47.99098" lon="6.8524">
        <ele>704.7</ele>
        <time>2022-05-26T09:22:46Z</time>
      </trkpt>
      <trkpt lat="47.99102" lon="6.85253">
        <ele>706.4</ele>
        <time>2022-05-26T09:22:53Z</time>
      </trkpt>
      <trkpt lat="47.99104" lon="6.85266">
        <ele>707.5</ele>
        <time>2022-05-26T09:23:00Z</time>
      </trkpt>
      <trkpt lat="47.99108" lon="6.85281">
        <ele>710</ele>
        <time>2022-05-26T09:23:08Z</time>
      </trkpt>
      <trkpt lat="47.9911" lon="6.85296">
        <ele>711.3</ele>
        <time>2022-05-26T09:23:15Z</time>
      </trkpt>
      <trkpt lat="47.99115" lon="6.8531">
        <ele>713.2</ele>
        <time>2022-05-26T09:23:23Z</time>
      </trkpt>
      <trkpt lat="47.99116" lon="6.85324">
        <ele>714.6</ele>
        <time>2022-05-26T09:23:31Z</time>
      </trkpt>
      <trkpt lat="47.9912" lon="6.85338">
        <ele>716.8</ele>
        <time>2022-05-26T09:23:43Z</time>
      </trkpt>
      <trkpt lat="47.99121" lon="6.85353">
        <ele>718.6</ele>
        <time>2022-05-26T09:23:50Z</time>
      </trkpt>
      <trkpt lat="47.99122" lon="6.85368">
        <ele>719.7</ele>
        <time>2022-05-26T09:23:56Z</time>
      </trkpt>
      <trkpt lat="47.99127" lon="6.85381">
        <ele>721.3</ele>
        <time>2022-05-26T09:24:04Z</time>
      </trkpt>
      <trkpt lat="47.99129" lon="6.85396">
        <ele>722.8</ele>
        <time>2022-05-26T09:24:13Z</time>
      </trkpt>
      <trkpt lat="47.99132" lon="6.85409">
        <ele>724.9</ele>
        <time>2022-05-26T09:24:27Z</time>
      </trkpt>
      <trkpt lat="47.99138" lon="6.85421">
        <ele>727.8</ele>
        <time>2022-05-26T09:24:45Z</time>
      </trkpt>
      <trkpt lat="47.99139" lon="6.85434">
        <ele>729.6</ele>
        <time>2022-05-26T09:24:57Z</time>
      </trkpt>
      <trkpt lat="47.9914" lon="6.85448">
        <ele>732.3</ele>
        <time>2022-05-26T09:25:11Z</time>
      </trkpt>
      <trkpt lat="47.9914" lon="6.85462">
        <ele>734.1</ele>
        <time>2022-05-26T09:25:21Z</time>
      </trkpt>
      <trkpt lat="47.9914" lon="6.85477">
        <ele>736.1</ele>
        <time>2022-05-26T09:25:31Z</time>
      </trkpt>
      <trkpt lat="47.9914" lon="6.85491">
        <ele>737.9</ele>
        <time>2022-05-26T09:25:43Z</time>
      </trkpt>
      <trkpt lat="47.99141" lon="6.85496">
        <ele>738.7</ele>
        <time>2022-05-26T09:25:50Z</time>
      </trkpt>
      <trkpt lat="47.99142" lon="6.85496">
        <ele>738.8</ele>
        <time>2022-05-26T09:25:59Z</time>
      </trkpt>
      <trkpt lat="47.99141" lon="6.85497">
        <ele>738.8</ele>
        <time>2022-05-26T09:26:01Z</time>
      </trkpt>
      <trkpt lat="47.99141" lon="6.85498">
        <ele>739.1</ele>
        <time>2022-05-26T09:26:14Z</time>
      </trkpt>
      <trkpt lat="47.9914" lon="6.85511">
        <ele>742.5</ele>
        <time>2022-05-26T09:26:33Z</time>
      </trkpt>
      <trkpt lat="47.99139" lon="6.85523">
        <ele>745.7</ele>
        <time>2022-05-26T09:26:49Z</time>
      </trkpt>
      <trkpt lat="47.99136" lon="6.85538">
        <ele>748</ele>
        <time>2022-05-26T09:27:01Z</time>
      </trkpt>
      <trkpt lat="47.99133" lon="6.85552">
        <ele>748.5</ele>
        <time>2022-05-26T09:27:09Z</time>
      </trkpt>
      <trkpt lat="47.99134" lon="6.85561">
        <ele>750.2</ele>
        <time>2022-05-26T09:27:19Z</time>
      </trkpt>
      <trkpt lat="47.99134" lon="6.85566">
        <ele>752.2</ele>
        <time>2022-05-26T09:27:31Z</time>
      </trkpt>
      <trkpt lat="47.99132" lon="6.8557">
        <ele>754.8</ele>
        <time>2022-05-26T09:27:47Z</time>
      </trkpt>
      <trkpt lat="47.99131" lon="6.8557">
        <ele>755.1</ele>
        <time>2022-05-26T09:27:48Z</time>
      </trkpt>
      <trkpt lat="47.99128" lon="6.85583">
        <ele>757.4</ele>
        <time>2022-05-26T09:28:05Z</time>
      </trkpt>
      <trkpt lat="47.99126" lon="6.85585">
        <ele>758.4</ele>
        <time>2022-05-26T09:28:12Z</time>
      </trkpt>
      <trkpt lat="47.99127" lon="6.85585">
        <ele>758.3</ele>
        <time>2022-05-26T09:28:19Z</time>
      </trkpt>
      <trkpt lat="47.99126" lon="6.85586">
        <ele>758.5</ele>
        <time>2022-05-26T09:28:21Z</time>
      </trkpt>
      <trkpt lat="47.99124" lon="6.85589">
        <ele>759.1</ele>
        <time>2022-05-26T09:28:27Z</time>
      </trkpt>
      <trkpt lat="47.99125" lon="6.8559">
        <ele>759.6</ele>
        <time>2022-05-26T09:28:34Z</time>
      </trkpt>
      <trkpt lat="47.99125" lon="6.85591">
        <ele>759.9</ele>
        <time>2022-05-26T09:28:35Z</time>
      </trkpt>
      <trkpt lat="47.99121" lon="6.85604">
        <ele>762.6</ele>
        <time>2022-05-26T09:28:50Z</time>
      </trkpt>
      <trkpt lat="47.99117" lon="6.85619">
        <ele>765.2</ele>
        <time>2022-05-26T09:29:04Z</time>
      </trkpt>
      <trkpt lat="47.99114" lon="6.85631">
        <ele>767.4</ele>
        <time>2022-05-26T09:29:18Z</time>
      </trkpt>
      <trkpt lat="47.99113" lon="6.85645">
        <ele>770.2</ele>
        <time>2022-05-26T09:29:32Z</time>
      </trkpt>
      <trkpt lat="47.99113" lon="6.85659">
        <ele>773.4</ele>
        <time>2022-05-26T09:29:51Z</time>
      </trkpt>
      <trkpt lat="47.99113" lon="6.8566">
        <ele>773.7</ele>
        <time>2022-05-26T09:29:52Z</time>
      </trkpt>
      <trkpt lat="47.99113" lon="6.85673">
        <ele>775.6</ele>
        <time>2022-05-26T09:30:06Z</time>
      </trkpt>
      <trkpt lat="47.99107" lon="6.85683">
        <ele>777.9</ele>
        <time>2022-05-26T09:30:18Z</time>
      </trkpt>
      <trkpt lat="47.99107" lon="6.85697">
        <ele>780.2</ele>
        <time>2022-05-26T09:30:31Z</time>
      </trkpt>
      <trkpt lat="47.99108" lon="6.85711">
        <ele>782.6</ele>
        <time>2022-05-26T09:30:46Z</time>
      </trkpt>
      <trkpt lat="47.99107" lon="6.85724">
        <ele>784.2</ele>
        <time>2022-05-26T09:30:58Z</time>
      </trkpt>
      <trkpt lat="47.99108" lon="6.85733">
        <ele>785.4</ele>
        <time>2022-05-26T09:31:09Z</time>
      </trkpt>
      <trkpt lat="47.99109" lon="6.85748">
        <ele>786.7</ele>
        <time>2022-05-26T09:31:21Z</time>
      </trkpt>
      <trkpt lat="47.99109" lon="6.85762">
        <ele>789</ele>
        <time>2022-05-26T09:31:28Z</time>
      </trkpt>
      <trkpt lat="47.99108" lon="6.85776">
        <ele>789.6</ele>
        <time>2022-05-26T09:31:34Z</time>
      </trkpt>
      <trkpt lat="47.99112" lon="6.85791">
        <ele>791</ele>
        <time>2022-05-26T09:31:40Z</time>
      </trkpt>
      <trkpt lat="47.99114" lon="6.85805">
        <ele>792.8</ele>
        <time>2022-05-26T09:31:47Z</time>
      </trkpt>
      <trkpt lat="47.99112" lon="6.85811">
        <ele>793.5</ele>
        <time>2022-05-26T09:31:55Z</time>
      </trkpt>
      <trkpt lat="47.99112" lon="6.8581">
        <ele>793.8</ele>
        <time>2022-05-26T09:31:57Z</time>
      </trkpt>
      <trkpt lat="47.99111" lon="6.8581">
        <ele>793.7</ele>
        <time>2022-05-26T09:31:59Z</time>
      </trkpt>
      <trkpt lat="47.99112" lon="6.8581">
        <ele>793.6</ele>
        <time>2022-05-26T09:32:44Z</time>
      </trkpt>
      <trkpt lat="47.99106" lon="6.85799">
        <ele>795.3</ele>
        <time>2022-05-26T09:33:16Z</time>
      </trkpt>
      <trkpt lat="47.99101" lon="6.85787">
        <ele>797</ele>
        <time>2022-05-26T09:33:24Z</time>
      </trkpt>
      <trkpt lat="47.99096" lon="6.85774">
        <ele>798.1</ele>
        <time>2022-05-26T09:33:32Z</time>
      </trkpt>
      <trkpt lat="47.99092" lon="6.85762">
        <ele>800.5</ele>
        <time>2022-05-26T09:33:39Z</time>
      </trkpt>
      <trkpt lat="47.99085" lon="6.85753">
        <ele>801.6</ele>
        <time>2022-05-26T09:33:45Z</time>
      </trkpt>
      <trkpt lat="47.9908" lon="6.85741">
        <ele>803.5</ele>
        <time>2022-05-26T09:33:53Z</time>
      </trkpt>
      <trkpt lat="47.99075" lon="6.85729">
        <ele>804.8</ele>
        <time>2022-05-26T09:34:00Z</time>
      </trkpt>
      <trkpt lat="47.99071" lon="6.85716">
        <ele>806.4</ele>
        <time>2022-05-26T09:34:07Z</time>
      </trkpt>
      <trkpt lat="47.99067" lon="6.85703">
        <ele>807.1</ele>
        <time>2022-05-26T09:34:13Z</time>
      </trkpt>
      <trkpt lat="47.99063" lon="6.8569">
        <ele>808.2</ele>
        <time>2022-05-26T09:34:19Z</time>
      </trkpt>
      <trkpt lat="47.99059" lon="6.85678">
        <ele>808.5</ele>
        <time>2022-05-26T09:34:25Z</time>
      </trkpt>
      <trkpt lat="47.99054" lon="6.85665">
        <ele>809.8</ele>
        <time>2022-05-26T09:34:31Z</time>
      </trkpt>
      <trkpt lat="47.9905" lon="6.85651">
        <ele>812.5</ele>
        <time>2022-05-26T09:34:38Z</time>
      </trkpt>
      <trkpt lat="47.99046" lon="6.85639">
        <ele>814.3</ele>
        <time>2022-05-26T09:34:45Z</time>
      </trkpt>
      <trkpt lat="47.99043" lon="6.85625">
        <ele>815.7</ele>
        <time>2022-05-26T09:34:53Z</time>
      </trkpt>
      <trkpt lat="47.99041" lon="6.8561">
        <ele>816</ele>
        <time>2022-05-26T09:35:01Z</time>
      </trkpt>
      <trkpt lat="47.99037" lon="6.85598">
        <ele>819</ele>
        <time>2022-05-26T09:35:08Z</time>
      </trkpt>
      <trkpt lat="47.99033" lon="6.85585">
        <ele>820.2</ele>
        <time>2022-05-26T09:35:14Z</time>
      </trkpt>
      <trkpt lat="47.99029" lon="6.85572">
        <ele>821.5</ele>
        <time>2022-05-26T09:35:20Z</time>
      </trkpt>
      <trkpt lat="47.99025" lon="6.85559">
        <ele>823.7</ele>
        <time>2022-05-26T09:35:28Z</time>
      </trkpt>
      <trkpt lat="47.9902" lon="6.85546">
        <ele>824.4</ele>
        <time>2022-05-26T09:35:34Z</time>
      </trkpt>
      <trkpt lat="47.99015" lon="6.85534">
        <ele>825.4</ele>
        <time>2022-05-26T09:35:39Z</time>
      </trkpt>
      <trkpt lat="47.99008" lon="6.85525">
        <ele>825.4</ele>
        <time>2022-05-26T09:35:44Z</time>
      </trkpt>
      <trkpt lat="47.99002" lon="6.85513">
        <ele>825.7</ele>
        <time>2022-05-26T09:35:49Z</time>
      </trkpt>
      <trkpt lat="47.98995" lon="6.85499">
        <ele>826</ele>
        <time>2022-05-26T09:35:53Z</time>
      </trkpt>
      <trkpt lat="47.98988" lon="6.85487">
        <ele>827.2</ele>
        <time>2022-05-26T09:35:57Z</time>
      </trkpt>
      <trkpt lat="47.98981" lon="6.85478">
        <ele>828.9</ele>
        <time>2022-05-26T09:36:02Z</time>
      </trkpt>
      <trkpt lat="47.98973" lon="6.8547">
        <ele>830.7</ele>
        <time>2022-05-26T09:36:10Z</time>
      </trkpt>
      <trkpt lat="47.98964" lon="6.85463">
        <ele>831.7</ele>
        <time>2022-05-26T09:36:16Z</time>
      </trkpt>
      <trkpt lat="47.98954" lon="6.85458">
        <ele>833.7</ele>
        <time>2022-05-26T09:36:24Z</time>
      </trkpt>
      <trkpt lat="47.98946" lon="6.85452">
        <ele>835.8</ele>
        <time>2022-05-26T09:36:31Z</time>
      </trkpt>
      <trkpt lat="47.98937" lon="6.85445">
        <ele>837.3</ele>
        <time>2022-05-26T09:36:40Z</time>
      </trkpt>
      <trkpt lat="47.98928" lon="6.85441">
        <ele>840.5</ele>
        <time>2022-05-26T09:36:48Z</time>
      </trkpt>
      <trkpt lat="47.98918" lon="6.85437">
        <ele>842.4</ele>
        <time>2022-05-26T09:36:57Z</time>
      </trkpt>
      <trkpt lat="47.98909" lon="6.85433">
        <ele>843.9</ele>
        <time>2022-05-26T09:37:06Z</time>
      </trkpt>
      <trkpt lat="47.989" lon="6.85429">
        <ele>845.6</ele>
        <time>2022-05-26T09:37:14Z</time>
      </trkpt>
      <trkpt lat="47.9889" lon="6.85424">
        <ele>846.4</ele>
        <time>2022-05-26T09:37:21Z</time>
      </trkpt>
      <trkpt lat="47.98881" lon="6.85419">
        <ele>847.3</ele>
        <time>2022-05-26T09:37:28Z</time>
      </trkpt>
      <trkpt lat="47.98872" lon="6.85413">
        <ele>848.6</ele>
        <time>2022-05-26T09:37:35Z</time>
      </trkpt>
      <trkpt lat="47.98862" lon="6.85408">
        <ele>850.2</ele>
        <time>2022-05-26T09:37:42Z</time>
      </trkpt>
      <trkpt lat="47.98853" lon="6.85403">
        <ele>852.5</ele>
        <time>2022-05-26T09:37:50Z</time>
      </trkpt>
      <trkpt lat="47.98843" lon="6.85399">
        <ele>854</ele>
        <time>2022-05-26T09:37:57Z</time>
      </trkpt>
      <trkpt lat="47.98834" lon="6.85394">
        <ele>855.7</ele>
        <time>2022-05-26T09:38:05Z</time>
      </trkpt>
      <trkpt lat="47.98825" lon="6.85388">
        <ele>857.5</ele>
        <time>2022-05-26T09:38:13Z</time>
      </trkpt>
      <trkpt lat="47.98816" lon="6.85384">
        <ele>859</ele>
        <time>2022-05-26T09:38:20Z</time>
      </trkpt>
      <trkpt lat="47.98807" lon="6.85382">
        <ele>860.5</ele>
        <time>2022-05-26T09:38:27Z</time>
      </trkpt>
      <trkpt lat="47.98797" lon="6.85379">
        <ele>861.7</ele>
        <time>2022-05-26T09:38:34Z</time>
      </trkpt>
      <trkpt lat="47.98788" lon="6.85376">
        <ele>862.8</ele>
        <time>2022-05-26T09:38:41Z</time>
      </trkpt>
      <trkpt lat="47.98779" lon="6.85373">
        <ele>864.5</ele>
        <time>2022-05-26T09:38:47Z</time>
      </trkpt>
      <trkpt lat="47.98769" lon="6.85369">
        <ele>864.8</ele>
        <time>2022-05-26T09:38:52Z</time>
      </trkpt>
      <trkpt lat="47.98761" lon="6.85366">
        <ele>865.4</ele>
        <time>2022-05-26T09:38:57Z</time>
      </trkpt>
      <trkpt lat="47.98751" lon="6.85363">
        <ele>866</ele>
        <time>2022-05-26T09:39:02Z</time>
      </trkpt>
      <trkpt lat="47.98741" lon="6.85359">
        <ele>867.2</ele>
        <time>2022-05-26T09:39:08Z</time>
      </trkpt>
      <trkpt lat="47.98732" lon="6.85357">
        <ele>867.2</ele>
        <time>2022-05-26T09:39:14Z</time>
      </trkpt>
      <trkpt lat="47.98723" lon="6.85358">
        <ele>867.9</ele>
        <time>2022-05-26T09:39:25Z</time>
      </trkpt>
      <trkpt lat="47.98722" lon="6.85358">
        <ele>865.7</ele>
        <time>2022-05-26T09:41:58Z</time>
      </trkpt>
      <trkpt lat="47.98712" lon="6.85357">
        <ele>865.5</ele>
        <time>2022-05-26T09:42:13Z</time>
      </trkpt>
      <trkpt lat="47.98702" lon="6.85352">
        <ele>864.8</ele>
        <time>2022-05-26T09:42:18Z</time>
      </trkpt>
      <trkpt lat="47.98691" lon="6.85349">
        <ele>866.3</ele>
        <time>2022-05-26T09:42:22Z</time>
      </trkpt>
      <trkpt lat="47.98681" lon="6.85348">
        <ele>866.1</ele>
        <time>2022-05-26T09:42:26Z</time>
      </trkpt>
      <trkpt lat="47.98671" lon="6.85348">
        <ele>866.8</ele>
        <time>2022-05-26T09:42:31Z</time>
      </trkpt>
      <trkpt lat="47.98662" lon="6.8535">
        <ele>868.3</ele>
        <time>2022-05-26T09:42:36Z</time>
      </trkpt>
      <trkpt lat="47.98652" lon="6.85351">
        <ele>869</ele>
        <time>2022-05-26T09:42:42Z</time>
      </trkpt>
      <trkpt lat="47.98642" lon="6.85352">
        <ele>870</ele>
        <time>2022-05-26T09:42:48Z</time>
      </trkpt>
      <trkpt lat="47.98633" lon="6.85355">
        <ele>871</ele>
        <time>2022-05-26T09:42:53Z</time>
      </trkpt>
      <trkpt lat="47.98624" lon="6.85356">
        <ele>871.9</ele>
        <time>2022-05-26T09:42:58Z</time>
      </trkpt>
      <trkpt lat="47.98614" lon="6.85359">
        <ele>872.2</ele>
        <time>2022-05-26T09:43:03Z</time>
      </trkpt>
      <trkpt lat="47.98603" lon="6.85361">
        <ele>872.8</ele>
        <time>2022-05-26T09:43:09Z</time>
      </trkpt>
      <trkpt lat="47.98594" lon="6.85361">
        <ele>872.7</ele>
        <time>2022-05-26T09:43:14Z</time>
      </trkpt>
      <trkpt lat="47.98583" lon="6.85361">
        <ele>872.5</ele>
        <time>2022-05-26T09:43:19Z</time>
      </trkpt>
      <trkpt lat="47.98572" lon="6.85364">
        <ele>871.9</ele>
        <time>2022-05-26T09:43:24Z</time>
      </trkpt>
      <trkpt lat="47.98562" lon="6.8537">
        <ele>872.3</ele>
        <time>2022-05-26T09:43:29Z</time>
      </trkpt>
      <trkpt lat="47.98554" lon="6.85376">
        <ele>872.6</ele>
        <time>2022-05-26T09:43:33Z</time>
      </trkpt>
      <trkpt lat="47.98546" lon="6.85385">
        <ele>872.1</ele>
        <time>2022-05-26T09:43:37Z</time>
      </trkpt>
      <trkpt lat="47.98539" lon="6.85395">
        <ele>872.3</ele>
        <time>2022-05-26T09:43:41Z</time>
      </trkpt>
      <trkpt lat="47.98531" lon="6.85407">
        <ele>873.1</ele>
        <time>2022-05-26T09:43:46Z</time>
      </trkpt>
      <trkpt lat="47.98525" lon="6.8542">
        <ele>873.3</ele>
        <time>2022-05-26T09:43:51Z</time>
      </trkpt>
      <trkpt lat="47.9852" lon="6.85434">
        <ele>873.8</ele>
        <time>2022-05-26T09:43:56Z</time>
      </trkpt>
      <trkpt lat="47.98517" lon="6.85447">
        <ele>874</ele>
        <time>2022-05-26T09:44:02Z</time>
      </trkpt>
      <trkpt lat="47.98515" lon="6.85462">
        <ele>874.8</ele>
        <time>2022-05-26T09:44:07Z</time>
      </trkpt>
      <trkpt lat="47.98514" lon="6.85476">
        <ele>874.7</ele>
        <time>2022-05-26T09:44:12Z</time>
      </trkpt>
      <trkpt lat="47.98512" lon="6.85489">
        <ele>875.3</ele>
        <time>2022-05-26T09:44:17Z</time>
      </trkpt>
      <trkpt lat="47.98512" lon="6.85505">
        <ele>876.4</ele>
        <time>2022-05-26T09:44:24Z</time>
      </trkpt>
      <trkpt lat="47.98511" lon="6.85519">
        <ele>877.4</ele>
        <time>2022-05-26T09:44:30Z</time>
      </trkpt>
      <trkpt lat="47.98512" lon="6.85533">
        <ele>878.3</ele>
        <time>2022-05-26T09:44:36Z</time>
      </trkpt>
      <trkpt lat="47.98512" lon="6.85547">
        <ele>878.9</ele>
        <time>2022-05-26T09:44:44Z</time>
      </trkpt>
      <trkpt lat="47.98512" lon="6.85562">
        <ele>880.4</ele>
        <time>2022-05-26T09:44:53Z</time>
      </trkpt>
      <trkpt lat="47.98511" lon="6.85577">
        <ele>881.7</ele>
        <time>2022-05-26T09:45:00Z</time>
      </trkpt>
      <trkpt lat="47.98511" lon="6.85592">
        <ele>883.3</ele>
        <time>2022-05-26T09:45:07Z</time>
      </trkpt>
      <trkpt lat="47.98511" lon="6.85606">
        <ele>885.4</ele>
        <time>2022-05-26T09:45:16Z</time>
      </trkpt>
      <trkpt lat="47.9851" lon="6.8562">
        <ele>886.7</ele>
        <time>2022-05-26T09:45:25Z</time>
      </trkpt>
      <trkpt lat="47.9851" lon="6.85634">
        <ele>887.3</ele>
        <time>2022-05-26T09:45:33Z</time>
      </trkpt>
      <trkpt lat="47.98506" lon="6.85647">
        <ele>889</ele>
        <time>2022-05-26T09:45:41Z</time>
      </trkpt>
      <trkpt lat="47.98504" lon="6.85662">
        <ele>890.5</ele>
        <time>2022-05-26T09:45:49Z</time>
      </trkpt>
      <trkpt lat="47.98509" lon="6.85675">
        <ele>891.9</ele>
        <time>2022-05-26T09:45:55Z</time>
      </trkpt>
      <trkpt lat="47.98517" lon="6.85683">
        <ele>892.6</ele>
        <time>2022-05-26T09:46:02Z</time>
      </trkpt>
      <trkpt lat="47.98519" lon="6.85696">
        <ele>894.2</ele>
        <time>2022-05-26T09:46:08Z</time>
      </trkpt>
      <trkpt lat="47.9852" lon="6.8571">
        <ele>895.4</ele>
        <time>2022-05-26T09:46:14Z</time>
      </trkpt>
      <trkpt lat="47.98522" lon="6.85724">
        <ele>897.2</ele>
        <time>2022-05-26T09:46:23Z</time>
      </trkpt>
      <trkpt lat="47.98514" lon="6.85733">
        <ele>897.4</ele>
        <time>2022-05-26T09:46:30Z</time>
      </trkpt>
      <trkpt lat="47.98505" lon="6.8574">
        <ele>898.5</ele>
        <time>2022-05-26T09:46:36Z</time>
      </trkpt>
      <trkpt lat="47.98497" lon="6.85747">
        <ele>899.6</ele>
        <time>2022-05-26T09:46:41Z</time>
      </trkpt>
      <trkpt lat="47.98488" lon="6.85751">
        <ele>899.7</ele>
        <time>2022-05-26T09:46:47Z</time>
      </trkpt>
      <trkpt lat="47.98478" lon="6.85757">
        <ele>900.7</ele>
        <time>2022-05-26T09:46:54Z</time>
      </trkpt>
      <trkpt lat="47.9847" lon="6.85761">
        <ele>901</ele>
        <time>2022-05-26T09:47:00Z</time>
      </trkpt>
      <trkpt lat="47.98459" lon="6.85761">
        <ele>901.6</ele>
        <time>2022-05-26T09:47:07Z</time>
      </trkpt>
      <trkpt lat="47.9845" lon="6.8576">
        <ele>902.3</ele>
        <time>2022-05-26T09:47:14Z</time>
      </trkpt>
      <trkpt lat="47.98441" lon="6.85758">
        <ele>903.8</ele>
        <time>2022-05-26T09:47:20Z</time>
      </trkpt>
      <trkpt lat="47.98432" lon="6.85754">
        <ele>904.1</ele>
        <time>2022-05-26T09:47:26Z</time>
      </trkpt>
      <trkpt lat="47.98423" lon="6.85748">
        <ele>904.9</ele>
        <time>2022-05-26T09:47:31Z</time>
      </trkpt>
      <trkpt lat="47.98415" lon="6.85739">
        <ele>904.9</ele>
        <time>2022-05-26T09:47:36Z</time>
      </trkpt>
      <trkpt lat="47.98406" lon="6.8573">
        <ele>905.7</ele>
        <time>2022-05-26T09:47:42Z</time>
      </trkpt>
      <trkpt lat="47.984" lon="6.85718">
        <ele>906</ele>
        <time>2022-05-26T09:47:49Z</time>
      </trkpt>
      <trkpt lat="47.9839" lon="6.85712">
        <ele>906.7</ele>
        <time>2022-05-26T09:47:55Z</time>
      </trkpt>
      <trkpt lat="47.98385" lon="6.85723">
        <ele>909.6</ele>
        <time>2022-05-26T09:48:02Z</time>
      </trkpt>
      <trkpt lat="47.98387" lon="6.85737">
        <ele>910</ele>
        <time>2022-05-26T09:48:08Z</time>
      </trkpt>
      <trkpt lat="47.98389" lon="6.85751">
        <ele>910.7</ele>
        <time>2022-05-26T09:48:13Z</time>
      </trkpt>
      <trkpt lat="47.98392" lon="6.85766">
        <ele>911.6</ele>
        <time>2022-05-26T09:48:18Z</time>
      </trkpt>
      <trkpt lat="47.98395" lon="6.8578">
        <ele>913.2</ele>
        <time>2022-05-26T09:48:23Z</time>
      </trkpt>
      <trkpt lat="47.984" lon="6.85793">
        <ele>914.4</ele>
        <time>2022-05-26T09:48:28Z</time>
      </trkpt>
      <trkpt lat="47.98403" lon="6.85807">
        <ele>915.4</ele>
        <time>2022-05-26T09:48:34Z</time>
      </trkpt>
      <trkpt lat="47.98404" lon="6.8582">
        <ele>916.5</ele>
        <time>2022-05-26T09:48:40Z</time>
      </trkpt>
      <trkpt lat="47.98405" lon="6.85834">
        <ele>917.3</ele>
        <time>2022-05-26T09:48:47Z</time>
      </trkpt>
      <trkpt lat="47.9841" lon="6.85848">
        <ele>918.4</ele>
        <time>2022-05-26T09:48:53Z</time>
      </trkpt>
      <trkpt lat="47.98413" lon="6.85863">
        <ele>919.8</ele>
        <time>2022-05-26T09:49:00Z</time>
      </trkpt>
      <trkpt lat="47.98417" lon="6.85877">
        <ele>921.7</ele>
        <time>2022-05-26T09:49:08Z</time>
      </trkpt>
      <trkpt lat="47.98422" lon="6.8589">
        <ele>922.7</ele>
        <time>2022-05-26T09:49:15Z</time>
      </trkpt>
      <trkpt lat="47.98427" lon="6.85903">
        <ele>923.7</ele>
        <time>2022-05-26T09:49:23Z</time>
      </trkpt>
      <trkpt lat="47.98433" lon="6.85914">
        <ele>925.2</ele>
        <time>2022-05-26T09:49:30Z</time>
      </trkpt>
      <trkpt lat="47.98441" lon="6.85925">
        <ele>926.9</ele>
        <time>2022-05-26T09:49:36Z</time>
      </trkpt>
      <trkpt lat="47.98449" lon="6.85934">
        <ele>927.4</ele>
        <time>2022-05-26T09:49:42Z</time>
      </trkpt>
      <trkpt lat="47.98458" lon="6.85941">
        <ele>928.7</ele>
        <time>2022-05-26T09:49:49Z</time>
      </trkpt>
      <trkpt lat="47.98467" lon="6.85948">
        <ele>929.9</ele>
        <time>2022-05-26T09:49:56Z</time>
      </trkpt>
      <trkpt lat="47.98476" lon="6.85953">
        <ele>930.6</ele>
        <time>2022-05-26T09:50:01Z</time>
      </trkpt>
      <trkpt lat="47.98483" lon="6.85962">
        <ele>931.8</ele>
        <time>2022-05-26T09:50:07Z</time>
      </trkpt>
      <trkpt lat="47.98487" lon="6.85976">
        <ele>933.3</ele>
        <time>2022-05-26T09:50:15Z</time>
      </trkpt>
      <trkpt lat="47.98491" lon="6.85989">
        <ele>935</ele>
        <time>2022-05-26T09:50:22Z</time>
      </trkpt>
      <trkpt lat="47.98497" lon="6.85999">
        <ele>936.4</ele>
        <time>2022-05-26T09:50:30Z</time>
      </trkpt>
      <trkpt lat="47.98503" lon="6.8601">
        <ele>937.1</ele>
        <time>2022-05-26T09:50:37Z</time>
      </trkpt>
      <trkpt lat="47.98513" lon="6.86017">
        <ele>938</ele>
        <time>2022-05-26T09:50:44Z</time>
      </trkpt>
      <trkpt lat="47.98521" lon="6.86024">
        <ele>939</ele>
        <time>2022-05-26T09:50:50Z</time>
      </trkpt>
      <trkpt lat="47.98529" lon="6.86032">
        <ele>940.3</ele>
        <time>2022-05-26T09:50:56Z</time>
      </trkpt>
      <trkpt lat="47.98539" lon="6.86037">
        <ele>941.6</ele>
        <time>2022-05-26T09:51:02Z</time>
      </trkpt>
      <trkpt lat="47.98548" lon="6.86041">
        <ele>941.7</ele>
        <time>2022-05-26T09:51:07Z</time>
      </trkpt>
      <trkpt lat="47.98559" lon="6.86043">
        <ele>942.4</ele>
        <time>2022-05-26T09:51:12Z</time>
      </trkpt>
      <trkpt lat="47.98569" lon="6.86041">
        <ele>942.9</ele>
        <time>2022-05-26T09:51:17Z</time>
      </trkpt>
      <trkpt lat="47.98578" lon="6.86035">
        <ele>944</ele>
        <time>2022-05-26T09:51:22Z</time>
      </trkpt>
      <trkpt lat="47.98587" lon="6.86028">
        <ele>944.2</ele>
        <time>2022-05-26T09:51:27Z</time>
      </trkpt>
      <trkpt lat="47.98596" lon="6.8602">
        <ele>943.8</ele>
        <time>2022-05-26T09:51:31Z</time>
      </trkpt>
      <trkpt lat="47.98604" lon="6.86013">
        <ele>944.8</ele>
        <time>2022-05-26T09:51:35Z</time>
      </trkpt>
      <trkpt lat="47.98613" lon="6.86008">
        <ele>945.1</ele>
        <time>2022-05-26T09:51:39Z</time>
      </trkpt>
      <trkpt lat="47.98622" lon="6.86003">
        <ele>945</ele>
        <time>2022-05-26T09:51:44Z</time>
      </trkpt>
      <trkpt lat="47.98633" lon="6.85999">
        <ele>945.2</ele>
        <time>2022-05-26T09:51:49Z</time>
      </trkpt>
      <trkpt lat="47.98642" lon="6.85994">
        <ele>945.9</ele>
        <time>2022-05-26T09:51:53Z</time>
      </trkpt>
      <trkpt lat="47.98651" lon="6.85991">
        <ele>946.1</ele>
        <time>2022-05-26T09:51:57Z</time>
      </trkpt>
      <trkpt lat="47.98662" lon="6.85989">
        <ele>946.1</ele>
        <time>2022-05-26T09:52:01Z</time>
      </trkpt>
      <trkpt lat="47.98673" lon="6.85985">
        <ele>947.7</ele>
        <time>2022-05-26T09:52:05Z</time>
      </trkpt>
      <trkpt lat="47.98684" lon="6.85983">
        <ele>947.7</ele>
        <time>2022-05-26T09:52:09Z</time>
      </trkpt>
      <trkpt lat="47.98696" lon="6.85979">
        <ele>947.9</ele>
        <time>2022-05-26T09:52:13Z</time>
      </trkpt>
      <trkpt lat="47.98707" lon="6.85975">
        <ele>948.4</ele>
        <time>2022-05-26T09:52:17Z</time>
      </trkpt>
      <trkpt lat="47.98717" lon="6.85971">
        <ele>949.5</ele>
        <time>2022-05-26T09:52:21Z</time>
      </trkpt>
      <trkpt lat="47.98728" lon="6.85966">
        <ele>949.8</ele>
        <time>2022-05-26T09:52:25Z</time>
      </trkpt>
      <trkpt lat="47.98739" lon="6.85962">
        <ele>949.8</ele>
        <time>2022-05-26T09:52:29Z</time>
      </trkpt>
      <trkpt lat="47.98748" lon="6.85958">
        <ele>951.6</ele>
        <time>2022-05-26T09:52:32Z</time>
      </trkpt>
      <trkpt lat="47.98759" lon="6.85955">
        <ele>950.9</ele>
        <time>2022-05-26T09:52:36Z</time>
      </trkpt>
      <trkpt lat="47.9877" lon="6.85953">
        <ele>951.4</ele>
        <time>2022-05-26T09:52:40Z</time>
      </trkpt>
      <trkpt lat="47.98781" lon="6.85952">
        <ele>951.8</ele>
        <time>2022-05-26T09:52:44Z</time>
      </trkpt>
      <trkpt lat="47.98792" lon="6.85953">
        <ele>952.6</ele>
        <time>2022-05-26T09:52:48Z</time>
      </trkpt>
      <trkpt lat="47.98803" lon="6.85955">
        <ele>952.4</ele>
        <time>2022-05-26T09:52:52Z</time>
      </trkpt>
      <trkpt lat="47.98812" lon="6.85961">
        <ele>951.9</ele>
        <time>2022-05-26T09:52:56Z</time>
      </trkpt>
      <trkpt lat="47.98819" lon="6.8597">
        <ele>952.5</ele>
        <time>2022-05-26T09:53:00Z</time>
      </trkpt>
      <trkpt lat="47.98825" lon="6.8598">
        <ele>951.8</ele>
        <time>2022-05-26T09:53:05Z</time>
      </trkpt>
      <trkpt lat="47.9883" lon="6.8599">
        <ele>951.4</ele>
        <time>2022-05-26T09:53:13Z</time>
      </trkpt>
      <trkpt lat="47.98829" lon="6.85989">
        <ele>950.1</ele>
        <time>2022-05-26T09:54:54Z</time>
      </trkpt>
      <trkpt lat="47.98824" lon="6.85978">
        <ele>950.2</ele>
        <time>2022-05-26T09:55:00Z</time>
      </trkpt>
      <trkpt lat="47.98817" lon="6.85967">
        <ele>950.4</ele>
        <time>2022-05-26T09:55:05Z</time>
      </trkpt>
      <trkpt lat="47.98811" lon="6.85955">
        <ele>950</ele>
        <time>2022-05-26T09:55:11Z</time>
      </trkpt>
      <trkpt lat="47.98813" lon="6.85968">
        <ele>950.1</ele>
        <time>2022-05-26T09:55:27Z</time>
      </trkpt>
      <trkpt lat="47.98815" lon="6.85972">
        <ele>949.9</ele>
        <time>2022-05-26T09:55:31Z</time>
      </trkpt>
      <trkpt lat="47.98816" lon="6.85972">
        <ele>949.2</ele>
        <time>2022-05-26T09:56:25Z</time>
      </trkpt>
      <trkpt lat="47.98824" lon="6.8598">
        <ele>948.5</ele>
        <time>2022-05-26T09:56:30Z</time>
      </trkpt>
      <trkpt lat="47.98826" lon="6.85982">
        <ele>948.7</ele>
        <time>2022-05-26T09:56:34Z</time>
      </trkpt>
      <trkpt lat="47.98825" lon="6.85982">
        <ele>947.7</ele>
        <time>2022-05-26T09:57:44Z</time>
      </trkpt>
      <trkpt lat="47.98825" lon="6.85983">
        <ele>946.7</ele>
        <time>2022-05-26T09:58:46Z</time>
      </trkpt>
      <trkpt lat="47.98825" lon="6.85985">
        <ele>946.6</ele>
        <time>2022-05-26T09:58:55Z</time>
      </trkpt>
      <trkpt lat="47.98826" lon="6.85986">
        <ele>946.4</ele>
        <time>2022-05-26T09:58:59Z</time>
      </trkpt>
      <trkpt lat="47.98831" lon="6.85998">
        <ele>946.1</ele>
        <time>2022-05-26T09:59:07Z</time>
      </trkpt>
      <trkpt lat="47.98837" lon="6.86013">
        <ele>945.8</ele>
        <time>2022-05-26T09:59:12Z</time>
      </trkpt>
      <trkpt lat="47.98843" lon="6.8603">
        <ele>943.1</ele>
        <time>2022-05-26T09:59:15Z</time>
      </trkpt>
      <trkpt lat="47.98847" lon="6.86044">
        <ele>944.1</ele>
        <time>2022-05-26T09:59:17Z</time>
      </trkpt>
      <trkpt lat="47.98853" lon="6.8606">
        <ele>942.2</ele>
        <time>2022-05-26T09:59:19Z</time>
      </trkpt>
      <trkpt lat="47.98858" lon="6.86077">
        <ele>941.2</ele>
        <time>2022-05-26T09:59:21Z</time>
      </trkpt>
      <trkpt lat="47.98863" lon="6.86097">
        <ele>937.2</ele>
        <time>2022-05-26T09:59:23Z</time>
      </trkpt>
      <trkpt lat="47.98868" lon="6.86117">
        <ele>939.4</ele>
        <time>2022-05-26T09:59:25Z</time>
      </trkpt>
      <trkpt lat="47.98873" lon="6.86138">
        <ele>936.7</ele>
        <time>2022-05-26T09:59:27Z</time>
      </trkpt>
      <trkpt lat="47.98878" lon="6.8616">
        <ele>938.2</ele>
        <time>2022-05-26T09:59:29Z</time>
      </trkpt>
      <trkpt lat="47.98879" lon="6.86183">
        <ele>934.8</ele>
        <time>2022-05-26T09:59:31Z</time>
      </trkpt>
      <trkpt lat="47.98878" lon="6.86207">
        <ele>934.2</ele>
        <time>2022-05-26T09:59:33Z</time>
      </trkpt>
      <trkpt lat="47.98876" lon="6.86234">
        <ele>933.1</ele>
        <time>2022-05-26T09:59:35Z</time>
      </trkpt>
      <trkpt lat="47.98876" lon="6.86247">
        <ele>931.5</ele>
        <time>2022-05-26T09:59:36Z</time>
      </trkpt>
      <trkpt lat="47.98876" lon="6.86261">
        <ele>929.2</ele>
        <time>2022-05-26T09:59:37Z</time>
      </trkpt>
      <trkpt lat="47.98875" lon="6.86274">
        <ele>929.3</ele>
        <time>2022-05-26T09:59:38Z</time>
      </trkpt>
      <trkpt lat="47.98874" lon="6.86288">
        <ele>930.2</ele>
        <time>2022-05-26T09:59:39Z</time>
      </trkpt>
      <trkpt lat="47.9887" lon="6.86314">
        <ele>930</ele>
        <time>2022-05-26T09:59:41Z</time>
      </trkpt>
      <trkpt lat="47.98866" lon="6.86338">
        <ele>928.1</ele>
        <time>2022-05-26T09:59:43Z</time>
      </trkpt>
      <trkpt lat="47.98863" lon="6.86359">
        <ele>928.1</ele>
        <time>2022-05-26T09:59:45Z</time>
      </trkpt>
      <trkpt lat="47.98857" lon="6.8638">
        <ele>927.4</ele>
        <time>2022-05-26T09:59:47Z</time>
      </trkpt>
      <trkpt lat="47.98848" lon="6.86399">
        <ele>925.9</ele>
        <time>2022-05-26T09:59:49Z</time>
      </trkpt>
      <trkpt lat="47.98837" lon="6.86418">
        <ele>926</ele>
        <time>2022-05-26T09:59:51Z</time>
      </trkpt>
      <trkpt lat="47.98827" lon="6.86437">
        <ele>924.9</ele>
        <time>2022-05-26T09:59:53Z</time>
      </trkpt>
      <trkpt lat="47.98817" lon="6.86457">
        <ele>923</ele>
        <time>2022-05-26T09:59:55Z</time>
      </trkpt>
      <trkpt lat="47.98806" lon="6.86478">
        <ele>919.5</ele>
        <time>2022-05-26T09:59:57Z</time>
      </trkpt>
      <trkpt lat="47.98796" lon="6.86496">
        <ele>916.8</ele>
        <time>2022-05-26T09:59:59Z</time>
      </trkpt>
      <trkpt lat="47.98786" lon="6.8651">
        <ele>917</ele>
        <time>2022-05-26T10:00:01Z</time>
      </trkpt>
      <trkpt lat="47.98774" lon="6.86522">
        <ele>913</ele>
        <time>2022-05-26T10:00:03Z</time>
      </trkpt>
      <trkpt lat="47.98762" lon="6.86535">
        <ele>914.6</ele>
        <time>2022-05-26T10:00:05Z</time>
      </trkpt>
      <trkpt lat="47.98751" lon="6.8655">
        <ele>911.4</ele>
        <time>2022-05-26T10:00:07Z</time>
      </trkpt>
      <trkpt lat="47.98742" lon="6.86568">
        <ele>910.2</ele>
        <time>2022-05-26T10:00:09Z</time>
      </trkpt>
      <trkpt lat="47.98734" lon="6.86591">
        <ele>904.1</ele>
        <time>2022-05-26T10:00:11Z</time>
      </trkpt>
      <trkpt lat="47.98729" lon="6.86604">
        <ele>902.8</ele>
        <time>2022-05-26T10:00:12Z</time>
      </trkpt>
      <trkpt lat="47.98723" lon="6.86616">
        <ele>903.2</ele>
        <time>2022-05-26T10:00:13Z</time>
      </trkpt>
      <trkpt lat="47.98717" lon="6.86627">
        <ele>903.3</ele>
        <time>2022-05-26T10:00:14Z</time>
      </trkpt>
      <trkpt lat="47.98711" lon="6.86639">
        <ele>903.3</ele>
        <time>2022-05-26T10:00:15Z</time>
      </trkpt>
      <trkpt lat="47.98706" lon="6.86651">
        <ele>903.4</ele>
        <time>2022-05-26T10:00:16Z</time>
      </trkpt>
      <trkpt lat="47.98701" lon="6.86665">
        <ele>900.9</ele>
        <time>2022-05-26T10:00:17Z</time>
      </trkpt>
      <trkpt lat="47.98696" lon="6.86679">
        <ele>898.9</ele>
        <time>2022-05-26T10:00:18Z</time>
      </trkpt>
      <trkpt lat="47.98691" lon="6.86694">
        <ele>897.4</ele>
        <time>2022-05-26T10:00:19Z</time>
      </trkpt>
      <trkpt lat="47.98687" lon="6.86709">
        <ele>896.2</ele>
        <time>2022-05-26T10:00:20Z</time>
      </trkpt>
      <trkpt lat="47.98683" lon="6.86724">
        <ele>895.4</ele>
        <time>2022-05-26T10:00:21Z</time>
      </trkpt>
      <trkpt lat="47.98681" lon="6.86739">
        <ele>894.6</ele>
        <time>2022-05-26T10:00:22Z</time>
      </trkpt>
      <trkpt lat="47.98679" lon="6.86754">
        <ele>894.9</ele>
        <time>2022-05-26T10:00:23Z</time>
      </trkpt>
      <trkpt lat="47.98678" lon="6.8677">
        <ele>893.8</ele>
        <time>2022-05-26T10:00:24Z</time>
      </trkpt>
      <trkpt lat="47.98677" lon="6.86785">
        <ele>893.4</ele>
        <time>2022-05-26T10:00:25Z</time>
      </trkpt>
      <trkpt lat="47.98677" lon="6.868">
        <ele>892.3</ele>
        <time>2022-05-26T10:00:26Z</time>
      </trkpt>
      <trkpt lat="47.98677" lon="6.86814">
        <ele>890.4</ele>
        <time>2022-05-26T10:00:27Z</time>
      </trkpt>
      <trkpt lat="47.9868" lon="6.86828">
        <ele>888.3</ele>
        <time>2022-05-26T10:00:28Z</time>
      </trkpt>
      <trkpt lat="47.98683" lon="6.86841">
        <ele>887.1</ele>
        <time>2022-05-26T10:00:29Z</time>
      </trkpt>
      <trkpt lat="47.98689" lon="6.86852">
        <ele>887.1</ele>
        <time>2022-05-26T10:00:30Z</time>
      </trkpt>
      <trkpt lat="47.98695" lon="6.86863">
        <ele>887.5</ele>
        <time>2022-05-26T10:00:31Z</time>
      </trkpt>
      <trkpt lat="47.98702" lon="6.86873">
        <ele>887.9</ele>
        <time>2022-05-26T10:00:32Z</time>
      </trkpt>
      <trkpt lat="47.98708" lon="6.86883">
        <ele>887.1</ele>
        <time>2022-05-26T10:00:33Z</time>
      </trkpt>
      <trkpt lat="47.98719" lon="6.86903">
        <ele>886.3</ele>
        <time>2022-05-26T10:00:35Z</time>
      </trkpt>
      <trkpt lat="47.98728" lon="6.86925">
        <ele>884.5</ele>
        <time>2022-05-26T10:00:37Z</time>
      </trkpt>
      <trkpt lat="47.98737" lon="6.86939">
        <ele>883.4</ele>
        <time>2022-05-26T10:00:39Z</time>
      </trkpt>
      <trkpt lat="47.98745" lon="6.86949">
        <ele>884.3</ele>
        <time>2022-05-26T10:00:41Z</time>
      </trkpt>
      <trkpt lat="47.98755" lon="6.86958">
        <ele>881.9</ele>
        <time>2022-05-26T10:00:43Z</time>
      </trkpt>
      <trkpt lat="47.98762" lon="6.86968">
        <ele>881.1</ele>
        <time>2022-05-26T10:00:45Z</time>
      </trkpt>
      <trkpt lat="47.98764" lon="6.86981">
        <ele>880.6</ele>
        <time>2022-05-26T10:00:47Z</time>
      </trkpt>
      <trkpt lat="47.98758" lon="6.86997">
        <ele>881.2</ele>
        <time>2022-05-26T10:00:50Z</time>
      </trkpt>
      <trkpt lat="47.98755" lon="6.87011">
        <ele>882.1</ele>
        <time>2022-05-26T10:00:53Z</time>
      </trkpt>
      <trkpt lat="47.98757" lon="6.87026">
        <ele>882.1</ele>
        <time>2022-05-26T10:00:57Z</time>
      </trkpt>
      <trkpt lat="47.98757" lon="6.8704">
        <ele>883</ele>
        <time>2022-05-26T10:01:02Z</time>
      </trkpt>
      <trkpt lat="47.98758" lon="6.87055">
        <ele>884.4</ele>
        <time>2022-05-26T10:01:08Z</time>
      </trkpt>
      <trkpt lat="47.98757" lon="6.87071">
        <ele>885.9</ele>
        <time>2022-05-26T10:01:14Z</time>
      </trkpt>
      <trkpt lat="47.9876" lon="6.87086">
        <ele>886.9</ele>
        <time>2022-05-26T10:01:20Z</time>
      </trkpt>
      <trkpt lat="47.98764" lon="6.871">
        <ele>887.9</ele>
        <time>2022-05-26T10:01:26Z</time>
      </trkpt>
      <trkpt lat="47.98769" lon="6.87113">
        <ele>888.7</ele>
        <time>2022-05-26T10:01:32Z</time>
      </trkpt>
      <trkpt lat="47.9877" lon="6.87127">
        <ele>890</ele>
        <time>2022-05-26T10:01:38Z</time>
      </trkpt>
      <trkpt lat="47.9877" lon="6.87141">
        <ele>891.6</ele>
        <time>2022-05-26T10:01:44Z</time>
      </trkpt>
      <trkpt lat="47.9877" lon="6.87156">
        <ele>892.9</ele>
        <time>2022-05-26T10:01:50Z</time>
      </trkpt>
      <trkpt lat="47.98769" lon="6.87172">
        <ele>893.8</ele>
        <time>2022-05-26T10:01:56Z</time>
      </trkpt>
      <trkpt lat="47.98769" lon="6.87187">
        <ele>894.5</ele>
        <time>2022-05-26T10:02:02Z</time>
      </trkpt>
      <trkpt lat="47.98768" lon="6.87204">
        <ele>895.3</ele>
        <time>2022-05-26T10:02:08Z</time>
      </trkpt>
      <trkpt lat="47.98768" lon="6.87219">
        <ele>895.4</ele>
        <time>2022-05-26T10:02:13Z</time>
      </trkpt>
      <trkpt lat="47.98769" lon="6.87234">
        <ele>895.9</ele>
        <time>2022-05-26T10:02:18Z</time>
      </trkpt>
      <trkpt lat="47.9877" lon="6.87249">
        <ele>897</ele>
        <time>2022-05-26T10:02:23Z</time>
      </trkpt>
      <trkpt lat="47.98771" lon="6.87263">
        <ele>897.9</ele>
        <time>2022-05-26T10:02:28Z</time>
      </trkpt>
      <trkpt lat="47.98775" lon="6.87278">
        <ele>898.7</ele>
        <time>2022-05-26T10:02:33Z</time>
      </trkpt>
      <trkpt lat="47.98779" lon="6.87292">
        <ele>899</ele>
        <time>2022-05-26T10:02:38Z</time>
      </trkpt>
      <trkpt lat="47.98782" lon="6.87307">
        <ele>899.5</ele>
        <time>2022-05-26T10:02:43Z</time>
      </trkpt>
      <trkpt lat="47.98786" lon="6.8732">
        <ele>900.1</ele>
        <time>2022-05-26T10:02:48Z</time>
      </trkpt>
      <trkpt lat="47.9879" lon="6.87333">
        <ele>900.9</ele>
        <time>2022-05-26T10:02:53Z</time>
      </trkpt>
      <trkpt lat="47.98795" lon="6.87346">
        <ele>901.7</ele>
        <time>2022-05-26T10:02:58Z</time>
      </trkpt>
      <trkpt lat="47.988" lon="6.87359">
        <ele>903.1</ele>
        <time>2022-05-26T10:03:03Z</time>
      </trkpt>
      <trkpt lat="47.98806" lon="6.87371">
        <ele>903.3</ele>
        <time>2022-05-26T10:03:08Z</time>
      </trkpt>
      <trkpt lat="47.98812" lon="6.87384">
        <ele>904.1</ele>
        <time>2022-05-26T10:03:13Z</time>
      </trkpt>
      <trkpt lat="47.98818" lon="6.87397">
        <ele>904.8</ele>
        <time>2022-05-26T10:03:18Z</time>
      </trkpt>
      <trkpt lat="47.98824" lon="6.87411">
        <ele>905.4</ele>
        <time>2022-05-26T10:03:23Z</time>
      </trkpt>
      <trkpt lat="47.9883" lon="6.87425">
        <ele>906.3</ele>
        <time>2022-05-26T10:03:28Z</time>
      </trkpt>
      <trkpt lat="47.98835" lon="6.87439">
        <ele>906.1</ele>
        <time>2022-05-26T10:03:33Z</time>
      </trkpt>
      <trkpt lat="47.98841" lon="6.87451">
        <ele>906.3</ele>
        <time>2022-05-26T10:03:37Z</time>
      </trkpt>
      <trkpt lat="47.98846" lon="6.87463">
        <ele>906.9</ele>
        <time>2022-05-26T10:03:41Z</time>
      </trkpt>
      <trkpt lat="47.98852" lon="6.87476">
        <ele>907.2</ele>
        <time>2022-05-26T10:03:45Z</time>
      </trkpt>
      <trkpt lat="47.98856" lon="6.87488">
        <ele>907.2</ele>
        <time>2022-05-26T10:03:49Z</time>
      </trkpt>
      <trkpt lat="47.98861" lon="6.87501">
        <ele>907.7</ele>
        <time>2022-05-26T10:03:53Z</time>
      </trkpt>
      <trkpt lat="47.98865" lon="6.87514">
        <ele>908.3</ele>
        <time>2022-05-26T10:03:57Z</time>
      </trkpt>
      <trkpt lat="47.9887" lon="6.87527">
        <ele>909</ele>
        <time>2022-05-26T10:04:01Z</time>
      </trkpt>
      <trkpt lat="47.98874" lon="6.8754">
        <ele>909.3</ele>
        <time>2022-05-26T10:04:05Z</time>
      </trkpt>
      <trkpt lat="47.9888" lon="6.87553">
        <ele>909.4</ele>
        <time>2022-05-26T10:04:09Z</time>
      </trkpt>
      <trkpt lat="47.98884" lon="6.87566">
        <ele>910.4</ele>
        <time>2022-05-26T10:04:13Z</time>
      </trkpt>
      <trkpt lat="47.98888" lon="6.87578">
        <ele>910.8</ele>
        <time>2022-05-26T10:04:17Z</time>
      </trkpt>
      <trkpt lat="47.98896" lon="6.87568">
        <ele>912.3</ele>
        <time>2022-05-26T10:04:25Z</time>
      </trkpt>
      <trkpt lat="47.98892" lon="6.87552">
        <ele>914.5</ele>
        <time>2022-05-26T10:04:30Z</time>
      </trkpt>
      <trkpt lat="47.98888" lon="6.87538">
        <ele>914.2</ele>
        <time>2022-05-26T10:04:34Z</time>
      </trkpt>
      <trkpt lat="47.98885" lon="6.87523">
        <ele>915.2</ele>
        <time>2022-05-26T10:04:39Z</time>
      </trkpt>
      <trkpt lat="47.98882" lon="6.87506">
        <ele>915.9</ele>
        <time>2022-05-26T10:04:44Z</time>
      </trkpt>
      <trkpt lat="47.9888" lon="6.87493">
        <ele>916.4</ele>
        <time>2022-05-26T10:04:48Z</time>
      </trkpt>
      <trkpt lat="47.98878" lon="6.87479">
        <ele>916.2</ele>
        <time>2022-05-26T10:04:52Z</time>
      </trkpt>
      <trkpt lat="47.98875" lon="6.87465">
        <ele>917</ele>
        <time>2022-05-26T10:04:56Z</time>
      </trkpt>
      <trkpt lat="47.98871" lon="6.8745">
        <ele>917.1</ele>
        <time>2022-05-26T10:05:00Z</time>
      </trkpt>
      <trkpt lat="47.98867" lon="6.87436">
        <ele>918.2</ele>
        <time>2022-05-26T10:05:05Z</time>
      </trkpt>
      <trkpt lat="47.98864" lon="6.87422">
        <ele>918.3</ele>
        <time>2022-05-26T10:05:09Z</time>
      </trkpt>
      <trkpt lat="47.9886" lon="6.87407">
        <ele>918.1</ele>
        <time>2022-05-26T10:05:13Z</time>
      </trkpt>
      <trkpt lat="47.98856" lon="6.87391">
        <ele>917.7</ele>
        <time>2022-05-26T10:05:17Z</time>
      </trkpt>
      <trkpt lat="47.98853" lon="6.87374">
        <ele>918.4</ele>
        <time>2022-05-26T10:05:21Z</time>
      </trkpt>
      <trkpt lat="47.98852" lon="6.8736">
        <ele>918.6</ele>
        <time>2022-05-26T10:05:25Z</time>
      </trkpt>
      <trkpt lat="47.98857" lon="6.87348">
        <ele>919.2</ele>
        <time>2022-05-26T10:05:29Z</time>
      </trkpt>
      <trkpt lat="47.98865" lon="6.87353">
        <ele>920.2</ele>
        <time>2022-05-26T10:05:35Z</time>
      </trkpt>
      <trkpt lat="47.98869" lon="6.87367">
        <ele>921.3</ele>
        <time>2022-05-26T10:05:40Z</time>
      </trkpt>
      <trkpt lat="47.98874" lon="6.87381">
        <ele>922.4</ele>
        <time>2022-05-26T10:05:45Z</time>
      </trkpt>
      <trkpt lat="47.98879" lon="6.87393">
        <ele>923.4</ele>
        <time>2022-05-26T10:05:50Z</time>
      </trkpt>
      <trkpt lat="47.98885" lon="6.87406">
        <ele>924.5</ele>
        <time>2022-05-26T10:05:56Z</time>
      </trkpt>
      <trkpt lat="47.98891" lon="6.87417">
        <ele>925.9</ele>
        <time>2022-05-26T10:06:02Z</time>
      </trkpt>
      <trkpt lat="47.98897" lon="6.87427">
        <ele>926.8</ele>
        <time>2022-05-26T10:06:08Z</time>
      </trkpt>
      <trkpt lat="47.98904" lon="6.8744">
        <ele>927.3</ele>
        <time>2022-05-26T10:06:14Z</time>
      </trkpt>
      <trkpt lat="47.9891" lon="6.87451">
        <ele>928.6</ele>
        <time>2022-05-26T10:06:19Z</time>
      </trkpt>
      <trkpt lat="47.98916" lon="6.87462">
        <ele>929.3</ele>
        <time>2022-05-26T10:06:24Z</time>
      </trkpt>
      <trkpt lat="47.98921" lon="6.87473">
        <ele>930</ele>
        <time>2022-05-26T10:06:29Z</time>
      </trkpt>
      <trkpt lat="47.98927" lon="6.87486">
        <ele>931.4</ele>
        <time>2022-05-26T10:06:35Z</time>
      </trkpt>
      <trkpt lat="47.98933" lon="6.87497">
        <ele>932.9</ele>
        <time>2022-05-26T10:06:40Z</time>
      </trkpt>
      <trkpt lat="47.98938" lon="6.8751">
        <ele>934.2</ele>
        <time>2022-05-26T10:06:46Z</time>
      </trkpt>
      <trkpt lat="47.98943" lon="6.87524">
        <ele>936.1</ele>
        <time>2022-05-26T10:06:52Z</time>
      </trkpt>
      <trkpt lat="47.98946" lon="6.87539">
        <ele>937.4</ele>
        <time>2022-05-26T10:06:58Z</time>
      </trkpt>
      <trkpt lat="47.98948" lon="6.87552">
        <ele>938.8</ele>
        <time>2022-05-26T10:07:04Z</time>
      </trkpt>
      <trkpt lat="47.98952" lon="6.87566">
        <ele>939.8</ele>
        <time>2022-05-26T10:07:10Z</time>
      </trkpt>
      <trkpt lat="47.98956" lon="6.87581">
        <ele>939.9</ele>
        <time>2022-05-26T10:07:15Z</time>
      </trkpt>
      <trkpt lat="47.98958" lon="6.87595">
        <ele>940.5</ele>
        <time>2022-05-26T10:07:19Z</time>
      </trkpt>
      <trkpt lat="47.9896" lon="6.87609">
        <ele>941.1</ele>
        <time>2022-05-26T10:07:23Z</time>
      </trkpt>
      <trkpt lat="47.98961" lon="6.87623">
        <ele>941</ele>
        <time>2022-05-26T10:07:27Z</time>
      </trkpt>
      <trkpt lat="47.98964" lon="6.87637">
        <ele>941.5</ele>
        <time>2022-05-26T10:07:31Z</time>
      </trkpt>
      <trkpt lat="47.98967" lon="6.8765">
        <ele>942</ele>
        <time>2022-05-26T10:07:35Z</time>
      </trkpt>
      <trkpt lat="47.98969" lon="6.87664">
        <ele>943.4</ele>
        <time>2022-05-26T10:07:40Z</time>
      </trkpt>
      <trkpt lat="47.9897" lon="6.87679">
        <ele>945.5</ele>
        <time>2022-05-26T10:07:45Z</time>
      </trkpt>
      <trkpt lat="47.98973" lon="6.87694">
        <ele>947.3</ele>
        <time>2022-05-26T10:07:50Z</time>
      </trkpt>
      <trkpt lat="47.98977" lon="6.87708">
        <ele>947.7</ele>
        <time>2022-05-26T10:07:55Z</time>
      </trkpt>
      <trkpt lat="47.98983" lon="6.87722">
        <ele>949.1</ele>
        <time>2022-05-26T10:08:00Z</time>
      </trkpt>
      <trkpt lat="47.98987" lon="6.87734">
        <ele>949.9</ele>
        <time>2022-05-26T10:08:04Z</time>
      </trkpt>
      <trkpt lat="47.98989" lon="6.87749">
        <ele>948.6</ele>
        <time>2022-05-26T10:08:08Z</time>
      </trkpt>
      <trkpt lat="47.98991" lon="6.87766">
        <ele>949.7</ele>
        <time>2022-05-26T10:08:12Z</time>
      </trkpt>
      <trkpt lat="47.98994" lon="6.87782">
        <ele>950.7</ele>
        <time>2022-05-26T10:08:16Z</time>
      </trkpt>
      <trkpt lat="47.98996" lon="6.87798">
        <ele>949.6</ele>
        <time>2022-05-26T10:08:20Z</time>
      </trkpt>
      <trkpt lat="47.98997" lon="6.87814">
        <ele>950.4</ele>
        <time>2022-05-26T10:08:24Z</time>
      </trkpt>
      <trkpt lat="47.98998" lon="6.8783">
        <ele>951.3</ele>
        <time>2022-05-26T10:08:28Z</time>
      </trkpt>
      <trkpt lat="47.98998" lon="6.87845">
        <ele>951.4</ele>
        <time>2022-05-26T10:08:32Z</time>
      </trkpt>
      <trkpt lat="47.98997" lon="6.8786">
        <ele>951.3</ele>
        <time>2022-05-26T10:08:36Z</time>
      </trkpt>
      <trkpt lat="47.98995" lon="6.87873">
        <ele>953.4</ele>
        <time>2022-05-26T10:08:40Z</time>
      </trkpt>
      <trkpt lat="47.98994" lon="6.8789">
        <ele>953.1</ele>
        <time>2022-05-26T10:08:45Z</time>
      </trkpt>
      <trkpt lat="47.98993" lon="6.87903">
        <ele>955</ele>
        <time>2022-05-26T10:08:49Z</time>
      </trkpt>
      <trkpt lat="47.98992" lon="6.87919">
        <ele>956</ele>
        <time>2022-05-26T10:08:54Z</time>
      </trkpt>
      <trkpt lat="47.9899" lon="6.87934">
        <ele>956.8</ele>
        <time>2022-05-26T10:08:59Z</time>
      </trkpt>
      <trkpt lat="47.98989" lon="6.87949">
        <ele>958.2</ele>
        <time>2022-05-26T10:09:04Z</time>
      </trkpt>
      <trkpt lat="47.98988" lon="6.87966">
        <ele>958.7</ele>
        <time>2022-05-26T10:09:09Z</time>
      </trkpt>
      <trkpt lat="47.98986" lon="6.87979">
        <ele>959.3</ele>
        <time>2022-05-26T10:09:13Z</time>
      </trkpt>
      <trkpt lat="47.98984" lon="6.87994">
        <ele>960.5</ele>
        <time>2022-05-26T10:09:18Z</time>
      </trkpt>
      <trkpt lat="47.98983" lon="6.8801">
        <ele>961.9</ele>
        <time>2022-05-26T10:09:23Z</time>
      </trkpt>
      <trkpt lat="47.98984" lon="6.88026">
        <ele>962.4</ele>
        <time>2022-05-26T10:09:28Z</time>
      </trkpt>
      <trkpt lat="47.98983" lon="6.8804">
        <ele>963.7</ele>
        <time>2022-05-26T10:09:33Z</time>
      </trkpt>
      <trkpt lat="47.98981" lon="6.88054">
        <ele>964.8</ele>
        <time>2022-05-26T10:09:38Z</time>
      </trkpt>
      <trkpt lat="47.98979" lon="6.88068">
        <ele>966.1</ele>
        <time>2022-05-26T10:09:43Z</time>
      </trkpt>
      <trkpt lat="47.98977" lon="6.88082">
        <ele>966.9</ele>
        <time>2022-05-26T10:09:48Z</time>
      </trkpt>
      <trkpt lat="47.98975" lon="6.88096">
        <ele>968.4</ele>
        <time>2022-05-26T10:09:53Z</time>
      </trkpt>
      <trkpt lat="47.98973" lon="6.8811">
        <ele>968.9</ele>
        <time>2022-05-26T10:09:58Z</time>
      </trkpt>
      <trkpt lat="47.9897" lon="6.88124">
        <ele>969.9</ele>
        <time>2022-05-26T10:10:03Z</time>
      </trkpt>
      <trkpt lat="47.98968" lon="6.88138">
        <ele>971.3</ele>
        <time>2022-05-26T10:10:08Z</time>
      </trkpt>
      <trkpt lat="47.98966" lon="6.88152">
        <ele>972.1</ele>
        <time>2022-05-26T10:10:13Z</time>
      </trkpt>
      <trkpt lat="47.98965" lon="6.88166">
        <ele>973.3</ele>
        <time>2022-05-26T10:10:18Z</time>
      </trkpt>
      <trkpt lat="47.98963" lon="6.8818">
        <ele>974.8</ele>
        <time>2022-05-26T10:10:23Z</time>
      </trkpt>
      <trkpt lat="47.98963" lon="6.88194">
        <ele>976.9</ele>
        <time>2022-05-26T10:10:28Z</time>
      </trkpt>
      <trkpt lat="47.98961" lon="6.88209">
        <ele>978.8</ele>
        <time>2022-05-26T10:10:34Z</time>
      </trkpt>
      <trkpt lat="47.98961" lon="6.88223">
        <ele>980</ele>
        <time>2022-05-26T10:10:40Z</time>
      </trkpt>
      <trkpt lat="47.9896" lon="6.88237">
        <ele>981.5</ele>
        <time>2022-05-26T10:10:46Z</time>
      </trkpt>
      <trkpt lat="47.9896" lon="6.88252">
        <ele>982.4</ele>
        <time>2022-05-26T10:10:52Z</time>
      </trkpt>
      <trkpt lat="47.9896" lon="6.88267">
        <ele>984</ele>
        <time>2022-05-26T10:10:58Z</time>
      </trkpt>
      <trkpt lat="47.98959" lon="6.88282">
        <ele>984.5</ele>
        <time>2022-05-26T10:11:04Z</time>
      </trkpt>
      <trkpt lat="47.9896" lon="6.88298">
        <ele>986.3</ele>
        <time>2022-05-26T10:11:10Z</time>
      </trkpt>
      <trkpt lat="47.98962" lon="6.88313">
        <ele>986.8</ele>
        <time>2022-05-26T10:11:15Z</time>
      </trkpt>
      <trkpt lat="47.98964" lon="6.88327">
        <ele>988.4</ele>
        <time>2022-05-26T10:11:20Z</time>
      </trkpt>
      <trkpt lat="47.98967" lon="6.8834">
        <ele>989.9</ele>
        <time>2022-05-26T10:11:25Z</time>
      </trkpt>
      <trkpt lat="47.9897" lon="6.88354">
        <ele>990.8</ele>
        <time>2022-05-26T10:11:30Z</time>
      </trkpt>
      <trkpt lat="47.98973" lon="6.88367">
        <ele>993.1</ele>
        <time>2022-05-26T10:11:35Z</time>
      </trkpt>
      <trkpt lat="47.98975" lon="6.88381">
        <ele>993.3</ele>
        <time>2022-05-26T10:11:40Z</time>
      </trkpt>
      <trkpt lat="47.98976" lon="6.88397">
        <ele>994.8</ele>
        <time>2022-05-26T10:11:45Z</time>
      </trkpt>
      <trkpt lat="47.98977" lon="6.88413">
        <ele>996.1</ele>
        <time>2022-05-26T10:11:50Z</time>
      </trkpt>
      <trkpt lat="47.98976" lon="6.88428">
        <ele>996.9</ele>
        <time>2022-05-26T10:11:55Z</time>
      </trkpt>
      <trkpt lat="47.98975" lon="6.88444">
        <ele>997.8</ele>
        <time>2022-05-26T10:12:00Z</time>
      </trkpt>
      <trkpt lat="47.98974" lon="6.88461">
        <ele>999</ele>
        <time>2022-05-26T10:12:05Z</time>
      </trkpt>
      <trkpt lat="47.98972" lon="6.88477">
        <ele>999.5</ele>
        <time>2022-05-26T10:12:10Z</time>
      </trkpt>
      <trkpt lat="47.98968" lon="6.88492">
        <ele>1000.1</ele>
        <time>2022-05-26T10:12:14Z</time>
      </trkpt>
      <trkpt lat="47.98963" lon="6.88507">
        <ele>999.9</ele>
        <time>2022-05-26T10:12:18Z</time>
      </trkpt>
      <trkpt lat="47.98959" lon="6.88522">
        <ele>999.9</ele>
        <time>2022-05-26T10:12:22Z</time>
      </trkpt>
      <trkpt lat="47.98954" lon="6.88536">
        <ele>999.4</ele>
        <time>2022-05-26T10:12:26Z</time>
      </trkpt>
      <trkpt lat="47.98949" lon="6.8855">
        <ele>1000.9</ele>
        <time>2022-05-26T10:12:30Z</time>
      </trkpt>
      <trkpt lat="47.98943" lon="6.88564">
        <ele>1001</ele>
        <time>2022-05-26T10:12:34Z</time>
      </trkpt>
      <trkpt lat="47.98938" lon="6.88578">
        <ele>1001.2</ele>
        <time>2022-05-26T10:12:38Z</time>
      </trkpt>
      <trkpt lat="47.98931" lon="6.88592">
        <ele>1001.7</ele>
        <time>2022-05-26T10:12:42Z</time>
      </trkpt>
      <trkpt lat="47.98924" lon="6.88605">
        <ele>1002.2</ele>
        <time>2022-05-26T10:12:46Z</time>
      </trkpt>
      <trkpt lat="47.98917" lon="6.88617">
        <ele>1002.9</ele>
        <time>2022-05-26T10:12:50Z</time>
      </trkpt>
      <trkpt lat="47.98908" lon="6.88629">
        <ele>1004</ele>
        <time>2022-05-26T10:12:54Z</time>
      </trkpt>
      <trkpt lat="47.98899" lon="6.88641">
        <ele>1003.1</ele>
        <time>2022-05-26T10:12:58Z</time>
      </trkpt>
      <trkpt lat="47.98892" lon="6.8865">
        <ele>1004.8</ele>
        <time>2022-05-26T10:13:01Z</time>
      </trkpt>
      <trkpt lat="47.98885" lon="6.88664">
        <ele>1005</ele>
        <time>2022-05-26T10:13:05Z</time>
      </trkpt>
      <trkpt lat="47.98879" lon="6.88678">
        <ele>1007.6</ele>
        <time>2022-05-26T10:13:09Z</time>
      </trkpt>
      <trkpt lat="47.98875" lon="6.88693">
        <ele>1006.7</ele>
        <time>2022-05-26T10:13:13Z</time>
      </trkpt>
      <trkpt lat="47.98874" lon="6.88708">
        <ele>1008.8</ele>
        <time>2022-05-26T10:13:17Z</time>
      </trkpt>
      <trkpt lat="47.98874" lon="6.88722">
        <ele>1009.4</ele>
        <time>2022-05-26T10:13:21Z</time>
      </trkpt>
      <trkpt lat="47.98875" lon="6.88737">
        <ele>1009.5</ele>
        <time>2022-05-26T10:13:25Z</time>
      </trkpt>
      <trkpt lat="47.98876" lon="6.88751">
        <ele>1010.2</ele>
        <time>2022-05-26T10:13:29Z</time>
      </trkpt>
      <trkpt lat="47.98878" lon="6.88764">
        <ele>1011.3</ele>
        <time>2022-05-26T10:13:33Z</time>
      </trkpt>
      <trkpt lat="47.9888" lon="6.88777">
        <ele>1012.9</ele>
        <time>2022-05-26T10:13:37Z</time>
      </trkpt>
      <trkpt lat="47.98882" lon="6.88794">
        <ele>1013.3</ele>
        <time>2022-05-26T10:13:42Z</time>
      </trkpt>
      <trkpt lat="47.98885" lon="6.88808">
        <ele>1014.5</ele>
        <time>2022-05-26T10:13:46Z</time>
      </trkpt>
      <trkpt lat="47.98887" lon="6.88822">
        <ele>1015</ele>
        <time>2022-05-26T10:13:50Z</time>
      </trkpt>
      <trkpt lat="47.9889" lon="6.88837">
        <ele>1016.3</ele>
        <time>2022-05-26T10:13:54Z</time>
      </trkpt>
      <trkpt lat="47.98891" lon="6.88852">
        <ele>1016.3</ele>
        <time>2022-05-26T10:13:58Z</time>
      </trkpt>
      <trkpt lat="47.98892" lon="6.88867">
        <ele>1016.5</ele>
        <time>2022-05-26T10:14:02Z</time>
      </trkpt>
      <trkpt lat="47.98894" lon="6.88882">
        <ele>1017.6</ele>
        <time>2022-05-26T10:14:06Z</time>
      </trkpt>
      <trkpt lat="47.98898" lon="6.88897">
        <ele>1018.1</ele>
        <time>2022-05-26T10:14:10Z</time>
      </trkpt>
      <trkpt lat="47.98902" lon="6.8891">
        <ele>1018.8</ele>
        <time>2022-05-26T10:14:14Z</time>
      </trkpt>
      <trkpt lat="47.98907" lon="6.88924">
        <ele>1019</ele>
        <time>2022-05-26T10:14:18Z</time>
      </trkpt>
      <trkpt lat="47.98912" lon="6.88936">
        <ele>1020.3</ele>
        <time>2022-05-26T10:14:22Z</time>
      </trkpt>
      <trkpt lat="47.98918" lon="6.8895">
        <ele>1021.6</ele>
        <time>2022-05-26T10:14:27Z</time>
      </trkpt>
      <trkpt lat="47.98924" lon="6.88964">
        <ele>1022.5</ele>
        <time>2022-05-26T10:14:32Z</time>
      </trkpt>
      <trkpt lat="47.98929" lon="6.88978">
        <ele>1024</ele>
        <time>2022-05-26T10:14:37Z</time>
      </trkpt>
      <trkpt lat="47.98934" lon="6.88992">
        <ele>1025.3</ele>
        <time>2022-05-26T10:14:42Z</time>
      </trkpt>
      <trkpt lat="47.98939" lon="6.89005">
        <ele>1025.6</ele>
        <time>2022-05-26T10:14:47Z</time>
      </trkpt>
      <trkpt lat="47.98942" lon="6.8902">
        <ele>1026.6</ele>
        <time>2022-05-26T10:14:52Z</time>
      </trkpt>
      <trkpt lat="47.98945" lon="6.89034">
        <ele>1027.2</ele>
        <time>2022-05-26T10:14:56Z</time>
      </trkpt>
      <trkpt lat="47.98948" lon="6.89047">
        <ele>1026.8</ele>
        <time>2022-05-26T10:15:00Z</time>
      </trkpt>
      <trkpt lat="47.98952" lon="6.89063">
        <ele>1027.9</ele>
        <time>2022-05-26T10:15:05Z</time>
      </trkpt>
      <trkpt lat="47.98954" lon="6.89076">
        <ele>1028.1</ele>
        <time>2022-05-26T10:15:09Z</time>
      </trkpt>
      <trkpt lat="47.98956" lon="6.89091">
        <ele>1029.1</ele>
        <time>2022-05-26T10:15:14Z</time>
      </trkpt>
      <trkpt lat="47.98957" lon="6.89105">
        <ele>1030.2</ele>
        <time>2022-05-26T10:15:18Z</time>
      </trkpt>
      <trkpt lat="47.98954" lon="6.8912">
        <ele>1030.3</ele>
        <time>2022-05-26T10:15:23Z</time>
      </trkpt>
      <trkpt lat="47.98951" lon="6.89133">
        <ele>1032.3</ele>
        <time>2022-05-26T10:15:28Z</time>
      </trkpt>
      <trkpt lat="47.98946" lon="6.89145">
        <ele>1033.3</ele>
        <time>2022-05-26T10:15:34Z</time>
      </trkpt>
      <trkpt lat="47.98941" lon="6.89157">
        <ele>1035.1</ele>
        <time>2022-05-26T10:15:40Z</time>
      </trkpt>
      <trkpt lat="47.98935" lon="6.8917">
        <ele>1035.3</ele>
        <time>2022-05-26T10:15:46Z</time>
      </trkpt>
      <trkpt lat="47.9893" lon="6.89181">
        <ele>1037.2</ele>
        <time>2022-05-26T10:15:51Z</time>
      </trkpt>
      <trkpt lat="47.98924" lon="6.89194">
        <ele>1038.7</ele>
        <time>2022-05-26T10:15:57Z</time>
      </trkpt>
      <trkpt lat="47.98918" lon="6.89206">
        <ele>1040</ele>
        <time>2022-05-26T10:16:02Z</time>
      </trkpt>
      <trkpt lat="47.98912" lon="6.89216">
        <ele>1041.3</ele>
        <time>2022-05-26T10:16:07Z</time>
      </trkpt>
      <trkpt lat="47.98906" lon="6.89228">
        <ele>1042.2</ele>
        <time>2022-05-26T10:16:12Z</time>
      </trkpt>
      <trkpt lat="47.98901" lon="6.8924">
        <ele>1042.3</ele>
        <time>2022-05-26T10:16:17Z</time>
      </trkpt>
      <trkpt lat="47.98896" lon="6.89252">
        <ele>1041.3</ele>
        <time>2022-05-26T10:16:21Z</time>
      </trkpt>
      <trkpt lat="47.9889" lon="6.89266">
        <ele>1041.7</ele>
        <time>2022-05-26T10:16:25Z</time>
      </trkpt>
      <trkpt lat="47.98888" lon="6.89279">
        <ele>1040.6</ele>
        <time>2022-05-26T10:16:28Z</time>
      </trkpt>
      <trkpt lat="47.98885" lon="6.89295">
        <ele>1040.4</ele>
        <time>2022-05-26T10:16:31Z</time>
      </trkpt>
      <trkpt lat="47.98882" lon="6.8931">
        <ele>1041</ele>
        <time>2022-05-26T10:16:34Z</time>
      </trkpt>
      <trkpt lat="47.98879" lon="6.89326">
        <ele>1041.1</ele>
        <time>2022-05-26T10:16:37Z</time>
      </trkpt>
      <trkpt lat="47.98875" lon="6.89339">
        <ele>1041.1</ele>
        <time>2022-05-26T10:16:40Z</time>
      </trkpt>
      <trkpt lat="47.98873" lon="6.89355">
        <ele>1040.9</ele>
        <time>2022-05-26T10:16:43Z</time>
      </trkpt>
      <trkpt lat="47.98871" lon="6.89369">
        <ele>1041.9</ele>
        <time>2022-05-26T10:16:46Z</time>
      </trkpt>
      <trkpt lat="47.98868" lon="6.89383">
        <ele>1042.1</ele>
        <time>2022-05-26T10:16:49Z</time>
      </trkpt>
      <trkpt lat="47.98868" lon="6.89398">
        <ele>1041.9</ele>
        <time>2022-05-26T10:16:52Z</time>
      </trkpt>
      <trkpt lat="47.98868" lon="6.89413">
        <ele>1042.5</ele>
        <time>2022-05-26T10:16:55Z</time>
      </trkpt>
      <trkpt lat="47.98867" lon="6.89432">
        <ele>1042</ele>
        <time>2022-05-26T10:16:59Z</time>
      </trkpt>
      <trkpt lat="47.98866" lon="6.89448">
        <ele>1042.1</ele>
        <time>2022-05-26T10:17:02Z</time>
      </trkpt>
      <trkpt lat="47.98865" lon="6.89464">
        <ele>1042</ele>
        <time>2022-05-26T10:17:05Z</time>
      </trkpt>
      <trkpt lat="47.98864" lon="6.89483">
        <ele>1041.2</ele>
        <time>2022-05-26T10:17:08Z</time>
      </trkpt>
      <trkpt lat="47.98863" lon="6.89497">
        <ele>1039.2</ele>
        <time>2022-05-26T10:17:10Z</time>
      </trkpt>
      <trkpt lat="47.98861" lon="6.89512">
        <ele>1039.8</ele>
        <time>2022-05-26T10:17:12Z</time>
      </trkpt>
      <trkpt lat="47.98858" lon="6.89526">
        <ele>1039</ele>
        <time>2022-05-26T10:17:14Z</time>
      </trkpt>
      <trkpt lat="47.98853" lon="6.89538">
        <ele>1039.2</ele>
        <time>2022-05-26T10:17:16Z</time>
      </trkpt>
      <trkpt lat="47.9885" lon="6.89551">
        <ele>1039.9</ele>
        <time>2022-05-26T10:17:18Z</time>
      </trkpt>
      <trkpt lat="47.98845" lon="6.89568">
        <ele>1042</ele>
        <time>2022-05-26T10:17:21Z</time>
      </trkpt>
      <trkpt lat="47.98842" lon="6.8958">
        <ele>1040.4</ele>
        <time>2022-05-26T10:17:24Z</time>
      </trkpt>
      <trkpt lat="47.98841" lon="6.89595">
        <ele>1041</ele>
        <time>2022-05-26T10:17:27Z</time>
      </trkpt>
      <trkpt lat="47.9884" lon="6.89612">
        <ele>1040.1</ele>
        <time>2022-05-26T10:17:31Z</time>
      </trkpt>
      <trkpt lat="47.98839" lon="6.89628">
        <ele>1041.8</ele>
        <time>2022-05-26T10:17:35Z</time>
      </trkpt>
      <trkpt lat="47.9884" lon="6.89644">
        <ele>1041.1</ele>
        <time>2022-05-26T10:17:40Z</time>
      </trkpt>
      <trkpt lat="47.98843" lon="6.89657">
        <ele>1043.7</ele>
        <time>2022-05-26T10:17:44Z</time>
      </trkpt>
      <trkpt lat="47.98847" lon="6.89671">
        <ele>1044.7</ele>
        <time>2022-05-26T10:17:49Z</time>
      </trkpt>
      <trkpt lat="47.98852" lon="6.89684">
        <ele>1045.7</ele>
        <time>2022-05-26T10:17:54Z</time>
      </trkpt>
      <trkpt lat="47.9885" lon="6.89699">
        <ele>1046.4</ele>
        <time>2022-05-26T10:18:00Z</time>
      </trkpt>
      <trkpt lat="47.98844" lon="6.89703">
        <ele>1047.4</ele>
        <time>2022-05-26T10:18:08Z</time>
      </trkpt>
      <trkpt lat="47.98849" lon="6.897">
        <ele>1047.4</ele>
        <time>2022-05-26T10:19:06Z</time>
      </trkpt>
      <trkpt lat="47.98849" lon="6.89701">
        <ele>1047.4</ele>
        <time>2022-05-26T10:22:39Z</time>
      </trkpt>
      <trkpt lat="47.98848" lon="6.89701">
        <ele>1047.2</ele>
        <time>2022-05-26T10:22:57Z</time>
      </trkpt>
      <trkpt lat="47.98839" lon="6.89696">
        <ele>1047.2</ele>
        <time>2022-05-26T10:23:03Z</time>
      </trkpt>
      <trkpt lat="47.98831" lon="6.89685">
        <ele>1047.2</ele>
        <time>2022-05-26T10:23:08Z</time>
      </trkpt>
      <trkpt lat="47.98824" lon="6.89676">
        <ele>1047.6</ele>
        <time>2022-05-26T10:23:12Z</time>
      </trkpt>
      <trkpt lat="47.98816" lon="6.89667">
        <ele>1047.8</ele>
        <time>2022-05-26T10:23:16Z</time>
      </trkpt>
      <trkpt lat="47.98807" lon="6.89657">
        <ele>1047.9</ele>
        <time>2022-05-26T10:23:20Z</time>
      </trkpt>
      <trkpt lat="47.98799" lon="6.89649">
        <ele>1049.1</ele>
        <time>2022-05-26T10:23:24Z</time>
      </trkpt>
      <trkpt lat="47.9879" lon="6.8964">
        <ele>1050.1</ele>
        <time>2022-05-26T10:23:29Z</time>
      </trkpt>
      <trkpt lat="47.98781" lon="6.89634">
        <ele>1049.4</ele>
        <time>2022-05-26T10:23:33Z</time>
      </trkpt>
      <trkpt lat="47.98772" lon="6.89631">
        <ele>1051.3</ele>
        <time>2022-05-26T10:23:37Z</time>
      </trkpt>
      <trkpt lat="47.98762" lon="6.89629">
        <ele>1052.2</ele>
        <time>2022-05-26T10:23:42Z</time>
      </trkpt>
      <trkpt lat="47.98752" lon="6.89628">
        <ele>1052.7</ele>
        <time>2022-05-26T10:23:47Z</time>
      </trkpt>
      <trkpt lat="47.98741" lon="6.8963">
        <ele>1054</ele>
        <time>2022-05-26T10:23:53Z</time>
      </trkpt>
      <trkpt lat="47.98732" lon="6.89631">
        <ele>1053.8</ele>
        <time>2022-05-26T10:23:58Z</time>
      </trkpt>
      <trkpt lat="47.98722" lon="6.89632">
        <ele>1056.2</ele>
        <time>2022-05-26T10:24:04Z</time>
      </trkpt>
      <trkpt lat="47.98712" lon="6.89632">
        <ele>1056.8</ele>
        <time>2022-05-26T10:24:09Z</time>
      </trkpt>
      <trkpt lat="47.98701" lon="6.89633">
        <ele>1057.8</ele>
        <time>2022-05-26T10:24:14Z</time>
      </trkpt>
      <trkpt lat="47.9869" lon="6.89635">
        <ele>1058</ele>
        <time>2022-05-26T10:24:19Z</time>
      </trkpt>
      <trkpt lat="47.98681" lon="6.89637">
        <ele>1059.4</ele>
        <time>2022-05-26T10:24:23Z</time>
      </trkpt>
      <trkpt lat="47.98672" lon="6.8964">
        <ele>1059.1</ele>
        <time>2022-05-26T10:24:28Z</time>
      </trkpt>
      <trkpt lat="47.98662" lon="6.89643">
        <ele>1061.4</ele>
        <time>2022-05-26T10:24:33Z</time>
      </trkpt>
      <trkpt lat="47.98651" lon="6.89645">
        <ele>1060.9</ele>
        <time>2022-05-26T10:24:38Z</time>
      </trkpt>
      <trkpt lat="47.98641" lon="6.89646">
        <ele>1061.2</ele>
        <time>2022-05-26T10:24:42Z</time>
      </trkpt>
      <trkpt lat="47.9863" lon="6.89649">
        <ele>1062.4</ele>
        <time>2022-05-26T10:24:47Z</time>
      </trkpt>
      <trkpt lat="47.9862" lon="6.89649">
        <ele>1064.1</ele>
        <time>2022-05-26T10:24:53Z</time>
      </trkpt>
      <trkpt lat="47.98611" lon="6.89652">
        <ele>1064.8</ele>
        <time>2022-05-26T10:24:58Z</time>
      </trkpt>
      <trkpt lat="47.98601" lon="6.89658">
        <ele>1065.9</ele>
        <time>2022-05-26T10:25:03Z</time>
      </trkpt>
      <trkpt lat="47.98591" lon="6.89668">
        <ele>1066.3</ele>
        <time>2022-05-26T10:25:08Z</time>
      </trkpt>
      <trkpt lat="47.98582" lon="6.89676">
        <ele>1066.1</ele>
        <time>2022-05-26T10:25:12Z</time>
      </trkpt>
      <trkpt lat="47.98572" lon="6.89683">
        <ele>1066.1</ele>
        <time>2022-05-26T10:25:16Z</time>
      </trkpt>
      <trkpt lat="47.98563" lon="6.89689">
        <ele>1065.8</ele>
        <time>2022-05-26T10:25:19Z</time>
      </trkpt>
      <trkpt lat="47.98555" lon="6.89695">
        <ele>1066.4</ele>
        <time>2022-05-26T10:25:22Z</time>
      </trkpt>
      <trkpt lat="47.98546" lon="6.89701">
        <ele>1067.5</ele>
        <time>2022-05-26T10:25:26Z</time>
      </trkpt>
      <trkpt lat="47.98536" lon="6.89706">
        <ele>1068.5</ele>
        <time>2022-05-26T10:25:31Z</time>
      </trkpt>
      <trkpt lat="47.98525" lon="6.89712">
        <ele>1070.6</ele>
        <time>2022-05-26T10:25:37Z</time>
      </trkpt>
      <trkpt lat="47.98516" lon="6.89718">
        <ele>1073</ele>
        <time>2022-05-26T10:25:42Z</time>
      </trkpt>
      <trkpt lat="47.98506" lon="6.89724">
        <ele>1073.6</ele>
        <time>2022-05-26T10:25:46Z</time>
      </trkpt>
      <trkpt lat="47.98497" lon="6.89731">
        <ele>1074.4</ele>
        <time>2022-05-26T10:25:51Z</time>
      </trkpt>
      <trkpt lat="47.98488" lon="6.89735">
        <ele>1075.9</ele>
        <time>2022-05-26T10:25:57Z</time>
      </trkpt>
      <trkpt lat="47.98478" lon="6.89743">
        <ele>1075.2</ele>
        <time>2022-05-26T10:26:03Z</time>
      </trkpt>
      <trkpt lat="47.9847" lon="6.89753">
        <ele>1078.4</ele>
        <time>2022-05-26T10:26:08Z</time>
      </trkpt>
      <trkpt lat="47.98464" lon="6.89766">
        <ele>1079.3</ele>
        <time>2022-05-26T10:26:13Z</time>
      </trkpt>
      <trkpt lat="47.9846" lon="6.89781">
        <ele>1079.3</ele>
        <time>2022-05-26T10:26:18Z</time>
      </trkpt>
      <trkpt lat="47.98454" lon="6.89792">
        <ele>1080.5</ele>
        <time>2022-05-26T10:26:23Z</time>
      </trkpt>
      <trkpt lat="47.98446" lon="6.89801">
        <ele>1081.6</ele>
        <time>2022-05-26T10:26:29Z</time>
      </trkpt>
      <trkpt lat="47.98438" lon="6.8981">
        <ele>1081.7</ele>
        <time>2022-05-26T10:26:34Z</time>
      </trkpt>
      <trkpt lat="47.98431" lon="6.8982">
        <ele>1082.3</ele>
        <time>2022-05-26T10:26:38Z</time>
      </trkpt>
      <trkpt lat="47.98425" lon="6.89831">
        <ele>1079.9</ele>
        <time>2022-05-26T10:26:41Z</time>
      </trkpt>
      <trkpt lat="47.98421" lon="6.89849">
        <ele>1081.4</ele>
        <time>2022-05-26T10:26:44Z</time>
      </trkpt>
      <trkpt lat="47.98421" lon="6.89864">
        <ele>1080.3</ele>
        <time>2022-05-26T10:26:46Z</time>
      </trkpt>
      <trkpt lat="47.98421" lon="6.89881">
        <ele>1079.1</ele>
        <time>2022-05-26T10:26:48Z</time>
      </trkpt>
      <trkpt lat="47.9842" lon="6.89898">
        <ele>1075.3</ele>
        <time>2022-05-26T10:26:50Z</time>
      </trkpt>
      <trkpt lat="47.98419" lon="6.89912">
        <ele>1076.6</ele>
        <time>2022-05-26T10:26:52Z</time>
      </trkpt>
      <trkpt lat="47.98418" lon="6.89926">
        <ele>1075.3</ele>
        <time>2022-05-26T10:26:54Z</time>
      </trkpt>
      <trkpt lat="47.98419" lon="6.8994">
        <ele>1075</ele>
        <time>2022-05-26T10:26:56Z</time>
      </trkpt>
      <trkpt lat="47.98419" lon="6.89956">
        <ele>1074.8</ele>
        <time>2022-05-26T10:26:58Z</time>
      </trkpt>
      <trkpt lat="47.98419" lon="6.89972">
        <ele>1074.7</ele>
        <time>2022-05-26T10:27:00Z</time>
      </trkpt>
      <trkpt lat="47.98419" lon="6.89989">
        <ele>1073.8</ele>
        <time>2022-05-26T10:27:02Z</time>
      </trkpt>
      <trkpt lat="47.98418" lon="6.90006">
        <ele>1073.2</ele>
        <time>2022-05-26T10:27:04Z</time>
      </trkpt>
      <trkpt lat="47.98418" lon="6.90023">
        <ele>1073</ele>
        <time>2022-05-26T10:27:06Z</time>
      </trkpt>
      <trkpt lat="47.98417" lon="6.9004">
        <ele>1073.9</ele>
        <time>2022-05-26T10:27:08Z</time>
      </trkpt>
      <trkpt lat="47.98417" lon="6.90058">
        <ele>1070.9</ele>
        <time>2022-05-26T10:27:10Z</time>
      </trkpt>
      <trkpt lat="47.98417" lon="6.90075">
        <ele>1071.6</ele>
        <time>2022-05-26T10:27:12Z</time>
      </trkpt>
      <trkpt lat="47.98416" lon="6.90092">
        <ele>1071.5</ele>
        <time>2022-05-26T10:27:14Z</time>
      </trkpt>
      <trkpt lat="47.98416" lon="6.90108">
        <ele>1071.6</ele>
        <time>2022-05-26T10:27:16Z</time>
      </trkpt>
      <trkpt lat="47.98413" lon="6.90122">
        <ele>1071.5</ele>
        <time>2022-05-26T10:27:18Z</time>
      </trkpt>
      <trkpt lat="47.9841" lon="6.90136">
        <ele>1071.3</ele>
        <time>2022-05-26T10:27:20Z</time>
      </trkpt>
      <trkpt lat="47.98406" lon="6.90152">
        <ele>1070.5</ele>
        <time>2022-05-26T10:27:22Z</time>
      </trkpt>
      <trkpt lat="47.98403" lon="6.9017">
        <ele>1069.7</ele>
        <time>2022-05-26T10:27:24Z</time>
      </trkpt>
      <trkpt lat="47.98402" lon="6.90188">
        <ele>1069.8</ele>
        <time>2022-05-26T10:27:26Z</time>
      </trkpt>
      <trkpt lat="47.98401" lon="6.90202">
        <ele>1070.2</ele>
        <time>2022-05-26T10:27:28Z</time>
      </trkpt>
      <trkpt lat="47.984" lon="6.90216">
        <ele>1070.3</ele>
        <time>2022-05-26T10:27:30Z</time>
      </trkpt>
      <trkpt lat="47.984" lon="6.90234">
        <ele>1071.2</ele>
        <time>2022-05-26T10:27:33Z</time>
      </trkpt>
      <trkpt lat="47.98401" lon="6.90255">
        <ele>1071.5</ele>
        <time>2022-05-26T10:27:36Z</time>
      </trkpt>
      <trkpt lat="47.98401" lon="6.90269">
        <ele>1070.4</ele>
        <time>2022-05-26T10:27:38Z</time>
      </trkpt>
      <trkpt lat="47.98401" lon="6.90284">
        <ele>1070.8</ele>
        <time>2022-05-26T10:27:40Z</time>
      </trkpt>
      <trkpt lat="47.98402" lon="6.90299">
        <ele>1071.1</ele>
        <time>2022-05-26T10:27:42Z</time>
      </trkpt>
      <trkpt lat="47.98402" lon="6.90316">
        <ele>1069.8</ele>
        <time>2022-05-26T10:27:44Z</time>
      </trkpt>
      <trkpt lat="47.98402" lon="6.90333">
        <ele>1069.7</ele>
        <time>2022-05-26T10:27:46Z</time>
      </trkpt>
      <trkpt lat="47.98403" lon="6.90349">
        <ele>1070.1</ele>
        <time>2022-05-26T10:27:48Z</time>
      </trkpt>
      <trkpt lat="47.98402" lon="6.90365">
        <ele>1069.7</ele>
        <time>2022-05-26T10:27:50Z</time>
      </trkpt>
      <trkpt lat="47.98401" lon="6.90381">
        <ele>1069.1</ele>
        <time>2022-05-26T10:27:52Z</time>
      </trkpt>
      <trkpt lat="47.98402" lon="6.90397">
        <ele>1069.5</ele>
        <time>2022-05-26T10:27:54Z</time>
      </trkpt>
      <trkpt lat="47.98403" lon="6.90413">
        <ele>1069.6</ele>
        <time>2022-05-26T10:27:56Z</time>
      </trkpt>
      <trkpt lat="47.98404" lon="6.90428">
        <ele>1069.3</ele>
        <time>2022-05-26T10:27:58Z</time>
      </trkpt>
      <trkpt lat="47.98407" lon="6.90442">
        <ele>1069.8</ele>
        <time>2022-05-26T10:28:00Z</time>
      </trkpt>
      <trkpt lat="47.98408" lon="6.90456">
        <ele>1070.4</ele>
        <time>2022-05-26T10:28:02Z</time>
      </trkpt>
      <trkpt lat="47.9841" lon="6.90469">
        <ele>1070</ele>
        <time>2022-05-26T10:28:04Z</time>
      </trkpt>
      <trkpt lat="47.98412" lon="6.90483">
        <ele>1070.1</ele>
        <time>2022-05-26T10:28:06Z</time>
      </trkpt>
      <trkpt lat="47.98413" lon="6.90502">
        <ele>1069.5</ele>
        <time>2022-05-26T10:28:09Z</time>
      </trkpt>
      <trkpt lat="47.98411" lon="6.90522">
        <ele>1069.3</ele>
        <time>2022-05-26T10:28:12Z</time>
      </trkpt>
      <trkpt lat="47.98409" lon="6.90536">
        <ele>1069.3</ele>
        <time>2022-05-26T10:28:14Z</time>
      </trkpt>
      <trkpt lat="47.98406" lon="6.9055">
        <ele>1070.4</ele>
        <time>2022-05-26T10:28:16Z</time>
      </trkpt>
      <trkpt lat="47.98402" lon="6.90565">
        <ele>1071.1</ele>
        <time>2022-05-26T10:28:19Z</time>
      </trkpt>
      <trkpt lat="47.98397" lon="6.9058">
        <ele>1070.2</ele>
        <time>2022-05-26T10:28:22Z</time>
      </trkpt>
      <trkpt lat="47.98392" lon="6.90595">
        <ele>1069.3</ele>
        <time>2022-05-26T10:28:25Z</time>
      </trkpt>
      <trkpt lat="47.98387" lon="6.9061">
        <ele>1070.6</ele>
        <time>2022-05-26T10:28:28Z</time>
      </trkpt>
      <trkpt lat="47.98381" lon="6.90627">
        <ele>1071.6</ele>
        <time>2022-05-26T10:28:31Z</time>
      </trkpt>
      <trkpt lat="47.98374" lon="6.9064">
        <ele>1070.4</ele>
        <time>2022-05-26T10:28:34Z</time>
      </trkpt>
      <trkpt lat="47.98371" lon="6.90658">
        <ele>1068</ele>
        <time>2022-05-26T10:28:37Z</time>
      </trkpt>
      <trkpt lat="47.98364" lon="6.90673">
        <ele>1068.6</ele>
        <time>2022-05-26T10:28:40Z</time>
      </trkpt>
      <trkpt lat="47.98359" lon="6.9069">
        <ele>1069.2</ele>
        <time>2022-05-26T10:28:43Z</time>
      </trkpt>
      <trkpt lat="47.98356" lon="6.90709">
        <ele>1067</ele>
        <time>2022-05-26T10:28:46Z</time>
      </trkpt>
      <trkpt lat="47.98353" lon="6.90724">
        <ele>1067.5</ele>
        <time>2022-05-26T10:28:48Z</time>
      </trkpt>
      <trkpt lat="47.98352" lon="6.90741">
        <ele>1067.7</ele>
        <time>2022-05-26T10:28:50Z</time>
      </trkpt>
      <trkpt lat="47.98354" lon="6.90759">
        <ele>1067.8</ele>
        <time>2022-05-26T10:28:52Z</time>
      </trkpt>
      <trkpt lat="47.98355" lon="6.90775">
        <ele>1067.6</ele>
        <time>2022-05-26T10:28:54Z</time>
      </trkpt>
      <trkpt lat="47.98358" lon="6.9079">
        <ele>1067.7</ele>
        <time>2022-05-26T10:28:56Z</time>
      </trkpt>
      <trkpt lat="47.98359" lon="6.90805">
        <ele>1067.2</ele>
        <time>2022-05-26T10:28:58Z</time>
      </trkpt>
      <trkpt lat="47.98362" lon="6.90821">
        <ele>1065.4</ele>
        <time>2022-05-26T10:29:00Z</time>
      </trkpt>
      <trkpt lat="47.98363" lon="6.90836">
        <ele>1066.3</ele>
        <time>2022-05-26T10:29:02Z</time>
      </trkpt>
      <trkpt lat="47.98365" lon="6.90851">
        <ele>1065.3</ele>
        <time>2022-05-26T10:29:04Z</time>
      </trkpt>
      <trkpt lat="47.98369" lon="6.90866">
        <ele>1062.5</ele>
        <time>2022-05-26T10:29:06Z</time>
      </trkpt>
      <trkpt lat="47.98376" lon="6.90881">
        <ele>1062.2</ele>
        <time>2022-05-26T10:29:08Z</time>
      </trkpt>
      <trkpt lat="47.98383" lon="6.90895">
        <ele>1063.6</ele>
        <time>2022-05-26T10:29:10Z</time>
      </trkpt>
      <trkpt lat="47.98391" lon="6.90909">
        <ele>1064.1</ele>
        <time>2022-05-26T10:29:12Z</time>
      </trkpt>
      <trkpt lat="47.98399" lon="6.90924">
        <ele>1063.9</ele>
        <time>2022-05-26T10:29:14Z</time>
      </trkpt>
      <trkpt lat="47.98409" lon="6.90939">
        <ele>1062.1</ele>
        <time>2022-05-26T10:29:16Z</time>
      </trkpt>
      <trkpt lat="47.98419" lon="6.90955">
        <ele>1060.7</ele>
        <time>2022-05-26T10:29:18Z</time>
      </trkpt>
      <trkpt lat="47.98429" lon="6.90971">
        <ele>1060.4</ele>
        <time>2022-05-26T10:29:20Z</time>
      </trkpt>
      <trkpt lat="47.9844" lon="6.90987">
        <ele>1058</ele>
        <time>2022-05-26T10:29:22Z</time>
      </trkpt>
      <trkpt lat="47.98447" lon="6.91003">
        <ele>1059.1</ele>
        <time>2022-05-26T10:29:24Z</time>
      </trkpt>
      <trkpt lat="47.98453" lon="6.9102">
        <ele>1057.6</ele>
        <time>2022-05-26T10:29:26Z</time>
      </trkpt>
      <trkpt lat="47.98458" lon="6.91037">
        <ele>1059.1</ele>
        <time>2022-05-26T10:29:28Z</time>
      </trkpt>
      <trkpt lat="47.98464" lon="6.91054">
        <ele>1059.2</ele>
        <time>2022-05-26T10:29:30Z</time>
      </trkpt>
      <trkpt lat="47.9847" lon="6.91069">
        <ele>1059.2</ele>
        <time>2022-05-26T10:29:32Z</time>
      </trkpt>
      <trkpt lat="47.98476" lon="6.91084">
        <ele>1058.8</ele>
        <time>2022-05-26T10:29:34Z</time>
      </trkpt>
      <trkpt lat="47.98481" lon="6.91098">
        <ele>1059</ele>
        <time>2022-05-26T10:29:36Z</time>
      </trkpt>
      <trkpt lat="47.98485" lon="6.91112">
        <ele>1059.1</ele>
        <time>2022-05-26T10:29:38Z</time>
      </trkpt>
      <trkpt lat="47.9849" lon="6.91125">
        <ele>1059.5</ele>
        <time>2022-05-26T10:29:40Z</time>
      </trkpt>
      <trkpt lat="47.98496" lon="6.91137">
        <ele>1059.4</ele>
        <time>2022-05-26T10:29:42Z</time>
      </trkpt>
      <trkpt lat="47.98502" lon="6.91148">
        <ele>1060.2</ele>
        <time>2022-05-26T10:29:44Z</time>
      </trkpt>
      <trkpt lat="47.98509" lon="6.91158">
        <ele>1060.2</ele>
        <time>2022-05-26T10:29:46Z</time>
      </trkpt>
      <trkpt lat="47.98516" lon="6.91167">
        <ele>1060</ele>
        <time>2022-05-26T10:29:48Z</time>
      </trkpt>
      <trkpt lat="47.98522" lon="6.91178">
        <ele>1059.6</ele>
        <time>2022-05-26T10:29:50Z</time>
      </trkpt>
      <trkpt lat="47.98527" lon="6.91192">
        <ele>1059.7</ele>
        <time>2022-05-26T10:29:52Z</time>
      </trkpt>
      <trkpt lat="47.9853" lon="6.91206">
        <ele>1060.3</ele>
        <time>2022-05-26T10:29:54Z</time>
      </trkpt>
      <trkpt lat="47.98533" lon="6.9122">
        <ele>1060.3</ele>
        <time>2022-05-26T10:29:56Z</time>
      </trkpt>
      <trkpt lat="47.98535" lon="6.91235">
        <ele>1058.1</ele>
        <time>2022-05-26T10:29:58Z</time>
      </trkpt>
      <trkpt lat="47.98539" lon="6.91251">
        <ele>1057.5</ele>
        <time>2022-05-26T10:30:00Z</time>
      </trkpt>
      <trkpt lat="47.98543" lon="6.91267">
        <ele>1057.5</ele>
        <time>2022-05-26T10:30:02Z</time>
      </trkpt>
      <trkpt lat="47.98545" lon="6.91283">
        <ele>1056.3</ele>
        <time>2022-05-26T10:30:04Z</time>
      </trkpt>
      <trkpt lat="47.98547" lon="6.913">
        <ele>1055.3</ele>
        <time>2022-05-26T10:30:06Z</time>
      </trkpt>
      <trkpt lat="47.98548" lon="6.91317">
        <ele>1056.1</ele>
        <time>2022-05-26T10:30:08Z</time>
      </trkpt>
      <trkpt lat="47.98551" lon="6.91336">
        <ele>1054.1</ele>
        <time>2022-05-26T10:30:10Z</time>
      </trkpt>
      <trkpt lat="47.98553" lon="6.91355">
        <ele>1054.6</ele>
        <time>2022-05-26T10:30:12Z</time>
      </trkpt>
      <trkpt lat="47.98556" lon="6.91375">
        <ele>1053.6</ele>
        <time>2022-05-26T10:30:14Z</time>
      </trkpt>
      <trkpt lat="47.9856" lon="6.91394">
        <ele>1053.7</ele>
        <time>2022-05-26T10:30:16Z</time>
      </trkpt>
      <trkpt lat="47.98563" lon="6.91414">
        <ele>1054.2</ele>
        <time>2022-05-26T10:30:18Z</time>
      </trkpt>
      <trkpt lat="47.98568" lon="6.91432">
        <ele>1051.9</ele>
        <time>2022-05-26T10:30:20Z</time>
      </trkpt>
      <trkpt lat="47.98573" lon="6.91449">
        <ele>1052.9</ele>
        <time>2022-05-26T10:30:22Z</time>
      </trkpt>
      <trkpt lat="47.98577" lon="6.91465">
        <ele>1053.9</ele>
        <time>2022-05-26T10:30:24Z</time>
      </trkpt>
      <trkpt lat="47.9858" lon="6.91481">
        <ele>1054.3</ele>
        <time>2022-05-26T10:30:26Z</time>
      </trkpt>
      <trkpt lat="47.98579" lon="6.91498">
        <ele>1052.1</ele>
        <time>2022-05-26T10:30:28Z</time>
      </trkpt>
      <trkpt lat="47.98578" lon="6.91514">
        <ele>1052.6</ele>
        <time>2022-05-26T10:30:30Z</time>
      </trkpt>
      <trkpt lat="47.98577" lon="6.91529">
        <ele>1052.6</ele>
        <time>2022-05-26T10:30:32Z</time>
      </trkpt>
      <trkpt lat="47.98578" lon="6.91544">
        <ele>1051.5</ele>
        <time>2022-05-26T10:30:34Z</time>
      </trkpt>
      <trkpt lat="47.9858" lon="6.9156">
        <ele>1051.3</ele>
        <time>2022-05-26T10:30:36Z</time>
      </trkpt>
      <trkpt lat="47.9858" lon="6.91574">
        <ele>1052</ele>
        <time>2022-05-26T10:30:38Z</time>
      </trkpt>
      <trkpt lat="47.9858" lon="6.91588">
        <ele>1051.9</ele>
        <time>2022-05-26T10:30:40Z</time>
      </trkpt>
      <trkpt lat="47.98582" lon="6.91609">
        <ele>1053.3</ele>
        <time>2022-05-26T10:30:43Z</time>
      </trkpt>
      <trkpt lat="47.98587" lon="6.91623">
        <ele>1053.3</ele>
        <time>2022-05-26T10:30:45Z</time>
      </trkpt>
      <trkpt lat="47.98593" lon="6.91639">
        <ele>1053.2</ele>
        <time>2022-05-26T10:30:47Z</time>
      </trkpt>
      <trkpt lat="47.98597" lon="6.91654">
        <ele>1052</ele>
        <time>2022-05-26T10:30:49Z</time>
      </trkpt>
      <trkpt lat="47.986" lon="6.9167">
        <ele>1053.1</ele>
        <time>2022-05-26T10:30:51Z</time>
      </trkpt>
      <trkpt lat="47.98605" lon="6.91685">
        <ele>1053.1</ele>
        <time>2022-05-26T10:30:53Z</time>
      </trkpt>
      <trkpt lat="47.9861" lon="6.917">
        <ele>1053.8</ele>
        <time>2022-05-26T10:30:55Z</time>
      </trkpt>
      <trkpt lat="47.98616" lon="6.91715">
        <ele>1053.9</ele>
        <time>2022-05-26T10:30:57Z</time>
      </trkpt>
      <trkpt lat="47.98622" lon="6.91731">
        <ele>1053.3</ele>
        <time>2022-05-26T10:30:59Z</time>
      </trkpt>
      <trkpt lat="47.98628" lon="6.91746">
        <ele>1053</ele>
        <time>2022-05-26T10:31:01Z</time>
      </trkpt>
      <trkpt lat="47.98634" lon="6.91762">
        <ele>1053.7</ele>
        <time>2022-05-26T10:31:03Z</time>
      </trkpt>
      <trkpt lat="47.98639" lon="6.91779">
        <ele>1053.8</ele>
        <time>2022-05-26T10:31:05Z</time>
      </trkpt>
      <trkpt lat="47.98642" lon="6.91797">
        <ele>1050.7</ele>
        <time>2022-05-26T10:31:07Z</time>
      </trkpt>
      <trkpt lat="47.98644" lon="6.91815">
        <ele>1052.2</ele>
        <time>2022-05-26T10:31:09Z</time>
      </trkpt>
      <trkpt lat="47.98647" lon="6.91832">
        <ele>1052.6</ele>
        <time>2022-05-26T10:31:11Z</time>
      </trkpt>
      <trkpt lat="47.9865" lon="6.91847">
        <ele>1054.4</ele>
        <time>2022-05-26T10:31:13Z</time>
      </trkpt>
      <trkpt lat="47.98653" lon="6.91866">
        <ele>1053.5</ele>
        <time>2022-05-26T10:31:16Z</time>
      </trkpt>
      <trkpt lat="47.98655" lon="6.91883">
        <ele>1054.8</ele>
        <time>2022-05-26T10:31:19Z</time>
      </trkpt>
      <trkpt lat="47.98656" lon="6.91901">
        <ele>1055.4</ele>
        <time>2022-05-26T10:31:22Z</time>
      </trkpt>
      <trkpt lat="47.98659" lon="6.91914">
        <ele>1054.7</ele>
        <time>2022-05-26T10:31:24Z</time>
      </trkpt>
      <trkpt lat="47.98662" lon="6.91927">
        <ele>1053.9</ele>
        <time>2022-05-26T10:31:26Z</time>
      </trkpt>
      <trkpt lat="47.98668" lon="6.9194">
        <ele>1055</ele>
        <time>2022-05-26T10:31:28Z</time>
      </trkpt>
      <trkpt lat="47.98673" lon="6.91951">
        <ele>1055.6</ele>
        <time>2022-05-26T10:31:30Z</time>
      </trkpt>
      <trkpt lat="47.98678" lon="6.91964">
        <ele>1055.2</ele>
        <time>2022-05-26T10:31:32Z</time>
      </trkpt>
      <trkpt lat="47.9868" lon="6.91978">
        <ele>1054.6</ele>
        <time>2022-05-26T10:31:34Z</time>
      </trkpt>
      <trkpt lat="47.98682" lon="6.91992">
        <ele>1056.2</ele>
        <time>2022-05-26T10:31:36Z</time>
      </trkpt>
      <trkpt lat="47.98687" lon="6.92006">
        <ele>1054</ele>
        <time>2022-05-26T10:31:38Z</time>
      </trkpt>
      <trkpt lat="47.98695" lon="6.9202">
        <ele>1051.2</ele>
        <time>2022-05-26T10:31:40Z</time>
      </trkpt>
      <trkpt lat="47.98705" lon="6.92033">
        <ele>1052.4</ele>
        <time>2022-05-26T10:31:42Z</time>
      </trkpt>
      <trkpt lat="47.98717" lon="6.92047">
        <ele>1053.2</ele>
        <time>2022-05-26T10:31:44Z</time>
      </trkpt>
      <trkpt lat="47.98727" lon="6.92064">
        <ele>1050.9</ele>
        <time>2022-05-26T10:31:46Z</time>
      </trkpt>
      <trkpt lat="47.98738" lon="6.9208">
        <ele>1050.5</ele>
        <time>2022-05-26T10:31:48Z</time>
      </trkpt>
      <trkpt lat="47.98751" lon="6.92095">
        <ele>1044.4</ele>
        <time>2022-05-26T10:31:50Z</time>
      </trkpt>
      <trkpt lat="47.98758" lon="6.92104">
        <ele>1043.9</ele>
        <time>2022-05-26T10:31:51Z</time>
      </trkpt>
      <trkpt lat="47.9877" lon="6.92123">
        <ele>1046.1</ele>
        <time>2022-05-26T10:31:53Z</time>
      </trkpt>
      <trkpt lat="47.98779" lon="6.92141">
        <ele>1044.7</ele>
        <time>2022-05-26T10:31:55Z</time>
      </trkpt>
      <trkpt lat="47.98792" lon="6.92154">
        <ele>1045.2</ele>
        <time>2022-05-26T10:31:57Z</time>
      </trkpt>
      <trkpt lat="47.98806" lon="6.92167">
        <ele>1043.2</ele>
        <time>2022-05-26T10:31:59Z</time>
      </trkpt>
      <trkpt lat="47.98817" lon="6.92186">
        <ele>1042</ele>
        <time>2022-05-26T10:32:01Z</time>
      </trkpt>
      <trkpt lat="47.98825" lon="6.92209">
        <ele>1039.6</ele>
        <time>2022-05-26T10:32:03Z</time>
      </trkpt>
      <trkpt lat="47.98833" lon="6.92233">
        <ele>1039.5</ele>
        <time>2022-05-26T10:32:05Z</time>
      </trkpt>
      <trkpt lat="47.98841" lon="6.92254">
        <ele>1038.4</ele>
        <time>2022-05-26T10:32:07Z</time>
      </trkpt>
      <trkpt lat="47.98849" lon="6.92274">
        <ele>1039.9</ele>
        <time>2022-05-26T10:32:09Z</time>
      </trkpt>
      <trkpt lat="47.98855" lon="6.92291">
        <ele>1044.1</ele>
        <time>2022-05-26T10:32:11Z</time>
      </trkpt>
      <trkpt lat="47.9886" lon="6.92305">
        <ele>1045.4</ele>
        <time>2022-05-26T10:32:13Z</time>
      </trkpt>
      <trkpt lat="47.98863" lon="6.92322">
        <ele>1046.4</ele>
        <time>2022-05-26T10:32:16Z</time>
      </trkpt>
      <trkpt lat="47.98866" lon="6.92336">
        <ele>1048.9</ele>
        <time>2022-05-26T10:32:20Z</time>
      </trkpt>
      <trkpt lat="47.98872" lon="6.92351">
        <ele>1050.3</ele>
        <time>2022-05-26T10:32:25Z</time>
      </trkpt>
      <trkpt lat="47.98878" lon="6.92362">
        <ele>1050.9</ele>
        <time>2022-05-26T10:32:29Z</time>
      </trkpt>
      <trkpt lat="47.98884" lon="6.92374">
        <ele>1052.6</ele>
        <time>2022-05-26T10:32:33Z</time>
      </trkpt>
      <trkpt lat="47.9889" lon="6.92385">
        <ele>1053.9</ele>
        <time>2022-05-26T10:32:37Z</time>
      </trkpt>
      <trkpt lat="47.98897" lon="6.92395">
        <ele>1053.5</ele>
        <time>2022-05-26T10:32:41Z</time>
      </trkpt>
      <trkpt lat="47.98903" lon="6.92407">
        <ele>1055.4</ele>
        <time>2022-05-26T10:32:45Z</time>
      </trkpt>
      <trkpt lat="47.98909" lon="6.92418">
        <ele>1057</ele>
        <time>2022-05-26T10:32:49Z</time>
      </trkpt>
      <trkpt lat="47.98915" lon="6.9243">
        <ele>1057.3</ele>
        <time>2022-05-26T10:32:53Z</time>
      </trkpt>
      <trkpt lat="47.98922" lon="6.92443">
        <ele>1058.2</ele>
        <time>2022-05-26T10:32:57Z</time>
      </trkpt>
      <trkpt lat="47.98929" lon="6.92457">
        <ele>1059.3</ele>
        <time>2022-05-26T10:33:01Z</time>
      </trkpt>
      <trkpt lat="47.98936" lon="6.9247">
        <ele>1060.2</ele>
        <time>2022-05-26T10:33:05Z</time>
      </trkpt>
      <trkpt lat="47.98942" lon="6.92481">
        <ele>1060.6</ele>
        <time>2022-05-26T10:33:09Z</time>
      </trkpt>
      <trkpt lat="47.9895" lon="6.92493">
        <ele>1060.3</ele>
        <time>2022-05-26T10:33:13Z</time>
      </trkpt>
      <trkpt lat="47.98957" lon="6.92504">
        <ele>1061.5</ele>
        <time>2022-05-26T10:33:16Z</time>
      </trkpt>
      <trkpt lat="47.98963" lon="6.92515">
        <ele>1061.2</ele>
        <time>2022-05-26T10:33:19Z</time>
      </trkpt>
      <trkpt lat="47.9897" lon="6.92527">
        <ele>1060.5</ele>
        <time>2022-05-26T10:33:22Z</time>
      </trkpt>
      <trkpt lat="47.98977" lon="6.9254">
        <ele>1059.7</ele>
        <time>2022-05-26T10:33:25Z</time>
      </trkpt>
      <trkpt lat="47.98984" lon="6.92555">
        <ele>1059.9</ele>
        <time>2022-05-26T10:33:28Z</time>
      </trkpt>
      <trkpt lat="47.9899" lon="6.92571">
        <ele>1059.3</ele>
        <time>2022-05-26T10:33:31Z</time>
      </trkpt>
      <trkpt lat="47.98998" lon="6.92586">
        <ele>1059.1</ele>
        <time>2022-05-26T10:33:34Z</time>
      </trkpt>
      <trkpt lat="47.99006" lon="6.92602">
        <ele>1060</ele>
        <time>2022-05-26T10:33:37Z</time>
      </trkpt>
      <trkpt lat="47.99013" lon="6.92617">
        <ele>1059.5</ele>
        <time>2022-05-26T10:33:40Z</time>
      </trkpt>
      <trkpt lat="47.9902" lon="6.92633">
        <ele>1060.2</ele>
        <time>2022-05-26T10:33:43Z</time>
      </trkpt>
      <trkpt lat="47.99025" lon="6.92648">
        <ele>1059.3</ele>
        <time>2022-05-26T10:33:46Z</time>
      </trkpt>
      <trkpt lat="47.9903" lon="6.92664">
        <ele>1060.3</ele>
        <time>2022-05-26T10:33:49Z</time>
      </trkpt>
      <trkpt lat="47.99035" lon="6.92678">
        <ele>1061.5</ele>
        <time>2022-05-26T10:33:52Z</time>
      </trkpt>
      <trkpt lat="47.99043" lon="6.92691">
        <ele>1060.5</ele>
        <time>2022-05-26T10:33:55Z</time>
      </trkpt>
      <trkpt lat="47.99052" lon="6.92702">
        <ele>1060.4</ele>
        <time>2022-05-26T10:33:59Z</time>
      </trkpt>
      <trkpt lat="47.99057" lon="6.92701">
        <ele>1060.9</ele>
        <time>2022-05-26T10:34:14Z</time>
      </trkpt>
      <trkpt lat="47.99056" lon="6.92701">
        <ele>1061</ele>
        <time>2022-05-26T10:34:15Z</time>
      </trkpt>
      <trkpt lat="47.99057" lon="6.927">
        <ele>1060.6</ele>
        <time>2022-05-26T10:34:17Z</time>
      </trkpt>
      <trkpt lat="47.99056" lon="6.927">
        <ele>1060.8</ele>
        <time>2022-05-26T10:34:37Z</time>
      </trkpt>
      <trkpt lat="47.99056" lon="6.92701">
        <ele>1061.2</ele>
        <time>2022-05-26T10:35:15Z</time>
      </trkpt>
      <trkpt lat="47.99052" lon="6.92704">
        <ele>1061.5</ele>
        <time>2022-05-26T10:35:21Z</time>
      </trkpt>
      <trkpt lat="47.99053" lon="6.92704">
        <ele>1060.9</ele>
        <time>2022-05-26T10:35:40Z</time>
      </trkpt>
      <trkpt lat="47.99052" lon="6.92704">
        <ele>1060.5</ele>
        <time>2022-05-26T10:36:36Z</time>
      </trkpt>
      <trkpt lat="47.99052" lon="6.92703">
        <ele>1060.4</ele>
        <time>2022-05-26T10:37:19Z</time>
      </trkpt>
      <trkpt lat="47.99052" lon="6.92702">
        <ele>1065.2</ele>
        <time>2022-05-26T10:50:57Z</time>
      </trkpt>
      <trkpt lat="47.99052" lon="6.92701">
        <ele>1065.4</ele>
        <time>2022-05-26T10:50:59Z</time>
      </trkpt>
      <trkpt lat="47.99053" lon="6.92701">
        <ele>1066.2</ele>
        <time>2022-05-26T10:53:13Z</time>
      </trkpt>
      <trkpt lat="47.99052" lon="6.92702">
        <ele>1066.6</ele>
        <time>2022-05-26T10:53:41Z</time>
      </trkpt>
      <trkpt lat="47.99053" lon="6.92702">
        <ele>1067.5</ele>
        <time>2022-05-26T10:54:33Z</time>
      </trkpt>
      <trkpt lat="47.99052" lon="6.92703">
        <ele>1068</ele>
        <time>2022-05-26T10:56:18Z</time>
      </trkpt>
      <trkpt lat="47.99052" lon="6.92704">
        <ele>1068.4</ele>
        <time>2022-05-26T10:56:24Z</time>
      </trkpt>
      <trkpt lat="47.99052" lon="6.92705">
        <ele>1068.6</ele>
        <time>2022-05-26T10:56:51Z</time>
      </trkpt>
      <trkpt lat="47.99052" lon="6.92706">
        <ele>1068.5</ele>
        <time>2022-05-26T10:57:01Z</time>
      </trkpt>
      <trkpt lat="47.99052" lon="6.92707">
        <ele>1068.6</ele>
        <time>2022-05-26T10:57:10Z</time>
      </trkpt>
      <trkpt lat="47.99052" lon="6.92708">
        <ele>1068.5</ele>
        <time>2022-05-26T10:57:38Z</time>
      </trkpt>
      <trkpt lat="47.99051" lon="6.92708">
        <ele>1068.8</ele>
        <time>2022-05-26T10:57:40Z</time>
      </trkpt>
      <trkpt lat="47.9905" lon="6.92708">
        <ele>1068.8</ele>
        <time>2022-05-26T10:57:46Z</time>
      </trkpt>
      <trkpt lat="47.99051" lon="6.92709">
        <ele>1068.5</ele>
        <time>2022-05-26T10:57:52Z</time>
      </trkpt>
      <trkpt lat="47.99051" lon="6.9271">
        <ele>1068.8</ele>
        <time>2022-05-26T10:57:57Z</time>
      </trkpt>
      <trkpt lat="47.99051" lon="6.92708">
        <ele>1068.9</ele>
        <time>2022-05-26T10:58:06Z</time>
      </trkpt>
      <trkpt lat="47.9905" lon="6.92708">
        <ele>1069.2</ele>
        <time>2022-05-26T10:58:17Z</time>
      </trkpt>
      <trkpt lat="47.9905" lon="6.92709">
        <ele>1069.2</ele>
        <time>2022-05-26T10:58:32Z</time>
      </trkpt>
      <trkpt lat="47.9905" lon="6.92708">
        <ele>1069.2</ele>
        <time>2022-05-26T10:58:36Z</time>
      </trkpt>
      <trkpt lat="47.99051" lon="6.92701">
        <ele>1068.3</ele>
        <time>2022-05-26T10:58:50Z</time>
      </trkpt>
      <trkpt lat="47.99051" lon="6.927">
        <ele>1068.7</ele>
        <time>2022-05-26T10:58:54Z</time>
      </trkpt>
      <trkpt lat="47.99052" lon="6.92701">
        <ele>1068.2</ele>
        <time>2022-05-26T10:58:59Z</time>
      </trkpt>
      <trkpt lat="47.99053" lon="6.92701">
        <ele>1068.1</ele>
        <time>2022-05-26T10:59:00Z</time>
      </trkpt>
      <trkpt lat="47.99053" lon="6.92702">
        <ele>1069</ele>
        <time>2022-05-26T10:59:03Z</time>
      </trkpt>
      <trkpt lat="47.99053" lon="6.92703">
        <ele>1068.4</ele>
        <time>2022-05-26T10:59:06Z</time>
      </trkpt>
      <trkpt lat="47.99053" lon="6.92702">
        <ele>1069.3</ele>
        <time>2022-05-26T11:01:20Z</time>
      </trkpt>
      <trkpt lat="47.99054" lon="6.92701">
        <ele>1069.9</ele>
        <time>2022-05-26T11:04:15Z</time>
      </trkpt>
      <trkpt lat="47.99052" lon="6.92705">
        <ele>1070.9</ele>
        <time>2022-05-26T11:05:44Z</time>
      </trkpt>
      <trkpt lat="47.99051" lon="6.92705">
        <ele>1071.1</ele>
        <time>2022-05-26T11:07:06Z</time>
      </trkpt>
      <trkpt lat="47.99051" lon="6.92712">
        <ele>1071.2</ele>
        <time>2022-05-26T11:07:27Z</time>
      </trkpt>
      <trkpt lat="47.9905" lon="6.9271">
        <ele>1071.4</ele>
        <time>2022-05-26T11:07:41Z</time>
      </trkpt>
      <trkpt lat="47.9905" lon="6.92709">
        <ele>1071.8</ele>
        <time>2022-05-26T11:07:54Z</time>
      </trkpt>
      <trkpt lat="47.9905" lon="6.92725">
        <ele>1071.8</ele>
        <time>2022-05-26T11:08:20Z</time>
      </trkpt>
      <trkpt lat="47.99056" lon="6.92737">
        <ele>1071.8</ele>
        <time>2022-05-26T11:08:23Z</time>
      </trkpt>
      <trkpt lat="47.99062" lon="6.9275">
        <ele>1071.2</ele>
        <time>2022-05-26T11:08:26Z</time>
      </trkpt>
      <trkpt lat="47.99065" lon="6.92764">
        <ele>1071.3</ele>
        <time>2022-05-26T11:08:29Z</time>
      </trkpt>
      <trkpt lat="47.99068" lon="6.92778">
        <ele>1072.1</ele>
        <time>2022-05-26T11:08:32Z</time>
      </trkpt>
      <trkpt lat="47.9907" lon="6.92795">
        <ele>1072.5</ele>
        <time>2022-05-26T11:08:36Z</time>
      </trkpt>
      <trkpt lat="47.99071" lon="6.92808">
        <ele>1073.1</ele>
        <time>2022-05-26T11:08:40Z</time>
      </trkpt>
      <trkpt lat="47.99073" lon="6.92824">
        <ele>1073.6</ele>
        <time>2022-05-26T11:08:45Z</time>
      </trkpt>
      <trkpt lat="47.99076" lon="6.9284">
        <ele>1074.3</ele>
        <time>2022-05-26T11:08:50Z</time>
      </trkpt>
      <trkpt lat="47.99076" lon="6.92856">
        <ele>1074.3</ele>
        <time>2022-05-26T11:08:54Z</time>
      </trkpt>
      <trkpt lat="47.99076" lon="6.9287">
        <ele>1074.4</ele>
        <time>2022-05-26T11:08:57Z</time>
      </trkpt>
      <trkpt lat="47.99074" lon="6.92887">
        <ele>1074.3</ele>
        <time>2022-05-26T11:09:01Z</time>
      </trkpt>
      <trkpt lat="47.99075" lon="6.92904">
        <ele>1074.1</ele>
        <time>2022-05-26T11:09:05Z</time>
      </trkpt>
      <trkpt lat="47.99075" lon="6.92918">
        <ele>1074.7</ele>
        <time>2022-05-26T11:09:08Z</time>
      </trkpt>
      <trkpt lat="47.99077" lon="6.92934">
        <ele>1074.8</ele>
        <time>2022-05-26T11:09:12Z</time>
      </trkpt>
      <trkpt lat="47.99077" lon="6.92949">
        <ele>1075.3</ele>
        <time>2022-05-26T11:09:16Z</time>
      </trkpt>
      <trkpt lat="47.99073" lon="6.92963">
        <ele>1077</ele>
        <time>2022-05-26T11:09:22Z</time>
      </trkpt>
      <trkpt lat="47.99069" lon="6.92976">
        <ele>1078.3</ele>
        <time>2022-05-26T11:09:29Z</time>
      </trkpt>
      <trkpt lat="47.99065" lon="6.9299">
        <ele>1079.3</ele>
        <time>2022-05-26T11:09:36Z</time>
      </trkpt>
      <trkpt lat="47.99061" lon="6.93003">
        <ele>1081.2</ele>
        <time>2022-05-26T11:09:44Z</time>
      </trkpt>
      <trkpt lat="47.99056" lon="6.93015">
        <ele>1082.5</ele>
        <time>2022-05-26T11:09:53Z</time>
      </trkpt>
      <trkpt lat="47.99049" lon="6.93025">
        <ele>1083.7</ele>
        <time>2022-05-26T11:10:00Z</time>
      </trkpt>
      <trkpt lat="47.99043" lon="6.93035">
        <ele>1085.1</ele>
        <time>2022-05-26T11:10:07Z</time>
      </trkpt>
      <trkpt lat="47.99038" lon="6.93048">
        <ele>1086.2</ele>
        <time>2022-05-26T11:10:14Z</time>
      </trkpt>
      <trkpt lat="47.99036" lon="6.93062">
        <ele>1087.5</ele>
        <time>2022-05-26T11:10:20Z</time>
      </trkpt>
      <trkpt lat="47.99037" lon="6.93077">
        <ele>1088.8</ele>
        <time>2022-05-26T11:10:28Z</time>
      </trkpt>
      <trkpt lat="47.99035" lon="6.9309">
        <ele>1090.3</ele>
        <time>2022-05-26T11:10:39Z</time>
      </trkpt>
      <trkpt lat="47.99033" lon="6.93097">
        <ele>1091.1</ele>
        <time>2022-05-26T11:10:49Z</time>
      </trkpt>
      <trkpt lat="47.99033" lon="6.93098">
        <ele>1091.2</ele>
        <time>2022-05-26T11:10:53Z</time>
      </trkpt>
      <trkpt lat="47.99027" lon="6.93109">
        <ele>1092</ele>
        <time>2022-05-26T11:11:00Z</time>
      </trkpt>
      <trkpt lat="47.99026" lon="6.93123">
        <ele>1093.7</ele>
        <time>2022-05-26T11:11:09Z</time>
      </trkpt>
      <trkpt lat="47.99023" lon="6.93127">
        <ele>1094.8</ele>
        <time>2022-05-26T11:11:15Z</time>
      </trkpt>
      <trkpt lat="47.99014" lon="6.93132">
        <ele>1098</ele>
        <time>2022-05-26T11:11:31Z</time>
      </trkpt>
      <trkpt lat="47.99006" lon="6.9314">
        <ele>1099.8</ele>
        <time>2022-05-26T11:11:48Z</time>
      </trkpt>
      <trkpt lat="47.98998" lon="6.93148">
        <ele>1101.5</ele>
        <time>2022-05-26T11:12:01Z</time>
      </trkpt>
      <trkpt lat="47.9899" lon="6.93155">
        <ele>1104</ele>
        <time>2022-05-26T11:12:17Z</time>
      </trkpt>
      <trkpt lat="47.98983" lon="6.93164">
        <ele>1105.7</ele>
        <time>2022-05-26T11:12:28Z</time>
      </trkpt>
      <trkpt lat="47.98976" lon="6.93172">
        <ele>1108.4</ele>
        <time>2022-05-26T11:12:42Z</time>
      </trkpt>
      <trkpt lat="47.98971" lon="6.93185">
        <ele>1110.4</ele>
        <time>2022-05-26T11:12:55Z</time>
      </trkpt>
      <trkpt lat="47.9897" lon="6.93198">
        <ele>1111.4</ele>
        <time>2022-05-26T11:13:04Z</time>
      </trkpt>
      <trkpt lat="47.98968" lon="6.93212">
        <ele>1113.7</ele>
        <time>2022-05-26T11:13:19Z</time>
      </trkpt>
      <trkpt lat="47.98962" lon="6.93222">
        <ele>1115</ele>
        <time>2022-05-26T11:13:28Z</time>
      </trkpt>
      <trkpt lat="47.98958" lon="6.93234">
        <ele>1116.7</ele>
        <time>2022-05-26T11:13:40Z</time>
      </trkpt>
      <trkpt lat="47.98957" lon="6.93249">
        <ele>1118.3</ele>
        <time>2022-05-26T11:13:52Z</time>
      </trkpt>
      <trkpt lat="47.98954" lon="6.93262">
        <ele>1120.6</ele>
        <time>2022-05-26T11:14:06Z</time>
      </trkpt>
      <trkpt lat="47.98949" lon="6.93274">
        <ele>1123.3</ele>
        <time>2022-05-26T11:14:20Z</time>
      </trkpt>
      <trkpt lat="47.98941" lon="6.93282">
        <ele>1124.4</ele>
        <time>2022-05-26T11:14:31Z</time>
      </trkpt>
      <trkpt lat="47.98932" lon="6.93288">
        <ele>1126.1</ele>
        <time>2022-05-26T11:14:42Z</time>
      </trkpt>
      <trkpt lat="47.98927" lon="6.93299">
        <ele>1127.3</ele>
        <time>2022-05-26T11:14:52Z</time>
      </trkpt>
      <trkpt lat="47.98925" lon="6.93304">
        <ele>1127.7</ele>
        <time>2022-05-26T11:14:57Z</time>
      </trkpt>
      <trkpt lat="47.98924" lon="6.93305">
        <ele>1127.8</ele>
        <time>2022-05-26T11:14:58Z</time>
      </trkpt>
      <trkpt lat="47.98917" lon="6.93313">
        <ele>1128.4</ele>
        <time>2022-05-26T11:15:08Z</time>
      </trkpt>
      <trkpt lat="47.98913" lon="6.93325">
        <ele>1130</ele>
        <time>2022-05-26T11:15:15Z</time>
      </trkpt>
      <trkpt lat="47.98909" lon="6.93338">
        <ele>1131.3</ele>
        <time>2022-05-26T11:15:22Z</time>
      </trkpt>
      <trkpt lat="47.98909" lon="6.93354">
        <ele>1132.7</ele>
        <time>2022-05-26T11:15:28Z</time>
      </trkpt>
      <trkpt lat="47.98909" lon="6.93368">
        <ele>1133.9</ele>
        <time>2022-05-26T11:15:33Z</time>
      </trkpt>
      <trkpt lat="47.98914" lon="6.93383">
        <ele>1134.6</ele>
        <time>2022-05-26T11:15:39Z</time>
      </trkpt>
      <trkpt lat="47.98916" lon="6.93399">
        <ele>1134.6</ele>
        <time>2022-05-26T11:15:44Z</time>
      </trkpt>
      <trkpt lat="47.98918" lon="6.93415">
        <ele>1134.6</ele>
        <time>2022-05-26T11:15:48Z</time>
      </trkpt>
      <trkpt lat="47.98922" lon="6.93428">
        <ele>1134.4</ele>
        <time>2022-05-26T11:15:52Z</time>
      </trkpt>
      <trkpt lat="47.98923" lon="6.93444">
        <ele>1134.4</ele>
        <time>2022-05-26T11:15:56Z</time>
      </trkpt>
      <trkpt lat="47.98926" lon="6.93458">
        <ele>1134.4</ele>
        <time>2022-05-26T11:16:00Z</time>
      </trkpt>
      <trkpt lat="47.98929" lon="6.93473">
        <ele>1135.3</ele>
        <time>2022-05-26T11:16:05Z</time>
      </trkpt>
      <trkpt lat="47.98933" lon="6.93486">
        <ele>1135.3</ele>
        <time>2022-05-26T11:16:09Z</time>
      </trkpt>
      <trkpt lat="47.98937" lon="6.93499">
        <ele>1136.1</ele>
        <time>2022-05-26T11:16:13Z</time>
      </trkpt>
      <trkpt lat="47.98941" lon="6.93514">
        <ele>1136.3</ele>
        <time>2022-05-26T11:16:17Z</time>
      </trkpt>
      <trkpt lat="47.98944" lon="6.9353">
        <ele>1136.8</ele>
        <time>2022-05-26T11:16:21Z</time>
      </trkpt>
      <trkpt lat="47.98946" lon="6.93545">
        <ele>1136.5</ele>
        <time>2022-05-26T11:16:25Z</time>
      </trkpt>
      <trkpt lat="47.98948" lon="6.9356">
        <ele>1137.6</ele>
        <time>2022-05-26T11:16:29Z</time>
      </trkpt>
      <trkpt lat="47.9895" lon="6.93575">
        <ele>1138.9</ele>
        <time>2022-05-26T11:16:33Z</time>
      </trkpt>
      <trkpt lat="47.98952" lon="6.93588">
        <ele>1138.8</ele>
        <time>2022-05-26T11:16:37Z</time>
      </trkpt>
      <trkpt lat="47.98954" lon="6.93601">
        <ele>1139.3</ele>
        <time>2022-05-26T11:16:41Z</time>
      </trkpt>
      <trkpt lat="47.98956" lon="6.93617">
        <ele>1139.8</ele>
        <time>2022-05-26T11:16:46Z</time>
      </trkpt>
      <trkpt lat="47.98958" lon="6.93633">
        <ele>1140.5</ele>
        <time>2022-05-26T11:16:51Z</time>
      </trkpt>
      <trkpt lat="47.9896" lon="6.93647">
        <ele>1140.8</ele>
        <time>2022-05-26T11:16:55Z</time>
      </trkpt>
      <trkpt lat="47.98961" lon="6.93665">
        <ele>1140.9</ele>
        <time>2022-05-26T11:16:59Z</time>
      </trkpt>
      <trkpt lat="47.98962" lon="6.93682">
        <ele>1140.1</ele>
        <time>2022-05-26T11:17:03Z</time>
      </trkpt>
      <trkpt lat="47.98961" lon="6.93699">
        <ele>1141.5</ele>
        <time>2022-05-26T11:17:07Z</time>
      </trkpt>
      <trkpt lat="47.98961" lon="6.93716">
        <ele>1142.5</ele>
        <time>2022-05-26T11:17:11Z</time>
      </trkpt>
      <trkpt lat="47.9896" lon="6.93731">
        <ele>1142.8</ele>
        <time>2022-05-26T11:17:15Z</time>
      </trkpt>
      <trkpt lat="47.98959" lon="6.93746">
        <ele>1143.6</ele>
        <time>2022-05-26T11:17:19Z</time>
      </trkpt>
      <trkpt lat="47.9896" lon="6.93761">
        <ele>1145.1</ele>
        <time>2022-05-26T11:17:24Z</time>
      </trkpt>
      <trkpt lat="47.98962" lon="6.93776">
        <ele>1146.3</ele>
        <time>2022-05-26T11:17:29Z</time>
      </trkpt>
      <trkpt lat="47.98967" lon="6.9379">
        <ele>1147.1</ele>
        <time>2022-05-26T11:17:34Z</time>
      </trkpt>
      <trkpt lat="47.98971" lon="6.93803">
        <ele>1148.5</ele>
        <time>2022-05-26T11:17:39Z</time>
      </trkpt>
      <trkpt lat="47.98976" lon="6.93816">
        <ele>1149</ele>
        <time>2022-05-26T11:17:44Z</time>
      </trkpt>
      <trkpt lat="47.98979" lon="6.9383">
        <ele>1149.5</ele>
        <time>2022-05-26T11:17:49Z</time>
      </trkpt>
      <trkpt lat="47.98982" lon="6.93844">
        <ele>1150.7</ele>
        <time>2022-05-26T11:17:54Z</time>
      </trkpt>
      <trkpt lat="47.98986" lon="6.93858">
        <ele>1151.4</ele>
        <time>2022-05-26T11:17:59Z</time>
      </trkpt>
      <trkpt lat="47.98988" lon="6.93871">
        <ele>1152.2</ele>
        <time>2022-05-26T11:18:04Z</time>
      </trkpt>
      <trkpt lat="47.98992" lon="6.93883">
        <ele>1153.1</ele>
        <time>2022-05-26T11:18:09Z</time>
      </trkpt>
      <trkpt lat="47.99001" lon="6.93878">
        <ele>1153.9</ele>
        <time>2022-05-26T11:18:16Z</time>
      </trkpt>
      <trkpt lat="47.99012" lon="6.93879">
        <ele>1154.9</ele>
        <time>2022-05-26T11:18:22Z</time>
      </trkpt>
      <trkpt lat="47.99021" lon="6.93872">
        <ele>1155.5</ele>
        <time>2022-05-26T11:18:28Z</time>
      </trkpt>
      <trkpt lat="47.9903" lon="6.93868">
        <ele>1156.9</ele>
        <time>2022-05-26T11:18:33Z</time>
      </trkpt>
      <trkpt lat="47.99038" lon="6.93861">
        <ele>1157.8</ele>
        <time>2022-05-26T11:18:39Z</time>
      </trkpt>
      <trkpt lat="47.99043" lon="6.93854">
        <ele>1157.1</ele>
        <time>2022-05-26T11:18:45Z</time>
      </trkpt>
      <trkpt lat="47.9905" lon="6.93842">
        <ele>1156.5</ele>
        <time>2022-05-26T11:18:57Z</time>
      </trkpt>
      <trkpt lat="47.99052" lon="6.93825">
        <ele>1156.5</ele>
        <time>2022-05-26T11:19:01Z</time>
      </trkpt>
      <trkpt lat="47.99053" lon="6.93811">
        <ele>1155.1</ele>
        <time>2022-05-26T11:19:04Z</time>
      </trkpt>
      <trkpt lat="47.99055" lon="6.93796">
        <ele>1152.6</ele>
        <time>2022-05-26T11:19:07Z</time>
      </trkpt>
      <trkpt lat="47.99055" lon="6.93777">
        <ele>1150.1</ele>
        <time>2022-05-26T11:19:10Z</time>
      </trkpt>
      <trkpt lat="47.99056" lon="6.93763">
        <ele>1150</ele>
        <time>2022-05-26T11:19:12Z</time>
      </trkpt>
      <trkpt lat="47.99057" lon="6.93748">
        <ele>1146.5</ele>
        <time>2022-05-26T11:19:15Z</time>
      </trkpt>
      <trkpt lat="47.99066" lon="6.93743">
        <ele>1142.9</ele>
        <time>2022-05-26T11:19:19Z</time>
      </trkpt>
      <trkpt lat="47.99078" lon="6.9375">
        <ele>1143.5</ele>
        <time>2022-05-26T11:19:23Z</time>
      </trkpt>
      <trkpt lat="47.99087" lon="6.93755">
        <ele>1141.3</ele>
        <time>2022-05-26T11:19:25Z</time>
      </trkpt>
      <trkpt lat="47.99095" lon="6.93762">
        <ele>1139.4</ele>
        <time>2022-05-26T11:19:27Z</time>
      </trkpt>
      <trkpt lat="47.99106" lon="6.93765">
        <ele>1138.2</ele>
        <time>2022-05-26T11:19:29Z</time>
      </trkpt>
      <trkpt lat="47.99118" lon="6.93767">
        <ele>1139</ele>
        <time>2022-05-26T11:19:31Z</time>
      </trkpt>
      <trkpt lat="47.99128" lon="6.93771">
        <ele>1135.9</ele>
        <time>2022-05-26T11:19:33Z</time>
      </trkpt>
      <trkpt lat="47.99137" lon="6.93776">
        <ele>1133.5</ele>
        <time>2022-05-26T11:19:35Z</time>
      </trkpt>
      <trkpt lat="47.99147" lon="6.9378">
        <ele>1133.3</ele>
        <time>2022-05-26T11:19:37Z</time>
      </trkpt>
      <trkpt lat="47.99159" lon="6.93786">
        <ele>1132.9</ele>
        <time>2022-05-26T11:19:39Z</time>
      </trkpt>
      <trkpt lat="47.9917" lon="6.93791">
        <ele>1130.6</ele>
        <time>2022-05-26T11:19:41Z</time>
      </trkpt>
      <trkpt lat="47.99181" lon="6.93798">
        <ele>1129.9</ele>
        <time>2022-05-26T11:19:43Z</time>
      </trkpt>
      <trkpt lat="47.9919" lon="6.93804">
        <ele>1128.6</ele>
        <time>2022-05-26T11:19:45Z</time>
      </trkpt>
      <trkpt lat="47.99199" lon="6.93811">
        <ele>1126.5</ele>
        <time>2022-05-26T11:19:47Z</time>
      </trkpt>
      <trkpt lat="47.9921" lon="6.93819">
        <ele>1124.5</ele>
        <time>2022-05-26T11:19:49Z</time>
      </trkpt>
      <trkpt lat="47.99223" lon="6.93833">
        <ele>1124.7</ele>
        <time>2022-05-26T11:19:51Z</time>
      </trkpt>
      <trkpt lat="47.99235" lon="6.93843">
        <ele>1123.4</ele>
        <time>2022-05-26T11:19:53Z</time>
      </trkpt>
      <trkpt lat="47.99246" lon="6.93851">
        <ele>1120.2</ele>
        <time>2022-05-26T11:19:55Z</time>
      </trkpt>
      <trkpt lat="47.99257" lon="6.93863">
        <ele>1117.8</ele>
        <time>2022-05-26T11:19:57Z</time>
      </trkpt>
      <trkpt lat="47.99268" lon="6.93874">
        <ele>1115.1</ele>
        <time>2022-05-26T11:19:59Z</time>
      </trkpt>
      <trkpt lat="47.99278" lon="6.93883">
        <ele>1113.5</ele>
        <time>2022-05-26T11:20:01Z</time>
      </trkpt>
      <trkpt lat="47.9929" lon="6.93885">
        <ele>1112.9</ele>
        <time>2022-05-26T11:20:04Z</time>
      </trkpt>
      <trkpt lat="47.99301" lon="6.93891">
        <ele>1110.6</ele>
        <time>2022-05-26T11:20:08Z</time>
      </trkpt>
      <trkpt lat="47.99312" lon="6.93894">
        <ele>1107.9</ele>
        <time>2022-05-26T11:20:11Z</time>
      </trkpt>
      <trkpt lat="47.99323" lon="6.93901">
        <ele>1107.7</ele>
        <time>2022-05-26T11:20:14Z</time>
      </trkpt>
      <trkpt lat="47.99334" lon="6.93911">
        <ele>1104.2</ele>
        <time>2022-05-26T11:20:18Z</time>
      </trkpt>
      <trkpt lat="47.99344" lon="6.93914">
        <ele>1101.6</ele>
        <time>2022-05-26T11:20:20Z</time>
      </trkpt>
      <trkpt lat="47.99356" lon="6.93917">
        <ele>1100.1</ele>
        <time>2022-05-26T11:20:22Z</time>
      </trkpt>
      <trkpt lat="47.99367" lon="6.93921">
        <ele>1101.4</ele>
        <time>2022-05-26T11:20:24Z</time>
      </trkpt>
      <trkpt lat="47.99378" lon="6.93928">
        <ele>1101.6</ele>
        <time>2022-05-26T11:20:26Z</time>
      </trkpt>
      <trkpt lat="47.99386" lon="6.93935">
        <ele>1096.5</ele>
        <time>2022-05-26T11:20:28Z</time>
      </trkpt>
      <trkpt lat="47.99397" lon="6.93945">
        <ele>1094.8</ele>
        <time>2022-05-26T11:20:31Z</time>
      </trkpt>
      <trkpt lat="47.99406" lon="6.9395">
        <ele>1092.6</ele>
        <time>2022-05-26T11:20:34Z</time>
      </trkpt>
      <trkpt lat="47.99416" lon="6.93953">
        <ele>1090.9</ele>
        <time>2022-05-26T11:20:37Z</time>
      </trkpt>
      <trkpt lat="47.99425" lon="6.93961">
        <ele>1090.7</ele>
        <time>2022-05-26T11:20:41Z</time>
      </trkpt>
      <trkpt lat="47.99437" lon="6.93969">
        <ele>1089.4</ele>
        <time>2022-05-26T11:20:44Z</time>
      </trkpt>
      <trkpt lat="47.99448" lon="6.93975">
        <ele>1087.8</ele>
        <time>2022-05-26T11:20:47Z</time>
      </trkpt>
      <trkpt lat="47.99457" lon="6.93978">
        <ele>1085.8</ele>
        <time>2022-05-26T11:20:50Z</time>
      </trkpt>
      <trkpt lat="47.9947" lon="6.93984">
        <ele>1082.1</ele>
        <time>2022-05-26T11:20:53Z</time>
      </trkpt>
      <trkpt lat="47.99478" lon="6.93987">
        <ele>1082.2</ele>
        <time>2022-05-26T11:20:56Z</time>
      </trkpt>
      <trkpt lat="47.99487" lon="6.93991">
        <ele>1081.5</ele>
        <time>2022-05-26T11:21:01Z</time>
      </trkpt>
      <trkpt lat="47.99497" lon="6.93999">
        <ele>1078.9</ele>
        <time>2022-05-26T11:21:06Z</time>
      </trkpt>
      <trkpt lat="47.99505" lon="6.94005">
        <ele>1078.4</ele>
        <time>2022-05-26T11:21:10Z</time>
      </trkpt>
      <trkpt lat="47.99516" lon="6.9401">
        <ele>1077.9</ele>
        <time>2022-05-26T11:21:14Z</time>
      </trkpt>
      <trkpt lat="47.99524" lon="6.94018">
        <ele>1076.7</ele>
        <time>2022-05-26T11:21:17Z</time>
      </trkpt>
      <trkpt lat="47.99532" lon="6.94026">
        <ele>1073.7</ele>
        <time>2022-05-26T11:21:25Z</time>
      </trkpt>
      <trkpt lat="47.99542" lon="6.94031">
        <ele>1071.9</ele>
        <time>2022-05-26T11:21:29Z</time>
      </trkpt>
      <trkpt lat="47.99552" lon="6.94033">
        <ele>1068.9</ele>
        <time>2022-05-26T11:21:34Z</time>
      </trkpt>
      <trkpt lat="47.99563" lon="6.94038">
        <ele>1067.4</ele>
        <time>2022-05-26T11:21:39Z</time>
      </trkpt>
      <trkpt lat="47.99571" lon="6.94043">
        <ele>1066</ele>
        <time>2022-05-26T11:21:42Z</time>
      </trkpt>
      <trkpt lat="47.99582" lon="6.94047">
        <ele>1063.6</ele>
        <time>2022-05-26T11:21:46Z</time>
      </trkpt>
      <trkpt lat="47.99593" lon="6.94051">
        <ele>1066</ele>
        <time>2022-05-26T11:21:49Z</time>
      </trkpt>
      <trkpt lat="47.99606" lon="6.94052">
        <ele>1064</ele>
        <time>2022-05-26T11:21:51Z</time>
      </trkpt>
      <trkpt lat="47.99617" lon="6.94052">
        <ele>1062</ele>
        <time>2022-05-26T11:21:53Z</time>
      </trkpt>
      <trkpt lat="47.99627" lon="6.94054">
        <ele>1059.7</ele>
        <time>2022-05-26T11:21:55Z</time>
      </trkpt>
      <trkpt lat="47.99638" lon="6.9406">
        <ele>1057.3</ele>
        <time>2022-05-26T11:21:58Z</time>
      </trkpt>
      <trkpt lat="47.99647" lon="6.94067">
        <ele>1057.5</ele>
        <time>2022-05-26T11:22:02Z</time>
      </trkpt>
      <trkpt lat="47.99657" lon="6.94074">
        <ele>1055</ele>
        <time>2022-05-26T11:22:05Z</time>
      </trkpt>
      <trkpt lat="47.99667" lon="6.94078">
        <ele>1054.5</ele>
        <time>2022-05-26T11:22:09Z</time>
      </trkpt>
      <trkpt lat="47.99677" lon="6.94083">
        <ele>1053.6</ele>
        <time>2022-05-26T11:22:12Z</time>
      </trkpt>
      <trkpt lat="47.99686" lon="6.94087">
        <ele>1053.8</ele>
        <time>2022-05-26T11:22:14Z</time>
      </trkpt>
      <trkpt lat="47.99696" lon="6.94089">
        <ele>1050.6</ele>
        <time>2022-05-26T11:22:17Z</time>
      </trkpt>
      <trkpt lat="47.99706" lon="6.94088">
        <ele>1049.6</ele>
        <time>2022-05-26T11:22:22Z</time>
      </trkpt>
      <trkpt lat="47.99707" lon="6.94088">
        <ele>1049.5</ele>
        <time>2022-05-26T11:22:24Z</time>
      </trkpt>
      <trkpt lat="47.99707" lon="6.94089">
        <ele>1049.3</ele>
        <time>2022-05-26T11:22:34Z</time>
      </trkpt>
      <trkpt lat="47.99711" lon="6.94091">
        <ele>1049.2</ele>
        <time>2022-05-26T11:22:40Z</time>
      </trkpt>
      <trkpt lat="47.9972" lon="6.94098">
        <ele>1047.7</ele>
        <time>2022-05-26T11:22:46Z</time>
      </trkpt>
      <trkpt lat="47.9973" lon="6.94106">
        <ele>1046.8</ele>
        <time>2022-05-26T11:22:50Z</time>
      </trkpt>
      <trkpt lat="47.99736" lon="6.94118">
        <ele>1044.8</ele>
        <time>2022-05-26T11:22:54Z</time>
      </trkpt>
      <trkpt lat="47.99741" lon="6.94129">
        <ele>1042.2</ele>
        <time>2022-05-26T11:22:56Z</time>
      </trkpt>
      <trkpt lat="47.99747" lon="6.94144">
        <ele>1039.5</ele>
        <time>2022-05-26T11:22:58Z</time>
      </trkpt>
      <trkpt lat="47.99754" lon="6.94158">
        <ele>1037.4</ele>
        <time>2022-05-26T11:23:00Z</time>
      </trkpt>
      <trkpt lat="47.99761" lon="6.94168">
        <ele>1036</ele>
        <time>2022-05-26T11:23:02Z</time>
      </trkpt>
      <trkpt lat="47.99774" lon="6.94171">
        <ele>1037.5</ele>
        <time>2022-05-26T11:23:04Z</time>
      </trkpt>
      <trkpt lat="47.99787" lon="6.94168">
        <ele>1038.9</ele>
        <time>2022-05-26T11:23:06Z</time>
      </trkpt>
      <trkpt lat="47.99798" lon="6.94164">
        <ele>1038.1</ele>
        <time>2022-05-26T11:23:08Z</time>
      </trkpt>
      <trkpt lat="47.99807" lon="6.94161">
        <ele>1034.5</ele>
        <time>2022-05-26T11:23:10Z</time>
      </trkpt>
      <trkpt lat="47.99818" lon="6.94159">
        <ele>1035.6</ele>
        <time>2022-05-26T11:23:12Z</time>
      </trkpt>
      <trkpt lat="47.9983" lon="6.94157">
        <ele>1035.1</ele>
        <time>2022-05-26T11:23:14Z</time>
      </trkpt>
      <trkpt lat="47.99841" lon="6.94157">
        <ele>1034</ele>
        <time>2022-05-26T11:23:16Z</time>
      </trkpt>
      <trkpt lat="47.99852" lon="6.94157">
        <ele>1034.9</ele>
        <time>2022-05-26T11:23:18Z</time>
      </trkpt>
      <trkpt lat="47.99863" lon="6.94161">
        <ele>1033.6</ele>
        <time>2022-05-26T11:23:20Z</time>
      </trkpt>
      <trkpt lat="47.99873" lon="6.94165">
        <ele>1030.7</ele>
        <time>2022-05-26T11:23:22Z</time>
      </trkpt>
      <trkpt lat="47.99885" lon="6.94169">
        <ele>1029.4</ele>
        <time>2022-05-26T11:23:24Z</time>
      </trkpt>
      <trkpt lat="47.99896" lon="6.94177">
        <ele>1027.5</ele>
        <time>2022-05-26T11:23:26Z</time>
      </trkpt>
      <trkpt lat="47.99907" lon="6.94185">
        <ele>1024.6</ele>
        <time>2022-05-26T11:23:28Z</time>
      </trkpt>
      <trkpt lat="47.99918" lon="6.94189">
        <ele>1022.4</ele>
        <time>2022-05-26T11:23:30Z</time>
      </trkpt>
      <trkpt lat="47.99929" lon="6.94188">
        <ele>1022.5</ele>
        <time>2022-05-26T11:23:32Z</time>
      </trkpt>
      <trkpt lat="47.99936" lon="6.94174">
        <ele>1021.6</ele>
        <time>2022-05-26T11:23:35Z</time>
      </trkpt>
      <trkpt lat="47.99936" lon="6.94159">
        <ele>1016.2</ele>
        <time>2022-05-26T11:23:38Z</time>
      </trkpt>
      <trkpt lat="47.9993" lon="6.94143">
        <ele>1013.3</ele>
        <time>2022-05-26T11:23:40Z</time>
      </trkpt>
      <trkpt lat="47.99924" lon="6.94125">
        <ele>1012.9</ele>
        <time>2022-05-26T11:23:42Z</time>
      </trkpt>
      <trkpt lat="47.99923" lon="6.94108">
        <ele>1011.1</ele>
        <time>2022-05-26T11:23:44Z</time>
      </trkpt>
      <trkpt lat="47.99923" lon="6.94095">
        <ele>1010.7</ele>
        <time>2022-05-26T11:23:49Z</time>
      </trkpt>
      <trkpt lat="47.99923" lon="6.94094">
        <ele>1009.9</ele>
        <time>2022-05-26T11:23:58Z</time>
      </trkpt>
      <trkpt lat="47.99923" lon="6.94093">
        <ele>1010.3</ele>
        <time>2022-05-26T11:24:10Z</time>
      </trkpt>
      <trkpt lat="47.99923" lon="6.9409">
        <ele>1010.2</ele>
        <time>2022-05-26T11:24:15Z</time>
      </trkpt>
      <trkpt lat="47.99924" lon="6.9409">
        <ele>1010.6</ele>
        <time>2022-05-26T11:24:19Z</time>
      </trkpt>
      <trkpt lat="47.99924" lon="6.94089">
        <ele>1010.3</ele>
        <time>2022-05-26T11:24:22Z</time>
      </trkpt>
      <trkpt lat="47.99931" lon="6.941">
        <ele>1009.9</ele>
        <time>2022-05-26T11:24:36Z</time>
      </trkpt>
      <trkpt lat="47.99938" lon="6.94109">
        <ele>1007</ele>
        <time>2022-05-26T11:24:39Z</time>
      </trkpt>
      <trkpt lat="47.99945" lon="6.94117">
        <ele>1003.8</ele>
        <time>2022-05-26T11:24:42Z</time>
      </trkpt>
      <trkpt lat="47.99956" lon="6.94125">
        <ele>1002.8</ele>
        <time>2022-05-26T11:24:46Z</time>
      </trkpt>
      <trkpt lat="47.99964" lon="6.94132">
        <ele>1002.1</ele>
        <time>2022-05-26T11:24:49Z</time>
      </trkpt>
      <trkpt lat="47.99974" lon="6.94141">
        <ele>999.5</ele>
        <time>2022-05-26T11:24:52Z</time>
      </trkpt>
      <trkpt lat="47.99982" lon="6.94149">
        <ele>999.1</ele>
        <time>2022-05-26T11:24:55Z</time>
      </trkpt>
      <trkpt lat="47.99991" lon="6.94162">
        <ele>997.6</ele>
        <time>2022-05-26T11:24:58Z</time>
      </trkpt>
      <trkpt lat="47.99999" lon="6.9417">
        <ele>995.8</ele>
        <time>2022-05-26T11:25:00Z</time>
      </trkpt>
      <trkpt lat="48.00007" lon="6.94177">
        <ele>993.5</ele>
        <time>2022-05-26T11:25:03Z</time>
      </trkpt>
      <trkpt lat="48.00017" lon="6.94188">
        <ele>991.1</ele>
        <time>2022-05-26T11:25:07Z</time>
      </trkpt>
      <trkpt lat="48.00024" lon="6.94198">
        <ele>989.8</ele>
        <time>2022-05-26T11:25:09Z</time>
      </trkpt>
      <trkpt lat="48.0003" lon="6.94215">
        <ele>988.2</ele>
        <time>2022-05-26T11:25:12Z</time>
      </trkpt>
      <trkpt lat="48.00035" lon="6.94226">
        <ele>987.7</ele>
        <time>2022-05-26T11:25:14Z</time>
      </trkpt>
      <trkpt lat="48.00041" lon="6.9424">
        <ele>985.8</ele>
        <time>2022-05-26T11:25:17Z</time>
      </trkpt>
      <trkpt lat="48.00046" lon="6.94251">
        <ele>984.9</ele>
        <time>2022-05-26T11:25:20Z</time>
      </trkpt>
      <trkpt lat="48.00052" lon="6.94269">
        <ele>980</ele>
        <time>2022-05-26T11:25:23Z</time>
      </trkpt>
      <trkpt lat="48.00054" lon="6.94286">
        <ele>979.1</ele>
        <time>2022-05-26T11:25:25Z</time>
      </trkpt>
      <trkpt lat="48.00053" lon="6.94305">
        <ele>978.1</ele>
        <time>2022-05-26T11:25:27Z</time>
      </trkpt>
      <trkpt lat="48.00049" lon="6.94329">
        <ele>977.3</ele>
        <time>2022-05-26T11:25:29Z</time>
      </trkpt>
      <trkpt lat="48.00045" lon="6.94342">
        <ele>976.7</ele>
        <time>2022-05-26T11:25:30Z</time>
      </trkpt>
      <trkpt lat="48.0004" lon="6.94355">
        <ele>975.9</ele>
        <time>2022-05-26T11:25:31Z</time>
      </trkpt>
      <trkpt lat="48.00036" lon="6.94368">
        <ele>974.2</ele>
        <time>2022-05-26T11:25:32Z</time>
      </trkpt>
      <trkpt lat="48.00029" lon="6.94392">
        <ele>972.7</ele>
        <time>2022-05-26T11:25:34Z</time>
      </trkpt>
      <trkpt lat="48.00024" lon="6.94415">
        <ele>972</ele>
        <time>2022-05-26T11:25:36Z</time>
      </trkpt>
      <trkpt lat="48.0003" lon="6.94434">
        <ele>970.2</ele>
        <time>2022-05-26T11:25:38Z</time>
      </trkpt>
      <trkpt lat="48.00044" lon="6.94447">
        <ele>968.9</ele>
        <time>2022-05-26T11:25:40Z</time>
      </trkpt>
      <trkpt lat="48.00057" lon="6.94459">
        <ele>967</ele>
        <time>2022-05-26T11:25:42Z</time>
      </trkpt>
      <trkpt lat="48.00062" lon="6.94475">
        <ele>965.1</ele>
        <time>2022-05-26T11:25:44Z</time>
      </trkpt>
      <trkpt lat="48.00058" lon="6.945">
        <ele>964.5</ele>
        <time>2022-05-26T11:25:46Z</time>
      </trkpt>
      <trkpt lat="48.00053" lon="6.94522">
        <ele>964.3</ele>
        <time>2022-05-26T11:25:48Z</time>
      </trkpt>
      <trkpt lat="48.00046" lon="6.94542">
        <ele>963.6</ele>
        <time>2022-05-26T11:25:50Z</time>
      </trkpt>
      <trkpt lat="48.00039" lon="6.94557">
        <ele>964.3</ele>
        <time>2022-05-26T11:25:53Z</time>
      </trkpt>
      <trkpt lat="48.00041" lon="6.94569">
        <ele>964.6</ele>
        <time>2022-05-26T11:25:58Z</time>
      </trkpt>
      <trkpt lat="48.00045" lon="6.94564">
        <ele>964.1</ele>
        <time>2022-05-26T11:26:08Z</time>
      </trkpt>
      <trkpt lat="48.00045" lon="6.94563">
        <ele>964</ele>
        <time>2022-05-26T11:27:07Z</time>
      </trkpt>
      <trkpt lat="48.00044" lon="6.94563">
        <ele>963.6</ele>
        <time>2022-05-26T11:27:44Z</time>
      </trkpt>
      <trkpt lat="48.00045" lon="6.94562">
        <ele>964.2</ele>
        <time>2022-05-26T11:28:43Z</time>
      </trkpt>
      <trkpt lat="48.00053" lon="6.94553">
        <ele>964.6</ele>
        <time>2022-05-26T11:28:52Z</time>
      </trkpt>
      <trkpt lat="48.00061" lon="6.94559">
        <ele>964.8</ele>
        <time>2022-05-26T11:29:02Z</time>
      </trkpt>
      <trkpt lat="48.00069" lon="6.94566">
        <ele>966.1</ele>
        <time>2022-05-26T11:29:10Z</time>
      </trkpt>
      <trkpt lat="48.00077" lon="6.94575">
        <ele>966.7</ele>
        <time>2022-05-26T11:29:19Z</time>
      </trkpt>
      <trkpt lat="48.00077" lon="6.94576">
        <ele>966.8</ele>
        <time>2022-05-26T11:29:22Z</time>
      </trkpt>
      <trkpt lat="48.00084" lon="6.94588">
        <ele>967.4</ele>
        <time>2022-05-26T11:29:34Z</time>
      </trkpt>
      <trkpt lat="48.00091" lon="6.94601">
        <ele>967.8</ele>
        <time>2022-05-26T11:29:39Z</time>
      </trkpt>
      <trkpt lat="48.00098" lon="6.94612">
        <ele>969.1</ele>
        <time>2022-05-26T11:29:45Z</time>
      </trkpt>
      <trkpt lat="48.00107" lon="6.94619">
        <ele>970.5</ele>
        <time>2022-05-26T11:29:51Z</time>
      </trkpt>
      <trkpt lat="48.00116" lon="6.94624">
        <ele>970.9</ele>
        <time>2022-05-26T11:29:56Z</time>
      </trkpt>
      <trkpt lat="48.00126" lon="6.94627">
        <ele>972.7</ele>
        <time>2022-05-26T11:30:02Z</time>
      </trkpt>
      <trkpt lat="48.00135" lon="6.94632">
        <ele>973.4</ele>
        <time>2022-05-26T11:30:09Z</time>
      </trkpt>
      <trkpt lat="48.00143" lon="6.9464">
        <ele>973.2</ele>
        <time>2022-05-26T11:30:15Z</time>
      </trkpt>
      <trkpt lat="48.00152" lon="6.94643">
        <ele>974.2</ele>
        <time>2022-05-26T11:30:20Z</time>
      </trkpt>
      <trkpt lat="48.00161" lon="6.94644">
        <ele>975.5</ele>
        <time>2022-05-26T11:30:25Z</time>
      </trkpt>
      <trkpt lat="48.0017" lon="6.94644">
        <ele>976.9</ele>
        <time>2022-05-26T11:30:30Z</time>
      </trkpt>
      <trkpt lat="48.0018" lon="6.94643">
        <ele>978.2</ele>
        <time>2022-05-26T11:30:35Z</time>
      </trkpt>
      <trkpt lat="48.0019" lon="6.94642">
        <ele>978.2</ele>
        <time>2022-05-26T11:30:41Z</time>
      </trkpt>
      <trkpt lat="48.002" lon="6.94646">
        <ele>979.1</ele>
        <time>2022-05-26T11:30:47Z</time>
      </trkpt>
      <trkpt lat="48.00209" lon="6.9465">
        <ele>979.5</ele>
        <time>2022-05-26T11:30:52Z</time>
      </trkpt>
      <trkpt lat="48.00219" lon="6.94652">
        <ele>981</ele>
        <time>2022-05-26T11:30:57Z</time>
      </trkpt>
      <trkpt lat="48.00227" lon="6.9466">
        <ele>982.1</ele>
        <time>2022-05-26T11:31:02Z</time>
      </trkpt>
      <trkpt lat="48.00235" lon="6.94668">
        <ele>982.4</ele>
        <time>2022-05-26T11:31:07Z</time>
      </trkpt>
      <trkpt lat="48.00242" lon="6.94677">
        <ele>983.3</ele>
        <time>2022-05-26T11:31:12Z</time>
      </trkpt>
      <trkpt lat="48.00252" lon="6.94683">
        <ele>984.7</ele>
        <time>2022-05-26T11:31:18Z</time>
      </trkpt>
      <trkpt lat="48.00262" lon="6.94686">
        <ele>984.9</ele>
        <time>2022-05-26T11:31:23Z</time>
      </trkpt>
      <trkpt lat="48.00271" lon="6.94687">
        <ele>985.3</ele>
        <time>2022-05-26T11:31:28Z</time>
      </trkpt>
      <trkpt lat="48.00281" lon="6.9469">
        <ele>986</ele>
        <time>2022-05-26T11:31:33Z</time>
      </trkpt>
      <trkpt lat="48.0029" lon="6.94693">
        <ele>987.7</ele>
        <time>2022-05-26T11:31:38Z</time>
      </trkpt>
      <trkpt lat="48.00299" lon="6.94695">
        <ele>988.6</ele>
        <time>2022-05-26T11:31:43Z</time>
      </trkpt>
      <trkpt lat="48.00308" lon="6.94697">
        <ele>989.3</ele>
        <time>2022-05-26T11:31:48Z</time>
      </trkpt>
      <trkpt lat="48.00318" lon="6.94701">
        <ele>990.4</ele>
        <time>2022-05-26T11:31:54Z</time>
      </trkpt>
      <trkpt lat="48.00326" lon="6.94704">
        <ele>991.6</ele>
        <time>2022-05-26T11:31:59Z</time>
      </trkpt>
      <trkpt lat="48.00336" lon="6.94705">
        <ele>992</ele>
        <time>2022-05-26T11:32:04Z</time>
      </trkpt>
      <trkpt lat="48.00346" lon="6.94707">
        <ele>992.9</ele>
        <time>2022-05-26T11:32:09Z</time>
      </trkpt>
      <trkpt lat="48.00355" lon="6.94712">
        <ele>993.8</ele>
        <time>2022-05-26T11:32:14Z</time>
      </trkpt>
      <trkpt lat="48.00365" lon="6.94715">
        <ele>995.1</ele>
        <time>2022-05-26T11:32:20Z</time>
      </trkpt>
      <trkpt lat="48.00375" lon="6.94719">
        <ele>995.6</ele>
        <time>2022-05-26T11:32:26Z</time>
      </trkpt>
      <trkpt lat="48.00383" lon="6.94725">
        <ele>997.9</ele>
        <time>2022-05-26T11:32:32Z</time>
      </trkpt>
      <trkpt lat="48.00393" lon="6.94725">
        <ele>999</ele>
        <time>2022-05-26T11:32:37Z</time>
      </trkpt>
      <trkpt lat="48.00402" lon="6.94728">
        <ele>999.4</ele>
        <time>2022-05-26T11:32:42Z</time>
      </trkpt>
      <trkpt lat="48.00412" lon="6.94731">
        <ele>1001</ele>
        <time>2022-05-26T11:32:48Z</time>
      </trkpt>
      <trkpt lat="48.00422" lon="6.94735">
        <ele>1001.8</ele>
        <time>2022-05-26T11:32:54Z</time>
      </trkpt>
      <trkpt lat="48.00432" lon="6.94738">
        <ele>1003.3</ele>
        <time>2022-05-26T11:33:00Z</time>
      </trkpt>
      <trkpt lat="48.00443" lon="6.94741">
        <ele>1004.1</ele>
        <time>2022-05-26T11:33:06Z</time>
      </trkpt>
      <trkpt lat="48.00452" lon="6.94745">
        <ele>1005.9</ele>
        <time>2022-05-26T11:33:11Z</time>
      </trkpt>
      <trkpt lat="48.00461" lon="6.94751">
        <ele>1007.2</ele>
        <time>2022-05-26T11:33:17Z</time>
      </trkpt>
      <trkpt lat="48.0047" lon="6.94756">
        <ele>1008.4</ele>
        <time>2022-05-26T11:33:23Z</time>
      </trkpt>
      <trkpt lat="48.00479" lon="6.94764">
        <ele>1010.1</ele>
        <time>2022-05-26T11:33:29Z</time>
      </trkpt>
      <trkpt lat="48.00485" lon="6.94774">
        <ele>1011.2</ele>
        <time>2022-05-26T11:33:35Z</time>
      </trkpt>
      <trkpt lat="48.00493" lon="6.94783">
        <ele>1012.3</ele>
        <time>2022-05-26T11:33:41Z</time>
      </trkpt>
      <trkpt lat="48.005" lon="6.94793">
        <ele>1014</ele>
        <time>2022-05-26T11:33:47Z</time>
      </trkpt>
      <trkpt lat="48.00507" lon="6.94802">
        <ele>1015.6</ele>
        <time>2022-05-26T11:33:53Z</time>
      </trkpt>
      <trkpt lat="48.00515" lon="6.94813">
        <ele>1016.4</ele>
        <time>2022-05-26T11:33:59Z</time>
      </trkpt>
      <trkpt lat="48.00522" lon="6.94823">
        <ele>1017.4</ele>
        <time>2022-05-26T11:34:05Z</time>
      </trkpt>
      <trkpt lat="48.00528" lon="6.94833">
        <ele>1018.7</ele>
        <time>2022-05-26T11:34:11Z</time>
      </trkpt>
      <trkpt lat="48.00535" lon="6.94844">
        <ele>1020.1</ele>
        <time>2022-05-26T11:34:17Z</time>
      </trkpt>
      <trkpt lat="48.00542" lon="6.94856">
        <ele>1021.1</ele>
        <time>2022-05-26T11:34:23Z</time>
      </trkpt>
      <trkpt lat="48.00546" lon="6.94868">
        <ele>1022.4</ele>
        <time>2022-05-26T11:34:29Z</time>
      </trkpt>
      <trkpt lat="48.00549" lon="6.94882">
        <ele>1023.6</ele>
        <time>2022-05-26T11:34:35Z</time>
      </trkpt>
      <trkpt lat="48.00555" lon="6.94892">
        <ele>1024.9</ele>
        <time>2022-05-26T11:34:40Z</time>
      </trkpt>
      <trkpt lat="48.00562" lon="6.94903">
        <ele>1026.1</ele>
        <time>2022-05-26T11:34:46Z</time>
      </trkpt>
      <trkpt lat="48.00566" lon="6.94915">
        <ele>1027.2</ele>
        <time>2022-05-26T11:34:52Z</time>
      </trkpt>
      <trkpt lat="48.00573" lon="6.94927">
        <ele>1028.1</ele>
        <time>2022-05-26T11:34:58Z</time>
      </trkpt>
      <trkpt lat="48.00579" lon="6.94938">
        <ele>1029.5</ele>
        <time>2022-05-26T11:35:04Z</time>
      </trkpt>
      <trkpt lat="48.00585" lon="6.94951">
        <ele>1031.3</ele>
        <time>2022-05-26T11:35:11Z</time>
      </trkpt>
      <trkpt lat="48.00592" lon="6.94961">
        <ele>1032</ele>
        <time>2022-05-26T11:35:17Z</time>
      </trkpt>
      <trkpt lat="48.00599" lon="6.94971">
        <ele>1033.2</ele>
        <time>2022-05-26T11:35:23Z</time>
      </trkpt>
      <trkpt lat="48.00604" lon="6.94983">
        <ele>1034.7</ele>
        <time>2022-05-26T11:35:29Z</time>
      </trkpt>
      <trkpt lat="48.0061" lon="6.94994">
        <ele>1035.7</ele>
        <time>2022-05-26T11:35:35Z</time>
      </trkpt>
      <trkpt lat="48.00615" lon="6.95007">
        <ele>1037</ele>
        <time>2022-05-26T11:35:41Z</time>
      </trkpt>
      <trkpt lat="48.00619" lon="6.95019">
        <ele>1038.2</ele>
        <time>2022-05-26T11:35:47Z</time>
      </trkpt>
      <trkpt lat="48.00623" lon="6.95034">
        <ele>1039.5</ele>
        <time>2022-05-26T11:35:53Z</time>
      </trkpt>
      <trkpt lat="48.00628" lon="6.95045">
        <ele>1040.1</ele>
        <time>2022-05-26T11:35:58Z</time>
      </trkpt>
      <trkpt lat="48.00631" lon="6.9506">
        <ele>1041.5</ele>
        <time>2022-05-26T11:36:03Z</time>
      </trkpt>
      <trkpt lat="48.00635" lon="6.95073">
        <ele>1042.4</ele>
        <time>2022-05-26T11:36:08Z</time>
      </trkpt>
      <trkpt lat="48.00638" lon="6.95086">
        <ele>1042.3</ele>
        <time>2022-05-26T11:36:13Z</time>
      </trkpt>
      <trkpt lat="48.00642" lon="6.95099">
        <ele>1043.1</ele>
        <time>2022-05-26T11:36:17Z</time>
      </trkpt>
      <trkpt lat="48.00651" lon="6.95108">
        <ele>1043.5</ele>
        <time>2022-05-26T11:36:22Z</time>
      </trkpt>
      <trkpt lat="48.0066" lon="6.95117">
        <ele>1043.5</ele>
        <time>2022-05-26T11:36:26Z</time>
      </trkpt>
      <trkpt lat="48.00669" lon="6.95125">
        <ele>1043</ele>
        <time>2022-05-26T11:36:29Z</time>
      </trkpt>
      <trkpt lat="48.00677" lon="6.95136">
        <ele>1042.5</ele>
        <time>2022-05-26T11:36:32Z</time>
      </trkpt>
      <trkpt lat="48.00684" lon="6.9515">
        <ele>1042.9</ele>
        <time>2022-05-26T11:36:35Z</time>
      </trkpt>
      <trkpt lat="48.00689" lon="6.95163">
        <ele>1044.4</ele>
        <time>2022-05-26T11:36:38Z</time>
      </trkpt>
      <trkpt lat="48.00694" lon="6.95175">
        <ele>1044.5</ele>
        <time>2022-05-26T11:36:41Z</time>
      </trkpt>
      <trkpt lat="48.00698" lon="6.95191">
        <ele>1045.4</ele>
        <time>2022-05-26T11:36:45Z</time>
      </trkpt>
      <trkpt lat="48.00703" lon="6.95206">
        <ele>1046.8</ele>
        <time>2022-05-26T11:36:49Z</time>
      </trkpt>
      <trkpt lat="48.0071" lon="6.9522">
        <ele>1046.7</ele>
        <time>2022-05-26T11:36:53Z</time>
      </trkpt>
      <trkpt lat="48.00715" lon="6.95236">
        <ele>1047.8</ele>
        <time>2022-05-26T11:36:57Z</time>
      </trkpt>
      <trkpt lat="48.00719" lon="6.95251">
        <ele>1047.9</ele>
        <time>2022-05-26T11:37:01Z</time>
      </trkpt>
      <trkpt lat="48.00719" lon="6.95266">
        <ele>1049.1</ele>
        <time>2022-05-26T11:37:05Z</time>
      </trkpt>
      <trkpt lat="48.00721" lon="6.95281">
        <ele>1050</ele>
        <time>2022-05-26T11:37:09Z</time>
      </trkpt>
      <trkpt lat="48.00721" lon="6.95296">
        <ele>1050.1</ele>
        <time>2022-05-26T11:37:13Z</time>
      </trkpt>
      <trkpt lat="48.00721" lon="6.95312">
        <ele>1050.5</ele>
        <time>2022-05-26T11:37:18Z</time>
      </trkpt>
      <trkpt lat="48.00719" lon="6.95327">
        <ele>1052.5</ele>
        <time>2022-05-26T11:37:23Z</time>
      </trkpt>
      <trkpt lat="48.00716" lon="6.95342">
        <ele>1052.9</ele>
        <time>2022-05-26T11:37:28Z</time>
      </trkpt>
      <trkpt lat="48.00714" lon="6.95356">
        <ele>1054.4</ele>
        <time>2022-05-26T11:37:33Z</time>
      </trkpt>
      <trkpt lat="48.00712" lon="6.95371">
        <ele>1055.6</ele>
        <time>2022-05-26T11:37:38Z</time>
      </trkpt>
      <trkpt lat="48.00707" lon="6.95383">
        <ele>1056.9</ele>
        <time>2022-05-26T11:37:43Z</time>
      </trkpt>
      <trkpt lat="48.00705" lon="6.95399">
        <ele>1057.9</ele>
        <time>2022-05-26T11:37:49Z</time>
      </trkpt>
      <trkpt lat="48.00702" lon="6.95413">
        <ele>1059.6</ele>
        <time>2022-05-26T11:37:54Z</time>
      </trkpt>
      <trkpt lat="48.00697" lon="6.95425">
        <ele>1060.3</ele>
        <time>2022-05-26T11:37:59Z</time>
      </trkpt>
      <trkpt lat="48.00691" lon="6.95436">
        <ele>1060.9</ele>
        <time>2022-05-26T11:38:05Z</time>
      </trkpt>
      <trkpt lat="48.00684" lon="6.95446">
        <ele>1062.2</ele>
        <time>2022-05-26T11:38:11Z</time>
      </trkpt>
      <trkpt lat="48.00677" lon="6.95457">
        <ele>1062.4</ele>
        <time>2022-05-26T11:38:16Z</time>
      </trkpt>
      <trkpt lat="48.0067" lon="6.95467">
        <ele>1063.6</ele>
        <time>2022-05-26T11:38:21Z</time>
      </trkpt>
      <trkpt lat="48.00663" lon="6.95478">
        <ele>1063.1</ele>
        <time>2022-05-26T11:38:26Z</time>
      </trkpt>
      <trkpt lat="48.00656" lon="6.95488">
        <ele>1065.1</ele>
        <time>2022-05-26T11:38:31Z</time>
      </trkpt>
      <trkpt lat="48.00649" lon="6.95498">
        <ele>1065.6</ele>
        <time>2022-05-26T11:38:36Z</time>
      </trkpt>
      <trkpt lat="48.00643" lon="6.95509">
        <ele>1066.6</ele>
        <time>2022-05-26T11:38:41Z</time>
      </trkpt>
      <trkpt lat="48.00637" lon="6.95522">
        <ele>1067.8</ele>
        <time>2022-05-26T11:38:47Z</time>
      </trkpt>
      <trkpt lat="48.00632" lon="6.95536">
        <ele>1068.9</ele>
        <time>2022-05-26T11:38:53Z</time>
      </trkpt>
      <trkpt lat="48.00628" lon="6.95548">
        <ele>1070.1</ele>
        <time>2022-05-26T11:38:58Z</time>
      </trkpt>
      <trkpt lat="48.00621" lon="6.95559">
        <ele>1071</ele>
        <time>2022-05-26T11:39:04Z</time>
      </trkpt>
      <trkpt lat="48.00615" lon="6.95571">
        <ele>1071.9</ele>
        <time>2022-05-26T11:39:10Z</time>
      </trkpt>
      <trkpt lat="48.00608" lon="6.95581">
        <ele>1073.5</ele>
        <time>2022-05-26T11:39:16Z</time>
      </trkpt>
      <trkpt lat="48.00602" lon="6.95591">
        <ele>1075.1</ele>
        <time>2022-05-26T11:39:22Z</time>
      </trkpt>
      <trkpt lat="48.00595" lon="6.95603">
        <ele>1076.1</ele>
        <time>2022-05-26T11:39:27Z</time>
      </trkpt>
      <trkpt lat="48.00587" lon="6.95612">
        <ele>1077.1</ele>
        <time>2022-05-26T11:39:33Z</time>
      </trkpt>
      <trkpt lat="48.00579" lon="6.9562">
        <ele>1077.8</ele>
        <time>2022-05-26T11:39:40Z</time>
      </trkpt>
      <trkpt lat="48.00571" lon="6.95628">
        <ele>1079.6</ele>
        <time>2022-05-26T11:39:45Z</time>
      </trkpt>
      <trkpt lat="48.00563" lon="6.95638">
        <ele>1080.3</ele>
        <time>2022-05-26T11:39:51Z</time>
      </trkpt>
      <trkpt lat="48.00555" lon="6.95647">
        <ele>1081.4</ele>
        <time>2022-05-26T11:39:56Z</time>
      </trkpt>
      <trkpt lat="48.00548" lon="6.95657">
        <ele>1082.9</ele>
        <time>2022-05-26T11:40:02Z</time>
      </trkpt>
      <trkpt lat="48.00542" lon="6.95668">
        <ele>1083.3</ele>
        <time>2022-05-26T11:40:08Z</time>
      </trkpt>
      <trkpt lat="48.00535" lon="6.95681">
        <ele>1084.9</ele>
        <time>2022-05-26T11:40:14Z</time>
      </trkpt>
      <trkpt lat="48.00529" lon="6.95692">
        <ele>1085.7</ele>
        <time>2022-05-26T11:40:20Z</time>
      </trkpt>
      <trkpt lat="48.00522" lon="6.957">
        <ele>1087.1</ele>
        <time>2022-05-26T11:40:26Z</time>
      </trkpt>
      <trkpt lat="48.00513" lon="6.95707">
        <ele>1088.6</ele>
        <time>2022-05-26T11:40:32Z</time>
      </trkpt>
      <trkpt lat="48.00503" lon="6.95713">
        <ele>1089.9</ele>
        <time>2022-05-26T11:40:38Z</time>
      </trkpt>
      <trkpt lat="48.00495" lon="6.95718">
        <ele>1091.4</ele>
        <time>2022-05-26T11:40:43Z</time>
      </trkpt>
      <trkpt lat="48.00485" lon="6.95723">
        <ele>1092.4</ele>
        <time>2022-05-26T11:40:48Z</time>
      </trkpt>
      <trkpt lat="48.00476" lon="6.95729">
        <ele>1092.5</ele>
        <time>2022-05-26T11:40:53Z</time>
      </trkpt>
      <trkpt lat="48.00467" lon="6.95733">
        <ele>1093.2</ele>
        <time>2022-05-26T11:40:57Z</time>
      </trkpt>
      <trkpt lat="48.00458" lon="6.9574">
        <ele>1094.4</ele>
        <time>2022-05-26T11:41:01Z</time>
      </trkpt>
      <trkpt lat="48.00448" lon="6.95745">
        <ele>1093.7</ele>
        <time>2022-05-26T11:41:05Z</time>
      </trkpt>
      <trkpt lat="48.00439" lon="6.9575">
        <ele>1093.5</ele>
        <time>2022-05-26T11:41:09Z</time>
      </trkpt>
      <trkpt lat="48.0043" lon="6.95754">
        <ele>1094.2</ele>
        <time>2022-05-26T11:41:13Z</time>
      </trkpt>
      <trkpt lat="48.00422" lon="6.95759">
        <ele>1094.4</ele>
        <time>2022-05-26T11:41:19Z</time>
      </trkpt>
      <trkpt lat="48.0042" lon="6.95762">
        <ele>1094.2</ele>
        <time>2022-05-26T11:41:24Z</time>
      </trkpt>
      <trkpt lat="48.00419" lon="6.95761">
        <ele>1094.5</ele>
        <time>2022-05-26T11:41:47Z</time>
      </trkpt>
      <trkpt lat="48.00419" lon="6.9576">
        <ele>1094.2</ele>
        <time>2022-05-26T11:41:50Z</time>
      </trkpt>
      <trkpt lat="48.00419" lon="6.95761">
        <ele>1094.2</ele>
        <time>2022-05-26T11:42:49Z</time>
      </trkpt>
      <trkpt lat="48.00418" lon="6.95761">
        <ele>1094</ele>
        <time>2022-05-26T11:44:21Z</time>
      </trkpt>
      <trkpt lat="48.00418" lon="6.95762">
        <ele>1094</ele>
        <time>2022-05-26T11:44:52Z</time>
      </trkpt>
      <trkpt lat="48.00418" lon="6.95763">
        <ele>1093.8</ele>
        <time>2022-05-26T11:45:37Z</time>
      </trkpt>
      <trkpt lat="48.00408" lon="6.95769">
        <ele>1094.1</ele>
        <time>2022-05-26T11:45:56Z</time>
      </trkpt>
      <trkpt lat="48.00399" lon="6.95775">
        <ele>1093.8</ele>
        <time>2022-05-26T11:46:00Z</time>
      </trkpt>
      <trkpt lat="48.00388" lon="6.95781">
        <ele>1093.9</ele>
        <time>2022-05-26T11:46:04Z</time>
      </trkpt>
      <trkpt lat="48.00378" lon="6.95785">
        <ele>1093.8</ele>
        <time>2022-05-26T11:46:08Z</time>
      </trkpt>
      <trkpt lat="48.00369" lon="6.95789">
        <ele>1093.4</ele>
        <time>2022-05-26T11:46:12Z</time>
      </trkpt>
      <trkpt lat="48.00359" lon="6.95798">
        <ele>1094.1</ele>
        <time>2022-05-26T11:46:16Z</time>
      </trkpt>
      <trkpt lat="48.00351" lon="6.95807">
        <ele>1093.3</ele>
        <time>2022-05-26T11:46:19Z</time>
      </trkpt>
      <trkpt lat="48.00344" lon="6.95819">
        <ele>1093</ele>
        <time>2022-05-26T11:46:22Z</time>
      </trkpt>
      <trkpt lat="48.00338" lon="6.95833">
        <ele>1093.4</ele>
        <time>2022-05-26T11:46:25Z</time>
      </trkpt>
      <trkpt lat="48.00332" lon="6.95848">
        <ele>1092.7</ele>
        <time>2022-05-26T11:46:28Z</time>
      </trkpt>
      <trkpt lat="48.00325" lon="6.95864">
        <ele>1093.4</ele>
        <time>2022-05-26T11:46:31Z</time>
      </trkpt>
      <trkpt lat="48.0032" lon="6.95876">
        <ele>1092.4</ele>
        <time>2022-05-26T11:46:33Z</time>
      </trkpt>
      <trkpt lat="48.00315" lon="6.95888">
        <ele>1090.9</ele>
        <time>2022-05-26T11:46:35Z</time>
      </trkpt>
      <trkpt lat="48.0031" lon="6.959">
        <ele>1091</ele>
        <time>2022-05-26T11:46:37Z</time>
      </trkpt>
      <trkpt lat="48.00305" lon="6.95914">
        <ele>1090.9</ele>
        <time>2022-05-26T11:46:39Z</time>
      </trkpt>
      <trkpt lat="48.003" lon="6.95929">
        <ele>1090.6</ele>
        <time>2022-05-26T11:46:41Z</time>
      </trkpt>
      <trkpt lat="48.00295" lon="6.95945">
        <ele>1088.1</ele>
        <time>2022-05-26T11:46:43Z</time>
      </trkpt>
      <trkpt lat="48.00291" lon="6.95959">
        <ele>1088.9</ele>
        <time>2022-05-26T11:46:45Z</time>
      </trkpt>
      <trkpt lat="48.00285" lon="6.95978">
        <ele>1087.7</ele>
        <time>2022-05-26T11:46:48Z</time>
      </trkpt>
      <trkpt lat="48.00282" lon="6.95994">
        <ele>1084.3</ele>
        <time>2022-05-26T11:46:50Z</time>
      </trkpt>
      <trkpt lat="48.00277" lon="6.96011">
        <ele>1086.8</ele>
        <time>2022-05-26T11:46:52Z</time>
      </trkpt>
      <trkpt lat="48.00272" lon="6.9603">
        <ele>1085.7</ele>
        <time>2022-05-26T11:46:54Z</time>
      </trkpt>
      <trkpt lat="48.00269" lon="6.96048">
        <ele>1083.6</ele>
        <time>2022-05-26T11:46:56Z</time>
      </trkpt>
      <trkpt lat="48.00265" lon="6.96062">
        <ele>1080.4</ele>
        <time>2022-05-26T11:46:58Z</time>
      </trkpt>
      <trkpt lat="48.00262" lon="6.9608">
        <ele>1081.8</ele>
        <time>2022-05-26T11:47:01Z</time>
      </trkpt>
      <trkpt lat="48.0026" lon="6.96098">
        <ele>1079</ele>
        <time>2022-05-26T11:47:03Z</time>
      </trkpt>
      <trkpt lat="48.00258" lon="6.96116">
        <ele>1076.4</ele>
        <time>2022-05-26T11:47:05Z</time>
      </trkpt>
      <trkpt lat="48.00256" lon="6.96133">
        <ele>1072.4</ele>
        <time>2022-05-26T11:47:07Z</time>
      </trkpt>
      <trkpt lat="48.00253" lon="6.96149">
        <ele>1071.9</ele>
        <time>2022-05-26T11:47:09Z</time>
      </trkpt>
      <trkpt lat="48.00251" lon="6.96164">
        <ele>1070</ele>
        <time>2022-05-26T11:47:11Z</time>
      </trkpt>
      <trkpt lat="48.00247" lon="6.96179">
        <ele>1070.8</ele>
        <time>2022-05-26T11:47:13Z</time>
      </trkpt>
      <trkpt lat="48.00245" lon="6.96194">
        <ele>1068</ele>
        <time>2022-05-26T11:47:15Z</time>
      </trkpt>
      <trkpt lat="48.00244" lon="6.9621">
        <ele>1069</ele>
        <time>2022-05-26T11:47:17Z</time>
      </trkpt>
      <trkpt lat="48.00244" lon="6.96227">
        <ele>1065.3</ele>
        <time>2022-05-26T11:47:19Z</time>
      </trkpt>
      <trkpt lat="48.00243" lon="6.9624">
        <ele>1063.4</ele>
        <time>2022-05-26T11:47:21Z</time>
      </trkpt>
      <trkpt lat="48.00242" lon="6.96255">
        <ele>1064.5</ele>
        <time>2022-05-26T11:47:23Z</time>
      </trkpt>
      <trkpt lat="48.0024" lon="6.96272">
        <ele>1061.5</ele>
        <time>2022-05-26T11:47:25Z</time>
      </trkpt>
      <trkpt lat="48.0024" lon="6.96289">
        <ele>1058.9</ele>
        <time>2022-05-26T11:47:27Z</time>
      </trkpt>
      <trkpt lat="48.00243" lon="6.96305">
        <ele>1054.8</ele>
        <time>2022-05-26T11:47:29Z</time>
      </trkpt>
      <trkpt lat="48.00246" lon="6.96319">
        <ele>1055.9</ele>
        <time>2022-05-26T11:47:31Z</time>
      </trkpt>
      <trkpt lat="48.00251" lon="6.96332">
        <ele>1052.4</ele>
        <time>2022-05-26T11:47:33Z</time>
      </trkpt>
      <trkpt lat="48.00257" lon="6.96348">
        <ele>1052.6</ele>
        <time>2022-05-26T11:47:35Z</time>
      </trkpt>
      <trkpt lat="48.00261" lon="6.96366">
        <ele>1048.5</ele>
        <time>2022-05-26T11:47:37Z</time>
      </trkpt>
      <trkpt lat="48.00267" lon="6.96384">
        <ele>1046.2</ele>
        <time>2022-05-26T11:47:39Z</time>
      </trkpt>
      <trkpt lat="48.0027" lon="6.96402">
        <ele>1048</ele>
        <time>2022-05-26T11:47:41Z</time>
      </trkpt>
      <trkpt lat="48.00274" lon="6.96419">
        <ele>1046.1</ele>
        <time>2022-05-26T11:47:43Z</time>
      </trkpt>
      <trkpt lat="48.00278" lon="6.96437">
        <ele>1042.4</ele>
        <time>2022-05-26T11:47:45Z</time>
      </trkpt>
      <trkpt lat="48.00282" lon="6.9645">
        <ele>1043.1</ele>
        <time>2022-05-26T11:47:47Z</time>
      </trkpt>
      <trkpt lat="48.0029" lon="6.96467">
        <ele>1041.5</ele>
        <time>2022-05-26T11:47:50Z</time>
      </trkpt>
      <trkpt lat="48.00295" lon="6.9648">
        <ele>1035.3</ele>
        <time>2022-05-26T11:47:52Z</time>
      </trkpt>
      <trkpt lat="48.00303" lon="6.96496">
        <ele>1036.3</ele>
        <time>2022-05-26T11:47:55Z</time>
      </trkpt>
      <trkpt lat="48.0031" lon="6.96508">
        <ele>1036.5</ele>
        <time>2022-05-26T11:47:57Z</time>
      </trkpt>
      <trkpt lat="48.0032" lon="6.96519">
        <ele>1033.3</ele>
        <time>2022-05-26T11:48:00Z</time>
      </trkpt>
      <trkpt lat="48.00329" lon="6.96527">
        <ele>1031</ele>
        <time>2022-05-26T11:48:02Z</time>
      </trkpt>
      <trkpt lat="48.00337" lon="6.96534">
        <ele>1030.4</ele>
        <time>2022-05-26T11:48:04Z</time>
      </trkpt>
      <trkpt lat="48.00346" lon="6.96545">
        <ele>1029.2</ele>
        <time>2022-05-26T11:48:06Z</time>
      </trkpt>
      <trkpt lat="48.00355" lon="6.96557">
        <ele>1027.6</ele>
        <time>2022-05-26T11:48:08Z</time>
      </trkpt>
      <trkpt lat="48.00365" lon="6.96568">
        <ele>1025.8</ele>
        <time>2022-05-26T11:48:10Z</time>
      </trkpt>
      <trkpt lat="48.00375" lon="6.96582">
        <ele>1023</ele>
        <time>2022-05-26T11:48:12Z</time>
      </trkpt>
      <trkpt lat="48.00384" lon="6.96596">
        <ele>1022.6</ele>
        <time>2022-05-26T11:48:14Z</time>
      </trkpt>
      <trkpt lat="48.00393" lon="6.96609">
        <ele>1016.5</ele>
        <time>2022-05-26T11:48:16Z</time>
      </trkpt>
      <trkpt lat="48.00402" lon="6.9662">
        <ele>1018.7</ele>
        <time>2022-05-26T11:48:18Z</time>
      </trkpt>
      <trkpt lat="48.0041" lon="6.96631">
        <ele>1017.9</ele>
        <time>2022-05-26T11:48:20Z</time>
      </trkpt>
      <trkpt lat="48.00421" lon="6.96639">
        <ele>1013.5</ele>
        <time>2022-05-26T11:48:23Z</time>
      </trkpt>
      <trkpt lat="48.00432" lon="6.96645">
        <ele>1011.2</ele>
        <time>2022-05-26T11:48:26Z</time>
      </trkpt>
      <trkpt lat="48.00441" lon="6.96648">
        <ele>1009.5</ele>
        <time>2022-05-26T11:48:28Z</time>
      </trkpt>
      <trkpt lat="48.00451" lon="6.96646">
        <ele>1006.2</ele>
        <time>2022-05-26T11:48:30Z</time>
      </trkpt>
      <trkpt lat="48.0046" lon="6.96643">
        <ele>1003.3</ele>
        <time>2022-05-26T11:48:32Z</time>
      </trkpt>
      <trkpt lat="48.00472" lon="6.9664">
        <ele>1003.4</ele>
        <time>2022-05-26T11:48:34Z</time>
      </trkpt>
      <trkpt lat="48.00486" lon="6.96639">
        <ele>1000.6</ele>
        <time>2022-05-26T11:48:36Z</time>
      </trkpt>
      <trkpt lat="48.00497" lon="6.96637">
        <ele>997.4</ele>
        <time>2022-05-26T11:48:37Z</time>
      </trkpt>
      <trkpt lat="48.00506" lon="6.96633">
        <ele>996.8</ele>
        <time>2022-05-26T11:48:38Z</time>
      </trkpt>
      <trkpt lat="48.00516" lon="6.96629">
        <ele>997.3</ele>
        <time>2022-05-26T11:48:39Z</time>
      </trkpt>
      <trkpt lat="48.00532" lon="6.9662">
        <ele>999</ele>
        <time>2022-05-26T11:48:41Z</time>
      </trkpt>
      <trkpt lat="48.0054" lon="6.96616">
        <ele>999.3</ele>
        <time>2022-05-26T11:48:43Z</time>
      </trkpt>
      <trkpt lat="48.00548" lon="6.96608">
        <ele>998.4</ele>
        <time>2022-05-26T11:48:47Z</time>
      </trkpt>
      <trkpt lat="48.0054" lon="6.96613">
        <ele>998.6</ele>
        <time>2022-05-26T11:48:53Z</time>
      </trkpt>
      <trkpt lat="48.00531" lon="6.96618">
        <ele>998.6</ele>
        <time>2022-05-26T11:49:11Z</time>
      </trkpt>
      <trkpt lat="48.00521" lon="6.96621">
        <ele>998.7</ele>
        <time>2022-05-26T11:49:17Z</time>
      </trkpt>
      <trkpt lat="48.00512" lon="6.96627">
        <ele>999.7</ele>
        <time>2022-05-26T11:49:21Z</time>
      </trkpt>
      <trkpt lat="48.00503" lon="6.96631">
        <ele>1000.4</ele>
        <time>2022-05-26T11:49:25Z</time>
      </trkpt>
      <trkpt lat="48.00493" lon="6.96632">
        <ele>1002.5</ele>
        <time>2022-05-26T11:49:30Z</time>
      </trkpt>
      <trkpt lat="48.00484" lon="6.96635">
        <ele>1003.4</ele>
        <time>2022-05-26T11:49:36Z</time>
      </trkpt>
      <trkpt lat="48.00474" lon="6.96635">
        <ele>1005.8</ele>
        <time>2022-05-26T11:49:43Z</time>
      </trkpt>
      <trkpt lat="48.00464" lon="6.96638">
        <ele>1007</ele>
        <time>2022-05-26T11:49:50Z</time>
      </trkpt>
      <trkpt lat="48.00454" lon="6.96639">
        <ele>1008.8</ele>
        <time>2022-05-26T11:49:57Z</time>
      </trkpt>
      <trkpt lat="48.00444" lon="6.96638">
        <ele>1009.8</ele>
        <time>2022-05-26T11:50:04Z</time>
      </trkpt>
      <trkpt lat="48.00435" lon="6.96631">
        <ele>1011.7</ele>
        <time>2022-05-26T11:50:10Z</time>
      </trkpt>
      <trkpt lat="48.00426" lon="6.96627">
        <ele>1013.5</ele>
        <time>2022-05-26T11:50:17Z</time>
      </trkpt>
      <trkpt lat="48.00417" lon="6.96624">
        <ele>1015</ele>
        <time>2022-05-26T11:50:24Z</time>
      </trkpt>
      <trkpt lat="48.00409" lon="6.96618">
        <ele>1015.7</ele>
        <time>2022-05-26T11:50:31Z</time>
      </trkpt>
      <trkpt lat="48.00401" lon="6.96611">
        <ele>1017.6</ele>
        <time>2022-05-26T11:50:38Z</time>
      </trkpt>
      <trkpt lat="48.00396" lon="6.96599">
        <ele>1018.8</ele>
        <time>2022-05-26T11:50:45Z</time>
      </trkpt>
      <trkpt lat="48.00388" lon="6.96591">
        <ele>1020.9</ele>
        <time>2022-05-26T11:50:53Z</time>
      </trkpt>
      <trkpt lat="48.00379" lon="6.96596">
        <ele>1022.7</ele>
        <time>2022-05-26T11:51:01Z</time>
      </trkpt>
      <trkpt lat="48.0038" lon="6.9661">
        <ele>1024.1</ele>
        <time>2022-05-26T11:51:08Z</time>
      </trkpt>
      <trkpt lat="48.00381" lon="6.96625">
        <ele>1025</ele>
        <time>2022-05-26T11:51:16Z</time>
      </trkpt>
      <trkpt lat="48.00381" lon="6.9664">
        <ele>1026</ele>
        <time>2022-05-26T11:51:23Z</time>
      </trkpt>
      <trkpt lat="48.00379" lon="6.96655">
        <ele>1027</ele>
        <time>2022-05-26T11:51:29Z</time>
      </trkpt>
      <trkpt lat="48.00379" lon="6.96669">
        <ele>1027.3</ele>
        <time>2022-05-26T11:51:34Z</time>
      </trkpt>
      <trkpt lat="48.00377" lon="6.96683">
        <ele>1028</ele>
        <time>2022-05-26T11:51:39Z</time>
      </trkpt>
      <trkpt lat="48.00376" lon="6.96699">
        <ele>1028.1</ele>
        <time>2022-05-26T11:51:44Z</time>
      </trkpt>
      <trkpt lat="48.00381" lon="6.96711">
        <ele>1029.7</ele>
        <time>2022-05-26T11:51:50Z</time>
      </trkpt>
      <trkpt lat="48.00387" lon="6.96722">
        <ele>1030.9</ele>
        <time>2022-05-26T11:51:55Z</time>
      </trkpt>
      <trkpt lat="48.00395" lon="6.96729">
        <ele>1032</ele>
        <time>2022-05-26T11:52:02Z</time>
      </trkpt>
      <trkpt lat="48.00401" lon="6.96739">
        <ele>1032.2</ele>
        <time>2022-05-26T11:52:08Z</time>
      </trkpt>
      <trkpt lat="48.00408" lon="6.96749">
        <ele>1033</ele>
        <time>2022-05-26T11:52:14Z</time>
      </trkpt>
      <trkpt lat="48.00413" lon="6.96761">
        <ele>1033.6</ele>
        <time>2022-05-26T11:52:20Z</time>
      </trkpt>
      <trkpt lat="48.0042" lon="6.96773">
        <ele>1034.5</ele>
        <time>2022-05-26T11:52:26Z</time>
      </trkpt>
      <trkpt lat="48.00431" lon="6.96773">
        <ele>1036.3</ele>
        <time>2022-05-26T11:52:32Z</time>
      </trkpt>
      <trkpt lat="48.0044" lon="6.96767">
        <ele>1037.1</ele>
        <time>2022-05-26T11:52:40Z</time>
      </trkpt>
      <trkpt lat="48.00449" lon="6.96768">
        <ele>1038.3</ele>
        <time>2022-05-26T11:52:46Z</time>
      </trkpt>
      <trkpt lat="48.00459" lon="6.96768">
        <ele>1039</ele>
        <time>2022-05-26T11:53:00Z</time>
      </trkpt>
      <trkpt lat="48.00468" lon="6.96767">
        <ele>1040.1</ele>
        <time>2022-05-26T11:53:11Z</time>
      </trkpt>
      <trkpt lat="48.00478" lon="6.96769">
        <ele>1040.8</ele>
        <time>2022-05-26T11:53:20Z</time>
      </trkpt>
      <trkpt lat="48.00487" lon="6.96769">
        <ele>1042.4</ele>
        <time>2022-05-26T11:53:30Z</time>
      </trkpt>
      <trkpt lat="48.00496" lon="6.96767">
        <ele>1044</ele>
        <time>2022-05-26T11:53:41Z</time>
      </trkpt>
      <trkpt lat="48.00505" lon="6.96763">
        <ele>1044.1</ele>
        <time>2022-05-26T11:53:50Z</time>
      </trkpt>
      <trkpt lat="48.00513" lon="6.96757">
        <ele>1046.1</ele>
        <time>2022-05-26T11:53:59Z</time>
      </trkpt>
      <trkpt lat="48.0052" lon="6.96747">
        <ele>1046.2</ele>
        <time>2022-05-26T11:54:10Z</time>
      </trkpt>
      <trkpt lat="48.00529" lon="6.96746">
        <ele>1047</ele>
        <time>2022-05-26T11:54:29Z</time>
      </trkpt>
      <trkpt lat="48.00538" lon="6.96741">
        <ele>1047.9</ele>
        <time>2022-05-26T11:54:43Z</time>
      </trkpt>
      <trkpt lat="48.00544" lon="6.96731">
        <ele>1049.7</ele>
        <time>2022-05-26T11:54:55Z</time>
      </trkpt>
      <trkpt lat="48.00552" lon="6.96723">
        <ele>1050.5</ele>
        <time>2022-05-26T11:55:09Z</time>
      </trkpt>
      <trkpt lat="48.00561" lon="6.96725">
        <ele>1051.7</ele>
        <time>2022-05-26T11:55:22Z</time>
      </trkpt>
      <trkpt lat="48.00569" lon="6.96718">
        <ele>1051.9</ele>
        <time>2022-05-26T11:55:34Z</time>
      </trkpt>
      <trkpt lat="48.00576" lon="6.96709">
        <ele>1052.7</ele>
        <time>2022-05-26T11:55:45Z</time>
      </trkpt>
      <trkpt lat="48.00585" lon="6.96705">
        <ele>1053.5</ele>
        <time>2022-05-26T11:55:55Z</time>
      </trkpt>
      <trkpt lat="48.00595" lon="6.96706">
        <ele>1055.2</ele>
        <time>2022-05-26T11:56:03Z</time>
      </trkpt>
      <trkpt lat="48.00603" lon="6.96702">
        <ele>1056.2</ele>
        <time>2022-05-26T11:56:12Z</time>
      </trkpt>
      <trkpt lat="48.00613" lon="6.96702">
        <ele>1057.2</ele>
        <time>2022-05-26T11:56:22Z</time>
      </trkpt>
      <trkpt lat="48.00622" lon="6.96702">
        <ele>1058.1</ele>
        <time>2022-05-26T11:56:31Z</time>
      </trkpt>
      <trkpt lat="48.00631" lon="6.96699">
        <ele>1059.2</ele>
        <time>2022-05-26T11:56:40Z</time>
      </trkpt>
      <trkpt lat="48.0064" lon="6.96698">
        <ele>1059.8</ele>
        <time>2022-05-26T11:56:50Z</time>
      </trkpt>
      <trkpt lat="48.00644" lon="6.96699">
        <ele>1060.4</ele>
        <time>2022-05-26T11:56:57Z</time>
      </trkpt>
      <trkpt lat="48.00644" lon="6.96698">
        <ele>1060.5</ele>
        <time>2022-05-26T11:56:58Z</time>
      </trkpt>
      <trkpt lat="48.00653" lon="6.96695">
        <ele>1062</ele>
        <time>2022-05-26T11:57:06Z</time>
      </trkpt>
      <trkpt lat="48.00663" lon="6.96693">
        <ele>1063.6</ele>
        <time>2022-05-26T11:57:14Z</time>
      </trkpt>
      <trkpt lat="48.00673" lon="6.9669">
        <ele>1064.3</ele>
        <time>2022-05-26T11:57:19Z</time>
      </trkpt>
      <trkpt lat="48.00682" lon="6.96685">
        <ele>1065.8</ele>
        <time>2022-05-26T11:57:25Z</time>
      </trkpt>
      <trkpt lat="48.00691" lon="6.96681">
        <ele>1066.6</ele>
        <time>2022-05-26T11:57:32Z</time>
      </trkpt>
      <trkpt lat="48.00701" lon="6.96685">
        <ele>1067.9</ele>
        <time>2022-05-26T11:57:38Z</time>
      </trkpt>
      <trkpt lat="48.00711" lon="6.96686">
        <ele>1069.1</ele>
        <time>2022-05-26T11:57:45Z</time>
      </trkpt>
      <trkpt lat="48.00721" lon="6.96686">
        <ele>1070.6</ele>
        <time>2022-05-26T11:57:52Z</time>
      </trkpt>
      <trkpt lat="48.00731" lon="6.96689">
        <ele>1070.9</ele>
        <time>2022-05-26T11:57:59Z</time>
      </trkpt>
      <trkpt lat="48.00739" lon="6.96693">
        <ele>1072.5</ele>
        <time>2022-05-26T11:58:06Z</time>
      </trkpt>
      <trkpt lat="48.00748" lon="6.967">
        <ele>1073.3</ele>
        <time>2022-05-26T11:58:13Z</time>
      </trkpt>
      <trkpt lat="48.00758" lon="6.96708">
        <ele>1074.6</ele>
        <time>2022-05-26T11:58:19Z</time>
      </trkpt>
      <trkpt lat="48.00766" lon="6.96716">
        <ele>1075.9</ele>
        <time>2022-05-26T11:58:24Z</time>
      </trkpt>
      <trkpt lat="48.00772" lon="6.96726">
        <ele>1076.9</ele>
        <time>2022-05-26T11:58:30Z</time>
      </trkpt>
      <trkpt lat="48.0078" lon="6.96734">
        <ele>1077.7</ele>
        <time>2022-05-26T11:58:35Z</time>
      </trkpt>
      <trkpt lat="48.00785" lon="6.96746">
        <ele>1079.8</ele>
        <time>2022-05-26T11:58:43Z</time>
      </trkpt>
      <trkpt lat="48.0079" lon="6.96759">
        <ele>1080.9</ele>
        <time>2022-05-26T11:58:50Z</time>
      </trkpt>
      <trkpt lat="48.00797" lon="6.96768">
        <ele>1081.6</ele>
        <time>2022-05-26T11:58:58Z</time>
      </trkpt>
      <trkpt lat="48.00799" lon="6.96769">
        <ele>1081.6</ele>
        <time>2022-05-26T11:59:03Z</time>
      </trkpt>
      <trkpt lat="48.00799" lon="6.9677">
        <ele>1081.8</ele>
        <time>2022-05-26T11:59:05Z</time>
      </trkpt>
      <trkpt lat="48.00805" lon="6.96781">
        <ele>1082.4</ele>
        <time>2022-05-26T11:59:14Z</time>
      </trkpt>
      <trkpt lat="48.00809" lon="6.96788">
        <ele>1083.6</ele>
        <time>2022-05-26T11:59:27Z</time>
      </trkpt>
      <trkpt lat="48.00815" lon="6.96801">
        <ele>1084.8</ele>
        <time>2022-05-26T11:59:36Z</time>
      </trkpt>
      <trkpt lat="48.0082" lon="6.96813">
        <ele>1085.9</ele>
        <time>2022-05-26T11:59:42Z</time>
      </trkpt>
      <trkpt lat="48.00825" lon="6.96824">
        <ele>1087</ele>
        <time>2022-05-26T11:59:48Z</time>
      </trkpt>
      <trkpt lat="48.00832" lon="6.96834">
        <ele>1088.1</ele>
        <time>2022-05-26T11:59:56Z</time>
      </trkpt>
      <trkpt lat="48.00836" lon="6.96846">
        <ele>1089.6</ele>
        <time>2022-05-26T12:00:06Z</time>
      </trkpt>
      <trkpt lat="48.00842" lon="6.96858">
        <ele>1090.4</ele>
        <time>2022-05-26T12:00:12Z</time>
      </trkpt>
      <trkpt lat="48.00848" lon="6.96868">
        <ele>1091.2</ele>
        <time>2022-05-26T12:00:17Z</time>
      </trkpt>
      <trkpt lat="48.00856" lon="6.96879">
        <ele>1092.2</ele>
        <time>2022-05-26T12:00:22Z</time>
      </trkpt>
      <trkpt lat="48.00863" lon="6.9689">
        <ele>1093.6</ele>
        <time>2022-05-26T12:00:28Z</time>
      </trkpt>
      <trkpt lat="48.00871" lon="6.96896">
        <ele>1094.5</ele>
        <time>2022-05-26T12:00:33Z</time>
      </trkpt>
      <trkpt lat="48.0088" lon="6.96902">
        <ele>1095.7</ele>
        <time>2022-05-26T12:00:38Z</time>
      </trkpt>
      <trkpt lat="48.00889" lon="6.96906">
        <ele>1096.9</ele>
        <time>2022-05-26T12:00:48Z</time>
      </trkpt>
      <trkpt lat="48.00899" lon="6.96909">
        <ele>1099.4</ele>
        <time>2022-05-26T12:00:54Z</time>
      </trkpt>
      <trkpt lat="48.00901" lon="6.96918">
        <ele>1100.6</ele>
        <time>2022-05-26T12:01:18Z</time>
      </trkpt>
      <trkpt lat="48.009" lon="6.96918">
        <ele>1100.6</ele>
        <time>2022-05-26T12:01:19Z</time>
      </trkpt>
      <trkpt lat="48.009" lon="6.96919">
        <ele>1100.8</ele>
        <time>2022-05-26T12:01:58Z</time>
      </trkpt>
      <trkpt lat="48.00899" lon="6.96919">
        <ele>1100.8</ele>
        <time>2022-05-26T12:02:12Z</time>
      </trkpt>
      <trkpt lat="48.009" lon="6.9692">
        <ele>1100.6</ele>
        <time>2022-05-26T12:02:31Z</time>
      </trkpt>
      <trkpt lat="48.009" lon="6.96921">
        <ele>1100.7</ele>
        <time>2022-05-26T12:02:40Z</time>
      </trkpt>
      <trkpt lat="48.009" lon="6.96922">
        <ele>1101.1</ele>
        <time>2022-05-26T12:03:25Z</time>
      </trkpt>
      <trkpt lat="48.00901" lon="6.96922">
        <ele>1100.9</ele>
        <time>2022-05-26T12:03:29Z</time>
      </trkpt>
      <trkpt lat="48.00902" lon="6.96921">
        <ele>1100.9</ele>
        <time>2022-05-26T12:03:33Z</time>
      </trkpt>
      <trkpt lat="48.00902" lon="6.96922">
        <ele>1100.7</ele>
        <time>2022-05-26T12:03:34Z</time>
      </trkpt>
      <trkpt lat="48.00911" lon="6.96917">
        <ele>1099.6</ele>
        <time>2022-05-26T12:03:40Z</time>
      </trkpt>
      <trkpt lat="48.00918" lon="6.96914">
        <ele>1099.6</ele>
        <time>2022-05-26T12:03:50Z</time>
      </trkpt>
      <trkpt lat="48.00924" lon="6.96917">
        <ele>1100</ele>
        <time>2022-05-26T12:03:58Z</time>
      </trkpt>
      <trkpt lat="48.00932" lon="6.96925">
        <ele>1101.4</ele>
        <time>2022-05-26T12:04:09Z</time>
      </trkpt>
      <trkpt lat="48.00941" lon="6.9693">
        <ele>1102.4</ele>
        <time>2022-05-26T12:04:16Z</time>
      </trkpt>
      <trkpt lat="48.00952" lon="6.96932">
        <ele>1102.9</ele>
        <time>2022-05-26T12:04:21Z</time>
      </trkpt>
      <trkpt lat="48.00961" lon="6.96931">
        <ele>1103.2</ele>
        <time>2022-05-26T12:04:31Z</time>
      </trkpt>
      <trkpt lat="48.0097" lon="6.96932">
        <ele>1105</ele>
        <time>2022-05-26T12:04:43Z</time>
      </trkpt>
      <trkpt lat="48.00979" lon="6.96932">
        <ele>1105.8</ele>
        <time>2022-05-26T12:04:53Z</time>
      </trkpt>
      <trkpt lat="48.00989" lon="6.96929">
        <ele>1107.5</ele>
        <time>2022-05-26T12:05:04Z</time>
      </trkpt>
      <trkpt lat="48.00997" lon="6.96935">
        <ele>1107.7</ele>
        <time>2022-05-26T12:05:10Z</time>
      </trkpt>
      <trkpt lat="48.01007" lon="6.96936">
        <ele>1109.2</ele>
        <time>2022-05-26T12:05:20Z</time>
      </trkpt>
      <trkpt lat="48.01016" lon="6.96937">
        <ele>1110.3</ele>
        <time>2022-05-26T12:05:33Z</time>
      </trkpt>
      <trkpt lat="48.01026" lon="6.96937">
        <ele>1110.9</ele>
        <time>2022-05-26T12:05:39Z</time>
      </trkpt>
      <trkpt lat="48.01036" lon="6.96938">
        <ele>1111.9</ele>
        <time>2022-05-26T12:05:43Z</time>
      </trkpt>
      <trkpt lat="48.01047" lon="6.9694">
        <ele>1113</ele>
        <time>2022-05-26T12:05:48Z</time>
      </trkpt>
      <trkpt lat="48.01056" lon="6.96939">
        <ele>1113.3</ele>
        <time>2022-05-26T12:05:53Z</time>
      </trkpt>
      <trkpt lat="48.01066" lon="6.96937">
        <ele>1114.6</ele>
        <time>2022-05-26T12:05:58Z</time>
      </trkpt>
      <trkpt lat="48.01075" lon="6.96936">
        <ele>1114.7</ele>
        <time>2022-05-26T12:06:03Z</time>
      </trkpt>
      <trkpt lat="48.01085" lon="6.96931">
        <ele>1115.3</ele>
        <time>2022-05-26T12:06:08Z</time>
      </trkpt>
      <trkpt lat="48.01091" lon="6.96921">
        <ele>1117</ele>
        <time>2022-05-26T12:06:13Z</time>
      </trkpt>
      <trkpt lat="48.01095" lon="6.96914">
        <ele>1117</ele>
        <time>2022-05-26T12:06:18Z</time>
      </trkpt>
      <trkpt lat="48.01098" lon="6.96901">
        <ele>1116</ele>
        <time>2022-05-26T12:06:28Z</time>
      </trkpt>
      <trkpt lat="48.01106" lon="6.96893">
        <ele>1114.2</ele>
        <time>2022-05-26T12:06:34Z</time>
      </trkpt>
      <trkpt lat="48.01116" lon="6.96889">
        <ele>1111.3</ele>
        <time>2022-05-26T12:06:38Z</time>
      </trkpt>
      <trkpt lat="48.01125" lon="6.96885">
        <ele>1112.3</ele>
        <time>2022-05-26T12:06:41Z</time>
      </trkpt>
      <trkpt lat="48.01135" lon="6.96885">
        <ele>1112.5</ele>
        <time>2022-05-26T12:06:46Z</time>
      </trkpt>
      <trkpt lat="48.01144" lon="6.96882">
        <ele>1114.7</ele>
        <time>2022-05-26T12:06:54Z</time>
      </trkpt>
      <trkpt lat="48.01154" lon="6.9688">
        <ele>1116.8</ele>
        <time>2022-05-26T12:07:10Z</time>
      </trkpt>
      <trkpt lat="48.0116" lon="6.9689">
        <ele>1118.6</ele>
        <time>2022-05-26T12:07:22Z</time>
      </trkpt>
      <trkpt lat="48.01154" lon="6.96901">
        <ele>1120.1</ele>
        <time>2022-05-26T12:07:31Z</time>
      </trkpt>
      <trkpt lat="48.01152" lon="6.96914">
        <ele>1121.8</ele>
        <time>2022-05-26T12:07:41Z</time>
      </trkpt>
      <trkpt lat="48.01146" lon="6.96924">
        <ele>1123.4</ele>
        <time>2022-05-26T12:07:51Z</time>
      </trkpt>
      <trkpt lat="48.01149" lon="6.96927">
        <ele>1124</ele>
        <time>2022-05-26T12:08:01Z</time>
      </trkpt>
      <trkpt lat="48.0115" lon="6.96927">
        <ele>1124.2</ele>
        <time>2022-05-26T12:08:19Z</time>
      </trkpt>
      <trkpt lat="48.01151" lon="6.96927">
        <ele>1124.1</ele>
        <time>2022-05-26T12:08:24Z</time>
      </trkpt>
      <trkpt lat="48.01151" lon="6.96928">
        <ele>1123.9</ele>
        <time>2022-05-26T12:08:48Z</time>
      </trkpt>
      <trkpt lat="48.01152" lon="6.96928">
        <ele>1123.8</ele>
        <time>2022-05-26T12:09:17Z</time>
      </trkpt>
      <trkpt lat="48.01152" lon="6.96927">
        <ele>1124</ele>
        <time>2022-05-26T12:09:25Z</time>
      </trkpt>
      <trkpt lat="48.01152" lon="6.96928">
        <ele>1123.9</ele>
        <time>2022-05-26T12:09:26Z</time>
      </trkpt>
      <trkpt lat="48.01161" lon="6.96931">
        <ele>1125.5</ele>
        <time>2022-05-26T12:09:44Z</time>
      </trkpt>
      <trkpt lat="48.01162" lon="6.96931">
        <ele>1125.4</ele>
        <time>2022-05-26T12:09:46Z</time>
      </trkpt>
      <trkpt lat="48.01171" lon="6.96934">
        <ele>1126.6</ele>
        <time>2022-05-26T12:10:01Z</time>
      </trkpt>
      <trkpt lat="48.0118" lon="6.96936">
        <ele>1127.8</ele>
        <time>2022-05-26T12:10:08Z</time>
      </trkpt>
      <trkpt lat="48.0119" lon="6.96938">
        <ele>1128.3</ele>
        <time>2022-05-26T12:10:14Z</time>
      </trkpt>
      <trkpt lat="48.01199" lon="6.96942">
        <ele>1129.2</ele>
        <time>2022-05-26T12:10:19Z</time>
      </trkpt>
      <trkpt lat="48.01209" lon="6.96945">
        <ele>1130.8</ele>
        <time>2022-05-26T12:10:25Z</time>
      </trkpt>
      <trkpt lat="48.01218" lon="6.96949">
        <ele>1131</ele>
        <time>2022-05-26T12:10:30Z</time>
      </trkpt>
      <trkpt lat="48.01227" lon="6.96951">
        <ele>1132.3</ele>
        <time>2022-05-26T12:10:35Z</time>
      </trkpt>
      <trkpt lat="48.01237" lon="6.96951">
        <ele>1133.3</ele>
        <time>2022-05-26T12:10:41Z</time>
      </trkpt>
      <trkpt lat="48.01246" lon="6.96943">
        <ele>1134.7</ele>
        <time>2022-05-26T12:10:47Z</time>
      </trkpt>
      <trkpt lat="48.01254" lon="6.96937">
        <ele>1134.7</ele>
        <time>2022-05-26T12:10:51Z</time>
      </trkpt>
      <trkpt lat="48.01263" lon="6.96929">
        <ele>1135.6</ele>
        <time>2022-05-26T12:10:55Z</time>
      </trkpt>
      <trkpt lat="48.01271" lon="6.96923">
        <ele>1135.8</ele>
        <time>2022-05-26T12:11:00Z</time>
      </trkpt>
      <trkpt lat="48.0128" lon="6.96916">
        <ele>1137.1</ele>
        <time>2022-05-26T12:11:05Z</time>
      </trkpt>
      <trkpt lat="48.01289" lon="6.96913">
        <ele>1138.2</ele>
        <time>2022-05-26T12:11:11Z</time>
      </trkpt>
      <trkpt lat="48.01298" lon="6.96909">
        <ele>1138.5</ele>
        <time>2022-05-26T12:11:15Z</time>
      </trkpt>
      <trkpt lat="48.01308" lon="6.96904">
        <ele>1139.2</ele>
        <time>2022-05-26T12:11:20Z</time>
      </trkpt>
      <trkpt lat="48.01316" lon="6.96894">
        <ele>1139.1</ele>
        <time>2022-05-26T12:11:26Z</time>
      </trkpt>
      <trkpt lat="48.01321" lon="6.9688">
        <ele>1137.8</ele>
        <time>2022-05-26T12:11:31Z</time>
      </trkpt>
      <trkpt lat="48.01325" lon="6.96863">
        <ele>1136.8</ele>
        <time>2022-05-26T12:11:35Z</time>
      </trkpt>
      <trkpt lat="48.01331" lon="6.9685">
        <ele>1137.5</ele>
        <time>2022-05-26T12:11:39Z</time>
      </trkpt>
      <trkpt lat="48.01341" lon="6.96846">
        <ele>1133.8</ele>
        <time>2022-05-26T12:11:42Z</time>
      </trkpt>
      <trkpt lat="48.01351" lon="6.96848">
        <ele>1132.6</ele>
        <time>2022-05-26T12:11:45Z</time>
      </trkpt>
      <trkpt lat="48.01364" lon="6.96846">
        <ele>1134.1</ele>
        <time>2022-05-26T12:11:48Z</time>
      </trkpt>
      <trkpt lat="48.01374" lon="6.96844">
        <ele>1132</ele>
        <time>2022-05-26T12:11:50Z</time>
      </trkpt>
      <trkpt lat="48.01385" lon="6.96844">
        <ele>1129.5</ele>
        <time>2022-05-26T12:11:52Z</time>
      </trkpt>
      <trkpt lat="48.01395" lon="6.96848">
        <ele>1127.2</ele>
        <time>2022-05-26T12:11:54Z</time>
      </trkpt>
      <trkpt lat="48.01406" lon="6.96854">
        <ele>1127.9</ele>
        <time>2022-05-26T12:11:56Z</time>
      </trkpt>
      <trkpt lat="48.0142" lon="6.96862">
        <ele>1127.2</ele>
        <time>2022-05-26T12:11:58Z</time>
      </trkpt>
      <trkpt lat="48.01436" lon="6.96871">
        <ele>1125.8</ele>
        <time>2022-05-26T12:12:00Z</time>
      </trkpt>
      <trkpt lat="48.01445" lon="6.96876">
        <ele>1123.8</ele>
        <time>2022-05-26T12:12:01Z</time>
      </trkpt>
      <trkpt lat="48.01453" lon="6.96882">
        <ele>1123.5</ele>
        <time>2022-05-26T12:12:02Z</time>
      </trkpt>
      <trkpt lat="48.01462" lon="6.96889">
        <ele>1123.8</ele>
        <time>2022-05-26T12:12:03Z</time>
      </trkpt>
      <trkpt lat="48.0147" lon="6.96896">
        <ele>1123.1</ele>
        <time>2022-05-26T12:12:04Z</time>
      </trkpt>
      <trkpt lat="48.01478" lon="6.96903">
        <ele>1122.3</ele>
        <time>2022-05-26T12:12:05Z</time>
      </trkpt>
      <trkpt lat="48.01486" lon="6.96911">
        <ele>1123.3</ele>
        <time>2022-05-26T12:12:06Z</time>
      </trkpt>
      <trkpt lat="48.01494" lon="6.96921">
        <ele>1125.1</ele>
        <time>2022-05-26T12:12:07Z</time>
      </trkpt>
      <trkpt lat="48.01501" lon="6.96931">
        <ele>1124.3</ele>
        <time>2022-05-26T12:12:08Z</time>
      </trkpt>
      <trkpt lat="48.01508" lon="6.96942">
        <ele>1121.5</ele>
        <time>2022-05-26T12:12:09Z</time>
      </trkpt>
      <trkpt lat="48.01515" lon="6.96954">
        <ele>1119.4</ele>
        <time>2022-05-26T12:12:10Z</time>
      </trkpt>
      <trkpt lat="48.01521" lon="6.96965">
        <ele>1119.1</ele>
        <time>2022-05-26T12:12:11Z</time>
      </trkpt>
      <trkpt lat="48.01528" lon="6.96975">
        <ele>1118.2</ele>
        <time>2022-05-26T12:12:12Z</time>
      </trkpt>
      <trkpt lat="48.01541" lon="6.96993">
        <ele>1115.5</ele>
        <time>2022-05-26T12:12:14Z</time>
      </trkpt>
      <trkpt lat="48.01548" lon="6.97001">
        <ele>1113.9</ele>
        <time>2022-05-26T12:12:15Z</time>
      </trkpt>
      <trkpt lat="48.01555" lon="6.97011">
        <ele>1110.6</ele>
        <time>2022-05-26T12:12:16Z</time>
      </trkpt>
      <trkpt lat="48.01561" lon="6.97021">
        <ele>1109.1</ele>
        <time>2022-05-26T12:12:17Z</time>
      </trkpt>
      <trkpt lat="48.01567" lon="6.97033">
        <ele>1108.6</ele>
        <time>2022-05-26T12:12:18Z</time>
      </trkpt>
      <trkpt lat="48.01573" lon="6.97045">
        <ele>1111.9</ele>
        <time>2022-05-26T12:12:19Z</time>
      </trkpt>
      <trkpt lat="48.01578" lon="6.97057">
        <ele>1112.4</ele>
        <time>2022-05-26T12:12:20Z</time>
      </trkpt>
      <trkpt lat="48.01584" lon="6.9707">
        <ele>1111.8</ele>
        <time>2022-05-26T12:12:21Z</time>
      </trkpt>
      <trkpt lat="48.01589" lon="6.97083">
        <ele>1109.3</ele>
        <time>2022-05-26T12:12:22Z</time>
      </trkpt>
      <trkpt lat="48.01595" lon="6.97096">
        <ele>1109.6</ele>
        <time>2022-05-26T12:12:23Z</time>
      </trkpt>
      <trkpt lat="48.016" lon="6.97109">
        <ele>1108.2</ele>
        <time>2022-05-26T12:12:24Z</time>
      </trkpt>
      <trkpt lat="48.01606" lon="6.97123">
        <ele>1106</ele>
        <time>2022-05-26T12:12:25Z</time>
      </trkpt>
      <trkpt lat="48.01611" lon="6.97137">
        <ele>1105.3</ele>
        <time>2022-05-26T12:12:26Z</time>
      </trkpt>
      <trkpt lat="48.01616" lon="6.9715">
        <ele>1103.9</ele>
        <time>2022-05-26T12:12:27Z</time>
      </trkpt>
      <trkpt lat="48.0162" lon="6.97162">
        <ele>1103.2</ele>
        <time>2022-05-26T12:12:28Z</time>
      </trkpt>
      <trkpt lat="48.01622" lon="6.97185">
        <ele>1103.5</ele>
        <time>2022-05-26T12:12:30Z</time>
      </trkpt>
      <trkpt lat="48.01614" lon="6.97203">
        <ele>1101.3</ele>
        <time>2022-05-26T12:12:32Z</time>
      </trkpt>
      <trkpt lat="48.01606" lon="6.9721">
        <ele>1100.7</ele>
        <time>2022-05-26T12:12:33Z</time>
      </trkpt>
      <trkpt lat="48.01591" lon="6.97219">
        <ele>1098.1</ele>
        <time>2022-05-26T12:12:35Z</time>
      </trkpt>
      <trkpt lat="48.01576" lon="6.97225">
        <ele>1096.6</ele>
        <time>2022-05-26T12:12:37Z</time>
      </trkpt>
      <trkpt lat="48.01561" lon="6.97231">
        <ele>1090.5</ele>
        <time>2022-05-26T12:12:39Z</time>
      </trkpt>
      <trkpt lat="48.01544" lon="6.97239">
        <ele>1089.1</ele>
        <time>2022-05-26T12:12:41Z</time>
      </trkpt>
      <trkpt lat="48.0153" lon="6.97254">
        <ele>1087.8</ele>
        <time>2022-05-26T12:12:43Z</time>
      </trkpt>
      <trkpt lat="48.01524" lon="6.97264">
        <ele>1087.1</ele>
        <time>2022-05-26T12:12:44Z</time>
      </trkpt>
      <trkpt lat="48.0152" lon="6.97277">
        <ele>1088.4</ele>
        <time>2022-05-26T12:12:45Z</time>
      </trkpt>
      <trkpt lat="48.01515" lon="6.973">
        <ele>1087.3</ele>
        <time>2022-05-26T12:12:47Z</time>
      </trkpt>
      <trkpt lat="48.01511" lon="6.97322">
        <ele>1087.7</ele>
        <time>2022-05-26T12:12:49Z</time>
      </trkpt>
      <trkpt lat="48.01502" lon="6.9734">
        <ele>1089.4</ele>
        <time>2022-05-26T12:12:51Z</time>
      </trkpt>
      <trkpt lat="48.01488" lon="6.97353">
        <ele>1090.3</ele>
        <time>2022-05-26T12:12:53Z</time>
      </trkpt>
      <trkpt lat="48.01474" lon="6.97368">
        <ele>1086.4</ele>
        <time>2022-05-26T12:12:55Z</time>
      </trkpt>
      <trkpt lat="48.01463" lon="6.97387">
        <ele>1085.3</ele>
        <time>2022-05-26T12:12:57Z</time>
      </trkpt>
      <trkpt lat="48.01454" lon="6.97404">
        <ele>1082.2</ele>
        <time>2022-05-26T12:12:59Z</time>
      </trkpt>
      <trkpt lat="48.01444" lon="6.97422">
        <ele>1081.2</ele>
        <time>2022-05-26T12:13:01Z</time>
      </trkpt>
      <trkpt lat="48.01433" lon="6.97438">
        <ele>1081.9</ele>
        <time>2022-05-26T12:13:03Z</time>
      </trkpt>
      <trkpt lat="48.01419" lon="6.97446">
        <ele>1082.7</ele>
        <time>2022-05-26T12:13:05Z</time>
      </trkpt>
      <trkpt lat="48.01405" lon="6.97455">
        <ele>1085.1</ele>
        <time>2022-05-26T12:13:07Z</time>
      </trkpt>
      <trkpt lat="48.01394" lon="6.97469">
        <ele>1080</ele>
        <time>2022-05-26T12:13:09Z</time>
      </trkpt>
      <trkpt lat="48.01384" lon="6.97484">
        <ele>1076.4</ele>
        <time>2022-05-26T12:13:11Z</time>
      </trkpt>
      <trkpt lat="48.01376" lon="6.97499">
        <ele>1080.8</ele>
        <time>2022-05-26T12:13:13Z</time>
      </trkpt>
      <trkpt lat="48.01367" lon="6.97512">
        <ele>1079.9</ele>
        <time>2022-05-26T12:13:15Z</time>
      </trkpt>
      <trkpt lat="48.01357" lon="6.97525">
        <ele>1079.1</ele>
        <time>2022-05-26T12:13:17Z</time>
      </trkpt>
      <trkpt lat="48.01346" lon="6.97538">
        <ele>1076.6</ele>
        <time>2022-05-26T12:13:19Z</time>
      </trkpt>
      <trkpt lat="48.01335" lon="6.97546">
        <ele>1078.9</ele>
        <time>2022-05-26T12:13:21Z</time>
      </trkpt>
      <trkpt lat="48.01323" lon="6.97551">
        <ele>1076.7</ele>
        <time>2022-05-26T12:13:23Z</time>
      </trkpt>
      <trkpt lat="48.01312" lon="6.97559">
        <ele>1079.5</ele>
        <time>2022-05-26T12:13:25Z</time>
      </trkpt>
      <trkpt lat="48.01304" lon="6.97571">
        <ele>1079.4</ele>
        <time>2022-05-26T12:13:27Z</time>
      </trkpt>
      <trkpt lat="48.01297" lon="6.97583">
        <ele>1078.7</ele>
        <time>2022-05-26T12:13:29Z</time>
      </trkpt>
      <trkpt lat="48.01292" lon="6.97595">
        <ele>1077.3</ele>
        <time>2022-05-26T12:13:31Z</time>
      </trkpt>
      <trkpt lat="48.01285" lon="6.97606">
        <ele>1077.8</ele>
        <time>2022-05-26T12:13:33Z</time>
      </trkpt>
      <trkpt lat="48.01278" lon="6.97616">
        <ele>1077.8</ele>
        <time>2022-05-26T12:13:35Z</time>
      </trkpt>
      <trkpt lat="48.01271" lon="6.97627">
        <ele>1077.2</ele>
        <time>2022-05-26T12:13:37Z</time>
      </trkpt>
      <trkpt lat="48.01265" lon="6.9764">
        <ele>1076.6</ele>
        <time>2022-05-26T12:13:39Z</time>
      </trkpt>
      <trkpt lat="48.01261" lon="6.97653">
        <ele>1077.4</ele>
        <time>2022-05-26T12:13:41Z</time>
      </trkpt>
      <trkpt lat="48.01257" lon="6.97671">
        <ele>1075.8</ele>
        <time>2022-05-26T12:13:44Z</time>
      </trkpt>
      <trkpt lat="48.0126" lon="6.97684">
        <ele>1076.1</ele>
        <time>2022-05-26T12:13:48Z</time>
      </trkpt>
      <trkpt lat="48.01261" lon="6.97684">
        <ele>1076.1</ele>
        <time>2022-05-26T12:13:52Z</time>
      </trkpt>
      <trkpt lat="48.01261" lon="6.97683">
        <ele>1076.3</ele>
        <time>2022-05-26T12:14:08Z</time>
      </trkpt>
      <trkpt lat="48.01262" lon="6.97682">
        <ele>1075.9</ele>
        <time>2022-05-26T12:14:32Z</time>
      </trkpt>
      <trkpt lat="48.01273" lon="6.9769">
        <ele>1073.1</ele>
        <time>2022-05-26T12:14:36Z</time>
      </trkpt>
      <trkpt lat="48.01283" lon="6.97701">
        <ele>1071.1</ele>
        <time>2022-05-26T12:14:38Z</time>
      </trkpt>
      <trkpt lat="48.01294" lon="6.97713">
        <ele>1064.4</ele>
        <time>2022-05-26T12:14:40Z</time>
      </trkpt>
      <trkpt lat="48.01306" lon="6.97723">
        <ele>1063.3</ele>
        <time>2022-05-26T12:14:42Z</time>
      </trkpt>
      <trkpt lat="48.01319" lon="6.97733">
        <ele>1061.9</ele>
        <time>2022-05-26T12:14:44Z</time>
      </trkpt>
      <trkpt lat="48.01329" lon="6.97744">
        <ele>1062.4</ele>
        <time>2022-05-26T12:14:46Z</time>
      </trkpt>
      <trkpt lat="48.01334" lon="6.97761">
        <ele>1060.3</ele>
        <time>2022-05-26T12:14:48Z</time>
      </trkpt>
      <trkpt lat="48.01339" lon="6.97779">
        <ele>1058.7</ele>
        <time>2022-05-26T12:14:50Z</time>
      </trkpt>
      <trkpt lat="48.01347" lon="6.97793">
        <ele>1057.7</ele>
        <time>2022-05-26T12:14:52Z</time>
      </trkpt>
      <trkpt lat="48.01355" lon="6.97804">
        <ele>1056.8</ele>
        <time>2022-05-26T12:14:54Z</time>
      </trkpt>
      <trkpt lat="48.01362" lon="6.97815">
        <ele>1056.7</ele>
        <time>2022-05-26T12:14:58Z</time>
      </trkpt>
      <trkpt lat="48.01368" lon="6.9783">
        <ele>1056.4</ele>
        <time>2022-05-26T12:15:02Z</time>
      </trkpt>
      <trkpt lat="48.0137" lon="6.97844">
        <ele>1055.5</ele>
        <time>2022-05-26T12:15:07Z</time>
      </trkpt>
      <trkpt lat="48.01369" lon="6.97858">
        <ele>1052.6</ele>
        <time>2022-05-26T12:15:12Z</time>
      </trkpt>
      <trkpt lat="48.01378" lon="6.97863">
        <ele>1052.1</ele>
        <time>2022-05-26T12:15:16Z</time>
      </trkpt>
      <trkpt lat="48.01387" lon="6.97877">
        <ele>1049.3</ele>
        <time>2022-05-26T12:15:19Z</time>
      </trkpt>
      <trkpt lat="48.01393" lon="6.97892">
        <ele>1047.5</ele>
        <time>2022-05-26T12:15:21Z</time>
      </trkpt>
      <trkpt lat="48.01397" lon="6.97905">
        <ele>1048.2</ele>
        <time>2022-05-26T12:15:23Z</time>
      </trkpt>
      <trkpt lat="48.01399" lon="6.9792">
        <ele>1048.2</ele>
        <time>2022-05-26T12:15:27Z</time>
      </trkpt>
      <trkpt lat="48.01407" lon="6.97909">
        <ele>1045.6</ele>
        <time>2022-05-26T12:15:33Z</time>
      </trkpt>
      <trkpt lat="48.01416" lon="6.97917">
        <ele>1043</ele>
        <time>2022-05-26T12:15:41Z</time>
      </trkpt>
      <trkpt lat="48.01424" lon="6.97925">
        <ele>1041.3</ele>
        <time>2022-05-26T12:15:44Z</time>
      </trkpt>
      <trkpt lat="48.01433" lon="6.97932">
        <ele>1036.8</ele>
        <time>2022-05-26T12:15:47Z</time>
      </trkpt>
      <trkpt lat="48.01442" lon="6.97936">
        <ele>1034.1</ele>
        <time>2022-05-26T12:15:49Z</time>
      </trkpt>
      <trkpt lat="48.01453" lon="6.97947">
        <ele>1036.4</ele>
        <time>2022-05-26T12:15:52Z</time>
      </trkpt>
      <trkpt lat="48.01457" lon="6.9796">
        <ele>1035.9</ele>
        <time>2022-05-26T12:15:54Z</time>
      </trkpt>
      <trkpt lat="48.01462" lon="6.97971">
        <ele>1036.4</ele>
        <time>2022-05-26T12:15:56Z</time>
      </trkpt>
      <trkpt lat="48.01473" lon="6.97977">
        <ele>1031.3</ele>
        <time>2022-05-26T12:15:59Z</time>
      </trkpt>
      <trkpt lat="48.01485" lon="6.97985">
        <ele>1029.3</ele>
        <time>2022-05-26T12:16:02Z</time>
      </trkpt>
      <trkpt lat="48.01495" lon="6.97982">
        <ele>1027.4</ele>
        <time>2022-05-26T12:16:06Z</time>
      </trkpt>
      <trkpt lat="48.01506" lon="6.9798">
        <ele>1026</ele>
        <time>2022-05-26T12:16:11Z</time>
      </trkpt>
      <trkpt lat="48.01516" lon="6.97978">
        <ele>1023.2</ele>
        <time>2022-05-26T12:16:14Z</time>
      </trkpt>
      <trkpt lat="48.01525" lon="6.97972">
        <ele>1020.9</ele>
        <time>2022-05-26T12:16:17Z</time>
      </trkpt>
      <trkpt lat="48.01534" lon="6.97976">
        <ele>1017.7</ele>
        <time>2022-05-26T12:16:20Z</time>
      </trkpt>
      <trkpt lat="48.01541" lon="6.97987">
        <ele>1016.7</ele>
        <time>2022-05-26T12:16:23Z</time>
      </trkpt>
      <trkpt lat="48.01549" lon="6.97997">
        <ele>1016.4</ele>
        <time>2022-05-26T12:16:27Z</time>
      </trkpt>
      <trkpt lat="48.01556" lon="6.98005">
        <ele>1013.6</ele>
        <time>2022-05-26T12:16:30Z</time>
      </trkpt>
      <trkpt lat="48.01565" lon="6.97995">
        <ele>1013.5</ele>
        <time>2022-05-26T12:16:33Z</time>
      </trkpt>
      <trkpt lat="48.01572" lon="6.97983">
        <ele>1011.4</ele>
        <time>2022-05-26T12:16:35Z</time>
      </trkpt>
      <trkpt lat="48.01581" lon="6.9797">
        <ele>1007.7</ele>
        <time>2022-05-26T12:16:37Z</time>
      </trkpt>
      <trkpt lat="48.01588" lon="6.97957">
        <ele>1006.6</ele>
        <time>2022-05-26T12:16:39Z</time>
      </trkpt>
      <trkpt lat="48.01597" lon="6.97945">
        <ele>1006</ele>
        <time>2022-05-26T12:16:42Z</time>
      </trkpt>
      <trkpt lat="48.01606" lon="6.97938">
        <ele>1003.9</ele>
        <time>2022-05-26T12:16:45Z</time>
      </trkpt>
      <trkpt lat="48.01619" lon="6.97935">
        <ele>999.9</ele>
        <time>2022-05-26T12:16:48Z</time>
      </trkpt>
      <trkpt lat="48.0163" lon="6.97934">
        <ele>998.3</ele>
        <time>2022-05-26T12:16:50Z</time>
      </trkpt>
      <trkpt lat="48.0164" lon="6.97933">
        <ele>998.2</ele>
        <time>2022-05-26T12:16:52Z</time>
      </trkpt>
      <trkpt lat="48.0165" lon="6.97934">
        <ele>998.6</ele>
        <time>2022-05-26T12:16:56Z</time>
      </trkpt>
      <trkpt lat="48.01655" lon="6.97941">
        <ele>998.5</ele>
        <time>2022-05-26T12:17:03Z</time>
      </trkpt>
      <trkpt lat="48.01656" lon="6.97941">
        <ele>998.3</ele>
        <time>2022-05-26T12:17:08Z</time>
      </trkpt>
      <trkpt lat="48.01656" lon="6.9794">
        <ele>998.4</ele>
        <time>2022-05-26T12:17:09Z</time>
      </trkpt>
      <trkpt lat="48.01655" lon="6.97939">
        <ele>998.6</ele>
        <time>2022-05-26T12:17:18Z</time>
      </trkpt>
      <trkpt lat="48.01655" lon="6.97938">
        <ele>998.6</ele>
        <time>2022-05-26T12:17:46Z</time>
      </trkpt>
      <trkpt lat="48.01656" lon="6.97938">
        <ele>998.6</ele>
        <time>2022-05-26T12:18:04Z</time>
      </trkpt>
      <trkpt lat="48.01656" lon="6.97937">
        <ele>998.3</ele>
        <time>2022-05-26T12:18:45Z</time>
      </trkpt>
      <trkpt lat="48.01666" lon="6.97937">
        <ele>998.1</ele>
        <time>2022-05-26T12:18:54Z</time>
      </trkpt>
      <trkpt lat="48.01677" lon="6.97942">
        <ele>996.3</ele>
        <time>2022-05-26T12:18:58Z</time>
      </trkpt>
      <trkpt lat="48.01688" lon="6.97951">
        <ele>996.5</ele>
        <time>2022-05-26T12:19:01Z</time>
      </trkpt>
      <trkpt lat="48.01699" lon="6.9796">
        <ele>998.2</ele>
        <time>2022-05-26T12:19:04Z</time>
      </trkpt>
      <trkpt lat="48.01709" lon="6.97961">
        <ele>997.2</ele>
        <time>2022-05-26T12:19:06Z</time>
      </trkpt>
      <trkpt lat="48.01721" lon="6.97963">
        <ele>994.6</ele>
        <time>2022-05-26T12:19:09Z</time>
      </trkpt>
      <trkpt lat="48.0173" lon="6.97963">
        <ele>995.7</ele>
        <time>2022-05-26T12:19:11Z</time>
      </trkpt>
      <trkpt lat="48.0174" lon="6.97961">
        <ele>993.7</ele>
        <time>2022-05-26T12:19:13Z</time>
      </trkpt>
      <trkpt lat="48.0175" lon="6.97954">
        <ele>994.9</ele>
        <time>2022-05-26T12:19:16Z</time>
      </trkpt>
      <trkpt lat="48.01759" lon="6.97947">
        <ele>993.7</ele>
        <time>2022-05-26T12:19:19Z</time>
      </trkpt>
      <trkpt lat="48.01768" lon="6.97936">
        <ele>994.3</ele>
        <time>2022-05-26T12:19:22Z</time>
      </trkpt>
      <trkpt lat="48.01776" lon="6.97923">
        <ele>993.7</ele>
        <time>2022-05-26T12:19:25Z</time>
      </trkpt>
      <trkpt lat="48.01784" lon="6.9791">
        <ele>994.1</ele>
        <time>2022-05-26T12:19:28Z</time>
      </trkpt>
      <trkpt lat="48.01791" lon="6.97896">
        <ele>994.6</ele>
        <time>2022-05-26T12:19:31Z</time>
      </trkpt>
      <trkpt lat="48.01796" lon="6.97881">
        <ele>994.8</ele>
        <time>2022-05-26T12:19:34Z</time>
      </trkpt>
      <trkpt lat="48.018" lon="6.97865">
        <ele>994.5</ele>
        <time>2022-05-26T12:19:37Z</time>
      </trkpt>
      <trkpt lat="48.01803" lon="6.97848">
        <ele>994.5</ele>
        <time>2022-05-26T12:19:40Z</time>
      </trkpt>
      <trkpt lat="48.01807" lon="6.97833">
        <ele>994.2</ele>
        <time>2022-05-26T12:19:43Z</time>
      </trkpt>
      <trkpt lat="48.0181" lon="6.9782">
        <ele>995.7</ele>
        <time>2022-05-26T12:19:46Z</time>
      </trkpt>
      <trkpt lat="48.01816" lon="6.97808">
        <ele>994.9</ele>
        <time>2022-05-26T12:19:49Z</time>
      </trkpt>
      <trkpt lat="48.01822" lon="6.97797">
        <ele>995.3</ele>
        <time>2022-05-26T12:19:54Z</time>
      </trkpt>
      <trkpt lat="48.0182" lon="6.97792">
        <ele>994.3</ele>
        <time>2022-05-26T12:20:04Z</time>
      </trkpt>
      <trkpt lat="48.01819" lon="6.97792">
        <ele>994.4</ele>
        <time>2022-05-26T12:20:38Z</time>
      </trkpt>
      <trkpt lat="48.01818" lon="6.97791">
        <ele>994.2</ele>
        <time>2022-05-26T12:20:42Z</time>
      </trkpt>
      <trkpt lat="48.01818" lon="6.97792">
        <ele>994.2</ele>
        <time>2022-05-26T12:21:26Z</time>
      </trkpt>
      <trkpt lat="48.01819" lon="6.97792">
        <ele>994</ele>
        <time>2022-05-26T12:22:28Z</time>
      </trkpt>
      <trkpt lat="48.01819" lon="6.97793">
        <ele>994.1</ele>
        <time>2022-05-26T12:22:47Z</time>
      </trkpt>
      <trkpt lat="48.01819" lon="6.97795">
        <ele>995.1</ele>
        <time>2022-05-26T12:22:50Z</time>
      </trkpt>
      <trkpt lat="48.01819" lon="6.97796">
        <ele>994.9</ele>
        <time>2022-05-26T12:23:32Z</time>
      </trkpt>
      <trkpt lat="48.0182" lon="6.97796">
        <ele>994.9</ele>
        <time>2022-05-26T12:24:01Z</time>
      </trkpt>
      <trkpt lat="48.01818" lon="6.97796">
        <ele>994.5</ele>
        <time>2022-05-26T12:24:33Z</time>
      </trkpt>
      <trkpt lat="48.01818" lon="6.97795">
        <ele>994.4</ele>
        <time>2022-05-26T12:26:39Z</time>
      </trkpt>
      <trkpt lat="48.01819" lon="6.97795">
        <ele>994.2</ele>
        <time>2022-05-26T12:27:09Z</time>
      </trkpt>
      <trkpt lat="48.0182" lon="6.97794">
        <ele>994.2</ele>
        <time>2022-05-26T12:27:14Z</time>
      </trkpt>
      <trkpt lat="48.01821" lon="6.97793">
        <ele>994.3</ele>
        <time>2022-05-26T12:27:36Z</time>
      </trkpt>
      <trkpt lat="48.01821" lon="6.97792">
        <ele>993.9</ele>
        <time>2022-05-26T12:28:08Z</time>
      </trkpt>
      <trkpt lat="48.01822" lon="6.97791">
        <ele>993.7</ele>
        <time>2022-05-26T12:28:11Z</time>
      </trkpt>
      <trkpt lat="48.0183" lon="6.97781">
        <ele>994.6</ele>
        <time>2022-05-26T12:28:17Z</time>
      </trkpt>
      <trkpt lat="48.01839" lon="6.97772">
        <ele>994.1</ele>
        <time>2022-05-26T12:28:21Z</time>
      </trkpt>
      <trkpt lat="48.01849" lon="6.97761">
        <ele>994.3</ele>
        <time>2022-05-26T12:28:25Z</time>
      </trkpt>
      <trkpt lat="48.01857" lon="6.97753">
        <ele>994.1</ele>
        <time>2022-05-26T12:28:28Z</time>
      </trkpt>
      <trkpt lat="48.01865" lon="6.97745">
        <ele>993.9</ele>
        <time>2022-05-26T12:28:31Z</time>
      </trkpt>
      <trkpt lat="48.01872" lon="6.97732">
        <ele>995.3</ele>
        <time>2022-05-26T12:28:34Z</time>
      </trkpt>
      <trkpt lat="48.01879" lon="6.97721">
        <ele>994.2</ele>
        <time>2022-05-26T12:28:37Z</time>
      </trkpt>
      <trkpt lat="48.01886" lon="6.97708">
        <ele>994.4</ele>
        <time>2022-05-26T12:28:40Z</time>
      </trkpt>
      <trkpt lat="48.0189" lon="6.97691">
        <ele>994.6</ele>
        <time>2022-05-26T12:28:43Z</time>
      </trkpt>
      <trkpt lat="48.01889" lon="6.97678">
        <ele>994.1</ele>
        <time>2022-05-26T12:28:45Z</time>
      </trkpt>
      <trkpt lat="48.01888" lon="6.97664">
        <ele>994.3</ele>
        <time>2022-05-26T12:28:47Z</time>
      </trkpt>
      <trkpt lat="48.01886" lon="6.97648">
        <ele>993.4</ele>
        <time>2022-05-26T12:28:50Z</time>
      </trkpt>
      <trkpt lat="48.01883" lon="6.97634">
        <ele>994</ele>
        <time>2022-05-26T12:28:52Z</time>
      </trkpt>
      <trkpt lat="48.0188" lon="6.9762">
        <ele>994.1</ele>
        <time>2022-05-26T12:28:54Z</time>
      </trkpt>
      <trkpt lat="48.01876" lon="6.97604">
        <ele>993.9</ele>
        <time>2022-05-26T12:28:56Z</time>
      </trkpt>
      <trkpt lat="48.01874" lon="6.97588">
        <ele>993.6</ele>
        <time>2022-05-26T12:28:58Z</time>
      </trkpt>
      <trkpt lat="48.01874" lon="6.97573">
        <ele>993.2</ele>
        <time>2022-05-26T12:29:00Z</time>
      </trkpt>
      <trkpt lat="48.01876" lon="6.9756">
        <ele>993.4</ele>
        <time>2022-05-26T12:29:02Z</time>
      </trkpt>
      <trkpt lat="48.01883" lon="6.97546">
        <ele>992.2</ele>
        <time>2022-05-26T12:29:05Z</time>
      </trkpt>
      <trkpt lat="48.01891" lon="6.97538">
        <ele>992.8</ele>
        <time>2022-05-26T12:29:08Z</time>
      </trkpt>
      <trkpt lat="48.01899" lon="6.97526">
        <ele>993.4</ele>
        <time>2022-05-26T12:29:11Z</time>
      </trkpt>
      <trkpt lat="48.01908" lon="6.97515">
        <ele>994.2</ele>
        <time>2022-05-26T12:29:14Z</time>
      </trkpt>
      <trkpt lat="48.01915" lon="6.97503">
        <ele>992.6</ele>
        <time>2022-05-26T12:29:17Z</time>
      </trkpt>
      <trkpt lat="48.01919" lon="6.97487">
        <ele>991.7</ele>
        <time>2022-05-26T12:29:20Z</time>
      </trkpt>
      <trkpt lat="48.01922" lon="6.97469">
        <ele>991.8</ele>
        <time>2022-05-26T12:29:23Z</time>
      </trkpt>
      <trkpt lat="48.01927" lon="6.97457">
        <ele>990.6</ele>
        <time>2022-05-26T12:29:25Z</time>
      </trkpt>
      <trkpt lat="48.01933" lon="6.97446">
        <ele>991.3</ele>
        <time>2022-05-26T12:29:27Z</time>
      </trkpt>
      <trkpt lat="48.0194" lon="6.97433">
        <ele>990.2</ele>
        <time>2022-05-26T12:29:29Z</time>
      </trkpt>
      <trkpt lat="48.01946" lon="6.97414">
        <ele>989.7</ele>
        <time>2022-05-26T12:29:31Z</time>
      </trkpt>
      <trkpt lat="48.01951" lon="6.97394">
        <ele>989.6</ele>
        <time>2022-05-26T12:29:33Z</time>
      </trkpt>
      <trkpt lat="48.01956" lon="6.97377">
        <ele>989.1</ele>
        <time>2022-05-26T12:29:35Z</time>
      </trkpt>
      <trkpt lat="48.01962" lon="6.97357">
        <ele>986</ele>
        <time>2022-05-26T12:29:37Z</time>
      </trkpt>
      <trkpt lat="48.01968" lon="6.97334">
        <ele>983.8</ele>
        <time>2022-05-26T12:29:39Z</time>
      </trkpt>
      <trkpt lat="48.01972" lon="6.97312">
        <ele>984.2</ele>
        <time>2022-05-26T12:29:41Z</time>
      </trkpt>
      <trkpt lat="48.01972" lon="6.97288">
        <ele>982.3</ele>
        <time>2022-05-26T12:29:43Z</time>
      </trkpt>
      <trkpt lat="48.01971" lon="6.97266">
        <ele>980.4</ele>
        <time>2022-05-26T12:29:45Z</time>
      </trkpt>
      <trkpt lat="48.01972" lon="6.97247">
        <ele>981.2</ele>
        <time>2022-05-26T12:29:47Z</time>
      </trkpt>
      <trkpt lat="48.01974" lon="6.97229">
        <ele>979.3</ele>
        <time>2022-05-26T12:29:50Z</time>
      </trkpt>
      <trkpt lat="48.01977" lon="6.97244">
        <ele>981.6</ele>
        <time>2022-05-26T12:30:00Z</time>
      </trkpt>
      <trkpt lat="48.01976" lon="6.9726">
        <ele>982.7</ele>
        <time>2022-05-26T12:30:05Z</time>
      </trkpt>
      <trkpt lat="48.01977" lon="6.97275">
        <ele>983.8</ele>
        <time>2022-05-26T12:30:10Z</time>
      </trkpt>
      <trkpt lat="48.01977" lon="6.97289">
        <ele>985.2</ele>
        <time>2022-05-26T12:30:16Z</time>
      </trkpt>
      <trkpt lat="48.01977" lon="6.97303">
        <ele>986.2</ele>
        <time>2022-05-26T12:30:21Z</time>
      </trkpt>
      <trkpt lat="48.01979" lon="6.97318">
        <ele>987.2</ele>
        <time>2022-05-26T12:30:26Z</time>
      </trkpt>
      <trkpt lat="48.01979" lon="6.97333">
        <ele>988.2</ele>
        <time>2022-05-26T12:30:31Z</time>
      </trkpt>
      <trkpt lat="48.01979" lon="6.97347">
        <ele>989.2</ele>
        <time>2022-05-26T12:30:36Z</time>
      </trkpt>
      <trkpt lat="48.01977" lon="6.9736">
        <ele>990.5</ele>
        <time>2022-05-26T12:30:41Z</time>
      </trkpt>
      <trkpt lat="48.01979" lon="6.97374">
        <ele>991.6</ele>
        <time>2022-05-26T12:30:46Z</time>
      </trkpt>
      <trkpt lat="48.01982" lon="6.97389">
        <ele>992.9</ele>
        <time>2022-05-26T12:30:52Z</time>
      </trkpt>
      <trkpt lat="48.01985" lon="6.97403">
        <ele>994.5</ele>
        <time>2022-05-26T12:30:58Z</time>
      </trkpt>
      <trkpt lat="48.01985" lon="6.97418">
        <ele>995.3</ele>
        <time>2022-05-26T12:31:03Z</time>
      </trkpt>
      <trkpt lat="48.01984" lon="6.97431">
        <ele>996.5</ele>
        <time>2022-05-26T12:31:08Z</time>
      </trkpt>
      <trkpt lat="48.01982" lon="6.97446">
        <ele>997.6</ele>
        <time>2022-05-26T12:31:13Z</time>
      </trkpt>
      <trkpt lat="48.01979" lon="6.9746">
        <ele>998.8</ele>
        <time>2022-05-26T12:31:18Z</time>
      </trkpt>
      <trkpt lat="48.01978" lon="6.97474">
        <ele>999.8</ele>
        <time>2022-05-26T12:31:23Z</time>
      </trkpt>
      <trkpt lat="48.01976" lon="6.9749">
        <ele>1001.2</ele>
        <time>2022-05-26T12:31:29Z</time>
      </trkpt>
      <trkpt lat="48.01973" lon="6.97503">
        <ele>1002.2</ele>
        <time>2022-05-26T12:31:34Z</time>
      </trkpt>
      <trkpt lat="48.01971" lon="6.97519">
        <ele>1003.3</ele>
        <time>2022-05-26T12:31:40Z</time>
      </trkpt>
      <trkpt lat="48.01971" lon="6.97533">
        <ele>1004.3</ele>
        <time>2022-05-26T12:31:45Z</time>
      </trkpt>
      <trkpt lat="48.01972" lon="6.97549">
        <ele>1005.5</ele>
        <time>2022-05-26T12:31:51Z</time>
      </trkpt>
      <trkpt lat="48.01972" lon="6.97563">
        <ele>1006.2</ele>
        <time>2022-05-26T12:31:56Z</time>
      </trkpt>
      <trkpt lat="48.01974" lon="6.97577">
        <ele>1007.6</ele>
        <time>2022-05-26T12:32:01Z</time>
      </trkpt>
      <trkpt lat="48.01976" lon="6.9759">
        <ele>1008.3</ele>
        <time>2022-05-26T12:32:06Z</time>
      </trkpt>
      <trkpt lat="48.01979" lon="6.97604">
        <ele>1009.1</ele>
        <time>2022-05-26T12:32:11Z</time>
      </trkpt>
      <trkpt lat="48.01983" lon="6.97618">
        <ele>1010.1</ele>
        <time>2022-05-26T12:32:16Z</time>
      </trkpt>
      <trkpt lat="48.01986" lon="6.97631">
        <ele>1010.9</ele>
        <time>2022-05-26T12:32:21Z</time>
      </trkpt>
      <trkpt lat="48.01992" lon="6.97645">
        <ele>1012.5</ele>
        <time>2022-05-26T12:32:27Z</time>
      </trkpt>
      <trkpt lat="48.01999" lon="6.97654">
        <ele>1013.7</ele>
        <time>2022-05-26T12:32:33Z</time>
      </trkpt>
      <trkpt lat="48.02006" lon="6.97645">
        <ele>1014.7</ele>
        <time>2022-05-26T12:32:40Z</time>
      </trkpt>
      <trkpt lat="48.02009" lon="6.97632">
        <ele>1015.8</ele>
        <time>2022-05-26T12:32:46Z</time>
      </trkpt>
      <trkpt lat="48.02011" lon="6.97617">
        <ele>1016.6</ele>
        <time>2022-05-26T12:32:52Z</time>
      </trkpt>
      <trkpt lat="48.02015" lon="6.97603">
        <ele>1018.3</ele>
        <time>2022-05-26T12:32:59Z</time>
      </trkpt>
      <trkpt lat="48.02019" lon="6.9759">
        <ele>1018.7</ele>
        <time>2022-05-26T12:33:05Z</time>
      </trkpt>
      <trkpt lat="48.02024" lon="6.97578">
        <ele>1020.1</ele>
        <time>2022-05-26T12:33:11Z</time>
      </trkpt>
      <trkpt lat="48.02031" lon="6.97568">
        <ele>1021.5</ele>
        <time>2022-05-26T12:33:16Z</time>
      </trkpt>
      <trkpt lat="48.02037" lon="6.97557">
        <ele>1022.3</ele>
        <time>2022-05-26T12:33:21Z</time>
      </trkpt>
      <trkpt lat="48.02043" lon="6.97546">
        <ele>1023.6</ele>
        <time>2022-05-26T12:33:27Z</time>
      </trkpt>
      <trkpt lat="48.02048" lon="6.97531">
        <ele>1024.8</ele>
        <time>2022-05-26T12:33:33Z</time>
      </trkpt>
      <trkpt lat="48.02052" lon="6.97519">
        <ele>1025.2</ele>
        <time>2022-05-26T12:33:38Z</time>
      </trkpt>
      <trkpt lat="48.02054" lon="6.97503">
        <ele>1026.3</ele>
        <time>2022-05-26T12:33:44Z</time>
      </trkpt>
      <trkpt lat="48.02058" lon="6.97491">
        <ele>1028.2</ele>
        <time>2022-05-26T12:33:49Z</time>
      </trkpt>
      <trkpt lat="48.02061" lon="6.97478">
        <ele>1028.6</ele>
        <time>2022-05-26T12:33:55Z</time>
      </trkpt>
      <trkpt lat="48.02066" lon="6.97465">
        <ele>1029.8</ele>
        <time>2022-05-26T12:34:01Z</time>
      </trkpt>
      <trkpt lat="48.0207" lon="6.97451">
        <ele>1030.7</ele>
        <time>2022-05-26T12:34:07Z</time>
      </trkpt>
      <trkpt lat="48.02074" lon="6.97439">
        <ele>1032.5</ele>
        <time>2022-05-26T12:34:13Z</time>
      </trkpt>
      <trkpt lat="48.02079" lon="6.97425">
        <ele>1032.8</ele>
        <time>2022-05-26T12:34:19Z</time>
      </trkpt>
      <trkpt lat="48.02083" lon="6.97411">
        <ele>1033.9</ele>
        <time>2022-05-26T12:34:25Z</time>
      </trkpt>
      <trkpt lat="48.02086" lon="6.97397">
        <ele>1034.9</ele>
        <time>2022-05-26T12:34:31Z</time>
      </trkpt>
      <trkpt lat="48.02088" lon="6.97382">
        <ele>1035.9</ele>
        <time>2022-05-26T12:34:37Z</time>
      </trkpt>
      <trkpt lat="48.0209" lon="6.97367">
        <ele>1037.5</ele>
        <time>2022-05-26T12:34:43Z</time>
      </trkpt>
      <trkpt lat="48.02093" lon="6.97353">
        <ele>1039</ele>
        <time>2022-05-26T12:34:48Z</time>
      </trkpt>
      <trkpt lat="48.02096" lon="6.9734">
        <ele>1039.5</ele>
        <time>2022-05-26T12:34:53Z</time>
      </trkpt>
      <trkpt lat="48.021" lon="6.97326">
        <ele>1041.3</ele>
        <time>2022-05-26T12:34:59Z</time>
      </trkpt>
      <trkpt lat="48.02104" lon="6.97311">
        <ele>1042</ele>
        <time>2022-05-26T12:35:05Z</time>
      </trkpt>
      <trkpt lat="48.02106" lon="6.97296">
        <ele>1043.1</ele>
        <time>2022-05-26T12:35:11Z</time>
      </trkpt>
      <trkpt lat="48.02109" lon="6.97282">
        <ele>1043.4</ele>
        <time>2022-05-26T12:35:16Z</time>
      </trkpt>
      <trkpt lat="48.02112" lon="6.97267">
        <ele>1044.7</ele>
        <time>2022-05-26T12:35:22Z</time>
      </trkpt>
      <trkpt lat="48.02117" lon="6.97256">
        <ele>1045.7</ele>
        <time>2022-05-26T12:35:27Z</time>
      </trkpt>
      <trkpt lat="48.02121" lon="6.97244">
        <ele>1046.4</ele>
        <time>2022-05-26T12:35:32Z</time>
      </trkpt>
      <trkpt lat="48.02124" lon="6.9723">
        <ele>1048</ele>
        <time>2022-05-26T12:35:38Z</time>
      </trkpt>
      <trkpt lat="48.02129" lon="6.97218">
        <ele>1048.3</ele>
        <time>2022-05-26T12:35:43Z</time>
      </trkpt>
      <trkpt lat="48.02131" lon="6.97203">
        <ele>1050</ele>
        <time>2022-05-26T12:35:48Z</time>
      </trkpt>
      <trkpt lat="48.02134" lon="6.97188">
        <ele>1051.5</ele>
        <time>2022-05-26T12:35:54Z</time>
      </trkpt>
      <trkpt lat="48.02138" lon="6.97174">
        <ele>1052.1</ele>
        <time>2022-05-26T12:36:00Z</time>
      </trkpt>
      <trkpt lat="48.02142" lon="6.97161">
        <ele>1053.2</ele>
        <time>2022-05-26T12:36:06Z</time>
      </trkpt>
      <trkpt lat="48.02147" lon="6.97146">
        <ele>1054.3</ele>
        <time>2022-05-26T12:36:12Z</time>
      </trkpt>
      <trkpt lat="48.02151" lon="6.97134">
        <ele>1055.6</ele>
        <time>2022-05-26T12:36:17Z</time>
      </trkpt>
      <trkpt lat="48.02156" lon="6.97122">
        <ele>1055.4</ele>
        <time>2022-05-26T12:36:22Z</time>
      </trkpt>
      <trkpt lat="48.02161" lon="6.97111">
        <ele>1056.9</ele>
        <time>2022-05-26T12:36:27Z</time>
      </trkpt>
      <trkpt lat="48.02168" lon="6.97101">
        <ele>1057.7</ele>
        <time>2022-05-26T12:36:32Z</time>
      </trkpt>
      <trkpt lat="48.02175" lon="6.97093">
        <ele>1059</ele>
        <time>2022-05-26T12:36:37Z</time>
      </trkpt>
      <trkpt lat="48.02182" lon="6.97081">
        <ele>1060.5</ele>
        <time>2022-05-26T12:36:42Z</time>
      </trkpt>
      <trkpt lat="48.02189" lon="6.9707">
        <ele>1062.1</ele>
        <time>2022-05-26T12:36:47Z</time>
      </trkpt>
      <trkpt lat="48.02196" lon="6.9706">
        <ele>1063.1</ele>
        <time>2022-05-26T12:36:52Z</time>
      </trkpt>
      <trkpt lat="48.02202" lon="6.97049">
        <ele>1064</ele>
        <time>2022-05-26T12:36:57Z</time>
      </trkpt>
      <trkpt lat="48.02209" lon="6.97041">
        <ele>1064.9</ele>
        <time>2022-05-26T12:37:02Z</time>
      </trkpt>
      <trkpt lat="48.02217" lon="6.97031">
        <ele>1066</ele>
        <time>2022-05-26T12:37:08Z</time>
      </trkpt>
      <trkpt lat="48.02226" lon="6.97024">
        <ele>1067</ele>
        <time>2022-05-26T12:37:14Z</time>
      </trkpt>
      <trkpt lat="48.02235" lon="6.97021">
        <ele>1067.3</ele>
        <time>2022-05-26T12:37:19Z</time>
      </trkpt>
      <trkpt lat="48.02244" lon="6.97022">
        <ele>1069.2</ele>
        <time>2022-05-26T12:37:24Z</time>
      </trkpt>
      <trkpt lat="48.02254" lon="6.97025">
        <ele>1070.4</ele>
        <time>2022-05-26T12:37:29Z</time>
      </trkpt>
      <trkpt lat="48.02264" lon="6.97029">
        <ele>1070.4</ele>
        <time>2022-05-26T12:37:34Z</time>
      </trkpt>
      <trkpt lat="48.02273" lon="6.97035">
        <ele>1071.4</ele>
        <time>2022-05-26T12:37:39Z</time>
      </trkpt>
      <trkpt lat="48.02282" lon="6.97041">
        <ele>1072.4</ele>
        <time>2022-05-26T12:37:45Z</time>
      </trkpt>
      <trkpt lat="48.02291" lon="6.97051">
        <ele>1073.9</ele>
        <time>2022-05-26T12:37:51Z</time>
      </trkpt>
      <trkpt lat="48.02301" lon="6.97056">
        <ele>1076.4</ele>
        <time>2022-05-26T12:37:57Z</time>
      </trkpt>
      <trkpt lat="48.02311" lon="6.97059">
        <ele>1076.9</ele>
        <time>2022-05-26T12:38:04Z</time>
      </trkpt>
      <trkpt lat="48.0232" lon="6.97064">
        <ele>1078.2</ele>
        <time>2022-05-26T12:38:09Z</time>
      </trkpt>
      <trkpt lat="48.02331" lon="6.97065">
        <ele>1079.1</ele>
        <time>2022-05-26T12:38:14Z</time>
      </trkpt>
      <trkpt lat="48.0234" lon="6.97058">
        <ele>1080.1</ele>
        <time>2022-05-26T12:38:19Z</time>
      </trkpt>
      <trkpt lat="48.02347" lon="6.97048">
        <ele>1081.5</ele>
        <time>2022-05-26T12:38:25Z</time>
      </trkpt>
      <trkpt lat="48.02354" lon="6.97037">
        <ele>1082.8</ele>
        <time>2022-05-26T12:38:31Z</time>
      </trkpt>
      <trkpt lat="48.02362" lon="6.97027">
        <ele>1084</ele>
        <time>2022-05-26T12:38:37Z</time>
      </trkpt>
      <trkpt lat="48.0237" lon="6.97017">
        <ele>1084.8</ele>
        <time>2022-05-26T12:38:43Z</time>
      </trkpt>
      <trkpt lat="48.02377" lon="6.97009">
        <ele>1085.4</ele>
        <time>2022-05-26T12:38:48Z</time>
      </trkpt>
      <trkpt lat="48.02386" lon="6.97002">
        <ele>1086.8</ele>
        <time>2022-05-26T12:38:53Z</time>
      </trkpt>
      <trkpt lat="48.02394" lon="6.96998">
        <ele>1087.8</ele>
        <time>2022-05-26T12:38:58Z</time>
      </trkpt>
      <trkpt lat="48.02403" lon="6.96992">
        <ele>1088.8</ele>
        <time>2022-05-26T12:39:03Z</time>
      </trkpt>
      <trkpt lat="48.02412" lon="6.96989">
        <ele>1089.1</ele>
        <time>2022-05-26T12:39:08Z</time>
      </trkpt>
      <trkpt lat="48.02423" lon="6.96987">
        <ele>1091.1</ele>
        <time>2022-05-26T12:39:14Z</time>
      </trkpt>
      <trkpt lat="48.02434" lon="6.96985">
        <ele>1092</ele>
        <time>2022-05-26T12:39:20Z</time>
      </trkpt>
      <trkpt lat="48.02443" lon="6.96984">
        <ele>1093.2</ele>
        <time>2022-05-26T12:39:25Z</time>
      </trkpt>
      <trkpt lat="48.02452" lon="6.96986">
        <ele>1094.1</ele>
        <time>2022-05-26T12:39:30Z</time>
      </trkpt>
      <trkpt lat="48.02462" lon="6.96987">
        <ele>1094.8</ele>
        <time>2022-05-26T12:39:35Z</time>
      </trkpt>
      <trkpt lat="48.02472" lon="6.96987">
        <ele>1096.3</ele>
        <time>2022-05-26T12:39:40Z</time>
      </trkpt>
      <trkpt lat="48.02481" lon="6.9699">
        <ele>1097.3</ele>
        <time>2022-05-26T12:39:45Z</time>
      </trkpt>
      <trkpt lat="48.0249" lon="6.96996">
        <ele>1098.5</ele>
        <time>2022-05-26T12:39:50Z</time>
      </trkpt>
      <trkpt lat="48.025" lon="6.97001">
        <ele>1099.9</ele>
        <time>2022-05-26T12:39:56Z</time>
      </trkpt>
      <trkpt lat="48.02509" lon="6.97008">
        <ele>1101.2</ele>
        <time>2022-05-26T12:40:02Z</time>
      </trkpt>
      <trkpt lat="48.02518" lon="6.97016">
        <ele>1102</ele>
        <time>2022-05-26T12:40:07Z</time>
      </trkpt>
      <trkpt lat="48.02527" lon="6.97023">
        <ele>1103.2</ele>
        <time>2022-05-26T12:40:13Z</time>
      </trkpt>
      <trkpt lat="48.02537" lon="6.97031">
        <ele>1104.2</ele>
        <time>2022-05-26T12:40:19Z</time>
      </trkpt>
      <trkpt lat="48.02545" lon="6.97037">
        <ele>1105.2</ele>
        <time>2022-05-26T12:40:24Z</time>
      </trkpt>
      <trkpt lat="48.02553" lon="6.97045">
        <ele>1105.8</ele>
        <time>2022-05-26T12:40:29Z</time>
      </trkpt>
      <trkpt lat="48.0256" lon="6.97052">
        <ele>1107.3</ele>
        <time>2022-05-26T12:40:34Z</time>
      </trkpt>
      <trkpt lat="48.02569" lon="6.97062">
        <ele>1107.6</ele>
        <time>2022-05-26T12:40:39Z</time>
      </trkpt>
      <trkpt lat="48.02577" lon="6.97069">
        <ele>1109.5</ele>
        <time>2022-05-26T12:40:43Z</time>
      </trkpt>
      <trkpt lat="48.02585" lon="6.97078">
        <ele>1109.9</ele>
        <time>2022-05-26T12:40:47Z</time>
      </trkpt>
      <trkpt lat="48.02594" lon="6.97089">
        <ele>1110.4</ele>
        <time>2022-05-26T12:40:51Z</time>
      </trkpt>
      <trkpt lat="48.02601" lon="6.97101">
        <ele>1111.6</ele>
        <time>2022-05-26T12:40:56Z</time>
      </trkpt>
      <trkpt lat="48.02606" lon="6.97112">
        <ele>1112.4</ele>
        <time>2022-05-26T12:41:03Z</time>
      </trkpt>
      <trkpt lat="48.02609" lon="6.97114">
        <ele>1112</ele>
        <time>2022-05-26T12:41:08Z</time>
      </trkpt>
      <trkpt lat="48.02609" lon="6.97115">
        <ele>1112.2</ele>
        <time>2022-05-26T12:41:37Z</time>
      </trkpt>
      <trkpt lat="48.02609" lon="6.97114">
        <ele>1112.4</ele>
        <time>2022-05-26T12:42:21Z</time>
      </trkpt>
      <trkpt lat="48.0261" lon="6.97114">
        <ele>1111.9</ele>
        <time>2022-05-26T12:42:23Z</time>
      </trkpt>
      <trkpt lat="48.02611" lon="6.97114">
        <ele>1112.5</ele>
        <time>2022-05-26T12:48:34Z</time>
      </trkpt>
      <trkpt lat="48.02611" lon="6.97113">
        <ele>1112.2</ele>
        <time>2022-05-26T12:48:39Z</time>
      </trkpt>
      <trkpt lat="48.02611" lon="6.97114">
        <ele>1111.8</ele>
        <time>2022-05-26T12:48:46Z</time>
      </trkpt>
      <trkpt lat="48.02612" lon="6.97114">
        <ele>1111.9</ele>
        <time>2022-05-26T12:49:04Z</time>
      </trkpt>
      <trkpt lat="48.02621" lon="6.97124">
        <ele>1111.5</ele>
        <time>2022-05-26T12:49:11Z</time>
      </trkpt>
      <trkpt lat="48.02631" lon="6.97132">
        <ele>1110.5</ele>
        <time>2022-05-26T12:49:15Z</time>
      </trkpt>
      <trkpt lat="48.0264" lon="6.9714">
        <ele>1110.9</ele>
        <time>2022-05-26T12:49:18Z</time>
      </trkpt>
      <trkpt lat="48.0265" lon="6.97148">
        <ele>1109.7</ele>
        <time>2022-05-26T12:49:21Z</time>
      </trkpt>
      <trkpt lat="48.0266" lon="6.97154">
        <ele>1110.1</ele>
        <time>2022-05-26T12:49:24Z</time>
      </trkpt>
      <trkpt lat="48.02672" lon="6.97158">
        <ele>1109.9</ele>
        <time>2022-05-26T12:49:27Z</time>
      </trkpt>
      <trkpt lat="48.02683" lon="6.97155">
        <ele>1111</ele>
        <time>2022-05-26T12:49:30Z</time>
      </trkpt>
      <trkpt lat="48.02694" lon="6.97149">
        <ele>1111.8</ele>
        <time>2022-05-26T12:49:33Z</time>
      </trkpt>
      <trkpt lat="48.02703" lon="6.97145">
        <ele>1109.4</ele>
        <time>2022-05-26T12:49:36Z</time>
      </trkpt>
      <trkpt lat="48.02714" lon="6.97142">
        <ele>1110</ele>
        <time>2022-05-26T12:49:39Z</time>
      </trkpt>
      <trkpt lat="48.02725" lon="6.97145">
        <ele>1111.1</ele>
        <time>2022-05-26T12:49:42Z</time>
      </trkpt>
      <trkpt lat="48.02735" lon="6.97149">
        <ele>1110</ele>
        <time>2022-05-26T12:49:45Z</time>
      </trkpt>
      <trkpt lat="48.02744" lon="6.97154">
        <ele>1111.8</ele>
        <time>2022-05-26T12:49:48Z</time>
      </trkpt>
      <trkpt lat="48.02753" lon="6.9716">
        <ele>1111.2</ele>
        <time>2022-05-26T12:49:51Z</time>
      </trkpt>
      <trkpt lat="48.02761" lon="6.97168">
        <ele>1110.7</ele>
        <time>2022-05-26T12:49:54Z</time>
      </trkpt>
      <trkpt lat="48.02769" lon="6.97178">
        <ele>1111.2</ele>
        <time>2022-05-26T12:49:57Z</time>
      </trkpt>
      <trkpt lat="48.02777" lon="6.97191">
        <ele>1110.9</ele>
        <time>2022-05-26T12:50:00Z</time>
      </trkpt>
      <trkpt lat="48.02786" lon="6.97201">
        <ele>1110.9</ele>
        <time>2022-05-26T12:50:03Z</time>
      </trkpt>
      <trkpt lat="48.02794" lon="6.97212">
        <ele>1111.6</ele>
        <time>2022-05-26T12:50:06Z</time>
      </trkpt>
      <trkpt lat="48.02804" lon="6.97219">
        <ele>1111.8</ele>
        <time>2022-05-26T12:50:09Z</time>
      </trkpt>
      <trkpt lat="48.02814" lon="6.97219">
        <ele>1112</ele>
        <time>2022-05-26T12:50:12Z</time>
      </trkpt>
      <trkpt lat="48.02823" lon="6.97211">
        <ele>1110.7</ele>
        <time>2022-05-26T12:50:15Z</time>
      </trkpt>
      <trkpt lat="48.02833" lon="6.972">
        <ele>1111.4</ele>
        <time>2022-05-26T12:50:18Z</time>
      </trkpt>
      <trkpt lat="48.02841" lon="6.97189">
        <ele>1110.4</ele>
        <time>2022-05-26T12:50:21Z</time>
      </trkpt>
      <trkpt lat="48.02848" lon="6.97177">
        <ele>1111.5</ele>
        <time>2022-05-26T12:50:24Z</time>
      </trkpt>
      <trkpt lat="48.02856" lon="6.97164">
        <ele>1109.6</ele>
        <time>2022-05-26T12:50:27Z</time>
      </trkpt>
      <trkpt lat="48.02864" lon="6.9715">
        <ele>1110.1</ele>
        <time>2022-05-26T12:50:30Z</time>
      </trkpt>
      <trkpt lat="48.02872" lon="6.97138">
        <ele>1108</ele>
        <time>2022-05-26T12:50:33Z</time>
      </trkpt>
      <trkpt lat="48.0288" lon="6.97124">
        <ele>1108.8</ele>
        <time>2022-05-26T12:50:36Z</time>
      </trkpt>
      <trkpt lat="48.02889" lon="6.97111">
        <ele>1109.2</ele>
        <time>2022-05-26T12:50:39Z</time>
      </trkpt>
      <trkpt lat="48.02898" lon="6.97098">
        <ele>1108.4</ele>
        <time>2022-05-26T12:50:42Z</time>
      </trkpt>
      <trkpt lat="48.02908" lon="6.97086">
        <ele>1108.2</ele>
        <time>2022-05-26T12:50:45Z</time>
      </trkpt>
      <trkpt lat="48.02917" lon="6.97074">
        <ele>1108.3</ele>
        <time>2022-05-26T12:50:48Z</time>
      </trkpt>
      <trkpt lat="48.02924" lon="6.97064">
        <ele>1107.8</ele>
        <time>2022-05-26T12:50:50Z</time>
      </trkpt>
      <trkpt lat="48.02934" lon="6.97051">
        <ele>1109.9</ele>
        <time>2022-05-26T12:50:53Z</time>
      </trkpt>
      <trkpt lat="48.02942" lon="6.97042">
        <ele>1108.3</ele>
        <time>2022-05-26T12:50:55Z</time>
      </trkpt>
      <trkpt lat="48.0295" lon="6.97033">
        <ele>1105.2</ele>
        <time>2022-05-26T12:50:57Z</time>
      </trkpt>
      <trkpt lat="48.02959" lon="6.97022">
        <ele>1107.9</ele>
        <time>2022-05-26T12:51:00Z</time>
      </trkpt>
      <trkpt lat="48.02966" lon="6.97011">
        <ele>1107.5</ele>
        <time>2022-05-26T12:51:02Z</time>
      </trkpt>
      <trkpt lat="48.02973" lon="6.97001">
        <ele>1106.5</ele>
        <time>2022-05-26T12:51:04Z</time>
      </trkpt>
      <trkpt lat="48.02982" lon="6.96991">
        <ele>1105.9</ele>
        <time>2022-05-26T12:51:06Z</time>
      </trkpt>
      <trkpt lat="48.02992" lon="6.96982">
        <ele>1105.8</ele>
        <time>2022-05-26T12:51:08Z</time>
      </trkpt>
      <trkpt lat="48.03001" lon="6.96976">
        <ele>1105.7</ele>
        <time>2022-05-26T12:51:10Z</time>
      </trkpt>
      <trkpt lat="48.0301" lon="6.96972">
        <ele>1107.2</ele>
        <time>2022-05-26T12:51:12Z</time>
      </trkpt>
      <trkpt lat="48.03019" lon="6.9697">
        <ele>1106.8</ele>
        <time>2022-05-26T12:51:14Z</time>
      </trkpt>
      <trkpt lat="48.03029" lon="6.96969">
        <ele>1105.4</ele>
        <time>2022-05-26T12:51:16Z</time>
      </trkpt>
      <trkpt lat="48.03038" lon="6.96971">
        <ele>1106.7</ele>
        <time>2022-05-26T12:51:18Z</time>
      </trkpt>
      <trkpt lat="48.03048" lon="6.96973">
        <ele>1106.4</ele>
        <time>2022-05-26T12:51:20Z</time>
      </trkpt>
      <trkpt lat="48.03057" lon="6.96978">
        <ele>1106.6</ele>
        <time>2022-05-26T12:51:22Z</time>
      </trkpt>
      <trkpt lat="48.03067" lon="6.96991">
        <ele>1107.7</ele>
        <time>2022-05-26T12:51:25Z</time>
      </trkpt>
      <trkpt lat="48.03074" lon="6.97002">
        <ele>1108.4</ele>
        <time>2022-05-26T12:51:28Z</time>
      </trkpt>
      <trkpt lat="48.03082" lon="6.97012">
        <ele>1108.6</ele>
        <time>2022-05-26T12:51:32Z</time>
      </trkpt>
      <trkpt lat="48.03091" lon="6.97018">
        <ele>1109</ele>
        <time>2022-05-26T12:51:36Z</time>
      </trkpt>
      <trkpt lat="48.03101" lon="6.97024">
        <ele>1107.9</ele>
        <time>2022-05-26T12:51:40Z</time>
      </trkpt>
      <trkpt lat="48.03111" lon="6.97032">
        <ele>1109.1</ele>
        <time>2022-05-26T12:51:44Z</time>
      </trkpt>
      <trkpt lat="48.03118" lon="6.97041">
        <ele>1109.4</ele>
        <time>2022-05-26T12:51:48Z</time>
      </trkpt>
      <trkpt lat="48.03126" lon="6.97051">
        <ele>1111</ele>
        <time>2022-05-26T12:51:54Z</time>
      </trkpt>
      <trkpt lat="48.03133" lon="6.97061">
        <ele>1112.7</ele>
        <time>2022-05-26T12:52:00Z</time>
      </trkpt>
      <trkpt lat="48.03139" lon="6.97074">
        <ele>1114.1</ele>
        <time>2022-05-26T12:52:06Z</time>
      </trkpt>
      <trkpt lat="48.03144" lon="6.97087">
        <ele>1115</ele>
        <time>2022-05-26T12:52:12Z</time>
      </trkpt>
      <trkpt lat="48.03149" lon="6.97099">
        <ele>1116.2</ele>
        <time>2022-05-26T12:52:18Z</time>
      </trkpt>
      <trkpt lat="48.03154" lon="6.97113">
        <ele>1117.6</ele>
        <time>2022-05-26T12:52:24Z</time>
      </trkpt>
      <trkpt lat="48.03159" lon="6.97126">
        <ele>1118.8</ele>
        <time>2022-05-26T12:52:30Z</time>
      </trkpt>
      <trkpt lat="48.03164" lon="6.9714">
        <ele>1119.3</ele>
        <time>2022-05-26T12:52:36Z</time>
      </trkpt>
      <trkpt lat="48.03169" lon="6.97153">
        <ele>1120.9</ele>
        <time>2022-05-26T12:52:42Z</time>
      </trkpt>
      <trkpt lat="48.03174" lon="6.97166">
        <ele>1122.7</ele>
        <time>2022-05-26T12:52:48Z</time>
      </trkpt>
      <trkpt lat="48.03179" lon="6.97178">
        <ele>1123</ele>
        <time>2022-05-26T12:52:54Z</time>
      </trkpt>
      <trkpt lat="48.03185" lon="6.9719">
        <ele>1124.3</ele>
        <time>2022-05-26T12:52:59Z</time>
      </trkpt>
      <trkpt lat="48.03189" lon="6.97205">
        <ele>1124.4</ele>
        <time>2022-05-26T12:53:04Z</time>
      </trkpt>
      <trkpt lat="48.03191" lon="6.97219">
        <ele>1124.8</ele>
        <time>2022-05-26T12:53:09Z</time>
      </trkpt>
      <trkpt lat="48.03194" lon="6.97235">
        <ele>1126.1</ele>
        <time>2022-05-26T12:53:15Z</time>
      </trkpt>
      <trkpt lat="48.03196" lon="6.97249">
        <ele>1126</ele>
        <time>2022-05-26T12:53:20Z</time>
      </trkpt>
      <trkpt lat="48.03198" lon="6.97262">
        <ele>1126.1</ele>
        <time>2022-05-26T12:53:24Z</time>
      </trkpt>
      <trkpt lat="48.03199" lon="6.9728">
        <ele>1123.7</ele>
        <time>2022-05-26T12:53:28Z</time>
      </trkpt>
      <trkpt lat="48.03199" lon="6.97297">
        <ele>1122.3</ele>
        <time>2022-05-26T12:53:32Z</time>
      </trkpt>
      <trkpt lat="48.03199" lon="6.97315">
        <ele>1120.2</ele>
        <time>2022-05-26T12:53:36Z</time>
      </trkpt>
      <trkpt lat="48.03199" lon="6.97332">
        <ele>1120.1</ele>
        <time>2022-05-26T12:53:39Z</time>
      </trkpt>
      <trkpt lat="48.03199" lon="6.97346">
        <ele>1118</ele>
        <time>2022-05-26T12:53:41Z</time>
      </trkpt>
      <trkpt lat="48.032" lon="6.97363">
        <ele>1119.5</ele>
        <time>2022-05-26T12:53:43Z</time>
      </trkpt>
      <trkpt lat="48.03201" lon="6.97382">
        <ele>1116</ele>
        <time>2022-05-26T12:53:45Z</time>
      </trkpt>
      <trkpt lat="48.03203" lon="6.97404">
        <ele>1112.2</ele>
        <time>2022-05-26T12:53:47Z</time>
      </trkpt>
      <trkpt lat="48.03205" lon="6.97424">
        <ele>1112.2</ele>
        <time>2022-05-26T12:53:49Z</time>
      </trkpt>
      <trkpt lat="48.0321" lon="6.97443">
        <ele>1112.9</ele>
        <time>2022-05-26T12:53:51Z</time>
      </trkpt>
      <trkpt lat="48.03214" lon="6.9746">
        <ele>1109.5</ele>
        <time>2022-05-26T12:53:53Z</time>
      </trkpt>
      <trkpt lat="48.03219" lon="6.97475">
        <ele>1110.4</ele>
        <time>2022-05-26T12:53:55Z</time>
      </trkpt>
      <trkpt lat="48.03222" lon="6.97491">
        <ele>1105.9</ele>
        <time>2022-05-26T12:53:57Z</time>
      </trkpt>
      <trkpt lat="48.03224" lon="6.97509">
        <ele>1102.2</ele>
        <time>2022-05-26T12:53:59Z</time>
      </trkpt>
      <trkpt lat="48.03225" lon="6.97528">
        <ele>1103.8</ele>
        <time>2022-05-26T12:54:01Z</time>
      </trkpt>
      <trkpt lat="48.03229" lon="6.97545">
        <ele>1102.9</ele>
        <time>2022-05-26T12:54:03Z</time>
      </trkpt>
      <trkpt lat="48.03232" lon="6.97563">
        <ele>1099.1</ele>
        <time>2022-05-26T12:54:05Z</time>
      </trkpt>
      <trkpt lat="48.03235" lon="6.97579">
        <ele>1097.5</ele>
        <time>2022-05-26T12:54:07Z</time>
      </trkpt>
      <trkpt lat="48.03239" lon="6.97594">
        <ele>1094.4</ele>
        <time>2022-05-26T12:54:09Z</time>
      </trkpt>
      <trkpt lat="48.03242" lon="6.9761">
        <ele>1094.5</ele>
        <time>2022-05-26T12:54:11Z</time>
      </trkpt>
      <trkpt lat="48.03246" lon="6.97624">
        <ele>1095.9</ele>
        <time>2022-05-26T12:54:13Z</time>
      </trkpt>
      <trkpt lat="48.03247" lon="6.97638">
        <ele>1095.4</ele>
        <time>2022-05-26T12:54:15Z</time>
      </trkpt>
      <trkpt lat="48.03249" lon="6.97653">
        <ele>1095</ele>
        <time>2022-05-26T12:54:17Z</time>
      </trkpt>
      <trkpt lat="48.03253" lon="6.9767">
        <ele>1092.6</ele>
        <time>2022-05-26T12:54:19Z</time>
      </trkpt>
      <trkpt lat="48.03257" lon="6.97685">
        <ele>1090.5</ele>
        <time>2022-05-26T12:54:21Z</time>
      </trkpt>
      <trkpt lat="48.03262" lon="6.97697">
        <ele>1089.6</ele>
        <time>2022-05-26T12:54:23Z</time>
      </trkpt>
      <trkpt lat="48.03268" lon="6.97708">
        <ele>1087.7</ele>
        <time>2022-05-26T12:54:25Z</time>
      </trkpt>
      <trkpt lat="48.03274" lon="6.97721">
        <ele>1088.1</ele>
        <time>2022-05-26T12:54:27Z</time>
      </trkpt>
      <trkpt lat="48.03277" lon="6.97736">
        <ele>1087.4</ele>
        <time>2022-05-26T12:54:30Z</time>
      </trkpt>
      <trkpt lat="48.03278" lon="6.97744">
        <ele>1085.6</ele>
        <time>2022-05-26T12:54:37Z</time>
      </trkpt>
      <trkpt lat="48.03278" lon="6.97743">
        <ele>1085.9</ele>
        <time>2022-05-26T12:54:46Z</time>
      </trkpt>
      <trkpt lat="48.03277" lon="6.97737">
        <ele>1086.7</ele>
        <time>2022-05-26T12:54:52Z</time>
      </trkpt>
      <trkpt lat="48.03277" lon="6.97736">
        <ele>1086.9</ele>
        <time>2022-05-26T12:54:55Z</time>
      </trkpt>
      <trkpt lat="48.03273" lon="6.97723">
        <ele>1088.2</ele>
        <time>2022-05-26T12:55:03Z</time>
      </trkpt>
      <trkpt lat="48.03269" lon="6.9771">
        <ele>1088.2</ele>
        <time>2022-05-26T12:55:12Z</time>
      </trkpt>
      <trkpt lat="48.03266" lon="6.97696">
        <ele>1088</ele>
        <time>2022-05-26T12:55:17Z</time>
      </trkpt>
      <trkpt lat="48.03269" lon="6.97683">
        <ele>1087.1</ele>
        <time>2022-05-26T12:55:22Z</time>
      </trkpt>
      <trkpt lat="48.0327" lon="6.97682">
        <ele>1087</ele>
        <time>2022-05-26T12:55:25Z</time>
      </trkpt>
      <trkpt lat="48.03277" lon="6.97674">
        <ele>1084.6</ele>
        <time>2022-05-26T12:55:31Z</time>
      </trkpt>
      <trkpt lat="48.03286" lon="6.9767">
        <ele>1081.6</ele>
        <time>2022-05-26T12:55:39Z</time>
      </trkpt>
      <trkpt lat="48.03297" lon="6.97668">
        <ele>1079.5</ele>
        <time>2022-05-26T12:55:42Z</time>
      </trkpt>
      <trkpt lat="48.03308" lon="6.97665">
        <ele>1076.3</ele>
        <time>2022-05-26T12:55:45Z</time>
      </trkpt>
      <trkpt lat="48.03318" lon="6.97661">
        <ele>1074.6</ele>
        <time>2022-05-26T12:55:49Z</time>
      </trkpt>
      <trkpt lat="48.03328" lon="6.97659">
        <ele>1073.3</ele>
        <time>2022-05-26T12:55:53Z</time>
      </trkpt>
      <trkpt lat="48.0334" lon="6.97657">
        <ele>1069.9</ele>
        <time>2022-05-26T12:55:56Z</time>
      </trkpt>
      <trkpt lat="48.03352" lon="6.9765">
        <ele>1067.4</ele>
        <time>2022-05-26T12:55:59Z</time>
      </trkpt>
      <trkpt lat="48.03362" lon="6.97642">
        <ele>1063.8</ele>
        <time>2022-05-26T12:56:02Z</time>
      </trkpt>
      <trkpt lat="48.03373" lon="6.9764">
        <ele>1060.6</ele>
        <time>2022-05-26T12:56:05Z</time>
      </trkpt>
      <trkpt lat="48.0338" lon="6.9765">
        <ele>1060</ele>
        <time>2022-05-26T12:56:08Z</time>
      </trkpt>
      <trkpt lat="48.03387" lon="6.97663">
        <ele>1057.9</ele>
        <time>2022-05-26T12:56:13Z</time>
      </trkpt>
      <trkpt lat="48.03393" lon="6.97674">
        <ele>1055.5</ele>
        <time>2022-05-26T12:56:18Z</time>
      </trkpt>
      <trkpt lat="48.03394" lon="6.97675">
        <ele>1055.4</ele>
        <time>2022-05-26T12:56:20Z</time>
      </trkpt>
      <trkpt lat="48.03397" lon="6.97682">
        <ele>1053.8</ele>
        <time>2022-05-26T12:56:27Z</time>
      </trkpt>
      <trkpt lat="48.03406" lon="6.97687">
        <ele>1051.4</ele>
        <time>2022-05-26T12:56:52Z</time>
      </trkpt>
      <trkpt lat="48.0341" lon="6.977">
        <ele>1047.7</ele>
        <time>2022-05-26T12:56:57Z</time>
      </trkpt>
      <trkpt lat="48.03407" lon="6.97716">
        <ele>1046.4</ele>
        <time>2022-05-26T12:57:00Z</time>
      </trkpt>
      <trkpt lat="48.03417" lon="6.97711">
        <ele>1042.7</ele>
        <time>2022-05-26T12:57:06Z</time>
      </trkpt>
      <trkpt lat="48.03419" lon="6.97696">
        <ele>1041.2</ele>
        <time>2022-05-26T12:57:08Z</time>
      </trkpt>
      <trkpt lat="48.03421" lon="6.97677">
        <ele>1039.8</ele>
        <time>2022-05-26T12:57:11Z</time>
      </trkpt>
      <trkpt lat="48.0342" lon="6.97659">
        <ele>1038.7</ele>
        <time>2022-05-26T12:57:14Z</time>
      </trkpt>
      <trkpt lat="48.0342" lon="6.97655">
        <ele>1038.1</ele>
        <time>2022-05-26T12:57:17Z</time>
      </trkpt>
      <trkpt lat="48.0342" lon="6.97654">
        <ele>1038.4</ele>
        <time>2022-05-26T12:57:26Z</time>
      </trkpt>
      <trkpt lat="48.03422" lon="6.97668">
        <ele>1039.6</ele>
        <time>2022-05-26T12:57:46Z</time>
      </trkpt>
      <trkpt lat="48.0342" lon="6.97682">
        <ele>1041</ele>
        <time>2022-05-26T12:57:56Z</time>
      </trkpt>
      <trkpt lat="48.03415" lon="6.97695">
        <ele>1042.5</ele>
        <time>2022-05-26T12:58:04Z</time>
      </trkpt>
      <trkpt lat="48.03412" lon="6.97709">
        <ele>1041.3</ele>
        <time>2022-05-26T12:58:10Z</time>
      </trkpt>
      <trkpt lat="48.03409" lon="6.97722">
        <ele>1043.9</ele>
        <time>2022-05-26T12:58:18Z</time>
      </trkpt>
      <trkpt lat="48.03409" lon="6.97724">
        <ele>1045.1</ele>
        <time>2022-05-26T12:58:21Z</time>
      </trkpt>
      <trkpt lat="48.03411" lon="6.97738">
        <ele>1044</ele>
        <time>2022-05-26T12:58:32Z</time>
      </trkpt>
      <trkpt lat="48.03414" lon="6.97751">
        <ele>1043.3</ele>
        <time>2022-05-26T12:58:41Z</time>
      </trkpt>
      <trkpt lat="48.0341" lon="6.97763">
        <ele>1044.1</ele>
        <time>2022-05-26T12:58:53Z</time>
      </trkpt>
      <trkpt lat="48.03401" lon="6.97768">
        <ele>1047.5</ele>
        <time>2022-05-26T12:59:11Z</time>
      </trkpt>
      <trkpt lat="48.03401" lon="6.97769">
        <ele>1048.1</ele>
        <time>2022-05-26T12:59:15Z</time>
      </trkpt>
      <trkpt lat="48.03395" lon="6.97772">
        <ele>1050.6</ele>
        <time>2022-05-26T12:59:30Z</time>
      </trkpt>
      <trkpt lat="48.03393" lon="6.97774">
        <ele>1051.8</ele>
        <time>2022-05-26T12:59:41Z</time>
      </trkpt>
      <trkpt lat="48.03391" lon="6.97776">
        <ele>1053.2</ele>
        <time>2022-05-26T12:59:51Z</time>
      </trkpt>
      <trkpt lat="48.03388" lon="6.97778">
        <ele>1054.9</ele>
        <time>2022-05-26T13:00:01Z</time>
      </trkpt>
      <trkpt lat="48.03386" lon="6.97779">
        <ele>1056.1</ele>
        <time>2022-05-26T13:00:09Z</time>
      </trkpt>
      <trkpt lat="48.03384" lon="6.9778">
        <ele>1057.7</ele>
        <time>2022-05-26T13:00:17Z</time>
      </trkpt>
      <trkpt lat="48.03383" lon="6.9778">
        <ele>1058.5</ele>
        <time>2022-05-26T13:00:25Z</time>
      </trkpt>
      <trkpt lat="48.03382" lon="6.97781">
        <ele>1059.1</ele>
        <time>2022-05-26T13:00:29Z</time>
      </trkpt>
      <trkpt lat="48.03382" lon="6.97782">
        <ele>1059.2</ele>
        <time>2022-05-26T13:00:35Z</time>
      </trkpt>
      <trkpt lat="48.03382" lon="6.9779">
        <ele>1061.3</ele>
        <time>2022-05-26T13:00:49Z</time>
      </trkpt>
      <trkpt lat="48.03383" lon="6.9779">
        <ele>1061.4</ele>
        <time>2022-05-26T13:01:05Z</time>
      </trkpt>
      <trkpt lat="48.03383" lon="6.97791">
        <ele>1060.9</ele>
        <time>2022-05-26T13:01:43Z</time>
      </trkpt>
      <trkpt lat="48.03384" lon="6.97793">
        <ele>1061.4</ele>
        <time>2022-05-26T13:01:47Z</time>
      </trkpt>
      <trkpt lat="48.03385" lon="6.97793">
        <ele>1060.7</ele>
        <time>2022-05-26T13:02:08Z</time>
      </trkpt>
      <trkpt lat="48.03385" lon="6.97794">
        <ele>1061.2</ele>
        <time>2022-05-26T13:02:11Z</time>
      </trkpt>
      <trkpt lat="48.03386" lon="6.97794">
        <ele>1060.9</ele>
        <time>2022-05-26T13:02:14Z</time>
      </trkpt>
      <trkpt lat="48.03386" lon="6.97795">
        <ele>1060.8</ele>
        <time>2022-05-26T13:02:18Z</time>
      </trkpt>
      <trkpt lat="48.03384" lon="6.97796">
        <ele>1060.8</ele>
        <time>2022-05-26T13:02:28Z</time>
      </trkpt>
      <trkpt lat="48.03385" lon="6.97796">
        <ele>1060.6</ele>
        <time>2022-05-26T13:02:35Z</time>
      </trkpt>
      <trkpt lat="48.03385" lon="6.97797">
        <ele>1060.4</ele>
        <time>2022-05-26T13:02:47Z</time>
      </trkpt>
      <trkpt lat="48.03385" lon="6.97798">
        <ele>1061.5</ele>
        <time>2022-05-26T13:03:30Z</time>
      </trkpt>
      <trkpt lat="48.03393" lon="6.97806">
        <ele>1061.8</ele>
        <time>2022-05-26T13:03:36Z</time>
      </trkpt>
      <trkpt lat="48.03401" lon="6.97814">
        <ele>1063.4</ele>
        <time>2022-05-26T13:03:41Z</time>
      </trkpt>
      <trkpt lat="48.03409" lon="6.97823">
        <ele>1060.7</ele>
        <time>2022-05-26T13:03:45Z</time>
      </trkpt>
      <trkpt lat="48.03418" lon="6.97833">
        <ele>1059.6</ele>
        <time>2022-05-26T13:03:49Z</time>
      </trkpt>
      <trkpt lat="48.03428" lon="6.97843">
        <ele>1059.2</ele>
        <time>2022-05-26T13:03:53Z</time>
      </trkpt>
      <trkpt lat="48.0343" lon="6.97856">
        <ele>1061.1</ele>
        <time>2022-05-26T13:03:57Z</time>
      </trkpt>
      <trkpt lat="48.03423" lon="6.9787">
        <ele>1061.3</ele>
        <time>2022-05-26T13:04:02Z</time>
      </trkpt>
      <trkpt lat="48.03415" lon="6.9788">
        <ele>1060.9</ele>
        <time>2022-05-26T13:04:06Z</time>
      </trkpt>
      <trkpt lat="48.03409" lon="6.9789">
        <ele>1061.5</ele>
        <time>2022-05-26T13:04:09Z</time>
      </trkpt>
      <trkpt lat="48.03402" lon="6.979">
        <ele>1061.5</ele>
        <time>2022-05-26T13:04:12Z</time>
      </trkpt>
      <trkpt lat="48.03398" lon="6.97914">
        <ele>1061</ele>
        <time>2022-05-26T13:04:16Z</time>
      </trkpt>
      <trkpt lat="48.03396" lon="6.97931">
        <ele>1059.9</ele>
        <time>2022-05-26T13:04:20Z</time>
      </trkpt>
      <trkpt lat="48.03393" lon="6.97945">
        <ele>1060.1</ele>
        <time>2022-05-26T13:04:23Z</time>
      </trkpt>
      <trkpt lat="48.03392" lon="6.97958">
        <ele>1060.6</ele>
        <time>2022-05-26T13:04:26Z</time>
      </trkpt>
      <trkpt lat="48.03389" lon="6.97971">
        <ele>1059.7</ele>
        <time>2022-05-26T13:04:29Z</time>
      </trkpt>
      <trkpt lat="48.03386" lon="6.97985">
        <ele>1061.1</ele>
        <time>2022-05-26T13:04:32Z</time>
      </trkpt>
      <trkpt lat="48.03383" lon="6.97999">
        <ele>1060.9</ele>
        <time>2022-05-26T13:04:35Z</time>
      </trkpt>
      <trkpt lat="48.03379" lon="6.98013">
        <ele>1062.3</ele>
        <time>2022-05-26T13:04:38Z</time>
      </trkpt>
      <trkpt lat="48.03378" lon="6.98028">
        <ele>1062</ele>
        <time>2022-05-26T13:04:41Z</time>
      </trkpt>
      <trkpt lat="48.03377" lon="6.98045">
        <ele>1062</ele>
        <time>2022-05-26T13:04:45Z</time>
      </trkpt>
      <trkpt lat="48.03376" lon="6.98058">
        <ele>1063.3</ele>
        <time>2022-05-26T13:04:49Z</time>
      </trkpt>
      <trkpt lat="48.03374" lon="6.98074">
        <ele>1064.1</ele>
        <time>2022-05-26T13:04:54Z</time>
      </trkpt>
      <trkpt lat="48.03372" lon="6.98089">
        <ele>1064.4</ele>
        <time>2022-05-26T13:04:59Z</time>
      </trkpt>
      <trkpt lat="48.0337" lon="6.98103">
        <ele>1065.8</ele>
        <time>2022-05-26T13:05:04Z</time>
      </trkpt>
      <trkpt lat="48.0337" lon="6.98119">
        <ele>1067.1</ele>
        <time>2022-05-26T13:05:10Z</time>
      </trkpt>
      <trkpt lat="48.0337" lon="6.98134">
        <ele>1067.3</ele>
        <time>2022-05-26T13:05:15Z</time>
      </trkpt>
      <trkpt lat="48.03371" lon="6.98148">
        <ele>1068.8</ele>
        <time>2022-05-26T13:05:20Z</time>
      </trkpt>
      <trkpt lat="48.03374" lon="6.98161">
        <ele>1070.1</ele>
        <time>2022-05-26T13:05:25Z</time>
      </trkpt>
      <trkpt lat="48.03376" lon="6.98174">
        <ele>1070.5</ele>
        <time>2022-05-26T13:05:30Z</time>
      </trkpt>
      <trkpt lat="48.03376" lon="6.98188">
        <ele>1072.3</ele>
        <time>2022-05-26T13:05:35Z</time>
      </trkpt>
      <trkpt lat="48.03375" lon="6.98202">
        <ele>1073.3</ele>
        <time>2022-05-26T13:05:40Z</time>
      </trkpt>
      <trkpt lat="48.03372" lon="6.98217">
        <ele>1073.2</ele>
        <time>2022-05-26T13:05:46Z</time>
      </trkpt>
      <trkpt lat="48.03368" lon="6.9823">
        <ele>1075</ele>
        <time>2022-05-26T13:05:51Z</time>
      </trkpt>
      <trkpt lat="48.03365" lon="6.98245">
        <ele>1075.7</ele>
        <time>2022-05-26T13:05:57Z</time>
      </trkpt>
      <trkpt lat="48.03361" lon="6.98258">
        <ele>1076.7</ele>
        <time>2022-05-26T13:06:02Z</time>
      </trkpt>
      <trkpt lat="48.03358" lon="6.98273">
        <ele>1077.5</ele>
        <time>2022-05-26T13:06:08Z</time>
      </trkpt>
      <trkpt lat="48.03356" lon="6.98288">
        <ele>1077.9</ele>
        <time>2022-05-26T13:06:13Z</time>
      </trkpt>
      <trkpt lat="48.03352" lon="6.983">
        <ele>1079.7</ele>
        <time>2022-05-26T13:06:18Z</time>
      </trkpt>
      <trkpt lat="48.03347" lon="6.98312">
        <ele>1080.3</ele>
        <time>2022-05-26T13:06:23Z</time>
      </trkpt>
      <trkpt lat="48.03342" lon="6.98325">
        <ele>1080.4</ele>
        <time>2022-05-26T13:06:28Z</time>
      </trkpt>
      <trkpt lat="48.03337" lon="6.98337">
        <ele>1081.3</ele>
        <time>2022-05-26T13:06:33Z</time>
      </trkpt>
      <trkpt lat="48.03332" lon="6.98348">
        <ele>1082.8</ele>
        <time>2022-05-26T13:06:38Z</time>
      </trkpt>
      <trkpt lat="48.03327" lon="6.9836">
        <ele>1083.2</ele>
        <time>2022-05-26T13:06:43Z</time>
      </trkpt>
      <trkpt lat="48.03324" lon="6.98374">
        <ele>1085</ele>
        <time>2022-05-26T13:06:48Z</time>
      </trkpt>
      <trkpt lat="48.03319" lon="6.98387">
        <ele>1085.4</ele>
        <time>2022-05-26T13:06:53Z</time>
      </trkpt>
      <trkpt lat="48.03314" lon="6.98398">
        <ele>1085.7</ele>
        <time>2022-05-26T13:06:58Z</time>
      </trkpt>
      <trkpt lat="48.03309" lon="6.98409">
        <ele>1087.1</ele>
        <time>2022-05-26T13:07:03Z</time>
      </trkpt>
      <trkpt lat="48.03306" lon="6.98422">
        <ele>1088.5</ele>
        <time>2022-05-26T13:07:08Z</time>
      </trkpt>
      <trkpt lat="48.03302" lon="6.98435">
        <ele>1088.9</ele>
        <time>2022-05-26T13:07:13Z</time>
      </trkpt>
      <trkpt lat="48.03296" lon="6.98447">
        <ele>1090.5</ele>
        <time>2022-05-26T13:07:19Z</time>
      </trkpt>
      <trkpt lat="48.03291" lon="6.98458">
        <ele>1090.9</ele>
        <time>2022-05-26T13:07:24Z</time>
      </trkpt>
      <trkpt lat="48.03284" lon="6.98467">
        <ele>1092.8</ele>
        <time>2022-05-26T13:07:29Z</time>
      </trkpt>
      <trkpt lat="48.03277" lon="6.98478">
        <ele>1092.4</ele>
        <time>2022-05-26T13:07:34Z</time>
      </trkpt>
      <trkpt lat="48.03272" lon="6.98489">
        <ele>1094.4</ele>
        <time>2022-05-26T13:07:39Z</time>
      </trkpt>
      <trkpt lat="48.03266" lon="6.98501">
        <ele>1093.8</ele>
        <time>2022-05-26T13:07:44Z</time>
      </trkpt>
      <trkpt lat="48.03262" lon="6.98514">
        <ele>1095.3</ele>
        <time>2022-05-26T13:07:49Z</time>
      </trkpt>
      <trkpt lat="48.03257" lon="6.98527">
        <ele>1096.6</ele>
        <time>2022-05-26T13:07:54Z</time>
      </trkpt>
      <trkpt lat="48.03252" lon="6.9854">
        <ele>1097.1</ele>
        <time>2022-05-26T13:07:59Z</time>
      </trkpt>
      <trkpt lat="48.03247" lon="6.98552">
        <ele>1098</ele>
        <time>2022-05-26T13:08:04Z</time>
      </trkpt>
      <trkpt lat="48.0324" lon="6.98564">
        <ele>1098.4</ele>
        <time>2022-05-26T13:08:09Z</time>
      </trkpt>
      <trkpt lat="48.03234" lon="6.98575">
        <ele>1098.6</ele>
        <time>2022-05-26T13:08:14Z</time>
      </trkpt>
      <trkpt lat="48.03229" lon="6.98587">
        <ele>1100.6</ele>
        <time>2022-05-26T13:08:19Z</time>
      </trkpt>
      <trkpt lat="48.03222" lon="6.986">
        <ele>1100.6</ele>
        <time>2022-05-26T13:08:25Z</time>
      </trkpt>
      <trkpt lat="48.03217" lon="6.98613">
        <ele>1102.2</ele>
        <time>2022-05-26T13:08:30Z</time>
      </trkpt>
      <trkpt lat="48.03212" lon="6.98625">
        <ele>1102.4</ele>
        <time>2022-05-26T13:08:35Z</time>
      </trkpt>
      <trkpt lat="48.03207" lon="6.98637">
        <ele>1102.8</ele>
        <time>2022-05-26T13:08:40Z</time>
      </trkpt>
      <trkpt lat="48.03203" lon="6.98649">
        <ele>1104.2</ele>
        <time>2022-05-26T13:08:45Z</time>
      </trkpt>
      <trkpt lat="48.03199" lon="6.98663">
        <ele>1104.8</ele>
        <time>2022-05-26T13:08:50Z</time>
      </trkpt>
      <trkpt lat="48.03195" lon="6.98677">
        <ele>1104.3</ele>
        <time>2022-05-26T13:08:55Z</time>
      </trkpt>
      <trkpt lat="48.0319" lon="6.98689">
        <ele>1106</ele>
        <time>2022-05-26T13:09:00Z</time>
      </trkpt>
      <trkpt lat="48.03187" lon="6.98702">
        <ele>1106.8</ele>
        <time>2022-05-26T13:09:05Z</time>
      </trkpt>
      <trkpt lat="48.03183" lon="6.98715">
        <ele>1107.9</ele>
        <time>2022-05-26T13:09:10Z</time>
      </trkpt>
      <trkpt lat="48.03177" lon="6.98728">
        <ele>1108.9</ele>
        <time>2022-05-26T13:09:15Z</time>
      </trkpt>
      <trkpt lat="48.03172" lon="6.98741">
        <ele>1109.7</ele>
        <time>2022-05-26T13:09:20Z</time>
      </trkpt>
      <trkpt lat="48.03168" lon="6.98756">
        <ele>1110</ele>
        <time>2022-05-26T13:09:25Z</time>
      </trkpt>
      <trkpt lat="48.03163" lon="6.98767">
        <ele>1110.7</ele>
        <time>2022-05-26T13:09:30Z</time>
      </trkpt>
      <trkpt lat="48.03159" lon="6.9878">
        <ele>1111.8</ele>
        <time>2022-05-26T13:09:35Z</time>
      </trkpt>
      <trkpt lat="48.03155" lon="6.98795">
        <ele>1113.3</ele>
        <time>2022-05-26T13:09:41Z</time>
      </trkpt>
      <trkpt lat="48.03149" lon="6.98806">
        <ele>1114.3</ele>
        <time>2022-05-26T13:09:46Z</time>
      </trkpt>
      <trkpt lat="48.03144" lon="6.98818">
        <ele>1115</ele>
        <time>2022-05-26T13:09:51Z</time>
      </trkpt>
      <trkpt lat="48.03138" lon="6.98829">
        <ele>1115.5</ele>
        <time>2022-05-26T13:09:56Z</time>
      </trkpt>
      <trkpt lat="48.03133" lon="6.9884">
        <ele>1115.6</ele>
        <time>2022-05-26T13:10:01Z</time>
      </trkpt>
      <trkpt lat="48.03128" lon="6.98853">
        <ele>1117.4</ele>
        <time>2022-05-26T13:10:06Z</time>
      </trkpt>
      <trkpt lat="48.03124" lon="6.98865">
        <ele>1118.5</ele>
        <time>2022-05-26T13:10:11Z</time>
      </trkpt>
      <trkpt lat="48.03121" lon="6.98878">
        <ele>1120.1</ele>
        <time>2022-05-26T13:10:16Z</time>
      </trkpt>
      <trkpt lat="48.03122" lon="6.98893">
        <ele>1120.6</ele>
        <time>2022-05-26T13:10:21Z</time>
      </trkpt>
      <trkpt lat="48.03125" lon="6.98907">
        <ele>1121.6</ele>
        <time>2022-05-26T13:10:26Z</time>
      </trkpt>
      <trkpt lat="48.03126" lon="6.98921">
        <ele>1121.3</ele>
        <time>2022-05-26T13:10:31Z</time>
      </trkpt>
      <trkpt lat="48.03123" lon="6.98935">
        <ele>1122.1</ele>
        <time>2022-05-26T13:10:36Z</time>
      </trkpt>
      <trkpt lat="48.03118" lon="6.98946">
        <ele>1122.7</ele>
        <time>2022-05-26T13:10:41Z</time>
      </trkpt>
      <trkpt lat="48.03109" lon="6.98954">
        <ele>1124.6</ele>
        <time>2022-05-26T13:10:46Z</time>
      </trkpt>
      <trkpt lat="48.03099" lon="6.98958">
        <ele>1125.2</ele>
        <time>2022-05-26T13:10:51Z</time>
      </trkpt>
      <trkpt lat="48.0309" lon="6.98962">
        <ele>1126.5</ele>
        <time>2022-05-26T13:10:55Z</time>
      </trkpt>
      <trkpt lat="48.03081" lon="6.98967">
        <ele>1124.8</ele>
        <time>2022-05-26T13:10:59Z</time>
      </trkpt>
      <trkpt lat="48.03073" lon="6.98971">
        <ele>1125.9</ele>
        <time>2022-05-26T13:11:03Z</time>
      </trkpt>
      <trkpt lat="48.03064" lon="6.98978">
        <ele>1125.9</ele>
        <time>2022-05-26T13:11:07Z</time>
      </trkpt>
      <trkpt lat="48.03056" lon="6.98986">
        <ele>1127.5</ele>
        <time>2022-05-26T13:11:12Z</time>
      </trkpt>
      <trkpt lat="48.03048" lon="6.98996">
        <ele>1127.8</ele>
        <time>2022-05-26T13:11:17Z</time>
      </trkpt>
      <trkpt lat="48.03041" lon="6.99006">
        <ele>1129.7</ele>
        <time>2022-05-26T13:11:22Z</time>
      </trkpt>
      <trkpt lat="48.03034" lon="6.99016">
        <ele>1130.4</ele>
        <time>2022-05-26T13:11:27Z</time>
      </trkpt>
      <trkpt lat="48.03027" lon="6.99026">
        <ele>1130.5</ele>
        <time>2022-05-26T13:11:32Z</time>
      </trkpt>
      <trkpt lat="48.03019" lon="6.99033">
        <ele>1132.4</ele>
        <time>2022-05-26T13:11:37Z</time>
      </trkpt>
      <trkpt lat="48.03011" lon="6.99039">
        <ele>1134.1</ele>
        <time>2022-05-26T13:11:42Z</time>
      </trkpt>
      <trkpt lat="48.03002" lon="6.99045">
        <ele>1134.4</ele>
        <time>2022-05-26T13:11:47Z</time>
      </trkpt>
      <trkpt lat="48.02992" lon="6.99051">
        <ele>1135.2</ele>
        <time>2022-05-26T13:11:52Z</time>
      </trkpt>
      <trkpt lat="48.02983" lon="6.99057">
        <ele>1135.1</ele>
        <time>2022-05-26T13:11:56Z</time>
      </trkpt>
      <trkpt lat="48.02975" lon="6.99066">
        <ele>1135.1</ele>
        <time>2022-05-26T13:12:00Z</time>
      </trkpt>
      <trkpt lat="48.02969" lon="6.99076">
        <ele>1135.8</ele>
        <time>2022-05-26T13:12:04Z</time>
      </trkpt>
      <trkpt lat="48.02963" lon="6.99088">
        <ele>1137.2</ele>
        <time>2022-05-26T13:12:08Z</time>
      </trkpt>
      <trkpt lat="48.0296" lon="6.99104">
        <ele>1137.9</ele>
        <time>2022-05-26T13:12:13Z</time>
      </trkpt>
      <trkpt lat="48.0296" lon="6.9912">
        <ele>1139</ele>
        <time>2022-05-26T13:12:18Z</time>
      </trkpt>
      <trkpt lat="48.02961" lon="6.99134">
        <ele>1140.3</ele>
        <time>2022-05-26T13:12:23Z</time>
      </trkpt>
      <trkpt lat="48.02965" lon="6.99149">
        <ele>1141.5</ele>
        <time>2022-05-26T13:12:29Z</time>
      </trkpt>
      <trkpt lat="48.02969" lon="6.99163">
        <ele>1143</ele>
        <time>2022-05-26T13:12:35Z</time>
      </trkpt>
      <trkpt lat="48.02974" lon="6.99176">
        <ele>1144.2</ele>
        <time>2022-05-26T13:12:41Z</time>
      </trkpt>
      <trkpt lat="48.02981" lon="6.99189">
        <ele>1144.8</ele>
        <time>2022-05-26T13:12:47Z</time>
      </trkpt>
      <trkpt lat="48.02985" lon="6.99202">
        <ele>1146.2</ele>
        <time>2022-05-26T13:12:53Z</time>
      </trkpt>
      <trkpt lat="48.02989" lon="6.99215">
        <ele>1148.5</ele>
        <time>2022-05-26T13:12:59Z</time>
      </trkpt>
      <trkpt lat="48.02991" lon="6.99228">
        <ele>1149</ele>
        <time>2022-05-26T13:13:05Z</time>
      </trkpt>
      <trkpt lat="48.02993" lon="6.99241">
        <ele>1150.8</ele>
        <time>2022-05-26T13:13:12Z</time>
      </trkpt>
      <trkpt lat="48.02993" lon="6.99257">
        <ele>1152.7</ele>
        <time>2022-05-26T13:13:19Z</time>
      </trkpt>
      <trkpt lat="48.02993" lon="6.99271">
        <ele>1153.2</ele>
        <time>2022-05-26T13:13:25Z</time>
      </trkpt>
      <trkpt lat="48.02993" lon="6.99285">
        <ele>1154.7</ele>
        <time>2022-05-26T13:13:31Z</time>
      </trkpt>
      <trkpt lat="48.02992" lon="6.99301">
        <ele>1156.1</ele>
        <time>2022-05-26T13:13:37Z</time>
      </trkpt>
      <trkpt lat="48.02989" lon="6.99316">
        <ele>1157.2</ele>
        <time>2022-05-26T13:13:43Z</time>
      </trkpt>
      <trkpt lat="48.02987" lon="6.99331">
        <ele>1158.5</ele>
        <time>2022-05-26T13:13:49Z</time>
      </trkpt>
      <trkpt lat="48.02986" lon="6.99347">
        <ele>1159</ele>
        <time>2022-05-26T13:13:55Z</time>
      </trkpt>
      <trkpt lat="48.02985" lon="6.99362">
        <ele>1160.1</ele>
        <time>2022-05-26T13:14:01Z</time>
      </trkpt>
      <trkpt lat="48.02984" lon="6.99377">
        <ele>1161.1</ele>
        <time>2022-05-26T13:14:06Z</time>
      </trkpt>
      <trkpt lat="48.02981" lon="6.99391">
        <ele>1161.7</ele>
        <time>2022-05-26T13:14:11Z</time>
      </trkpt>
      <trkpt lat="48.02976" lon="6.99405">
        <ele>1161.3</ele>
        <time>2022-05-26T13:14:16Z</time>
      </trkpt>
      <trkpt lat="48.02975" lon="6.9942">
        <ele>1162.1</ele>
        <time>2022-05-26T13:14:21Z</time>
      </trkpt>
      <trkpt lat="48.02975" lon="6.99434">
        <ele>1162.8</ele>
        <time>2022-05-26T13:14:25Z</time>
      </trkpt>
      <trkpt lat="48.02974" lon="6.99449">
        <ele>1163.7</ele>
        <time>2022-05-26T13:14:30Z</time>
      </trkpt>
      <trkpt lat="48.02971" lon="6.99462">
        <ele>1165.4</ele>
        <time>2022-05-26T13:14:35Z</time>
      </trkpt>
      <trkpt lat="48.02969" lon="6.99477">
        <ele>1166.8</ele>
        <time>2022-05-26T13:14:41Z</time>
      </trkpt>
      <trkpt lat="48.02966" lon="6.99491">
        <ele>1168.2</ele>
        <time>2022-05-26T13:14:47Z</time>
      </trkpt>
      <trkpt lat="48.02966" lon="6.99505">
        <ele>1169.6</ele>
        <time>2022-05-26T13:14:53Z</time>
      </trkpt>
      <trkpt lat="48.02965" lon="6.99519">
        <ele>1171.6</ele>
        <time>2022-05-26T13:15:01Z</time>
      </trkpt>
      <trkpt lat="48.02965" lon="6.99533">
        <ele>1172.7</ele>
        <time>2022-05-26T13:15:06Z</time>
      </trkpt>
      <trkpt lat="48.02965" lon="6.99547">
        <ele>1174.2</ele>
        <time>2022-05-26T13:15:12Z</time>
      </trkpt>
      <trkpt lat="48.02966" lon="6.99561">
        <ele>1174.8</ele>
        <time>2022-05-26T13:15:17Z</time>
      </trkpt>
      <trkpt lat="48.02967" lon="6.99575">
        <ele>1176.7</ele>
        <time>2022-05-26T13:15:22Z</time>
      </trkpt>
      <trkpt lat="48.02966" lon="6.99589">
        <ele>1178</ele>
        <time>2022-05-26T13:15:28Z</time>
      </trkpt>
      <trkpt lat="48.02965" lon="6.99604">
        <ele>1179.6</ele>
        <time>2022-05-26T13:15:35Z</time>
      </trkpt>
      <trkpt lat="48.02965" lon="6.99618">
        <ele>1180.9</ele>
        <time>2022-05-26T13:15:40Z</time>
      </trkpt>
      <trkpt lat="48.02965" lon="6.99634">
        <ele>1182.1</ele>
        <time>2022-05-26T13:15:46Z</time>
      </trkpt>
      <trkpt lat="48.02964" lon="6.99648">
        <ele>1183.2</ele>
        <time>2022-05-26T13:15:52Z</time>
      </trkpt>
      <trkpt lat="48.02964" lon="6.99663">
        <ele>1184.1</ele>
        <time>2022-05-26T13:15:58Z</time>
      </trkpt>
      <trkpt lat="48.02964" lon="6.99678">
        <ele>1185.2</ele>
        <time>2022-05-26T13:16:04Z</time>
      </trkpt>
      <trkpt lat="48.02964" lon="6.99693">
        <ele>1186</ele>
        <time>2022-05-26T13:16:10Z</time>
      </trkpt>
      <trkpt lat="48.02964" lon="6.99707">
        <ele>1187</ele>
        <time>2022-05-26T13:16:15Z</time>
      </trkpt>
      <trkpt lat="48.02963" lon="6.9972">
        <ele>1187.9</ele>
        <time>2022-05-26T13:16:20Z</time>
      </trkpt>
      <trkpt lat="48.02963" lon="6.99735">
        <ele>1189.2</ele>
        <time>2022-05-26T13:16:25Z</time>
      </trkpt>
      <trkpt lat="48.02964" lon="6.9975">
        <ele>1189.5</ele>
        <time>2022-05-26T13:16:30Z</time>
      </trkpt>
      <trkpt lat="48.02966" lon="6.99765">
        <ele>1190.4</ele>
        <time>2022-05-26T13:16:35Z</time>
      </trkpt>
      <trkpt lat="48.02968" lon="6.9978">
        <ele>1191.9</ele>
        <time>2022-05-26T13:16:40Z</time>
      </trkpt>
      <trkpt lat="48.02971" lon="6.99795">
        <ele>1192.8</ele>
        <time>2022-05-26T13:16:45Z</time>
      </trkpt>
      <trkpt lat="48.02974" lon="6.9981">
        <ele>1194.3</ele>
        <time>2022-05-26T13:16:50Z</time>
      </trkpt>
      <trkpt lat="48.02977" lon="6.99826">
        <ele>1194.5</ele>
        <time>2022-05-26T13:16:55Z</time>
      </trkpt>
      <trkpt lat="48.0298" lon="6.99842">
        <ele>1195.9</ele>
        <time>2022-05-26T13:17:00Z</time>
      </trkpt>
      <trkpt lat="48.02982" lon="6.99858">
        <ele>1196.6</ele>
        <time>2022-05-26T13:17:05Z</time>
      </trkpt>
      <trkpt lat="48.02983" lon="6.99874">
        <ele>1197.1</ele>
        <time>2022-05-26T13:17:10Z</time>
      </trkpt>
      <trkpt lat="48.02984" lon="6.99891">
        <ele>1198.1</ele>
        <time>2022-05-26T13:17:15Z</time>
      </trkpt>
      <trkpt lat="48.02993" lon="6.99898">
        <ele>1199.7</ele>
        <time>2022-05-26T13:17:20Z</time>
      </trkpt>
      <trkpt lat="48.02999" lon="6.99884">
        <ele>1200.8</ele>
        <time>2022-05-26T13:17:24Z</time>
      </trkpt>
      <trkpt lat="48.03001" lon="6.99867">
        <ele>1200.2</ele>
        <time>2022-05-26T13:17:28Z</time>
      </trkpt>
      <trkpt lat="48.03002" lon="6.99854">
        <ele>1201.2</ele>
        <time>2022-05-26T13:17:31Z</time>
      </trkpt>
      <trkpt lat="48.03004" lon="6.9984">
        <ele>1201.6</ele>
        <time>2022-05-26T13:17:34Z</time>
      </trkpt>
      <trkpt lat="48.03006" lon="6.99825">
        <ele>1203</ele>
        <time>2022-05-26T13:17:37Z</time>
      </trkpt>
      <trkpt lat="48.03009" lon="6.99809">
        <ele>1203</ele>
        <time>2022-05-26T13:17:40Z</time>
      </trkpt>
      <trkpt lat="48.03011" lon="6.99793">
        <ele>1202.8</ele>
        <time>2022-05-26T13:17:43Z</time>
      </trkpt>
      <trkpt lat="48.03013" lon="6.99776">
        <ele>1203.1</ele>
        <time>2022-05-26T13:17:46Z</time>
      </trkpt>
      <trkpt lat="48.03016" lon="6.99759">
        <ele>1203.4</ele>
        <time>2022-05-26T13:17:49Z</time>
      </trkpt>
      <trkpt lat="48.03019" lon="6.99742">
        <ele>1203</ele>
        <time>2022-05-26T13:17:52Z</time>
      </trkpt>
      <trkpt lat="48.03022" lon="6.99725">
        <ele>1203.4</ele>
        <time>2022-05-26T13:17:55Z</time>
      </trkpt>
      <trkpt lat="48.03026" lon="6.99708">
        <ele>1203.9</ele>
        <time>2022-05-26T13:17:58Z</time>
      </trkpt>
      <trkpt lat="48.0303" lon="6.99692">
        <ele>1204.5</ele>
        <time>2022-05-26T13:18:01Z</time>
      </trkpt>
      <trkpt lat="48.03033" lon="6.99675">
        <ele>1205.3</ele>
        <time>2022-05-26T13:18:04Z</time>
      </trkpt>
      <trkpt lat="48.03036" lon="6.99659">
        <ele>1205.5</ele>
        <time>2022-05-26T13:18:07Z</time>
      </trkpt>
      <trkpt lat="48.0304" lon="6.99642">
        <ele>1205.7</ele>
        <time>2022-05-26T13:18:10Z</time>
      </trkpt>
      <trkpt lat="48.03044" lon="6.99626">
        <ele>1204.9</ele>
        <time>2022-05-26T13:18:13Z</time>
      </trkpt>
      <trkpt lat="48.03048" lon="6.9961">
        <ele>1205.8</ele>
        <time>2022-05-26T13:18:16Z</time>
      </trkpt>
      <trkpt lat="48.0305" lon="6.99591">
        <ele>1205.4</ele>
        <time>2022-05-26T13:18:19Z</time>
      </trkpt>
      <trkpt lat="48.03052" lon="6.99574">
        <ele>1204.9</ele>
        <time>2022-05-26T13:18:22Z</time>
      </trkpt>
      <trkpt lat="48.03055" lon="6.9956">
        <ele>1204.5</ele>
        <time>2022-05-26T13:18:24Z</time>
      </trkpt>
      <trkpt lat="48.03058" lon="6.99545">
        <ele>1203.5</ele>
        <time>2022-05-26T13:18:26Z</time>
      </trkpt>
      <trkpt lat="48.0306" lon="6.99529">
        <ele>1203</ele>
        <time>2022-05-26T13:18:28Z</time>
      </trkpt>
      <trkpt lat="48.03063" lon="6.99514">
        <ele>1203.4</ele>
        <time>2022-05-26T13:18:30Z</time>
      </trkpt>
      <trkpt lat="48.03067" lon="6.99498">
        <ele>1203.1</ele>
        <time>2022-05-26T13:18:32Z</time>
      </trkpt>
      <trkpt lat="48.03071" lon="6.99483">
        <ele>1202.9</ele>
        <time>2022-05-26T13:18:34Z</time>
      </trkpt>
      <trkpt lat="48.03077" lon="6.9947">
        <ele>1203.4</ele>
        <time>2022-05-26T13:18:36Z</time>
      </trkpt>
      <trkpt lat="48.03082" lon="6.99456">
        <ele>1203.7</ele>
        <time>2022-05-26T13:18:38Z</time>
      </trkpt>
      <trkpt lat="48.03087" lon="6.99443">
        <ele>1202.6</ele>
        <time>2022-05-26T13:18:40Z</time>
      </trkpt>
      <trkpt lat="48.0309" lon="6.99429">
        <ele>1201.7</ele>
        <time>2022-05-26T13:18:42Z</time>
      </trkpt>
      <trkpt lat="48.03094" lon="6.99415">
        <ele>1201.4</ele>
        <time>2022-05-26T13:18:44Z</time>
      </trkpt>
      <trkpt lat="48.031" lon="6.99401">
        <ele>1202.3</ele>
        <time>2022-05-26T13:18:46Z</time>
      </trkpt>
      <trkpt lat="48.03109" lon="6.99392">
        <ele>1203.1</ele>
        <time>2022-05-26T13:18:48Z</time>
      </trkpt>
      <trkpt lat="48.03118" lon="6.99386">
        <ele>1204.7</ele>
        <time>2022-05-26T13:18:50Z</time>
      </trkpt>
      <trkpt lat="48.03131" lon="6.99382">
        <ele>1204.8</ele>
        <time>2022-05-26T13:18:53Z</time>
      </trkpt>
      <trkpt lat="48.03143" lon="6.99381">
        <ele>1205.8</ele>
        <time>2022-05-26T13:18:56Z</time>
      </trkpt>
      <trkpt lat="48.03154" lon="6.9938">
        <ele>1206</ele>
        <time>2022-05-26T13:19:00Z</time>
      </trkpt>
      <trkpt lat="48.03163" lon="6.99373">
        <ele>1205.4</ele>
        <time>2022-05-26T13:19:06Z</time>
      </trkpt>
      <trkpt lat="48.0317" lon="6.99365">
        <ele>1203</ele>
        <time>2022-05-26T13:19:13Z</time>
      </trkpt>
      <trkpt lat="48.03161" lon="6.99374">
        <ele>1205</ele>
        <time>2022-05-26T13:19:18Z</time>
      </trkpt>
      <trkpt lat="48.03156" lon="6.99388">
        <ele>1206.5</ele>
        <time>2022-05-26T13:19:22Z</time>
      </trkpt>
      <trkpt lat="48.03158" lon="6.99402">
        <ele>1208</ele>
        <time>2022-05-26T13:19:26Z</time>
      </trkpt>
      <trkpt lat="48.03166" lon="6.99409">
        <ele>1209</ele>
        <time>2022-05-26T13:19:32Z</time>
      </trkpt>
      <trkpt lat="48.03173" lon="6.99407">
        <ele>1208.8</ele>
        <time>2022-05-26T13:19:39Z</time>
      </trkpt>
      <trkpt lat="48.03173" lon="6.99406">
        <ele>1208.8</ele>
        <time>2022-05-26T13:19:49Z</time>
      </trkpt>
      <trkpt lat="48.03173" lon="6.99407">
        <ele>1208.5</ele>
        <time>2022-05-26T13:20:38Z</time>
      </trkpt>
      <trkpt lat="48.03173" lon="6.99408">
        <ele>1208.5</ele>
        <time>2022-05-26T13:20:48Z</time>
      </trkpt>
      <trkpt lat="48.03173" lon="6.99409">
        <ele>1208.5</ele>
        <time>2022-05-26T13:20:54Z</time>
      </trkpt>
      <trkpt lat="48.03174" lon="6.99409">
        <ele>1209.2</ele>
        <time>2022-05-26T13:21:27Z</time>
      </trkpt>
      <trkpt lat="48.03174" lon="6.9941">
        <ele>1208.7</ele>
        <time>2022-05-26T13:21:30Z</time>
      </trkpt>
      <trkpt lat="48.03173" lon="6.9941">
        <ele>1208.8</ele>
        <time>2022-05-26T13:21:32Z</time>
      </trkpt>
      <trkpt lat="48.03174" lon="6.9941">
        <ele>1208.8</ele>
        <time>2022-05-26T13:22:50Z</time>
      </trkpt>
      <trkpt lat="48.03173" lon="6.9941">
        <ele>1209.1</ele>
        <time>2022-05-26T13:23:03Z</time>
      </trkpt>
      <trkpt lat="48.03173" lon="6.99409">
        <ele>1208.8</ele>
        <time>2022-05-26T13:24:50Z</time>
      </trkpt>
      <trkpt lat="48.03172" lon="6.9941">
        <ele>1209</ele>
        <time>2022-05-26T13:24:54Z</time>
      </trkpt>
      <trkpt lat="48.03172" lon="6.99409">
        <ele>1209</ele>
        <time>2022-05-26T13:25:12Z</time>
      </trkpt>
      <trkpt lat="48.03165" lon="6.99411">
        <ele>1209.1</ele>
        <time>2022-05-26T13:25:22Z</time>
      </trkpt>
      <trkpt lat="48.03164" lon="6.99412">
        <ele>1208.8</ele>
        <time>2022-05-26T13:25:25Z</time>
      </trkpt>
      <trkpt lat="48.03173" lon="6.99421">
        <ele>1210.5</ele>
        <time>2022-05-26T13:25:33Z</time>
      </trkpt>
      <trkpt lat="48.03182" lon="6.99424">
        <ele>1210.8</ele>
        <time>2022-05-26T13:25:38Z</time>
      </trkpt>
      <trkpt lat="48.03191" lon="6.99427">
        <ele>1211.3</ele>
        <time>2022-05-26T13:25:44Z</time>
      </trkpt>
      <trkpt lat="48.032" lon="6.99429">
        <ele>1211.9</ele>
        <time>2022-05-26T13:25:50Z</time>
      </trkpt>
      <trkpt lat="48.03211" lon="6.99431">
        <ele>1212.4</ele>
        <time>2022-05-26T13:25:57Z</time>
      </trkpt>
      <trkpt lat="48.03221" lon="6.99434">
        <ele>1213</ele>
        <time>2022-05-26T13:26:03Z</time>
      </trkpt>
      <trkpt lat="48.0323" lon="6.99437">
        <ele>1213.2</ele>
        <time>2022-05-26T13:26:08Z</time>
      </trkpt>
      <trkpt lat="48.0324" lon="6.99441">
        <ele>1214.1</ele>
        <time>2022-05-26T13:26:13Z</time>
      </trkpt>
      <trkpt lat="48.0325" lon="6.99445">
        <ele>1214.4</ele>
        <time>2022-05-26T13:26:18Z</time>
      </trkpt>
      <trkpt lat="48.0326" lon="6.99449">
        <ele>1216.1</ele>
        <time>2022-05-26T13:26:23Z</time>
      </trkpt>
      <trkpt lat="48.0327" lon="6.99453">
        <ele>1216.6</ele>
        <time>2022-05-26T13:26:28Z</time>
      </trkpt>
      <trkpt lat="48.0328" lon="6.99457">
        <ele>1216.8</ele>
        <time>2022-05-26T13:26:33Z</time>
      </trkpt>
      <trkpt lat="48.03291" lon="6.99462">
        <ele>1217.2</ele>
        <time>2022-05-26T13:26:38Z</time>
      </trkpt>
      <trkpt lat="48.03301" lon="6.99467">
        <ele>1218.1</ele>
        <time>2022-05-26T13:26:43Z</time>
      </trkpt>
      <trkpt lat="48.03311" lon="6.99472">
        <ele>1218.7</ele>
        <time>2022-05-26T13:26:48Z</time>
      </trkpt>
      <trkpt lat="48.03321" lon="6.99479">
        <ele>1219.6</ele>
        <time>2022-05-26T13:26:53Z</time>
      </trkpt>
      <trkpt lat="48.03329" lon="6.99488">
        <ele>1220.5</ele>
        <time>2022-05-26T13:26:58Z</time>
      </trkpt>
      <trkpt lat="48.03337" lon="6.99499">
        <ele>1220.9</ele>
        <time>2022-05-26T13:27:03Z</time>
      </trkpt>
      <trkpt lat="48.03344" lon="6.99511">
        <ele>1221.8</ele>
        <time>2022-05-26T13:27:08Z</time>
      </trkpt>
      <trkpt lat="48.03349" lon="6.99523">
        <ele>1223.1</ele>
        <time>2022-05-26T13:27:13Z</time>
      </trkpt>
      <trkpt lat="48.03354" lon="6.99536">
        <ele>1223.5</ele>
        <time>2022-05-26T13:27:18Z</time>
      </trkpt>
      <trkpt lat="48.03359" lon="6.99549">
        <ele>1224.7</ele>
        <time>2022-05-26T13:27:23Z</time>
      </trkpt>
      <trkpt lat="48.03362" lon="6.99563">
        <ele>1225.9</ele>
        <time>2022-05-26T13:27:28Z</time>
      </trkpt>
      <trkpt lat="48.03366" lon="6.99577">
        <ele>1226.3</ele>
        <time>2022-05-26T13:27:33Z</time>
      </trkpt>
      <trkpt lat="48.03369" lon="6.9959">
        <ele>1227.7</ele>
        <time>2022-05-26T13:27:38Z</time>
      </trkpt>
      <trkpt lat="48.03373" lon="6.99604">
        <ele>1228.7</ele>
        <time>2022-05-26T13:27:43Z</time>
      </trkpt>
      <trkpt lat="48.03376" lon="6.99618">
        <ele>1230</ele>
        <time>2022-05-26T13:27:48Z</time>
      </trkpt>
      <trkpt lat="48.0338" lon="6.99631">
        <ele>1230.8</ele>
        <time>2022-05-26T13:27:53Z</time>
      </trkpt>
      <trkpt lat="48.03383" lon="6.99645">
        <ele>1231.4</ele>
        <time>2022-05-26T13:27:58Z</time>
      </trkpt>
      <trkpt lat="48.03386" lon="6.99659">
        <ele>1232.2</ele>
        <time>2022-05-26T13:28:03Z</time>
      </trkpt>
      <trkpt lat="48.03389" lon="6.99673">
        <ele>1232.8</ele>
        <time>2022-05-26T13:28:08Z</time>
      </trkpt>
      <trkpt lat="48.03392" lon="6.99687">
        <ele>1234.3</ele>
        <time>2022-05-26T13:28:13Z</time>
      </trkpt>
      <trkpt lat="48.03395" lon="6.99701">
        <ele>1234.7</ele>
        <time>2022-05-26T13:28:18Z</time>
      </trkpt>
      <trkpt lat="48.03396" lon="6.99716">
        <ele>1236.1</ele>
        <time>2022-05-26T13:28:23Z</time>
      </trkpt>
      <trkpt lat="48.03398" lon="6.99731">
        <ele>1237.2</ele>
        <time>2022-05-26T13:28:28Z</time>
      </trkpt>
      <trkpt lat="48.03401" lon="6.99747">
        <ele>1237.6</ele>
        <time>2022-05-26T13:28:33Z</time>
      </trkpt>
      <trkpt lat="48.03404" lon="6.99762">
        <ele>1238.1</ele>
        <time>2022-05-26T13:28:38Z</time>
      </trkpt>
      <trkpt lat="48.03407" lon="6.99777">
        <ele>1238.6</ele>
        <time>2022-05-26T13:28:43Z</time>
      </trkpt>
      <trkpt lat="48.03409" lon="6.99792">
        <ele>1239.5</ele>
        <time>2022-05-26T13:28:48Z</time>
      </trkpt>
      <trkpt lat="48.03412" lon="6.99808">
        <ele>1240.3</ele>
        <time>2022-05-26T13:28:53Z</time>
      </trkpt>
      <trkpt lat="48.03414" lon="6.99822">
        <ele>1240.1</ele>
        <time>2022-05-26T13:28:57Z</time>
      </trkpt>
      <trkpt lat="48.03416" lon="6.99836">
        <ele>1239.8</ele>
        <time>2022-05-26T13:29:01Z</time>
      </trkpt>
      <trkpt lat="48.03418" lon="6.9985">
        <ele>1239.8</ele>
        <time>2022-05-26T13:29:05Z</time>
      </trkpt>
      <trkpt lat="48.03421" lon="6.99866">
        <ele>1240</ele>
        <time>2022-05-26T13:29:10Z</time>
      </trkpt>
      <trkpt lat="48.03422" lon="6.99879">
        <ele>1239.6</ele>
        <time>2022-05-26T13:29:14Z</time>
      </trkpt>
      <trkpt lat="48.03423" lon="6.99893">
        <ele>1239.8</ele>
        <time>2022-05-26T13:29:18Z</time>
      </trkpt>
      <trkpt lat="48.03424" lon="6.99907">
        <ele>1239.7</ele>
        <time>2022-05-26T13:29:22Z</time>
      </trkpt>
      <trkpt lat="48.03425" lon="6.99923">
        <ele>1239.1</ele>
        <time>2022-05-26T13:29:26Z</time>
      </trkpt>
      <trkpt lat="48.03425" lon="6.99936">
        <ele>1239.1</ele>
        <time>2022-05-26T13:29:29Z</time>
      </trkpt>
      <trkpt lat="48.03424" lon="6.99953">
        <ele>1239.7</ele>
        <time>2022-05-26T13:29:33Z</time>
      </trkpt>
      <trkpt lat="48.0342" lon="6.99968">
        <ele>1239.7</ele>
        <time>2022-05-26T13:29:37Z</time>
      </trkpt>
      <trkpt lat="48.03414" lon="6.99984">
        <ele>1240</ele>
        <time>2022-05-26T13:29:41Z</time>
      </trkpt>
      <trkpt lat="48.0341" lon="6.99999">
        <ele>1239.5</ele>
        <time>2022-05-26T13:29:44Z</time>
      </trkpt>
      <trkpt lat="48.03411" lon="7.00014">
        <ele>1239.9</ele>
        <time>2022-05-26T13:29:47Z</time>
      </trkpt>
      <trkpt lat="48.03415" lon="7.00031">
        <ele>1239.7</ele>
        <time>2022-05-26T13:29:51Z</time>
      </trkpt>
      <trkpt lat="48.03418" lon="7.00046">
        <ele>1240.8</ele>
        <time>2022-05-26T13:29:55Z</time>
      </trkpt>
      <trkpt lat="48.0342" lon="7.00062">
        <ele>1241.8</ele>
        <time>2022-05-26T13:29:59Z</time>
      </trkpt>
      <trkpt lat="48.0342" lon="7.00078">
        <ele>1242.4</ele>
        <time>2022-05-26T13:30:03Z</time>
      </trkpt>
      <trkpt lat="48.0342" lon="7.00093">
        <ele>1242.5</ele>
        <time>2022-05-26T13:30:07Z</time>
      </trkpt>
      <trkpt lat="48.03421" lon="7.00108">
        <ele>1243.8</ele>
        <time>2022-05-26T13:30:11Z</time>
      </trkpt>
      <trkpt lat="48.03423" lon="7.00124">
        <ele>1244.1</ele>
        <time>2022-05-26T13:30:15Z</time>
      </trkpt>
      <trkpt lat="48.03423" lon="7.00138">
        <ele>1244.4</ele>
        <time>2022-05-26T13:30:18Z</time>
      </trkpt>
      <trkpt lat="48.03425" lon="7.00156">
        <ele>1244.6</ele>
        <time>2022-05-26T13:30:22Z</time>
      </trkpt>
      <trkpt lat="48.03425" lon="7.00173">
        <ele>1245.3</ele>
        <time>2022-05-26T13:30:26Z</time>
      </trkpt>
      <trkpt lat="48.03425" lon="7.00191">
        <ele>1245.6</ele>
        <time>2022-05-26T13:30:30Z</time>
      </trkpt>
      <trkpt lat="48.03424" lon="7.00204">
        <ele>1245.9</ele>
        <time>2022-05-26T13:30:33Z</time>
      </trkpt>
      <trkpt lat="48.03424" lon="7.00218">
        <ele>1246</ele>
        <time>2022-05-26T13:30:36Z</time>
      </trkpt>
      <trkpt lat="48.03425" lon="7.00232">
        <ele>1246.2</ele>
        <time>2022-05-26T13:30:39Z</time>
      </trkpt>
      <trkpt lat="48.03427" lon="7.00246">
        <ele>1246.8</ele>
        <time>2022-05-26T13:30:42Z</time>
      </trkpt>
      <trkpt lat="48.03429" lon="7.00263">
        <ele>1247.2</ele>
        <time>2022-05-26T13:30:46Z</time>
      </trkpt>
      <trkpt lat="48.0343" lon="7.0028">
        <ele>1246.9</ele>
        <time>2022-05-26T13:30:50Z</time>
      </trkpt>
      <trkpt lat="48.03431" lon="7.00297">
        <ele>1248.3</ele>
        <time>2022-05-26T13:30:54Z</time>
      </trkpt>
      <trkpt lat="48.03432" lon="7.00314">
        <ele>1248.5</ele>
        <time>2022-05-26T13:30:58Z</time>
      </trkpt>
      <trkpt lat="48.03434" lon="7.00331">
        <ele>1248.5</ele>
        <time>2022-05-26T13:31:02Z</time>
      </trkpt>
      <trkpt lat="48.03434" lon="7.00347">
        <ele>1249.2</ele>
        <time>2022-05-26T13:31:06Z</time>
      </trkpt>
      <trkpt lat="48.03435" lon="7.00363">
        <ele>1249.8</ele>
        <time>2022-05-26T13:31:10Z</time>
      </trkpt>
      <trkpt lat="48.03434" lon="7.00379">
        <ele>1250</ele>
        <time>2022-05-26T13:31:14Z</time>
      </trkpt>
      <trkpt lat="48.03434" lon="7.00397">
        <ele>1250.2</ele>
        <time>2022-05-26T13:31:18Z</time>
      </trkpt>
      <trkpt lat="48.03434" lon="7.00411">
        <ele>1250.6</ele>
        <time>2022-05-26T13:31:21Z</time>
      </trkpt>
      <trkpt lat="48.03435" lon="7.00428">
        <ele>1251</ele>
        <time>2022-05-26T13:31:25Z</time>
      </trkpt>
      <trkpt lat="48.03437" lon="7.00445">
        <ele>1251.7</ele>
        <time>2022-05-26T13:31:29Z</time>
      </trkpt>
      <trkpt lat="48.0344" lon="7.00461">
        <ele>1252.6</ele>
        <time>2022-05-26T13:31:33Z</time>
      </trkpt>
      <trkpt lat="48.03442" lon="7.00478">
        <ele>1252.3</ele>
        <time>2022-05-26T13:31:37Z</time>
      </trkpt>
      <trkpt lat="48.03444" lon="7.00493">
        <ele>1253</ele>
        <time>2022-05-26T13:31:40Z</time>
      </trkpt>
      <trkpt lat="48.03446" lon="7.00507">
        <ele>1253</ele>
        <time>2022-05-26T13:31:43Z</time>
      </trkpt>
      <trkpt lat="48.03449" lon="7.00523">
        <ele>1253</ele>
        <time>2022-05-26T13:31:47Z</time>
      </trkpt>
      <trkpt lat="48.03454" lon="7.00539">
        <ele>1253.5</ele>
        <time>2022-05-26T13:31:51Z</time>
      </trkpt>
      <trkpt lat="48.03459" lon="7.00555">
        <ele>1254.4</ele>
        <time>2022-05-26T13:31:55Z</time>
      </trkpt>
      <trkpt lat="48.03464" lon="7.00571">
        <ele>1255</ele>
        <time>2022-05-26T13:31:59Z</time>
      </trkpt>
      <trkpt lat="48.0347" lon="7.00585">
        <ele>1255.1</ele>
        <time>2022-05-26T13:32:03Z</time>
      </trkpt>
      <trkpt lat="48.03474" lon="7.006">
        <ele>1256.3</ele>
        <time>2022-05-26T13:32:08Z</time>
      </trkpt>
      <trkpt lat="48.03479" lon="7.00612">
        <ele>1256.5</ele>
        <time>2022-05-26T13:32:16Z</time>
      </trkpt>
      <trkpt lat="48.03483" lon="7.00627">
        <ele>1256.5</ele>
        <time>2022-05-26T13:32:21Z</time>
      </trkpt>
      <trkpt lat="48.03489" lon="7.00642">
        <ele>1256.5</ele>
        <time>2022-05-26T13:32:25Z</time>
      </trkpt>
      <trkpt lat="48.03496" lon="7.00654">
        <ele>1256.9</ele>
        <time>2022-05-26T13:32:29Z</time>
      </trkpt>
      <trkpt lat="48.03503" lon="7.00666">
        <ele>1256.3</ele>
        <time>2022-05-26T13:32:32Z</time>
      </trkpt>
      <trkpt lat="48.03509" lon="7.00678">
        <ele>1256.5</ele>
        <time>2022-05-26T13:32:35Z</time>
      </trkpt>
      <trkpt lat="48.03516" lon="7.00689">
        <ele>1256.5</ele>
        <time>2022-05-26T13:32:38Z</time>
      </trkpt>
      <trkpt lat="48.03523" lon="7.00702">
        <ele>1256.2</ele>
        <time>2022-05-26T13:32:41Z</time>
      </trkpt>
      <trkpt lat="48.03532" lon="7.00716">
        <ele>1255.4</ele>
        <time>2022-05-26T13:32:44Z</time>
      </trkpt>
      <trkpt lat="48.03538" lon="7.00727">
        <ele>1254.9</ele>
        <time>2022-05-26T13:32:46Z</time>
      </trkpt>
      <trkpt lat="48.03546" lon="7.00739">
        <ele>1254.3</ele>
        <time>2022-05-26T13:32:48Z</time>
      </trkpt>
      <trkpt lat="48.03554" lon="7.00752">
        <ele>1253.7</ele>
        <time>2022-05-26T13:32:50Z</time>
      </trkpt>
      <trkpt lat="48.03563" lon="7.00767">
        <ele>1252.2</ele>
        <time>2022-05-26T13:32:52Z</time>
      </trkpt>
      <trkpt lat="48.03573" lon="7.00784">
        <ele>1251.5</ele>
        <time>2022-05-26T13:32:54Z</time>
      </trkpt>
      <trkpt lat="48.03582" lon="7.00803">
        <ele>1250.7</ele>
        <time>2022-05-26T13:32:56Z</time>
      </trkpt>
      <trkpt lat="48.03588" lon="7.00821">
        <ele>1252.2</ele>
        <time>2022-05-26T13:32:58Z</time>
      </trkpt>
      <trkpt lat="48.03594" lon="7.00835">
        <ele>1253.4</ele>
        <time>2022-05-26T13:33:00Z</time>
      </trkpt>
      <trkpt lat="48.03602" lon="7.00842">
        <ele>1254.8</ele>
        <time>2022-05-26T13:33:03Z</time>
      </trkpt>
      <trkpt lat="48.03612" lon="7.00849">
        <ele>1255.9</ele>
        <time>2022-05-26T13:33:07Z</time>
      </trkpt>
      <trkpt lat="48.03622" lon="7.00854">
        <ele>1257.1</ele>
        <time>2022-05-26T13:33:11Z</time>
      </trkpt>
      <trkpt lat="48.03631" lon="7.00859">
        <ele>1258.3</ele>
        <time>2022-05-26T13:33:15Z</time>
      </trkpt>
      <trkpt lat="48.03641" lon="7.00866">
        <ele>1258.7</ele>
        <time>2022-05-26T13:33:19Z</time>
      </trkpt>
      <trkpt lat="48.03649" lon="7.00871">
        <ele>1259.9</ele>
        <time>2022-05-26T13:33:23Z</time>
      </trkpt>
      <trkpt lat="48.03659" lon="7.00876">
        <ele>1260.2</ele>
        <time>2022-05-26T13:33:28Z</time>
      </trkpt>
      <trkpt lat="48.03668" lon="7.00882">
        <ele>1260.8</ele>
        <time>2022-05-26T13:33:33Z</time>
      </trkpt>
      <trkpt lat="48.03678" lon="7.00887">
        <ele>1261.9</ele>
        <time>2022-05-26T13:33:38Z</time>
      </trkpt>
      <trkpt lat="48.03687" lon="7.00893">
        <ele>1262.9</ele>
        <time>2022-05-26T13:33:43Z</time>
      </trkpt>
      <trkpt lat="48.03696" lon="7.00899">
        <ele>1263.2</ele>
        <time>2022-05-26T13:33:48Z</time>
      </trkpt>
      <trkpt lat="48.03706" lon="7.00905">
        <ele>1264.6</ele>
        <time>2022-05-26T13:33:53Z</time>
      </trkpt>
      <trkpt lat="48.03716" lon="7.00911">
        <ele>1265.4</ele>
        <time>2022-05-26T13:33:58Z</time>
      </trkpt>
      <trkpt lat="48.03726" lon="7.00917">
        <ele>1266.1</ele>
        <time>2022-05-26T13:34:03Z</time>
      </trkpt>
      <trkpt lat="48.03735" lon="7.00924">
        <ele>1266.8</ele>
        <time>2022-05-26T13:34:08Z</time>
      </trkpt>
      <trkpt lat="48.03745" lon="7.00931">
        <ele>1267.3</ele>
        <time>2022-05-26T13:34:13Z</time>
      </trkpt>
      <trkpt lat="48.03755" lon="7.00937">
        <ele>1268.5</ele>
        <time>2022-05-26T13:34:18Z</time>
      </trkpt>
      <trkpt lat="48.03765" lon="7.00943">
        <ele>1269.3</ele>
        <time>2022-05-26T13:34:23Z</time>
      </trkpt>
      <trkpt lat="48.03774" lon="7.00948">
        <ele>1270.1</ele>
        <time>2022-05-26T13:34:28Z</time>
      </trkpt>
      <trkpt lat="48.03783" lon="7.00954">
        <ele>1270.4</ele>
        <time>2022-05-26T13:34:33Z</time>
      </trkpt>
      <trkpt lat="48.03792" lon="7.00961">
        <ele>1272.1</ele>
        <time>2022-05-26T13:34:38Z</time>
      </trkpt>
      <trkpt lat="48.03802" lon="7.00967">
        <ele>1272.9</ele>
        <time>2022-05-26T13:34:43Z</time>
      </trkpt>
      <trkpt lat="48.03811" lon="7.00972">
        <ele>1273.9</ele>
        <time>2022-05-26T13:34:48Z</time>
      </trkpt>
      <trkpt lat="48.03819" lon="7.0098">
        <ele>1274.8</ele>
        <time>2022-05-26T13:34:53Z</time>
      </trkpt>
      <trkpt lat="48.03813" lon="7.00992">
        <ele>1277.3</ele>
        <time>2022-05-26T13:34:59Z</time>
      </trkpt>
      <trkpt lat="48.03803" lon="7.00993">
        <ele>1277.8</ele>
        <time>2022-05-26T13:35:04Z</time>
      </trkpt>
      <trkpt lat="48.03792" lon="7.00995">
        <ele>1278.8</ele>
        <time>2022-05-26T13:35:09Z</time>
      </trkpt>
      <trkpt lat="48.03782" lon="7.00997">
        <ele>1280.1</ele>
        <time>2022-05-26T13:35:14Z</time>
      </trkpt>
      <trkpt lat="48.03771" lon="7.00999">
        <ele>1280.4</ele>
        <time>2022-05-26T13:35:19Z</time>
      </trkpt>
      <trkpt lat="48.0376" lon="7.01002">
        <ele>1280.6</ele>
        <time>2022-05-26T13:35:24Z</time>
      </trkpt>
      <trkpt lat="48.0375" lon="7.01005">
        <ele>1281</ele>
        <time>2022-05-26T13:35:28Z</time>
      </trkpt>
      <trkpt lat="48.03741" lon="7.01008">
        <ele>1281.9</ele>
        <time>2022-05-26T13:35:32Z</time>
      </trkpt>
      <trkpt lat="48.03732" lon="7.01011">
        <ele>1282.8</ele>
        <time>2022-05-26T13:35:36Z</time>
      </trkpt>
      <trkpt lat="48.03723" lon="7.01016">
        <ele>1283.4</ele>
        <time>2022-05-26T13:35:40Z</time>
      </trkpt>
      <trkpt lat="48.03713" lon="7.01022">
        <ele>1283.6</ele>
        <time>2022-05-26T13:35:44Z</time>
      </trkpt>
      <trkpt lat="48.03704" lon="7.01028">
        <ele>1284.4</ele>
        <time>2022-05-26T13:35:48Z</time>
      </trkpt>
      <trkpt lat="48.03695" lon="7.01034">
        <ele>1285.4</ele>
        <time>2022-05-26T13:35:52Z</time>
      </trkpt>
      <trkpt lat="48.03686" lon="7.01039">
        <ele>1286.1</ele>
        <time>2022-05-26T13:35:56Z</time>
      </trkpt>
      <trkpt lat="48.03678" lon="7.01045">
        <ele>1286.9</ele>
        <time>2022-05-26T13:36:00Z</time>
      </trkpt>
      <trkpt lat="48.03669" lon="7.01051">
        <ele>1287.7</ele>
        <time>2022-05-26T13:36:04Z</time>
      </trkpt>
      <trkpt lat="48.03661" lon="7.01057">
        <ele>1288.6</ele>
        <time>2022-05-26T13:36:08Z</time>
      </trkpt>
      <trkpt lat="48.03652" lon="7.01063">
        <ele>1289.6</ele>
        <time>2022-05-26T13:36:12Z</time>
      </trkpt>
      <trkpt lat="48.03644" lon="7.0107">
        <ele>1289.8</ele>
        <time>2022-05-26T13:36:16Z</time>
      </trkpt>
      <trkpt lat="48.03635" lon="7.01077">
        <ele>1290.9</ele>
        <time>2022-05-26T13:36:20Z</time>
      </trkpt>
      <trkpt lat="48.03627" lon="7.01083">
        <ele>1291.4</ele>
        <time>2022-05-26T13:36:24Z</time>
      </trkpt>
      <trkpt lat="48.03618" lon="7.0109">
        <ele>1292</ele>
        <time>2022-05-26T13:36:28Z</time>
      </trkpt>
      <trkpt lat="48.03609" lon="7.01098">
        <ele>1292.7</ele>
        <time>2022-05-26T13:36:32Z</time>
      </trkpt>
      <trkpt lat="48.03601" lon="7.01106">
        <ele>1293.3</ele>
        <time>2022-05-26T13:36:36Z</time>
      </trkpt>
      <trkpt lat="48.03594" lon="7.01114">
        <ele>1294.4</ele>
        <time>2022-05-26T13:36:40Z</time>
      </trkpt>
      <trkpt lat="48.03586" lon="7.01124">
        <ele>1295.1</ele>
        <time>2022-05-26T13:36:44Z</time>
      </trkpt>
      <trkpt lat="48.03579" lon="7.01134">
        <ele>1296.6</ele>
        <time>2022-05-26T13:36:48Z</time>
      </trkpt>
      <trkpt lat="48.03577" lon="7.0115">
        <ele>1298</ele>
        <time>2022-05-26T13:36:53Z</time>
      </trkpt>
      <trkpt lat="48.03587" lon="7.01156">
        <ele>1299</ele>
        <time>2022-05-26T13:36:58Z</time>
      </trkpt>
      <trkpt lat="48.03598" lon="7.01153">
        <ele>1300</ele>
        <time>2022-05-26T13:37:03Z</time>
      </trkpt>
      <trkpt lat="48.03609" lon="7.0115">
        <ele>1300.5</ele>
        <time>2022-05-26T13:37:08Z</time>
      </trkpt>
      <trkpt lat="48.03618" lon="7.0115">
        <ele>1301.9</ele>
        <time>2022-05-26T13:37:12Z</time>
      </trkpt>
      <trkpt lat="48.03627" lon="7.01149">
        <ele>1301.9</ele>
        <time>2022-05-26T13:37:16Z</time>
      </trkpt>
      <trkpt lat="48.03637" lon="7.01148">
        <ele>1302.9</ele>
        <time>2022-05-26T13:37:20Z</time>
      </trkpt>
      <trkpt lat="48.03646" lon="7.01148">
        <ele>1303.5</ele>
        <time>2022-05-26T13:37:24Z</time>
      </trkpt>
      <trkpt lat="48.03656" lon="7.01147">
        <ele>1304</ele>
        <time>2022-05-26T13:37:28Z</time>
      </trkpt>
      <trkpt lat="48.03666" lon="7.01147">
        <ele>1304.3</ele>
        <time>2022-05-26T13:37:32Z</time>
      </trkpt>
      <trkpt lat="48.03676" lon="7.01148">
        <ele>1304.7</ele>
        <time>2022-05-26T13:37:36Z</time>
      </trkpt>
      <trkpt lat="48.03686" lon="7.0115">
        <ele>1305.5</ele>
        <time>2022-05-26T13:37:40Z</time>
      </trkpt>
      <trkpt lat="48.03695" lon="7.01151">
        <ele>1305.9</ele>
        <time>2022-05-26T13:37:44Z</time>
      </trkpt>
      <trkpt lat="48.03705" lon="7.01152">
        <ele>1306.7</ele>
        <time>2022-05-26T13:37:48Z</time>
      </trkpt>
      <trkpt lat="48.03715" lon="7.01154">
        <ele>1307.5</ele>
        <time>2022-05-26T13:37:52Z</time>
      </trkpt>
      <trkpt lat="48.03724" lon="7.01156">
        <ele>1308.5</ele>
        <time>2022-05-26T13:37:56Z</time>
      </trkpt>
      <trkpt lat="48.03734" lon="7.01161">
        <ele>1309.5</ele>
        <time>2022-05-26T13:38:01Z</time>
      </trkpt>
      <trkpt lat="48.03731" lon="7.01177">
        <ele>1311.2</ele>
        <time>2022-05-26T13:38:06Z</time>
      </trkpt>
      <trkpt lat="48.03721" lon="7.01182">
        <ele>1311.6</ele>
        <time>2022-05-26T13:38:10Z</time>
      </trkpt>
      <trkpt lat="48.03712" lon="7.01186">
        <ele>1313</ele>
        <time>2022-05-26T13:38:14Z</time>
      </trkpt>
      <trkpt lat="48.03703" lon="7.01192">
        <ele>1313.2</ele>
        <time>2022-05-26T13:38:18Z</time>
      </trkpt>
      <trkpt lat="48.03693" lon="7.01198">
        <ele>1313.8</ele>
        <time>2022-05-26T13:38:22Z</time>
      </trkpt>
      <trkpt lat="48.03685" lon="7.01206">
        <ele>1315</ele>
        <time>2022-05-26T13:38:26Z</time>
      </trkpt>
      <trkpt lat="48.03677" lon="7.01214">
        <ele>1315.9</ele>
        <time>2022-05-26T13:38:30Z</time>
      </trkpt>
      <trkpt lat="48.03669" lon="7.01223">
        <ele>1316.1</ele>
        <time>2022-05-26T13:38:34Z</time>
      </trkpt>
      <trkpt lat="48.03661" lon="7.01233">
        <ele>1317</ele>
        <time>2022-05-26T13:38:38Z</time>
      </trkpt>
      <trkpt lat="48.03655" lon="7.01243">
        <ele>1317.8</ele>
        <time>2022-05-26T13:38:42Z</time>
      </trkpt>
      <trkpt lat="48.03656" lon="7.01257">
        <ele>1319.9</ele>
        <time>2022-05-26T13:38:47Z</time>
      </trkpt>
      <trkpt lat="48.03666" lon="7.01257">
        <ele>1320.2</ele>
        <time>2022-05-26T13:38:52Z</time>
      </trkpt>
      <trkpt lat="48.03676" lon="7.01253">
        <ele>1320.9</ele>
        <time>2022-05-26T13:38:56Z</time>
      </trkpt>
      <trkpt lat="48.03687" lon="7.01249">
        <ele>1322.2</ele>
        <time>2022-05-26T13:39:00Z</time>
      </trkpt>
      <trkpt lat="48.03698" lon="7.01245">
        <ele>1322</ele>
        <time>2022-05-26T13:39:04Z</time>
      </trkpt>
      <trkpt lat="48.03709" lon="7.01242">
        <ele>1322.5</ele>
        <time>2022-05-26T13:39:08Z</time>
      </trkpt>
      <trkpt lat="48.0372" lon="7.01243">
        <ele>1324.2</ele>
        <time>2022-05-26T13:39:12Z</time>
      </trkpt>
      <trkpt lat="48.03729" lon="7.0125">
        <ele>1325.7</ele>
        <time>2022-05-26T13:39:16Z</time>
      </trkpt>
      <trkpt lat="48.03738" lon="7.01258">
        <ele>1326</ele>
        <time>2022-05-26T13:39:20Z</time>
      </trkpt>
      <trkpt lat="48.03747" lon="7.01266">
        <ele>1326.4</ele>
        <time>2022-05-26T13:39:24Z</time>
      </trkpt>
      <trkpt lat="48.03757" lon="7.01273">
        <ele>1327.7</ele>
        <time>2022-05-26T13:39:28Z</time>
      </trkpt>
      <trkpt lat="48.03767" lon="7.01279">
        <ele>1329</ele>
        <time>2022-05-26T13:39:32Z</time>
      </trkpt>
      <trkpt lat="48.03777" lon="7.01286">
        <ele>1330.1</ele>
        <time>2022-05-26T13:39:36Z</time>
      </trkpt>
      <trkpt lat="48.03786" lon="7.01292">
        <ele>1331</ele>
        <time>2022-05-26T13:39:40Z</time>
      </trkpt>
      <trkpt lat="48.0379" lon="7.01306">
        <ele>1332.9</ele>
        <time>2022-05-26T13:39:45Z</time>
      </trkpt>
      <trkpt lat="48.03783" lon="7.01316">
        <ele>1334.2</ele>
        <time>2022-05-26T13:39:50Z</time>
      </trkpt>
      <trkpt lat="48.03775" lon="7.01323">
        <ele>1335.4</ele>
        <time>2022-05-26T13:39:56Z</time>
      </trkpt>
      <trkpt lat="48.03765" lon="7.01329">
        <ele>1336.7</ele>
        <time>2022-05-26T13:40:02Z</time>
      </trkpt>
      <trkpt lat="48.03757" lon="7.01335">
        <ele>1337.9</ele>
        <time>2022-05-26T13:40:08Z</time>
      </trkpt>
      <trkpt lat="48.03748" lon="7.01342">
        <ele>1339.2</ele>
        <time>2022-05-26T13:40:14Z</time>
      </trkpt>
      <trkpt lat="48.03739" lon="7.0135">
        <ele>1340.6</ele>
        <time>2022-05-26T13:40:20Z</time>
      </trkpt>
      <trkpt lat="48.03731" lon="7.01356">
        <ele>1341.8</ele>
        <time>2022-05-26T13:40:25Z</time>
      </trkpt>
      <trkpt lat="48.03722" lon="7.01365">
        <ele>1343</ele>
        <time>2022-05-26T13:40:31Z</time>
      </trkpt>
      <trkpt lat="48.03718" lon="7.01379">
        <ele>1344.8</ele>
        <time>2022-05-26T13:40:37Z</time>
      </trkpt>
      <trkpt lat="48.03722" lon="7.01391">
        <ele>1346.1</ele>
        <time>2022-05-26T13:40:42Z</time>
      </trkpt>
      <trkpt lat="48.0373" lon="7.01398">
        <ele>1346.9</ele>
        <time>2022-05-26T13:40:47Z</time>
      </trkpt>
      <trkpt lat="48.03739" lon="7.01403">
        <ele>1348.2</ele>
        <time>2022-05-26T13:40:53Z</time>
      </trkpt>
      <trkpt lat="48.03749" lon="7.01409">
        <ele>1349.9</ele>
        <time>2022-05-26T13:40:59Z</time>
      </trkpt>
      <trkpt lat="48.03757" lon="7.01414">
        <ele>1351</ele>
        <time>2022-05-26T13:41:04Z</time>
      </trkpt>
      <trkpt lat="48.03766" lon="7.01422">
        <ele>1352.2</ele>
        <time>2022-05-26T13:41:10Z</time>
      </trkpt>
      <trkpt lat="48.03769" lon="7.01437">
        <ele>1353.6</ele>
        <time>2022-05-26T13:41:16Z</time>
      </trkpt>
      <trkpt lat="48.03762" lon="7.01445">
        <ele>1354.9</ele>
        <time>2022-05-26T13:41:22Z</time>
      </trkpt>
      <trkpt lat="48.03753" lon="7.01455">
        <ele>1356.2</ele>
        <time>2022-05-26T13:41:28Z</time>
      </trkpt>
      <trkpt lat="48.03747" lon="7.01468">
        <ele>1357.5</ele>
        <time>2022-05-26T13:41:34Z</time>
      </trkpt>
      <trkpt lat="48.03744" lon="7.01481">
        <ele>1358.4</ele>
        <time>2022-05-26T13:41:39Z</time>
      </trkpt>
      <trkpt lat="48.03745" lon="7.01495">
        <ele>1360.3</ele>
        <time>2022-05-26T13:41:44Z</time>
      </trkpt>
      <trkpt lat="48.03751" lon="7.01509">
        <ele>1362.3</ele>
        <time>2022-05-26T13:41:49Z</time>
      </trkpt>
      <trkpt lat="48.03761" lon="7.01514">
        <ele>1363.2</ele>
        <time>2022-05-26T13:41:54Z</time>
      </trkpt>
      <trkpt lat="48.03771" lon="7.01519">
        <ele>1363.7</ele>
        <time>2022-05-26T13:41:58Z</time>
      </trkpt>
      <trkpt lat="48.03781" lon="7.01524">
        <ele>1364</ele>
        <time>2022-05-26T13:42:02Z</time>
      </trkpt>
      <trkpt lat="48.03789" lon="7.01534">
        <ele>1365</ele>
        <time>2022-05-26T13:42:06Z</time>
      </trkpt>
      <trkpt lat="48.03794" lon="7.01548">
        <ele>1365.1</ele>
        <time>2022-05-26T13:42:10Z</time>
      </trkpt>
      <trkpt lat="48.03796" lon="7.01564">
        <ele>1365</ele>
        <time>2022-05-26T13:42:15Z</time>
      </trkpt>
      <trkpt lat="48.03795" lon="7.01578">
        <ele>1365.2</ele>
        <time>2022-05-26T13:42:19Z</time>
      </trkpt>
      <trkpt lat="48.03796" lon="7.01592">
        <ele>1365</ele>
        <time>2022-05-26T13:42:23Z</time>
      </trkpt>
      <trkpt lat="48.03796" lon="7.01607">
        <ele>1366</ele>
        <time>2022-05-26T13:42:27Z</time>
      </trkpt>
      <trkpt lat="48.03789" lon="7.01618">
        <ele>1366.6</ele>
        <time>2022-05-26T13:42:31Z</time>
      </trkpt>
      <trkpt lat="48.03781" lon="7.01625">
        <ele>1367.1</ele>
        <time>2022-05-26T13:42:34Z</time>
      </trkpt>
      <trkpt lat="48.03772" lon="7.01629">
        <ele>1367.5</ele>
        <time>2022-05-26T13:42:37Z</time>
      </trkpt>
      <trkpt lat="48.03761" lon="7.0163">
        <ele>1367.9</ele>
        <time>2022-05-26T13:42:41Z</time>
      </trkpt>
      <trkpt lat="48.03752" lon="7.01632">
        <ele>1369</ele>
        <time>2022-05-26T13:42:45Z</time>
      </trkpt>
      <trkpt lat="48.03744" lon="7.01638">
        <ele>1368.2</ele>
        <time>2022-05-26T13:42:51Z</time>
      </trkpt>
      <trkpt lat="48.03744" lon="7.01639">
        <ele>1368.5</ele>
        <time>2022-05-26T13:42:54Z</time>
      </trkpt>
      <trkpt lat="48.03744" lon="7.0164">
        <ele>1369.1</ele>
        <time>2022-05-26T13:47:14Z</time>
      </trkpt>
      <trkpt lat="48.03745" lon="7.0164">
        <ele>1367.9</ele>
        <time>2022-05-26T13:55:32Z</time>
      </trkpt>
      <trkpt lat="48.03746" lon="7.01641">
        <ele>1368.4</ele>
        <time>2022-05-26T13:55:35Z</time>
      </trkpt>
      <trkpt lat="48.03746" lon="7.0164">
        <ele>1368.3</ele>
        <time>2022-05-26T13:55:41Z</time>
      </trkpt>
      <trkpt lat="48.03756" lon="7.01632">
        <ele>1368.6</ele>
        <time>2022-05-26T13:56:38Z</time>
      </trkpt>
      <trkpt lat="48.03766" lon="7.01628">
        <ele>1369</ele>
        <time>2022-05-26T13:56:42Z</time>
      </trkpt>
      <trkpt lat="48.03777" lon="7.01619">
        <ele>1370</ele>
        <time>2022-05-26T13:56:46Z</time>
      </trkpt>
      <trkpt lat="48.03787" lon="7.0161">
        <ele>1366</ele>
        <time>2022-05-26T13:56:49Z</time>
      </trkpt>
      <trkpt lat="48.03794" lon="7.01599">
        <ele>1366.8</ele>
        <time>2022-05-26T13:56:52Z</time>
      </trkpt>
      <trkpt lat="48.03794" lon="7.01582">
        <ele>1366.2</ele>
        <time>2022-05-26T13:56:56Z</time>
      </trkpt>
      <trkpt lat="48.03793" lon="7.01567">
        <ele>1364</ele>
        <time>2022-05-26T13:57:00Z</time>
      </trkpt>
      <trkpt lat="48.03797" lon="7.01552">
        <ele>1365</ele>
        <time>2022-05-26T13:57:04Z</time>
      </trkpt>
      <trkpt lat="48.03796" lon="7.01537">
        <ele>1363.2</ele>
        <time>2022-05-26T13:57:08Z</time>
      </trkpt>
      <trkpt lat="48.03791" lon="7.01523">
        <ele>1362.9</ele>
        <time>2022-05-26T13:57:13Z</time>
      </trkpt>
      <trkpt lat="48.03791" lon="7.01521">
        <ele>1363</ele>
        <time>2022-05-26T13:57:16Z</time>
      </trkpt>
      <trkpt lat="48.03791" lon="7.0152">
        <ele>1363.6</ele>
        <time>2022-05-26T13:58:04Z</time>
      </trkpt>
      <trkpt lat="48.03799" lon="7.01512">
        <ele>1362.7</ele>
        <time>2022-05-26T13:58:11Z</time>
      </trkpt>
      <trkpt lat="48.03809" lon="7.01515">
        <ele>1360.9</ele>
        <time>2022-05-26T13:58:18Z</time>
      </trkpt>
      <trkpt lat="48.03818" lon="7.01509">
        <ele>1359.5</ele>
        <time>2022-05-26T13:58:24Z</time>
      </trkpt>
      <trkpt lat="48.03828" lon="7.015">
        <ele>1359.1</ele>
        <time>2022-05-26T13:58:28Z</time>
      </trkpt>
      <trkpt lat="48.03836" lon="7.01492">
        <ele>1356.4</ele>
        <time>2022-05-26T13:58:34Z</time>
      </trkpt>
      <trkpt lat="48.03837" lon="7.01476">
        <ele>1354.4</ele>
        <time>2022-05-26T13:58:40Z</time>
      </trkpt>
      <trkpt lat="48.03832" lon="7.01461">
        <ele>1353.5</ele>
        <time>2022-05-26T13:58:43Z</time>
      </trkpt>
      <trkpt lat="48.03827" lon="7.01448">
        <ele>1352.3</ele>
        <time>2022-05-26T13:58:45Z</time>
      </trkpt>
      <trkpt lat="48.03822" lon="7.01434">
        <ele>1350.6</ele>
        <time>2022-05-26T13:58:47Z</time>
      </trkpt>
      <trkpt lat="48.03816" lon="7.01421">
        <ele>1348.6</ele>
        <time>2022-05-26T13:58:49Z</time>
      </trkpt>
      <trkpt lat="48.03808" lon="7.01409">
        <ele>1349.1</ele>
        <time>2022-05-26T13:58:52Z</time>
      </trkpt>
      <trkpt lat="48.03802" lon="7.01397">
        <ele>1346.5</ele>
        <time>2022-05-26T13:58:55Z</time>
      </trkpt>
      <trkpt lat="48.03798" lon="7.01384">
        <ele>1345.6</ele>
        <time>2022-05-26T13:58:58Z</time>
      </trkpt>
      <trkpt lat="48.03801" lon="7.01367">
        <ele>1343.5</ele>
        <time>2022-05-26T13:59:02Z</time>
      </trkpt>
      <trkpt lat="48.03809" lon="7.01359">
        <ele>1342.4</ele>
        <time>2022-05-26T13:59:05Z</time>
      </trkpt>
      <trkpt lat="48.0382" lon="7.01354">
        <ele>1344.2</ele>
        <time>2022-05-26T13:59:08Z</time>
      </trkpt>
      <trkpt lat="48.03829" lon="7.01348">
        <ele>1343.1</ele>
        <time>2022-05-26T13:59:10Z</time>
      </trkpt>
      <trkpt lat="48.03837" lon="7.01341">
        <ele>1338.9</ele>
        <time>2022-05-26T13:59:12Z</time>
      </trkpt>
      <trkpt lat="48.03845" lon="7.01333">
        <ele>1335.7</ele>
        <time>2022-05-26T13:59:14Z</time>
      </trkpt>
      <trkpt lat="48.03854" lon="7.01322">
        <ele>1336.5</ele>
        <time>2022-05-26T13:59:16Z</time>
      </trkpt>
      <trkpt lat="48.03863" lon="7.0131">
        <ele>1335.8</ele>
        <time>2022-05-26T13:59:18Z</time>
      </trkpt>
      <trkpt lat="48.0387" lon="7.013">
        <ele>1335</ele>
        <time>2022-05-26T13:59:20Z</time>
      </trkpt>
      <trkpt lat="48.03876" lon="7.01289">
        <ele>1335</ele>
        <time>2022-05-26T13:59:23Z</time>
      </trkpt>
      <trkpt lat="48.03883" lon="7.01277">
        <ele>1334.4</ele>
        <time>2022-05-26T13:59:26Z</time>
      </trkpt>
      <trkpt lat="48.03892" lon="7.01267">
        <ele>1332.4</ele>
        <time>2022-05-26T13:59:30Z</time>
      </trkpt>
      <trkpt lat="48.03892" lon="7.01266">
        <ele>1331.8</ele>
        <time>2022-05-26T13:59:32Z</time>
      </trkpt>
      <trkpt lat="48.03901" lon="7.01262">
        <ele>1330</ele>
        <time>2022-05-26T13:59:38Z</time>
      </trkpt>
      <trkpt lat="48.03911" lon="7.01253">
        <ele>1328.7</ele>
        <time>2022-05-26T13:59:41Z</time>
      </trkpt>
      <trkpt lat="48.03922" lon="7.01242">
        <ele>1328.6</ele>
        <time>2022-05-26T13:59:44Z</time>
      </trkpt>
      <trkpt lat="48.0393" lon="7.01235">
        <ele>1328.7</ele>
        <time>2022-05-26T13:59:46Z</time>
      </trkpt>
      <trkpt lat="48.03939" lon="7.01228">
        <ele>1324.1</ele>
        <time>2022-05-26T13:59:48Z</time>
      </trkpt>
      <trkpt lat="48.0395" lon="7.01221">
        <ele>1324.2</ele>
        <time>2022-05-26T13:59:50Z</time>
      </trkpt>
      <trkpt lat="48.03963" lon="7.01215">
        <ele>1323.9</ele>
        <time>2022-05-26T13:59:52Z</time>
      </trkpt>
      <trkpt lat="48.03974" lon="7.01208">
        <ele>1322.5</ele>
        <time>2022-05-26T13:59:54Z</time>
      </trkpt>
      <trkpt lat="48.03986" lon="7.012">
        <ele>1320.8</ele>
        <time>2022-05-26T13:59:56Z</time>
      </trkpt>
      <trkpt lat="48.03997" lon="7.01192">
        <ele>1318.3</ele>
        <time>2022-05-26T13:59:58Z</time>
      </trkpt>
      <trkpt lat="48.04007" lon="7.01183">
        <ele>1315.9</ele>
        <time>2022-05-26T14:00:00Z</time>
      </trkpt>
      <trkpt lat="48.04017" lon="7.01175">
        <ele>1316.8</ele>
        <time>2022-05-26T14:00:02Z</time>
      </trkpt>
      <trkpt lat="48.04025" lon="7.01167">
        <ele>1316.3</ele>
        <time>2022-05-26T14:00:04Z</time>
      </trkpt>
      <trkpt lat="48.04033" lon="7.0116">
        <ele>1312.4</ele>
        <time>2022-05-26T14:00:06Z</time>
      </trkpt>
      <trkpt lat="48.04041" lon="7.01153">
        <ele>1313.5</ele>
        <time>2022-05-26T14:00:08Z</time>
      </trkpt>
      <trkpt lat="48.04052" lon="7.01147">
        <ele>1314.8</ele>
        <time>2022-05-26T14:00:10Z</time>
      </trkpt>
      <trkpt lat="48.04063" lon="7.01139">
        <ele>1312.8</ele>
        <time>2022-05-26T14:00:12Z</time>
      </trkpt>
      <trkpt lat="48.04076" lon="7.01131">
        <ele>1310.7</ele>
        <time>2022-05-26T14:00:14Z</time>
      </trkpt>
      <trkpt lat="48.04088" lon="7.01123">
        <ele>1306.1</ele>
        <time>2022-05-26T14:00:16Z</time>
      </trkpt>
      <trkpt lat="48.041" lon="7.01115">
        <ele>1305.6</ele>
        <time>2022-05-26T14:00:18Z</time>
      </trkpt>
      <trkpt lat="48.0411" lon="7.01107">
        <ele>1303.5</ele>
        <time>2022-05-26T14:00:20Z</time>
      </trkpt>
      <trkpt lat="48.04119" lon="7.01099">
        <ele>1302.5</ele>
        <time>2022-05-26T14:00:22Z</time>
      </trkpt>
      <trkpt lat="48.04129" lon="7.01089">
        <ele>1304.3</ele>
        <time>2022-05-26T14:00:25Z</time>
      </trkpt>
      <trkpt lat="48.04134" lon="7.01075">
        <ele>1300.7</ele>
        <time>2022-05-26T14:00:30Z</time>
      </trkpt>
      <trkpt lat="48.04135" lon="7.0106">
        <ele>1299.5</ele>
        <time>2022-05-26T14:00:34Z</time>
      </trkpt>
      <trkpt lat="48.04133" lon="7.01043">
        <ele>1296.5</ele>
        <time>2022-05-26T14:00:37Z</time>
      </trkpt>
      <trkpt lat="48.04128" lon="7.01026">
        <ele>1296.4</ele>
        <time>2022-05-26T14:00:40Z</time>
      </trkpt>
      <trkpt lat="48.04124" lon="7.01008">
        <ele>1296.3</ele>
        <time>2022-05-26T14:00:43Z</time>
      </trkpt>
      <trkpt lat="48.04121" lon="7.00995">
        <ele>1294.1</ele>
        <time>2022-05-26T14:00:46Z</time>
      </trkpt>
      <trkpt lat="48.04118" lon="7.00984">
        <ele>1294.2</ele>
        <time>2022-05-26T14:00:51Z</time>
      </trkpt>
      <trkpt lat="48.04116" lon="7.00984">
        <ele>1293.9</ele>
        <time>2022-05-26T14:01:11Z</time>
      </trkpt>
      <trkpt lat="48.04116" lon="7.00985">
        <ele>1294.1</ele>
        <time>2022-05-26T14:01:15Z</time>
      </trkpt>
      <trkpt lat="48.04115" lon="7.00987">
        <ele>1294.4</ele>
        <time>2022-05-26T14:01:19Z</time>
      </trkpt>
      <trkpt lat="48.04115" lon="7.00988">
        <ele>1294.2</ele>
        <time>2022-05-26T14:01:24Z</time>
      </trkpt>
      <trkpt lat="48.04112" lon="7.01002">
        <ele>1294.3</ele>
        <time>2022-05-26T14:01:30Z</time>
      </trkpt>
      <trkpt lat="48.04109" lon="7.01015">
        <ele>1294.5</ele>
        <time>2022-05-26T14:01:35Z</time>
      </trkpt>
      <trkpt lat="48.04104" lon="7.01029">
        <ele>1295.2</ele>
        <time>2022-05-26T14:01:40Z</time>
      </trkpt>
      <trkpt lat="48.04099" lon="7.01042">
        <ele>1295.7</ele>
        <time>2022-05-26T14:01:45Z</time>
      </trkpt>
      <trkpt lat="48.04091" lon="7.01048">
        <ele>1296.1</ele>
        <time>2022-05-26T14:01:49Z</time>
      </trkpt>
      <trkpt lat="48.04081" lon="7.0105">
        <ele>1294.9</ele>
        <time>2022-05-26T14:01:52Z</time>
      </trkpt>
      <trkpt lat="48.0407" lon="7.01051">
        <ele>1293.9</ele>
        <time>2022-05-26T14:01:55Z</time>
      </trkpt>
      <trkpt lat="48.04058" lon="7.01049">
        <ele>1293.2</ele>
        <time>2022-05-26T14:01:58Z</time>
      </trkpt>
      <trkpt lat="48.04047" lon="7.01045">
        <ele>1292.1</ele>
        <time>2022-05-26T14:02:01Z</time>
      </trkpt>
      <trkpt lat="48.04038" lon="7.01043">
        <ele>1291</ele>
        <time>2022-05-26T14:02:03Z</time>
      </trkpt>
      <trkpt lat="48.04029" lon="7.01041">
        <ele>1289.4</ele>
        <time>2022-05-26T14:02:05Z</time>
      </trkpt>
      <trkpt lat="48.0402" lon="7.0104">
        <ele>1289.5</ele>
        <time>2022-05-26T14:02:07Z</time>
      </trkpt>
      <trkpt lat="48.04008" lon="7.01038">
        <ele>1289.2</ele>
        <time>2022-05-26T14:02:10Z</time>
      </trkpt>
      <trkpt lat="48.03998" lon="7.01035">
        <ele>1288.1</ele>
        <time>2022-05-26T14:02:13Z</time>
      </trkpt>
      <trkpt lat="48.03989" lon="7.01031">
        <ele>1287.2</ele>
        <time>2022-05-26T14:02:19Z</time>
      </trkpt>
      <trkpt lat="48.03993" lon="7.01016">
        <ele>1284.9</ele>
        <time>2022-05-26T14:02:35Z</time>
      </trkpt>
      <trkpt lat="48.03999" lon="7.01001">
        <ele>1282.4</ele>
        <time>2022-05-26T14:02:39Z</time>
      </trkpt>
      <trkpt lat="48.04006" lon="7.00986">
        <ele>1277.9</ele>
        <time>2022-05-26T14:02:43Z</time>
      </trkpt>
      <trkpt lat="48.04011" lon="7.00974">
        <ele>1277.2</ele>
        <time>2022-05-26T14:02:45Z</time>
      </trkpt>
      <trkpt lat="48.04018" lon="7.00961">
        <ele>1276</ele>
        <time>2022-05-26T14:02:47Z</time>
      </trkpt>
      <trkpt lat="48.04028" lon="7.00948">
        <ele>1274.7</ele>
        <time>2022-05-26T14:02:49Z</time>
      </trkpt>
      <trkpt lat="48.04034" lon="7.0093">
        <ele>1275.5</ele>
        <time>2022-05-26T14:02:51Z</time>
      </trkpt>
      <trkpt lat="48.04037" lon="7.00909">
        <ele>1271.9</ele>
        <time>2022-05-26T14:02:53Z</time>
      </trkpt>
      <trkpt lat="48.0404" lon="7.00887">
        <ele>1269.8</ele>
        <time>2022-05-26T14:02:55Z</time>
      </trkpt>
      <trkpt lat="48.04044" lon="7.00864">
        <ele>1271.8</ele>
        <time>2022-05-26T14:02:57Z</time>
      </trkpt>
      <trkpt lat="48.04049" lon="7.00843">
        <ele>1269.1</ele>
        <time>2022-05-26T14:02:59Z</time>
      </trkpt>
      <trkpt lat="48.04052" lon="7.00823">
        <ele>1266.3</ele>
        <time>2022-05-26T14:03:01Z</time>
      </trkpt>
      <trkpt lat="48.04055" lon="7.00803">
        <ele>1267.2</ele>
        <time>2022-05-26T14:03:03Z</time>
      </trkpt>
      <trkpt lat="48.04059" lon="7.00782">
        <ele>1269.7</ele>
        <time>2022-05-26T14:03:05Z</time>
      </trkpt>
      <trkpt lat="48.04061" lon="7.00761">
        <ele>1267.6</ele>
        <time>2022-05-26T14:03:07Z</time>
      </trkpt>
      <trkpt lat="48.04062" lon="7.00743">
        <ele>1264.8</ele>
        <time>2022-05-26T14:03:09Z</time>
      </trkpt>
      <trkpt lat="48.04063" lon="7.00726">
        <ele>1263.2</ele>
        <time>2022-05-26T14:03:11Z</time>
      </trkpt>
      <trkpt lat="48.04063" lon="7.0071">
        <ele>1264</ele>
        <time>2022-05-26T14:03:13Z</time>
      </trkpt>
      <trkpt lat="48.04063" lon="7.00695">
        <ele>1262</ele>
        <time>2022-05-26T14:03:15Z</time>
      </trkpt>
      <trkpt lat="48.04065" lon="7.00675">
        <ele>1260.2</ele>
        <time>2022-05-26T14:03:18Z</time>
      </trkpt>
      <trkpt lat="48.04069" lon="7.0066">
        <ele>1258.8</ele>
        <time>2022-05-26T14:03:20Z</time>
      </trkpt>
      <trkpt lat="48.04074" lon="7.00644">
        <ele>1258</ele>
        <time>2022-05-26T14:03:22Z</time>
      </trkpt>
      <trkpt lat="48.04078" lon="7.00627">
        <ele>1256.6</ele>
        <time>2022-05-26T14:03:24Z</time>
      </trkpt>
      <trkpt lat="48.04081" lon="7.00612">
        <ele>1253.6</ele>
        <time>2022-05-26T14:03:26Z</time>
      </trkpt>
      <trkpt lat="48.04085" lon="7.00597">
        <ele>1252.5</ele>
        <time>2022-05-26T14:03:28Z</time>
      </trkpt>
      <trkpt lat="48.0409" lon="7.0058">
        <ele>1250.8</ele>
        <time>2022-05-26T14:03:31Z</time>
      </trkpt>
      <trkpt lat="48.04094" lon="7.00567">
        <ele>1248.7</ele>
        <time>2022-05-26T14:03:34Z</time>
      </trkpt>
      <trkpt lat="48.04099" lon="7.00556">
        <ele>1247.5</ele>
        <time>2022-05-26T14:03:38Z</time>
      </trkpt>
      <trkpt lat="48.04103" lon="7.00548">
        <ele>1245.7</ele>
        <time>2022-05-26T14:03:43Z</time>
      </trkpt>
      <trkpt lat="48.04103" lon="7.00546">
        <ele>1245.7</ele>
        <time>2022-05-26T14:04:06Z</time>
      </trkpt>
      <trkpt lat="48.04103" lon="7.00533">
        <ele>1244.9</ele>
        <time>2022-05-26T14:04:10Z</time>
      </trkpt>
      <trkpt lat="48.04109" lon="7.00517">
        <ele>1243.2</ele>
        <time>2022-05-26T14:04:13Z</time>
      </trkpt>
      <trkpt lat="48.04117" lon="7.00502">
        <ele>1241.8</ele>
        <time>2022-05-26T14:04:15Z</time>
      </trkpt>
      <trkpt lat="48.04126" lon="7.00486">
        <ele>1239</ele>
        <time>2022-05-26T14:04:17Z</time>
      </trkpt>
      <trkpt lat="48.04134" lon="7.00473">
        <ele>1237.5</ele>
        <time>2022-05-26T14:04:19Z</time>
      </trkpt>
      <trkpt lat="48.04142" lon="7.00461">
        <ele>1236.7</ele>
        <time>2022-05-26T14:04:21Z</time>
      </trkpt>
      <trkpt lat="48.04151" lon="7.0045">
        <ele>1236</ele>
        <time>2022-05-26T14:04:23Z</time>
      </trkpt>
      <trkpt lat="48.04159" lon="7.00436">
        <ele>1233.1</ele>
        <time>2022-05-26T14:04:25Z</time>
      </trkpt>
      <trkpt lat="48.04167" lon="7.00424">
        <ele>1231</ele>
        <time>2022-05-26T14:04:27Z</time>
      </trkpt>
      <trkpt lat="48.04174" lon="7.00412">
        <ele>1230.2</ele>
        <time>2022-05-26T14:04:29Z</time>
      </trkpt>
      <trkpt lat="48.04181" lon="7.00401">
        <ele>1228.7</ele>
        <time>2022-05-26T14:04:31Z</time>
      </trkpt>
      <trkpt lat="48.04187" lon="7.0039">
        <ele>1226.8</ele>
        <time>2022-05-26T14:04:33Z</time>
      </trkpt>
      <trkpt lat="48.04194" lon="7.00375">
        <ele>1224.9</ele>
        <time>2022-05-26T14:04:35Z</time>
      </trkpt>
      <trkpt lat="48.04205" lon="7.00362">
        <ele>1223.7</ele>
        <time>2022-05-26T14:04:37Z</time>
      </trkpt>
      <trkpt lat="48.04215" lon="7.00349">
        <ele>1221.6</ele>
        <time>2022-05-26T14:04:39Z</time>
      </trkpt>
      <trkpt lat="48.04224" lon="7.00335">
        <ele>1219.6</ele>
        <time>2022-05-26T14:04:41Z</time>
      </trkpt>
      <trkpt lat="48.04234" lon="7.00324">
        <ele>1217.7</ele>
        <time>2022-05-26T14:04:43Z</time>
      </trkpt>
      <trkpt lat="48.04245" lon="7.00314">
        <ele>1216.8</ele>
        <time>2022-05-26T14:04:45Z</time>
      </trkpt>
      <trkpt lat="48.04258" lon="7.00307">
        <ele>1215.4</ele>
        <time>2022-05-26T14:04:47Z</time>
      </trkpt>
      <trkpt lat="48.04271" lon="7.00302">
        <ele>1213.6</ele>
        <time>2022-05-26T14:04:49Z</time>
      </trkpt>
      <trkpt lat="48.04285" lon="7.003">
        <ele>1211.7</ele>
        <time>2022-05-26T14:04:51Z</time>
      </trkpt>
      <trkpt lat="48.04296" lon="7.00301">
        <ele>1211</ele>
        <time>2022-05-26T14:04:53Z</time>
      </trkpt>
      <trkpt lat="48.04302" lon="7.00289">
        <ele>1208.5</ele>
        <time>2022-05-26T14:04:56Z</time>
      </trkpt>
      <trkpt lat="48.04295" lon="7.00276">
        <ele>1207.8</ele>
        <time>2022-05-26T14:04:59Z</time>
      </trkpt>
      <trkpt lat="48.04285" lon="7.0027">
        <ele>1207</ele>
        <time>2022-05-26T14:05:02Z</time>
      </trkpt>
      <trkpt lat="48.0428" lon="7.00259">
        <ele>1205.7</ele>
        <time>2022-05-26T14:05:05Z</time>
      </trkpt>
      <trkpt lat="48.04275" lon="7.00247">
        <ele>1205.6</ele>
        <time>2022-05-26T14:05:09Z</time>
      </trkpt>
      <trkpt lat="48.04266" lon="7.00242">
        <ele>1204.9</ele>
        <time>2022-05-26T14:05:16Z</time>
      </trkpt>
      <trkpt lat="48.04272" lon="7.00227">
        <ele>1199.2</ele>
        <time>2022-05-26T14:05:27Z</time>
      </trkpt>
      <trkpt lat="48.04284" lon="7.00218">
        <ele>1197.8</ele>
        <time>2022-05-26T14:05:30Z</time>
      </trkpt>
      <trkpt lat="48.04293" lon="7.00214">
        <ele>1196.2</ele>
        <time>2022-05-26T14:05:32Z</time>
      </trkpt>
      <trkpt lat="48.04303" lon="7.00203">
        <ele>1192.5</ele>
        <time>2022-05-26T14:05:35Z</time>
      </trkpt>
      <trkpt lat="48.04311" lon="7.00193">
        <ele>1191.6</ele>
        <time>2022-05-26T14:05:38Z</time>
      </trkpt>
      <trkpt lat="48.04321" lon="7.00191">
        <ele>1189.4</ele>
        <time>2022-05-26T14:05:42Z</time>
      </trkpt>
      <trkpt lat="48.0433" lon="7.00186">
        <ele>1186.4</ele>
        <time>2022-05-26T14:05:47Z</time>
      </trkpt>
      <trkpt lat="48.04332" lon="7.0017">
        <ele>1182.5</ele>
        <time>2022-05-26T14:05:53Z</time>
      </trkpt>
      <trkpt lat="48.0433" lon="7.00153">
        <ele>1180.8</ele>
        <time>2022-05-26T14:05:57Z</time>
      </trkpt>
      <trkpt lat="48.04325" lon="7.00141">
        <ele>1179.6</ele>
        <time>2022-05-26T14:06:00Z</time>
      </trkpt>
      <trkpt lat="48.04319" lon="7.00127">
        <ele>1177.7</ele>
        <time>2022-05-26T14:06:03Z</time>
      </trkpt>
      <trkpt lat="48.04313" lon="7.00117">
        <ele>1177.8</ele>
        <time>2022-05-26T14:06:06Z</time>
      </trkpt>
      <trkpt lat="48.04304" lon="7.00106">
        <ele>1177.3</ele>
        <time>2022-05-26T14:06:10Z</time>
      </trkpt>
      <trkpt lat="48.04295" lon="7.00098">
        <ele>1175.3</ele>
        <time>2022-05-26T14:06:13Z</time>
      </trkpt>
      <trkpt lat="48.04302" lon="7.00086">
        <ele>1171.9</ele>
        <time>2022-05-26T14:06:26Z</time>
      </trkpt>
      <trkpt lat="48.04301" lon="7.0007">
        <ele>1170.1</ele>
        <time>2022-05-26T14:06:32Z</time>
      </trkpt>
      <trkpt lat="48.04296" lon="7.00058">
        <ele>1166.7</ele>
        <time>2022-05-26T14:06:37Z</time>
      </trkpt>
      <trkpt lat="48.04308" lon="7.0006">
        <ele>1163.5</ele>
        <time>2022-05-26T14:06:44Z</time>
      </trkpt>
      <trkpt lat="48.04317" lon="7.00068">
        <ele>1163.5</ele>
        <time>2022-05-26T14:06:47Z</time>
      </trkpt>
      <trkpt lat="48.04325" lon="7.0007">
        <ele>1161.5</ele>
        <time>2022-05-26T14:06:50Z</time>
      </trkpt>
      <trkpt lat="48.04323" lon="7.00051">
        <ele>1157.6</ele>
        <time>2022-05-26T14:06:54Z</time>
      </trkpt>
      <trkpt lat="48.04318" lon="7.00036">
        <ele>1154.5</ele>
        <time>2022-05-26T14:06:57Z</time>
      </trkpt>
      <trkpt lat="48.04309" lon="7.00024">
        <ele>1153</ele>
        <time>2022-05-26T14:07:00Z</time>
      </trkpt>
      <trkpt lat="48.04302" lon="7.00011">
        <ele>1150.3</ele>
        <time>2022-05-26T14:07:03Z</time>
      </trkpt>
      <trkpt lat="48.0429" lon="7.00002">
        <ele>1149.3</ele>
        <time>2022-05-26T14:07:06Z</time>
      </trkpt>
      <trkpt lat="48.04278" lon="6.99999">
        <ele>1147.2</ele>
        <time>2022-05-26T14:07:08Z</time>
      </trkpt>
      <trkpt lat="48.04267" lon="6.99994">
        <ele>1145.6</ele>
        <time>2022-05-26T14:07:10Z</time>
      </trkpt>
      <trkpt lat="48.04254" lon="6.99984">
        <ele>1144.3</ele>
        <time>2022-05-26T14:07:12Z</time>
      </trkpt>
      <trkpt lat="48.04242" lon="6.99977">
        <ele>1142.1</ele>
        <time>2022-05-26T14:07:14Z</time>
      </trkpt>
      <trkpt lat="48.04229" lon="6.99971">
        <ele>1140.4</ele>
        <time>2022-05-26T14:07:16Z</time>
      </trkpt>
      <trkpt lat="48.04218" lon="6.99964">
        <ele>1137</ele>
        <time>2022-05-26T14:07:19Z</time>
      </trkpt>
      <trkpt lat="48.04207" lon="6.99961">
        <ele>1135.6</ele>
        <time>2022-05-26T14:07:22Z</time>
      </trkpt>
      <trkpt lat="48.04196" lon="6.99957">
        <ele>1134.3</ele>
        <time>2022-05-26T14:07:26Z</time>
      </trkpt>
      <trkpt lat="48.04184" lon="6.99952">
        <ele>1132.1</ele>
        <time>2022-05-26T14:07:29Z</time>
      </trkpt>
      <trkpt lat="48.04172" lon="6.99942">
        <ele>1130.8</ele>
        <time>2022-05-26T14:07:31Z</time>
      </trkpt>
      <trkpt lat="48.04162" lon="6.99933">
        <ele>1127.9</ele>
        <time>2022-05-26T14:07:33Z</time>
      </trkpt>
      <trkpt lat="48.04153" lon="6.99928">
        <ele>1127.5</ele>
        <time>2022-05-26T14:07:35Z</time>
      </trkpt>
      <trkpt lat="48.04142" lon="6.99927">
        <ele>1126.9</ele>
        <time>2022-05-26T14:07:38Z</time>
      </trkpt>
      <trkpt lat="48.04131" lon="6.9993">
        <ele>1123.6</ele>
        <time>2022-05-26T14:07:43Z</time>
      </trkpt>
      <trkpt lat="48.04122" lon="6.99929">
        <ele>1123.8</ele>
        <time>2022-05-26T14:07:47Z</time>
      </trkpt>
      <trkpt lat="48.04118" lon="6.99916">
        <ele>1121.2</ele>
        <time>2022-05-26T14:07:50Z</time>
      </trkpt>
      <trkpt lat="48.04121" lon="6.99902">
        <ele>1119.5</ele>
        <time>2022-05-26T14:07:53Z</time>
      </trkpt>
      <trkpt lat="48.04122" lon="6.99895">
        <ele>1119.2</ele>
        <time>2022-05-26T14:07:59Z</time>
      </trkpt>
      <trkpt lat="48.04122" lon="6.99877">
        <ele>1118.4</ele>
        <time>2022-05-26T14:09:30Z</time>
      </trkpt>
      <trkpt lat="48.04117" lon="6.9986">
        <ele>1119.2</ele>
        <time>2022-05-26T14:09:33Z</time>
      </trkpt>
      <trkpt lat="48.0411" lon="6.99852">
        <ele>1121.7</ele>
        <time>2022-05-26T14:09:36Z</time>
      </trkpt>
      <trkpt lat="48.04105" lon="6.99839">
        <ele>1121</ele>
        <time>2022-05-26T14:09:40Z</time>
      </trkpt>
      <trkpt lat="48.04106" lon="6.99822">
        <ele>1120</ele>
        <time>2022-05-26T14:09:44Z</time>
      </trkpt>
      <trkpt lat="48.0411" lon="6.99808">
        <ele>1120.8</ele>
        <time>2022-05-26T14:09:48Z</time>
      </trkpt>
      <trkpt lat="48.04114" lon="6.99795">
        <ele>1120.6</ele>
        <time>2022-05-26T14:09:51Z</time>
      </trkpt>
      <trkpt lat="48.04117" lon="6.9978">
        <ele>1120.9</ele>
        <time>2022-05-26T14:09:54Z</time>
      </trkpt>
      <trkpt lat="48.04116" lon="6.99766">
        <ele>1121.5</ele>
        <time>2022-05-26T14:09:57Z</time>
      </trkpt>
      <trkpt lat="48.04109" lon="6.99756">
        <ele>1120.6</ele>
        <time>2022-05-26T14:10:00Z</time>
      </trkpt>
      <trkpt lat="48.04099" lon="6.99748">
        <ele>1121.4</ele>
        <time>2022-05-26T14:10:04Z</time>
      </trkpt>
      <trkpt lat="48.04091" lon="6.99737">
        <ele>1122.1</ele>
        <time>2022-05-26T14:10:08Z</time>
      </trkpt>
      <trkpt lat="48.04091" lon="6.99721">
        <ele>1122.2</ele>
        <time>2022-05-26T14:10:12Z</time>
      </trkpt>
      <trkpt lat="48.04099" lon="6.9971">
        <ele>1121.6</ele>
        <time>2022-05-26T14:10:16Z</time>
      </trkpt>
      <trkpt lat="48.0411" lon="6.99707">
        <ele>1121.3</ele>
        <time>2022-05-26T14:10:20Z</time>
      </trkpt>
      <trkpt lat="48.04119" lon="6.99704">
        <ele>1121.7</ele>
        <time>2022-05-26T14:10:23Z</time>
      </trkpt>
      <trkpt lat="48.04126" lon="6.99694">
        <ele>1121.7</ele>
        <time>2022-05-26T14:10:26Z</time>
      </trkpt>
      <trkpt lat="48.0413" lon="6.99679">
        <ele>1121.7</ele>
        <time>2022-05-26T14:10:29Z</time>
      </trkpt>
      <trkpt lat="48.04127" lon="6.99663">
        <ele>1122.9</ele>
        <time>2022-05-26T14:10:33Z</time>
      </trkpt>
      <trkpt lat="48.04121" lon="6.99652">
        <ele>1122.8</ele>
        <time>2022-05-26T14:10:36Z</time>
      </trkpt>
      <trkpt lat="48.04111" lon="6.9964">
        <ele>1123.1</ele>
        <time>2022-05-26T14:10:40Z</time>
      </trkpt>
      <trkpt lat="48.04103" lon="6.99629">
        <ele>1123.8</ele>
        <time>2022-05-26T14:10:44Z</time>
      </trkpt>
      <trkpt lat="48.04095" lon="6.99617">
        <ele>1124.6</ele>
        <time>2022-05-26T14:10:49Z</time>
      </trkpt>
      <trkpt lat="48.0409" lon="6.99603">
        <ele>1124.6</ele>
        <time>2022-05-26T14:10:53Z</time>
      </trkpt>
      <trkpt lat="48.04089" lon="6.99588">
        <ele>1125.8</ele>
        <time>2022-05-26T14:10:57Z</time>
      </trkpt>
      <trkpt lat="48.04088" lon="6.99574">
        <ele>1125</ele>
        <time>2022-05-26T14:11:00Z</time>
      </trkpt>
      <trkpt lat="48.04088" lon="6.9956">
        <ele>1125.7</ele>
        <time>2022-05-26T14:11:03Z</time>
      </trkpt>
      <trkpt lat="48.04087" lon="6.99544">
        <ele>1125</ele>
        <time>2022-05-26T14:11:06Z</time>
      </trkpt>
      <trkpt lat="48.04088" lon="6.99531">
        <ele>1125.7</ele>
        <time>2022-05-26T14:11:09Z</time>
      </trkpt>
      <trkpt lat="48.04089" lon="6.99514">
        <ele>1125.7</ele>
        <time>2022-05-26T14:11:13Z</time>
      </trkpt>
      <trkpt lat="48.04092" lon="6.99496">
        <ele>1125.7</ele>
        <time>2022-05-26T14:11:17Z</time>
      </trkpt>
      <trkpt lat="48.04094" lon="6.99483">
        <ele>1126.2</ele>
        <time>2022-05-26T14:11:20Z</time>
      </trkpt>
      <trkpt lat="48.04097" lon="6.9947">
        <ele>1126.1</ele>
        <time>2022-05-26T14:11:23Z</time>
      </trkpt>
      <trkpt lat="48.04097" lon="6.99455">
        <ele>1125.6</ele>
        <time>2022-05-26T14:11:26Z</time>
      </trkpt>
      <trkpt lat="48.04094" lon="6.99441">
        <ele>1127</ele>
        <time>2022-05-26T14:11:29Z</time>
      </trkpt>
      <trkpt lat="48.04094" lon="6.99424">
        <ele>1126.2</ele>
        <time>2022-05-26T14:11:33Z</time>
      </trkpt>
      <trkpt lat="48.04093" lon="6.99407">
        <ele>1127.4</ele>
        <time>2022-05-26T14:11:37Z</time>
      </trkpt>
      <trkpt lat="48.04093" lon="6.99393">
        <ele>1128.4</ele>
        <time>2022-05-26T14:11:40Z</time>
      </trkpt>
      <trkpt lat="48.04096" lon="6.99377">
        <ele>1128.2</ele>
        <time>2022-05-26T14:11:44Z</time>
      </trkpt>
      <trkpt lat="48.04096" lon="6.9936">
        <ele>1128.1</ele>
        <time>2022-05-26T14:11:48Z</time>
      </trkpt>
      <trkpt lat="48.04098" lon="6.99346">
        <ele>1127.3</ele>
        <time>2022-05-26T14:11:51Z</time>
      </trkpt>
      <trkpt lat="48.04097" lon="6.99329">
        <ele>1127.6</ele>
        <time>2022-05-26T14:11:55Z</time>
      </trkpt>
      <trkpt lat="48.04096" lon="6.99315">
        <ele>1128.1</ele>
        <time>2022-05-26T14:11:58Z</time>
      </trkpt>
      <trkpt lat="48.04097" lon="6.99301">
        <ele>1127.7</ele>
        <time>2022-05-26T14:12:01Z</time>
      </trkpt>
      <trkpt lat="48.04096" lon="6.99286">
        <ele>1127.4</ele>
        <time>2022-05-26T14:12:04Z</time>
      </trkpt>
      <trkpt lat="48.04094" lon="6.9927">
        <ele>1127.5</ele>
        <time>2022-05-26T14:12:07Z</time>
      </trkpt>
      <trkpt lat="48.04093" lon="6.9925">
        <ele>1125</ele>
        <time>2022-05-26T14:12:10Z</time>
      </trkpt>
      <trkpt lat="48.04093" lon="6.99234">
        <ele>1124.6</ele>
        <time>2022-05-26T14:12:12Z</time>
      </trkpt>
      <trkpt lat="48.04092" lon="6.99217">
        <ele>1125.3</ele>
        <time>2022-05-26T14:12:14Z</time>
      </trkpt>
      <trkpt lat="48.04093" lon="6.99201">
        <ele>1124.2</ele>
        <time>2022-05-26T14:12:16Z</time>
      </trkpt>
      <trkpt lat="48.04093" lon="6.99185">
        <ele>1123.5</ele>
        <time>2022-05-26T14:12:18Z</time>
      </trkpt>
      <trkpt lat="48.04096" lon="6.9917">
        <ele>1123.1</ele>
        <time>2022-05-26T14:12:20Z</time>
      </trkpt>
      <trkpt lat="48.041" lon="6.99157">
        <ele>1122.9</ele>
        <time>2022-05-26T14:12:22Z</time>
      </trkpt>
      <trkpt lat="48.04104" lon="6.99142">
        <ele>1121.6</ele>
        <time>2022-05-26T14:12:24Z</time>
      </trkpt>
      <trkpt lat="48.04106" lon="6.99127">
        <ele>1122.6</ele>
        <time>2022-05-26T14:12:26Z</time>
      </trkpt>
      <trkpt lat="48.04104" lon="6.99113">
        <ele>1120.7</ele>
        <time>2022-05-26T14:12:28Z</time>
      </trkpt>
      <trkpt lat="48.04101" lon="6.99098">
        <ele>1118.7</ele>
        <time>2022-05-26T14:12:30Z</time>
      </trkpt>
      <trkpt lat="48.04099" lon="6.99081">
        <ele>1118.5</ele>
        <time>2022-05-26T14:12:32Z</time>
      </trkpt>
      <trkpt lat="48.04099" lon="6.99066">
        <ele>1119.4</ele>
        <time>2022-05-26T14:12:34Z</time>
      </trkpt>
      <trkpt lat="48.04097" lon="6.99047">
        <ele>1117.3</ele>
        <time>2022-05-26T14:12:36Z</time>
      </trkpt>
      <trkpt lat="48.04092" lon="6.99033">
        <ele>1114.6</ele>
        <time>2022-05-26T14:12:38Z</time>
      </trkpt>
      <trkpt lat="48.04079" lon="6.99024">
        <ele>1114.7</ele>
        <time>2022-05-26T14:12:41Z</time>
      </trkpt>
      <trkpt lat="48.04069" lon="6.9902">
        <ele>1114.3</ele>
        <time>2022-05-26T14:12:43Z</time>
      </trkpt>
      <trkpt lat="48.04058" lon="6.99013">
        <ele>1113.1</ele>
        <time>2022-05-26T14:12:45Z</time>
      </trkpt>
      <trkpt lat="48.04047" lon="6.99004">
        <ele>1111.3</ele>
        <time>2022-05-26T14:12:47Z</time>
      </trkpt>
      <trkpt lat="48.04038" lon="6.98994">
        <ele>1111.4</ele>
        <time>2022-05-26T14:12:49Z</time>
      </trkpt>
      <trkpt lat="48.0403" lon="6.9898">
        <ele>1112</ele>
        <time>2022-05-26T14:12:51Z</time>
      </trkpt>
      <trkpt lat="48.04023" lon="6.98964">
        <ele>1111.2</ele>
        <time>2022-05-26T14:12:53Z</time>
      </trkpt>
      <trkpt lat="48.04016" lon="6.98946">
        <ele>1111.5</ele>
        <time>2022-05-26T14:12:55Z</time>
      </trkpt>
      <trkpt lat="48.04008" lon="6.98932">
        <ele>1110.8</ele>
        <time>2022-05-26T14:12:57Z</time>
      </trkpt>
      <trkpt lat="48.04001" lon="6.98921">
        <ele>1109.9</ele>
        <time>2022-05-26T14:12:59Z</time>
      </trkpt>
      <trkpt lat="48.03994" lon="6.9891">
        <ele>1110.7</ele>
        <time>2022-05-26T14:13:01Z</time>
      </trkpt>
      <trkpt lat="48.03989" lon="6.98895">
        <ele>1110.2</ele>
        <time>2022-05-26T14:13:04Z</time>
      </trkpt>
      <trkpt lat="48.03987" lon="6.98879">
        <ele>1109.5</ele>
        <time>2022-05-26T14:13:07Z</time>
      </trkpt>
      <trkpt lat="48.03985" lon="6.98859">
        <ele>1110.7</ele>
        <time>2022-05-26T14:13:10Z</time>
      </trkpt>
      <trkpt lat="48.03983" lon="6.98843">
        <ele>1111.7</ele>
        <time>2022-05-26T14:13:12Z</time>
      </trkpt>
      <trkpt lat="48.0398" lon="6.98825">
        <ele>1111.2</ele>
        <time>2022-05-26T14:13:14Z</time>
      </trkpt>
      <trkpt lat="48.03977" lon="6.98807">
        <ele>1110.3</ele>
        <time>2022-05-26T14:13:16Z</time>
      </trkpt>
      <trkpt lat="48.03974" lon="6.98791">
        <ele>1110.8</ele>
        <time>2022-05-26T14:13:18Z</time>
      </trkpt>
      <trkpt lat="48.03972" lon="6.98776">
        <ele>1112.6</ele>
        <time>2022-05-26T14:13:20Z</time>
      </trkpt>
      <trkpt lat="48.0397" lon="6.98763">
        <ele>1110.8</ele>
        <time>2022-05-26T14:13:22Z</time>
      </trkpt>
      <trkpt lat="48.03969" lon="6.98749">
        <ele>1111.7</ele>
        <time>2022-05-26T14:13:24Z</time>
      </trkpt>
      <trkpt lat="48.03969" lon="6.98729">
        <ele>1111.7</ele>
        <time>2022-05-26T14:13:27Z</time>
      </trkpt>
      <trkpt lat="48.03968" lon="6.98709">
        <ele>1112.3</ele>
        <time>2022-05-26T14:13:30Z</time>
      </trkpt>
      <trkpt lat="48.03967" lon="6.9869">
        <ele>1111.5</ele>
        <time>2022-05-26T14:13:33Z</time>
      </trkpt>
      <trkpt lat="48.03966" lon="6.98674">
        <ele>1112.1</ele>
        <time>2022-05-26T14:13:36Z</time>
      </trkpt>
      <trkpt lat="48.03964" lon="6.9866">
        <ele>1109.5</ele>
        <time>2022-05-26T14:13:39Z</time>
      </trkpt>
      <trkpt lat="48.03962" lon="6.98642">
        <ele>1110.4</ele>
        <time>2022-05-26T14:13:42Z</time>
      </trkpt>
      <trkpt lat="48.0396" lon="6.98628">
        <ele>1110</ele>
        <time>2022-05-26T14:13:44Z</time>
      </trkpt>
      <trkpt lat="48.0396" lon="6.98613">
        <ele>1108.2</ele>
        <time>2022-05-26T14:13:46Z</time>
      </trkpt>
      <trkpt lat="48.03958" lon="6.98599">
        <ele>1107.2</ele>
        <time>2022-05-26T14:13:48Z</time>
      </trkpt>
      <trkpt lat="48.03956" lon="6.98584">
        <ele>1106.5</ele>
        <time>2022-05-26T14:13:50Z</time>
      </trkpt>
      <trkpt lat="48.03954" lon="6.9857">
        <ele>1106.9</ele>
        <time>2022-05-26T14:13:52Z</time>
      </trkpt>
      <trkpt lat="48.03952" lon="6.98555">
        <ele>1105.8</ele>
        <time>2022-05-26T14:13:54Z</time>
      </trkpt>
      <trkpt lat="48.03949" lon="6.9854">
        <ele>1103.4</ele>
        <time>2022-05-26T14:13:56Z</time>
      </trkpt>
      <trkpt lat="48.03945" lon="6.98524">
        <ele>1103.6</ele>
        <time>2022-05-26T14:13:58Z</time>
      </trkpt>
      <trkpt lat="48.03941" lon="6.98507">
        <ele>1101.1</ele>
        <time>2022-05-26T14:14:00Z</time>
      </trkpt>
      <trkpt lat="48.03938" lon="6.98488">
        <ele>1099.4</ele>
        <time>2022-05-26T14:14:02Z</time>
      </trkpt>
      <trkpt lat="48.03935" lon="6.98471">
        <ele>1101</ele>
        <time>2022-05-26T14:14:04Z</time>
      </trkpt>
      <trkpt lat="48.03933" lon="6.98453">
        <ele>1100.5</ele>
        <time>2022-05-26T14:14:06Z</time>
      </trkpt>
      <trkpt lat="48.03931" lon="6.98434">
        <ele>1097.5</ele>
        <time>2022-05-26T14:14:08Z</time>
      </trkpt>
      <trkpt lat="48.03931" lon="6.98414">
        <ele>1097.5</ele>
        <time>2022-05-26T14:14:10Z</time>
      </trkpt>
      <trkpt lat="48.03931" lon="6.98393">
        <ele>1093.8</ele>
        <time>2022-05-26T14:14:12Z</time>
      </trkpt>
      <trkpt lat="48.03934" lon="6.98373">
        <ele>1094.4</ele>
        <time>2022-05-26T14:14:14Z</time>
      </trkpt>
      <trkpt lat="48.03938" lon="6.98354">
        <ele>1093.9</ele>
        <time>2022-05-26T14:14:16Z</time>
      </trkpt>
      <trkpt lat="48.03944" lon="6.98332">
        <ele>1092</ele>
        <time>2022-05-26T14:14:18Z</time>
      </trkpt>
      <trkpt lat="48.0395" lon="6.98309">
        <ele>1088.8</ele>
        <time>2022-05-26T14:14:20Z</time>
      </trkpt>
      <trkpt lat="48.03957" lon="6.98288">
        <ele>1089.2</ele>
        <time>2022-05-26T14:14:22Z</time>
      </trkpt>
      <trkpt lat="48.03964" lon="6.98274">
        <ele>1090.4</ele>
        <time>2022-05-26T14:14:24Z</time>
      </trkpt>
      <trkpt lat="48.03971" lon="6.98262">
        <ele>1092.4</ele>
        <time>2022-05-26T14:14:26Z</time>
      </trkpt>
      <trkpt lat="48.03978" lon="6.98251">
        <ele>1092.8</ele>
        <time>2022-05-26T14:14:28Z</time>
      </trkpt>
      <trkpt lat="48.03984" lon="6.98238">
        <ele>1092.4</ele>
        <time>2022-05-26T14:14:31Z</time>
      </trkpt>
      <trkpt lat="48.03983" lon="6.98222">
        <ele>1091.1</ele>
        <time>2022-05-26T14:14:37Z</time>
      </trkpt>
      <trkpt lat="48.03984" lon="6.98209">
        <ele>1088.3</ele>
        <time>2022-05-26T14:14:42Z</time>
      </trkpt>
      <trkpt lat="48.03984" lon="6.98193">
        <ele>1089.2</ele>
        <time>2022-05-26T14:14:45Z</time>
      </trkpt>
      <trkpt lat="48.03984" lon="6.98173">
        <ele>1087</ele>
        <time>2022-05-26T14:14:48Z</time>
      </trkpt>
      <trkpt lat="48.03984" lon="6.98157">
        <ele>1087</ele>
        <time>2022-05-26T14:14:50Z</time>
      </trkpt>
      <trkpt lat="48.03986" lon="6.98143">
        <ele>1085.7</ele>
        <time>2022-05-26T14:14:52Z</time>
      </trkpt>
      <trkpt lat="48.03987" lon="6.98128">
        <ele>1084.9</ele>
        <time>2022-05-26T14:14:54Z</time>
      </trkpt>
      <trkpt lat="48.03988" lon="6.9811">
        <ele>1083.1</ele>
        <time>2022-05-26T14:14:56Z</time>
      </trkpt>
      <trkpt lat="48.03991" lon="6.9809">
        <ele>1083.3</ele>
        <time>2022-05-26T14:14:58Z</time>
      </trkpt>
      <trkpt lat="48.03994" lon="6.98069">
        <ele>1082.6</ele>
        <time>2022-05-26T14:15:00Z</time>
      </trkpt>
      <trkpt lat="48.03995" lon="6.98044">
        <ele>1078.6</ele>
        <time>2022-05-26T14:15:02Z</time>
      </trkpt>
      <trkpt lat="48.03998" lon="6.9802">
        <ele>1076.6</ele>
        <time>2022-05-26T14:15:04Z</time>
      </trkpt>
      <trkpt lat="48.04001" lon="6.97995">
        <ele>1076.6</ele>
        <time>2022-05-26T14:15:06Z</time>
      </trkpt>
      <trkpt lat="48.04003" lon="6.97981">
        <ele>1075.4</ele>
        <time>2022-05-26T14:15:07Z</time>
      </trkpt>
      <trkpt lat="48.04005" lon="6.97966">
        <ele>1074.8</ele>
        <time>2022-05-26T14:15:08Z</time>
      </trkpt>
      <trkpt lat="48.04007" lon="6.97952">
        <ele>1072.7</ele>
        <time>2022-05-26T14:15:09Z</time>
      </trkpt>
      <trkpt lat="48.0401" lon="6.97938">
        <ele>1070.9</ele>
        <time>2022-05-26T14:15:10Z</time>
      </trkpt>
      <trkpt lat="48.04013" lon="6.97925">
        <ele>1069.2</ele>
        <time>2022-05-26T14:15:11Z</time>
      </trkpt>
      <trkpt lat="48.04015" lon="6.97912">
        <ele>1070.4</ele>
        <time>2022-05-26T14:15:12Z</time>
      </trkpt>
      <trkpt lat="48.0402" lon="6.97888">
        <ele>1070.9</ele>
        <time>2022-05-26T14:15:14Z</time>
      </trkpt>
      <trkpt lat="48.04026" lon="6.97868">
        <ele>1069.1</ele>
        <time>2022-05-26T14:15:16Z</time>
      </trkpt>
      <trkpt lat="48.04033" lon="6.97849">
        <ele>1067.2</ele>
        <time>2022-05-26T14:15:18Z</time>
      </trkpt>
      <trkpt lat="48.04044" lon="6.97835">
        <ele>1066.2</ele>
        <time>2022-05-26T14:15:20Z</time>
      </trkpt>
      <trkpt lat="48.04058" lon="6.97826">
        <ele>1062.2</ele>
        <time>2022-05-26T14:15:22Z</time>
      </trkpt>
      <trkpt lat="48.04075" lon="6.97818">
        <ele>1061.8</ele>
        <time>2022-05-26T14:15:24Z</time>
      </trkpt>
      <trkpt lat="48.04084" lon="6.97815">
        <ele>1062.5</ele>
        <time>2022-05-26T14:15:25Z</time>
      </trkpt>
      <trkpt lat="48.04101" lon="6.97812">
        <ele>1059.5</ele>
        <time>2022-05-26T14:15:27Z</time>
      </trkpt>
      <trkpt lat="48.04118" lon="6.97811">
        <ele>1057</ele>
        <time>2022-05-26T14:15:29Z</time>
      </trkpt>
      <trkpt lat="48.04136" lon="6.97811">
        <ele>1056.2</ele>
        <time>2022-05-26T14:15:31Z</time>
      </trkpt>
      <trkpt lat="48.04153" lon="6.97812">
        <ele>1053.2</ele>
        <time>2022-05-26T14:15:33Z</time>
      </trkpt>
      <trkpt lat="48.04169" lon="6.97817">
        <ele>1052.8</ele>
        <time>2022-05-26T14:15:35Z</time>
      </trkpt>
      <trkpt lat="48.04184" lon="6.97823">
        <ele>1053.1</ele>
        <time>2022-05-26T14:15:37Z</time>
      </trkpt>
      <trkpt lat="48.04199" lon="6.97827">
        <ele>1053.9</ele>
        <time>2022-05-26T14:15:39Z</time>
      </trkpt>
      <trkpt lat="48.04212" lon="6.97832">
        <ele>1054.5</ele>
        <time>2022-05-26T14:15:41Z</time>
      </trkpt>
      <trkpt lat="48.04226" lon="6.97835">
        <ele>1054.4</ele>
        <time>2022-05-26T14:15:43Z</time>
      </trkpt>
      <trkpt lat="48.04239" lon="6.97839">
        <ele>1052.2</ele>
        <time>2022-05-26T14:15:45Z</time>
      </trkpt>
      <trkpt lat="48.04252" lon="6.97843">
        <ele>1047.5</ele>
        <time>2022-05-26T14:15:47Z</time>
      </trkpt>
      <trkpt lat="48.04267" lon="6.97846">
        <ele>1047.2</ele>
        <time>2022-05-26T14:15:49Z</time>
      </trkpt>
      <trkpt lat="48.04281" lon="6.97849">
        <ele>1046.4</ele>
        <time>2022-05-26T14:15:51Z</time>
      </trkpt>
      <trkpt lat="48.04299" lon="6.97851">
        <ele>1048.1</ele>
        <time>2022-05-26T14:15:53Z</time>
      </trkpt>
      <trkpt lat="48.04308" lon="6.97851">
        <ele>1049.4</ele>
        <time>2022-05-26T14:15:54Z</time>
      </trkpt>
      <trkpt lat="48.04326" lon="6.9785">
        <ele>1046.4</ele>
        <time>2022-05-26T14:15:56Z</time>
      </trkpt>
      <trkpt lat="48.04336" lon="6.97849">
        <ele>1043.2</ele>
        <time>2022-05-26T14:15:57Z</time>
      </trkpt>
      <trkpt lat="48.04346" lon="6.97849">
        <ele>1042.2</ele>
        <time>2022-05-26T14:15:58Z</time>
      </trkpt>
      <trkpt lat="48.04356" lon="6.97847">
        <ele>1041.5</ele>
        <time>2022-05-26T14:15:59Z</time>
      </trkpt>
      <trkpt lat="48.04366" lon="6.97845">
        <ele>1039.7</ele>
        <time>2022-05-26T14:16:00Z</time>
      </trkpt>
      <trkpt lat="48.04375" lon="6.97843">
        <ele>1038.5</ele>
        <time>2022-05-26T14:16:01Z</time>
      </trkpt>
      <trkpt lat="48.04385" lon="6.97842">
        <ele>1038.2</ele>
        <time>2022-05-26T14:16:02Z</time>
      </trkpt>
      <trkpt lat="48.04394" lon="6.97839">
        <ele>1038.7</ele>
        <time>2022-05-26T14:16:03Z</time>
      </trkpt>
      <trkpt lat="48.04409" lon="6.97835">
        <ele>1037.8</ele>
        <time>2022-05-26T14:16:05Z</time>
      </trkpt>
      <trkpt lat="48.04418" lon="6.97834">
        <ele>1035.9</ele>
        <time>2022-05-26T14:16:07Z</time>
      </trkpt>
      <trkpt lat="48.04428" lon="6.97833">
        <ele>1034.6</ele>
        <time>2022-05-26T14:16:10Z</time>
      </trkpt>
      <trkpt lat="48.04432" lon="6.97833">
        <ele>1034.8</ele>
        <time>2022-05-26T14:16:16Z</time>
      </trkpt>
      <trkpt lat="48.04432" lon="6.97834">
        <ele>1034.6</ele>
        <time>2022-05-26T14:16:21Z</time>
      </trkpt>
      <trkpt lat="48.04442" lon="6.97834">
        <ele>1033.2</ele>
        <time>2022-05-26T14:16:26Z</time>
      </trkpt>
      <trkpt lat="48.04452" lon="6.97835">
        <ele>1032.5</ele>
        <time>2022-05-26T14:16:29Z</time>
      </trkpt>
      <trkpt lat="48.04461" lon="6.97836">
        <ele>1031.2</ele>
        <time>2022-05-26T14:16:31Z</time>
      </trkpt>
      <trkpt lat="48.04472" lon="6.97836">
        <ele>1029.5</ele>
        <time>2022-05-26T14:16:33Z</time>
      </trkpt>
      <trkpt lat="48.04486" lon="6.97835">
        <ele>1028.4</ele>
        <time>2022-05-26T14:16:35Z</time>
      </trkpt>
      <trkpt lat="48.04501" lon="6.97832">
        <ele>1028.4</ele>
        <time>2022-05-26T14:16:37Z</time>
      </trkpt>
      <trkpt lat="48.04517" lon="6.97828">
        <ele>1029.2</ele>
        <time>2022-05-26T14:16:39Z</time>
      </trkpt>
      <trkpt lat="48.04533" lon="6.97823">
        <ele>1026.6</ele>
        <time>2022-05-26T14:16:41Z</time>
      </trkpt>
      <trkpt lat="48.04548" lon="6.97819">
        <ele>1023.4</ele>
        <time>2022-05-26T14:16:43Z</time>
      </trkpt>
      <trkpt lat="48.04562" lon="6.97818">
        <ele>1020.9</ele>
        <time>2022-05-26T14:16:45Z</time>
      </trkpt>
      <trkpt lat="48.04578" lon="6.97819">
        <ele>1022.3</ele>
        <time>2022-05-26T14:16:47Z</time>
      </trkpt>
      <trkpt lat="48.04594" lon="6.97821">
        <ele>1020.7</ele>
        <time>2022-05-26T14:16:49Z</time>
      </trkpt>
      <trkpt lat="48.04608" lon="6.97825">
        <ele>1016.1</ele>
        <time>2022-05-26T14:16:51Z</time>
      </trkpt>
      <trkpt lat="48.04618" lon="6.97826">
        <ele>1017.9</ele>
        <time>2022-05-26T14:16:53Z</time>
      </trkpt>
      <trkpt lat="48.04626" lon="6.97816">
        <ele>1014.5</ele>
        <time>2022-05-26T14:16:56Z</time>
      </trkpt>
      <trkpt lat="48.04619" lon="6.97807">
        <ele>1015.7</ele>
        <time>2022-05-26T14:17:00Z</time>
      </trkpt>
      <trkpt lat="48.04606" lon="6.97803">
        <ele>1011.1</ele>
        <time>2022-05-26T14:17:03Z</time>
      </trkpt>
      <trkpt lat="48.04595" lon="6.97797">
        <ele>1009.8</ele>
        <time>2022-05-26T14:17:05Z</time>
      </trkpt>
      <trkpt lat="48.04583" lon="6.97787">
        <ele>1010.3</ele>
        <time>2022-05-26T14:17:07Z</time>
      </trkpt>
      <trkpt lat="48.0457" lon="6.97776">
        <ele>1008.8</ele>
        <time>2022-05-26T14:17:09Z</time>
      </trkpt>
      <trkpt lat="48.04562" lon="6.9777">
        <ele>1008.2</ele>
        <time>2022-05-26T14:17:11Z</time>
      </trkpt>
      <trkpt lat="48.04553" lon="6.97765">
        <ele>1006.7</ele>
        <time>2022-05-26T14:17:16Z</time>
      </trkpt>
      <trkpt lat="48.04564" lon="6.97754">
        <ele>1001.3</ele>
        <time>2022-05-26T14:17:32Z</time>
      </trkpt>
      <trkpt lat="48.04575" lon="6.97749">
        <ele>998.9</ele>
        <time>2022-05-26T14:17:34Z</time>
      </trkpt>
      <trkpt lat="48.04585" lon="6.97747">
        <ele>998.1</ele>
        <time>2022-05-26T14:17:36Z</time>
      </trkpt>
      <trkpt lat="48.04594" lon="6.97747">
        <ele>998.6</ele>
        <time>2022-05-26T14:17:39Z</time>
      </trkpt>
      <trkpt lat="48.04605" lon="6.97751">
        <ele>996.3</ele>
        <time>2022-05-26T14:17:43Z</time>
      </trkpt>
      <trkpt lat="48.04615" lon="6.97748">
        <ele>994.1</ele>
        <time>2022-05-26T14:17:47Z</time>
      </trkpt>
      <trkpt lat="48.04623" lon="6.97743">
        <ele>994.3</ele>
        <time>2022-05-26T14:17:51Z</time>
      </trkpt>
      <trkpt lat="48.04632" lon="6.97737">
        <ele>992.7</ele>
        <time>2022-05-26T14:17:59Z</time>
      </trkpt>
      <trkpt lat="48.04636" lon="6.97724">
        <ele>990.2</ele>
        <time>2022-05-26T14:18:03Z</time>
      </trkpt>
      <trkpt lat="48.04641" lon="6.97713">
        <ele>988.3</ele>
        <time>2022-05-26T14:18:08Z</time>
      </trkpt>
      <trkpt lat="48.0465" lon="6.97706">
        <ele>985.8</ele>
        <time>2022-05-26T14:18:12Z</time>
      </trkpt>
      <trkpt lat="48.04659" lon="6.97702">
        <ele>983.2</ele>
        <time>2022-05-26T14:18:16Z</time>
      </trkpt>
      <trkpt lat="48.04668" lon="6.97695">
        <ele>979.9</ele>
        <time>2022-05-26T14:18:23Z</time>
      </trkpt>
      <trkpt lat="48.04678" lon="6.97687">
        <ele>978.4</ele>
        <time>2022-05-26T14:18:26Z</time>
      </trkpt>
      <trkpt lat="48.04686" lon="6.9768">
        <ele>976.8</ele>
        <time>2022-05-26T14:18:31Z</time>
      </trkpt>
      <trkpt lat="48.04693" lon="6.97671">
        <ele>976</ele>
        <time>2022-05-26T14:18:36Z</time>
      </trkpt>
      <trkpt lat="48.04702" lon="6.97662">
        <ele>972.6</ele>
        <time>2022-05-26T14:18:39Z</time>
      </trkpt>
      <trkpt lat="48.04712" lon="6.97652">
        <ele>973.4</ele>
        <time>2022-05-26T14:18:42Z</time>
      </trkpt>
      <trkpt lat="48.04718" lon="6.97628">
        <ele>972.5</ele>
        <time>2022-05-26T14:18:45Z</time>
      </trkpt>
      <trkpt lat="48.04716" lon="6.97613">
        <ele>970.8</ele>
        <time>2022-05-26T14:18:47Z</time>
      </trkpt>
      <trkpt lat="48.04709" lon="6.97598">
        <ele>965.6</ele>
        <time>2022-05-26T14:18:50Z</time>
      </trkpt>
      <trkpt lat="48.04699" lon="6.9759">
        <ele>966.7</ele>
        <time>2022-05-26T14:18:53Z</time>
      </trkpt>
      <trkpt lat="48.0469" lon="6.97584">
        <ele>963.9</ele>
        <time>2022-05-26T14:18:57Z</time>
      </trkpt>
      <trkpt lat="48.04688" lon="6.9757">
        <ele>961.6</ele>
        <time>2022-05-26T14:19:01Z</time>
      </trkpt>
      <trkpt lat="48.04697" lon="6.97565">
        <ele>959.8</ele>
        <time>2022-05-26T14:19:04Z</time>
      </trkpt>
      <trkpt lat="48.04708" lon="6.97567">
        <ele>960.5</ele>
        <time>2022-05-26T14:19:07Z</time>
      </trkpt>
      <trkpt lat="48.0472" lon="6.97568">
        <ele>961.3</ele>
        <time>2022-05-26T14:19:10Z</time>
      </trkpt>
      <trkpt lat="48.04732" lon="6.9757">
        <ele>961.4</ele>
        <time>2022-05-26T14:19:13Z</time>
      </trkpt>
      <trkpt lat="48.04744" lon="6.97573">
        <ele>962.1</ele>
        <time>2022-05-26T14:19:16Z</time>
      </trkpt>
      <trkpt lat="48.04754" lon="6.97578">
        <ele>962.2</ele>
        <time>2022-05-26T14:19:20Z</time>
      </trkpt>
      <trkpt lat="48.04763" lon="6.97583">
        <ele>962</ele>
        <time>2022-05-26T14:19:27Z</time>
      </trkpt>
      <trkpt lat="48.04766" lon="6.97567">
        <ele>962.8</ele>
        <time>2022-05-26T14:19:33Z</time>
      </trkpt>
      <trkpt lat="48.04768" lon="6.97552">
        <ele>963.1</ele>
        <time>2022-05-26T14:19:36Z</time>
      </trkpt>
      <trkpt lat="48.04771" lon="6.97539">
        <ele>963.5</ele>
        <time>2022-05-26T14:19:39Z</time>
      </trkpt>
      <trkpt lat="48.04773" lon="6.97525">
        <ele>964.2</ele>
        <time>2022-05-26T14:19:44Z</time>
      </trkpt>
      <trkpt lat="48.04773" lon="6.97526">
        <ele>964.1</ele>
        <time>2022-05-26T14:22:12Z</time>
      </trkpt>
      <trkpt lat="48.04772" lon="6.97511">
        <ele>964.6</ele>
        <time>2022-05-26T14:22:19Z</time>
      </trkpt>
      <trkpt lat="48.04775" lon="6.97497">
        <ele>965.6</ele>
        <time>2022-05-26T14:22:24Z</time>
      </trkpt>
      <trkpt lat="48.04778" lon="6.97484">
        <ele>966.3</ele>
        <time>2022-05-26T14:22:28Z</time>
      </trkpt>
      <trkpt lat="48.04781" lon="6.97471">
        <ele>967.5</ele>
        <time>2022-05-26T14:22:32Z</time>
      </trkpt>
      <trkpt lat="48.04784" lon="6.97456">
        <ele>968.2</ele>
        <time>2022-05-26T14:22:37Z</time>
      </trkpt>
      <trkpt lat="48.04786" lon="6.97442">
        <ele>968.8</ele>
        <time>2022-05-26T14:22:41Z</time>
      </trkpt>
      <trkpt lat="48.04786" lon="6.97428">
        <ele>969.3</ele>
        <time>2022-05-26T14:22:45Z</time>
      </trkpt>
      <trkpt lat="48.04786" lon="6.97414">
        <ele>969.6</ele>
        <time>2022-05-26T14:22:49Z</time>
      </trkpt>
      <trkpt lat="48.04787" lon="6.97398">
        <ele>971.1</ele>
        <time>2022-05-26T14:22:54Z</time>
      </trkpt>
      <trkpt lat="48.04786" lon="6.97382">
        <ele>971.4</ele>
        <time>2022-05-26T14:22:59Z</time>
      </trkpt>
      <trkpt lat="48.04786" lon="6.97366">
        <ele>972.3</ele>
        <time>2022-05-26T14:23:04Z</time>
      </trkpt>
      <trkpt lat="48.04783" lon="6.97351">
        <ele>973.3</ele>
        <time>2022-05-26T14:23:09Z</time>
      </trkpt>
      <trkpt lat="48.04778" lon="6.97338">
        <ele>974</ele>
        <time>2022-05-26T14:23:15Z</time>
      </trkpt>
      <trkpt lat="48.04771" lon="6.97326">
        <ele>974.7</ele>
        <time>2022-05-26T14:23:22Z</time>
      </trkpt>
      <trkpt lat="48.04764" lon="6.97317">
        <ele>975.3</ele>
        <time>2022-05-26T14:23:28Z</time>
      </trkpt>
      <trkpt lat="48.04757" lon="6.97307">
        <ele>976.4</ele>
        <time>2022-05-26T14:23:34Z</time>
      </trkpt>
      <trkpt lat="48.0475" lon="6.97296">
        <ele>976.9</ele>
        <time>2022-05-26T14:23:41Z</time>
      </trkpt>
      <trkpt lat="48.04746" lon="6.97285">
        <ele>977.2</ele>
        <time>2022-05-26T14:23:47Z</time>
      </trkpt>
      <trkpt lat="48.04741" lon="6.97273">
        <ele>978</ele>
        <time>2022-05-26T14:23:53Z</time>
      </trkpt>
      <trkpt lat="48.04736" lon="6.9726">
        <ele>978.4</ele>
        <time>2022-05-26T14:24:00Z</time>
      </trkpt>
      <trkpt lat="48.04733" lon="6.97246">
        <ele>979.1</ele>
        <time>2022-05-26T14:24:07Z</time>
      </trkpt>
      <trkpt lat="48.0473" lon="6.97233">
        <ele>980</ele>
        <time>2022-05-26T14:24:14Z</time>
      </trkpt>
      <trkpt lat="48.04726" lon="6.97219">
        <ele>980.7</ele>
        <time>2022-05-26T14:24:19Z</time>
      </trkpt>
      <trkpt lat="48.04725" lon="6.97204">
        <ele>981.6</ele>
        <time>2022-05-26T14:24:25Z</time>
      </trkpt>
      <trkpt lat="48.04725" lon="6.9719">
        <ele>982.5</ele>
        <time>2022-05-26T14:24:30Z</time>
      </trkpt>
      <trkpt lat="48.04728" lon="6.97175">
        <ele>983.2</ele>
        <time>2022-05-26T14:24:36Z</time>
      </trkpt>
      <trkpt lat="48.04731" lon="6.9716">
        <ele>984.2</ele>
        <time>2022-05-26T14:24:42Z</time>
      </trkpt>
      <trkpt lat="48.04733" lon="6.97144">
        <ele>984.8</ele>
        <time>2022-05-26T14:24:48Z</time>
      </trkpt>
      <trkpt lat="48.04735" lon="6.97129">
        <ele>985.3</ele>
        <time>2022-05-26T14:24:54Z</time>
      </trkpt>
      <trkpt lat="48.04737" lon="6.97113">
        <ele>986.6</ele>
        <time>2022-05-26T14:25:00Z</time>
      </trkpt>
      <trkpt lat="48.04738" lon="6.97097">
        <ele>987.5</ele>
        <time>2022-05-26T14:25:06Z</time>
      </trkpt>
      <trkpt lat="48.04738" lon="6.97081">
        <ele>988</ele>
        <time>2022-05-26T14:25:12Z</time>
      </trkpt>
      <trkpt lat="48.04738" lon="6.97066">
        <ele>988.7</ele>
        <time>2022-05-26T14:25:18Z</time>
      </trkpt>
      <trkpt lat="48.04734" lon="6.9705">
        <ele>988.8</ele>
        <time>2022-05-26T14:25:23Z</time>
      </trkpt>
      <trkpt lat="48.04732" lon="6.97036">
        <ele>989.5</ele>
        <time>2022-05-26T14:25:28Z</time>
      </trkpt>
      <trkpt lat="48.04728" lon="6.97021">
        <ele>990.4</ele>
        <time>2022-05-26T14:25:34Z</time>
      </trkpt>
      <trkpt lat="48.04726" lon="6.97006">
        <ele>991.4</ele>
        <time>2022-05-26T14:25:41Z</time>
      </trkpt>
      <trkpt lat="48.04715" lon="6.97014">
        <ele>990.3</ele>
        <time>2022-05-26T14:25:48Z</time>
      </trkpt>
      <trkpt lat="48.04705" lon="6.97024">
        <ele>987.2</ele>
        <time>2022-05-26T14:25:52Z</time>
      </trkpt>
      <trkpt lat="48.04698" lon="6.97031">
        <ele>987.2</ele>
        <time>2022-05-26T14:25:57Z</time>
      </trkpt>
      <trkpt lat="48.04686" lon="6.97038">
        <ele>985.4</ele>
        <time>2022-05-26T14:26:02Z</time>
      </trkpt>
      <trkpt lat="48.04675" lon="6.97044">
        <ele>983.3</ele>
        <time>2022-05-26T14:26:05Z</time>
      </trkpt>
      <trkpt lat="48.04666" lon="6.97049">
        <ele>981.7</ele>
        <time>2022-05-26T14:26:09Z</time>
      </trkpt>
      <trkpt lat="48.04671" lon="6.97037">
        <ele>981.4</ele>
        <time>2022-05-26T14:26:15Z</time>
      </trkpt>
      <trkpt lat="48.04677" lon="6.97023">
        <ele>981.9</ele>
        <time>2022-05-26T14:26:19Z</time>
      </trkpt>
      <trkpt lat="48.04682" lon="6.97011">
        <ele>984.1</ele>
        <time>2022-05-26T14:26:24Z</time>
      </trkpt>
      <trkpt lat="48.04686" lon="6.96997">
        <ele>984.9</ele>
        <time>2022-05-26T14:26:30Z</time>
      </trkpt>
      <trkpt lat="48.04691" lon="6.96985">
        <ele>986.4</ele>
        <time>2022-05-26T14:26:37Z</time>
      </trkpt>
      <trkpt lat="48.04694" lon="6.96971">
        <ele>987.2</ele>
        <time>2022-05-26T14:26:44Z</time>
      </trkpt>
      <trkpt lat="48.04694" lon="6.96957">
        <ele>988.1</ele>
        <time>2022-05-26T14:26:50Z</time>
      </trkpt>
      <trkpt lat="48.04692" lon="6.96942">
        <ele>988.7</ele>
        <time>2022-05-26T14:26:57Z</time>
      </trkpt>
      <trkpt lat="48.04688" lon="6.96929">
        <ele>989.8</ele>
        <time>2022-05-26T14:27:04Z</time>
      </trkpt>
      <trkpt lat="48.04685" lon="6.96914">
        <ele>990.2</ele>
        <time>2022-05-26T14:27:12Z</time>
      </trkpt>
      <trkpt lat="48.04684" lon="6.969">
        <ele>991.5</ele>
        <time>2022-05-26T14:27:19Z</time>
      </trkpt>
      <trkpt lat="48.04684" lon="6.96887">
        <ele>992.3</ele>
        <time>2022-05-26T14:27:27Z</time>
      </trkpt>
      <trkpt lat="48.04683" lon="6.96871">
        <ele>992.5</ele>
        <time>2022-05-26T14:27:34Z</time>
      </trkpt>
      <trkpt lat="48.04681" lon="6.96858">
        <ele>992.1</ele>
        <time>2022-05-26T14:27:42Z</time>
      </trkpt>
      <trkpt lat="48.04681" lon="6.96842">
        <ele>992.8</ele>
        <time>2022-05-26T14:27:50Z</time>
      </trkpt>
      <trkpt lat="48.04685" lon="6.96828">
        <ele>994.4</ele>
        <time>2022-05-26T14:27:58Z</time>
      </trkpt>
      <trkpt lat="48.04688" lon="6.96815">
        <ele>995.6</ele>
        <time>2022-05-26T14:28:05Z</time>
      </trkpt>
      <trkpt lat="48.0469" lon="6.96801">
        <ele>996.6</ele>
        <time>2022-05-26T14:28:12Z</time>
      </trkpt>
      <trkpt lat="48.04694" lon="6.96788">
        <ele>997.5</ele>
        <time>2022-05-26T14:28:19Z</time>
      </trkpt>
      <trkpt lat="48.04694" lon="6.96774">
        <ele>997.5</ele>
        <time>2022-05-26T14:28:26Z</time>
      </trkpt>
      <trkpt lat="48.047" lon="6.9676">
        <ele>997.3</ele>
        <time>2022-05-26T14:28:32Z</time>
      </trkpt>
      <trkpt lat="48.04705" lon="6.96747">
        <ele>997</ele>
        <time>2022-05-26T14:28:37Z</time>
      </trkpt>
      <trkpt lat="48.04711" lon="6.96737">
        <ele>997.1</ele>
        <time>2022-05-26T14:28:44Z</time>
      </trkpt>
      <trkpt lat="48.04713" lon="6.96742">
        <ele>997.2</ele>
        <time>2022-05-26T14:28:49Z</time>
      </trkpt>
      <trkpt lat="48.04712" lon="6.96742">
        <ele>997</ele>
        <time>2022-05-26T14:29:16Z</time>
      </trkpt>
      <trkpt lat="48.04713" lon="6.96741">
        <ele>996.6</ele>
        <time>2022-05-26T14:29:24Z</time>
      </trkpt>
      <trkpt lat="48.04714" lon="6.96727">
        <ele>996.9</ele>
        <time>2022-05-26T14:29:32Z</time>
      </trkpt>
      <trkpt lat="48.04716" lon="6.96712">
        <ele>996.8</ele>
        <time>2022-05-26T14:29:35Z</time>
      </trkpt>
      <trkpt lat="48.04714" lon="6.96692">
        <ele>996.5</ele>
        <time>2022-05-26T14:29:38Z</time>
      </trkpt>
      <trkpt lat="48.04711" lon="6.96677">
        <ele>996</ele>
        <time>2022-05-26T14:29:40Z</time>
      </trkpt>
      <trkpt lat="48.04705" lon="6.96661">
        <ele>993.1</ele>
        <time>2022-05-26T14:29:42Z</time>
      </trkpt>
      <trkpt lat="48.047" lon="6.96644">
        <ele>993.6</ele>
        <time>2022-05-26T14:29:44Z</time>
      </trkpt>
      <trkpt lat="48.04696" lon="6.96627">
        <ele>993.8</ele>
        <time>2022-05-26T14:29:46Z</time>
      </trkpt>
      <trkpt lat="48.04699" lon="6.96612">
        <ele>992.7</ele>
        <time>2022-05-26T14:29:48Z</time>
      </trkpt>
      <trkpt lat="48.04706" lon="6.966">
        <ele>992</ele>
        <time>2022-05-26T14:29:50Z</time>
      </trkpt>
      <trkpt lat="48.04713" lon="6.9659">
        <ele>992.3</ele>
        <time>2022-05-26T14:29:52Z</time>
      </trkpt>
      <trkpt lat="48.0472" lon="6.96579">
        <ele>993.8</ele>
        <time>2022-05-26T14:29:54Z</time>
      </trkpt>
      <trkpt lat="48.04728" lon="6.96563">
        <ele>991.9</ele>
        <time>2022-05-26T14:29:57Z</time>
      </trkpt>
      <trkpt lat="48.04734" lon="6.96547">
        <ele>992.2</ele>
        <time>2022-05-26T14:30:00Z</time>
      </trkpt>
      <trkpt lat="48.04743" lon="6.96532">
        <ele>991.1</ele>
        <time>2022-05-26T14:30:03Z</time>
      </trkpt>
      <trkpt lat="48.04749" lon="6.96517">
        <ele>989.9</ele>
        <time>2022-05-26T14:30:05Z</time>
      </trkpt>
      <trkpt lat="48.04757" lon="6.965">
        <ele>988.6</ele>
        <time>2022-05-26T14:30:07Z</time>
      </trkpt>
      <trkpt lat="48.04764" lon="6.96484">
        <ele>987.1</ele>
        <time>2022-05-26T14:30:09Z</time>
      </trkpt>
      <trkpt lat="48.04772" lon="6.96468">
        <ele>984.4</ele>
        <time>2022-05-26T14:30:11Z</time>
      </trkpt>
      <trkpt lat="48.04782" lon="6.96451">
        <ele>981.8</ele>
        <time>2022-05-26T14:30:13Z</time>
      </trkpt>
      <trkpt lat="48.04791" lon="6.96432">
        <ele>984.6</ele>
        <time>2022-05-26T14:30:15Z</time>
      </trkpt>
      <trkpt lat="48.048" lon="6.96412">
        <ele>982.7</ele>
        <time>2022-05-26T14:30:17Z</time>
      </trkpt>
      <trkpt lat="48.04806" lon="6.96392">
        <ele>982.4</ele>
        <time>2022-05-26T14:30:19Z</time>
      </trkpt>
      <trkpt lat="48.04806" lon="6.96368">
        <ele>978.8</ele>
        <time>2022-05-26T14:30:21Z</time>
      </trkpt>
      <trkpt lat="48.04802" lon="6.96345">
        <ele>979.7</ele>
        <time>2022-05-26T14:30:23Z</time>
      </trkpt>
      <trkpt lat="48.04794" lon="6.96327">
        <ele>980.8</ele>
        <time>2022-05-26T14:30:25Z</time>
      </trkpt>
      <trkpt lat="48.04783" lon="6.96317">
        <ele>978.8</ele>
        <time>2022-05-26T14:30:27Z</time>
      </trkpt>
      <trkpt lat="48.04771" lon="6.9631">
        <ele>978</ele>
        <time>2022-05-26T14:30:29Z</time>
      </trkpt>
      <trkpt lat="48.04763" lon="6.96302">
        <ele>979</ele>
        <time>2022-05-26T14:30:31Z</time>
      </trkpt>
      <trkpt lat="48.04756" lon="6.9629">
        <ele>976.9</ele>
        <time>2022-05-26T14:30:33Z</time>
      </trkpt>
      <trkpt lat="48.04746" lon="6.96276">
        <ele>976</ele>
        <time>2022-05-26T14:30:35Z</time>
      </trkpt>
      <trkpt lat="48.04738" lon="6.96262">
        <ele>975.2</ele>
        <time>2022-05-26T14:30:37Z</time>
      </trkpt>
      <trkpt lat="48.0473" lon="6.96249">
        <ele>975.6</ele>
        <time>2022-05-26T14:30:39Z</time>
      </trkpt>
      <trkpt lat="48.04721" lon="6.96235">
        <ele>976.5</ele>
        <time>2022-05-26T14:30:41Z</time>
      </trkpt>
      <trkpt lat="48.0471" lon="6.96219">
        <ele>973.8</ele>
        <time>2022-05-26T14:30:43Z</time>
      </trkpt>
      <trkpt lat="48.047" lon="6.96204">
        <ele>974.2</ele>
        <time>2022-05-26T14:30:45Z</time>
      </trkpt>
      <trkpt lat="48.04692" lon="6.96192">
        <ele>974.4</ele>
        <time>2022-05-26T14:30:47Z</time>
      </trkpt>
      <trkpt lat="48.04682" lon="6.96181">
        <ele>972.7</ele>
        <time>2022-05-26T14:30:49Z</time>
      </trkpt>
      <trkpt lat="48.0467" lon="6.96173">
        <ele>971.9</ele>
        <time>2022-05-26T14:30:51Z</time>
      </trkpt>
      <trkpt lat="48.04656" lon="6.96167">
        <ele>970.5</ele>
        <time>2022-05-26T14:30:53Z</time>
      </trkpt>
      <trkpt lat="48.04642" lon="6.96161">
        <ele>968.1</ele>
        <time>2022-05-26T14:30:55Z</time>
      </trkpt>
      <trkpt lat="48.04627" lon="6.96154">
        <ele>968.9</ele>
        <time>2022-05-26T14:30:57Z</time>
      </trkpt>
      <trkpt lat="48.04612" lon="6.96148">
        <ele>969.1</ele>
        <time>2022-05-26T14:30:59Z</time>
      </trkpt>
      <trkpt lat="48.04597" lon="6.96143">
        <ele>966.7</ele>
        <time>2022-05-26T14:31:01Z</time>
      </trkpt>
      <trkpt lat="48.04582" lon="6.96137">
        <ele>965.9</ele>
        <time>2022-05-26T14:31:03Z</time>
      </trkpt>
      <trkpt lat="48.04568" lon="6.96124">
        <ele>965.6</ele>
        <time>2022-05-26T14:31:05Z</time>
      </trkpt>
      <trkpt lat="48.04557" lon="6.96105">
        <ele>967.2</ele>
        <time>2022-05-26T14:31:07Z</time>
      </trkpt>
      <trkpt lat="48.04546" lon="6.96085">
        <ele>965.6</ele>
        <time>2022-05-26T14:31:09Z</time>
      </trkpt>
      <trkpt lat="48.04537" lon="6.96065">
        <ele>964.5</ele>
        <time>2022-05-26T14:31:11Z</time>
      </trkpt>
      <trkpt lat="48.04529" lon="6.96046">
        <ele>964.8</ele>
        <time>2022-05-26T14:31:13Z</time>
      </trkpt>
      <trkpt lat="48.04522" lon="6.96027">
        <ele>965.5</ele>
        <time>2022-05-26T14:31:15Z</time>
      </trkpt>
      <trkpt lat="48.04515" lon="6.96011">
        <ele>962.5</ele>
        <time>2022-05-26T14:31:17Z</time>
      </trkpt>
      <trkpt lat="48.04506" lon="6.95997">
        <ele>964.6</ele>
        <time>2022-05-26T14:31:19Z</time>
      </trkpt>
      <trkpt lat="48.04497" lon="6.95984">
        <ele>963.6</ele>
        <time>2022-05-26T14:31:21Z</time>
      </trkpt>
      <trkpt lat="48.04491" lon="6.95971">
        <ele>963.5</ele>
        <time>2022-05-26T14:31:23Z</time>
      </trkpt>
      <trkpt lat="48.04486" lon="6.95956">
        <ele>965</ele>
        <time>2022-05-26T14:31:25Z</time>
      </trkpt>
      <trkpt lat="48.04482" lon="6.95941">
        <ele>964.6</ele>
        <time>2022-05-26T14:31:27Z</time>
      </trkpt>
      <trkpt lat="48.0448" lon="6.95925">
        <ele>963.3</ele>
        <time>2022-05-26T14:31:29Z</time>
      </trkpt>
      <trkpt lat="48.04479" lon="6.95909">
        <ele>961.7</ele>
        <time>2022-05-26T14:31:31Z</time>
      </trkpt>
      <trkpt lat="48.04479" lon="6.95894">
        <ele>964.2</ele>
        <time>2022-05-26T14:31:33Z</time>
      </trkpt>
      <trkpt lat="48.04478" lon="6.95879">
        <ele>961.7</ele>
        <time>2022-05-26T14:31:35Z</time>
      </trkpt>
      <trkpt lat="48.04472" lon="6.95866">
        <ele>964.7</ele>
        <time>2022-05-26T14:31:37Z</time>
      </trkpt>
      <trkpt lat="48.04466" lon="6.95854">
        <ele>964.1</ele>
        <time>2022-05-26T14:31:39Z</time>
      </trkpt>
      <trkpt lat="48.04457" lon="6.95846">
        <ele>962.9</ele>
        <time>2022-05-26T14:31:41Z</time>
      </trkpt>
      <trkpt lat="48.04448" lon="6.95841">
        <ele>961.1</ele>
        <time>2022-05-26T14:31:43Z</time>
      </trkpt>
      <trkpt lat="48.04439" lon="6.95835">
        <ele>960.8</ele>
        <time>2022-05-26T14:31:45Z</time>
      </trkpt>
      <trkpt lat="48.0443" lon="6.95827">
        <ele>960.4</ele>
        <time>2022-05-26T14:31:47Z</time>
      </trkpt>
      <trkpt lat="48.04421" lon="6.95818">
        <ele>959.2</ele>
        <time>2022-05-26T14:31:49Z</time>
      </trkpt>
      <trkpt lat="48.04416" lon="6.95802">
        <ele>960.2</ele>
        <time>2022-05-26T14:31:51Z</time>
      </trkpt>
      <trkpt lat="48.04419" lon="6.95787">
        <ele>959.1</ele>
        <time>2022-05-26T14:31:53Z</time>
      </trkpt>
      <trkpt lat="48.04428" lon="6.95775">
        <ele>958.2</ele>
        <time>2022-05-26T14:31:55Z</time>
      </trkpt>
      <trkpt lat="48.04439" lon="6.95768">
        <ele>957.9</ele>
        <time>2022-05-26T14:31:57Z</time>
      </trkpt>
      <trkpt lat="48.04448" lon="6.95762">
        <ele>958.6</ele>
        <time>2022-05-26T14:31:59Z</time>
      </trkpt>
      <trkpt lat="48.04459" lon="6.95756">
        <ele>956.8</ele>
        <time>2022-05-26T14:32:01Z</time>
      </trkpt>
      <trkpt lat="48.0447" lon="6.95751">
        <ele>957.3</ele>
        <time>2022-05-26T14:32:03Z</time>
      </trkpt>
      <trkpt lat="48.04482" lon="6.95748">
        <ele>957</ele>
        <time>2022-05-26T14:32:05Z</time>
      </trkpt>
      <trkpt lat="48.04491" lon="6.95743">
        <ele>958.2</ele>
        <time>2022-05-26T14:32:07Z</time>
      </trkpt>
      <trkpt lat="48.045" lon="6.95739">
        <ele>958.4</ele>
        <time>2022-05-26T14:32:09Z</time>
      </trkpt>
      <trkpt lat="48.04513" lon="6.95737">
        <ele>959.1</ele>
        <time>2022-05-26T14:32:12Z</time>
      </trkpt>
      <trkpt lat="48.04523" lon="6.95733">
        <ele>958.4</ele>
        <time>2022-05-26T14:32:15Z</time>
      </trkpt>
      <trkpt lat="48.04531" lon="6.95726">
        <ele>957</ele>
        <time>2022-05-26T14:32:17Z</time>
      </trkpt>
      <trkpt lat="48.04538" lon="6.95717">
        <ele>958.9</ele>
        <time>2022-05-26T14:32:19Z</time>
      </trkpt>
      <trkpt lat="48.04546" lon="6.95709">
        <ele>960.6</ele>
        <time>2022-05-26T14:32:21Z</time>
      </trkpt>
      <trkpt lat="48.04554" lon="6.95703">
        <ele>960.2</ele>
        <time>2022-05-26T14:32:23Z</time>
      </trkpt>
      <trkpt lat="48.04564" lon="6.957">
        <ele>960.7</ele>
        <time>2022-05-26T14:32:25Z</time>
      </trkpt>
      <trkpt lat="48.04577" lon="6.95695">
        <ele>957.6</ele>
        <time>2022-05-26T14:32:28Z</time>
      </trkpt>
      <trkpt lat="48.04586" lon="6.95689">
        <ele>959.3</ele>
        <time>2022-05-26T14:32:30Z</time>
      </trkpt>
      <trkpt lat="48.04593" lon="6.95681">
        <ele>959.1</ele>
        <time>2022-05-26T14:32:32Z</time>
      </trkpt>
      <trkpt lat="48.04603" lon="6.9567">
        <ele>960.1</ele>
        <time>2022-05-26T14:32:35Z</time>
      </trkpt>
      <trkpt lat="48.04611" lon="6.95657">
        <ele>961.2</ele>
        <time>2022-05-26T14:32:38Z</time>
      </trkpt>
      <trkpt lat="48.04618" lon="6.95642">
        <ele>960</ele>
        <time>2022-05-26T14:32:41Z</time>
      </trkpt>
      <trkpt lat="48.04621" lon="6.95624">
        <ele>959.8</ele>
        <time>2022-05-26T14:32:44Z</time>
      </trkpt>
      <trkpt lat="48.04621" lon="6.95609">
        <ele>958.8</ele>
        <time>2022-05-26T14:32:46Z</time>
      </trkpt>
      <trkpt lat="48.04622" lon="6.95594">
        <ele>958.7</ele>
        <time>2022-05-26T14:32:48Z</time>
      </trkpt>
      <trkpt lat="48.04623" lon="6.95581">
        <ele>958.5</ele>
        <time>2022-05-26T14:32:50Z</time>
      </trkpt>
      <trkpt lat="48.04623" lon="6.95562">
        <ele>957.8</ele>
        <time>2022-05-26T14:32:53Z</time>
      </trkpt>
      <trkpt lat="48.04616" lon="6.95544">
        <ele>956.7</ele>
        <time>2022-05-26T14:32:56Z</time>
      </trkpt>
      <trkpt lat="48.04609" lon="6.95529">
        <ele>956.7</ele>
        <time>2022-05-26T14:32:58Z</time>
      </trkpt>
      <trkpt lat="48.046" lon="6.95517">
        <ele>955.6</ele>
        <time>2022-05-26T14:33:00Z</time>
      </trkpt>
      <trkpt lat="48.04592" lon="6.95507">
        <ele>954.6</ele>
        <time>2022-05-26T14:33:02Z</time>
      </trkpt>
      <trkpt lat="48.04584" lon="6.95495">
        <ele>954.9</ele>
        <time>2022-05-26T14:33:04Z</time>
      </trkpt>
      <trkpt lat="48.0458" lon="6.95479">
        <ele>950.7</ele>
        <time>2022-05-26T14:33:06Z</time>
      </trkpt>
      <trkpt lat="48.04584" lon="6.95463">
        <ele>953.3</ele>
        <time>2022-05-26T14:33:08Z</time>
      </trkpt>
      <trkpt lat="48.04589" lon="6.95449">
        <ele>954.2</ele>
        <time>2022-05-26T14:33:10Z</time>
      </trkpt>
      <trkpt lat="48.04594" lon="6.95434">
        <ele>955.2</ele>
        <time>2022-05-26T14:33:12Z</time>
      </trkpt>
      <trkpt lat="48.04601" lon="6.95421">
        <ele>955.2</ele>
        <time>2022-05-26T14:33:14Z</time>
      </trkpt>
      <trkpt lat="48.04605" lon="6.95405">
        <ele>953.7</ele>
        <time>2022-05-26T14:33:16Z</time>
      </trkpt>
      <trkpt lat="48.04611" lon="6.9539">
        <ele>952.6</ele>
        <time>2022-05-26T14:33:18Z</time>
      </trkpt>
      <trkpt lat="48.04614" lon="6.95373">
        <ele>951.6</ele>
        <time>2022-05-26T14:33:20Z</time>
      </trkpt>
      <trkpt lat="48.04617" lon="6.95356">
        <ele>953.3</ele>
        <time>2022-05-26T14:33:22Z</time>
      </trkpt>
      <trkpt lat="48.04617" lon="6.95339">
        <ele>952.7</ele>
        <time>2022-05-26T14:33:24Z</time>
      </trkpt>
      <trkpt lat="48.04619" lon="6.95321">
        <ele>951.2</ele>
        <time>2022-05-26T14:33:26Z</time>
      </trkpt>
      <trkpt lat="48.04623" lon="6.95304">
        <ele>951.1</ele>
        <time>2022-05-26T14:33:28Z</time>
      </trkpt>
      <trkpt lat="48.04626" lon="6.95285">
        <ele>951.8</ele>
        <time>2022-05-26T14:33:30Z</time>
      </trkpt>
      <trkpt lat="48.0463" lon="6.95266">
        <ele>951.6</ele>
        <time>2022-05-26T14:33:32Z</time>
      </trkpt>
      <trkpt lat="48.04633" lon="6.95247">
        <ele>949.5</ele>
        <time>2022-05-26T14:33:34Z</time>
      </trkpt>
      <trkpt lat="48.04636" lon="6.95228">
        <ele>948.5</ele>
        <time>2022-05-26T14:33:36Z</time>
      </trkpt>
      <trkpt lat="48.04641" lon="6.95211">
        <ele>947.9</ele>
        <time>2022-05-26T14:33:38Z</time>
      </trkpt>
      <trkpt lat="48.04648" lon="6.95196">
        <ele>947.8</ele>
        <time>2022-05-26T14:33:40Z</time>
      </trkpt>
      <trkpt lat="48.04655" lon="6.95182">
        <ele>948.3</ele>
        <time>2022-05-26T14:33:42Z</time>
      </trkpt>
      <trkpt lat="48.04661" lon="6.95168">
        <ele>950.6</ele>
        <time>2022-05-26T14:33:44Z</time>
      </trkpt>
      <trkpt lat="48.04666" lon="6.95155">
        <ele>950.7</ele>
        <time>2022-05-26T14:33:46Z</time>
      </trkpt>
      <trkpt lat="48.04672" lon="6.95144">
        <ele>948.4</ele>
        <time>2022-05-26T14:33:48Z</time>
      </trkpt>
      <trkpt lat="48.04676" lon="6.9513">
        <ele>948.1</ele>
        <time>2022-05-26T14:33:50Z</time>
      </trkpt>
      <trkpt lat="48.04679" lon="6.95117">
        <ele>949.9</ele>
        <time>2022-05-26T14:33:52Z</time>
      </trkpt>
      <trkpt lat="48.04684" lon="6.95104">
        <ele>949.7</ele>
        <time>2022-05-26T14:33:54Z</time>
      </trkpt>
      <trkpt lat="48.04692" lon="6.95094">
        <ele>948</ele>
        <time>2022-05-26T14:33:56Z</time>
      </trkpt>
      <trkpt lat="48.047" lon="6.95088">
        <ele>950.3</ele>
        <time>2022-05-26T14:33:58Z</time>
      </trkpt>
      <trkpt lat="48.04711" lon="6.95082">
        <ele>950.7</ele>
        <time>2022-05-26T14:34:01Z</time>
      </trkpt>
      <trkpt lat="48.04722" lon="6.95073">
        <ele>949.4</ele>
        <time>2022-05-26T14:34:04Z</time>
      </trkpt>
      <trkpt lat="48.0473" lon="6.95057">
        <ele>950.1</ele>
        <time>2022-05-26T14:34:07Z</time>
      </trkpt>
      <trkpt lat="48.04735" lon="6.95045">
        <ele>949.5</ele>
        <time>2022-05-26T14:34:09Z</time>
      </trkpt>
      <trkpt lat="48.04739" lon="6.95033">
        <ele>950.6</ele>
        <time>2022-05-26T14:34:11Z</time>
      </trkpt>
      <trkpt lat="48.04745" lon="6.95022">
        <ele>950.5</ele>
        <time>2022-05-26T14:34:13Z</time>
      </trkpt>
      <trkpt lat="48.04754" lon="6.95014">
        <ele>949.2</ele>
        <time>2022-05-26T14:34:15Z</time>
      </trkpt>
      <trkpt lat="48.04763" lon="6.95009">
        <ele>950.1</ele>
        <time>2022-05-26T14:34:17Z</time>
      </trkpt>
      <trkpt lat="48.04773" lon="6.95004">
        <ele>949.3</ele>
        <time>2022-05-26T14:34:19Z</time>
      </trkpt>
      <trkpt lat="48.04781" lon="6.95001">
        <ele>949.2</ele>
        <time>2022-05-26T14:34:21Z</time>
      </trkpt>
      <trkpt lat="48.0479" lon="6.94997">
        <ele>950.1</ele>
        <time>2022-05-26T14:34:23Z</time>
      </trkpt>
      <trkpt lat="48.04799" lon="6.94994">
        <ele>950.5</ele>
        <time>2022-05-26T14:34:25Z</time>
      </trkpt>
      <trkpt lat="48.04812" lon="6.94987">
        <ele>950.5</ele>
        <time>2022-05-26T14:34:28Z</time>
      </trkpt>
      <trkpt lat="48.0482" lon="6.94982">
        <ele>949.1</ele>
        <time>2022-05-26T14:34:30Z</time>
      </trkpt>
      <trkpt lat="48.04829" lon="6.94976">
        <ele>949.9</ele>
        <time>2022-05-26T14:34:32Z</time>
      </trkpt>
      <trkpt lat="48.04836" lon="6.94968">
        <ele>949.9</ele>
        <time>2022-05-26T14:34:34Z</time>
      </trkpt>
      <trkpt lat="48.04844" lon="6.9496">
        <ele>950.6</ele>
        <time>2022-05-26T14:34:36Z</time>
      </trkpt>
      <trkpt lat="48.04854" lon="6.94949">
        <ele>950.3</ele>
        <time>2022-05-26T14:34:39Z</time>
      </trkpt>
      <trkpt lat="48.04862" lon="6.94944">
        <ele>949.6</ele>
        <time>2022-05-26T14:34:45Z</time>
      </trkpt>
      <trkpt lat="48.04863" lon="6.94943">
        <ele>949.9</ele>
        <time>2022-05-26T14:35:06Z</time>
      </trkpt>
      <trkpt lat="48.04863" lon="6.94942">
        <ele>949.7</ele>
        <time>2022-05-26T14:35:09Z</time>
      </trkpt>
      <trkpt lat="48.04863" lon="6.94941">
        <ele>949.3</ele>
        <time>2022-05-26T14:35:30Z</time>
      </trkpt>
      <trkpt lat="48.04862" lon="6.9494">
        <ele>949.2</ele>
        <time>2022-05-26T14:35:32Z</time>
      </trkpt>
      <trkpt lat="48.04862" lon="6.94939">
        <ele>949.3</ele>
        <time>2022-05-26T14:35:44Z</time>
      </trkpt>
      <trkpt lat="48.04861" lon="6.94938">
        <ele>950.2</ele>
        <time>2022-05-26T14:36:02Z</time>
      </trkpt>
      <trkpt lat="48.04861" lon="6.94936">
        <ele>949.6</ele>
        <time>2022-05-26T14:36:19Z</time>
      </trkpt>
      <trkpt lat="48.0487" lon="6.94924">
        <ele>948.9</ele>
        <time>2022-05-26T14:36:25Z</time>
      </trkpt>
      <trkpt lat="48.04878" lon="6.94914">
        <ele>949.3</ele>
        <time>2022-05-26T14:36:28Z</time>
      </trkpt>
      <trkpt lat="48.04888" lon="6.94904">
        <ele>949.6</ele>
        <time>2022-05-26T14:36:31Z</time>
      </trkpt>
      <trkpt lat="48.04899" lon="6.94892">
        <ele>945.8</ele>
        <time>2022-05-26T14:36:34Z</time>
      </trkpt>
      <trkpt lat="48.04909" lon="6.94882">
        <ele>947.5</ele>
        <time>2022-05-26T14:36:36Z</time>
      </trkpt>
      <trkpt lat="48.04919" lon="6.94874">
        <ele>948.2</ele>
        <time>2022-05-26T14:36:38Z</time>
      </trkpt>
      <trkpt lat="48.0493" lon="6.94866">
        <ele>948.2</ele>
        <time>2022-05-26T14:36:40Z</time>
      </trkpt>
      <trkpt lat="48.0494" lon="6.9486">
        <ele>947.7</ele>
        <time>2022-05-26T14:36:42Z</time>
      </trkpt>
      <trkpt lat="48.04952" lon="6.94855">
        <ele>946.6</ele>
        <time>2022-05-26T14:36:44Z</time>
      </trkpt>
      <trkpt lat="48.04962" lon="6.94849">
        <ele>946.6</ele>
        <time>2022-05-26T14:36:46Z</time>
      </trkpt>
      <trkpt lat="48.04972" lon="6.94844">
        <ele>946.7</ele>
        <time>2022-05-26T14:36:48Z</time>
      </trkpt>
      <trkpt lat="48.04982" lon="6.94836">
        <ele>944.4</ele>
        <time>2022-05-26T14:36:50Z</time>
      </trkpt>
      <trkpt lat="48.04994" lon="6.94824">
        <ele>943</ele>
        <time>2022-05-26T14:36:52Z</time>
      </trkpt>
      <trkpt lat="48.05006" lon="6.94809">
        <ele>942.4</ele>
        <time>2022-05-26T14:36:54Z</time>
      </trkpt>
      <trkpt lat="48.05017" lon="6.94795">
        <ele>942.1</ele>
        <time>2022-05-26T14:36:56Z</time>
      </trkpt>
      <trkpt lat="48.05026" lon="6.94778">
        <ele>942</ele>
        <time>2022-05-26T14:36:58Z</time>
      </trkpt>
      <trkpt lat="48.05034" lon="6.94763">
        <ele>940.5</ele>
        <time>2022-05-26T14:37:00Z</time>
      </trkpt>
      <trkpt lat="48.05041" lon="6.94748">
        <ele>943.5</ele>
        <time>2022-05-26T14:37:02Z</time>
      </trkpt>
      <trkpt lat="48.05049" lon="6.94734">
        <ele>943.4</ele>
        <time>2022-05-26T14:37:04Z</time>
      </trkpt>
      <trkpt lat="48.05057" lon="6.94719">
        <ele>941.4</ele>
        <time>2022-05-26T14:37:06Z</time>
      </trkpt>
      <trkpt lat="48.05065" lon="6.94701">
        <ele>941.1</ele>
        <time>2022-05-26T14:37:08Z</time>
      </trkpt>
      <trkpt lat="48.05074" lon="6.94685">
        <ele>940.1</ele>
        <time>2022-05-26T14:37:10Z</time>
      </trkpt>
      <trkpt lat="48.05082" lon="6.94672">
        <ele>938.4</ele>
        <time>2022-05-26T14:37:12Z</time>
      </trkpt>
      <trkpt lat="48.05089" lon="6.94659">
        <ele>938.2</ele>
        <time>2022-05-26T14:37:14Z</time>
      </trkpt>
      <trkpt lat="48.05094" lon="6.94648">
        <ele>939.3</ele>
        <time>2022-05-26T14:37:16Z</time>
      </trkpt>
      <trkpt lat="48.05096" lon="6.9464">
        <ele>938.7</ele>
        <time>2022-05-26T14:37:20Z</time>
      </trkpt>
      <trkpt lat="48.05095" lon="6.94639">
        <ele>938.6</ele>
        <time>2022-05-26T14:37:37Z</time>
      </trkpt>
      <trkpt lat="48.05095" lon="6.94638">
        <ele>939.1</ele>
        <time>2022-05-26T14:38:28Z</time>
      </trkpt>
      <trkpt lat="48.05094" lon="6.94629">
        <ele>938.9</ele>
        <time>2022-05-26T14:38:36Z</time>
      </trkpt>
      <trkpt lat="48.05094" lon="6.9463">
        <ele>938.7</ele>
        <time>2022-05-26T14:39:04Z</time>
      </trkpt>
      <trkpt lat="48.05094" lon="6.94631">
        <ele>938.5</ele>
        <time>2022-05-26T14:39:06Z</time>
      </trkpt>
      <trkpt lat="48.05095" lon="6.94631">
        <ele>938.7</ele>
        <time>2022-05-26T14:39:11Z</time>
      </trkpt>
      <trkpt lat="48.05101" lon="6.9463">
        <ele>938.5</ele>
        <time>2022-05-26T14:39:21Z</time>
      </trkpt>
      <trkpt lat="48.05102" lon="6.9463">
        <ele>938.2</ele>
        <time>2022-05-26T14:39:32Z</time>
      </trkpt>
      <trkpt lat="48.05104" lon="6.9463">
        <ele>938.1</ele>
        <time>2022-05-26T14:39:40Z</time>
      </trkpt>
      <trkpt lat="48.05105" lon="6.9463">
        <ele>938.2</ele>
        <time>2022-05-26T14:39:54Z</time>
      </trkpt>
      <trkpt lat="48.05107" lon="6.94645">
        <ele>938</ele>
        <time>2022-05-26T14:40:04Z</time>
      </trkpt>
      <trkpt lat="48.05109" lon="6.94665">
        <ele>935</ele>
        <time>2022-05-26T14:40:07Z</time>
      </trkpt>
      <trkpt lat="48.0511" lon="6.94682">
        <ele>934.4</ele>
        <time>2022-05-26T14:40:09Z</time>
      </trkpt>
      <trkpt lat="48.05118" lon="6.94697">
        <ele>932.7</ele>
        <time>2022-05-26T14:40:12Z</time>
      </trkpt>
      <trkpt lat="48.05128" lon="6.94697">
        <ele>930.8</ele>
        <time>2022-05-26T14:40:14Z</time>
      </trkpt>
      <trkpt lat="48.05138" lon="6.94691">
        <ele>930.1</ele>
        <time>2022-05-26T14:40:16Z</time>
      </trkpt>
      <trkpt lat="48.05147" lon="6.94684">
        <ele>929.9</ele>
        <time>2022-05-26T14:40:18Z</time>
      </trkpt>
      <trkpt lat="48.05157" lon="6.94676">
        <ele>928.9</ele>
        <time>2022-05-26T14:40:20Z</time>
      </trkpt>
      <trkpt lat="48.05167" lon="6.94667">
        <ele>929</ele>
        <time>2022-05-26T14:40:22Z</time>
      </trkpt>
      <trkpt lat="48.05177" lon="6.94659">
        <ele>928</ele>
        <time>2022-05-26T14:40:24Z</time>
      </trkpt>
      <trkpt lat="48.05187" lon="6.94648">
        <ele>924</ele>
        <time>2022-05-26T14:40:26Z</time>
      </trkpt>
      <trkpt lat="48.05197" lon="6.94634">
        <ele>921.6</ele>
        <time>2022-05-26T14:40:28Z</time>
      </trkpt>
      <trkpt lat="48.05205" lon="6.94618">
        <ele>922.7</ele>
        <time>2022-05-26T14:40:30Z</time>
      </trkpt>
      <trkpt lat="48.05214" lon="6.94605">
        <ele>921</ele>
        <time>2022-05-26T14:40:32Z</time>
      </trkpt>
      <trkpt lat="48.05224" lon="6.94596">
        <ele>920</ele>
        <time>2022-05-26T14:40:34Z</time>
      </trkpt>
      <trkpt lat="48.0523" lon="6.94585">
        <ele>920.4</ele>
        <time>2022-05-26T14:40:36Z</time>
      </trkpt>
      <trkpt lat="48.05233" lon="6.94572">
        <ele>919.8</ele>
        <time>2022-05-26T14:40:38Z</time>
      </trkpt>
      <trkpt lat="48.05235" lon="6.94556">
        <ele>918.3</ele>
        <time>2022-05-26T14:40:40Z</time>
      </trkpt>
      <trkpt lat="48.05232" lon="6.9454">
        <ele>918.3</ele>
        <time>2022-05-26T14:40:42Z</time>
      </trkpt>
      <trkpt lat="48.05228" lon="6.94526">
        <ele>917.6</ele>
        <time>2022-05-26T14:40:44Z</time>
      </trkpt>
      <trkpt lat="48.05227" lon="6.94512">
        <ele>919.2</ele>
        <time>2022-05-26T14:40:46Z</time>
      </trkpt>
      <trkpt lat="48.05232" lon="6.94497">
        <ele>919.9</ele>
        <time>2022-05-26T14:40:49Z</time>
      </trkpt>
      <trkpt lat="48.05242" lon="6.94502">
        <ele>918.8</ele>
        <time>2022-05-26T14:40:54Z</time>
      </trkpt>
      <trkpt lat="48.0525" lon="6.94516">
        <ele>918.3</ele>
        <time>2022-05-26T14:40:57Z</time>
      </trkpt>
      <trkpt lat="48.05254" lon="6.94531">
        <ele>918.7</ele>
        <time>2022-05-26T14:41:00Z</time>
      </trkpt>
      <trkpt lat="48.05259" lon="6.94544">
        <ele>918.4</ele>
        <time>2022-05-26T14:41:04Z</time>
      </trkpt>
      <trkpt lat="48.05261" lon="6.94555">
        <ele>918.3</ele>
        <time>2022-05-26T14:41:13Z</time>
      </trkpt>
      <trkpt lat="48.05261" lon="6.94556">
        <ele>918.3</ele>
        <time>2022-05-26T14:41:16Z</time>
      </trkpt>
      <trkpt lat="48.05263" lon="6.94569">
        <ele>919</ele>
        <time>2022-05-26T14:41:21Z</time>
      </trkpt>
      <trkpt lat="48.0527" lon="6.9458">
        <ele>919.4</ele>
        <time>2022-05-26T14:41:24Z</time>
      </trkpt>
      <trkpt lat="48.05278" lon="6.94591">
        <ele>920</ele>
        <time>2022-05-26T14:41:28Z</time>
      </trkpt>
      <trkpt lat="48.05286" lon="6.94601">
        <ele>920.5</ele>
        <time>2022-05-26T14:41:34Z</time>
      </trkpt>
      <trkpt lat="48.05286" lon="6.94618">
        <ele>920.1</ele>
        <time>2022-05-26T14:41:43Z</time>
      </trkpt>
      <trkpt lat="48.05291" lon="6.94631">
        <ele>920.5</ele>
        <time>2022-05-26T14:41:46Z</time>
      </trkpt>
      <trkpt lat="48.05296" lon="6.94645">
        <ele>920</ele>
        <time>2022-05-26T14:41:49Z</time>
      </trkpt>
      <trkpt lat="48.053" lon="6.94659">
        <ele>919.9</ele>
        <time>2022-05-26T14:41:52Z</time>
      </trkpt>
      <trkpt lat="48.05302" lon="6.94674">
        <ele>919.6</ele>
        <time>2022-05-26T14:41:59Z</time>
      </trkpt>
      <trkpt lat="48.05304" lon="6.94687">
        <ele>919.7</ele>
        <time>2022-05-26T14:42:04Z</time>
      </trkpt>
      <trkpt lat="48.05304" lon="6.94702">
        <ele>919.8</ele>
        <time>2022-05-26T14:42:07Z</time>
      </trkpt>
      <trkpt lat="48.05304" lon="6.94718">
        <ele>920.4</ele>
        <time>2022-05-26T14:42:10Z</time>
      </trkpt>
      <trkpt lat="48.05302" lon="6.94733">
        <ele>920.6</ele>
        <time>2022-05-26T14:42:13Z</time>
      </trkpt>
      <trkpt lat="48.05301" lon="6.94748">
        <ele>920.7</ele>
        <time>2022-05-26T14:42:16Z</time>
      </trkpt>
      <trkpt lat="48.05301" lon="6.94764">
        <ele>920.8</ele>
        <time>2022-05-26T14:42:19Z</time>
      </trkpt>
      <trkpt lat="48.053" lon="6.9478">
        <ele>920.3</ele>
        <time>2022-05-26T14:42:22Z</time>
      </trkpt>
      <trkpt lat="48.05304" lon="6.94793">
        <ele>922.1</ele>
        <time>2022-05-26T14:42:25Z</time>
      </trkpt>
      <trkpt lat="48.05315" lon="6.94798">
        <ele>922</ele>
        <time>2022-05-26T14:42:28Z</time>
      </trkpt>
      <trkpt lat="48.05324" lon="6.94791">
        <ele>921.6</ele>
        <time>2022-05-26T14:42:32Z</time>
      </trkpt>
      <trkpt lat="48.05324" lon="6.94787">
        <ele>921.4</ele>
        <time>2022-05-26T14:42:43Z</time>
      </trkpt>
      <trkpt lat="48.05316" lon="6.94794">
        <ele>921.6</ele>
        <time>2022-05-26T14:42:50Z</time>
      </trkpt>
      <trkpt lat="48.05313" lon="6.94807">
        <ele>923.3</ele>
        <time>2022-05-26T14:42:55Z</time>
      </trkpt>
      <trkpt lat="48.05323" lon="6.94812">
        <ele>924.1</ele>
        <time>2022-05-26T14:43:00Z</time>
      </trkpt>
      <trkpt lat="48.05333" lon="6.94812">
        <ele>926.2</ele>
        <time>2022-05-26T14:43:05Z</time>
      </trkpt>
      <trkpt lat="48.05343" lon="6.9481">
        <ele>927.7</ele>
        <time>2022-05-26T14:43:11Z</time>
      </trkpt>
      <trkpt lat="48.05352" lon="6.94807">
        <ele>928.1</ele>
        <time>2022-05-26T14:43:16Z</time>
      </trkpt>
      <trkpt lat="48.05363" lon="6.94804">
        <ele>929.7</ele>
        <time>2022-05-26T14:43:22Z</time>
      </trkpt>
      <trkpt lat="48.05372" lon="6.94802">
        <ele>930.5</ele>
        <time>2022-05-26T14:43:27Z</time>
      </trkpt>
      <trkpt lat="48.05381" lon="6.948">
        <ele>930.7</ele>
        <time>2022-05-26T14:43:31Z</time>
      </trkpt>
      <trkpt lat="48.05391" lon="6.94799">
        <ele>932.1</ele>
        <time>2022-05-26T14:43:37Z</time>
      </trkpt>
      <trkpt lat="48.05401" lon="6.94798">
        <ele>932.9</ele>
        <time>2022-05-26T14:43:42Z</time>
      </trkpt>
      <trkpt lat="48.05412" lon="6.94796">
        <ele>933.5</ele>
        <time>2022-05-26T14:43:46Z</time>
      </trkpt>
      <trkpt lat="48.05421" lon="6.94793">
        <ele>934.4</ele>
        <time>2022-05-26T14:43:50Z</time>
      </trkpt>
      <trkpt lat="48.05432" lon="6.94789">
        <ele>935.8</ele>
        <time>2022-05-26T14:43:55Z</time>
      </trkpt>
      <trkpt lat="48.05442" lon="6.94784">
        <ele>935.9</ele>
        <time>2022-05-26T14:44:00Z</time>
      </trkpt>
      <trkpt lat="48.0545" lon="6.94777">
        <ele>936.7</ele>
        <time>2022-05-26T14:44:04Z</time>
      </trkpt>
      <trkpt lat="48.05459" lon="6.9477">
        <ele>937.8</ele>
        <time>2022-05-26T14:44:07Z</time>
      </trkpt>
      <trkpt lat="48.05466" lon="6.94761">
        <ele>938.5</ele>
        <time>2022-05-26T14:44:11Z</time>
      </trkpt>
      <trkpt lat="48.05475" lon="6.9475">
        <ele>938.1</ele>
        <time>2022-05-26T14:44:15Z</time>
      </trkpt>
      <trkpt lat="48.05485" lon="6.94741">
        <ele>938.1</ele>
        <time>2022-05-26T14:44:19Z</time>
      </trkpt>
      <trkpt lat="48.05493" lon="6.9473">
        <ele>939</ele>
        <time>2022-05-26T14:44:23Z</time>
      </trkpt>
      <trkpt lat="48.05502" lon="6.94718">
        <ele>939.4</ele>
        <time>2022-05-26T14:44:27Z</time>
      </trkpt>
      <trkpt lat="48.05509" lon="6.94709">
        <ele>940.2</ele>
        <time>2022-05-26T14:44:30Z</time>
      </trkpt>
      <trkpt lat="48.05517" lon="6.94698">
        <ele>941.2</ele>
        <time>2022-05-26T14:44:34Z</time>
      </trkpt>
      <trkpt lat="48.05525" lon="6.94688">
        <ele>939.6</ele>
        <time>2022-05-26T14:44:37Z</time>
      </trkpt>
      <trkpt lat="48.05531" lon="6.94677">
        <ele>940.9</ele>
        <time>2022-05-26T14:44:40Z</time>
      </trkpt>
      <trkpt lat="48.05541" lon="6.94666">
        <ele>942.5</ele>
        <time>2022-05-26T14:44:44Z</time>
      </trkpt>
      <trkpt lat="48.05549" lon="6.94658">
        <ele>942.7</ele>
        <time>2022-05-26T14:44:47Z</time>
      </trkpt>
      <trkpt lat="48.05559" lon="6.9465">
        <ele>942.9</ele>
        <time>2022-05-26T14:44:51Z</time>
      </trkpt>
      <trkpt lat="48.05567" lon="6.94641">
        <ele>943.8</ele>
        <time>2022-05-26T14:44:55Z</time>
      </trkpt>
      <trkpt lat="48.05578" lon="6.94632">
        <ele>944.1</ele>
        <time>2022-05-26T14:44:59Z</time>
      </trkpt>
      <trkpt lat="48.05588" lon="6.94621">
        <ele>944</ele>
        <time>2022-05-26T14:45:02Z</time>
      </trkpt>
      <trkpt lat="48.05596" lon="6.94613">
        <ele>943.7</ele>
        <time>2022-05-26T14:45:04Z</time>
      </trkpt>
      <trkpt lat="48.05603" lon="6.94603">
        <ele>943.9</ele>
        <time>2022-05-26T14:45:06Z</time>
      </trkpt>
      <trkpt lat="48.05611" lon="6.94589">
        <ele>944.7</ele>
        <time>2022-05-26T14:45:09Z</time>
      </trkpt>
      <trkpt lat="48.0562" lon="6.94577">
        <ele>944.8</ele>
        <time>2022-05-26T14:45:12Z</time>
      </trkpt>
      <trkpt lat="48.05627" lon="6.94561">
        <ele>944.1</ele>
        <time>2022-05-26T14:45:15Z</time>
      </trkpt>
      <trkpt lat="48.05635" lon="6.94545">
        <ele>943.5</ele>
        <time>2022-05-26T14:45:18Z</time>
      </trkpt>
      <trkpt lat="48.05641" lon="6.94532">
        <ele>943.5</ele>
        <time>2022-05-26T14:45:20Z</time>
      </trkpt>
      <trkpt lat="48.05647" lon="6.94519">
        <ele>940.6</ele>
        <time>2022-05-26T14:45:22Z</time>
      </trkpt>
      <trkpt lat="48.05653" lon="6.94505">
        <ele>942</ele>
        <time>2022-05-26T14:45:24Z</time>
      </trkpt>
      <trkpt lat="48.0566" lon="6.9449">
        <ele>941</ele>
        <time>2022-05-26T14:45:26Z</time>
      </trkpt>
      <trkpt lat="48.05666" lon="6.94473">
        <ele>941.2</ele>
        <time>2022-05-26T14:45:28Z</time>
      </trkpt>
      <trkpt lat="48.05668" lon="6.94457">
        <ele>939.9</ele>
        <time>2022-05-26T14:45:30Z</time>
      </trkpt>
      <trkpt lat="48.05666" lon="6.9444">
        <ele>940.5</ele>
        <time>2022-05-26T14:45:32Z</time>
      </trkpt>
      <trkpt lat="48.05665" lon="6.94425">
        <ele>941.2</ele>
        <time>2022-05-26T14:45:34Z</time>
      </trkpt>
      <trkpt lat="48.05668" lon="6.94406">
        <ele>941.1</ele>
        <time>2022-05-26T14:45:37Z</time>
      </trkpt>
      <trkpt lat="48.0567" lon="6.94393">
        <ele>941.4</ele>
        <time>2022-05-26T14:45:39Z</time>
      </trkpt>
      <trkpt lat="48.05673" lon="6.94378">
        <ele>941.8</ele>
        <time>2022-05-26T14:45:41Z</time>
      </trkpt>
      <trkpt lat="48.05675" lon="6.94364">
        <ele>940.8</ele>
        <time>2022-05-26T14:45:43Z</time>
      </trkpt>
      <trkpt lat="48.05677" lon="6.94345">
        <ele>941.2</ele>
        <time>2022-05-26T14:45:46Z</time>
      </trkpt>
      <trkpt lat="48.05682" lon="6.94329">
        <ele>942</ele>
        <time>2022-05-26T14:45:49Z</time>
      </trkpt>
      <trkpt lat="48.05685" lon="6.94315">
        <ele>941.7</ele>
        <time>2022-05-26T14:45:52Z</time>
      </trkpt>
      <trkpt lat="48.05688" lon="6.94302">
        <ele>941.8</ele>
        <time>2022-05-26T14:45:55Z</time>
      </trkpt>
      <trkpt lat="48.05686" lon="6.94287">
        <ele>942.1</ele>
        <time>2022-05-26T14:45:58Z</time>
      </trkpt>
      <trkpt lat="48.05678" lon="6.94274">
        <ele>942.8</ele>
        <time>2022-05-26T14:46:02Z</time>
      </trkpt>
      <trkpt lat="48.0567" lon="6.94267">
        <ele>942.9</ele>
        <time>2022-05-26T14:46:05Z</time>
      </trkpt>
      <trkpt lat="48.05662" lon="6.9426">
        <ele>944.3</ele>
        <time>2022-05-26T14:46:08Z</time>
      </trkpt>
      <trkpt lat="48.05651" lon="6.94254">
        <ele>943.2</ele>
        <time>2022-05-26T14:46:12Z</time>
      </trkpt>
      <trkpt lat="48.0564" lon="6.94247">
        <ele>945.5</ele>
        <time>2022-05-26T14:46:16Z</time>
      </trkpt>
      <trkpt lat="48.0563" lon="6.94238">
        <ele>945.2</ele>
        <time>2022-05-26T14:46:20Z</time>
      </trkpt>
      <trkpt lat="48.05621" lon="6.94233">
        <ele>946.9</ele>
        <time>2022-05-26T14:46:24Z</time>
      </trkpt>
      <trkpt lat="48.05611" lon="6.9423">
        <ele>947.6</ele>
        <time>2022-05-26T14:46:29Z</time>
      </trkpt>
      <trkpt lat="48.05602" lon="6.94223">
        <ele>948.1</ele>
        <time>2022-05-26T14:46:33Z</time>
      </trkpt>
      <trkpt lat="48.05592" lon="6.94216">
        <ele>947.3</ele>
        <time>2022-05-26T14:46:37Z</time>
      </trkpt>
      <trkpt lat="48.05584" lon="6.94209">
        <ele>946.8</ele>
        <time>2022-05-26T14:46:40Z</time>
      </trkpt>
      <trkpt lat="48.05575" lon="6.94201">
        <ele>946.5</ele>
        <time>2022-05-26T14:46:43Z</time>
      </trkpt>
      <trkpt lat="48.05566" lon="6.94195">
        <ele>947</ele>
        <time>2022-05-26T14:46:46Z</time>
      </trkpt>
      <trkpt lat="48.05556" lon="6.94188">
        <ele>946.4</ele>
        <time>2022-05-26T14:46:49Z</time>
      </trkpt>
      <trkpt lat="48.05545" lon="6.94181">
        <ele>945.2</ele>
        <time>2022-05-26T14:46:52Z</time>
      </trkpt>
      <trkpt lat="48.05536" lon="6.94175">
        <ele>945.3</ele>
        <time>2022-05-26T14:46:54Z</time>
      </trkpt>
      <trkpt lat="48.05527" lon="6.94168">
        <ele>946.1</ele>
        <time>2022-05-26T14:46:56Z</time>
      </trkpt>
      <trkpt lat="48.05519" lon="6.94162">
        <ele>946.8</ele>
        <time>2022-05-26T14:46:58Z</time>
      </trkpt>
      <trkpt lat="48.05509" lon="6.94158">
        <ele>944</ele>
        <time>2022-05-26T14:47:01Z</time>
      </trkpt>
      <trkpt lat="48.05497" lon="6.94155">
        <ele>946.1</ele>
        <time>2022-05-26T14:47:04Z</time>
      </trkpt>
      <trkpt lat="48.05486" lon="6.9415">
        <ele>944.3</ele>
        <time>2022-05-26T14:47:07Z</time>
      </trkpt>
      <trkpt lat="48.05474" lon="6.94143">
        <ele>943.5</ele>
        <time>2022-05-26T14:47:10Z</time>
      </trkpt>
      <trkpt lat="48.05464" lon="6.94135">
        <ele>944</ele>
        <time>2022-05-26T14:47:13Z</time>
      </trkpt>
      <trkpt lat="48.05455" lon="6.94128">
        <ele>945.6</ele>
        <time>2022-05-26T14:47:16Z</time>
      </trkpt>
      <trkpt lat="48.05445" lon="6.94121">
        <ele>944.4</ele>
        <time>2022-05-26T14:47:19Z</time>
      </trkpt>
      <trkpt lat="48.05436" lon="6.94114">
        <ele>944.2</ele>
        <time>2022-05-26T14:47:21Z</time>
      </trkpt>
      <trkpt lat="48.05428" lon="6.94107">
        <ele>944.1</ele>
        <time>2022-05-26T14:47:23Z</time>
      </trkpt>
      <trkpt lat="48.05418" lon="6.94098">
        <ele>943.3</ele>
        <time>2022-05-26T14:47:25Z</time>
      </trkpt>
      <trkpt lat="48.05406" lon="6.94087">
        <ele>941.3</ele>
        <time>2022-05-26T14:47:27Z</time>
      </trkpt>
      <trkpt lat="48.05397" lon="6.94079">
        <ele>942</ele>
        <time>2022-05-26T14:47:28Z</time>
      </trkpt>
      <trkpt lat="48.05386" lon="6.94068">
        <ele>941.1</ele>
        <time>2022-05-26T14:47:30Z</time>
      </trkpt>
      <trkpt lat="48.05375" lon="6.9406">
        <ele>938.3</ele>
        <time>2022-05-26T14:47:32Z</time>
      </trkpt>
      <trkpt lat="48.05363" lon="6.94052">
        <ele>938.1</ele>
        <time>2022-05-26T14:47:34Z</time>
      </trkpt>
      <trkpt lat="48.05351" lon="6.94043">
        <ele>938.2</ele>
        <time>2022-05-26T14:47:36Z</time>
      </trkpt>
      <trkpt lat="48.0534" lon="6.94034">
        <ele>936.7</ele>
        <time>2022-05-26T14:47:38Z</time>
      </trkpt>
      <trkpt lat="48.05327" lon="6.94026">
        <ele>938</ele>
        <time>2022-05-26T14:47:40Z</time>
      </trkpt>
      <trkpt lat="48.05312" lon="6.94019">
        <ele>935.7</ele>
        <time>2022-05-26T14:47:42Z</time>
      </trkpt>
      <trkpt lat="48.05297" lon="6.94011">
        <ele>934.6</ele>
        <time>2022-05-26T14:47:44Z</time>
      </trkpt>
      <trkpt lat="48.05283" lon="6.94003">
        <ele>934.6</ele>
        <time>2022-05-26T14:47:46Z</time>
      </trkpt>
      <trkpt lat="48.05269" lon="6.93994">
        <ele>935.2</ele>
        <time>2022-05-26T14:47:48Z</time>
      </trkpt>
      <trkpt lat="48.05255" lon="6.93984">
        <ele>935.6</ele>
        <time>2022-05-26T14:47:50Z</time>
      </trkpt>
      <trkpt lat="48.05243" lon="6.93974">
        <ele>930.5</ele>
        <time>2022-05-26T14:47:52Z</time>
      </trkpt>
      <trkpt lat="48.05231" lon="6.93961">
        <ele>927.3</ele>
        <time>2022-05-26T14:47:54Z</time>
      </trkpt>
      <trkpt lat="48.05218" lon="6.93946">
        <ele>929.1</ele>
        <time>2022-05-26T14:47:56Z</time>
      </trkpt>
      <trkpt lat="48.05204" lon="6.93932">
        <ele>931.3</ele>
        <time>2022-05-26T14:47:58Z</time>
      </trkpt>
      <trkpt lat="48.05189" lon="6.93919">
        <ele>926.6</ele>
        <time>2022-05-26T14:48:00Z</time>
      </trkpt>
      <trkpt lat="48.05176" lon="6.93905">
        <ele>925.4</ele>
        <time>2022-05-26T14:48:02Z</time>
      </trkpt>
      <trkpt lat="48.05165" lon="6.93893">
        <ele>925.9</ele>
        <time>2022-05-26T14:48:04Z</time>
      </trkpt>
      <trkpt lat="48.05155" lon="6.93887">
        <ele>924.4</ele>
        <time>2022-05-26T14:48:06Z</time>
      </trkpt>
      <trkpt lat="48.05146" lon="6.93879">
        <ele>922.6</ele>
        <time>2022-05-26T14:48:08Z</time>
      </trkpt>
      <trkpt lat="48.05136" lon="6.93868">
        <ele>922.8</ele>
        <time>2022-05-26T14:48:11Z</time>
      </trkpt>
      <trkpt lat="48.05127" lon="6.93856">
        <ele>922.6</ele>
        <time>2022-05-26T14:48:14Z</time>
      </trkpt>
      <trkpt lat="48.05122" lon="6.93841">
        <ele>921.2</ele>
        <time>2022-05-26T14:48:18Z</time>
      </trkpt>
      <trkpt lat="48.05117" lon="6.93826">
        <ele>919.9</ele>
        <time>2022-05-26T14:48:22Z</time>
      </trkpt>
      <trkpt lat="48.05114" lon="6.93811">
        <ele>920.8</ele>
        <time>2022-05-26T14:48:25Z</time>
      </trkpt>
      <trkpt lat="48.05118" lon="6.93793">
        <ele>918.8</ele>
        <time>2022-05-26T14:48:28Z</time>
      </trkpt>
      <trkpt lat="48.05125" lon="6.93778">
        <ele>919</ele>
        <time>2022-05-26T14:48:31Z</time>
      </trkpt>
      <trkpt lat="48.05122" lon="6.93761">
        <ele>917.2</ele>
        <time>2022-05-26T14:48:34Z</time>
      </trkpt>
      <trkpt lat="48.05114" lon="6.93748">
        <ele>914.6</ele>
        <time>2022-05-26T14:48:36Z</time>
      </trkpt>
      <trkpt lat="48.05104" lon="6.93733">
        <ele>908.7</ele>
        <time>2022-05-26T14:48:38Z</time>
      </trkpt>
      <trkpt lat="48.05092" lon="6.93715">
        <ele>910.4</ele>
        <time>2022-05-26T14:48:40Z</time>
      </trkpt>
      <trkpt lat="48.05085" lon="6.93706">
        <ele>912.5</ele>
        <time>2022-05-26T14:48:41Z</time>
      </trkpt>
      <trkpt lat="48.05072" lon="6.93689">
        <ele>906.4</ele>
        <time>2022-05-26T14:48:43Z</time>
      </trkpt>
      <trkpt lat="48.05061" lon="6.93668">
        <ele>902.4</ele>
        <time>2022-05-26T14:48:45Z</time>
      </trkpt>
      <trkpt lat="48.05055" lon="6.93658">
        <ele>899.6</ele>
        <time>2022-05-26T14:48:46Z</time>
      </trkpt>
      <trkpt lat="48.05043" lon="6.93637">
        <ele>899.5</ele>
        <time>2022-05-26T14:48:48Z</time>
      </trkpt>
      <trkpt lat="48.05037" lon="6.93627">
        <ele>901.4</ele>
        <time>2022-05-26T14:48:49Z</time>
      </trkpt>
      <trkpt lat="48.0503" lon="6.93618">
        <ele>903.6</ele>
        <time>2022-05-26T14:48:50Z</time>
      </trkpt>
      <trkpt lat="48.05016" lon="6.93602">
        <ele>903.3</ele>
        <time>2022-05-26T14:48:52Z</time>
      </trkpt>
      <trkpt lat="48.05008" lon="6.93593">
        <ele>900.9</ele>
        <time>2022-05-26T14:48:53Z</time>
      </trkpt>
      <trkpt lat="48.04995" lon="6.93575">
        <ele>900.2</ele>
        <time>2022-05-26T14:48:55Z</time>
      </trkpt>
      <trkpt lat="48.04989" lon="6.93565">
        <ele>901.2</ele>
        <time>2022-05-26T14:48:56Z</time>
      </trkpt>
      <trkpt lat="48.04981" lon="6.93555">
        <ele>897.5</ele>
        <time>2022-05-26T14:48:57Z</time>
      </trkpt>
      <trkpt lat="48.04974" lon="6.93545">
        <ele>896</ele>
        <time>2022-05-26T14:48:58Z</time>
      </trkpt>
      <trkpt lat="48.04966" lon="6.93536">
        <ele>896.2</ele>
        <time>2022-05-26T14:48:59Z</time>
      </trkpt>
      <trkpt lat="48.04958" lon="6.93528">
        <ele>896.9</ele>
        <time>2022-05-26T14:49:00Z</time>
      </trkpt>
      <trkpt lat="48.04943" lon="6.93518">
        <ele>892.2</ele>
        <time>2022-05-26T14:49:02Z</time>
      </trkpt>
      <trkpt lat="48.04926" lon="6.9351">
        <ele>890.1</ele>
        <time>2022-05-26T14:49:04Z</time>
      </trkpt>
      <trkpt lat="48.04909" lon="6.93505">
        <ele>893.9</ele>
        <time>2022-05-26T14:49:06Z</time>
      </trkpt>
      <trkpt lat="48.049" lon="6.93501">
        <ele>893.5</ele>
        <time>2022-05-26T14:49:07Z</time>
      </trkpt>
      <trkpt lat="48.04891" lon="6.93496">
        <ele>891.4</ele>
        <time>2022-05-26T14:49:08Z</time>
      </trkpt>
      <trkpt lat="48.04881" lon="6.93489">
        <ele>887.3</ele>
        <time>2022-05-26T14:49:09Z</time>
      </trkpt>
      <trkpt lat="48.04871" lon="6.93482">
        <ele>884.2</ele>
        <time>2022-05-26T14:49:10Z</time>
      </trkpt>
      <trkpt lat="48.04861" lon="6.93474">
        <ele>884.2</ele>
        <time>2022-05-26T14:49:11Z</time>
      </trkpt>
      <trkpt lat="48.04852" lon="6.93466">
        <ele>885.6</ele>
        <time>2022-05-26T14:49:12Z</time>
      </trkpt>
      <trkpt lat="48.04843" lon="6.93457">
        <ele>884.5</ele>
        <time>2022-05-26T14:49:13Z</time>
      </trkpt>
      <trkpt lat="48.04834" lon="6.93449">
        <ele>882.9</ele>
        <time>2022-05-26T14:49:14Z</time>
      </trkpt>
      <trkpt lat="48.04826" lon="6.93441">
        <ele>882.1</ele>
        <time>2022-05-26T14:49:15Z</time>
      </trkpt>
      <trkpt lat="48.04817" lon="6.93432">
        <ele>881.5</ele>
        <time>2022-05-26T14:49:16Z</time>
      </trkpt>
      <trkpt lat="48.04808" lon="6.93424">
        <ele>881.7</ele>
        <time>2022-05-26T14:49:17Z</time>
      </trkpt>
      <trkpt lat="48.04797" lon="6.93416">
        <ele>880.5</ele>
        <time>2022-05-26T14:49:18Z</time>
      </trkpt>
      <trkpt lat="48.04786" lon="6.9341">
        <ele>878.3</ele>
        <time>2022-05-26T14:49:19Z</time>
      </trkpt>
      <trkpt lat="48.04776" lon="6.93405">
        <ele>878.9</ele>
        <time>2022-05-26T14:49:20Z</time>
      </trkpt>
      <trkpt lat="48.04762" lon="6.93401">
        <ele>881.1</ele>
        <time>2022-05-26T14:49:21Z</time>
      </trkpt>
      <trkpt lat="48.04751" lon="6.93401">
        <ele>881.9</ele>
        <time>2022-05-26T14:49:22Z</time>
      </trkpt>
      <trkpt lat="48.04742" lon="6.93404">
        <ele>882.4</ele>
        <time>2022-05-26T14:49:23Z</time>
      </trkpt>
      <trkpt lat="48.04726" lon="6.93411">
        <ele>879.9</ele>
        <time>2022-05-26T14:49:25Z</time>
      </trkpt>
      <trkpt lat="48.04711" lon="6.93412">
        <ele>879</ele>
        <time>2022-05-26T14:49:27Z</time>
      </trkpt>
      <trkpt lat="48.04698" lon="6.93404">
        <ele>880.3</ele>
        <time>2022-05-26T14:49:29Z</time>
      </trkpt>
      <trkpt lat="48.0469" lon="6.93389">
        <ele>880</ele>
        <time>2022-05-26T14:49:31Z</time>
      </trkpt>
      <trkpt lat="48.04683" lon="6.93367">
        <ele>879.7</ele>
        <time>2022-05-26T14:49:33Z</time>
      </trkpt>
      <trkpt lat="48.04677" lon="6.93347">
        <ele>880.1</ele>
        <time>2022-05-26T14:49:35Z</time>
      </trkpt>
      <trkpt lat="48.04671" lon="6.9333">
        <ele>879.3</ele>
        <time>2022-05-26T14:49:37Z</time>
      </trkpt>
      <trkpt lat="48.04665" lon="6.93313">
        <ele>879</ele>
        <time>2022-05-26T14:49:39Z</time>
      </trkpt>
      <trkpt lat="48.04658" lon="6.93297">
        <ele>878.9</ele>
        <time>2022-05-26T14:49:41Z</time>
      </trkpt>
      <trkpt lat="48.04647" lon="6.93288">
        <ele>878.7</ele>
        <time>2022-05-26T14:49:43Z</time>
      </trkpt>
      <trkpt lat="48.04634" lon="6.93289">
        <ele>878</ele>
        <time>2022-05-26T14:49:45Z</time>
      </trkpt>
      <trkpt lat="48.04623" lon="6.93296">
        <ele>877.6</ele>
        <time>2022-05-26T14:49:47Z</time>
      </trkpt>
      <trkpt lat="48.04613" lon="6.93305">
        <ele>878.3</ele>
        <time>2022-05-26T14:49:49Z</time>
      </trkpt>
      <trkpt lat="48.04603" lon="6.93313">
        <ele>878.8</ele>
        <time>2022-05-26T14:49:51Z</time>
      </trkpt>
      <trkpt lat="48.04594" lon="6.93321">
        <ele>878.4</ele>
        <time>2022-05-26T14:49:53Z</time>
      </trkpt>
      <trkpt lat="48.04584" lon="6.93329">
        <ele>878.2</ele>
        <time>2022-05-26T14:49:55Z</time>
      </trkpt>
      <trkpt lat="48.04574" lon="6.93336">
        <ele>878.1</ele>
        <time>2022-05-26T14:49:57Z</time>
      </trkpt>
      <trkpt lat="48.04564" lon="6.93342">
        <ele>877.7</ele>
        <time>2022-05-26T14:49:59Z</time>
      </trkpt>
      <trkpt lat="48.04553" lon="6.93346">
        <ele>878</ele>
        <time>2022-05-26T14:50:01Z</time>
      </trkpt>
      <trkpt lat="48.04543" lon="6.93346">
        <ele>878.2</ele>
        <time>2022-05-26T14:50:03Z</time>
      </trkpt>
      <trkpt lat="48.04533" lon="6.93344">
        <ele>878.4</ele>
        <time>2022-05-26T14:50:05Z</time>
      </trkpt>
      <trkpt lat="48.04522" lon="6.93342">
        <ele>878.1</ele>
        <time>2022-05-26T14:50:07Z</time>
      </trkpt>
      <trkpt lat="48.04512" lon="6.93341">
        <ele>877.4</ele>
        <time>2022-05-26T14:50:09Z</time>
      </trkpt>
      <trkpt lat="48.04502" lon="6.9334">
        <ele>876.5</ele>
        <time>2022-05-26T14:50:11Z</time>
      </trkpt>
      <trkpt lat="48.04492" lon="6.93338">
        <ele>876.6</ele>
        <time>2022-05-26T14:50:13Z</time>
      </trkpt>
      <trkpt lat="48.04482" lon="6.93336">
        <ele>876.3</ele>
        <time>2022-05-26T14:50:15Z</time>
      </trkpt>
      <trkpt lat="48.04473" lon="6.93334">
        <ele>877.1</ele>
        <time>2022-05-26T14:50:17Z</time>
      </trkpt>
      <trkpt lat="48.04464" lon="6.9333">
        <ele>877.3</ele>
        <time>2022-05-26T14:50:19Z</time>
      </trkpt>
      <trkpt lat="48.04455" lon="6.93327">
        <ele>876.4</ele>
        <time>2022-05-26T14:50:21Z</time>
      </trkpt>
      <trkpt lat="48.04446" lon="6.93324">
        <ele>876.2</ele>
        <time>2022-05-26T14:50:23Z</time>
      </trkpt>
      <trkpt lat="48.04434" lon="6.93317">
        <ele>876.6</ele>
        <time>2022-05-26T14:50:26Z</time>
      </trkpt>
      <trkpt lat="48.04423" lon="6.93311">
        <ele>876</ele>
        <time>2022-05-26T14:50:29Z</time>
      </trkpt>
      <trkpt lat="48.04412" lon="6.93304">
        <ele>875.7</ele>
        <time>2022-05-26T14:50:32Z</time>
      </trkpt>
      <trkpt lat="48.04401" lon="6.93298">
        <ele>875.9</ele>
        <time>2022-05-26T14:50:35Z</time>
      </trkpt>
      <trkpt lat="48.0439" lon="6.93291">
        <ele>875.1</ele>
        <time>2022-05-26T14:50:38Z</time>
      </trkpt>
      <trkpt lat="48.04379" lon="6.93285">
        <ele>874.8</ele>
        <time>2022-05-26T14:50:41Z</time>
      </trkpt>
      <trkpt lat="48.0437" lon="6.9328">
        <ele>875.2</ele>
        <time>2022-05-26T14:50:44Z</time>
      </trkpt>
      <trkpt lat="48.0436" lon="6.93274">
        <ele>875.6</ele>
        <time>2022-05-26T14:50:47Z</time>
      </trkpt>
      <trkpt lat="48.04351" lon="6.93268">
        <ele>874.9</ele>
        <time>2022-05-26T14:50:50Z</time>
      </trkpt>
      <trkpt lat="48.04341" lon="6.9326">
        <ele>874.3</ele>
        <time>2022-05-26T14:50:54Z</time>
      </trkpt>
      <trkpt lat="48.04329" lon="6.93255">
        <ele>874.7</ele>
        <time>2022-05-26T14:50:58Z</time>
      </trkpt>
      <trkpt lat="48.04319" lon="6.9325">
        <ele>874.2</ele>
        <time>2022-05-26T14:51:01Z</time>
      </trkpt>
      <trkpt lat="48.04307" lon="6.93243">
        <ele>874.2</ele>
        <time>2022-05-26T14:51:04Z</time>
      </trkpt>
      <trkpt lat="48.04295" lon="6.93236">
        <ele>874.7</ele>
        <time>2022-05-26T14:51:07Z</time>
      </trkpt>
      <trkpt lat="48.04284" lon="6.93228">
        <ele>874.8</ele>
        <time>2022-05-26T14:51:10Z</time>
      </trkpt>
      <trkpt lat="48.04274" lon="6.93222">
        <ele>875.1</ele>
        <time>2022-05-26T14:51:13Z</time>
      </trkpt>
      <trkpt lat="48.04264" lon="6.93216">
        <ele>876</ele>
        <time>2022-05-26T14:51:16Z</time>
      </trkpt>
      <trkpt lat="48.04252" lon="6.93209">
        <ele>876.1</ele>
        <time>2022-05-26T14:51:19Z</time>
      </trkpt>
      <trkpt lat="48.0424" lon="6.93203">
        <ele>876.3</ele>
        <time>2022-05-26T14:51:22Z</time>
      </trkpt>
      <trkpt lat="48.0423" lon="6.93198">
        <ele>876.4</ele>
        <time>2022-05-26T14:51:25Z</time>
      </trkpt>
      <trkpt lat="48.0422" lon="6.93193">
        <ele>876.2</ele>
        <time>2022-05-26T14:51:28Z</time>
      </trkpt>
      <trkpt lat="48.04208" lon="6.93188">
        <ele>875.4</ele>
        <time>2022-05-26T14:51:31Z</time>
      </trkpt>
      <trkpt lat="48.04197" lon="6.93183">
        <ele>876.2</ele>
        <time>2022-05-26T14:51:34Z</time>
      </trkpt>
      <trkpt lat="48.04185" lon="6.93178">
        <ele>875.9</ele>
        <time>2022-05-26T14:51:37Z</time>
      </trkpt>
      <trkpt lat="48.04174" lon="6.93174">
        <ele>875.6</ele>
        <time>2022-05-26T14:51:40Z</time>
      </trkpt>
      <trkpt lat="48.04162" lon="6.9317">
        <ele>875.3</ele>
        <time>2022-05-26T14:51:43Z</time>
      </trkpt>
      <trkpt lat="48.04149" lon="6.93166">
        <ele>874.5</ele>
        <time>2022-05-26T14:51:46Z</time>
      </trkpt>
      <trkpt lat="48.04136" lon="6.93163">
        <ele>873.6</ele>
        <time>2022-05-26T14:51:49Z</time>
      </trkpt>
      <trkpt lat="48.04124" lon="6.9316">
        <ele>873.6</ele>
        <time>2022-05-26T14:51:52Z</time>
      </trkpt>
      <trkpt lat="48.04113" lon="6.93157">
        <ele>873.5</ele>
        <time>2022-05-26T14:51:55Z</time>
      </trkpt>
      <trkpt lat="48.04101" lon="6.93152">
        <ele>873.9</ele>
        <time>2022-05-26T14:51:58Z</time>
      </trkpt>
      <trkpt lat="48.04088" lon="6.93146">
        <ele>873.9</ele>
        <time>2022-05-26T14:52:01Z</time>
      </trkpt>
      <trkpt lat="48.04076" lon="6.93139">
        <ele>873.9</ele>
        <time>2022-05-26T14:52:04Z</time>
      </trkpt>
      <trkpt lat="48.04065" lon="6.93131">
        <ele>873.4</ele>
        <time>2022-05-26T14:52:07Z</time>
      </trkpt>
      <trkpt lat="48.04053" lon="6.93123">
        <ele>873.4</ele>
        <time>2022-05-26T14:52:10Z</time>
      </trkpt>
      <trkpt lat="48.04044" lon="6.93117">
        <ele>873.5</ele>
        <time>2022-05-26T14:52:12Z</time>
      </trkpt>
      <trkpt lat="48.04036" lon="6.93111">
        <ele>872.7</ele>
        <time>2022-05-26T14:52:14Z</time>
      </trkpt>
      <trkpt lat="48.04026" lon="6.93104">
        <ele>871.7</ele>
        <time>2022-05-26T14:52:16Z</time>
      </trkpt>
      <trkpt lat="48.04017" lon="6.93096">
        <ele>871.7</ele>
        <time>2022-05-26T14:52:18Z</time>
      </trkpt>
      <trkpt lat="48.04008" lon="6.93086">
        <ele>871.9</ele>
        <time>2022-05-26T14:52:20Z</time>
      </trkpt>
      <trkpt lat="48.04" lon="6.93075">
        <ele>872</ele>
        <time>2022-05-26T14:52:22Z</time>
      </trkpt>
      <trkpt lat="48.03994" lon="6.93062">
        <ele>873</ele>
        <time>2022-05-26T14:52:24Z</time>
      </trkpt>
      <trkpt lat="48.03988" lon="6.9305">
        <ele>872.9</ele>
        <time>2022-05-26T14:52:26Z</time>
      </trkpt>
      <trkpt lat="48.03981" lon="6.93037">
        <ele>872.1</ele>
        <time>2022-05-26T14:52:28Z</time>
      </trkpt>
      <trkpt lat="48.03975" lon="6.93024">
        <ele>872.7</ele>
        <time>2022-05-26T14:52:30Z</time>
      </trkpt>
      <trkpt lat="48.03968" lon="6.93013">
        <ele>872</ele>
        <time>2022-05-26T14:52:32Z</time>
      </trkpt>
      <trkpt lat="48.0396" lon="6.93003">
        <ele>871.8</ele>
        <time>2022-05-26T14:52:34Z</time>
      </trkpt>
      <trkpt lat="48.03952" lon="6.92993">
        <ele>871.6</ele>
        <time>2022-05-26T14:52:36Z</time>
      </trkpt>
      <trkpt lat="48.03945" lon="6.92981">
        <ele>871.5</ele>
        <time>2022-05-26T14:52:38Z</time>
      </trkpt>
      <trkpt lat="48.03938" lon="6.92971">
        <ele>870.7</ele>
        <time>2022-05-26T14:52:40Z</time>
      </trkpt>
      <trkpt lat="48.03929" lon="6.92958">
        <ele>870.2</ele>
        <time>2022-05-26T14:52:43Z</time>
      </trkpt>
      <trkpt lat="48.03923" lon="6.92947">
        <ele>869.5</ele>
        <time>2022-05-26T14:52:45Z</time>
      </trkpt>
      <trkpt lat="48.03917" lon="6.92935">
        <ele>869.6</ele>
        <time>2022-05-26T14:52:47Z</time>
      </trkpt>
      <trkpt lat="48.03911" lon="6.92919">
        <ele>869</ele>
        <time>2022-05-26T14:52:49Z</time>
      </trkpt>
      <trkpt lat="48.03906" lon="6.92903">
        <ele>868.5</ele>
        <time>2022-05-26T14:52:51Z</time>
      </trkpt>
      <trkpt lat="48.03902" lon="6.92887">
        <ele>868.4</ele>
        <time>2022-05-26T14:52:53Z</time>
      </trkpt>
      <trkpt lat="48.03894" lon="6.92874">
        <ele>867.1</ele>
        <time>2022-05-26T14:52:55Z</time>
      </trkpt>
      <trkpt lat="48.03884" lon="6.92863">
        <ele>866</ele>
        <time>2022-05-26T14:52:57Z</time>
      </trkpt>
      <trkpt lat="48.03872" lon="6.92854">
        <ele>864.9</ele>
        <time>2022-05-26T14:52:59Z</time>
      </trkpt>
      <trkpt lat="48.03859" lon="6.92846">
        <ele>864.1</ele>
        <time>2022-05-26T14:53:01Z</time>
      </trkpt>
      <trkpt lat="48.03847" lon="6.92837">
        <ele>862.6</ele>
        <time>2022-05-26T14:53:03Z</time>
      </trkpt>
      <trkpt lat="48.03832" lon="6.92826">
        <ele>861.4</ele>
        <time>2022-05-26T14:53:05Z</time>
      </trkpt>
      <trkpt lat="48.03817" lon="6.92817">
        <ele>860.1</ele>
        <time>2022-05-26T14:53:07Z</time>
      </trkpt>
      <trkpt lat="48.03801" lon="6.92809">
        <ele>860</ele>
        <time>2022-05-26T14:53:09Z</time>
      </trkpt>
      <trkpt lat="48.03786" lon="6.928">
        <ele>858.9</ele>
        <time>2022-05-26T14:53:11Z</time>
      </trkpt>
      <trkpt lat="48.0377" lon="6.92788">
        <ele>858.4</ele>
        <time>2022-05-26T14:53:13Z</time>
      </trkpt>
      <trkpt lat="48.03762" lon="6.92782">
        <ele>858.1</ele>
        <time>2022-05-26T14:53:14Z</time>
      </trkpt>
      <trkpt lat="48.03753" lon="6.92777">
        <ele>857.5</ele>
        <time>2022-05-26T14:53:15Z</time>
      </trkpt>
      <trkpt lat="48.03737" lon="6.92765">
        <ele>856.3</ele>
        <time>2022-05-26T14:53:17Z</time>
      </trkpt>
      <trkpt lat="48.03721" lon="6.92754">
        <ele>855.1</ele>
        <time>2022-05-26T14:53:19Z</time>
      </trkpt>
      <trkpt lat="48.03705" lon="6.92745">
        <ele>854</ele>
        <time>2022-05-26T14:53:21Z</time>
      </trkpt>
      <trkpt lat="48.03689" lon="6.92736">
        <ele>854.2</ele>
        <time>2022-05-26T14:53:23Z</time>
      </trkpt>
      <trkpt lat="48.03674" lon="6.92722">
        <ele>854</ele>
        <time>2022-05-26T14:53:25Z</time>
      </trkpt>
      <trkpt lat="48.03668" lon="6.92712">
        <ele>852.9</ele>
        <time>2022-05-26T14:53:26Z</time>
      </trkpt>
      <trkpt lat="48.03662" lon="6.927">
        <ele>852.1</ele>
        <time>2022-05-26T14:53:27Z</time>
      </trkpt>
      <trkpt lat="48.03658" lon="6.92688">
        <ele>852</ele>
        <time>2022-05-26T14:53:28Z</time>
      </trkpt>
      <trkpt lat="48.0365" lon="6.92664">
        <ele>851.5</ele>
        <time>2022-05-26T14:53:30Z</time>
      </trkpt>
      <trkpt lat="48.03641" lon="6.92642">
        <ele>849.9</ele>
        <time>2022-05-26T14:53:32Z</time>
      </trkpt>
      <trkpt lat="48.03635" lon="6.92631">
        <ele>849.5</ele>
        <time>2022-05-26T14:53:33Z</time>
      </trkpt>
      <trkpt lat="48.03622" lon="6.92614">
        <ele>848.9</ele>
        <time>2022-05-26T14:53:35Z</time>
      </trkpt>
      <trkpt lat="48.03614" lon="6.92606">
        <ele>848.6</ele>
        <time>2022-05-26T14:53:36Z</time>
      </trkpt>
      <trkpt lat="48.03607" lon="6.92598">
        <ele>847.9</ele>
        <time>2022-05-26T14:53:37Z</time>
      </trkpt>
      <trkpt lat="48.03593" lon="6.92582">
        <ele>847.4</ele>
        <time>2022-05-26T14:53:39Z</time>
      </trkpt>
      <trkpt lat="48.0358" lon="6.92565">
        <ele>846.8</ele>
        <time>2022-05-26T14:53:41Z</time>
      </trkpt>
      <trkpt lat="48.03567" lon="6.92548">
        <ele>846</ele>
        <time>2022-05-26T14:53:43Z</time>
      </trkpt>
      <trkpt lat="48.03557" lon="6.92533">
        <ele>845.9</ele>
        <time>2022-05-26T14:53:45Z</time>
      </trkpt>
      <trkpt lat="48.03556" lon="6.92518">
        <ele>845.4</ele>
        <time>2022-05-26T14:53:47Z</time>
      </trkpt>
      <trkpt lat="48.03567" lon="6.92508">
        <ele>847.2</ele>
        <time>2022-05-26T14:53:50Z</time>
      </trkpt>
      <trkpt lat="48.03577" lon="6.92513">
        <ele>847.3</ele>
        <time>2022-05-26T14:53:53Z</time>
      </trkpt>
      <trkpt lat="48.03585" lon="6.92524">
        <ele>847.6</ele>
        <time>2022-05-26T14:53:56Z</time>
      </trkpt>
      <trkpt lat="48.03594" lon="6.92535">
        <ele>848.2</ele>
        <time>2022-05-26T14:53:59Z</time>
      </trkpt>
      <trkpt lat="48.03602" lon="6.92545">
        <ele>848</ele>
        <time>2022-05-26T14:54:02Z</time>
      </trkpt>
      <trkpt lat="48.03611" lon="6.92556">
        <ele>849</ele>
        <time>2022-05-26T14:54:05Z</time>
      </trkpt>
      <trkpt lat="48.03619" lon="6.92566">
        <ele>849.5</ele>
        <time>2022-05-26T14:54:08Z</time>
      </trkpt>
      <trkpt lat="48.03626" lon="6.92576">
        <ele>849.8</ele>
        <time>2022-05-26T14:54:11Z</time>
      </trkpt>
      <trkpt lat="48.03634" lon="6.92586">
        <ele>851.1</ele>
        <time>2022-05-26T14:54:15Z</time>
      </trkpt>
      <trkpt lat="48.03643" lon="6.9259">
        <ele>852.3</ele>
        <time>2022-05-26T14:54:21Z</time>
      </trkpt>
      <trkpt lat="48.03643" lon="6.92575">
        <ele>853</ele>
        <time>2022-05-26T14:54:27Z</time>
      </trkpt>
      <trkpt lat="48.03636" lon="6.9256">
        <ele>852.9</ele>
        <time>2022-05-26T14:54:31Z</time>
      </trkpt>
      <trkpt lat="48.03629" lon="6.92546">
        <ele>851.9</ele>
        <time>2022-05-26T14:54:34Z</time>
      </trkpt>
      <trkpt lat="48.03621" lon="6.92533">
        <ele>851.8</ele>
        <time>2022-05-26T14:54:37Z</time>
      </trkpt>
      <trkpt lat="48.03614" lon="6.9252">
        <ele>852.2</ele>
        <time>2022-05-26T14:54:40Z</time>
      </trkpt>
      <trkpt lat="48.03608" lon="6.92508">
        <ele>852.4</ele>
        <time>2022-05-26T14:54:43Z</time>
      </trkpt>
      <trkpt lat="48.03603" lon="6.92495">
        <ele>853.6</ele>
        <time>2022-05-26T14:54:47Z</time>
      </trkpt>
      <trkpt lat="48.03599" lon="6.92481">
        <ele>855.3</ele>
        <time>2022-05-26T14:54:52Z</time>
      </trkpt>
      <trkpt lat="48.03605" lon="6.9247">
        <ele>855.4</ele>
        <time>2022-05-26T14:54:58Z</time>
      </trkpt>
      <trkpt lat="48.03608" lon="6.92458">
        <ele>855.5</ele>
        <time>2022-05-26T14:55:06Z</time>
      </trkpt>
    </trkseg>
  </trk>
  <trk>
    <name><![CDATA[27/05 La Bresse Haut du Tot]]></name>
    <extensions>
      <line xmlns="http://www.topografix.com/GPX/gpx_style/0/2">
        <color>0000ff</color>
        <width>4</width>
      </line>
    </extensions>
    <trkseg>
      <trkpt lat="48.03604" lon="6.92492">
        <ele>847.417542</ele>
        <time>2022-05-27T06:52:34Z</time>
      </trkpt>
      <trkpt lat="48.03605" lon="6.92492">
        <ele>847.455444</ele>
        <time>2022-05-27T06:52:46Z</time>
      </trkpt>
      <trkpt lat="48.03605" lon="6.92492">
        <ele>847.151062</ele>
        <time>2022-05-27T06:52:50Z</time>
      </trkpt>
      <trkpt lat="48.03613" lon="6.92484">
        <ele>847.858398</ele>
        <time>2022-05-27T06:52:57Z</time>
      </trkpt>
      <trkpt lat="48.03611" lon="6.92469">
        <ele>848.919434</ele>
        <time>2022-05-27T06:53:02Z</time>
      </trkpt>
      <trkpt lat="48.03612" lon="6.92455">
        <ele>849.317993</ele>
        <time>2022-05-27T06:53:07Z</time>
      </trkpt>
      <trkpt lat="48.03612" lon="6.92468">
        <ele>849.399475</ele>
        <time>2022-05-27T06:53:14Z</time>
      </trkpt>
      <trkpt lat="48.03603" lon="6.92476">
        <ele>849.164917</ele>
        <time>2022-05-27T06:53:19Z</time>
      </trkpt>
      <trkpt lat="48.03613" lon="6.92478">
        <ele>848.937134</ele>
        <time>2022-05-27T06:53:26Z</time>
      </trkpt>
      <trkpt lat="48.03609" lon="6.92464">
        <ele>849.283142</ele>
        <time>2022-05-27T06:53:32Z</time>
      </trkpt>
      <trkpt lat="48.03602" lon="6.92478">
        <ele>848.5</ele>
        <time>2022-05-27T06:53:37Z</time>
      </trkpt>
      <trkpt lat="48.03598" lon="6.9249">
        <ele>848.7</ele>
        <time>2022-05-27T06:53:42Z</time>
      </trkpt>
      <trkpt lat="48.03598" lon="6.9249">
        <ele>848.2</ele>
        <time>2022-05-27T06:54:06Z</time>
      </trkpt>
      <trkpt lat="48.03601" lon="6.92504">
        <ele>847.1</ele>
        <time>2022-05-27T06:54:36Z</time>
      </trkpt>
      <trkpt lat="48.03609" lon="6.92516">
        <ele>845.8</ele>
        <time>2022-05-27T06:54:41Z</time>
      </trkpt>
      <trkpt lat="48.03617" lon="6.92526">
        <ele>845.3</ele>
        <time>2022-05-27T06:54:44Z</time>
      </trkpt>
      <trkpt lat="48.03625" lon="6.9254">
        <ele>845.2</ele>
        <time>2022-05-27T06:54:47Z</time>
      </trkpt>
      <trkpt lat="48.03632" lon="6.92554">
        <ele>845.1</ele>
        <time>2022-05-27T06:54:50Z</time>
      </trkpt>
      <trkpt lat="48.03638" lon="6.92565">
        <ele>844.9</ele>
        <time>2022-05-27T06:54:53Z</time>
      </trkpt>
      <trkpt lat="48.03645" lon="6.92579">
        <ele>845.1</ele>
        <time>2022-05-27T06:54:57Z</time>
      </trkpt>
      <trkpt lat="48.03643" lon="6.92593">
        <ele>845</ele>
        <time>2022-05-27T06:55:01Z</time>
      </trkpt>
      <trkpt lat="48.03631" lon="6.92585">
        <ele>844.5</ele>
        <time>2022-05-27T06:55:04Z</time>
      </trkpt>
      <trkpt lat="48.03623" lon="6.92574">
        <ele>843.5</ele>
        <time>2022-05-27T06:55:06Z</time>
      </trkpt>
      <trkpt lat="48.03614" lon="6.92561">
        <ele>843.1</ele>
        <time>2022-05-27T06:55:08Z</time>
      </trkpt>
      <trkpt lat="48.03603" lon="6.92549">
        <ele>842.3</ele>
        <time>2022-05-27T06:55:10Z</time>
      </trkpt>
      <trkpt lat="48.03593" lon="6.92535">
        <ele>841.1</ele>
        <time>2022-05-27T06:55:12Z</time>
      </trkpt>
      <trkpt lat="48.03583" lon="6.92521">
        <ele>840.3</ele>
        <time>2022-05-27T06:55:14Z</time>
      </trkpt>
      <trkpt lat="48.03575" lon="6.92503">
        <ele>840</ele>
        <time>2022-05-27T06:55:16Z</time>
      </trkpt>
      <trkpt lat="48.03572" lon="6.92482">
        <ele>840.5</ele>
        <time>2022-05-27T06:55:18Z</time>
      </trkpt>
      <trkpt lat="48.03576" lon="6.92465">
        <ele>841.1</ele>
        <time>2022-05-27T06:55:20Z</time>
      </trkpt>
      <trkpt lat="48.03581" lon="6.92451">
        <ele>841</ele>
        <time>2022-05-27T06:55:22Z</time>
      </trkpt>
      <trkpt lat="48.03584" lon="6.92438">
        <ele>841.1</ele>
        <time>2022-05-27T06:55:24Z</time>
      </trkpt>
      <trkpt lat="48.03588" lon="6.9242">
        <ele>841.6</ele>
        <time>2022-05-27T06:55:27Z</time>
      </trkpt>
      <trkpt lat="48.03591" lon="6.92403">
        <ele>841.9</ele>
        <time>2022-05-27T06:55:30Z</time>
      </trkpt>
      <trkpt lat="48.03594" lon="6.92386">
        <ele>842.6</ele>
        <time>2022-05-27T06:55:33Z</time>
      </trkpt>
      <trkpt lat="48.03595" lon="6.9237">
        <ele>842.5</ele>
        <time>2022-05-27T06:55:36Z</time>
      </trkpt>
      <trkpt lat="48.03593" lon="6.92355">
        <ele>842.2</ele>
        <time>2022-05-27T06:55:39Z</time>
      </trkpt>
      <trkpt lat="48.0359" lon="6.9234">
        <ele>843.1</ele>
        <time>2022-05-27T06:55:42Z</time>
      </trkpt>
      <trkpt lat="48.03588" lon="6.92326">
        <ele>843.3</ele>
        <time>2022-05-27T06:55:45Z</time>
      </trkpt>
      <trkpt lat="48.03585" lon="6.92313">
        <ele>844</ele>
        <time>2022-05-27T06:55:48Z</time>
      </trkpt>
      <trkpt lat="48.03581" lon="6.92301">
        <ele>844.3</ele>
        <time>2022-05-27T06:55:51Z</time>
      </trkpt>
      <trkpt lat="48.03577" lon="6.92284">
        <ele>844.9</ele>
        <time>2022-05-27T06:55:55Z</time>
      </trkpt>
      <trkpt lat="48.03572" lon="6.92268">
        <ele>845.1</ele>
        <time>2022-05-27T06:55:59Z</time>
      </trkpt>
      <trkpt lat="48.03566" lon="6.92255">
        <ele>845.7</ele>
        <time>2022-05-27T06:56:04Z</time>
      </trkpt>
      <trkpt lat="48.03558" lon="6.92247">
        <ele>846.1</ele>
        <time>2022-05-27T06:56:08Z</time>
      </trkpt>
      <trkpt lat="48.03549" lon="6.92239">
        <ele>846.3</ele>
        <time>2022-05-27T06:56:12Z</time>
      </trkpt>
      <trkpt lat="48.0354" lon="6.9223">
        <ele>846.8</ele>
        <time>2022-05-27T06:56:16Z</time>
      </trkpt>
      <trkpt lat="48.03532" lon="6.92221">
        <ele>847.1</ele>
        <time>2022-05-27T06:56:20Z</time>
      </trkpt>
      <trkpt lat="48.03525" lon="6.9221">
        <ele>847.9</ele>
        <time>2022-05-27T06:56:24Z</time>
      </trkpt>
      <trkpt lat="48.03519" lon="6.92199">
        <ele>848.8</ele>
        <time>2022-05-27T06:56:28Z</time>
      </trkpt>
      <trkpt lat="48.03513" lon="6.92188">
        <ele>849.4</ele>
        <time>2022-05-27T06:56:32Z</time>
      </trkpt>
      <trkpt lat="48.03507" lon="6.92177">
        <ele>849.8</ele>
        <time>2022-05-27T06:56:36Z</time>
      </trkpt>
      <trkpt lat="48.03502" lon="6.92166">
        <ele>850.5</ele>
        <time>2022-05-27T06:56:40Z</time>
      </trkpt>
      <trkpt lat="48.03497" lon="6.92154">
        <ele>851.2</ele>
        <time>2022-05-27T06:56:44Z</time>
      </trkpt>
      <trkpt lat="48.03491" lon="6.9214">
        <ele>852.2</ele>
        <time>2022-05-27T06:56:49Z</time>
      </trkpt>
      <trkpt lat="48.03485" lon="6.92128">
        <ele>853.4</ele>
        <time>2022-05-27T06:56:54Z</time>
      </trkpt>
      <trkpt lat="48.03479" lon="6.92114">
        <ele>854.6</ele>
        <time>2022-05-27T06:56:59Z</time>
      </trkpt>
      <trkpt lat="48.03473" lon="6.921">
        <ele>855.3</ele>
        <time>2022-05-27T06:57:04Z</time>
      </trkpt>
      <trkpt lat="48.03467" lon="6.92087">
        <ele>856</ele>
        <time>2022-05-27T06:57:09Z</time>
      </trkpt>
      <trkpt lat="48.03461" lon="6.92075">
        <ele>857</ele>
        <time>2022-05-27T06:57:14Z</time>
      </trkpt>
      <trkpt lat="48.03454" lon="6.92063">
        <ele>858</ele>
        <time>2022-05-27T06:57:19Z</time>
      </trkpt>
      <trkpt lat="48.03447" lon="6.92052">
        <ele>858.6</ele>
        <time>2022-05-27T06:57:24Z</time>
      </trkpt>
      <trkpt lat="48.03441" lon="6.92042">
        <ele>859.6</ele>
        <time>2022-05-27T06:57:38Z</time>
      </trkpt>
      <trkpt lat="48.03434" lon="6.92031">
        <ele>860.7</ele>
        <time>2022-05-27T06:57:43Z</time>
      </trkpt>
      <trkpt lat="48.03429" lon="6.9202">
        <ele>861.8</ele>
        <time>2022-05-27T06:57:48Z</time>
      </trkpt>
      <trkpt lat="48.03423" lon="6.92009">
        <ele>862.7</ele>
        <time>2022-05-27T06:57:53Z</time>
      </trkpt>
      <trkpt lat="48.03417" lon="6.91997">
        <ele>863.9</ele>
        <time>2022-05-27T06:57:58Z</time>
      </trkpt>
      <trkpt lat="48.03414" lon="6.91983">
        <ele>865.4</ele>
        <time>2022-05-27T06:58:04Z</time>
      </trkpt>
      <trkpt lat="48.03411" lon="6.91968">
        <ele>867.5</ele>
        <time>2022-05-27T06:58:10Z</time>
      </trkpt>
      <trkpt lat="48.03409" lon="6.91955">
        <ele>869.1</ele>
        <time>2022-05-27T06:58:15Z</time>
      </trkpt>
      <trkpt lat="48.03404" lon="6.91941">
        <ele>869.8</ele>
        <time>2022-05-27T06:58:21Z</time>
      </trkpt>
      <trkpt lat="48.03399" lon="6.9193">
        <ele>871</ele>
        <time>2022-05-27T06:58:26Z</time>
      </trkpt>
      <trkpt lat="48.03392" lon="6.9192">
        <ele>872.1</ele>
        <time>2022-05-27T06:58:31Z</time>
      </trkpt>
      <trkpt lat="48.03387" lon="6.91909">
        <ele>873</ele>
        <time>2022-05-27T06:58:36Z</time>
      </trkpt>
      <trkpt lat="48.03382" lon="6.91898">
        <ele>874.2</ele>
        <time>2022-05-27T06:58:41Z</time>
      </trkpt>
      <trkpt lat="48.03378" lon="6.91884">
        <ele>874.7</ele>
        <time>2022-05-27T06:58:46Z</time>
      </trkpt>
      <trkpt lat="48.03375" lon="6.91871">
        <ele>875.7</ele>
        <time>2022-05-27T06:58:51Z</time>
      </trkpt>
      <trkpt lat="48.03372" lon="6.91857">
        <ele>876.6</ele>
        <time>2022-05-27T06:58:56Z</time>
      </trkpt>
      <trkpt lat="48.03369" lon="6.91843">
        <ele>877.2</ele>
        <time>2022-05-27T06:59:01Z</time>
      </trkpt>
      <trkpt lat="48.03364" lon="6.91832">
        <ele>878.3</ele>
        <time>2022-05-27T06:59:06Z</time>
      </trkpt>
      <trkpt lat="48.03358" lon="6.91821">
        <ele>879.6</ele>
        <time>2022-05-27T06:59:11Z</time>
      </trkpt>
      <trkpt lat="48.03351" lon="6.91812">
        <ele>880.6</ele>
        <time>2022-05-27T06:59:16Z</time>
      </trkpt>
      <trkpt lat="48.03343" lon="6.91802">
        <ele>881.7</ele>
        <time>2022-05-27T06:59:21Z</time>
      </trkpt>
      <trkpt lat="48.03335" lon="6.91792">
        <ele>882.2</ele>
        <time>2022-05-27T06:59:26Z</time>
      </trkpt>
      <trkpt lat="48.03326" lon="6.91782">
        <ele>883.4</ele>
        <time>2022-05-27T06:59:31Z</time>
      </trkpt>
      <trkpt lat="48.03319" lon="6.91771">
        <ele>884.7</ele>
        <time>2022-05-27T06:59:36Z</time>
      </trkpt>
      <trkpt lat="48.03316" lon="6.91757">
        <ele>885.6</ele>
        <time>2022-05-27T06:59:41Z</time>
      </trkpt>
      <trkpt lat="48.03321" lon="6.91744">
        <ele>886.8</ele>
        <time>2022-05-27T06:59:46Z</time>
      </trkpt>
      <trkpt lat="48.0333" lon="6.91741">
        <ele>888.5</ele>
        <time>2022-05-27T06:59:51Z</time>
      </trkpt>
      <trkpt lat="48.0334" lon="6.91736">
        <ele>890.3</ele>
        <time>2022-05-27T06:59:57Z</time>
      </trkpt>
      <trkpt lat="48.03346" lon="6.91724">
        <ele>892</ele>
        <time>2022-05-27T07:00:03Z</time>
      </trkpt>
      <trkpt lat="48.03344" lon="6.91709">
        <ele>893.1</ele>
        <time>2022-05-27T07:00:09Z</time>
      </trkpt>
      <trkpt lat="48.03339" lon="6.91696">
        <ele>894.4</ele>
        <time>2022-05-27T07:00:15Z</time>
      </trkpt>
      <trkpt lat="48.03332" lon="6.91685">
        <ele>894.9</ele>
        <time>2022-05-27T07:00:20Z</time>
      </trkpt>
      <trkpt lat="48.03324" lon="6.91675">
        <ele>895.3</ele>
        <time>2022-05-27T07:00:25Z</time>
      </trkpt>
      <trkpt lat="48.03315" lon="6.91666">
        <ele>896.1</ele>
        <time>2022-05-27T07:00:30Z</time>
      </trkpt>
      <trkpt lat="48.03306" lon="6.91659">
        <ele>897</ele>
        <time>2022-05-27T07:00:35Z</time>
      </trkpt>
      <trkpt lat="48.03296" lon="6.91654">
        <ele>898.1</ele>
        <time>2022-05-27T07:00:40Z</time>
      </trkpt>
      <trkpt lat="48.03286" lon="6.91649">
        <ele>899.2</ele>
        <time>2022-05-27T07:00:45Z</time>
      </trkpt>
      <trkpt lat="48.03275" lon="6.91644">
        <ele>900.5</ele>
        <time>2022-05-27T07:00:50Z</time>
      </trkpt>
      <trkpt lat="48.03266" lon="6.91635">
        <ele>900.6</ele>
        <time>2022-05-27T07:00:55Z</time>
      </trkpt>
      <trkpt lat="48.03258" lon="6.91625">
        <ele>901.3</ele>
        <time>2022-05-27T07:00:59Z</time>
      </trkpt>
      <trkpt lat="48.0325" lon="6.91616">
        <ele>901.5</ele>
        <time>2022-05-27T07:01:03Z</time>
      </trkpt>
      <trkpt lat="48.03241" lon="6.91608">
        <ele>902.3</ele>
        <time>2022-05-27T07:01:07Z</time>
      </trkpt>
      <trkpt lat="48.03232" lon="6.91602">
        <ele>902.9</ele>
        <time>2022-05-27T07:01:11Z</time>
      </trkpt>
      <trkpt lat="48.03223" lon="6.91597">
        <ele>903.4</ele>
        <time>2022-05-27T07:01:15Z</time>
      </trkpt>
      <trkpt lat="48.03214" lon="6.91591">
        <ele>904.7</ele>
        <time>2022-05-27T07:01:20Z</time>
      </trkpt>
      <trkpt lat="48.03204" lon="6.91585">
        <ele>905.3</ele>
        <time>2022-05-27T07:01:25Z</time>
      </trkpt>
      <trkpt lat="48.03194" lon="6.9158">
        <ele>905.9</ele>
        <time>2022-05-27T07:01:30Z</time>
      </trkpt>
      <trkpt lat="48.03184" lon="6.91574">
        <ele>907.1</ele>
        <time>2022-05-27T07:01:35Z</time>
      </trkpt>
      <trkpt lat="48.03175" lon="6.91569">
        <ele>907.7</ele>
        <time>2022-05-27T07:01:39Z</time>
      </trkpt>
      <trkpt lat="48.03167" lon="6.91564">
        <ele>908.7</ele>
        <time>2022-05-27T07:01:43Z</time>
      </trkpt>
      <trkpt lat="48.03158" lon="6.91559">
        <ele>909.7</ele>
        <time>2022-05-27T07:01:47Z</time>
      </trkpt>
      <trkpt lat="48.03149" lon="6.91554">
        <ele>910.7</ele>
        <time>2022-05-27T07:01:51Z</time>
      </trkpt>
      <trkpt lat="48.03139" lon="6.91549">
        <ele>910.7</ele>
        <time>2022-05-27T07:01:55Z</time>
      </trkpt>
      <trkpt lat="48.03129" lon="6.91544">
        <ele>911.4</ele>
        <time>2022-05-27T07:01:59Z</time>
      </trkpt>
      <trkpt lat="48.03118" lon="6.91538">
        <ele>911.8</ele>
        <time>2022-05-27T07:02:03Z</time>
      </trkpt>
      <trkpt lat="48.0311" lon="6.91532">
        <ele>912.6</ele>
        <time>2022-05-27T07:02:06Z</time>
      </trkpt>
      <trkpt lat="48.03101" lon="6.91526">
        <ele>912.8</ele>
        <time>2022-05-27T07:02:09Z</time>
      </trkpt>
      <trkpt lat="48.03092" lon="6.91518">
        <ele>912.7</ele>
        <time>2022-05-27T07:02:12Z</time>
      </trkpt>
      <trkpt lat="48.03083" lon="6.9151">
        <ele>912.7</ele>
        <time>2022-05-27T07:02:15Z</time>
      </trkpt>
      <trkpt lat="48.03074" lon="6.91501">
        <ele>913</ele>
        <time>2022-05-27T07:02:18Z</time>
      </trkpt>
      <trkpt lat="48.03067" lon="6.91493">
        <ele>913.1</ele>
        <time>2022-05-27T07:02:21Z</time>
      </trkpt>
      <trkpt lat="48.0306" lon="6.91484">
        <ele>912.9</ele>
        <time>2022-05-27T07:02:24Z</time>
      </trkpt>
      <trkpt lat="48.03052" lon="6.91475">
        <ele>912.9</ele>
        <time>2022-05-27T07:02:27Z</time>
      </trkpt>
      <trkpt lat="48.03044" lon="6.91465">
        <ele>913</ele>
        <time>2022-05-27T07:02:30Z</time>
      </trkpt>
      <trkpt lat="48.03036" lon="6.91457">
        <ele>912.9</ele>
        <time>2022-05-27T07:02:33Z</time>
      </trkpt>
      <trkpt lat="48.03027" lon="6.9145">
        <ele>912.9</ele>
        <time>2022-05-27T07:02:36Z</time>
      </trkpt>
      <trkpt lat="48.03017" lon="6.9144">
        <ele>913.2</ele>
        <time>2022-05-27T07:02:39Z</time>
      </trkpt>
      <trkpt lat="48.03007" lon="6.91432">
        <ele>912.8</ele>
        <time>2022-05-27T07:02:42Z</time>
      </trkpt>
      <trkpt lat="48.02997" lon="6.91424">
        <ele>912.7</ele>
        <time>2022-05-27T07:02:45Z</time>
      </trkpt>
      <trkpt lat="48.02987" lon="6.91415">
        <ele>912.6</ele>
        <time>2022-05-27T07:02:48Z</time>
      </trkpt>
      <trkpt lat="48.02978" lon="6.91405">
        <ele>913.1</ele>
        <time>2022-05-27T07:02:51Z</time>
      </trkpt>
      <trkpt lat="48.02969" lon="6.91395">
        <ele>913.9</ele>
        <time>2022-05-27T07:02:54Z</time>
      </trkpt>
      <trkpt lat="48.02961" lon="6.91385">
        <ele>914.1</ele>
        <time>2022-05-27T07:02:57Z</time>
      </trkpt>
      <trkpt lat="48.02953" lon="6.91377">
        <ele>914.6</ele>
        <time>2022-05-27T07:03:00Z</time>
      </trkpt>
      <trkpt lat="48.02944" lon="6.91366">
        <ele>915.7</ele>
        <time>2022-05-27T07:03:04Z</time>
      </trkpt>
      <trkpt lat="48.02936" lon="6.91356">
        <ele>917.1</ele>
        <time>2022-05-27T07:03:08Z</time>
      </trkpt>
      <trkpt lat="48.02929" lon="6.91347">
        <ele>917.7</ele>
        <time>2022-05-27T07:03:11Z</time>
      </trkpt>
      <trkpt lat="48.02922" lon="6.91338">
        <ele>918.3</ele>
        <time>2022-05-27T07:03:14Z</time>
      </trkpt>
      <trkpt lat="48.02913" lon="6.91326">
        <ele>918.6</ele>
        <time>2022-05-27T07:03:18Z</time>
      </trkpt>
      <trkpt lat="48.02905" lon="6.91313">
        <ele>919.6</ele>
        <time>2022-05-27T07:03:22Z</time>
      </trkpt>
      <trkpt lat="48.02898" lon="6.91302">
        <ele>919.8</ele>
        <time>2022-05-27T07:03:25Z</time>
      </trkpt>
      <trkpt lat="48.02892" lon="6.91289">
        <ele>919.6</ele>
        <time>2022-05-27T07:03:28Z</time>
      </trkpt>
      <trkpt lat="48.02886" lon="6.91273">
        <ele>919.6</ele>
        <time>2022-05-27T07:03:31Z</time>
      </trkpt>
      <trkpt lat="48.02881" lon="6.91257">
        <ele>919.9</ele>
        <time>2022-05-27T07:03:34Z</time>
      </trkpt>
      <trkpt lat="48.02876" lon="6.91241">
        <ele>919.8</ele>
        <time>2022-05-27T07:03:37Z</time>
      </trkpt>
      <trkpt lat="48.02871" lon="6.91226">
        <ele>919.3</ele>
        <time>2022-05-27T07:03:40Z</time>
      </trkpt>
      <trkpt lat="48.02866" lon="6.91211">
        <ele>919.2</ele>
        <time>2022-05-27T07:03:43Z</time>
      </trkpt>
      <trkpt lat="48.02861" lon="6.91195">
        <ele>919.1</ele>
        <time>2022-05-27T07:03:46Z</time>
      </trkpt>
      <trkpt lat="48.02856" lon="6.91177">
        <ele>918.4</ele>
        <time>2022-05-27T07:03:49Z</time>
      </trkpt>
      <trkpt lat="48.02852" lon="6.91165">
        <ele>918.1</ele>
        <time>2022-05-27T07:03:51Z</time>
      </trkpt>
      <trkpt lat="48.02848" lon="6.91152">
        <ele>918</ele>
        <time>2022-05-27T07:03:53Z</time>
      </trkpt>
      <trkpt lat="48.02843" lon="6.91138">
        <ele>917.5</ele>
        <time>2022-05-27T07:03:55Z</time>
      </trkpt>
      <trkpt lat="48.02838" lon="6.91124">
        <ele>916.4</ele>
        <time>2022-05-27T07:03:57Z</time>
      </trkpt>
      <trkpt lat="48.02834" lon="6.91109">
        <ele>916.5</ele>
        <time>2022-05-27T07:03:59Z</time>
      </trkpt>
      <trkpt lat="48.02829" lon="6.91093">
        <ele>916.6</ele>
        <time>2022-05-27T07:04:01Z</time>
      </trkpt>
      <trkpt lat="48.02826" lon="6.91078">
        <ele>916.4</ele>
        <time>2022-05-27T07:04:03Z</time>
      </trkpt>
      <trkpt lat="48.02822" lon="6.91064">
        <ele>916.3</ele>
        <time>2022-05-27T07:04:05Z</time>
      </trkpt>
      <trkpt lat="48.02818" lon="6.9105">
        <ele>915.6</ele>
        <time>2022-05-27T07:04:07Z</time>
      </trkpt>
      <trkpt lat="48.02814" lon="6.91037">
        <ele>915.9</ele>
        <time>2022-05-27T07:04:09Z</time>
      </trkpt>
      <trkpt lat="48.0281" lon="6.91022">
        <ele>915.7</ele>
        <time>2022-05-27T07:04:12Z</time>
      </trkpt>
      <trkpt lat="48.02806" lon="6.91008">
        <ele>914.7</ele>
        <time>2022-05-27T07:04:24Z</time>
      </trkpt>
      <trkpt lat="48.02806" lon="6.91021">
        <ele>915.2</ele>
        <time>2022-05-27T07:04:32Z</time>
      </trkpt>
      <trkpt lat="48.02809" lon="6.91027">
        <ele>915.4</ele>
        <time>2022-05-27T07:04:38Z</time>
      </trkpt>
      <trkpt lat="48.02811" lon="6.91032">
        <ele>915.7</ele>
        <time>2022-05-27T07:05:05Z</time>
      </trkpt>
      <trkpt lat="48.02812" lon="6.91032">
        <ele>915.9</ele>
        <time>2022-05-27T07:06:06Z</time>
      </trkpt>
      <trkpt lat="48.0281" lon="6.91017">
        <ele>915.1</ele>
        <time>2022-05-27T07:06:14Z</time>
      </trkpt>
      <trkpt lat="48.02805" lon="6.91004">
        <ele>914.5</ele>
        <time>2022-05-27T07:06:19Z</time>
      </trkpt>
      <trkpt lat="48.02799" lon="6.90987">
        <ele>912.4</ele>
        <time>2022-05-27T07:06:22Z</time>
      </trkpt>
      <trkpt lat="48.02793" lon="6.90971">
        <ele>911.2</ele>
        <time>2022-05-27T07:06:24Z</time>
      </trkpt>
      <trkpt lat="48.02785" lon="6.90953">
        <ele>909.4</ele>
        <time>2022-05-27T07:06:26Z</time>
      </trkpt>
      <trkpt lat="48.02776" lon="6.90931">
        <ele>907.5</ele>
        <time>2022-05-27T07:06:28Z</time>
      </trkpt>
      <trkpt lat="48.02772" lon="6.90919">
        <ele>906.4</ele>
        <time>2022-05-27T07:06:29Z</time>
      </trkpt>
      <trkpt lat="48.02768" lon="6.90906">
        <ele>905</ele>
        <time>2022-05-27T07:06:30Z</time>
      </trkpt>
      <trkpt lat="48.02765" lon="6.90891">
        <ele>903.6</ele>
        <time>2022-05-27T07:06:31Z</time>
      </trkpt>
      <trkpt lat="48.02763" lon="6.90875">
        <ele>902.3</ele>
        <time>2022-05-27T07:06:32Z</time>
      </trkpt>
      <trkpt lat="48.0276" lon="6.90859">
        <ele>901.6</ele>
        <time>2022-05-27T07:06:33Z</time>
      </trkpt>
      <trkpt lat="48.02758" lon="6.90842">
        <ele>900.5</ele>
        <time>2022-05-27T07:06:34Z</time>
      </trkpt>
      <trkpt lat="48.02755" lon="6.90825">
        <ele>899</ele>
        <time>2022-05-27T07:06:35Z</time>
      </trkpt>
      <trkpt lat="48.02751" lon="6.90808">
        <ele>898.1</ele>
        <time>2022-05-27T07:06:36Z</time>
      </trkpt>
      <trkpt lat="48.02747" lon="6.90791">
        <ele>897.2</ele>
        <time>2022-05-27T07:06:37Z</time>
      </trkpt>
      <trkpt lat="48.02742" lon="6.90776">
        <ele>896.6</ele>
        <time>2022-05-27T07:06:38Z</time>
      </trkpt>
      <trkpt lat="48.02735" lon="6.90761">
        <ele>895.2</ele>
        <time>2022-05-27T07:06:39Z</time>
      </trkpt>
      <trkpt lat="48.02727" lon="6.90747">
        <ele>894.2</ele>
        <time>2022-05-27T07:06:40Z</time>
      </trkpt>
      <trkpt lat="48.0272" lon="6.90733">
        <ele>893.2</ele>
        <time>2022-05-27T07:06:41Z</time>
      </trkpt>
      <trkpt lat="48.02714" lon="6.90717">
        <ele>892.4</ele>
        <time>2022-05-27T07:06:42Z</time>
      </trkpt>
      <trkpt lat="48.02711" lon="6.90701">
        <ele>892.2</ele>
        <time>2022-05-27T07:06:43Z</time>
      </trkpt>
      <trkpt lat="48.02709" lon="6.90685">
        <ele>891.9</ele>
        <time>2022-05-27T07:06:44Z</time>
      </trkpt>
      <trkpt lat="48.02706" lon="6.90671">
        <ele>892.4</ele>
        <time>2022-05-27T07:06:45Z</time>
      </trkpt>
      <trkpt lat="48.02703" lon="6.90657">
        <ele>892.5</ele>
        <time>2022-05-27T07:06:46Z</time>
      </trkpt>
      <trkpt lat="48.02697" lon="6.90646">
        <ele>892.1</ele>
        <time>2022-05-27T07:06:47Z</time>
      </trkpt>
      <trkpt lat="48.02684" lon="6.90629">
        <ele>892.2</ele>
        <time>2022-05-27T07:06:49Z</time>
      </trkpt>
      <trkpt lat="48.02672" lon="6.9061">
        <ele>891</ele>
        <time>2022-05-27T07:06:51Z</time>
      </trkpt>
      <trkpt lat="48.02666" lon="6.90601">
        <ele>890</ele>
        <time>2022-05-27T07:06:52Z</time>
      </trkpt>
      <trkpt lat="48.02659" lon="6.90591">
        <ele>889.1</ele>
        <time>2022-05-27T07:06:53Z</time>
      </trkpt>
      <trkpt lat="48.02653" lon="6.90581">
        <ele>888</ele>
        <time>2022-05-27T07:06:54Z</time>
      </trkpt>
      <trkpt lat="48.02646" lon="6.90572">
        <ele>887.1</ele>
        <time>2022-05-27T07:06:55Z</time>
      </trkpt>
      <trkpt lat="48.02633" lon="6.90555">
        <ele>889.1</ele>
        <time>2022-05-27T07:06:57Z</time>
      </trkpt>
      <trkpt lat="48.02621" lon="6.90539">
        <ele>889.7</ele>
        <time>2022-05-27T07:06:59Z</time>
      </trkpt>
      <trkpt lat="48.02611" lon="6.90526">
        <ele>889.3</ele>
        <time>2022-05-27T07:07:01Z</time>
      </trkpt>
      <trkpt lat="48.02603" lon="6.90513">
        <ele>889.9</ele>
        <time>2022-05-27T07:07:03Z</time>
      </trkpt>
      <trkpt lat="48.02596" lon="6.90501">
        <ele>890.2</ele>
        <time>2022-05-27T07:07:05Z</time>
      </trkpt>
      <trkpt lat="48.0259" lon="6.9049">
        <ele>890.6</ele>
        <time>2022-05-27T07:07:07Z</time>
      </trkpt>
      <trkpt lat="48.02584" lon="6.90479">
        <ele>890.8</ele>
        <time>2022-05-27T07:07:09Z</time>
      </trkpt>
      <trkpt lat="48.02577" lon="6.90468">
        <ele>892.1</ele>
        <time>2022-05-27T07:07:11Z</time>
      </trkpt>
      <trkpt lat="48.0257" lon="6.90457">
        <ele>891.2</ele>
        <time>2022-05-27T07:07:13Z</time>
      </trkpt>
      <trkpt lat="48.02564" lon="6.90445">
        <ele>891.1</ele>
        <time>2022-05-27T07:07:15Z</time>
      </trkpt>
      <trkpt lat="48.0256" lon="6.90432">
        <ele>891.4</ele>
        <time>2022-05-27T07:07:17Z</time>
      </trkpt>
      <trkpt lat="48.02556" lon="6.90419">
        <ele>891.5</ele>
        <time>2022-05-27T07:07:19Z</time>
      </trkpt>
      <trkpt lat="48.02552" lon="6.90405">
        <ele>891.9</ele>
        <time>2022-05-27T07:07:21Z</time>
      </trkpt>
      <trkpt lat="48.02548" lon="6.90392">
        <ele>891.6</ele>
        <time>2022-05-27T07:07:23Z</time>
      </trkpt>
      <trkpt lat="48.02542" lon="6.90378">
        <ele>890.3</ele>
        <time>2022-05-27T07:07:25Z</time>
      </trkpt>
      <trkpt lat="48.02535" lon="6.90363">
        <ele>889.3</ele>
        <time>2022-05-27T07:07:27Z</time>
      </trkpt>
      <trkpt lat="48.02527" lon="6.90346">
        <ele>889.2</ele>
        <time>2022-05-27T07:07:29Z</time>
      </trkpt>
      <trkpt lat="48.0252" lon="6.90328">
        <ele>888.6</ele>
        <time>2022-05-27T07:07:31Z</time>
      </trkpt>
      <trkpt lat="48.02511" lon="6.90308">
        <ele>886.5</ele>
        <time>2022-05-27T07:07:33Z</time>
      </trkpt>
      <trkpt lat="48.02502" lon="6.90287">
        <ele>885</ele>
        <time>2022-05-27T07:07:35Z</time>
      </trkpt>
      <trkpt lat="48.02493" lon="6.90267">
        <ele>885</ele>
        <time>2022-05-27T07:07:37Z</time>
      </trkpt>
      <trkpt lat="48.02485" lon="6.90246">
        <ele>884.2</ele>
        <time>2022-05-27T07:07:39Z</time>
      </trkpt>
      <trkpt lat="48.0248" lon="6.90225">
        <ele>883.6</ele>
        <time>2022-05-27T07:07:41Z</time>
      </trkpt>
      <trkpt lat="48.02477" lon="6.90204">
        <ele>883.3</ele>
        <time>2022-05-27T07:07:43Z</time>
      </trkpt>
      <trkpt lat="48.02474" lon="6.90185">
        <ele>883.7</ele>
        <time>2022-05-27T07:07:45Z</time>
      </trkpt>
      <trkpt lat="48.02473" lon="6.90169">
        <ele>884.5</ele>
        <time>2022-05-27T07:07:47Z</time>
      </trkpt>
      <trkpt lat="48.02477" lon="6.90152">
        <ele>885.1</ele>
        <time>2022-05-27T07:07:50Z</time>
      </trkpt>
      <trkpt lat="48.02486" lon="6.90142">
        <ele>885.8</ele>
        <time>2022-05-27T07:07:53Z</time>
      </trkpt>
      <trkpt lat="48.02489" lon="6.90128">
        <ele>886.1</ele>
        <time>2022-05-27T07:07:56Z</time>
      </trkpt>
      <trkpt lat="48.02488" lon="6.90111">
        <ele>886</ele>
        <time>2022-05-27T07:07:59Z</time>
      </trkpt>
      <trkpt lat="48.02486" lon="6.90096">
        <ele>886.8</ele>
        <time>2022-05-27T07:08:02Z</time>
      </trkpt>
      <trkpt lat="48.02485" lon="6.9008">
        <ele>886.8</ele>
        <time>2022-05-27T07:08:05Z</time>
      </trkpt>
      <trkpt lat="48.02484" lon="6.90065">
        <ele>887.3</ele>
        <time>2022-05-27T07:08:08Z</time>
      </trkpt>
      <trkpt lat="48.02484" lon="6.90051">
        <ele>888.1</ele>
        <time>2022-05-27T07:08:11Z</time>
      </trkpt>
      <trkpt lat="48.02483" lon="6.90033">
        <ele>888.9</ele>
        <time>2022-05-27T07:08:15Z</time>
      </trkpt>
      <trkpt lat="48.02484" lon="6.90016">
        <ele>889.9</ele>
        <time>2022-05-27T07:08:19Z</time>
      </trkpt>
      <trkpt lat="48.02484" lon="6.9">
        <ele>890.8</ele>
        <time>2022-05-27T07:08:23Z</time>
      </trkpt>
      <trkpt lat="48.02484" lon="6.89984">
        <ele>891.9</ele>
        <time>2022-05-27T07:08:27Z</time>
      </trkpt>
      <trkpt lat="48.02484" lon="6.89969">
        <ele>891.9</ele>
        <time>2022-05-27T07:08:31Z</time>
      </trkpt>
      <trkpt lat="48.02485" lon="6.89952">
        <ele>892.9</ele>
        <time>2022-05-27T07:08:35Z</time>
      </trkpt>
      <trkpt lat="48.02485" lon="6.89935">
        <ele>893.5</ele>
        <time>2022-05-27T07:08:39Z</time>
      </trkpt>
      <trkpt lat="48.02485" lon="6.89918">
        <ele>894.4</ele>
        <time>2022-05-27T07:08:43Z</time>
      </trkpt>
      <trkpt lat="48.02486" lon="6.899">
        <ele>894.6</ele>
        <time>2022-05-27T07:08:47Z</time>
      </trkpt>
      <trkpt lat="48.02486" lon="6.89883">
        <ele>895.5</ele>
        <time>2022-05-27T07:08:51Z</time>
      </trkpt>
      <trkpt lat="48.02487" lon="6.89866">
        <ele>896.8</ele>
        <time>2022-05-27T07:08:55Z</time>
      </trkpt>
      <trkpt lat="48.02488" lon="6.89849">
        <ele>897.4</ele>
        <time>2022-05-27T07:08:59Z</time>
      </trkpt>
      <trkpt lat="48.02489" lon="6.89831">
        <ele>898.2</ele>
        <time>2022-05-27T07:09:03Z</time>
      </trkpt>
      <trkpt lat="48.02491" lon="6.89814">
        <ele>898.8</ele>
        <time>2022-05-27T07:09:07Z</time>
      </trkpt>
      <trkpt lat="48.02493" lon="6.89799">
        <ele>899.2</ele>
        <time>2022-05-27T07:09:11Z</time>
      </trkpt>
      <trkpt lat="48.02494" lon="6.89785">
        <ele>899.8</ele>
        <time>2022-05-27T07:09:15Z</time>
      </trkpt>
      <trkpt lat="48.02496" lon="6.89769">
        <ele>900.8</ele>
        <time>2022-05-27T07:09:19Z</time>
      </trkpt>
      <trkpt lat="48.02499" lon="6.89753">
        <ele>901.6</ele>
        <time>2022-05-27T07:09:23Z</time>
      </trkpt>
      <trkpt lat="48.02503" lon="6.89739">
        <ele>902.5</ele>
        <time>2022-05-27T07:09:27Z</time>
      </trkpt>
      <trkpt lat="48.02508" lon="6.89726">
        <ele>903.2</ele>
        <time>2022-05-27T07:09:31Z</time>
      </trkpt>
      <trkpt lat="48.02514" lon="6.89714">
        <ele>903.8</ele>
        <time>2022-05-27T07:09:35Z</time>
      </trkpt>
      <trkpt lat="48.02521" lon="6.89701">
        <ele>904.5</ele>
        <time>2022-05-27T07:09:39Z</time>
      </trkpt>
      <trkpt lat="48.02528" lon="6.89689">
        <ele>904.7</ele>
        <time>2022-05-27T07:09:43Z</time>
      </trkpt>
      <trkpt lat="48.02535" lon="6.89678">
        <ele>905.3</ele>
        <time>2022-05-27T07:09:47Z</time>
      </trkpt>
      <trkpt lat="48.02542" lon="6.89665">
        <ele>906.1</ele>
        <time>2022-05-27T07:09:51Z</time>
      </trkpt>
      <trkpt lat="48.0255" lon="6.89652">
        <ele>906.5</ele>
        <time>2022-05-27T07:09:55Z</time>
      </trkpt>
      <trkpt lat="48.02556" lon="6.89642">
        <ele>907.2</ele>
        <time>2022-05-27T07:09:58Z</time>
      </trkpt>
      <trkpt lat="48.02564" lon="6.89633">
        <ele>907.4</ele>
        <time>2022-05-27T07:10:01Z</time>
      </trkpt>
      <trkpt lat="48.02571" lon="6.89626">
        <ele>907.5</ele>
        <time>2022-05-27T07:10:04Z</time>
      </trkpt>
      <trkpt lat="48.0258" lon="6.8962">
        <ele>908.3</ele>
        <time>2022-05-27T07:10:07Z</time>
      </trkpt>
      <trkpt lat="48.02591" lon="6.89615">
        <ele>908.7</ele>
        <time>2022-05-27T07:10:11Z</time>
      </trkpt>
      <trkpt lat="48.02602" lon="6.89611">
        <ele>909.8</ele>
        <time>2022-05-27T07:10:15Z</time>
      </trkpt>
      <trkpt lat="48.02611" lon="6.89609">
        <ele>910</ele>
        <time>2022-05-27T07:10:18Z</time>
      </trkpt>
      <trkpt lat="48.02622" lon="6.89603">
        <ele>910.8</ele>
        <time>2022-05-27T07:10:22Z</time>
      </trkpt>
      <trkpt lat="48.02633" lon="6.89598">
        <ele>911.5</ele>
        <time>2022-05-27T07:10:26Z</time>
      </trkpt>
      <trkpt lat="48.02643" lon="6.89593">
        <ele>912.4</ele>
        <time>2022-05-27T07:10:30Z</time>
      </trkpt>
      <trkpt lat="48.02653" lon="6.89588">
        <ele>913.7</ele>
        <time>2022-05-27T07:10:34Z</time>
      </trkpt>
      <trkpt lat="48.02664" lon="6.89582">
        <ele>913.8</ele>
        <time>2022-05-27T07:10:38Z</time>
      </trkpt>
      <trkpt lat="48.02675" lon="6.89575">
        <ele>914.4</ele>
        <time>2022-05-27T07:10:42Z</time>
      </trkpt>
      <trkpt lat="48.02683" lon="6.89569">
        <ele>915.2</ele>
        <time>2022-05-27T07:10:45Z</time>
      </trkpt>
      <trkpt lat="48.02692" lon="6.89562">
        <ele>916.1</ele>
        <time>2022-05-27T07:10:48Z</time>
      </trkpt>
      <trkpt lat="48.02699" lon="6.89555">
        <ele>916.6</ele>
        <time>2022-05-27T07:10:51Z</time>
      </trkpt>
      <trkpt lat="48.02707" lon="6.89547">
        <ele>917</ele>
        <time>2022-05-27T07:10:54Z</time>
      </trkpt>
      <trkpt lat="48.02713" lon="6.89537">
        <ele>917.6</ele>
        <time>2022-05-27T07:10:57Z</time>
      </trkpt>
      <trkpt lat="48.02718" lon="6.89521">
        <ele>918.2</ele>
        <time>2022-05-27T07:11:01Z</time>
      </trkpt>
      <trkpt lat="48.0272" lon="6.89508">
        <ele>918.5</ele>
        <time>2022-05-27T07:11:04Z</time>
      </trkpt>
      <trkpt lat="48.02721" lon="6.89494">
        <ele>919</ele>
        <time>2022-05-27T07:11:07Z</time>
      </trkpt>
      <trkpt lat="48.02721" lon="6.89479">
        <ele>919.5</ele>
        <time>2022-05-27T07:11:10Z</time>
      </trkpt>
      <trkpt lat="48.02721" lon="6.89463">
        <ele>920</ele>
        <time>2022-05-27T07:11:13Z</time>
      </trkpt>
      <trkpt lat="48.0272" lon="6.89448">
        <ele>920.7</ele>
        <time>2022-05-27T07:11:16Z</time>
      </trkpt>
      <trkpt lat="48.02719" lon="6.89432">
        <ele>921</ele>
        <time>2022-05-27T07:11:19Z</time>
      </trkpt>
      <trkpt lat="48.02719" lon="6.89418">
        <ele>921.4</ele>
        <time>2022-05-27T07:11:22Z</time>
      </trkpt>
      <trkpt lat="48.02718" lon="6.89403">
        <ele>921.9</ele>
        <time>2022-05-27T07:11:25Z</time>
      </trkpt>
      <trkpt lat="48.02717" lon="6.89389">
        <ele>922.7</ele>
        <time>2022-05-27T07:11:28Z</time>
      </trkpt>
      <trkpt lat="48.02717" lon="6.89374">
        <ele>923</ele>
        <time>2022-05-27T07:11:31Z</time>
      </trkpt>
      <trkpt lat="48.02716" lon="6.8936">
        <ele>923.3</ele>
        <time>2022-05-27T07:11:34Z</time>
      </trkpt>
      <trkpt lat="48.02716" lon="6.89346">
        <ele>924.5</ele>
        <time>2022-05-27T07:11:37Z</time>
      </trkpt>
      <trkpt lat="48.02715" lon="6.89332">
        <ele>924.5</ele>
        <time>2022-05-27T07:11:40Z</time>
      </trkpt>
      <trkpt lat="48.02714" lon="6.89317">
        <ele>925.1</ele>
        <time>2022-05-27T07:11:43Z</time>
      </trkpt>
      <trkpt lat="48.02713" lon="6.89302">
        <ele>926</ele>
        <time>2022-05-27T07:11:46Z</time>
      </trkpt>
      <trkpt lat="48.02712" lon="6.89287">
        <ele>926.4</ele>
        <time>2022-05-27T07:11:49Z</time>
      </trkpt>
      <trkpt lat="48.02711" lon="6.89273">
        <ele>927</ele>
        <time>2022-05-27T07:11:52Z</time>
      </trkpt>
      <trkpt lat="48.0271" lon="6.89258">
        <ele>927.4</ele>
        <time>2022-05-27T07:11:55Z</time>
      </trkpt>
      <trkpt lat="48.02708" lon="6.89242">
        <ele>927.8</ele>
        <time>2022-05-27T07:11:58Z</time>
      </trkpt>
      <trkpt lat="48.02707" lon="6.89227">
        <ele>928.2</ele>
        <time>2022-05-27T07:12:01Z</time>
      </trkpt>
      <trkpt lat="48.02706" lon="6.89211">
        <ele>929</ele>
        <time>2022-05-27T07:12:04Z</time>
      </trkpt>
      <trkpt lat="48.02704" lon="6.89196">
        <ele>930</ele>
        <time>2022-05-27T07:12:07Z</time>
      </trkpt>
      <trkpt lat="48.02703" lon="6.89181">
        <ele>930.2</ele>
        <time>2022-05-27T07:12:10Z</time>
      </trkpt>
      <trkpt lat="48.02702" lon="6.89166">
        <ele>930.8</ele>
        <time>2022-05-27T07:12:13Z</time>
      </trkpt>
      <trkpt lat="48.02701" lon="6.8915">
        <ele>930.8</ele>
        <time>2022-05-27T07:12:16Z</time>
      </trkpt>
      <trkpt lat="48.027" lon="6.89136">
        <ele>931.5</ele>
        <time>2022-05-27T07:12:19Z</time>
      </trkpt>
      <trkpt lat="48.02698" lon="6.89121">
        <ele>932.5</ele>
        <time>2022-05-27T07:12:22Z</time>
      </trkpt>
      <trkpt lat="48.02697" lon="6.89106">
        <ele>932.6</ele>
        <time>2022-05-27T07:12:25Z</time>
      </trkpt>
      <trkpt lat="48.02696" lon="6.89092">
        <ele>933.1</ele>
        <time>2022-05-27T07:12:28Z</time>
      </trkpt>
      <trkpt lat="48.02695" lon="6.89077">
        <ele>933.6</ele>
        <time>2022-05-27T07:12:31Z</time>
      </trkpt>
      <trkpt lat="48.02693" lon="6.89062">
        <ele>934.2</ele>
        <time>2022-05-27T07:12:34Z</time>
      </trkpt>
      <trkpt lat="48.02692" lon="6.89047">
        <ele>934.5</ele>
        <time>2022-05-27T07:12:37Z</time>
      </trkpt>
      <trkpt lat="48.02691" lon="6.89033">
        <ele>935.1</ele>
        <time>2022-05-27T07:12:40Z</time>
      </trkpt>
      <trkpt lat="48.02689" lon="6.89018">
        <ele>935.8</ele>
        <time>2022-05-27T07:12:43Z</time>
      </trkpt>
      <trkpt lat="48.02687" lon="6.89004">
        <ele>936.1</ele>
        <time>2022-05-27T07:12:46Z</time>
      </trkpt>
      <trkpt lat="48.02684" lon="6.8899">
        <ele>936.7</ele>
        <time>2022-05-27T07:12:49Z</time>
      </trkpt>
      <trkpt lat="48.02681" lon="6.88976">
        <ele>937.1</ele>
        <time>2022-05-27T07:12:52Z</time>
      </trkpt>
      <trkpt lat="48.02679" lon="6.88962">
        <ele>937.5</ele>
        <time>2022-05-27T07:12:55Z</time>
      </trkpt>
      <trkpt lat="48.02676" lon="6.88948">
        <ele>937.8</ele>
        <time>2022-05-27T07:12:58Z</time>
      </trkpt>
      <trkpt lat="48.02673" lon="6.88934">
        <ele>938.8</ele>
        <time>2022-05-27T07:13:01Z</time>
      </trkpt>
      <trkpt lat="48.0267" lon="6.8892">
        <ele>939</ele>
        <time>2022-05-27T07:13:04Z</time>
      </trkpt>
      <trkpt lat="48.02668" lon="6.88906">
        <ele>939.6</ele>
        <time>2022-05-27T07:13:07Z</time>
      </trkpt>
      <trkpt lat="48.02665" lon="6.88892">
        <ele>940</ele>
        <time>2022-05-27T07:13:10Z</time>
      </trkpt>
      <trkpt lat="48.02662" lon="6.88878">
        <ele>940.6</ele>
        <time>2022-05-27T07:13:13Z</time>
      </trkpt>
      <trkpt lat="48.02659" lon="6.88864">
        <ele>941.4</ele>
        <time>2022-05-27T07:13:16Z</time>
      </trkpt>
      <trkpt lat="48.02656" lon="6.8885">
        <ele>941.5</ele>
        <time>2022-05-27T07:13:19Z</time>
      </trkpt>
      <trkpt lat="48.02653" lon="6.88836">
        <ele>942.5</ele>
        <time>2022-05-27T07:13:22Z</time>
      </trkpt>
      <trkpt lat="48.02651" lon="6.88822">
        <ele>943.5</ele>
        <time>2022-05-27T07:13:25Z</time>
      </trkpt>
      <trkpt lat="48.02647" lon="6.88808">
        <ele>943.9</ele>
        <time>2022-05-27T07:13:28Z</time>
      </trkpt>
      <trkpt lat="48.02645" lon="6.88794">
        <ele>944.6</ele>
        <time>2022-05-27T07:13:31Z</time>
      </trkpt>
      <trkpt lat="48.02642" lon="6.88781">
        <ele>945.2</ele>
        <time>2022-05-27T07:13:34Z</time>
      </trkpt>
      <trkpt lat="48.02639" lon="6.88768">
        <ele>945.4</ele>
        <time>2022-05-27T07:13:37Z</time>
      </trkpt>
      <trkpt lat="48.02635" lon="6.88756">
        <ele>945.7</ele>
        <time>2022-05-27T07:13:40Z</time>
      </trkpt>
      <trkpt lat="48.02632" lon="6.88742">
        <ele>946.3</ele>
        <time>2022-05-27T07:13:43Z</time>
      </trkpt>
      <trkpt lat="48.02629" lon="6.88729">
        <ele>946.6</ele>
        <time>2022-05-27T07:13:46Z</time>
      </trkpt>
      <trkpt lat="48.02625" lon="6.88714">
        <ele>948</ele>
        <time>2022-05-27T07:13:50Z</time>
      </trkpt>
      <trkpt lat="48.02623" lon="6.88699">
        <ele>949</ele>
        <time>2022-05-27T07:13:55Z</time>
      </trkpt>
      <trkpt lat="48.02623" lon="6.88684">
        <ele>949.3</ele>
        <time>2022-05-27T07:13:59Z</time>
      </trkpt>
      <trkpt lat="48.02624" lon="6.88668">
        <ele>950.1</ele>
        <time>2022-05-27T07:14:03Z</time>
      </trkpt>
      <trkpt lat="48.02626" lon="6.88651">
        <ele>951.3</ele>
        <time>2022-05-27T07:14:07Z</time>
      </trkpt>
      <trkpt lat="48.02628" lon="6.88634">
        <ele>952</ele>
        <time>2022-05-27T07:14:11Z</time>
      </trkpt>
      <trkpt lat="48.02631" lon="6.88618">
        <ele>952.9</ele>
        <time>2022-05-27T07:14:15Z</time>
      </trkpt>
      <trkpt lat="48.02635" lon="6.88602">
        <ele>953.5</ele>
        <time>2022-05-27T07:14:19Z</time>
      </trkpt>
      <trkpt lat="48.0264" lon="6.88591">
        <ele>954.8</ele>
        <time>2022-05-27T07:14:23Z</time>
      </trkpt>
      <trkpt lat="48.02633" lon="6.8858">
        <ele>954.8</ele>
        <time>2022-05-27T07:14:32Z</time>
      </trkpt>
      <trkpt lat="48.02629" lon="6.88581">
        <ele>954.6</ele>
        <time>2022-05-27T07:14:50Z</time>
      </trkpt>
      <trkpt lat="48.02629" lon="6.88581">
        <ele>954.7</ele>
        <time>2022-05-27T07:15:19Z</time>
      </trkpt>
      <trkpt lat="48.02619" lon="6.8858">
        <ele>953.3</ele>
        <time>2022-05-27T07:16:26Z</time>
      </trkpt>
      <trkpt lat="48.02614" lon="6.88572">
        <ele>953.3</ele>
        <time>2022-05-27T07:16:33Z</time>
      </trkpt>
      <trkpt lat="48.02613" lon="6.88572">
        <ele>953.3</ele>
        <time>2022-05-27T07:16:38Z</time>
      </trkpt>
      <trkpt lat="48.02613" lon="6.88573">
        <ele>953.5</ele>
        <time>2022-05-27T07:16:40Z</time>
      </trkpt>
      <trkpt lat="48.02613" lon="6.88574">
        <ele>953.4</ele>
        <time>2022-05-27T07:17:03Z</time>
      </trkpt>
      <trkpt lat="48.02613" lon="6.88574">
        <ele>953.4</ele>
        <time>2022-05-27T07:17:04Z</time>
      </trkpt>
      <trkpt lat="48.02613" lon="6.88574">
        <ele>953.7</ele>
        <time>2022-05-27T07:17:23Z</time>
      </trkpt>
      <trkpt lat="48.02612" lon="6.88574">
        <ele>953.6</ele>
        <time>2022-05-27T07:17:39Z</time>
      </trkpt>
      <trkpt lat="48.02612" lon="6.88575">
        <ele>953.9</ele>
        <time>2022-05-27T07:18:00Z</time>
      </trkpt>
      <trkpt lat="48.02612" lon="6.88575">
        <ele>953.5</ele>
        <time>2022-05-27T07:18:07Z</time>
      </trkpt>
      <trkpt lat="48.02613" lon="6.88575">
        <ele>953.9</ele>
        <time>2022-05-27T07:18:15Z</time>
      </trkpt>
      <trkpt lat="48.02612" lon="6.88575">
        <ele>953.7</ele>
        <time>2022-05-27T07:18:34Z</time>
      </trkpt>
      <trkpt lat="48.02612" lon="6.88576">
        <ele>953.8</ele>
        <time>2022-05-27T07:19:04Z</time>
      </trkpt>
      <trkpt lat="48.02611" lon="6.88576">
        <ele>953.7</ele>
        <time>2022-05-27T07:19:08Z</time>
      </trkpt>
      <trkpt lat="48.02611" lon="6.88576">
        <ele>954</ele>
        <time>2022-05-27T07:19:10Z</time>
      </trkpt>
      <trkpt lat="48.02611" lon="6.88576">
        <ele>953.7</ele>
        <time>2022-05-27T07:19:13Z</time>
      </trkpt>
      <trkpt lat="48.0261" lon="6.88576">
        <ele>953.3</ele>
        <time>2022-05-27T07:19:17Z</time>
      </trkpt>
      <trkpt lat="48.0261" lon="6.88576">
        <ele>953.3</ele>
        <time>2022-05-27T07:19:18Z</time>
      </trkpt>
      <trkpt lat="48.0261" lon="6.88576">
        <ele>953.9</ele>
        <time>2022-05-27T07:19:22Z</time>
      </trkpt>
      <trkpt lat="48.0261" lon="6.88576">
        <ele>953.6</ele>
        <time>2022-05-27T07:19:53Z</time>
      </trkpt>
      <trkpt lat="48.02609" lon="6.88577">
        <ele>953.6</ele>
        <time>2022-05-27T07:19:54Z</time>
      </trkpt>
      <trkpt lat="48.02599" lon="6.88579">
        <ele>952.8</ele>
        <time>2022-05-27T07:19:59Z</time>
      </trkpt>
      <trkpt lat="48.02588" lon="6.88573">
        <ele>951.8</ele>
        <time>2022-05-27T07:20:03Z</time>
      </trkpt>
      <trkpt lat="48.02579" lon="6.88565">
        <ele>951.8</ele>
        <time>2022-05-27T07:20:06Z</time>
      </trkpt>
      <trkpt lat="48.02569" lon="6.88556">
        <ele>950.8</ele>
        <time>2022-05-27T07:20:09Z</time>
      </trkpt>
      <trkpt lat="48.02562" lon="6.88545">
        <ele>951.4</ele>
        <time>2022-05-27T07:20:12Z</time>
      </trkpt>
      <trkpt lat="48.02557" lon="6.8853">
        <ele>953</ele>
        <time>2022-05-27T07:20:15Z</time>
      </trkpt>
      <trkpt lat="48.02554" lon="6.88513">
        <ele>949.9</ele>
        <time>2022-05-27T07:20:18Z</time>
      </trkpt>
      <trkpt lat="48.0255" lon="6.88497">
        <ele>948.9</ele>
        <time>2022-05-27T07:20:21Z</time>
      </trkpt>
      <trkpt lat="48.02546" lon="6.88485">
        <ele>950.2</ele>
        <time>2022-05-27T07:20:24Z</time>
      </trkpt>
      <trkpt lat="48.02541" lon="6.8847">
        <ele>950.3</ele>
        <time>2022-05-27T07:20:28Z</time>
      </trkpt>
      <trkpt lat="48.02534" lon="6.8846">
        <ele>952</ele>
        <time>2022-05-27T07:20:32Z</time>
      </trkpt>
      <trkpt lat="48.02525" lon="6.88452">
        <ele>951.1</ele>
        <time>2022-05-27T07:20:36Z</time>
      </trkpt>
      <trkpt lat="48.02516" lon="6.88445">
        <ele>951.9</ele>
        <time>2022-05-27T07:20:40Z</time>
      </trkpt>
      <trkpt lat="48.02506" lon="6.88443">
        <ele>951.8</ele>
        <time>2022-05-27T07:20:44Z</time>
      </trkpt>
      <trkpt lat="48.02495" lon="6.88443">
        <ele>950.2</ele>
        <time>2022-05-27T07:20:48Z</time>
      </trkpt>
      <trkpt lat="48.02487" lon="6.8845">
        <ele>952</ele>
        <time>2022-05-27T07:20:51Z</time>
      </trkpt>
      <trkpt lat="48.02479" lon="6.88457">
        <ele>952.1</ele>
        <time>2022-05-27T07:20:54Z</time>
      </trkpt>
      <trkpt lat="48.0247" lon="6.8846">
        <ele>952.9</ele>
        <time>2022-05-27T07:20:58Z</time>
      </trkpt>
      <trkpt lat="48.02465" lon="6.88461">
        <ele>952.6</ele>
        <time>2022-05-27T07:21:03Z</time>
      </trkpt>
      <trkpt lat="48.02455" lon="6.88461">
        <ele>952</ele>
        <time>2022-05-27T07:21:14Z</time>
      </trkpt>
      <trkpt lat="48.02448" lon="6.88451">
        <ele>952.1</ele>
        <time>2022-05-27T07:21:20Z</time>
      </trkpt>
      <trkpt lat="48.0244" lon="6.88459">
        <ele>952.1</ele>
        <time>2022-05-27T07:21:24Z</time>
      </trkpt>
      <trkpt lat="48.02432" lon="6.88465">
        <ele>953.7</ele>
        <time>2022-05-27T07:21:28Z</time>
      </trkpt>
      <trkpt lat="48.02425" lon="6.88457">
        <ele>953.7</ele>
        <time>2022-05-27T07:21:32Z</time>
      </trkpt>
      <trkpt lat="48.02414" lon="6.88454">
        <ele>952.8</ele>
        <time>2022-05-27T07:21:37Z</time>
      </trkpt>
      <trkpt lat="48.02405" lon="6.88444">
        <ele>949.5</ele>
        <time>2022-05-27T07:21:40Z</time>
      </trkpt>
      <trkpt lat="48.02398" lon="6.88433">
        <ele>947.6</ele>
        <time>2022-05-27T07:21:42Z</time>
      </trkpt>
      <trkpt lat="48.0239" lon="6.88421">
        <ele>949.4</ele>
        <time>2022-05-27T07:21:45Z</time>
      </trkpt>
      <trkpt lat="48.02383" lon="6.88411">
        <ele>948.8</ele>
        <time>2022-05-27T07:21:47Z</time>
      </trkpt>
      <trkpt lat="48.02375" lon="6.88404">
        <ele>947.1</ele>
        <time>2022-05-27T07:21:49Z</time>
      </trkpt>
      <trkpt lat="48.02364" lon="6.88402">
        <ele>949.3</ele>
        <time>2022-05-27T07:21:53Z</time>
      </trkpt>
      <trkpt lat="48.02355" lon="6.88406">
        <ele>950</ele>
        <time>2022-05-27T07:21:57Z</time>
      </trkpt>
      <trkpt lat="48.02346" lon="6.88411">
        <ele>951.7</ele>
        <time>2022-05-27T07:22:01Z</time>
      </trkpt>
      <trkpt lat="48.02338" lon="6.88417">
        <ele>950.9</ele>
        <time>2022-05-27T07:22:05Z</time>
      </trkpt>
      <trkpt lat="48.02331" lon="6.88426">
        <ele>952.1</ele>
        <time>2022-05-27T07:22:09Z</time>
      </trkpt>
      <trkpt lat="48.02322" lon="6.88433">
        <ele>953</ele>
        <time>2022-05-27T07:22:14Z</time>
      </trkpt>
      <trkpt lat="48.02314" lon="6.88442">
        <ele>953.5</ele>
        <time>2022-05-27T07:22:19Z</time>
      </trkpt>
      <trkpt lat="48.02306" lon="6.8845">
        <ele>953.8</ele>
        <time>2022-05-27T07:22:24Z</time>
      </trkpt>
      <trkpt lat="48.023" lon="6.88467">
        <ele>950.8</ele>
        <time>2022-05-27T07:22:28Z</time>
      </trkpt>
      <trkpt lat="48.02296" lon="6.8848">
        <ele>948.6</ele>
        <time>2022-05-27T07:22:31Z</time>
      </trkpt>
      <trkpt lat="48.02289" lon="6.88468">
        <ele>948</ele>
        <time>2022-05-27T07:22:36Z</time>
      </trkpt>
      <trkpt lat="48.02284" lon="6.88453">
        <ele>948.1</ele>
        <time>2022-05-27T07:22:40Z</time>
      </trkpt>
      <trkpt lat="48.02276" lon="6.8844">
        <ele>948</ele>
        <time>2022-05-27T07:22:44Z</time>
      </trkpt>
      <trkpt lat="48.02269" lon="6.88432">
        <ele>947.7</ele>
        <time>2022-05-27T07:22:47Z</time>
      </trkpt>
      <trkpt lat="48.0226" lon="6.88422">
        <ele>947.9</ele>
        <time>2022-05-27T07:22:51Z</time>
      </trkpt>
      <trkpt lat="48.0225" lon="6.88413">
        <ele>947.4</ele>
        <time>2022-05-27T07:22:55Z</time>
      </trkpt>
      <trkpt lat="48.02242" lon="6.88406">
        <ele>947.2</ele>
        <time>2022-05-27T07:22:58Z</time>
      </trkpt>
      <trkpt lat="48.02231" lon="6.88399">
        <ele>947.6</ele>
        <time>2022-05-27T07:23:02Z</time>
      </trkpt>
      <trkpt lat="48.02223" lon="6.88394">
        <ele>947.2</ele>
        <time>2022-05-27T07:23:05Z</time>
      </trkpt>
      <trkpt lat="48.02213" lon="6.88388">
        <ele>947.4</ele>
        <time>2022-05-27T07:23:08Z</time>
      </trkpt>
      <trkpt lat="48.02203" lon="6.88381">
        <ele>947.4</ele>
        <time>2022-05-27T07:23:11Z</time>
      </trkpt>
      <trkpt lat="48.02193" lon="6.88372">
        <ele>947</ele>
        <time>2022-05-27T07:23:14Z</time>
      </trkpt>
      <trkpt lat="48.02185" lon="6.88366">
        <ele>947.1</ele>
        <time>2022-05-27T07:23:16Z</time>
      </trkpt>
      <trkpt lat="48.02176" lon="6.88358">
        <ele>946</ele>
        <time>2022-05-27T07:23:18Z</time>
      </trkpt>
      <trkpt lat="48.02168" lon="6.88351">
        <ele>945.9</ele>
        <time>2022-05-27T07:23:20Z</time>
      </trkpt>
      <trkpt lat="48.02159" lon="6.88343">
        <ele>945.9</ele>
        <time>2022-05-27T07:23:22Z</time>
      </trkpt>
      <trkpt lat="48.0215" lon="6.88337">
        <ele>946.3</ele>
        <time>2022-05-27T07:23:24Z</time>
      </trkpt>
      <trkpt lat="48.02141" lon="6.8833">
        <ele>946.1</ele>
        <time>2022-05-27T07:23:26Z</time>
      </trkpt>
      <trkpt lat="48.02131" lon="6.88325">
        <ele>945.4</ele>
        <time>2022-05-27T07:23:28Z</time>
      </trkpt>
      <trkpt lat="48.02122" lon="6.88319">
        <ele>945.6</ele>
        <time>2022-05-27T07:23:30Z</time>
      </trkpt>
      <trkpt lat="48.02113" lon="6.88314">
        <ele>945.5</ele>
        <time>2022-05-27T07:23:32Z</time>
      </trkpt>
      <trkpt lat="48.02103" lon="6.88309">
        <ele>945.1</ele>
        <time>2022-05-27T07:23:34Z</time>
      </trkpt>
      <trkpt lat="48.02094" lon="6.88304">
        <ele>945.3</ele>
        <time>2022-05-27T07:23:36Z</time>
      </trkpt>
      <trkpt lat="48.02085" lon="6.883">
        <ele>945.6</ele>
        <time>2022-05-27T07:23:38Z</time>
      </trkpt>
      <trkpt lat="48.02076" lon="6.88297">
        <ele>945.4</ele>
        <time>2022-05-27T07:23:40Z</time>
      </trkpt>
      <trkpt lat="48.02067" lon="6.88293">
        <ele>945.6</ele>
        <time>2022-05-27T07:23:42Z</time>
      </trkpt>
      <trkpt lat="48.02058" lon="6.88291">
        <ele>945.6</ele>
        <time>2022-05-27T07:23:44Z</time>
      </trkpt>
      <trkpt lat="48.02049" lon="6.88288">
        <ele>945.4</ele>
        <time>2022-05-27T07:23:46Z</time>
      </trkpt>
      <trkpt lat="48.0204" lon="6.88284">
        <ele>944.6</ele>
        <time>2022-05-27T07:23:48Z</time>
      </trkpt>
      <trkpt lat="48.02032" lon="6.88277">
        <ele>944.5</ele>
        <time>2022-05-27T07:23:50Z</time>
      </trkpt>
      <trkpt lat="48.02024" lon="6.8827">
        <ele>944.2</ele>
        <time>2022-05-27T07:23:52Z</time>
      </trkpt>
      <trkpt lat="48.02017" lon="6.88261">
        <ele>944.7</ele>
        <time>2022-05-27T07:23:54Z</time>
      </trkpt>
      <trkpt lat="48.0201" lon="6.88252">
        <ele>944.7</ele>
        <time>2022-05-27T07:23:56Z</time>
      </trkpt>
      <trkpt lat="48.02004" lon="6.88243">
        <ele>944.3</ele>
        <time>2022-05-27T07:23:58Z</time>
      </trkpt>
      <trkpt lat="48.01997" lon="6.88233">
        <ele>944.7</ele>
        <time>2022-05-27T07:24:00Z</time>
      </trkpt>
      <trkpt lat="48.01991" lon="6.88223">
        <ele>944.4</ele>
        <time>2022-05-27T07:24:02Z</time>
      </trkpt>
      <trkpt lat="48.01985" lon="6.88212">
        <ele>944.9</ele>
        <time>2022-05-27T07:24:04Z</time>
      </trkpt>
      <trkpt lat="48.01977" lon="6.88197">
        <ele>944.8</ele>
        <time>2022-05-27T07:24:07Z</time>
      </trkpt>
      <trkpt lat="48.0197" lon="6.88185">
        <ele>946</ele>
        <time>2022-05-27T07:24:10Z</time>
      </trkpt>
      <trkpt lat="48.01963" lon="6.88171">
        <ele>947.2</ele>
        <time>2022-05-27T07:24:14Z</time>
      </trkpt>
      <trkpt lat="48.01956" lon="6.88158">
        <ele>948.1</ele>
        <time>2022-05-27T07:24:18Z</time>
      </trkpt>
      <trkpt lat="48.01949" lon="6.88146">
        <ele>948.6</ele>
        <time>2022-05-27T07:24:22Z</time>
      </trkpt>
      <trkpt lat="48.01942" lon="6.88134">
        <ele>949.7</ele>
        <time>2022-05-27T07:24:26Z</time>
      </trkpt>
      <trkpt lat="48.01935" lon="6.88123">
        <ele>950.7</ele>
        <time>2022-05-27T07:24:30Z</time>
      </trkpt>
      <trkpt lat="48.01929" lon="6.88111">
        <ele>951.1</ele>
        <time>2022-05-27T07:24:34Z</time>
      </trkpt>
      <trkpt lat="48.01924" lon="6.88099">
        <ele>952.1</ele>
        <time>2022-05-27T07:24:38Z</time>
      </trkpt>
      <trkpt lat="48.0192" lon="6.88085">
        <ele>953.3</ele>
        <time>2022-05-27T07:24:43Z</time>
      </trkpt>
      <trkpt lat="48.01916" lon="6.8807">
        <ele>954.5</ele>
        <time>2022-05-27T07:24:48Z</time>
      </trkpt>
      <trkpt lat="48.01912" lon="6.88055">
        <ele>955.8</ele>
        <time>2022-05-27T07:24:53Z</time>
      </trkpt>
      <trkpt lat="48.01907" lon="6.88043">
        <ele>956.5</ele>
        <time>2022-05-27T07:24:57Z</time>
      </trkpt>
      <trkpt lat="48.01902" lon="6.88032">
        <ele>957</ele>
        <time>2022-05-27T07:25:01Z</time>
      </trkpt>
      <trkpt lat="48.01896" lon="6.88021">
        <ele>957.5</ele>
        <time>2022-05-27T07:25:05Z</time>
      </trkpt>
      <trkpt lat="48.01889" lon="6.88009">
        <ele>958</ele>
        <time>2022-05-27T07:25:09Z</time>
      </trkpt>
      <trkpt lat="48.01883" lon="6.87998">
        <ele>958.6</ele>
        <time>2022-05-27T07:25:13Z</time>
      </trkpt>
      <trkpt lat="48.01876" lon="6.87986">
        <ele>958.7</ele>
        <time>2022-05-27T07:25:17Z</time>
      </trkpt>
      <trkpt lat="48.01869" lon="6.87973">
        <ele>959.2</ele>
        <time>2022-05-27T07:25:21Z</time>
      </trkpt>
      <trkpt lat="48.01864" lon="6.87961">
        <ele>959</ele>
        <time>2022-05-27T07:25:24Z</time>
      </trkpt>
      <trkpt lat="48.01859" lon="6.87948">
        <ele>958.5</ele>
        <time>2022-05-27T07:25:27Z</time>
      </trkpt>
      <trkpt lat="48.01856" lon="6.87934">
        <ele>958.5</ele>
        <time>2022-05-27T07:25:30Z</time>
      </trkpt>
      <trkpt lat="48.01852" lon="6.87921">
        <ele>958.5</ele>
        <time>2022-05-27T07:25:33Z</time>
      </trkpt>
      <trkpt lat="48.01848" lon="6.87908">
        <ele>958.2</ele>
        <time>2022-05-27T07:25:36Z</time>
      </trkpt>
      <trkpt lat="48.01843" lon="6.87896">
        <ele>958.3</ele>
        <time>2022-05-27T07:25:39Z</time>
      </trkpt>
      <trkpt lat="48.01836" lon="6.87885">
        <ele>959</ele>
        <time>2022-05-27T07:25:42Z</time>
      </trkpt>
      <trkpt lat="48.0183" lon="6.87874">
        <ele>958.8</ele>
        <time>2022-05-27T07:25:45Z</time>
      </trkpt>
      <trkpt lat="48.01825" lon="6.87863">
        <ele>959.3</ele>
        <time>2022-05-27T07:25:48Z</time>
      </trkpt>
      <trkpt lat="48.0182" lon="6.87851">
        <ele>959.5</ele>
        <time>2022-05-27T07:25:51Z</time>
      </trkpt>
      <trkpt lat="48.01816" lon="6.87838">
        <ele>959.2</ele>
        <time>2022-05-27T07:25:54Z</time>
      </trkpt>
      <trkpt lat="48.01814" lon="6.87825">
        <ele>960.1</ele>
        <time>2022-05-27T07:25:57Z</time>
      </trkpt>
      <trkpt lat="48.01813" lon="6.87811">
        <ele>960.6</ele>
        <time>2022-05-27T07:26:00Z</time>
      </trkpt>
      <trkpt lat="48.01811" lon="6.87797">
        <ele>960.8</ele>
        <time>2022-05-27T07:26:03Z</time>
      </trkpt>
      <trkpt lat="48.01809" lon="6.87782">
        <ele>960.7</ele>
        <time>2022-05-27T07:26:06Z</time>
      </trkpt>
      <trkpt lat="48.01806" lon="6.87769">
        <ele>960.7</ele>
        <time>2022-05-27T07:26:09Z</time>
      </trkpt>
      <trkpt lat="48.01802" lon="6.87754">
        <ele>961.4</ele>
        <time>2022-05-27T07:26:12Z</time>
      </trkpt>
      <trkpt lat="48.01798" lon="6.87741">
        <ele>961.5</ele>
        <time>2022-05-27T07:26:15Z</time>
      </trkpt>
      <trkpt lat="48.01793" lon="6.87725">
        <ele>961.2</ele>
        <time>2022-05-27T07:26:19Z</time>
      </trkpt>
      <trkpt lat="48.01788" lon="6.87708">
        <ele>962.3</ele>
        <time>2022-05-27T07:26:23Z</time>
      </trkpt>
      <trkpt lat="48.01783" lon="6.87696">
        <ele>962.3</ele>
        <time>2022-05-27T07:26:26Z</time>
      </trkpt>
      <trkpt lat="48.01777" lon="6.87686">
        <ele>963.3</ele>
        <time>2022-05-27T07:26:29Z</time>
      </trkpt>
      <trkpt lat="48.0177" lon="6.87673">
        <ele>963.1</ele>
        <time>2022-05-27T07:26:33Z</time>
      </trkpt>
      <trkpt lat="48.01766" lon="6.87659">
        <ele>963.2</ele>
        <time>2022-05-27T07:26:36Z</time>
      </trkpt>
      <trkpt lat="48.01764" lon="6.87643">
        <ele>962.7</ele>
        <time>2022-05-27T07:26:39Z</time>
      </trkpt>
      <trkpt lat="48.01762" lon="6.87628">
        <ele>963</ele>
        <time>2022-05-27T07:26:42Z</time>
      </trkpt>
      <trkpt lat="48.01759" lon="6.87614">
        <ele>963.5</ele>
        <time>2022-05-27T07:26:45Z</time>
      </trkpt>
      <trkpt lat="48.01756" lon="6.87601">
        <ele>963.8</ele>
        <time>2022-05-27T07:26:48Z</time>
      </trkpt>
      <trkpt lat="48.0175" lon="6.87586">
        <ele>963.3</ele>
        <time>2022-05-27T07:26:51Z</time>
      </trkpt>
      <trkpt lat="48.01739" lon="6.87574">
        <ele>962.7</ele>
        <time>2022-05-27T07:26:54Z</time>
      </trkpt>
      <trkpt lat="48.01731" lon="6.87568">
        <ele>962.7</ele>
        <time>2022-05-27T07:26:56Z</time>
      </trkpt>
      <trkpt lat="48.0172" lon="6.87559">
        <ele>962.3</ele>
        <time>2022-05-27T07:26:59Z</time>
      </trkpt>
      <trkpt lat="48.01712" lon="6.87548">
        <ele>963.2</ele>
        <time>2022-05-27T07:27:02Z</time>
      </trkpt>
      <trkpt lat="48.01708" lon="6.87534">
        <ele>963.7</ele>
        <time>2022-05-27T07:27:05Z</time>
      </trkpt>
      <trkpt lat="48.01709" lon="6.87519">
        <ele>964.4</ele>
        <time>2022-05-27T07:27:09Z</time>
      </trkpt>
      <trkpt lat="48.0171" lon="6.87503">
        <ele>965.4</ele>
        <time>2022-05-27T07:27:13Z</time>
      </trkpt>
      <trkpt lat="48.01709" lon="6.87486">
        <ele>965.1</ele>
        <time>2022-05-27T07:27:17Z</time>
      </trkpt>
      <trkpt lat="48.01707" lon="6.87473">
        <ele>965.9</ele>
        <time>2022-05-27T07:27:20Z</time>
      </trkpt>
      <trkpt lat="48.01709" lon="6.87456">
        <ele>966.5</ele>
        <time>2022-05-27T07:27:24Z</time>
      </trkpt>
      <trkpt lat="48.01714" lon="6.87443">
        <ele>967.3</ele>
        <time>2022-05-27T07:27:28Z</time>
      </trkpt>
      <trkpt lat="48.01721" lon="6.87432">
        <ele>968.1</ele>
        <time>2022-05-27T07:27:32Z</time>
      </trkpt>
      <trkpt lat="48.01729" lon="6.87423">
        <ele>968.6</ele>
        <time>2022-05-27T07:27:36Z</time>
      </trkpt>
      <trkpt lat="48.01736" lon="6.87414">
        <ele>969.9</ele>
        <time>2022-05-27T07:27:40Z</time>
      </trkpt>
      <trkpt lat="48.01742" lon="6.874">
        <ele>970.4</ele>
        <time>2022-05-27T07:27:45Z</time>
      </trkpt>
      <trkpt lat="48.01745" lon="6.87385">
        <ele>971.7</ele>
        <time>2022-05-27T07:27:50Z</time>
      </trkpt>
      <trkpt lat="48.01745" lon="6.8737">
        <ele>973.5</ele>
        <time>2022-05-27T07:27:55Z</time>
      </trkpt>
      <trkpt lat="48.01743" lon="6.87356">
        <ele>973.7</ele>
        <time>2022-05-27T07:28:00Z</time>
      </trkpt>
      <trkpt lat="48.0174" lon="6.87343">
        <ele>975.2</ele>
        <time>2022-05-27T07:28:05Z</time>
      </trkpt>
      <trkpt lat="48.01738" lon="6.8733">
        <ele>977.3</ele>
        <time>2022-05-27T07:28:10Z</time>
      </trkpt>
      <trkpt lat="48.01737" lon="6.87316">
        <ele>977.9</ele>
        <time>2022-05-27T07:28:15Z</time>
      </trkpt>
      <trkpt lat="48.01735" lon="6.87302">
        <ele>979.4</ele>
        <time>2022-05-27T07:28:20Z</time>
      </trkpt>
      <trkpt lat="48.01735" lon="6.87288">
        <ele>980.3</ele>
        <time>2022-05-27T07:28:26Z</time>
      </trkpt>
      <trkpt lat="48.01734" lon="6.87272">
        <ele>979.6</ele>
        <time>2022-05-27T07:28:33Z</time>
      </trkpt>
      <trkpt lat="48.01737" lon="6.87259">
        <ele>979.4</ele>
        <time>2022-05-27T07:28:36Z</time>
      </trkpt>
      <trkpt lat="48.0174" lon="6.87245">
        <ele>978.5</ele>
        <time>2022-05-27T07:28:38Z</time>
      </trkpt>
      <trkpt lat="48.01744" lon="6.87226">
        <ele>975.8</ele>
        <time>2022-05-27T07:28:40Z</time>
      </trkpt>
      <trkpt lat="48.01746" lon="6.87206">
        <ele>974.5</ele>
        <time>2022-05-27T07:28:42Z</time>
      </trkpt>
      <trkpt lat="48.01742" lon="6.87191">
        <ele>974.3</ele>
        <time>2022-05-27T07:28:44Z</time>
      </trkpt>
      <trkpt lat="48.01733" lon="6.8718">
        <ele>974.4</ele>
        <time>2022-05-27T07:28:46Z</time>
      </trkpt>
      <trkpt lat="48.01724" lon="6.87168">
        <ele>974.5</ele>
        <time>2022-05-27T07:28:48Z</time>
      </trkpt>
      <trkpt lat="48.01717" lon="6.87153">
        <ele>972.6</ele>
        <time>2022-05-27T07:28:50Z</time>
      </trkpt>
      <trkpt lat="48.0171" lon="6.87136">
        <ele>973.2</ele>
        <time>2022-05-27T07:28:52Z</time>
      </trkpt>
      <trkpt lat="48.017" lon="6.87121">
        <ele>972.3</ele>
        <time>2022-05-27T07:28:54Z</time>
      </trkpt>
      <trkpt lat="48.0169" lon="6.87108">
        <ele>972.6</ele>
        <time>2022-05-27T07:28:56Z</time>
      </trkpt>
      <trkpt lat="48.01681" lon="6.87097">
        <ele>971.1</ele>
        <time>2022-05-27T07:28:58Z</time>
      </trkpt>
      <trkpt lat="48.01672" lon="6.87087">
        <ele>971.9</ele>
        <time>2022-05-27T07:29:00Z</time>
      </trkpt>
      <trkpt lat="48.01664" lon="6.87075">
        <ele>971.5</ele>
        <time>2022-05-27T07:29:02Z</time>
      </trkpt>
      <trkpt lat="48.01659" lon="6.87061">
        <ele>972.7</ele>
        <time>2022-05-27T07:29:04Z</time>
      </trkpt>
      <trkpt lat="48.01655" lon="6.87045">
        <ele>972.1</ele>
        <time>2022-05-27T07:29:06Z</time>
      </trkpt>
      <trkpt lat="48.01653" lon="6.87026">
        <ele>970.4</ele>
        <time>2022-05-27T07:29:08Z</time>
      </trkpt>
      <trkpt lat="48.01653" lon="6.87008">
        <ele>969.8</ele>
        <time>2022-05-27T07:29:10Z</time>
      </trkpt>
      <trkpt lat="48.01653" lon="6.86993">
        <ele>968.7</ele>
        <time>2022-05-27T07:29:12Z</time>
      </trkpt>
      <trkpt lat="48.01656" lon="6.8698">
        <ele>969.2</ele>
        <time>2022-05-27T07:29:14Z</time>
      </trkpt>
      <trkpt lat="48.0166" lon="6.86961">
        <ele>968.7</ele>
        <time>2022-05-27T07:29:17Z</time>
      </trkpt>
      <trkpt lat="48.01663" lon="6.86947">
        <ele>964.8</ele>
        <time>2022-05-27T07:29:19Z</time>
      </trkpt>
      <trkpt lat="48.01666" lon="6.86932">
        <ele>965.9</ele>
        <time>2022-05-27T07:29:21Z</time>
      </trkpt>
      <trkpt lat="48.01671" lon="6.86918">
        <ele>965</ele>
        <time>2022-05-27T07:29:23Z</time>
      </trkpt>
      <trkpt lat="48.01673" lon="6.86902">
        <ele>965.2</ele>
        <time>2022-05-27T07:29:25Z</time>
      </trkpt>
      <trkpt lat="48.01669" lon="6.86887">
        <ele>964</ele>
        <time>2022-05-27T07:29:28Z</time>
      </trkpt>
      <trkpt lat="48.01659" lon="6.8688">
        <ele>964.5</ele>
        <time>2022-05-27T07:29:32Z</time>
      </trkpt>
      <trkpt lat="48.0165" lon="6.86876">
        <ele>964.9</ele>
        <time>2022-05-27T07:29:35Z</time>
      </trkpt>
      <trkpt lat="48.0164" lon="6.86872">
        <ele>964.6</ele>
        <time>2022-05-27T07:29:38Z</time>
      </trkpt>
      <trkpt lat="48.01631" lon="6.86869">
        <ele>966.6</ele>
        <time>2022-05-27T07:29:41Z</time>
      </trkpt>
      <trkpt lat="48.01619" lon="6.86863">
        <ele>966.5</ele>
        <time>2022-05-27T07:29:44Z</time>
      </trkpt>
      <trkpt lat="48.01609" lon="6.8686">
        <ele>966.8</ele>
        <time>2022-05-27T07:29:47Z</time>
      </trkpt>
      <trkpt lat="48.01597" lon="6.86864">
        <ele>968.9</ele>
        <time>2022-05-27T07:29:50Z</time>
      </trkpt>
      <trkpt lat="48.01586" lon="6.86871">
        <ele>969.7</ele>
        <time>2022-05-27T07:29:53Z</time>
      </trkpt>
      <trkpt lat="48.01575" lon="6.86874">
        <ele>970.6</ele>
        <time>2022-05-27T07:29:56Z</time>
      </trkpt>
      <trkpt lat="48.01564" lon="6.86872">
        <ele>969.9</ele>
        <time>2022-05-27T07:29:59Z</time>
      </trkpt>
      <trkpt lat="48.01553" lon="6.86864">
        <ele>969.5</ele>
        <time>2022-05-27T07:30:02Z</time>
      </trkpt>
      <trkpt lat="48.01545" lon="6.8685">
        <ele>971.3</ele>
        <time>2022-05-27T07:30:05Z</time>
      </trkpt>
      <trkpt lat="48.01538" lon="6.86834">
        <ele>971.7</ele>
        <time>2022-05-27T07:30:08Z</time>
      </trkpt>
      <trkpt lat="48.01532" lon="6.86822">
        <ele>971.6</ele>
        <time>2022-05-27T07:30:11Z</time>
      </trkpt>
      <trkpt lat="48.01528" lon="6.86814">
        <ele>971.8</ele>
        <time>2022-05-27T07:30:17Z</time>
      </trkpt>
      <trkpt lat="48.01528" lon="6.86814">
        <ele>971.9</ele>
        <time>2022-05-27T07:30:54Z</time>
      </trkpt>
      <trkpt lat="48.01524" lon="6.86798">
        <ele>972.6</ele>
        <time>2022-05-27T07:30:59Z</time>
      </trkpt>
      <trkpt lat="48.01521" lon="6.86781">
        <ele>972.8</ele>
        <time>2022-05-27T07:31:02Z</time>
      </trkpt>
      <trkpt lat="48.01519" lon="6.86767">
        <ele>972.8</ele>
        <time>2022-05-27T07:31:04Z</time>
      </trkpt>
      <trkpt lat="48.01518" lon="6.86753">
        <ele>972.2</ele>
        <time>2022-05-27T07:31:06Z</time>
      </trkpt>
      <trkpt lat="48.01519" lon="6.86732">
        <ele>973</ele>
        <time>2022-05-27T07:31:09Z</time>
      </trkpt>
      <trkpt lat="48.01521" lon="6.86715">
        <ele>970.6</ele>
        <time>2022-05-27T07:31:11Z</time>
      </trkpt>
      <trkpt lat="48.01521" lon="6.86696">
        <ele>968.8</ele>
        <time>2022-05-27T07:31:13Z</time>
      </trkpt>
      <trkpt lat="48.01522" lon="6.86676">
        <ele>970</ele>
        <time>2022-05-27T07:31:15Z</time>
      </trkpt>
      <trkpt lat="48.01523" lon="6.86657">
        <ele>970</ele>
        <time>2022-05-27T07:31:17Z</time>
      </trkpt>
      <trkpt lat="48.01521" lon="6.86639">
        <ele>970</ele>
        <time>2022-05-27T07:31:19Z</time>
      </trkpt>
      <trkpt lat="48.01519" lon="6.86623">
        <ele>969.5</ele>
        <time>2022-05-27T07:31:21Z</time>
      </trkpt>
      <trkpt lat="48.01517" lon="6.86605">
        <ele>971</ele>
        <time>2022-05-27T07:31:24Z</time>
      </trkpt>
      <trkpt lat="48.01516" lon="6.86589">
        <ele>970.6</ele>
        <time>2022-05-27T07:31:27Z</time>
      </trkpt>
      <trkpt lat="48.01513" lon="6.86575">
        <ele>972.4</ele>
        <time>2022-05-27T07:31:31Z</time>
      </trkpt>
      <trkpt lat="48.01512" lon="6.86558">
        <ele>972.3</ele>
        <time>2022-05-27T07:31:35Z</time>
      </trkpt>
      <trkpt lat="48.01509" lon="6.86542">
        <ele>972.2</ele>
        <time>2022-05-27T07:31:38Z</time>
      </trkpt>
      <trkpt lat="48.01501" lon="6.8653">
        <ele>971.4</ele>
        <time>2022-05-27T07:31:41Z</time>
      </trkpt>
      <trkpt lat="48.0149" lon="6.86526">
        <ele>973.4</ele>
        <time>2022-05-27T07:31:45Z</time>
      </trkpt>
      <trkpt lat="48.0148" lon="6.86524">
        <ele>973.2</ele>
        <time>2022-05-27T07:31:49Z</time>
      </trkpt>
      <trkpt lat="48.01475" lon="6.86511">
        <ele>974.7</ele>
        <time>2022-05-27T07:31:54Z</time>
      </trkpt>
      <trkpt lat="48.01474" lon="6.86506">
        <ele>974.8</ele>
        <time>2022-05-27T07:31:58Z</time>
      </trkpt>
      <trkpt lat="48.01475" lon="6.86506">
        <ele>974.7</ele>
        <time>2022-05-27T07:32:02Z</time>
      </trkpt>
      <trkpt lat="48.01475" lon="6.86502">
        <ele>974.5</ele>
        <time>2022-05-27T07:32:09Z</time>
      </trkpt>
      <trkpt lat="48.01475" lon="6.86501">
        <ele>974.4</ele>
        <time>2022-05-27T07:32:11Z</time>
      </trkpt>
      <trkpt lat="48.01477" lon="6.86485">
        <ele>974.6</ele>
        <time>2022-05-27T07:32:16Z</time>
      </trkpt>
      <trkpt lat="48.01477" lon="6.86471">
        <ele>975.2</ele>
        <time>2022-05-27T07:32:19Z</time>
      </trkpt>
      <trkpt lat="48.01474" lon="6.86456">
        <ele>975.8</ele>
        <time>2022-05-27T07:32:22Z</time>
      </trkpt>
      <trkpt lat="48.01475" lon="6.86442">
        <ele>976.8</ele>
        <time>2022-05-27T07:32:25Z</time>
      </trkpt>
      <trkpt lat="48.0148" lon="6.86429">
        <ele>977.4</ele>
        <time>2022-05-27T07:32:28Z</time>
      </trkpt>
      <trkpt lat="48.01486" lon="6.86417">
        <ele>977.6</ele>
        <time>2022-05-27T07:32:31Z</time>
      </trkpt>
      <trkpt lat="48.01495" lon="6.86405">
        <ele>977.2</ele>
        <time>2022-05-27T07:32:34Z</time>
      </trkpt>
      <trkpt lat="48.01503" lon="6.86393">
        <ele>977.6</ele>
        <time>2022-05-27T07:32:37Z</time>
      </trkpt>
      <trkpt lat="48.01509" lon="6.86382">
        <ele>977.2</ele>
        <time>2022-05-27T07:32:40Z</time>
      </trkpt>
      <trkpt lat="48.01516" lon="6.8637">
        <ele>977.8</ele>
        <time>2022-05-27T07:32:43Z</time>
      </trkpt>
      <trkpt lat="48.01518" lon="6.86357">
        <ele>977.1</ele>
        <time>2022-05-27T07:32:46Z</time>
      </trkpt>
      <trkpt lat="48.01512" lon="6.86345">
        <ele>979.7</ele>
        <time>2022-05-27T07:32:50Z</time>
      </trkpt>
      <trkpt lat="48.01502" lon="6.86344">
        <ele>980.6</ele>
        <time>2022-05-27T07:32:55Z</time>
      </trkpt>
      <trkpt lat="48.01491" lon="6.86346">
        <ele>982</ele>
        <time>2022-05-27T07:33:00Z</time>
      </trkpt>
      <trkpt lat="48.01481" lon="6.86348">
        <ele>982.8</ele>
        <time>2022-05-27T07:33:04Z</time>
      </trkpt>
      <trkpt lat="48.0147" lon="6.86351">
        <ele>982.9</ele>
        <time>2022-05-27T07:33:09Z</time>
      </trkpt>
      <trkpt lat="48.01461" lon="6.86355">
        <ele>984.2</ele>
        <time>2022-05-27T07:33:13Z</time>
      </trkpt>
      <trkpt lat="48.01453" lon="6.86361">
        <ele>985.5</ele>
        <time>2022-05-27T07:33:17Z</time>
      </trkpt>
      <trkpt lat="48.01443" lon="6.86366">
        <ele>986.4</ele>
        <time>2022-05-27T07:33:22Z</time>
      </trkpt>
      <trkpt lat="48.01432" lon="6.86368">
        <ele>986.7</ele>
        <time>2022-05-27T07:33:27Z</time>
      </trkpt>
      <trkpt lat="48.01423" lon="6.86364">
        <ele>987.4</ele>
        <time>2022-05-27T07:33:31Z</time>
      </trkpt>
      <trkpt lat="48.01416" lon="6.86355">
        <ele>988.3</ele>
        <time>2022-05-27T07:33:35Z</time>
      </trkpt>
      <trkpt lat="48.01409" lon="6.86343">
        <ele>988.3</ele>
        <time>2022-05-27T07:33:39Z</time>
      </trkpt>
      <trkpt lat="48.01403" lon="6.86329">
        <ele>988.3</ele>
        <time>2022-05-27T07:33:43Z</time>
      </trkpt>
      <trkpt lat="48.01397" lon="6.86314">
        <ele>988.7</ele>
        <time>2022-05-27T07:33:47Z</time>
      </trkpt>
      <trkpt lat="48.0139" lon="6.86301">
        <ele>989.3</ele>
        <time>2022-05-27T07:33:51Z</time>
      </trkpt>
      <trkpt lat="48.01382" lon="6.86292">
        <ele>990.1</ele>
        <time>2022-05-27T07:33:55Z</time>
      </trkpt>
      <trkpt lat="48.01373" lon="6.86284">
        <ele>991.7</ele>
        <time>2022-05-27T07:33:59Z</time>
      </trkpt>
      <trkpt lat="48.01366" lon="6.86276">
        <ele>992.8</ele>
        <time>2022-05-27T07:34:03Z</time>
      </trkpt>
      <trkpt lat="48.0136" lon="6.86263">
        <ele>993.4</ele>
        <time>2022-05-27T07:34:08Z</time>
      </trkpt>
      <trkpt lat="48.01354" lon="6.8625">
        <ele>992.3</ele>
        <time>2022-05-27T07:34:13Z</time>
      </trkpt>
      <trkpt lat="48.01347" lon="6.86237">
        <ele>993.1</ele>
        <time>2022-05-27T07:34:17Z</time>
      </trkpt>
      <trkpt lat="48.0134" lon="6.86228">
        <ele>992.9</ele>
        <time>2022-05-27T07:34:20Z</time>
      </trkpt>
      <trkpt lat="48.01332" lon="6.86218">
        <ele>993.6</ele>
        <time>2022-05-27T07:34:23Z</time>
      </trkpt>
      <trkpt lat="48.01323" lon="6.86209">
        <ele>993.9</ele>
        <time>2022-05-27T07:34:26Z</time>
      </trkpt>
      <trkpt lat="48.01314" lon="6.862">
        <ele>995.2</ele>
        <time>2022-05-27T07:34:29Z</time>
      </trkpt>
      <trkpt lat="48.01309" lon="6.86189">
        <ele>994.5</ele>
        <time>2022-05-27T07:34:32Z</time>
      </trkpt>
      <trkpt lat="48.01304" lon="6.86177">
        <ele>995.7</ele>
        <time>2022-05-27T07:34:35Z</time>
      </trkpt>
      <trkpt lat="48.013" lon="6.86161">
        <ele>995.2</ele>
        <time>2022-05-27T07:34:39Z</time>
      </trkpt>
      <trkpt lat="48.01298" lon="6.86145">
        <ele>996.1</ele>
        <time>2022-05-27T07:34:43Z</time>
      </trkpt>
      <trkpt lat="48.01294" lon="6.86133">
        <ele>996.5</ele>
        <time>2022-05-27T07:34:48Z</time>
      </trkpt>
      <trkpt lat="48.01285" lon="6.8613">
        <ele>996.4</ele>
        <time>2022-05-27T07:34:52Z</time>
      </trkpt>
      <trkpt lat="48.01276" lon="6.86133">
        <ele>996.7</ele>
        <time>2022-05-27T07:34:55Z</time>
      </trkpt>
      <trkpt lat="48.01262" lon="6.86136">
        <ele>995.2</ele>
        <time>2022-05-27T07:34:58Z</time>
      </trkpt>
      <trkpt lat="48.01251" lon="6.86136">
        <ele>991.6</ele>
        <time>2022-05-27T07:35:00Z</time>
      </trkpt>
      <trkpt lat="48.01238" lon="6.86135">
        <ele>991.3</ele>
        <time>2022-05-27T07:35:02Z</time>
      </trkpt>
      <trkpt lat="48.01224" lon="6.8613">
        <ele>991</ele>
        <time>2022-05-27T07:35:04Z</time>
      </trkpt>
      <trkpt lat="48.0121" lon="6.86122">
        <ele>991.6</ele>
        <time>2022-05-27T07:35:06Z</time>
      </trkpt>
      <trkpt lat="48.01198" lon="6.86113">
        <ele>990.3</ele>
        <time>2022-05-27T07:35:08Z</time>
      </trkpt>
      <trkpt lat="48.01186" lon="6.86105">
        <ele>989.6</ele>
        <time>2022-05-27T07:35:10Z</time>
      </trkpt>
      <trkpt lat="48.01172" lon="6.86099">
        <ele>987.3</ele>
        <time>2022-05-27T07:35:12Z</time>
      </trkpt>
      <trkpt lat="48.01158" lon="6.86092">
        <ele>986.3</ele>
        <time>2022-05-27T07:35:14Z</time>
      </trkpt>
      <trkpt lat="48.01144" lon="6.86089">
        <ele>987.7</ele>
        <time>2022-05-27T07:35:16Z</time>
      </trkpt>
      <trkpt lat="48.01131" lon="6.86087">
        <ele>989.2</ele>
        <time>2022-05-27T07:35:18Z</time>
      </trkpt>
      <trkpt lat="48.01118" lon="6.86088">
        <ele>986.1</ele>
        <time>2022-05-27T07:35:20Z</time>
      </trkpt>
      <trkpt lat="48.01104" lon="6.86088">
        <ele>986.5</ele>
        <time>2022-05-27T07:35:22Z</time>
      </trkpt>
      <trkpt lat="48.01091" lon="6.86086">
        <ele>986.3</ele>
        <time>2022-05-27T07:35:24Z</time>
      </trkpt>
      <trkpt lat="48.0108" lon="6.86081">
        <ele>986.5</ele>
        <time>2022-05-27T07:35:26Z</time>
      </trkpt>
      <trkpt lat="48.01071" lon="6.86071">
        <ele>987.5</ele>
        <time>2022-05-27T07:35:28Z</time>
      </trkpt>
      <trkpt lat="48.01063" lon="6.86059">
        <ele>986.9</ele>
        <time>2022-05-27T07:35:30Z</time>
      </trkpt>
      <trkpt lat="48.01055" lon="6.86047">
        <ele>987.5</ele>
        <time>2022-05-27T07:35:32Z</time>
      </trkpt>
      <trkpt lat="48.0105" lon="6.86033">
        <ele>988.6</ele>
        <time>2022-05-27T07:35:34Z</time>
      </trkpt>
      <trkpt lat="48.01046" lon="6.8602">
        <ele>989.1</ele>
        <time>2022-05-27T07:35:36Z</time>
      </trkpt>
      <trkpt lat="48.01042" lon="6.86007">
        <ele>987.3</ele>
        <time>2022-05-27T07:35:38Z</time>
      </trkpt>
      <trkpt lat="48.01036" lon="6.85992">
        <ele>987.3</ele>
        <time>2022-05-27T07:35:41Z</time>
      </trkpt>
      <trkpt lat="48.01028" lon="6.85982">
        <ele>988.1</ele>
        <time>2022-05-27T07:35:44Z</time>
      </trkpt>
      <trkpt lat="48.01021" lon="6.8597">
        <ele>989.6</ele>
        <time>2022-05-27T07:35:47Z</time>
      </trkpt>
      <trkpt lat="48.01015" lon="6.85957">
        <ele>991.1</ele>
        <time>2022-05-27T07:35:50Z</time>
      </trkpt>
      <trkpt lat="48.01011" lon="6.8595">
        <ele>990.4</ele>
        <time>2022-05-27T07:35:55Z</time>
      </trkpt>
      <trkpt lat="48.01011" lon="6.85951">
        <ele>990.5</ele>
        <time>2022-05-27T07:35:59Z</time>
      </trkpt>
      <trkpt lat="48.01011" lon="6.85951">
        <ele>990.4</ele>
        <time>2022-05-27T07:36:27Z</time>
      </trkpt>
      <trkpt lat="48.01012" lon="6.85949">
        <ele>991</ele>
        <time>2022-05-27T07:36:30Z</time>
      </trkpt>
      <trkpt lat="48.01011" lon="6.85949">
        <ele>990.8</ele>
        <time>2022-05-27T07:36:33Z</time>
      </trkpt>
      <trkpt lat="48.01012" lon="6.85949">
        <ele>990.9</ele>
        <time>2022-05-27T07:36:35Z</time>
      </trkpt>
      <trkpt lat="48.01011" lon="6.85948">
        <ele>991.1</ele>
        <time>2022-05-27T07:36:37Z</time>
      </trkpt>
      <trkpt lat="48.01008" lon="6.85935">
        <ele>992.4</ele>
        <time>2022-05-27T07:36:42Z</time>
      </trkpt>
      <trkpt lat="48.01005" lon="6.85922">
        <ele>992.1</ele>
        <time>2022-05-27T07:36:46Z</time>
      </trkpt>
      <trkpt lat="48.01005" lon="6.85905">
        <ele>995</ele>
        <time>2022-05-27T07:36:51Z</time>
      </trkpt>
      <trkpt lat="48.01006" lon="6.85889">
        <ele>996.5</ele>
        <time>2022-05-27T07:36:56Z</time>
      </trkpt>
      <trkpt lat="48.01009" lon="6.85874">
        <ele>997.9</ele>
        <time>2022-05-27T07:37:01Z</time>
      </trkpt>
      <trkpt lat="48.01011" lon="6.8586">
        <ele>998.5</ele>
        <time>2022-05-27T07:37:05Z</time>
      </trkpt>
      <trkpt lat="48.01013" lon="6.85846">
        <ele>999</ele>
        <time>2022-05-27T07:37:09Z</time>
      </trkpt>
      <trkpt lat="48.01014" lon="6.85833">
        <ele>999.6</ele>
        <time>2022-05-27T07:37:13Z</time>
      </trkpt>
      <trkpt lat="48.01013" lon="6.85816">
        <ele>1000.3</ele>
        <time>2022-05-27T07:37:18Z</time>
      </trkpt>
      <trkpt lat="48.01011" lon="6.858">
        <ele>1001.7</ele>
        <time>2022-05-27T07:37:23Z</time>
      </trkpt>
      <trkpt lat="48.01013" lon="6.85785">
        <ele>1003.3</ele>
        <time>2022-05-27T07:37:29Z</time>
      </trkpt>
      <trkpt lat="48.01016" lon="6.85771">
        <ele>1004.3</ele>
        <time>2022-05-27T07:37:34Z</time>
      </trkpt>
      <trkpt lat="48.01018" lon="6.85758">
        <ele>1005.2</ele>
        <time>2022-05-27T07:37:39Z</time>
      </trkpt>
      <trkpt lat="48.01017" lon="6.85744">
        <ele>1006</ele>
        <time>2022-05-27T07:37:44Z</time>
      </trkpt>
      <trkpt lat="48.01014" lon="6.85729">
        <ele>1007.2</ele>
        <time>2022-05-27T07:37:49Z</time>
      </trkpt>
      <trkpt lat="48.0101" lon="6.85715">
        <ele>1007.9</ele>
        <time>2022-05-27T07:37:55Z</time>
      </trkpt>
      <trkpt lat="48.01008" lon="6.85701">
        <ele>1007.1</ele>
        <time>2022-05-27T07:37:59Z</time>
      </trkpt>
      <trkpt lat="48.01006" lon="6.85686">
        <ele>1007.5</ele>
        <time>2022-05-27T07:38:02Z</time>
      </trkpt>
      <trkpt lat="48.01006" lon="6.85671">
        <ele>1007.5</ele>
        <time>2022-05-27T07:38:05Z</time>
      </trkpt>
      <trkpt lat="48.01005" lon="6.85657">
        <ele>1008.4</ele>
        <time>2022-05-27T07:38:08Z</time>
      </trkpt>
      <trkpt lat="48.01004" lon="6.85641">
        <ele>1009</ele>
        <time>2022-05-27T07:38:12Z</time>
      </trkpt>
      <trkpt lat="48.01005" lon="6.85625">
        <ele>1008.5</ele>
        <time>2022-05-27T07:38:16Z</time>
      </trkpt>
      <trkpt lat="48.01005" lon="6.85611">
        <ele>1008.4</ele>
        <time>2022-05-27T07:38:19Z</time>
      </trkpt>
      <trkpt lat="48.01007" lon="6.85594">
        <ele>1009.7</ele>
        <time>2022-05-27T07:38:23Z</time>
      </trkpt>
      <trkpt lat="48.0101" lon="6.85579">
        <ele>1010.6</ele>
        <time>2022-05-27T07:38:27Z</time>
      </trkpt>
      <trkpt lat="48.01013" lon="6.85565">
        <ele>1008.5</ele>
        <time>2022-05-27T07:38:30Z</time>
      </trkpt>
      <trkpt lat="48.01018" lon="6.85549">
        <ele>1007.3</ele>
        <time>2022-05-27T07:38:33Z</time>
      </trkpt>
      <trkpt lat="48.01022" lon="6.85537">
        <ele>1008.6</ele>
        <time>2022-05-27T07:38:35Z</time>
      </trkpt>
      <trkpt lat="48.01027" lon="6.8552">
        <ele>1009.5</ele>
        <time>2022-05-27T07:38:38Z</time>
      </trkpt>
      <trkpt lat="48.01029" lon="6.85506">
        <ele>1009.5</ele>
        <time>2022-05-27T07:38:41Z</time>
      </trkpt>
      <trkpt lat="48.01031" lon="6.85487">
        <ele>1009</ele>
        <time>2022-05-27T07:38:45Z</time>
      </trkpt>
      <trkpt lat="48.01034" lon="6.85469">
        <ele>1007.9</ele>
        <time>2022-05-27T07:38:48Z</time>
      </trkpt>
      <trkpt lat="48.01037" lon="6.85454">
        <ele>1009.7</ele>
        <time>2022-05-27T07:38:51Z</time>
      </trkpt>
      <trkpt lat="48.01039" lon="6.85439">
        <ele>1008.1</ele>
        <time>2022-05-27T07:38:54Z</time>
      </trkpt>
      <trkpt lat="48.01043" lon="6.85424">
        <ele>1007.5</ele>
        <time>2022-05-27T07:38:57Z</time>
      </trkpt>
      <trkpt lat="48.01047" lon="6.8541">
        <ele>1008.2</ele>
        <time>2022-05-27T07:39:00Z</time>
      </trkpt>
      <trkpt lat="48.01054" lon="6.85399">
        <ele>1008.3</ele>
        <time>2022-05-27T07:39:03Z</time>
      </trkpt>
      <trkpt lat="48.01063" lon="6.85389">
        <ele>1008.7</ele>
        <time>2022-05-27T07:39:06Z</time>
      </trkpt>
      <trkpt lat="48.01072" lon="6.85381">
        <ele>1008.8</ele>
        <time>2022-05-27T07:39:09Z</time>
      </trkpt>
      <trkpt lat="48.0108" lon="6.85369">
        <ele>1008.6</ele>
        <time>2022-05-27T07:39:13Z</time>
      </trkpt>
      <trkpt lat="48.01085" lon="6.85355">
        <ele>1009.6</ele>
        <time>2022-05-27T07:39:18Z</time>
      </trkpt>
      <trkpt lat="48.01089" lon="6.85341">
        <ele>1010.7</ele>
        <time>2022-05-27T07:39:23Z</time>
      </trkpt>
      <trkpt lat="48.01094" lon="6.85325">
        <ele>1011.9</ele>
        <time>2022-05-27T07:39:28Z</time>
      </trkpt>
      <trkpt lat="48.01097" lon="6.85311">
        <ele>1012.4</ele>
        <time>2022-05-27T07:39:32Z</time>
      </trkpt>
      <trkpt lat="48.01101" lon="6.85295">
        <ele>1013.1</ele>
        <time>2022-05-27T07:39:36Z</time>
      </trkpt>
      <trkpt lat="48.01103" lon="6.85277">
        <ele>1014.3</ele>
        <time>2022-05-27T07:39:40Z</time>
      </trkpt>
      <trkpt lat="48.01106" lon="6.85263">
        <ele>1013.8</ele>
        <time>2022-05-27T07:39:43Z</time>
      </trkpt>
      <trkpt lat="48.0111" lon="6.8525">
        <ele>1014.6</ele>
        <time>2022-05-27T07:39:46Z</time>
      </trkpt>
      <trkpt lat="48.01116" lon="6.85236">
        <ele>1015.1</ele>
        <time>2022-05-27T07:39:50Z</time>
      </trkpt>
      <trkpt lat="48.01122" lon="6.8522">
        <ele>1015.4</ele>
        <time>2022-05-27T07:39:54Z</time>
      </trkpt>
      <trkpt lat="48.01125" lon="6.85207">
        <ele>1015.7</ele>
        <time>2022-05-27T07:39:57Z</time>
      </trkpt>
      <trkpt lat="48.0113" lon="6.85191">
        <ele>1015.8</ele>
        <time>2022-05-27T07:40:01Z</time>
      </trkpt>
      <trkpt lat="48.01135" lon="6.85176">
        <ele>1016.2</ele>
        <time>2022-05-27T07:40:05Z</time>
      </trkpt>
      <trkpt lat="48.01143" lon="6.85164">
        <ele>1015.4</ele>
        <time>2022-05-27T07:40:09Z</time>
      </trkpt>
      <trkpt lat="48.01154" lon="6.85158">
        <ele>1015.7</ele>
        <time>2022-05-27T07:40:12Z</time>
      </trkpt>
      <trkpt lat="48.01166" lon="6.85151">
        <ele>1012.8</ele>
        <time>2022-05-27T07:40:15Z</time>
      </trkpt>
      <trkpt lat="48.01176" lon="6.85147">
        <ele>1011.6</ele>
        <time>2022-05-27T07:40:17Z</time>
      </trkpt>
      <trkpt lat="48.01187" lon="6.85147">
        <ele>1013.4</ele>
        <time>2022-05-27T07:40:19Z</time>
      </trkpt>
      <trkpt lat="48.01196" lon="6.85151">
        <ele>1013.5</ele>
        <time>2022-05-27T07:40:21Z</time>
      </trkpt>
      <trkpt lat="48.01205" lon="6.85156">
        <ele>1012.2</ele>
        <time>2022-05-27T07:40:24Z</time>
      </trkpt>
      <trkpt lat="48.01216" lon="6.85161">
        <ele>1012.2</ele>
        <time>2022-05-27T07:40:28Z</time>
      </trkpt>
      <trkpt lat="48.01226" lon="6.85168">
        <ele>1012.7</ele>
        <time>2022-05-27T07:40:32Z</time>
      </trkpt>
      <trkpt lat="48.01236" lon="6.85169">
        <ele>1011.5</ele>
        <time>2022-05-27T07:40:35Z</time>
      </trkpt>
      <trkpt lat="48.01247" lon="6.85165">
        <ele>1009.4</ele>
        <time>2022-05-27T07:40:37Z</time>
      </trkpt>
      <trkpt lat="48.0126" lon="6.85156">
        <ele>1009.1</ele>
        <time>2022-05-27T07:40:39Z</time>
      </trkpt>
      <trkpt lat="48.0127" lon="6.85148">
        <ele>1010.6</ele>
        <time>2022-05-27T07:40:41Z</time>
      </trkpt>
      <trkpt lat="48.0128" lon="6.85139">
        <ele>1010.5</ele>
        <time>2022-05-27T07:40:43Z</time>
      </trkpt>
      <trkpt lat="48.0129" lon="6.8513">
        <ele>1009.3</ele>
        <time>2022-05-27T07:40:45Z</time>
      </trkpt>
      <trkpt lat="48.013" lon="6.85122">
        <ele>1007.8</ele>
        <time>2022-05-27T07:40:47Z</time>
      </trkpt>
      <trkpt lat="48.0131" lon="6.85113">
        <ele>1008.5</ele>
        <time>2022-05-27T07:40:49Z</time>
      </trkpt>
      <trkpt lat="48.0132" lon="6.85106">
        <ele>1009.2</ele>
        <time>2022-05-27T07:40:51Z</time>
      </trkpt>
      <trkpt lat="48.0133" lon="6.85098">
        <ele>1010.3</ele>
        <time>2022-05-27T07:40:54Z</time>
      </trkpt>
      <trkpt lat="48.0134" lon="6.85089">
        <ele>1008.1</ele>
        <time>2022-05-27T07:40:57Z</time>
      </trkpt>
      <trkpt lat="48.01348" lon="6.8508">
        <ele>1005.4</ele>
        <time>2022-05-27T07:40:59Z</time>
      </trkpt>
      <trkpt lat="48.01359" lon="6.85069">
        <ele>1004.8</ele>
        <time>2022-05-27T07:41:01Z</time>
      </trkpt>
      <trkpt lat="48.01368" lon="6.85061">
        <ele>1005.6</ele>
        <time>2022-05-27T07:41:03Z</time>
      </trkpt>
      <trkpt lat="48.01379" lon="6.85057">
        <ele>1002.5</ele>
        <time>2022-05-27T07:41:06Z</time>
      </trkpt>
      <trkpt lat="48.0139" lon="6.85056">
        <ele>1000.3</ele>
        <time>2022-05-27T07:41:09Z</time>
      </trkpt>
      <trkpt lat="48.014" lon="6.85057">
        <ele>999.5</ele>
        <time>2022-05-27T07:41:11Z</time>
      </trkpt>
      <trkpt lat="48.01411" lon="6.85059">
        <ele>1000.8</ele>
        <time>2022-05-27T07:41:13Z</time>
      </trkpt>
      <trkpt lat="48.01422" lon="6.85061">
        <ele>998.6</ele>
        <time>2022-05-27T07:41:15Z</time>
      </trkpt>
      <trkpt lat="48.01431" lon="6.85063">
        <ele>997.3</ele>
        <time>2022-05-27T07:41:17Z</time>
      </trkpt>
      <trkpt lat="48.0144" lon="6.85067">
        <ele>996.7</ele>
        <time>2022-05-27T07:41:19Z</time>
      </trkpt>
      <trkpt lat="48.01449" lon="6.8507">
        <ele>996.5</ele>
        <time>2022-05-27T07:41:21Z</time>
      </trkpt>
      <trkpt lat="48.01459" lon="6.85073">
        <ele>996.5</ele>
        <time>2022-05-27T07:41:24Z</time>
      </trkpt>
      <trkpt lat="48.01464" lon="6.85061">
        <ele>995.7</ele>
        <time>2022-05-27T07:41:34Z</time>
      </trkpt>
      <trkpt lat="48.01455" lon="6.85052">
        <ele>993.7</ele>
        <time>2022-05-27T07:41:40Z</time>
      </trkpt>
      <trkpt lat="48.01446" lon="6.85049">
        <ele>992.2</ele>
        <time>2022-05-27T07:41:45Z</time>
      </trkpt>
      <trkpt lat="48.01436" lon="6.8504">
        <ele>990.4</ele>
        <time>2022-05-27T07:41:49Z</time>
      </trkpt>
      <trkpt lat="48.01428" lon="6.85026">
        <ele>990.8</ele>
        <time>2022-05-27T07:41:52Z</time>
      </trkpt>
      <trkpt lat="48.01421" lon="6.85012">
        <ele>990.7</ele>
        <time>2022-05-27T07:41:56Z</time>
      </trkpt>
      <trkpt lat="48.01412" lon="6.85003">
        <ele>986.7</ele>
        <time>2022-05-27T07:41:59Z</time>
      </trkpt>
      <trkpt lat="48.014" lon="6.84994">
        <ele>982.6</ele>
        <time>2022-05-27T07:42:02Z</time>
      </trkpt>
      <trkpt lat="48.0139" lon="6.84987">
        <ele>984.4</ele>
        <time>2022-05-27T07:42:04Z</time>
      </trkpt>
      <trkpt lat="48.01379" lon="6.84986">
        <ele>985.7</ele>
        <time>2022-05-27T07:42:06Z</time>
      </trkpt>
      <trkpt lat="48.01367" lon="6.84986">
        <ele>986.9</ele>
        <time>2022-05-27T07:42:08Z</time>
      </trkpt>
      <trkpt lat="48.01354" lon="6.84988">
        <ele>987.2</ele>
        <time>2022-05-27T07:42:11Z</time>
      </trkpt>
      <trkpt lat="48.01345" lon="6.84993">
        <ele>987.9</ele>
        <time>2022-05-27T07:42:14Z</time>
      </trkpt>
      <trkpt lat="48.01335" lon="6.84998">
        <ele>986.4</ele>
        <time>2022-05-27T07:42:17Z</time>
      </trkpt>
      <trkpt lat="48.01327" lon="6.85002">
        <ele>988.5</ele>
        <time>2022-05-27T07:42:20Z</time>
      </trkpt>
      <trkpt lat="48.01316" lon="6.85009">
        <ele>989.1</ele>
        <time>2022-05-27T07:42:24Z</time>
      </trkpt>
      <trkpt lat="48.01307" lon="6.85015">
        <ele>987.7</ele>
        <time>2022-05-27T07:42:27Z</time>
      </trkpt>
      <trkpt lat="48.01295" lon="6.85014">
        <ele>989</ele>
        <time>2022-05-27T07:42:30Z</time>
      </trkpt>
      <trkpt lat="48.01286" lon="6.85008">
        <ele>989.6</ele>
        <time>2022-05-27T07:42:33Z</time>
      </trkpt>
      <trkpt lat="48.01277" lon="6.85">
        <ele>989.9</ele>
        <time>2022-05-27T07:42:37Z</time>
      </trkpt>
      <trkpt lat="48.01268" lon="6.84996">
        <ele>991</ele>
        <time>2022-05-27T07:42:41Z</time>
      </trkpt>
      <trkpt lat="48.01257" lon="6.84993">
        <ele>991.3</ele>
        <time>2022-05-27T07:42:45Z</time>
      </trkpt>
      <trkpt lat="48.01247" lon="6.84999">
        <ele>992</ele>
        <time>2022-05-27T07:42:49Z</time>
      </trkpt>
      <trkpt lat="48.01237" lon="6.85008">
        <ele>991.2</ele>
        <time>2022-05-27T07:42:53Z</time>
      </trkpt>
      <trkpt lat="48.01227" lon="6.85003">
        <ele>989.2</ele>
        <time>2022-05-27T07:42:57Z</time>
      </trkpt>
      <trkpt lat="48.01225" lon="6.84985">
        <ele>991.1</ele>
        <time>2022-05-27T07:43:00Z</time>
      </trkpt>
      <trkpt lat="48.01225" lon="6.84969">
        <ele>991.6</ele>
        <time>2022-05-27T07:43:03Z</time>
      </trkpt>
      <trkpt lat="48.01224" lon="6.84953">
        <ele>990</ele>
        <time>2022-05-27T07:43:06Z</time>
      </trkpt>
      <trkpt lat="48.0122" lon="6.84936">
        <ele>991.3</ele>
        <time>2022-05-27T07:43:10Z</time>
      </trkpt>
      <trkpt lat="48.01216" lon="6.84922">
        <ele>992.2</ele>
        <time>2022-05-27T07:43:13Z</time>
      </trkpt>
      <trkpt lat="48.01213" lon="6.84905">
        <ele>991.2</ele>
        <time>2022-05-27T07:43:16Z</time>
      </trkpt>
      <trkpt lat="48.01212" lon="6.8489">
        <ele>992.9</ele>
        <time>2022-05-27T07:43:19Z</time>
      </trkpt>
      <trkpt lat="48.01209" lon="6.84874">
        <ele>990.6</ele>
        <time>2022-05-27T07:43:22Z</time>
      </trkpt>
      <trkpt lat="48.01203" lon="6.84861">
        <ele>990.6</ele>
        <time>2022-05-27T07:43:24Z</time>
      </trkpt>
      <trkpt lat="48.01196" lon="6.84847">
        <ele>989.4</ele>
        <time>2022-05-27T07:43:27Z</time>
      </trkpt>
      <trkpt lat="48.01186" lon="6.84839">
        <ele>989.2</ele>
        <time>2022-05-27T07:43:30Z</time>
      </trkpt>
      <trkpt lat="48.01175" lon="6.84834">
        <ele>990.9</ele>
        <time>2022-05-27T07:43:33Z</time>
      </trkpt>
      <trkpt lat="48.01164" lon="6.84829">
        <ele>991.3</ele>
        <time>2022-05-27T07:43:36Z</time>
      </trkpt>
      <trkpt lat="48.01155" lon="6.84819">
        <ele>987.5</ele>
        <time>2022-05-27T07:43:39Z</time>
      </trkpt>
      <trkpt lat="48.01147" lon="6.84807">
        <ele>983.8</ele>
        <time>2022-05-27T07:43:41Z</time>
      </trkpt>
      <trkpt lat="48.01137" lon="6.84796">
        <ele>986.2</ele>
        <time>2022-05-27T07:43:43Z</time>
      </trkpt>
      <trkpt lat="48.01131" lon="6.84784">
        <ele>984.2</ele>
        <time>2022-05-27T07:43:45Z</time>
      </trkpt>
      <trkpt lat="48.01127" lon="6.8477">
        <ele>985.8</ele>
        <time>2022-05-27T07:43:47Z</time>
      </trkpt>
      <trkpt lat="48.01124" lon="6.84757">
        <ele>985.3</ele>
        <time>2022-05-27T07:43:49Z</time>
      </trkpt>
      <trkpt lat="48.01119" lon="6.84741">
        <ele>986.3</ele>
        <time>2022-05-27T07:43:52Z</time>
      </trkpt>
      <trkpt lat="48.01115" lon="6.84728">
        <ele>989</ele>
        <time>2022-05-27T07:43:55Z</time>
      </trkpt>
      <trkpt lat="48.01107" lon="6.84715">
        <ele>987.3</ele>
        <time>2022-05-27T07:43:59Z</time>
      </trkpt>
      <trkpt lat="48.01098" lon="6.84706">
        <ele>989.4</ele>
        <time>2022-05-27T07:44:03Z</time>
      </trkpt>
      <trkpt lat="48.01089" lon="6.847">
        <ele>989.2</ele>
        <time>2022-05-27T07:44:07Z</time>
      </trkpt>
      <trkpt lat="48.01079" lon="6.84695">
        <ele>989.2</ele>
        <time>2022-05-27T07:44:11Z</time>
      </trkpt>
      <trkpt lat="48.01069" lon="6.8469">
        <ele>989.5</ele>
        <time>2022-05-27T07:44:15Z</time>
      </trkpt>
      <trkpt lat="48.0106" lon="6.84685">
        <ele>991.7</ele>
        <time>2022-05-27T07:44:19Z</time>
      </trkpt>
      <trkpt lat="48.01052" lon="6.84675">
        <ele>991.8</ele>
        <time>2022-05-27T07:44:25Z</time>
      </trkpt>
      <trkpt lat="48.01045" lon="6.84664">
        <ele>994.2</ele>
        <time>2022-05-27T07:44:30Z</time>
      </trkpt>
      <trkpt lat="48.01041" lon="6.84651">
        <ele>996.6</ele>
        <time>2022-05-27T07:44:35Z</time>
      </trkpt>
      <trkpt lat="48.01038" lon="6.84637">
        <ele>996.4</ele>
        <time>2022-05-27T07:44:40Z</time>
      </trkpt>
      <trkpt lat="48.01036" lon="6.84621">
        <ele>998.8</ele>
        <time>2022-05-27T07:44:46Z</time>
      </trkpt>
      <trkpt lat="48.01033" lon="6.84607">
        <ele>999.6</ele>
        <time>2022-05-27T07:44:51Z</time>
      </trkpt>
      <trkpt lat="48.01031" lon="6.84594">
        <ele>1000.4</ele>
        <time>2022-05-27T07:44:56Z</time>
      </trkpt>
      <trkpt lat="48.01029" lon="6.8458">
        <ele>1000.8</ele>
        <time>2022-05-27T07:45:01Z</time>
      </trkpt>
      <trkpt lat="48.01024" lon="6.84566">
        <ele>1001.3</ele>
        <time>2022-05-27T07:45:06Z</time>
      </trkpt>
      <trkpt lat="48.01019" lon="6.84552">
        <ele>1002.1</ele>
        <time>2022-05-27T07:45:11Z</time>
      </trkpt>
      <trkpt lat="48.01013" lon="6.8454">
        <ele>1003.5</ele>
        <time>2022-05-27T07:45:16Z</time>
      </trkpt>
      <trkpt lat="48.01007" lon="6.84527">
        <ele>1002.8</ele>
        <time>2022-05-27T07:45:21Z</time>
      </trkpt>
      <trkpt lat="48.01004" lon="6.84513">
        <ele>1004.8</ele>
        <time>2022-05-27T07:45:26Z</time>
      </trkpt>
      <trkpt lat="48.01004" lon="6.84496">
        <ele>1004</ele>
        <time>2022-05-27T07:45:31Z</time>
      </trkpt>
      <trkpt lat="48.01003" lon="6.84482">
        <ele>1004.4</ele>
        <time>2022-05-27T07:45:35Z</time>
      </trkpt>
      <trkpt lat="48.00999" lon="6.84468">
        <ele>1004.9</ele>
        <time>2022-05-27T07:45:40Z</time>
      </trkpt>
      <trkpt lat="48.00992" lon="6.84455">
        <ele>1005.4</ele>
        <time>2022-05-27T07:45:45Z</time>
      </trkpt>
      <trkpt lat="48.00988" lon="6.84442">
        <ele>1007.6</ele>
        <time>2022-05-27T07:45:50Z</time>
      </trkpt>
      <trkpt lat="48.00987" lon="6.84428">
        <ele>1008.3</ele>
        <time>2022-05-27T07:45:55Z</time>
      </trkpt>
      <trkpt lat="48.00987" lon="6.84413">
        <ele>1009.5</ele>
        <time>2022-05-27T07:46:01Z</time>
      </trkpt>
      <trkpt lat="48.00989" lon="6.84398">
        <ele>1010.5</ele>
        <time>2022-05-27T07:46:07Z</time>
      </trkpt>
      <trkpt lat="48.00992" lon="6.84385">
        <ele>1011.8</ele>
        <time>2022-05-27T07:46:11Z</time>
      </trkpt>
      <trkpt lat="48.0099" lon="6.84371">
        <ele>1011.3</ele>
        <time>2022-05-27T07:46:15Z</time>
      </trkpt>
      <trkpt lat="48.00985" lon="6.84358">
        <ele>1012.2</ele>
        <time>2022-05-27T07:46:20Z</time>
      </trkpt>
      <trkpt lat="48.00977" lon="6.8435">
        <ele>1014</ele>
        <time>2022-05-27T07:46:25Z</time>
      </trkpt>
      <trkpt lat="48.00969" lon="6.84342">
        <ele>1014.2</ele>
        <time>2022-05-27T07:46:31Z</time>
      </trkpt>
      <trkpt lat="48.0096" lon="6.84337">
        <ele>1014.9</ele>
        <time>2022-05-27T07:46:37Z</time>
      </trkpt>
      <trkpt lat="48.00951" lon="6.84332">
        <ele>1015.6</ele>
        <time>2022-05-27T07:46:42Z</time>
      </trkpt>
      <trkpt lat="48.00942" lon="6.8433">
        <ele>1015.7</ele>
        <time>2022-05-27T07:46:47Z</time>
      </trkpt>
      <trkpt lat="48.00932" lon="6.84333">
        <ele>1015.9</ele>
        <time>2022-05-27T07:46:52Z</time>
      </trkpt>
      <trkpt lat="48.00924" lon="6.84341">
        <ele>1016.5</ele>
        <time>2022-05-27T07:46:56Z</time>
      </trkpt>
      <trkpt lat="48.00914" lon="6.84343">
        <ele>1016.2</ele>
        <time>2022-05-27T07:47:01Z</time>
      </trkpt>
      <trkpt lat="48.00904" lon="6.84345">
        <ele>1016.9</ele>
        <time>2022-05-27T07:47:06Z</time>
      </trkpt>
      <trkpt lat="48.00893" lon="6.84347">
        <ele>1018.2</ele>
        <time>2022-05-27T07:47:11Z</time>
      </trkpt>
      <trkpt lat="48.00884" lon="6.84351">
        <ele>1019.9</ele>
        <time>2022-05-27T07:47:17Z</time>
      </trkpt>
      <trkpt lat="48.00875" lon="6.84358">
        <ele>1022.1</ele>
        <time>2022-05-27T07:47:23Z</time>
      </trkpt>
      <trkpt lat="48.00864" lon="6.84362">
        <ele>1023.4</ele>
        <time>2022-05-27T07:47:29Z</time>
      </trkpt>
      <trkpt lat="48.00855" lon="6.84356">
        <ele>1024.9</ele>
        <time>2022-05-27T07:47:35Z</time>
      </trkpt>
      <trkpt lat="48.00849" lon="6.84345">
        <ele>1025.3</ele>
        <time>2022-05-27T07:47:40Z</time>
      </trkpt>
      <trkpt lat="48.00846" lon="6.84331">
        <ele>1026.4</ele>
        <time>2022-05-27T07:47:45Z</time>
      </trkpt>
      <trkpt lat="48.00845" lon="6.84316">
        <ele>1027.7</ele>
        <time>2022-05-27T07:47:50Z</time>
      </trkpt>
      <trkpt lat="48.00845" lon="6.84302">
        <ele>1028.2</ele>
        <time>2022-05-27T07:47:56Z</time>
      </trkpt>
      <trkpt lat="48.00845" lon="6.84288">
        <ele>1029.3</ele>
        <time>2022-05-27T07:48:01Z</time>
      </trkpt>
      <trkpt lat="48.00848" lon="6.84273">
        <ele>1030.2</ele>
        <time>2022-05-27T07:48:06Z</time>
      </trkpt>
      <trkpt lat="48.00854" lon="6.84262">
        <ele>1030.6</ele>
        <time>2022-05-27T07:48:10Z</time>
      </trkpt>
      <trkpt lat="48.0086" lon="6.8425">
        <ele>1031.6</ele>
        <time>2022-05-27T07:48:15Z</time>
      </trkpt>
      <trkpt lat="48.00863" lon="6.84235">
        <ele>1032.3</ele>
        <time>2022-05-27T07:48:20Z</time>
      </trkpt>
      <trkpt lat="48.00865" lon="6.8422">
        <ele>1032.5</ele>
        <time>2022-05-27T07:48:24Z</time>
      </trkpt>
      <trkpt lat="48.00865" lon="6.84207">
        <ele>1033.3</ele>
        <time>2022-05-27T07:48:28Z</time>
      </trkpt>
      <trkpt lat="48.00866" lon="6.84192">
        <ele>1034.6</ele>
        <time>2022-05-27T07:48:33Z</time>
      </trkpt>
      <trkpt lat="48.00869" lon="6.84177">
        <ele>1036.2</ele>
        <time>2022-05-27T07:48:38Z</time>
      </trkpt>
      <trkpt lat="48.00873" lon="6.84163">
        <ele>1038</ele>
        <time>2022-05-27T07:48:43Z</time>
      </trkpt>
      <trkpt lat="48.00877" lon="6.8415">
        <ele>1039</ele>
        <time>2022-05-27T07:48:48Z</time>
      </trkpt>
      <trkpt lat="48.00883" lon="6.84138">
        <ele>1038.9</ele>
        <time>2022-05-27T07:48:53Z</time>
      </trkpt>
      <trkpt lat="48.00889" lon="6.84127">
        <ele>1038.5</ele>
        <time>2022-05-27T07:48:57Z</time>
      </trkpt>
      <trkpt lat="48.00891" lon="6.84114">
        <ele>1039.2</ele>
        <time>2022-05-27T07:49:01Z</time>
      </trkpt>
      <trkpt lat="48.00892" lon="6.84098">
        <ele>1039.8</ele>
        <time>2022-05-27T07:49:06Z</time>
      </trkpt>
      <trkpt lat="48.00887" lon="6.84086">
        <ele>1040.1</ele>
        <time>2022-05-27T07:49:10Z</time>
      </trkpt>
      <trkpt lat="48.0088" lon="6.84073">
        <ele>1041.4</ele>
        <time>2022-05-27T07:49:15Z</time>
      </trkpt>
      <trkpt lat="48.00875" lon="6.84061">
        <ele>1042.8</ele>
        <time>2022-05-27T07:49:20Z</time>
      </trkpt>
      <trkpt lat="48.00869" lon="6.84048">
        <ele>1044.1</ele>
        <time>2022-05-27T07:49:25Z</time>
      </trkpt>
      <trkpt lat="48.00863" lon="6.84039">
        <ele>1045</ele>
        <time>2022-05-27T07:49:29Z</time>
      </trkpt>
      <trkpt lat="48.00856" lon="6.84026">
        <ele>1046.3</ele>
        <time>2022-05-27T07:49:34Z</time>
      </trkpt>
      <trkpt lat="48.00849" lon="6.84013">
        <ele>1047.3</ele>
        <time>2022-05-27T07:49:40Z</time>
      </trkpt>
      <trkpt lat="48.00844" lon="6.84002">
        <ele>1047.8</ele>
        <time>2022-05-27T07:49:46Z</time>
      </trkpt>
      <trkpt lat="48.00843" lon="6.84">
        <ele>1047.6</ele>
        <time>2022-05-27T07:49:50Z</time>
      </trkpt>
      <trkpt lat="48.00844" lon="6.83999">
        <ele>1047.6</ele>
        <time>2022-05-27T07:50:07Z</time>
      </trkpt>
      <trkpt lat="48.00842" lon="6.83993">
        <ele>1047.8</ele>
        <time>2022-05-27T07:50:13Z</time>
      </trkpt>
      <trkpt lat="48.00841" lon="6.83993">
        <ele>1047.6</ele>
        <time>2022-05-27T07:50:37Z</time>
      </trkpt>
      <trkpt lat="48.00841" lon="6.83993">
        <ele>1047.4</ele>
        <time>2022-05-27T07:50:42Z</time>
      </trkpt>
      <trkpt lat="48.0084" lon="6.83993">
        <ele>1047.4</ele>
        <time>2022-05-27T07:50:46Z</time>
      </trkpt>
      <trkpt lat="48.0084" lon="6.83992">
        <ele>1047.6</ele>
        <time>2022-05-27T07:50:49Z</time>
      </trkpt>
      <trkpt lat="48.0084" lon="6.83991">
        <ele>1047.5</ele>
        <time>2022-05-27T07:50:52Z</time>
      </trkpt>
      <trkpt lat="48.0084" lon="6.8399">
        <ele>1047.6</ele>
        <time>2022-05-27T07:50:54Z</time>
      </trkpt>
      <trkpt lat="48.0084" lon="6.83989">
        <ele>1048</ele>
        <time>2022-05-27T07:50:57Z</time>
      </trkpt>
      <trkpt lat="48.0084" lon="6.83989">
        <ele>1047.4</ele>
        <time>2022-05-27T07:51:55Z</time>
      </trkpt>
      <trkpt lat="48.0084" lon="6.83988">
        <ele>1047.4</ele>
        <time>2022-05-27T07:52:00Z</time>
      </trkpt>
      <trkpt lat="48.00841" lon="6.83988">
        <ele>1047.7</ele>
        <time>2022-05-27T07:52:43Z</time>
      </trkpt>
      <trkpt lat="48.00841" lon="6.83988">
        <ele>1047.8</ele>
        <time>2022-05-27T07:53:59Z</time>
      </trkpt>
      <trkpt lat="48.00841" lon="6.83987">
        <ele>1047.3</ele>
        <time>2022-05-27T07:54:36Z</time>
      </trkpt>
      <trkpt lat="48.0084" lon="6.83987">
        <ele>1047.7</ele>
        <time>2022-05-27T07:55:40Z</time>
      </trkpt>
      <trkpt lat="48.0084" lon="6.83987">
        <ele>1047.5</ele>
        <time>2022-05-27T07:55:42Z</time>
      </trkpt>
      <trkpt lat="48.0084" lon="6.83987">
        <ele>1047.4</ele>
        <time>2022-05-27T07:55:49Z</time>
      </trkpt>
      <trkpt lat="48.0084" lon="6.83987">
        <ele>1047</ele>
        <time>2022-05-27T07:56:20Z</time>
      </trkpt>
      <trkpt lat="48.00832" lon="6.83977">
        <ele>1047.4</ele>
        <time>2022-05-27T07:56:26Z</time>
      </trkpt>
      <trkpt lat="48.00824" lon="6.83967">
        <ele>1047.5</ele>
        <time>2022-05-27T07:56:31Z</time>
      </trkpt>
      <trkpt lat="48.00817" lon="6.83953">
        <ele>1045.6</ele>
        <time>2022-05-27T07:56:35Z</time>
      </trkpt>
      <trkpt lat="48.00814" lon="6.83938">
        <ele>1045.4</ele>
        <time>2022-05-27T07:56:38Z</time>
      </trkpt>
      <trkpt lat="48.00808" lon="6.83922">
        <ele>1045.6</ele>
        <time>2022-05-27T07:56:41Z</time>
      </trkpt>
      <trkpt lat="48.008" lon="6.83912">
        <ele>1045.8</ele>
        <time>2022-05-27T07:56:44Z</time>
      </trkpt>
      <trkpt lat="48.00791" lon="6.83905">
        <ele>1046.7</ele>
        <time>2022-05-27T07:56:48Z</time>
      </trkpt>
      <trkpt lat="48.00782" lon="6.83899">
        <ele>1046.9</ele>
        <time>2022-05-27T07:56:52Z</time>
      </trkpt>
      <trkpt lat="48.00771" lon="6.83893">
        <ele>1046.1</ele>
        <time>2022-05-27T07:56:56Z</time>
      </trkpt>
      <trkpt lat="48.0076" lon="6.8389">
        <ele>1045.2</ele>
        <time>2022-05-27T07:56:59Z</time>
      </trkpt>
      <trkpt lat="48.00749" lon="6.83887">
        <ele>1044.9</ele>
        <time>2022-05-27T07:57:02Z</time>
      </trkpt>
      <trkpt lat="48.00738" lon="6.83885">
        <ele>1045.7</ele>
        <time>2022-05-27T07:57:05Z</time>
      </trkpt>
      <trkpt lat="48.00728" lon="6.83883">
        <ele>1044.9</ele>
        <time>2022-05-27T07:57:08Z</time>
      </trkpt>
      <trkpt lat="48.00716" lon="6.8388">
        <ele>1044.7</ele>
        <time>2022-05-27T07:57:11Z</time>
      </trkpt>
      <trkpt lat="48.00704" lon="6.83877">
        <ele>1046.1</ele>
        <time>2022-05-27T07:57:14Z</time>
      </trkpt>
      <trkpt lat="48.00694" lon="6.83875">
        <ele>1045.8</ele>
        <time>2022-05-27T07:57:17Z</time>
      </trkpt>
      <trkpt lat="48.00682" lon="6.83873">
        <ele>1045.2</ele>
        <time>2022-05-27T07:57:20Z</time>
      </trkpt>
      <trkpt lat="48.0067" lon="6.83868">
        <ele>1046.9</ele>
        <time>2022-05-27T07:57:23Z</time>
      </trkpt>
      <trkpt lat="48.00658" lon="6.8386">
        <ele>1044.5</ele>
        <time>2022-05-27T07:57:26Z</time>
      </trkpt>
      <trkpt lat="48.00644" lon="6.83853">
        <ele>1044.2</ele>
        <time>2022-05-27T07:57:29Z</time>
      </trkpt>
      <trkpt lat="48.00635" lon="6.83849">
        <ele>1043.6</ele>
        <time>2022-05-27T07:57:31Z</time>
      </trkpt>
      <trkpt lat="48.00624" lon="6.83844">
        <ele>1043.9</ele>
        <time>2022-05-27T07:57:33Z</time>
      </trkpt>
      <trkpt lat="48.00613" lon="6.83838">
        <ele>1043.4</ele>
        <time>2022-05-27T07:57:35Z</time>
      </trkpt>
      <trkpt lat="48.00604" lon="6.83823">
        <ele>1040.6</ele>
        <time>2022-05-27T07:57:38Z</time>
      </trkpt>
      <trkpt lat="48.00599" lon="6.83805">
        <ele>1039.3</ele>
        <time>2022-05-27T07:57:40Z</time>
      </trkpt>
      <trkpt lat="48.00599" lon="6.83784">
        <ele>1038.7</ele>
        <time>2022-05-27T07:57:42Z</time>
      </trkpt>
      <trkpt lat="48.00598" lon="6.83764">
        <ele>1037.5</ele>
        <time>2022-05-27T07:57:44Z</time>
      </trkpt>
      <trkpt lat="48.00595" lon="6.83744">
        <ele>1037.8</ele>
        <time>2022-05-27T07:57:46Z</time>
      </trkpt>
      <trkpt lat="48.00589" lon="6.83727">
        <ele>1037.5</ele>
        <time>2022-05-27T07:57:48Z</time>
      </trkpt>
      <trkpt lat="48.00581" lon="6.83714">
        <ele>1035.9</ele>
        <time>2022-05-27T07:57:50Z</time>
      </trkpt>
      <trkpt lat="48.00571" lon="6.83706">
        <ele>1035</ele>
        <time>2022-05-27T07:57:52Z</time>
      </trkpt>
      <trkpt lat="48.0056" lon="6.83697">
        <ele>1033.1</ele>
        <time>2022-05-27T07:57:54Z</time>
      </trkpt>
      <trkpt lat="48.00553" lon="6.83684">
        <ele>1033.7</ele>
        <time>2022-05-27T07:57:56Z</time>
      </trkpt>
      <trkpt lat="48.00548" lon="6.83667">
        <ele>1032.7</ele>
        <time>2022-05-27T07:57:58Z</time>
      </trkpt>
      <trkpt lat="48.00542" lon="6.83649">
        <ele>1030.3</ele>
        <time>2022-05-27T07:58:00Z</time>
      </trkpt>
      <trkpt lat="48.00535" lon="6.83633">
        <ele>1030.3</ele>
        <time>2022-05-27T07:58:02Z</time>
      </trkpt>
      <trkpt lat="48.00527" lon="6.83624">
        <ele>1030.2</ele>
        <time>2022-05-27T07:58:05Z</time>
      </trkpt>
      <trkpt lat="48.00517" lon="6.83627">
        <ele>1028.5</ele>
        <time>2022-05-27T07:58:08Z</time>
      </trkpt>
      <trkpt lat="48.0051" lon="6.83642">
        <ele>1029.7</ele>
        <time>2022-05-27T07:58:11Z</time>
      </trkpt>
      <trkpt lat="48.00503" lon="6.83654">
        <ele>1023.4</ele>
        <time>2022-05-27T07:58:13Z</time>
      </trkpt>
      <trkpt lat="48.00495" lon="6.83663">
        <ele>1026.1</ele>
        <time>2022-05-27T07:58:15Z</time>
      </trkpt>
      <trkpt lat="48.00485" lon="6.83673">
        <ele>1025.6</ele>
        <time>2022-05-27T07:58:17Z</time>
      </trkpt>
      <trkpt lat="48.00476" lon="6.83683">
        <ele>1026.2</ele>
        <time>2022-05-27T07:58:19Z</time>
      </trkpt>
      <trkpt lat="48.00467" lon="6.83693">
        <ele>1025.4</ele>
        <time>2022-05-27T07:58:21Z</time>
      </trkpt>
      <trkpt lat="48.00458" lon="6.83693">
        <ele>1024.5</ele>
        <time>2022-05-27T07:58:23Z</time>
      </trkpt>
      <trkpt lat="48.00447" lon="6.83687">
        <ele>1024.4</ele>
        <time>2022-05-27T07:58:26Z</time>
      </trkpt>
      <trkpt lat="48.00439" lon="6.8368">
        <ele>1022</ele>
        <time>2022-05-27T07:58:30Z</time>
      </trkpt>
      <trkpt lat="48.0043" lon="6.83669">
        <ele>1019.4</ele>
        <time>2022-05-27T07:58:35Z</time>
      </trkpt>
      <trkpt lat="48.00428" lon="6.83655">
        <ele>1017.6</ele>
        <time>2022-05-27T07:58:38Z</time>
      </trkpt>
      <trkpt lat="48.00428" lon="6.83641">
        <ele>1017</ele>
        <time>2022-05-27T07:58:40Z</time>
      </trkpt>
      <trkpt lat="48.00427" lon="6.83626">
        <ele>1014.6</ele>
        <time>2022-05-27T07:58:42Z</time>
      </trkpt>
      <trkpt lat="48.00429" lon="6.83607">
        <ele>1010.9</ele>
        <time>2022-05-27T07:58:44Z</time>
      </trkpt>
      <trkpt lat="48.00428" lon="6.83587">
        <ele>1012.9</ele>
        <time>2022-05-27T07:58:46Z</time>
      </trkpt>
      <trkpt lat="48.00428" lon="6.83566">
        <ele>1011</ele>
        <time>2022-05-27T07:58:48Z</time>
      </trkpt>
      <trkpt lat="48.00424" lon="6.83549">
        <ele>1011.8</ele>
        <time>2022-05-27T07:58:50Z</time>
      </trkpt>
      <trkpt lat="48.00414" lon="6.83541">
        <ele>1011.2</ele>
        <time>2022-05-27T07:58:53Z</time>
      </trkpt>
      <trkpt lat="48.00405" lon="6.83544">
        <ele>1011.5</ele>
        <time>2022-05-27T07:58:56Z</time>
      </trkpt>
      <trkpt lat="48.00398" lon="6.83534">
        <ele>1014.3</ele>
        <time>2022-05-27T07:59:00Z</time>
      </trkpt>
      <trkpt lat="48.00402" lon="6.83518">
        <ele>1014.7</ele>
        <time>2022-05-27T07:59:04Z</time>
      </trkpt>
      <trkpt lat="48.00404" lon="6.83501">
        <ele>1014.2</ele>
        <time>2022-05-27T07:59:08Z</time>
      </trkpt>
      <trkpt lat="48.00402" lon="6.83485">
        <ele>1013.9</ele>
        <time>2022-05-27T07:59:12Z</time>
      </trkpt>
      <trkpt lat="48.00394" lon="6.83471">
        <ele>1011.8</ele>
        <time>2022-05-27T07:59:16Z</time>
      </trkpt>
      <trkpt lat="48.00386" lon="6.8346">
        <ele>1011.6</ele>
        <time>2022-05-27T07:59:19Z</time>
      </trkpt>
      <trkpt lat="48.00378" lon="6.8345">
        <ele>1009.1</ele>
        <time>2022-05-27T07:59:23Z</time>
      </trkpt>
      <trkpt lat="48.00364" lon="6.83443">
        <ele>1006.5</ele>
        <time>2022-05-27T07:59:26Z</time>
      </trkpt>
      <trkpt lat="48.00355" lon="6.8343">
        <ele>1006.9</ele>
        <time>2022-05-27T07:59:28Z</time>
      </trkpt>
      <trkpt lat="48.00348" lon="6.83415">
        <ele>1005.3</ele>
        <time>2022-05-27T07:59:30Z</time>
      </trkpt>
      <trkpt lat="48.00346" lon="6.83401">
        <ele>1005.4</ele>
        <time>2022-05-27T07:59:32Z</time>
      </trkpt>
      <trkpt lat="48.00348" lon="6.83382">
        <ele>1006.1</ele>
        <time>2022-05-27T07:59:35Z</time>
      </trkpt>
      <trkpt lat="48.00343" lon="6.83368">
        <ele>1005</ele>
        <time>2022-05-27T07:59:38Z</time>
      </trkpt>
      <trkpt lat="48.00335" lon="6.83359">
        <ele>1005.8</ele>
        <time>2022-05-27T07:59:41Z</time>
      </trkpt>
      <trkpt lat="48.00328" lon="6.83349">
        <ele>1006</ele>
        <time>2022-05-27T07:59:44Z</time>
      </trkpt>
      <trkpt lat="48.00318" lon="6.83345">
        <ele>1007.9</ele>
        <time>2022-05-27T07:59:49Z</time>
      </trkpt>
      <trkpt lat="48.00309" lon="6.83348">
        <ele>1008.7</ele>
        <time>2022-05-27T07:59:53Z</time>
      </trkpt>
      <trkpt lat="48.00299" lon="6.8335">
        <ele>1008.3</ele>
        <time>2022-05-27T07:59:56Z</time>
      </trkpt>
      <trkpt lat="48.0029" lon="6.83354">
        <ele>1008.3</ele>
        <time>2022-05-27T07:59:59Z</time>
      </trkpt>
      <trkpt lat="48.0028" lon="6.83354">
        <ele>1009.4</ele>
        <time>2022-05-27T08:00:03Z</time>
      </trkpt>
      <trkpt lat="48.0027" lon="6.83356">
        <ele>1010.9</ele>
        <time>2022-05-27T08:00:07Z</time>
      </trkpt>
      <trkpt lat="48.00259" lon="6.83351">
        <ele>1011.9</ele>
        <time>2022-05-27T08:00:11Z</time>
      </trkpt>
      <trkpt lat="48.00251" lon="6.83343">
        <ele>1011.8</ele>
        <time>2022-05-27T08:00:15Z</time>
      </trkpt>
      <trkpt lat="48.00243" lon="6.83335">
        <ele>1011.6</ele>
        <time>2022-05-27T08:00:18Z</time>
      </trkpt>
      <trkpt lat="48.00233" lon="6.83326">
        <ele>1011.9</ele>
        <time>2022-05-27T08:00:21Z</time>
      </trkpt>
      <trkpt lat="48.00225" lon="6.83317">
        <ele>1012</ele>
        <time>2022-05-27T08:00:24Z</time>
      </trkpt>
      <trkpt lat="48.00217" lon="6.83309">
        <ele>1013</ele>
        <time>2022-05-27T08:00:27Z</time>
      </trkpt>
      <trkpt lat="48.00208" lon="6.83302">
        <ele>1012.4</ele>
        <time>2022-05-27T08:00:30Z</time>
      </trkpt>
      <trkpt lat="48.002" lon="6.8329">
        <ele>1014.1</ele>
        <time>2022-05-27T08:00:34Z</time>
      </trkpt>
      <trkpt lat="48.00197" lon="6.83276">
        <ele>1015.6</ele>
        <time>2022-05-27T08:00:38Z</time>
      </trkpt>
      <trkpt lat="48.00192" lon="6.83265">
        <ele>1016</ele>
        <time>2022-05-27T08:00:42Z</time>
      </trkpt>
      <trkpt lat="48.00185" lon="6.83253">
        <ele>1016.8</ele>
        <time>2022-05-27T08:00:46Z</time>
      </trkpt>
      <trkpt lat="48.0018" lon="6.8324">
        <ele>1017.4</ele>
        <time>2022-05-27T08:00:50Z</time>
      </trkpt>
      <trkpt lat="48.00173" lon="6.83228">
        <ele>1019.2</ele>
        <time>2022-05-27T08:00:55Z</time>
      </trkpt>
      <trkpt lat="48.0017" lon="6.83212">
        <ele>1019.4</ele>
        <time>2022-05-27T08:01:00Z</time>
      </trkpt>
      <trkpt lat="48.00167" lon="6.83197">
        <ele>1019.3</ele>
        <time>2022-05-27T08:01:04Z</time>
      </trkpt>
      <trkpt lat="48.00164" lon="6.83179">
        <ele>1018.6</ele>
        <time>2022-05-27T08:01:08Z</time>
      </trkpt>
      <trkpt lat="48.00159" lon="6.83164">
        <ele>1018.6</ele>
        <time>2022-05-27T08:01:11Z</time>
      </trkpt>
      <trkpt lat="48.00154" lon="6.83151">
        <ele>1018.1</ele>
        <time>2022-05-27T08:01:14Z</time>
      </trkpt>
      <trkpt lat="48.00149" lon="6.83138">
        <ele>1018.3</ele>
        <time>2022-05-27T08:01:17Z</time>
      </trkpt>
      <trkpt lat="48.00144" lon="6.83122">
        <ele>1018.8</ele>
        <time>2022-05-27T08:01:20Z</time>
      </trkpt>
      <trkpt lat="48.00139" lon="6.83111">
        <ele>1017.1</ele>
        <time>2022-05-27T08:01:24Z</time>
      </trkpt>
      <trkpt lat="48.00135" lon="6.83092">
        <ele>1017.4</ele>
        <time>2022-05-27T08:01:28Z</time>
      </trkpt>
      <trkpt lat="48.00132" lon="6.83076">
        <ele>1018.1</ele>
        <time>2022-05-27T08:01:31Z</time>
      </trkpt>
      <trkpt lat="48.00124" lon="6.83069">
        <ele>1018.6</ele>
        <time>2022-05-27T08:01:35Z</time>
      </trkpt>
      <trkpt lat="48.00112" lon="6.83072">
        <ele>1018.6</ele>
        <time>2022-05-27T08:01:39Z</time>
      </trkpt>
      <trkpt lat="48.00101" lon="6.83077">
        <ele>1018.6</ele>
        <time>2022-05-27T08:01:42Z</time>
      </trkpt>
      <trkpt lat="48.00088" lon="6.83082">
        <ele>1019.1</ele>
        <time>2022-05-27T08:01:45Z</time>
      </trkpt>
      <trkpt lat="48.00079" lon="6.83086">
        <ele>1019.4</ele>
        <time>2022-05-27T08:01:48Z</time>
      </trkpt>
      <trkpt lat="48.00067" lon="6.83091">
        <ele>1020.9</ele>
        <time>2022-05-27T08:01:52Z</time>
      </trkpt>
      <trkpt lat="48.00057" lon="6.83097">
        <ele>1020.8</ele>
        <time>2022-05-27T08:01:57Z</time>
      </trkpt>
      <trkpt lat="48.00046" lon="6.83098">
        <ele>1019.8</ele>
        <time>2022-05-27T08:02:00Z</time>
      </trkpt>
      <trkpt lat="48.00034" lon="6.83099">
        <ele>1019.1</ele>
        <time>2022-05-27T08:02:03Z</time>
      </trkpt>
      <trkpt lat="48.00021" lon="6.83104">
        <ele>1019.1</ele>
        <time>2022-05-27T08:02:06Z</time>
      </trkpt>
      <trkpt lat="48.00012" lon="6.83114">
        <ele>1019.5</ele>
        <time>2022-05-27T08:02:09Z</time>
      </trkpt>
      <trkpt lat="48.00001" lon="6.83125">
        <ele>1019.1</ele>
        <time>2022-05-27T08:02:12Z</time>
      </trkpt>
      <trkpt lat="47.99991" lon="6.83136">
        <ele>1018.9</ele>
        <time>2022-05-27T08:02:15Z</time>
      </trkpt>
      <trkpt lat="47.99982" lon="6.83144">
        <ele>1018.7</ele>
        <time>2022-05-27T08:02:18Z</time>
      </trkpt>
      <trkpt lat="47.99973" lon="6.83147">
        <ele>1020.5</ele>
        <time>2022-05-27T08:02:21Z</time>
      </trkpt>
      <trkpt lat="47.99961" lon="6.8315">
        <ele>1018.8</ele>
        <time>2022-05-27T08:02:24Z</time>
      </trkpt>
      <trkpt lat="47.99949" lon="6.83148">
        <ele>1019.2</ele>
        <time>2022-05-27T08:02:27Z</time>
      </trkpt>
      <trkpt lat="47.99941" lon="6.83142">
        <ele>1020.4</ele>
        <time>2022-05-27T08:02:30Z</time>
      </trkpt>
      <trkpt lat="47.99932" lon="6.83132">
        <ele>1021.2</ele>
        <time>2022-05-27T08:02:33Z</time>
      </trkpt>
      <trkpt lat="47.99924" lon="6.83123">
        <ele>1020.9</ele>
        <time>2022-05-27T08:02:37Z</time>
      </trkpt>
      <trkpt lat="47.99917" lon="6.83113">
        <ele>1022.9</ele>
        <time>2022-05-27T08:02:48Z</time>
      </trkpt>
      <trkpt lat="47.99915" lon="6.83112">
        <ele>1022.4</ele>
        <time>2022-05-27T08:02:52Z</time>
      </trkpt>
      <trkpt lat="47.99916" lon="6.83112">
        <ele>1022.6</ele>
        <time>2022-05-27T08:03:03Z</time>
      </trkpt>
      <trkpt lat="47.99916" lon="6.83111">
        <ele>1022.4</ele>
        <time>2022-05-27T08:03:12Z</time>
      </trkpt>
      <trkpt lat="47.99915" lon="6.83111">
        <ele>1022.6</ele>
        <time>2022-05-27T08:03:23Z</time>
      </trkpt>
      <trkpt lat="47.99911" lon="6.83098">
        <ele>1022.2</ele>
        <time>2022-05-27T08:03:30Z</time>
      </trkpt>
      <trkpt lat="47.99907" lon="6.83085">
        <ele>1022.4</ele>
        <time>2022-05-27T08:03:33Z</time>
      </trkpt>
      <trkpt lat="47.99902" lon="6.83074">
        <ele>1023.1</ele>
        <time>2022-05-27T08:03:37Z</time>
      </trkpt>
      <trkpt lat="47.99895" lon="6.8306">
        <ele>1021.3</ele>
        <time>2022-05-27T08:03:41Z</time>
      </trkpt>
      <trkpt lat="47.99884" lon="6.83052">
        <ele>1022.7</ele>
        <time>2022-05-27T08:03:45Z</time>
      </trkpt>
      <trkpt lat="47.99871" lon="6.83049">
        <ele>1022</ele>
        <time>2022-05-27T08:03:48Z</time>
      </trkpt>
      <trkpt lat="47.99859" lon="6.83045">
        <ele>1022.1</ele>
        <time>2022-05-27T08:03:51Z</time>
      </trkpt>
      <trkpt lat="47.99847" lon="6.83042">
        <ele>1022.2</ele>
        <time>2022-05-27T08:03:54Z</time>
      </trkpt>
      <trkpt lat="47.99837" lon="6.83038">
        <ele>1023.1</ele>
        <time>2022-05-27T08:03:57Z</time>
      </trkpt>
      <trkpt lat="47.99827" lon="6.83033">
        <ele>1024.3</ele>
        <time>2022-05-27T08:04:01Z</time>
      </trkpt>
      <trkpt lat="47.99817" lon="6.83025">
        <ele>1024.4</ele>
        <time>2022-05-27T08:04:05Z</time>
      </trkpt>
      <trkpt lat="47.99808" lon="6.83012">
        <ele>1025.2</ele>
        <time>2022-05-27T08:04:09Z</time>
      </trkpt>
      <trkpt lat="47.99801" lon="6.82999">
        <ele>1025.6</ele>
        <time>2022-05-27T08:04:12Z</time>
      </trkpt>
      <trkpt lat="47.99794" lon="6.82987">
        <ele>1025.7</ele>
        <time>2022-05-27T08:04:15Z</time>
      </trkpt>
      <trkpt lat="47.99787" lon="6.82973">
        <ele>1024.2</ele>
        <time>2022-05-27T08:04:18Z</time>
      </trkpt>
      <trkpt lat="47.9978" lon="6.82959">
        <ele>1023.8</ele>
        <time>2022-05-27T08:04:21Z</time>
      </trkpt>
      <trkpt lat="47.99772" lon="6.82945">
        <ele>1024.3</ele>
        <time>2022-05-27T08:04:24Z</time>
      </trkpt>
      <trkpt lat="47.99764" lon="6.82932">
        <ele>1023.7</ele>
        <time>2022-05-27T08:04:27Z</time>
      </trkpt>
      <trkpt lat="47.99755" lon="6.82918">
        <ele>1023.6</ele>
        <time>2022-05-27T08:04:30Z</time>
      </trkpt>
      <trkpt lat="47.99746" lon="6.82905">
        <ele>1023.9</ele>
        <time>2022-05-27T08:04:33Z</time>
      </trkpt>
      <trkpt lat="47.99737" lon="6.82892">
        <ele>1024</ele>
        <time>2022-05-27T08:04:36Z</time>
      </trkpt>
      <trkpt lat="47.99731" lon="6.82882">
        <ele>1023.5</ele>
        <time>2022-05-27T08:04:38Z</time>
      </trkpt>
      <trkpt lat="47.99725" lon="6.82871">
        <ele>1023.8</ele>
        <time>2022-05-27T08:04:40Z</time>
      </trkpt>
      <trkpt lat="47.99718" lon="6.82854">
        <ele>1021.7</ele>
        <time>2022-05-27T08:04:43Z</time>
      </trkpt>
      <trkpt lat="47.99713" lon="6.8284">
        <ele>1021.8</ele>
        <time>2022-05-27T08:04:45Z</time>
      </trkpt>
      <trkpt lat="47.99707" lon="6.82826">
        <ele>1021.1</ele>
        <time>2022-05-27T08:04:47Z</time>
      </trkpt>
      <trkpt lat="47.99699" lon="6.82815">
        <ele>1021.8</ele>
        <time>2022-05-27T08:04:49Z</time>
      </trkpt>
      <trkpt lat="47.9969" lon="6.82808">
        <ele>1020.4</ele>
        <time>2022-05-27T08:04:51Z</time>
      </trkpt>
      <trkpt lat="47.99681" lon="6.82803">
        <ele>1021.9</ele>
        <time>2022-05-27T08:04:53Z</time>
      </trkpt>
      <trkpt lat="47.99671" lon="6.82798">
        <ele>1022.3</ele>
        <time>2022-05-27T08:04:55Z</time>
      </trkpt>
      <trkpt lat="47.99662" lon="6.82796">
        <ele>1025</ele>
        <time>2022-05-27T08:04:57Z</time>
      </trkpt>
      <trkpt lat="47.99651" lon="6.82796">
        <ele>1023.5</ele>
        <time>2022-05-27T08:05:00Z</time>
      </trkpt>
      <trkpt lat="47.99641" lon="6.82795">
        <ele>1022.1</ele>
        <time>2022-05-27T08:05:04Z</time>
      </trkpt>
      <trkpt lat="47.99634" lon="6.82787">
        <ele>1021.4</ele>
        <time>2022-05-27T08:05:08Z</time>
      </trkpt>
      <trkpt lat="47.99632" lon="6.82785">
        <ele>1021</ele>
        <time>2022-05-27T08:05:11Z</time>
      </trkpt>
      <trkpt lat="47.99632" lon="6.82784">
        <ele>1021.5</ele>
        <time>2022-05-27T08:05:42Z</time>
      </trkpt>
      <trkpt lat="47.99625" lon="6.82776">
        <ele>1020.6</ele>
        <time>2022-05-27T08:05:46Z</time>
      </trkpt>
      <trkpt lat="47.99616" lon="6.82764">
        <ele>1019.1</ele>
        <time>2022-05-27T08:05:50Z</time>
      </trkpt>
      <trkpt lat="47.9961" lon="6.82752">
        <ele>1018.4</ele>
        <time>2022-05-27T08:05:54Z</time>
      </trkpt>
      <trkpt lat="47.99601" lon="6.82745">
        <ele>1016.7</ele>
        <time>2022-05-27T08:05:58Z</time>
      </trkpt>
      <trkpt lat="47.99596" lon="6.82731">
        <ele>1012.2</ele>
        <time>2022-05-27T08:06:02Z</time>
      </trkpt>
      <trkpt lat="47.99593" lon="6.82713">
        <ele>1013</ele>
        <time>2022-05-27T08:06:05Z</time>
      </trkpt>
      <trkpt lat="47.99587" lon="6.82695">
        <ele>1011.3</ele>
        <time>2022-05-27T08:06:08Z</time>
      </trkpt>
      <trkpt lat="47.99581" lon="6.82681">
        <ele>1008.8</ele>
        <time>2022-05-27T08:06:10Z</time>
      </trkpt>
      <trkpt lat="47.99575" lon="6.82667">
        <ele>1007.2</ele>
        <time>2022-05-27T08:06:12Z</time>
      </trkpt>
      <trkpt lat="47.99568" lon="6.82654">
        <ele>1009.2</ele>
        <time>2022-05-27T08:06:14Z</time>
      </trkpt>
      <trkpt lat="47.99561" lon="6.8264">
        <ele>1009.3</ele>
        <time>2022-05-27T08:06:16Z</time>
      </trkpt>
      <trkpt lat="47.99556" lon="6.82624">
        <ele>1009.5</ele>
        <time>2022-05-27T08:06:18Z</time>
      </trkpt>
      <trkpt lat="47.99551" lon="6.82609">
        <ele>1010.5</ele>
        <time>2022-05-27T08:06:20Z</time>
      </trkpt>
      <trkpt lat="47.99546" lon="6.82596">
        <ele>1008.2</ele>
        <time>2022-05-27T08:06:22Z</time>
      </trkpt>
      <trkpt lat="47.99538" lon="6.8258">
        <ele>1005.7</ele>
        <time>2022-05-27T08:06:25Z</time>
      </trkpt>
      <trkpt lat="47.9953" lon="6.82567">
        <ele>1006.6</ele>
        <time>2022-05-27T08:06:27Z</time>
      </trkpt>
      <trkpt lat="47.99523" lon="6.82554">
        <ele>1006.1</ele>
        <time>2022-05-27T08:06:29Z</time>
      </trkpt>
      <trkpt lat="47.99516" lon="6.8254">
        <ele>1006</ele>
        <time>2022-05-27T08:06:31Z</time>
      </trkpt>
      <trkpt lat="47.99508" lon="6.82526">
        <ele>1005.1</ele>
        <time>2022-05-27T08:06:33Z</time>
      </trkpt>
      <trkpt lat="47.995" lon="6.82513">
        <ele>1005.3</ele>
        <time>2022-05-27T08:06:35Z</time>
      </trkpt>
      <trkpt lat="47.99493" lon="6.825">
        <ele>1004.5</ele>
        <time>2022-05-27T08:06:37Z</time>
      </trkpt>
      <trkpt lat="47.99486" lon="6.82487">
        <ele>1004</ele>
        <time>2022-05-27T08:06:39Z</time>
      </trkpt>
      <trkpt lat="47.9948" lon="6.82475">
        <ele>1003.9</ele>
        <time>2022-05-27T08:06:41Z</time>
      </trkpt>
      <trkpt lat="47.99474" lon="6.82464">
        <ele>1004.5</ele>
        <time>2022-05-27T08:06:43Z</time>
      </trkpt>
      <trkpt lat="47.99467" lon="6.82452">
        <ele>1004.6</ele>
        <time>2022-05-27T08:06:45Z</time>
      </trkpt>
      <trkpt lat="47.99461" lon="6.8244">
        <ele>1003.4</ele>
        <time>2022-05-27T08:06:47Z</time>
      </trkpt>
      <trkpt lat="47.99455" lon="6.82428">
        <ele>1001.7</ele>
        <time>2022-05-27T08:06:49Z</time>
      </trkpt>
      <trkpt lat="47.99449" lon="6.82418">
        <ele>1001.6</ele>
        <time>2022-05-27T08:06:51Z</time>
      </trkpt>
      <trkpt lat="47.99445" lon="6.82402">
        <ele>1003.4</ele>
        <time>2022-05-27T08:06:54Z</time>
      </trkpt>
      <trkpt lat="47.99442" lon="6.82387">
        <ele>1003.7</ele>
        <time>2022-05-27T08:06:58Z</time>
      </trkpt>
      <trkpt lat="47.99438" lon="6.82374">
        <ele>1003.7</ele>
        <time>2022-05-27T08:07:01Z</time>
      </trkpt>
      <trkpt lat="47.99436" lon="6.82361">
        <ele>1004.3</ele>
        <time>2022-05-27T08:07:04Z</time>
      </trkpt>
      <trkpt lat="47.99433" lon="6.82346">
        <ele>1005</ele>
        <time>2022-05-27T08:07:07Z</time>
      </trkpt>
      <trkpt lat="47.99431" lon="6.82329">
        <ele>1005.8</ele>
        <time>2022-05-27T08:07:10Z</time>
      </trkpt>
      <trkpt lat="47.99429" lon="6.82314">
        <ele>1005.2</ele>
        <time>2022-05-27T08:07:13Z</time>
      </trkpt>
      <trkpt lat="47.99428" lon="6.823">
        <ele>1005.9</ele>
        <time>2022-05-27T08:07:16Z</time>
      </trkpt>
      <trkpt lat="47.99428" lon="6.82283">
        <ele>1004.6</ele>
        <time>2022-05-27T08:07:19Z</time>
      </trkpt>
      <trkpt lat="47.9943" lon="6.82266">
        <ele>1005.1</ele>
        <time>2022-05-27T08:07:22Z</time>
      </trkpt>
      <trkpt lat="47.99432" lon="6.82249">
        <ele>1004</ele>
        <time>2022-05-27T08:07:25Z</time>
      </trkpt>
      <trkpt lat="47.99431" lon="6.82234">
        <ele>1002.4</ele>
        <time>2022-05-27T08:07:28Z</time>
      </trkpt>
      <trkpt lat="47.9943" lon="6.82219">
        <ele>1004.6</ele>
        <time>2022-05-27T08:07:31Z</time>
      </trkpt>
      <trkpt lat="47.99428" lon="6.82205">
        <ele>1003.7</ele>
        <time>2022-05-27T08:07:34Z</time>
      </trkpt>
      <trkpt lat="47.99426" lon="6.82191">
        <ele>1003.6</ele>
        <time>2022-05-27T08:07:38Z</time>
      </trkpt>
      <trkpt lat="47.99425" lon="6.82185">
        <ele>1003.9</ele>
        <time>2022-05-27T08:07:43Z</time>
      </trkpt>
      <trkpt lat="47.99421" lon="6.82169">
        <ele>1002.5</ele>
        <time>2022-05-27T08:08:21Z</time>
      </trkpt>
      <trkpt lat="47.99417" lon="6.82151">
        <ele>1002.2</ele>
        <time>2022-05-27T08:08:24Z</time>
      </trkpt>
      <trkpt lat="47.99414" lon="6.82138">
        <ele>1002.5</ele>
        <time>2022-05-27T08:08:26Z</time>
      </trkpt>
      <trkpt lat="47.99412" lon="6.82125">
        <ele>1003.1</ele>
        <time>2022-05-27T08:08:28Z</time>
      </trkpt>
      <trkpt lat="47.9941" lon="6.82106">
        <ele>1002.6</ele>
        <time>2022-05-27T08:08:31Z</time>
      </trkpt>
      <trkpt lat="47.99409" lon="6.82089">
        <ele>1001.8</ele>
        <time>2022-05-27T08:08:34Z</time>
      </trkpt>
      <trkpt lat="47.99408" lon="6.82073">
        <ele>1002.6</ele>
        <time>2022-05-27T08:08:37Z</time>
      </trkpt>
      <trkpt lat="47.99408" lon="6.82057">
        <ele>1002.4</ele>
        <time>2022-05-27T08:08:40Z</time>
      </trkpt>
      <trkpt lat="47.99409" lon="6.82041">
        <ele>1003</ele>
        <time>2022-05-27T08:08:43Z</time>
      </trkpt>
      <trkpt lat="47.9941" lon="6.82026">
        <ele>1003.1</ele>
        <time>2022-05-27T08:08:46Z</time>
      </trkpt>
      <trkpt lat="47.99411" lon="6.82009">
        <ele>1004.1</ele>
        <time>2022-05-27T08:08:50Z</time>
      </trkpt>
      <trkpt lat="47.99412" lon="6.81992">
        <ele>1003.9</ele>
        <time>2022-05-27T08:08:54Z</time>
      </trkpt>
      <trkpt lat="47.99411" lon="6.81977">
        <ele>1003.5</ele>
        <time>2022-05-27T08:08:58Z</time>
      </trkpt>
      <trkpt lat="47.99405" lon="6.81963">
        <ele>1004.3</ele>
        <time>2022-05-27T08:09:01Z</time>
      </trkpt>
      <trkpt lat="47.99397" lon="6.81949">
        <ele>1004.6</ele>
        <time>2022-05-27T08:09:04Z</time>
      </trkpt>
      <trkpt lat="47.99391" lon="6.81936">
        <ele>1003.9</ele>
        <time>2022-05-27T08:09:07Z</time>
      </trkpt>
      <trkpt lat="47.99388" lon="6.8192">
        <ele>1003.4</ele>
        <time>2022-05-27T08:09:10Z</time>
      </trkpt>
      <trkpt lat="47.99385" lon="6.81905">
        <ele>1003.4</ele>
        <time>2022-05-27T08:09:13Z</time>
      </trkpt>
      <trkpt lat="47.99381" lon="6.81888">
        <ele>1004.5</ele>
        <time>2022-05-27T08:09:16Z</time>
      </trkpt>
      <trkpt lat="47.99377" lon="6.81873">
        <ele>1004.7</ele>
        <time>2022-05-27T08:09:19Z</time>
      </trkpt>
      <trkpt lat="47.99374" lon="6.81858">
        <ele>1005</ele>
        <time>2022-05-27T08:09:22Z</time>
      </trkpt>
      <trkpt lat="47.9937" lon="6.81843">
        <ele>1004.5</ele>
        <time>2022-05-27T08:09:25Z</time>
      </trkpt>
      <trkpt lat="47.99367" lon="6.81828">
        <ele>1004.5</ele>
        <time>2022-05-27T08:09:28Z</time>
      </trkpt>
      <trkpt lat="47.99365" lon="6.81812">
        <ele>1005.8</ele>
        <time>2022-05-27T08:09:31Z</time>
      </trkpt>
      <trkpt lat="47.99362" lon="6.81797">
        <ele>1005.5</ele>
        <time>2022-05-27T08:09:34Z</time>
      </trkpt>
      <trkpt lat="47.9936" lon="6.81782">
        <ele>1005.4</ele>
        <time>2022-05-27T08:09:37Z</time>
      </trkpt>
      <trkpt lat="47.99358" lon="6.81768">
        <ele>1006</ele>
        <time>2022-05-27T08:09:40Z</time>
      </trkpt>
      <trkpt lat="47.99357" lon="6.81752">
        <ele>1006.2</ele>
        <time>2022-05-27T08:09:43Z</time>
      </trkpt>
      <trkpt lat="47.99356" lon="6.81738">
        <ele>1006.4</ele>
        <time>2022-05-27T08:09:46Z</time>
      </trkpt>
      <trkpt lat="47.99356" lon="6.81722">
        <ele>1006.2</ele>
        <time>2022-05-27T08:09:49Z</time>
      </trkpt>
      <trkpt lat="47.99356" lon="6.81707">
        <ele>1006.4</ele>
        <time>2022-05-27T08:09:52Z</time>
      </trkpt>
      <trkpt lat="47.99356" lon="6.81694">
        <ele>1006.9</ele>
        <time>2022-05-27T08:09:55Z</time>
      </trkpt>
      <trkpt lat="47.99357" lon="6.81678">
        <ele>1007.3</ele>
        <time>2022-05-27T08:09:58Z</time>
      </trkpt>
      <trkpt lat="47.99359" lon="6.81661">
        <ele>1006.5</ele>
        <time>2022-05-27T08:10:01Z</time>
      </trkpt>
      <trkpt lat="47.99361" lon="6.81645">
        <ele>1006.8</ele>
        <time>2022-05-27T08:10:04Z</time>
      </trkpt>
      <trkpt lat="47.99364" lon="6.81628">
        <ele>1006.1</ele>
        <time>2022-05-27T08:10:07Z</time>
      </trkpt>
      <trkpt lat="47.9937" lon="6.81613">
        <ele>1006.2</ele>
        <time>2022-05-27T08:10:10Z</time>
      </trkpt>
      <trkpt lat="47.99377" lon="6.816">
        <ele>1005.6</ele>
        <time>2022-05-27T08:10:13Z</time>
      </trkpt>
      <trkpt lat="47.99387" lon="6.81589">
        <ele>1005.6</ele>
        <time>2022-05-27T08:10:16Z</time>
      </trkpt>
      <trkpt lat="47.99398" lon="6.81582">
        <ele>1004.4</ele>
        <time>2022-05-27T08:10:19Z</time>
      </trkpt>
      <trkpt lat="47.99408" lon="6.81578">
        <ele>1005.8</ele>
        <time>2022-05-27T08:10:22Z</time>
      </trkpt>
      <trkpt lat="47.99419" lon="6.81576">
        <ele>1006.2</ele>
        <time>2022-05-27T08:10:25Z</time>
      </trkpt>
      <trkpt lat="47.9943" lon="6.81574">
        <ele>1005</ele>
        <time>2022-05-27T08:10:28Z</time>
      </trkpt>
      <trkpt lat="47.9944" lon="6.81577">
        <ele>1005.3</ele>
        <time>2022-05-27T08:10:31Z</time>
      </trkpt>
      <trkpt lat="47.99451" lon="6.81577">
        <ele>1004.6</ele>
        <time>2022-05-27T08:10:34Z</time>
      </trkpt>
      <trkpt lat="47.99463" lon="6.81573">
        <ele>1003.5</ele>
        <time>2022-05-27T08:10:37Z</time>
      </trkpt>
      <trkpt lat="47.99474" lon="6.81569">
        <ele>1004.2</ele>
        <time>2022-05-27T08:10:40Z</time>
      </trkpt>
      <trkpt lat="47.99485" lon="6.81565">
        <ele>1006.2</ele>
        <time>2022-05-27T08:10:43Z</time>
      </trkpt>
      <trkpt lat="47.99495" lon="6.81561">
        <ele>1005.5</ele>
        <time>2022-05-27T08:10:46Z</time>
      </trkpt>
      <trkpt lat="47.99505" lon="6.81557">
        <ele>1005.6</ele>
        <time>2022-05-27T08:10:49Z</time>
      </trkpt>
      <trkpt lat="47.99516" lon="6.81554">
        <ele>1005.4</ele>
        <time>2022-05-27T08:10:52Z</time>
      </trkpt>
      <trkpt lat="47.99526" lon="6.8155">
        <ele>1005.4</ele>
        <time>2022-05-27T08:10:55Z</time>
      </trkpt>
      <trkpt lat="47.99536" lon="6.81546">
        <ele>1005.2</ele>
        <time>2022-05-27T08:10:58Z</time>
      </trkpt>
      <trkpt lat="47.99546" lon="6.81539">
        <ele>1004.9</ele>
        <time>2022-05-27T08:11:01Z</time>
      </trkpt>
      <trkpt lat="47.99551" lon="6.81524">
        <ele>1005</ele>
        <time>2022-05-27T08:11:05Z</time>
      </trkpt>
      <trkpt lat="47.99557" lon="6.8151">
        <ele>1004.6</ele>
        <time>2022-05-27T08:11:09Z</time>
      </trkpt>
      <trkpt lat="47.99562" lon="6.81497">
        <ele>1005.4</ele>
        <time>2022-05-27T08:11:12Z</time>
      </trkpt>
      <trkpt lat="47.99567" lon="6.81482">
        <ele>1005.8</ele>
        <time>2022-05-27T08:11:15Z</time>
      </trkpt>
      <trkpt lat="47.99571" lon="6.81468">
        <ele>1003.8</ele>
        <time>2022-05-27T08:11:17Z</time>
      </trkpt>
      <trkpt lat="47.99576" lon="6.81453">
        <ele>1003.8</ele>
        <time>2022-05-27T08:11:19Z</time>
      </trkpt>
      <trkpt lat="47.9958" lon="6.81439">
        <ele>1004.7</ele>
        <time>2022-05-27T08:11:21Z</time>
      </trkpt>
      <trkpt lat="47.99584" lon="6.81423">
        <ele>1002.2</ele>
        <time>2022-05-27T08:11:23Z</time>
      </trkpt>
      <trkpt lat="47.99589" lon="6.81407">
        <ele>1003.4</ele>
        <time>2022-05-27T08:11:25Z</time>
      </trkpt>
      <trkpt lat="47.99592" lon="6.81391">
        <ele>1001.4</ele>
        <time>2022-05-27T08:11:27Z</time>
      </trkpt>
      <trkpt lat="47.99595" lon="6.81375">
        <ele>1001</ele>
        <time>2022-05-27T08:11:29Z</time>
      </trkpt>
      <trkpt lat="47.99598" lon="6.81357">
        <ele>998.3</ele>
        <time>2022-05-27T08:11:31Z</time>
      </trkpt>
      <trkpt lat="47.99601" lon="6.81339">
        <ele>1001.4</ele>
        <time>2022-05-27T08:11:33Z</time>
      </trkpt>
      <trkpt lat="47.99605" lon="6.81322">
        <ele>999.3</ele>
        <time>2022-05-27T08:11:35Z</time>
      </trkpt>
      <trkpt lat="47.9961" lon="6.81305">
        <ele>999.8</ele>
        <time>2022-05-27T08:11:37Z</time>
      </trkpt>
      <trkpt lat="47.99615" lon="6.81289">
        <ele>998.3</ele>
        <time>2022-05-27T08:11:39Z</time>
      </trkpt>
      <trkpt lat="47.9962" lon="6.81272">
        <ele>998.3</ele>
        <time>2022-05-27T08:11:41Z</time>
      </trkpt>
      <trkpt lat="47.99625" lon="6.81254">
        <ele>998.7</ele>
        <time>2022-05-27T08:11:43Z</time>
      </trkpt>
      <trkpt lat="47.99629" lon="6.81236">
        <ele>995.3</ele>
        <time>2022-05-27T08:11:45Z</time>
      </trkpt>
      <trkpt lat="47.99631" lon="6.81217">
        <ele>994.4</ele>
        <time>2022-05-27T08:11:47Z</time>
      </trkpt>
      <trkpt lat="47.99632" lon="6.81198">
        <ele>993.8</ele>
        <time>2022-05-27T08:11:49Z</time>
      </trkpt>
      <trkpt lat="47.99634" lon="6.8118">
        <ele>993.7</ele>
        <time>2022-05-27T08:11:51Z</time>
      </trkpt>
      <trkpt lat="47.99634" lon="6.81163">
        <ele>994.6</ele>
        <time>2022-05-27T08:11:53Z</time>
      </trkpt>
      <trkpt lat="47.99632" lon="6.81148">
        <ele>995.5</ele>
        <time>2022-05-27T08:11:55Z</time>
      </trkpt>
      <trkpt lat="47.99629" lon="6.81128">
        <ele>992.5</ele>
        <time>2022-05-27T08:11:58Z</time>
      </trkpt>
      <trkpt lat="47.99626" lon="6.81112">
        <ele>991.7</ele>
        <time>2022-05-27T08:12:00Z</time>
      </trkpt>
      <trkpt lat="47.99624" lon="6.81094">
        <ele>989.4</ele>
        <time>2022-05-27T08:12:02Z</time>
      </trkpt>
      <trkpt lat="47.99621" lon="6.81076">
        <ele>987.9</ele>
        <time>2022-05-27T08:12:04Z</time>
      </trkpt>
      <trkpt lat="47.99619" lon="6.8106">
        <ele>989.1</ele>
        <time>2022-05-27T08:12:06Z</time>
      </trkpt>
      <trkpt lat="47.99618" lon="6.81044">
        <ele>987.4</ele>
        <time>2022-05-27T08:12:08Z</time>
      </trkpt>
      <trkpt lat="47.99617" lon="6.81027">
        <ele>990.1</ele>
        <time>2022-05-27T08:12:11Z</time>
      </trkpt>
      <trkpt lat="47.99616" lon="6.81021">
        <ele>988.4</ele>
        <time>2022-05-27T08:12:14Z</time>
      </trkpt>
      <trkpt lat="47.99616" lon="6.81022">
        <ele>988.7</ele>
        <time>2022-05-27T08:14:19Z</time>
      </trkpt>
      <trkpt lat="47.99612" lon="6.81009">
        <ele>988</ele>
        <time>2022-05-27T08:14:24Z</time>
      </trkpt>
      <trkpt lat="47.99609" lon="6.80992">
        <ele>986.5</ele>
        <time>2022-05-27T08:14:27Z</time>
      </trkpt>
      <trkpt lat="47.99606" lon="6.80973">
        <ele>987.3</ele>
        <time>2022-05-27T08:14:30Z</time>
      </trkpt>
      <trkpt lat="47.99604" lon="6.80954">
        <ele>986.5</ele>
        <time>2022-05-27T08:14:33Z</time>
      </trkpt>
      <trkpt lat="47.99603" lon="6.80937">
        <ele>986.5</ele>
        <time>2022-05-27T08:14:36Z</time>
      </trkpt>
      <trkpt lat="47.99604" lon="6.80922">
        <ele>985.9</ele>
        <time>2022-05-27T08:14:39Z</time>
      </trkpt>
      <trkpt lat="47.99607" lon="6.80908">
        <ele>985</ele>
        <time>2022-05-27T08:14:42Z</time>
      </trkpt>
      <trkpt lat="47.99611" lon="6.80894">
        <ele>984.9</ele>
        <time>2022-05-27T08:14:45Z</time>
      </trkpt>
      <trkpt lat="47.99617" lon="6.80878">
        <ele>981.4</ele>
        <time>2022-05-27T08:14:48Z</time>
      </trkpt>
      <trkpt lat="47.99622" lon="6.80866">
        <ele>982.7</ele>
        <time>2022-05-27T08:14:50Z</time>
      </trkpt>
      <trkpt lat="47.99629" lon="6.80852">
        <ele>980.7</ele>
        <time>2022-05-27T08:14:52Z</time>
      </trkpt>
      <trkpt lat="47.99636" lon="6.80837">
        <ele>979.4</ele>
        <time>2022-05-27T08:14:54Z</time>
      </trkpt>
      <trkpt lat="47.99642" lon="6.80823">
        <ele>975.7</ele>
        <time>2022-05-27T08:14:56Z</time>
      </trkpt>
      <trkpt lat="47.99648" lon="6.80811">
        <ele>975</ele>
        <time>2022-05-27T08:14:58Z</time>
      </trkpt>
      <trkpt lat="47.99656" lon="6.80797">
        <ele>976.9</ele>
        <time>2022-05-27T08:15:01Z</time>
      </trkpt>
      <trkpt lat="47.99665" lon="6.80784">
        <ele>975.4</ele>
        <time>2022-05-27T08:15:04Z</time>
      </trkpt>
      <trkpt lat="47.99672" lon="6.80772">
        <ele>975.4</ele>
        <time>2022-05-27T08:15:06Z</time>
      </trkpt>
      <trkpt lat="47.99679" lon="6.8076">
        <ele>972.8</ele>
        <time>2022-05-27T08:15:08Z</time>
      </trkpt>
      <trkpt lat="47.99689" lon="6.8075">
        <ele>971.2</ele>
        <time>2022-05-27T08:15:10Z</time>
      </trkpt>
      <trkpt lat="47.997" lon="6.80743">
        <ele>970.3</ele>
        <time>2022-05-27T08:15:12Z</time>
      </trkpt>
      <trkpt lat="47.99711" lon="6.80734">
        <ele>970.2</ele>
        <time>2022-05-27T08:15:14Z</time>
      </trkpt>
      <trkpt lat="47.9972" lon="6.80721">
        <ele>969.6</ele>
        <time>2022-05-27T08:15:16Z</time>
      </trkpt>
      <trkpt lat="47.9973" lon="6.80709">
        <ele>971.2</ele>
        <time>2022-05-27T08:15:19Z</time>
      </trkpt>
      <trkpt lat="47.99743" lon="6.80705">
        <ele>969.2</ele>
        <time>2022-05-27T08:15:22Z</time>
      </trkpt>
      <trkpt lat="47.99756" lon="6.80709">
        <ele>969.1</ele>
        <time>2022-05-27T08:15:25Z</time>
      </trkpt>
      <trkpt lat="47.99763" lon="6.80723">
        <ele>969.9</ele>
        <time>2022-05-27T08:15:28Z</time>
      </trkpt>
      <trkpt lat="47.99768" lon="6.80741">
        <ele>968.4</ele>
        <time>2022-05-27T08:15:31Z</time>
      </trkpt>
      <trkpt lat="47.9977" lon="6.80754">
        <ele>969.1</ele>
        <time>2022-05-27T08:15:33Z</time>
      </trkpt>
      <trkpt lat="47.99774" lon="6.80773">
        <ele>967.4</ele>
        <time>2022-05-27T08:15:36Z</time>
      </trkpt>
      <trkpt lat="47.99779" lon="6.80786">
        <ele>968.4</ele>
        <time>2022-05-27T08:15:38Z</time>
      </trkpt>
      <trkpt lat="47.99786" lon="6.80798">
        <ele>968.2</ele>
        <time>2022-05-27T08:15:40Z</time>
      </trkpt>
      <trkpt lat="47.99792" lon="6.8081">
        <ele>969.3</ele>
        <time>2022-05-27T08:15:42Z</time>
      </trkpt>
      <trkpt lat="47.99799" lon="6.80821">
        <ele>968.7</ele>
        <time>2022-05-27T08:15:44Z</time>
      </trkpt>
      <trkpt lat="47.99806" lon="6.80833">
        <ele>965.7</ele>
        <time>2022-05-27T08:15:46Z</time>
      </trkpt>
      <trkpt lat="47.99814" lon="6.80843">
        <ele>964.1</ele>
        <time>2022-05-27T08:15:48Z</time>
      </trkpt>
      <trkpt lat="47.99824" lon="6.80853">
        <ele>965.7</ele>
        <time>2022-05-27T08:15:50Z</time>
      </trkpt>
      <trkpt lat="47.99833" lon="6.80866">
        <ele>965</ele>
        <time>2022-05-27T08:15:52Z</time>
      </trkpt>
      <trkpt lat="47.99845" lon="6.80875">
        <ele>965.3</ele>
        <time>2022-05-27T08:15:54Z</time>
      </trkpt>
      <trkpt lat="47.99857" lon="6.80884">
        <ele>962.1</ele>
        <time>2022-05-27T08:15:56Z</time>
      </trkpt>
      <trkpt lat="47.99869" lon="6.80896">
        <ele>961.4</ele>
        <time>2022-05-27T08:15:58Z</time>
      </trkpt>
      <trkpt lat="47.99878" lon="6.80912">
        <ele>961.8</ele>
        <time>2022-05-27T08:16:00Z</time>
      </trkpt>
      <trkpt lat="47.99882" lon="6.80931">
        <ele>962.3</ele>
        <time>2022-05-27T08:16:02Z</time>
      </trkpt>
      <trkpt lat="47.99885" lon="6.80951">
        <ele>960.7</ele>
        <time>2022-05-27T08:16:04Z</time>
      </trkpt>
      <trkpt lat="47.99891" lon="6.80973">
        <ele>962.4</ele>
        <time>2022-05-27T08:16:06Z</time>
      </trkpt>
      <trkpt lat="47.999" lon="6.80993">
        <ele>962.5</ele>
        <time>2022-05-27T08:16:08Z</time>
      </trkpt>
      <trkpt lat="47.99909" lon="6.81014">
        <ele>958.8</ele>
        <time>2022-05-27T08:16:10Z</time>
      </trkpt>
      <trkpt lat="47.99916" lon="6.81035">
        <ele>957.8</ele>
        <time>2022-05-27T08:16:12Z</time>
      </trkpt>
      <trkpt lat="47.99924" lon="6.81055">
        <ele>959.9</ele>
        <time>2022-05-27T08:16:14Z</time>
      </trkpt>
      <trkpt lat="47.99931" lon="6.81075">
        <ele>958.6</ele>
        <time>2022-05-27T08:16:16Z</time>
      </trkpt>
      <trkpt lat="47.99933" lon="6.81097">
        <ele>957.5</ele>
        <time>2022-05-27T08:16:18Z</time>
      </trkpt>
      <trkpt lat="47.99932" lon="6.81119">
        <ele>957.4</ele>
        <time>2022-05-27T08:16:20Z</time>
      </trkpt>
      <trkpt lat="47.99935" lon="6.8114">
        <ele>955.8</ele>
        <time>2022-05-27T08:16:22Z</time>
      </trkpt>
      <trkpt lat="47.99941" lon="6.81157">
        <ele>956.8</ele>
        <time>2022-05-27T08:16:24Z</time>
      </trkpt>
      <trkpt lat="47.99952" lon="6.81166">
        <ele>955.9</ele>
        <time>2022-05-27T08:16:26Z</time>
      </trkpt>
      <trkpt lat="47.99962" lon="6.81176">
        <ele>954</ele>
        <time>2022-05-27T08:16:28Z</time>
      </trkpt>
      <trkpt lat="47.99966" lon="6.81193">
        <ele>954.2</ele>
        <time>2022-05-27T08:16:30Z</time>
      </trkpt>
      <trkpt lat="47.99964" lon="6.81212">
        <ele>954.3</ele>
        <time>2022-05-27T08:16:32Z</time>
      </trkpt>
      <trkpt lat="47.99959" lon="6.81231">
        <ele>952.9</ele>
        <time>2022-05-27T08:16:34Z</time>
      </trkpt>
      <trkpt lat="47.99952" lon="6.81251">
        <ele>951.6</ele>
        <time>2022-05-27T08:16:36Z</time>
      </trkpt>
      <trkpt lat="47.99946" lon="6.8127">
        <ele>953.1</ele>
        <time>2022-05-27T08:16:38Z</time>
      </trkpt>
      <trkpt lat="47.99942" lon="6.81291">
        <ele>952</ele>
        <time>2022-05-27T08:16:40Z</time>
      </trkpt>
      <trkpt lat="47.99939" lon="6.81313">
        <ele>948.5</ele>
        <time>2022-05-27T08:16:42Z</time>
      </trkpt>
      <trkpt lat="47.99936" lon="6.81334">
        <ele>949</ele>
        <time>2022-05-27T08:16:44Z</time>
      </trkpt>
      <trkpt lat="47.99933" lon="6.81354">
        <ele>952.2</ele>
        <time>2022-05-27T08:16:46Z</time>
      </trkpt>
      <trkpt lat="47.99928" lon="6.81375">
        <ele>950.4</ele>
        <time>2022-05-27T08:16:48Z</time>
      </trkpt>
      <trkpt lat="47.99925" lon="6.81394">
        <ele>949</ele>
        <time>2022-05-27T08:16:50Z</time>
      </trkpt>
      <trkpt lat="47.99922" lon="6.81413">
        <ele>949.3</ele>
        <time>2022-05-27T08:16:52Z</time>
      </trkpt>
      <trkpt lat="47.99918" lon="6.81431">
        <ele>950.7</ele>
        <time>2022-05-27T08:16:54Z</time>
      </trkpt>
      <trkpt lat="47.99914" lon="6.81449">
        <ele>949.5</ele>
        <time>2022-05-27T08:16:56Z</time>
      </trkpt>
      <trkpt lat="47.99913" lon="6.81468">
        <ele>949.6</ele>
        <time>2022-05-27T08:16:58Z</time>
      </trkpt>
      <trkpt lat="47.99913" lon="6.81488">
        <ele>947.9</ele>
        <time>2022-05-27T08:17:00Z</time>
      </trkpt>
      <trkpt lat="47.99914" lon="6.81509">
        <ele>946.1</ele>
        <time>2022-05-27T08:17:02Z</time>
      </trkpt>
      <trkpt lat="47.99914" lon="6.81531">
        <ele>945.3</ele>
        <time>2022-05-27T08:17:04Z</time>
      </trkpt>
      <trkpt lat="47.99914" lon="6.81554">
        <ele>946.9</ele>
        <time>2022-05-27T08:17:06Z</time>
      </trkpt>
      <trkpt lat="47.99912" lon="6.81578">
        <ele>946.8</ele>
        <time>2022-05-27T08:17:08Z</time>
      </trkpt>
      <trkpt lat="47.99911" lon="6.816">
        <ele>945.3</ele>
        <time>2022-05-27T08:17:10Z</time>
      </trkpt>
      <trkpt lat="47.99912" lon="6.81622">
        <ele>946</ele>
        <time>2022-05-27T08:17:12Z</time>
      </trkpt>
      <trkpt lat="47.99915" lon="6.81644">
        <ele>945.7</ele>
        <time>2022-05-27T08:17:14Z</time>
      </trkpt>
      <trkpt lat="47.99919" lon="6.81666">
        <ele>946.3</ele>
        <time>2022-05-27T08:17:16Z</time>
      </trkpt>
      <trkpt lat="47.99923" lon="6.81686">
        <ele>945.1</ele>
        <time>2022-05-27T08:17:18Z</time>
      </trkpt>
      <trkpt lat="47.99928" lon="6.81702">
        <ele>946.8</ele>
        <time>2022-05-27T08:17:20Z</time>
      </trkpt>
      <trkpt lat="47.99934" lon="6.81715">
        <ele>946.9</ele>
        <time>2022-05-27T08:17:22Z</time>
      </trkpt>
      <trkpt lat="47.99942" lon="6.81723">
        <ele>947.8</ele>
        <time>2022-05-27T08:17:24Z</time>
      </trkpt>
      <trkpt lat="47.99952" lon="6.81729">
        <ele>948.6</ele>
        <time>2022-05-27T08:17:26Z</time>
      </trkpt>
      <trkpt lat="47.99962" lon="6.8173">
        <ele>947.2</ele>
        <time>2022-05-27T08:17:28Z</time>
      </trkpt>
      <trkpt lat="47.99975" lon="6.81731">
        <ele>949.8</ele>
        <time>2022-05-27T08:17:31Z</time>
      </trkpt>
      <trkpt lat="47.99984" lon="6.81737">
        <ele>949.6</ele>
        <time>2022-05-27T08:17:33Z</time>
      </trkpt>
      <trkpt lat="47.99992" lon="6.81746">
        <ele>949.7</ele>
        <time>2022-05-27T08:17:35Z</time>
      </trkpt>
      <trkpt lat="48.00001" lon="6.81753">
        <ele>950.8</ele>
        <time>2022-05-27T08:17:37Z</time>
      </trkpt>
      <trkpt lat="48.0001" lon="6.81763">
        <ele>951.6</ele>
        <time>2022-05-27T08:17:40Z</time>
      </trkpt>
      <trkpt lat="48.00019" lon="6.81776">
        <ele>952.9</ele>
        <time>2022-05-27T08:17:44Z</time>
      </trkpt>
      <trkpt lat="48.00028" lon="6.81783">
        <ele>953.9</ele>
        <time>2022-05-27T08:17:48Z</time>
      </trkpt>
      <trkpt lat="48.00038" lon="6.81787">
        <ele>954.2</ele>
        <time>2022-05-27T08:17:52Z</time>
      </trkpt>
      <trkpt lat="48.00048" lon="6.81788">
        <ele>953.9</ele>
        <time>2022-05-27T08:17:55Z</time>
      </trkpt>
      <trkpt lat="48.00057" lon="6.81789">
        <ele>955</ele>
        <time>2022-05-27T08:17:58Z</time>
      </trkpt>
      <trkpt lat="48.00067" lon="6.8179">
        <ele>954.2</ele>
        <time>2022-05-27T08:18:01Z</time>
      </trkpt>
      <trkpt lat="48.00078" lon="6.8179">
        <ele>952.8</ele>
        <time>2022-05-27T08:18:04Z</time>
      </trkpt>
      <trkpt lat="48.00088" lon="6.81784">
        <ele>953.4</ele>
        <time>2022-05-27T08:18:07Z</time>
      </trkpt>
      <trkpt lat="48.00098" lon="6.81774">
        <ele>953.5</ele>
        <time>2022-05-27T08:18:10Z</time>
      </trkpt>
      <trkpt lat="48.00108" lon="6.81764">
        <ele>954</ele>
        <time>2022-05-27T08:18:13Z</time>
      </trkpt>
      <trkpt lat="48.00116" lon="6.81756">
        <ele>953.6</ele>
        <time>2022-05-27T08:18:16Z</time>
      </trkpt>
      <trkpt lat="48.00122" lon="6.81745">
        <ele>952.6</ele>
        <time>2022-05-27T08:18:22Z</time>
      </trkpt>
      <trkpt lat="48.00122" lon="6.81741">
        <ele>952.8</ele>
        <time>2022-05-27T08:18:27Z</time>
      </trkpt>
      <trkpt lat="48.00122" lon="6.81741">
        <ele>953</ele>
        <time>2022-05-27T08:18:35Z</time>
      </trkpt>
      <trkpt lat="48.00123" lon="6.81741">
        <ele>953.2</ele>
        <time>2022-05-27T08:18:42Z</time>
      </trkpt>
      <trkpt lat="48.00123" lon="6.81742">
        <ele>953.1</ele>
        <time>2022-05-27T08:18:55Z</time>
      </trkpt>
      <trkpt lat="48.00123" lon="6.81742">
        <ele>953.1</ele>
        <time>2022-05-27T08:18:57Z</time>
      </trkpt>
      <trkpt lat="48.00123" lon="6.81741">
        <ele>953.1</ele>
        <time>2022-05-27T08:19:47Z</time>
      </trkpt>
      <trkpt lat="48.00123" lon="6.81741">
        <ele>953.1</ele>
        <time>2022-05-27T08:20:14Z</time>
      </trkpt>
      <trkpt lat="48.00131" lon="6.81727">
        <ele>951.3</ele>
        <time>2022-05-27T08:20:41Z</time>
      </trkpt>
      <trkpt lat="48.00138" lon="6.81713">
        <ele>949.5</ele>
        <time>2022-05-27T08:20:43Z</time>
      </trkpt>
      <trkpt lat="48.00145" lon="6.81698">
        <ele>948.6</ele>
        <time>2022-05-27T08:20:45Z</time>
      </trkpt>
      <trkpt lat="48.00152" lon="6.81684">
        <ele>946.4</ele>
        <time>2022-05-27T08:20:47Z</time>
      </trkpt>
      <trkpt lat="48.00159" lon="6.81668">
        <ele>945.5</ele>
        <time>2022-05-27T08:20:49Z</time>
      </trkpt>
      <trkpt lat="48.00167" lon="6.81653">
        <ele>943.5</ele>
        <time>2022-05-27T08:20:51Z</time>
      </trkpt>
      <trkpt lat="48.00174" lon="6.81637">
        <ele>944.2</ele>
        <time>2022-05-27T08:20:53Z</time>
      </trkpt>
      <trkpt lat="48.0018" lon="6.81618">
        <ele>939.1</ele>
        <time>2022-05-27T08:20:55Z</time>
      </trkpt>
      <trkpt lat="48.00189" lon="6.81598">
        <ele>937.2</ele>
        <time>2022-05-27T08:20:57Z</time>
      </trkpt>
      <trkpt lat="48.00198" lon="6.81582">
        <ele>937.9</ele>
        <time>2022-05-27T08:20:59Z</time>
      </trkpt>
      <trkpt lat="48.00207" lon="6.81564">
        <ele>934.7</ele>
        <time>2022-05-27T08:21:01Z</time>
      </trkpt>
      <trkpt lat="48.00211" lon="6.81541">
        <ele>933.1</ele>
        <time>2022-05-27T08:21:03Z</time>
      </trkpt>
      <trkpt lat="48.00212" lon="6.81518">
        <ele>933.7</ele>
        <time>2022-05-27T08:21:05Z</time>
      </trkpt>
      <trkpt lat="48.00216" lon="6.81496">
        <ele>931.4</ele>
        <time>2022-05-27T08:21:07Z</time>
      </trkpt>
      <trkpt lat="48.00218" lon="6.81472">
        <ele>930.5</ele>
        <time>2022-05-27T08:21:09Z</time>
      </trkpt>
      <trkpt lat="48.00219" lon="6.81449">
        <ele>933.5</ele>
        <time>2022-05-27T08:21:11Z</time>
      </trkpt>
      <trkpt lat="48.00221" lon="6.81432">
        <ele>926.9</ele>
        <time>2022-05-27T08:21:13Z</time>
      </trkpt>
      <trkpt lat="48.00216" lon="6.81419">
        <ele>925.3</ele>
        <time>2022-05-27T08:21:15Z</time>
      </trkpt>
      <trkpt lat="48.00205" lon="6.81415">
        <ele>925.5</ele>
        <time>2022-05-27T08:21:17Z</time>
      </trkpt>
      <trkpt lat="48.00193" lon="6.81424">
        <ele>926.9</ele>
        <time>2022-05-27T08:21:19Z</time>
      </trkpt>
      <trkpt lat="48.00184" lon="6.81439">
        <ele>925.4</ele>
        <time>2022-05-27T08:21:21Z</time>
      </trkpt>
      <trkpt lat="48.00173" lon="6.81455">
        <ele>923.7</ele>
        <time>2022-05-27T08:21:23Z</time>
      </trkpt>
      <trkpt lat="48.00161" lon="6.81467">
        <ele>918.3</ele>
        <time>2022-05-27T08:21:25Z</time>
      </trkpt>
      <trkpt lat="48.00148" lon="6.8147">
        <ele>918.2</ele>
        <time>2022-05-27T08:21:27Z</time>
      </trkpt>
      <trkpt lat="48.00135" lon="6.81465">
        <ele>915.3</ele>
        <time>2022-05-27T08:21:29Z</time>
      </trkpt>
      <trkpt lat="48.00121" lon="6.81454">
        <ele>914.5</ele>
        <time>2022-05-27T08:21:31Z</time>
      </trkpt>
      <trkpt lat="48.00106" lon="6.8144">
        <ele>914.8</ele>
        <time>2022-05-27T08:21:33Z</time>
      </trkpt>
      <trkpt lat="48.00095" lon="6.81428">
        <ele>913.9</ele>
        <time>2022-05-27T08:21:35Z</time>
      </trkpt>
      <trkpt lat="48.00087" lon="6.81412">
        <ele>910.9</ele>
        <time>2022-05-27T08:21:37Z</time>
      </trkpt>
      <trkpt lat="48.00089" lon="6.81394">
        <ele>909.7</ele>
        <time>2022-05-27T08:21:39Z</time>
      </trkpt>
      <trkpt lat="48.00095" lon="6.81379">
        <ele>910.1</ele>
        <time>2022-05-27T08:21:41Z</time>
      </trkpt>
      <trkpt lat="48.00104" lon="6.81365">
        <ele>908.9</ele>
        <time>2022-05-27T08:21:43Z</time>
      </trkpt>
      <trkpt lat="48.00115" lon="6.81349">
        <ele>904.9</ele>
        <time>2022-05-27T08:21:45Z</time>
      </trkpt>
      <trkpt lat="48.00128" lon="6.81335">
        <ele>904</ele>
        <time>2022-05-27T08:21:47Z</time>
      </trkpt>
      <trkpt lat="48.00141" lon="6.81323">
        <ele>905.2</ele>
        <time>2022-05-27T08:21:49Z</time>
      </trkpt>
      <trkpt lat="48.0015" lon="6.81309">
        <ele>898.8</ele>
        <time>2022-05-27T08:21:51Z</time>
      </trkpt>
      <trkpt lat="48.00155" lon="6.81288">
        <ele>899.2</ele>
        <time>2022-05-27T08:21:53Z</time>
      </trkpt>
      <trkpt lat="48.0016" lon="6.81265">
        <ele>900.8</ele>
        <time>2022-05-27T08:21:55Z</time>
      </trkpt>
      <trkpt lat="48.00163" lon="6.81241">
        <ele>898.9</ele>
        <time>2022-05-27T08:21:57Z</time>
      </trkpt>
      <trkpt lat="48.00166" lon="6.81218">
        <ele>897.2</ele>
        <time>2022-05-27T08:21:59Z</time>
      </trkpt>
      <trkpt lat="48.00168" lon="6.81198">
        <ele>896.6</ele>
        <time>2022-05-27T08:22:01Z</time>
      </trkpt>
      <trkpt lat="48.00162" lon="6.81183">
        <ele>894.7</ele>
        <time>2022-05-27T08:22:03Z</time>
      </trkpt>
      <trkpt lat="48.00152" lon="6.81184">
        <ele>893.3</ele>
        <time>2022-05-27T08:22:05Z</time>
      </trkpt>
      <trkpt lat="48.00143" lon="6.81195">
        <ele>890.9</ele>
        <time>2022-05-27T08:22:07Z</time>
      </trkpt>
      <trkpt lat="48.00132" lon="6.81199">
        <ele>888.6</ele>
        <time>2022-05-27T08:22:10Z</time>
      </trkpt>
      <trkpt lat="48.00127" lon="6.81186">
        <ele>887.3</ele>
        <time>2022-05-27T08:22:12Z</time>
      </trkpt>
      <trkpt lat="48.00128" lon="6.81167">
        <ele>887.7</ele>
        <time>2022-05-27T08:22:14Z</time>
      </trkpt>
      <trkpt lat="48.00133" lon="6.81145">
        <ele>884.3</ele>
        <time>2022-05-27T08:22:16Z</time>
      </trkpt>
      <trkpt lat="48.00137" lon="6.81123">
        <ele>882.6</ele>
        <time>2022-05-27T08:22:18Z</time>
      </trkpt>
      <trkpt lat="48.00142" lon="6.81103">
        <ele>884.9</ele>
        <time>2022-05-27T08:22:20Z</time>
      </trkpt>
      <trkpt lat="48.0015" lon="6.81083">
        <ele>882.4</ele>
        <time>2022-05-27T08:22:22Z</time>
      </trkpt>
      <trkpt lat="48.00161" lon="6.81067">
        <ele>880.2</ele>
        <time>2022-05-27T08:22:24Z</time>
      </trkpt>
      <trkpt lat="48.00174" lon="6.81058">
        <ele>879.4</ele>
        <time>2022-05-27T08:22:26Z</time>
      </trkpt>
      <trkpt lat="48.00187" lon="6.81056">
        <ele>877.8</ele>
        <time>2022-05-27T08:22:28Z</time>
      </trkpt>
      <trkpt lat="48.00199" lon="6.81066">
        <ele>874.6</ele>
        <time>2022-05-27T08:22:30Z</time>
      </trkpt>
      <trkpt lat="48.00211" lon="6.81076">
        <ele>873.2</ele>
        <time>2022-05-27T08:22:32Z</time>
      </trkpt>
      <trkpt lat="48.00223" lon="6.81081">
        <ele>871.5</ele>
        <time>2022-05-27T08:22:34Z</time>
      </trkpt>
      <trkpt lat="48.00238" lon="6.81078">
        <ele>872.2</ele>
        <time>2022-05-27T08:22:36Z</time>
      </trkpt>
      <trkpt lat="48.00252" lon="6.81068">
        <ele>868.6</ele>
        <time>2022-05-27T08:22:38Z</time>
      </trkpt>
      <trkpt lat="48.00264" lon="6.81055">
        <ele>870.5</ele>
        <time>2022-05-27T08:22:40Z</time>
      </trkpt>
      <trkpt lat="48.00277" lon="6.81044">
        <ele>870.2</ele>
        <time>2022-05-27T08:22:42Z</time>
      </trkpt>
      <trkpt lat="48.00289" lon="6.81038">
        <ele>867.3</ele>
        <time>2022-05-27T08:22:44Z</time>
      </trkpt>
      <trkpt lat="48.00303" lon="6.81032">
        <ele>868</ele>
        <time>2022-05-27T08:22:46Z</time>
      </trkpt>
      <trkpt lat="48.00317" lon="6.81029">
        <ele>867.2</ele>
        <time>2022-05-27T08:22:48Z</time>
      </trkpt>
      <trkpt lat="48.00329" lon="6.8103">
        <ele>867.5</ele>
        <time>2022-05-27T08:22:50Z</time>
      </trkpt>
      <trkpt lat="48.00343" lon="6.8103">
        <ele>864.8</ele>
        <time>2022-05-27T08:22:52Z</time>
      </trkpt>
      <trkpt lat="48.00357" lon="6.81022">
        <ele>865</ele>
        <time>2022-05-27T08:22:54Z</time>
      </trkpt>
      <trkpt lat="48.00369" lon="6.8101">
        <ele>860.5</ele>
        <time>2022-05-27T08:22:56Z</time>
      </trkpt>
      <trkpt lat="48.00378" lon="6.80992">
        <ele>857.4</ele>
        <time>2022-05-27T08:22:58Z</time>
      </trkpt>
      <trkpt lat="48.0038" lon="6.80965">
        <ele>856.2</ele>
        <time>2022-05-27T08:23:00Z</time>
      </trkpt>
      <trkpt lat="48.00378" lon="6.80951">
        <ele>856.1</ele>
        <time>2022-05-27T08:23:01Z</time>
      </trkpt>
      <trkpt lat="48.00376" lon="6.80938">
        <ele>854.6</ele>
        <time>2022-05-27T08:23:02Z</time>
      </trkpt>
      <trkpt lat="48.00374" lon="6.80925">
        <ele>852.3</ele>
        <time>2022-05-27T08:23:03Z</time>
      </trkpt>
      <trkpt lat="48.00372" lon="6.80911">
        <ele>851.8</ele>
        <time>2022-05-27T08:23:04Z</time>
      </trkpt>
      <trkpt lat="48.00371" lon="6.80898">
        <ele>852.2</ele>
        <time>2022-05-27T08:23:05Z</time>
      </trkpt>
      <trkpt lat="48.00371" lon="6.80874">
        <ele>852.2</ele>
        <time>2022-05-27T08:23:07Z</time>
      </trkpt>
      <trkpt lat="48.00374" lon="6.8085">
        <ele>850.6</ele>
        <time>2022-05-27T08:23:09Z</time>
      </trkpt>
      <trkpt lat="48.00379" lon="6.80826">
        <ele>849.2</ele>
        <time>2022-05-27T08:23:11Z</time>
      </trkpt>
      <trkpt lat="48.00383" lon="6.80812">
        <ele>849.4</ele>
        <time>2022-05-27T08:23:12Z</time>
      </trkpt>
      <trkpt lat="48.00387" lon="6.808">
        <ele>849.2</ele>
        <time>2022-05-27T08:23:13Z</time>
      </trkpt>
      <trkpt lat="48.00398" lon="6.8078">
        <ele>847.1</ele>
        <time>2022-05-27T08:23:15Z</time>
      </trkpt>
      <trkpt lat="48.00404" lon="6.80769">
        <ele>844.9</ele>
        <time>2022-05-27T08:23:16Z</time>
      </trkpt>
      <trkpt lat="48.00409" lon="6.80758">
        <ele>845.7</ele>
        <time>2022-05-27T08:23:17Z</time>
      </trkpt>
      <trkpt lat="48.00415" lon="6.80747">
        <ele>846.6</ele>
        <time>2022-05-27T08:23:18Z</time>
      </trkpt>
      <trkpt lat="48.0042" lon="6.80735">
        <ele>844.1</ele>
        <time>2022-05-27T08:23:19Z</time>
      </trkpt>
      <trkpt lat="48.00425" lon="6.80723">
        <ele>838.7</ele>
        <time>2022-05-27T08:23:20Z</time>
      </trkpt>
      <trkpt lat="48.0043" lon="6.80711">
        <ele>837.7</ele>
        <time>2022-05-27T08:23:21Z</time>
      </trkpt>
      <trkpt lat="48.00434" lon="6.80698">
        <ele>840</ele>
        <time>2022-05-27T08:23:22Z</time>
      </trkpt>
      <trkpt lat="48.0044" lon="6.80674">
        <ele>840.7</ele>
        <time>2022-05-27T08:23:24Z</time>
      </trkpt>
      <trkpt lat="48.00447" lon="6.80657">
        <ele>835.9</ele>
        <time>2022-05-27T08:23:26Z</time>
      </trkpt>
      <trkpt lat="48.00458" lon="6.80644">
        <ele>835.4</ele>
        <time>2022-05-27T08:23:28Z</time>
      </trkpt>
      <trkpt lat="48.00468" lon="6.80636">
        <ele>835.7</ele>
        <time>2022-05-27T08:23:30Z</time>
      </trkpt>
      <trkpt lat="48.00478" lon="6.80631">
        <ele>836.2</ele>
        <time>2022-05-27T08:23:33Z</time>
      </trkpt>
      <trkpt lat="48.00489" lon="6.80634">
        <ele>836.1</ele>
        <time>2022-05-27T08:23:37Z</time>
      </trkpt>
      <trkpt lat="48.00492" lon="6.80638">
        <ele>835.8</ele>
        <time>2022-05-27T08:23:41Z</time>
      </trkpt>
      <trkpt lat="48.00492" lon="6.80639">
        <ele>835.8</ele>
        <time>2022-05-27T08:23:43Z</time>
      </trkpt>
      <trkpt lat="48.00492" lon="6.8064">
        <ele>835.6</ele>
        <time>2022-05-27T08:23:46Z</time>
      </trkpt>
      <trkpt lat="48.00492" lon="6.80641">
        <ele>835.6</ele>
        <time>2022-05-27T08:23:48Z</time>
      </trkpt>
      <trkpt lat="48.00492" lon="6.80641">
        <ele>835.6</ele>
        <time>2022-05-27T08:23:58Z</time>
      </trkpt>
      <trkpt lat="48.00492" lon="6.80642">
        <ele>835.4</ele>
        <time>2022-05-27T08:24:09Z</time>
      </trkpt>
      <trkpt lat="48.005" lon="6.80648">
        <ele>835.7</ele>
        <time>2022-05-27T08:24:13Z</time>
      </trkpt>
      <trkpt lat="48.00508" lon="6.80656">
        <ele>834.8</ele>
        <time>2022-05-27T08:24:15Z</time>
      </trkpt>
      <trkpt lat="48.00518" lon="6.80664">
        <ele>833.1</ele>
        <time>2022-05-27T08:24:17Z</time>
      </trkpt>
      <trkpt lat="48.0053" lon="6.80668">
        <ele>827.8</ele>
        <time>2022-05-27T08:24:19Z</time>
      </trkpt>
      <trkpt lat="48.00544" lon="6.80669">
        <ele>825.9</ele>
        <time>2022-05-27T08:24:21Z</time>
      </trkpt>
      <trkpt lat="48.00559" lon="6.80669">
        <ele>829.4</ele>
        <time>2022-05-27T08:24:23Z</time>
      </trkpt>
      <trkpt lat="48.00573" lon="6.80665">
        <ele>829.4</ele>
        <time>2022-05-27T08:24:25Z</time>
      </trkpt>
      <trkpt lat="48.00587" lon="6.80664">
        <ele>825.4</ele>
        <time>2022-05-27T08:24:27Z</time>
      </trkpt>
      <trkpt lat="48.00602" lon="6.80662">
        <ele>824.6</ele>
        <time>2022-05-27T08:24:29Z</time>
      </trkpt>
      <trkpt lat="48.00617" lon="6.80655">
        <ele>823.5</ele>
        <time>2022-05-27T08:24:31Z</time>
      </trkpt>
      <trkpt lat="48.00633" lon="6.8065">
        <ele>822.2</ele>
        <time>2022-05-27T08:24:33Z</time>
      </trkpt>
      <trkpt lat="48.00648" lon="6.8064">
        <ele>821.3</ele>
        <time>2022-05-27T08:24:35Z</time>
      </trkpt>
      <trkpt lat="48.00656" lon="6.80633">
        <ele>820.6</ele>
        <time>2022-05-27T08:24:36Z</time>
      </trkpt>
      <trkpt lat="48.0067" lon="6.80623">
        <ele>814.8</ele>
        <time>2022-05-27T08:24:38Z</time>
      </trkpt>
      <trkpt lat="48.00684" lon="6.80618">
        <ele>817.1</ele>
        <time>2022-05-27T08:24:40Z</time>
      </trkpt>
      <trkpt lat="48.00699" lon="6.80613">
        <ele>815.3</ele>
        <time>2022-05-27T08:24:42Z</time>
      </trkpt>
      <trkpt lat="48.00714" lon="6.80607">
        <ele>811.9</ele>
        <time>2022-05-27T08:24:44Z</time>
      </trkpt>
      <trkpt lat="48.0073" lon="6.80601">
        <ele>811.6</ele>
        <time>2022-05-27T08:24:46Z</time>
      </trkpt>
      <trkpt lat="48.00748" lon="6.80591">
        <ele>812.5</ele>
        <time>2022-05-27T08:24:48Z</time>
      </trkpt>
      <trkpt lat="48.00757" lon="6.80584">
        <ele>808.1</ele>
        <time>2022-05-27T08:24:49Z</time>
      </trkpt>
      <trkpt lat="48.00765" lon="6.80574">
        <ele>806.2</ele>
        <time>2022-05-27T08:24:50Z</time>
      </trkpt>
      <trkpt lat="48.00773" lon="6.80564">
        <ele>806</ele>
        <time>2022-05-27T08:24:51Z</time>
      </trkpt>
      <trkpt lat="48.00779" lon="6.80554">
        <ele>806.1</ele>
        <time>2022-05-27T08:24:52Z</time>
      </trkpt>
      <trkpt lat="48.00785" lon="6.80544">
        <ele>806.1</ele>
        <time>2022-05-27T08:24:53Z</time>
      </trkpt>
      <trkpt lat="48.00793" lon="6.80534">
        <ele>805.1</ele>
        <time>2022-05-27T08:24:54Z</time>
      </trkpt>
      <trkpt lat="48.00804" lon="6.80518">
        <ele>805.4</ele>
        <time>2022-05-27T08:24:56Z</time>
      </trkpt>
      <trkpt lat="48.00802" lon="6.80525">
        <ele>804.9</ele>
        <time>2022-05-27T08:25:08Z</time>
      </trkpt>
      <trkpt lat="48.00803" lon="6.80525">
        <ele>805</ele>
        <time>2022-05-27T08:25:15Z</time>
      </trkpt>
      <trkpt lat="48.00802" lon="6.80525">
        <ele>805.2</ele>
        <time>2022-05-27T08:25:39Z</time>
      </trkpt>
      <trkpt lat="48.00802" lon="6.80525">
        <ele>805.1</ele>
        <time>2022-05-27T08:25:56Z</time>
      </trkpt>
      <trkpt lat="48.00802" lon="6.80525">
        <ele>804.9</ele>
        <time>2022-05-27T08:26:03Z</time>
      </trkpt>
      <trkpt lat="48.00806" lon="6.80527">
        <ele>804.3</ele>
        <time>2022-05-27T08:26:10Z</time>
      </trkpt>
      <trkpt lat="48.00806" lon="6.80526">
        <ele>804.3</ele>
        <time>2022-05-27T08:28:11Z</time>
      </trkpt>
      <trkpt lat="48.00806" lon="6.80526">
        <ele>804.2</ele>
        <time>2022-05-27T08:30:03Z</time>
      </trkpt>
      <trkpt lat="48.00803" lon="6.80527">
        <ele>804.8</ele>
        <time>2022-05-27T08:30:11Z</time>
      </trkpt>
      <trkpt lat="48.00803" lon="6.80526">
        <ele>804.8</ele>
        <time>2022-05-27T08:30:12Z</time>
      </trkpt>
      <trkpt lat="48.00803" lon="6.80527">
        <ele>804.9</ele>
        <time>2022-05-27T08:30:25Z</time>
      </trkpt>
      <trkpt lat="48.00804" lon="6.8053">
        <ele>804.9</ele>
        <time>2022-05-27T08:30:30Z</time>
      </trkpt>
      <trkpt lat="48.00804" lon="6.80529">
        <ele>804.8</ele>
        <time>2022-05-27T08:30:34Z</time>
      </trkpt>
      <trkpt lat="48.00804" lon="6.80529">
        <ele>804.8</ele>
        <time>2022-05-27T08:30:35Z</time>
      </trkpt>
      <trkpt lat="48.00804" lon="6.8053">
        <ele>804.9</ele>
        <time>2022-05-27T08:30:36Z</time>
      </trkpt>
      <trkpt lat="48.00803" lon="6.80531">
        <ele>805</ele>
        <time>2022-05-27T08:30:53Z</time>
      </trkpt>
      <trkpt lat="48.00804" lon="6.80532">
        <ele>804.8</ele>
        <time>2022-05-27T08:31:00Z</time>
      </trkpt>
      <trkpt lat="48.00804" lon="6.80532">
        <ele>804.7</ele>
        <time>2022-05-27T08:31:03Z</time>
      </trkpt>
      <trkpt lat="48.00805" lon="6.80531">
        <ele>804.6</ele>
        <time>2022-05-27T08:31:18Z</time>
      </trkpt>
      <trkpt lat="48.00812" lon="6.80521">
        <ele>803.9</ele>
        <time>2022-05-27T08:31:22Z</time>
      </trkpt>
      <trkpt lat="48.00821" lon="6.80509">
        <ele>802.3</ele>
        <time>2022-05-27T08:31:25Z</time>
      </trkpt>
      <trkpt lat="48.00828" lon="6.80496">
        <ele>801.2</ele>
        <time>2022-05-27T08:31:27Z</time>
      </trkpt>
      <trkpt lat="48.00837" lon="6.80483">
        <ele>800</ele>
        <time>2022-05-27T08:31:29Z</time>
      </trkpt>
      <trkpt lat="48.00847" lon="6.8047">
        <ele>799.5</ele>
        <time>2022-05-27T08:31:31Z</time>
      </trkpt>
      <trkpt lat="48.00858" lon="6.80459">
        <ele>798.3</ele>
        <time>2022-05-27T08:31:33Z</time>
      </trkpt>
      <trkpt lat="48.00872" lon="6.80452">
        <ele>797</ele>
        <time>2022-05-27T08:31:35Z</time>
      </trkpt>
      <trkpt lat="48.00887" lon="6.80449">
        <ele>796.6</ele>
        <time>2022-05-27T08:31:37Z</time>
      </trkpt>
      <trkpt lat="48.00904" lon="6.80448">
        <ele>795.4</ele>
        <time>2022-05-27T08:31:39Z</time>
      </trkpt>
      <trkpt lat="48.00913" lon="6.80448">
        <ele>794.2</ele>
        <time>2022-05-27T08:31:40Z</time>
      </trkpt>
      <trkpt lat="48.00922" lon="6.80446">
        <ele>793.1</ele>
        <time>2022-05-27T08:31:41Z</time>
      </trkpt>
      <trkpt lat="48.00931" lon="6.80443">
        <ele>792.1</ele>
        <time>2022-05-27T08:31:42Z</time>
      </trkpt>
      <trkpt lat="48.0094" lon="6.80438">
        <ele>791.6</ele>
        <time>2022-05-27T08:31:43Z</time>
      </trkpt>
      <trkpt lat="48.00956" lon="6.80435">
        <ele>790.4</ele>
        <time>2022-05-27T08:31:45Z</time>
      </trkpt>
      <trkpt lat="48.0097" lon="6.80443">
        <ele>790</ele>
        <time>2022-05-27T08:31:47Z</time>
      </trkpt>
      <trkpt lat="48.00984" lon="6.80453">
        <ele>788</ele>
        <time>2022-05-27T08:31:49Z</time>
      </trkpt>
      <trkpt lat="48.01001" lon="6.80452">
        <ele>786.3</ele>
        <time>2022-05-27T08:31:51Z</time>
      </trkpt>
      <trkpt lat="48.01009" lon="6.80449">
        <ele>785.8</ele>
        <time>2022-05-27T08:31:52Z</time>
      </trkpt>
      <trkpt lat="48.01018" lon="6.80444">
        <ele>785.5</ele>
        <time>2022-05-27T08:31:53Z</time>
      </trkpt>
      <trkpt lat="48.01027" lon="6.80439">
        <ele>784.5</ele>
        <time>2022-05-27T08:31:54Z</time>
      </trkpt>
      <trkpt lat="48.01035" lon="6.80433">
        <ele>783.9</ele>
        <time>2022-05-27T08:31:55Z</time>
      </trkpt>
      <trkpt lat="48.01044" lon="6.80427">
        <ele>782.9</ele>
        <time>2022-05-27T08:31:56Z</time>
      </trkpt>
      <trkpt lat="48.01053" lon="6.80422">
        <ele>782.1</ele>
        <time>2022-05-27T08:31:57Z</time>
      </trkpt>
      <trkpt lat="48.01063" lon="6.80416">
        <ele>782.4</ele>
        <time>2022-05-27T08:31:58Z</time>
      </trkpt>
      <trkpt lat="48.01071" lon="6.80412">
        <ele>782.5</ele>
        <time>2022-05-27T08:31:59Z</time>
      </trkpt>
      <trkpt lat="48.01085" lon="6.80398">
        <ele>781.6</ele>
        <time>2022-05-27T08:32:01Z</time>
      </trkpt>
      <trkpt lat="48.01092" lon="6.80377">
        <ele>779</ele>
        <time>2022-05-27T08:32:03Z</time>
      </trkpt>
      <trkpt lat="48.0109" lon="6.80349">
        <ele>777.9</ele>
        <time>2022-05-27T08:32:05Z</time>
      </trkpt>
      <trkpt lat="48.01089" lon="6.80335">
        <ele>777.5</ele>
        <time>2022-05-27T08:32:06Z</time>
      </trkpt>
      <trkpt lat="48.01089" lon="6.80319">
        <ele>774.9</ele>
        <time>2022-05-27T08:32:07Z</time>
      </trkpt>
      <trkpt lat="48.0109" lon="6.80304">
        <ele>773.8</ele>
        <time>2022-05-27T08:32:08Z</time>
      </trkpt>
      <trkpt lat="48.01092" lon="6.80288">
        <ele>771.8</ele>
        <time>2022-05-27T08:32:09Z</time>
      </trkpt>
      <trkpt lat="48.01094" lon="6.80272">
        <ele>770.4</ele>
        <time>2022-05-27T08:32:10Z</time>
      </trkpt>
      <trkpt lat="48.01097" lon="6.80257">
        <ele>768.7</ele>
        <time>2022-05-27T08:32:11Z</time>
      </trkpt>
      <trkpt lat="48.01101" lon="6.80241">
        <ele>768</ele>
        <time>2022-05-27T08:32:12Z</time>
      </trkpt>
      <trkpt lat="48.01104" lon="6.80226">
        <ele>766.1</ele>
        <time>2022-05-27T08:32:13Z</time>
      </trkpt>
      <trkpt lat="48.01106" lon="6.80211">
        <ele>765.8</ele>
        <time>2022-05-27T08:32:14Z</time>
      </trkpt>
      <trkpt lat="48.01107" lon="6.80196">
        <ele>765.8</ele>
        <time>2022-05-27T08:32:15Z</time>
      </trkpt>
      <trkpt lat="48.01107" lon="6.80182">
        <ele>766.5</ele>
        <time>2022-05-27T08:32:16Z</time>
      </trkpt>
      <trkpt lat="48.01105" lon="6.80168">
        <ele>765.4</ele>
        <time>2022-05-27T08:32:17Z</time>
      </trkpt>
      <trkpt lat="48.01101" lon="6.80155">
        <ele>763.9</ele>
        <time>2022-05-27T08:32:18Z</time>
      </trkpt>
      <trkpt lat="48.01097" lon="6.80135">
        <ele>762.6</ele>
        <time>2022-05-27T08:32:20Z</time>
      </trkpt>
      <trkpt lat="48.01101" lon="6.80115">
        <ele>762.7</ele>
        <time>2022-05-27T08:32:22Z</time>
      </trkpt>
      <trkpt lat="48.01112" lon="6.80097">
        <ele>761.5</ele>
        <time>2022-05-27T08:32:24Z</time>
      </trkpt>
      <trkpt lat="48.01127" lon="6.80084">
        <ele>758.7</ele>
        <time>2022-05-27T08:32:26Z</time>
      </trkpt>
      <trkpt lat="48.01136" lon="6.80075">
        <ele>757.3</ele>
        <time>2022-05-27T08:32:27Z</time>
      </trkpt>
      <trkpt lat="48.01143" lon="6.80065">
        <ele>757.5</ele>
        <time>2022-05-27T08:32:28Z</time>
      </trkpt>
      <trkpt lat="48.0115" lon="6.80054">
        <ele>756.5</ele>
        <time>2022-05-27T08:32:29Z</time>
      </trkpt>
      <trkpt lat="48.01158" lon="6.80042">
        <ele>755.6</ele>
        <time>2022-05-27T08:32:30Z</time>
      </trkpt>
      <trkpt lat="48.01166" lon="6.80031">
        <ele>754.3</ele>
        <time>2022-05-27T08:32:31Z</time>
      </trkpt>
      <trkpt lat="48.01174" lon="6.80019">
        <ele>753.4</ele>
        <time>2022-05-27T08:32:32Z</time>
      </trkpt>
      <trkpt lat="48.01183" lon="6.80009">
        <ele>752.6</ele>
        <time>2022-05-27T08:32:33Z</time>
      </trkpt>
      <trkpt lat="48.01192" lon="6.8">
        <ele>751.3</ele>
        <time>2022-05-27T08:32:34Z</time>
      </trkpt>
      <trkpt lat="48.01202" lon="6.79992">
        <ele>750.7</ele>
        <time>2022-05-27T08:32:35Z</time>
      </trkpt>
      <trkpt lat="48.01212" lon="6.79986">
        <ele>750.2</ele>
        <time>2022-05-27T08:32:36Z</time>
      </trkpt>
      <trkpt lat="48.01222" lon="6.79981">
        <ele>749.5</ele>
        <time>2022-05-27T08:32:37Z</time>
      </trkpt>
      <trkpt lat="48.01232" lon="6.79976">
        <ele>749</ele>
        <time>2022-05-27T08:32:38Z</time>
      </trkpt>
      <trkpt lat="48.01242" lon="6.79969">
        <ele>748.8</ele>
        <time>2022-05-27T08:32:39Z</time>
      </trkpt>
      <trkpt lat="48.01251" lon="6.7996">
        <ele>748.3</ele>
        <time>2022-05-27T08:32:40Z</time>
      </trkpt>
      <trkpt lat="48.0126" lon="6.7995">
        <ele>747.1</ele>
        <time>2022-05-27T08:32:41Z</time>
      </trkpt>
      <trkpt lat="48.01271" lon="6.79943">
        <ele>746</ele>
        <time>2022-05-27T08:32:42Z</time>
      </trkpt>
      <trkpt lat="48.01283" lon="6.7994">
        <ele>745.4</ele>
        <time>2022-05-27T08:32:43Z</time>
      </trkpt>
      <trkpt lat="48.01294" lon="6.79938">
        <ele>744.3</ele>
        <time>2022-05-27T08:32:44Z</time>
      </trkpt>
      <trkpt lat="48.01305" lon="6.79938">
        <ele>743.2</ele>
        <time>2022-05-27T08:32:45Z</time>
      </trkpt>
      <trkpt lat="48.01317" lon="6.79937">
        <ele>741.8</ele>
        <time>2022-05-27T08:32:46Z</time>
      </trkpt>
      <trkpt lat="48.01328" lon="6.79936">
        <ele>740.9</ele>
        <time>2022-05-27T08:32:47Z</time>
      </trkpt>
      <trkpt lat="48.0134" lon="6.79934">
        <ele>739.9</ele>
        <time>2022-05-27T08:32:48Z</time>
      </trkpt>
      <trkpt lat="48.01352" lon="6.79932">
        <ele>739</ele>
        <time>2022-05-27T08:32:49Z</time>
      </trkpt>
      <trkpt lat="48.01364" lon="6.7993">
        <ele>738.5</ele>
        <time>2022-05-27T08:32:50Z</time>
      </trkpt>
      <trkpt lat="48.01376" lon="6.79929">
        <ele>737.4</ele>
        <time>2022-05-27T08:32:51Z</time>
      </trkpt>
      <trkpt lat="48.01388" lon="6.79929">
        <ele>736.6</ele>
        <time>2022-05-27T08:32:52Z</time>
      </trkpt>
      <trkpt lat="48.01398" lon="6.79928">
        <ele>735.7</ele>
        <time>2022-05-27T08:32:53Z</time>
      </trkpt>
      <trkpt lat="48.01409" lon="6.79925">
        <ele>734.6</ele>
        <time>2022-05-27T08:32:54Z</time>
      </trkpt>
      <trkpt lat="48.01418" lon="6.79918">
        <ele>733.4</ele>
        <time>2022-05-27T08:32:55Z</time>
      </trkpt>
      <trkpt lat="48.01426" lon="6.7991">
        <ele>732.7</ele>
        <time>2022-05-27T08:32:56Z</time>
      </trkpt>
      <trkpt lat="48.01436" lon="6.79903">
        <ele>731.4</ele>
        <time>2022-05-27T08:32:57Z</time>
      </trkpt>
      <trkpt lat="48.01447" lon="6.79898">
        <ele>730.4</ele>
        <time>2022-05-27T08:32:58Z</time>
      </trkpt>
      <trkpt lat="48.01459" lon="6.79895">
        <ele>729.1</ele>
        <time>2022-05-27T08:32:59Z</time>
      </trkpt>
      <trkpt lat="48.01471" lon="6.79894">
        <ele>728.4</ele>
        <time>2022-05-27T08:33:00Z</time>
      </trkpt>
      <trkpt lat="48.01483" lon="6.79892">
        <ele>728.1</ele>
        <time>2022-05-27T08:33:01Z</time>
      </trkpt>
      <trkpt lat="48.01494" lon="6.79888">
        <ele>726.6</ele>
        <time>2022-05-27T08:33:02Z</time>
      </trkpt>
      <trkpt lat="48.01506" lon="6.79882">
        <ele>725.6</ele>
        <time>2022-05-27T08:33:03Z</time>
      </trkpt>
      <trkpt lat="48.01518" lon="6.79874">
        <ele>725</ele>
        <time>2022-05-27T08:33:04Z</time>
      </trkpt>
      <trkpt lat="48.01529" lon="6.79867">
        <ele>724.5</ele>
        <time>2022-05-27T08:33:05Z</time>
      </trkpt>
      <trkpt lat="48.01539" lon="6.7986">
        <ele>723.6</ele>
        <time>2022-05-27T08:33:06Z</time>
      </trkpt>
      <trkpt lat="48.01551" lon="6.79854">
        <ele>721.6</ele>
        <time>2022-05-27T08:33:07Z</time>
      </trkpt>
      <trkpt lat="48.01563" lon="6.79849">
        <ele>720.4</ele>
        <time>2022-05-27T08:33:08Z</time>
      </trkpt>
      <trkpt lat="48.01576" lon="6.79844">
        <ele>719.1</ele>
        <time>2022-05-27T08:33:09Z</time>
      </trkpt>
      <trkpt lat="48.01589" lon="6.79839">
        <ele>717.7</ele>
        <time>2022-05-27T08:33:10Z</time>
      </trkpt>
      <trkpt lat="48.01601" lon="6.79832">
        <ele>716.2</ele>
        <time>2022-05-27T08:33:11Z</time>
      </trkpt>
      <trkpt lat="48.01613" lon="6.79825">
        <ele>714.4</ele>
        <time>2022-05-27T08:33:12Z</time>
      </trkpt>
      <trkpt lat="48.01626" lon="6.79817">
        <ele>713.1</ele>
        <time>2022-05-27T08:33:13Z</time>
      </trkpt>
      <trkpt lat="48.01639" lon="6.79808">
        <ele>711.8</ele>
        <time>2022-05-27T08:33:14Z</time>
      </trkpt>
      <trkpt lat="48.0165" lon="6.79796">
        <ele>710.3</ele>
        <time>2022-05-27T08:33:15Z</time>
      </trkpt>
      <trkpt lat="48.01662" lon="6.79784">
        <ele>709.1</ele>
        <time>2022-05-27T08:33:16Z</time>
      </trkpt>
      <trkpt lat="48.01673" lon="6.79771">
        <ele>706.3</ele>
        <time>2022-05-27T08:33:17Z</time>
      </trkpt>
      <trkpt lat="48.01685" lon="6.79759">
        <ele>704.7</ele>
        <time>2022-05-27T08:33:18Z</time>
      </trkpt>
      <trkpt lat="48.01698" lon="6.79749">
        <ele>703.8</ele>
        <time>2022-05-27T08:33:19Z</time>
      </trkpt>
      <trkpt lat="48.0171" lon="6.79741">
        <ele>703.2</ele>
        <time>2022-05-27T08:33:20Z</time>
      </trkpt>
      <trkpt lat="48.01722" lon="6.79731">
        <ele>701.8</ele>
        <time>2022-05-27T08:33:21Z</time>
      </trkpt>
      <trkpt lat="48.01733" lon="6.79721">
        <ele>700</ele>
        <time>2022-05-27T08:33:22Z</time>
      </trkpt>
      <trkpt lat="48.01745" lon="6.79709">
        <ele>698.9</ele>
        <time>2022-05-27T08:33:23Z</time>
      </trkpt>
      <trkpt lat="48.01755" lon="6.79695">
        <ele>697.2</ele>
        <time>2022-05-27T08:33:24Z</time>
      </trkpt>
      <trkpt lat="48.01765" lon="6.7968">
        <ele>695.3</ele>
        <time>2022-05-27T08:33:25Z</time>
      </trkpt>
      <trkpt lat="48.01774" lon="6.79664">
        <ele>692.3</ele>
        <time>2022-05-27T08:33:26Z</time>
      </trkpt>
      <trkpt lat="48.01782" lon="6.79648">
        <ele>689.6</ele>
        <time>2022-05-27T08:33:27Z</time>
      </trkpt>
      <trkpt lat="48.01791" lon="6.79634">
        <ele>688.4</ele>
        <time>2022-05-27T08:33:28Z</time>
      </trkpt>
      <trkpt lat="48.01799" lon="6.79619">
        <ele>687.6</ele>
        <time>2022-05-27T08:33:29Z</time>
      </trkpt>
      <trkpt lat="48.01807" lon="6.79606">
        <ele>686.4</ele>
        <time>2022-05-27T08:33:30Z</time>
      </trkpt>
      <trkpt lat="48.01816" lon="6.79593">
        <ele>684.9</ele>
        <time>2022-05-27T08:33:31Z</time>
      </trkpt>
      <trkpt lat="48.01823" lon="6.79579">
        <ele>682</ele>
        <time>2022-05-27T08:33:32Z</time>
      </trkpt>
      <trkpt lat="48.01829" lon="6.79563">
        <ele>679.9</ele>
        <time>2022-05-27T08:33:33Z</time>
      </trkpt>
      <trkpt lat="48.01834" lon="6.79545">
        <ele>677.5</ele>
        <time>2022-05-27T08:33:34Z</time>
      </trkpt>
      <trkpt lat="48.01839" lon="6.79527">
        <ele>675.7</ele>
        <time>2022-05-27T08:33:35Z</time>
      </trkpt>
      <trkpt lat="48.01844" lon="6.79509">
        <ele>674.5</ele>
        <time>2022-05-27T08:33:36Z</time>
      </trkpt>
      <trkpt lat="48.01848" lon="6.79492">
        <ele>671.8</ele>
        <time>2022-05-27T08:33:37Z</time>
      </trkpt>
      <trkpt lat="48.01851" lon="6.79474">
        <ele>670.1</ele>
        <time>2022-05-27T08:33:38Z</time>
      </trkpt>
      <trkpt lat="48.01853" lon="6.79456">
        <ele>667.7</ele>
        <time>2022-05-27T08:33:39Z</time>
      </trkpt>
      <trkpt lat="48.01854" lon="6.79438">
        <ele>665</ele>
        <time>2022-05-27T08:33:40Z</time>
      </trkpt>
      <trkpt lat="48.01855" lon="6.79421">
        <ele>663.1</ele>
        <time>2022-05-27T08:33:41Z</time>
      </trkpt>
      <trkpt lat="48.01856" lon="6.79407">
        <ele>662.1</ele>
        <time>2022-05-27T08:33:42Z</time>
      </trkpt>
      <trkpt lat="48.01861" lon="6.79387">
        <ele>660.6</ele>
        <time>2022-05-27T08:33:44Z</time>
      </trkpt>
      <trkpt lat="48.0187" lon="6.79383">
        <ele>658.2</ele>
        <time>2022-05-27T08:33:46Z</time>
      </trkpt>
      <trkpt lat="48.01879" lon="6.79397">
        <ele>656.2</ele>
        <time>2022-05-27T08:33:48Z</time>
      </trkpt>
      <trkpt lat="48.01884" lon="6.79419">
        <ele>654</ele>
        <time>2022-05-27T08:33:50Z</time>
      </trkpt>
      <trkpt lat="48.0189" lon="6.79443">
        <ele>653.9</ele>
        <time>2022-05-27T08:33:52Z</time>
      </trkpt>
      <trkpt lat="48.01897" lon="6.79468">
        <ele>653.4</ele>
        <time>2022-05-27T08:33:54Z</time>
      </trkpt>
      <trkpt lat="48.019" lon="6.7948">
        <ele>652.6</ele>
        <time>2022-05-27T08:33:55Z</time>
      </trkpt>
      <trkpt lat="48.01902" lon="6.79493">
        <ele>651.4</ele>
        <time>2022-05-27T08:33:56Z</time>
      </trkpt>
      <trkpt lat="48.01905" lon="6.79506">
        <ele>650.5</ele>
        <time>2022-05-27T08:33:57Z</time>
      </trkpt>
      <trkpt lat="48.0191" lon="6.79528">
        <ele>650.5</ele>
        <time>2022-05-27T08:33:59Z</time>
      </trkpt>
      <trkpt lat="48.0192" lon="6.79536">
        <ele>649.3</ele>
        <time>2022-05-27T08:34:01Z</time>
      </trkpt>
      <trkpt lat="48.01928" lon="6.7952">
        <ele>646.5</ele>
        <time>2022-05-27T08:34:03Z</time>
      </trkpt>
      <trkpt lat="48.01932" lon="6.79494">
        <ele>642.5</ele>
        <time>2022-05-27T08:34:05Z</time>
      </trkpt>
      <trkpt lat="48.01935" lon="6.7948">
        <ele>641</ele>
        <time>2022-05-27T08:34:06Z</time>
      </trkpt>
      <trkpt lat="48.01938" lon="6.79465">
        <ele>639</ele>
        <time>2022-05-27T08:34:07Z</time>
      </trkpt>
      <trkpt lat="48.01942" lon="6.79449">
        <ele>638.1</ele>
        <time>2022-05-27T08:34:08Z</time>
      </trkpt>
      <trkpt lat="48.01945" lon="6.79433">
        <ele>636.6</ele>
        <time>2022-05-27T08:34:09Z</time>
      </trkpt>
      <trkpt lat="48.0195" lon="6.79417">
        <ele>634.6</ele>
        <time>2022-05-27T08:34:10Z</time>
      </trkpt>
      <trkpt lat="48.01955" lon="6.79402">
        <ele>632.8</ele>
        <time>2022-05-27T08:34:11Z</time>
      </trkpt>
      <trkpt lat="48.0196" lon="6.79387">
        <ele>630.6</ele>
        <time>2022-05-27T08:34:12Z</time>
      </trkpt>
      <trkpt lat="48.01963" lon="6.79373">
        <ele>629.6</ele>
        <time>2022-05-27T08:34:13Z</time>
      </trkpt>
      <trkpt lat="48.01965" lon="6.79359">
        <ele>628.6</ele>
        <time>2022-05-27T08:34:14Z</time>
      </trkpt>
      <trkpt lat="48.01965" lon="6.79344">
        <ele>627.3</ele>
        <time>2022-05-27T08:34:15Z</time>
      </trkpt>
      <trkpt lat="48.01961" lon="6.79327">
        <ele>626.2</ele>
        <time>2022-05-27T08:34:16Z</time>
      </trkpt>
      <trkpt lat="48.01956" lon="6.79309">
        <ele>624</ele>
        <time>2022-05-27T08:34:17Z</time>
      </trkpt>
      <trkpt lat="48.01951" lon="6.79292">
        <ele>622.6</ele>
        <time>2022-05-27T08:34:18Z</time>
      </trkpt>
      <trkpt lat="48.01948" lon="6.79274">
        <ele>620.8</ele>
        <time>2022-05-27T08:34:19Z</time>
      </trkpt>
      <trkpt lat="48.01948" lon="6.79255">
        <ele>617.7</ele>
        <time>2022-05-27T08:34:20Z</time>
      </trkpt>
      <trkpt lat="48.01947" lon="6.79236">
        <ele>615.5</ele>
        <time>2022-05-27T08:34:21Z</time>
      </trkpt>
      <trkpt lat="48.01946" lon="6.79217">
        <ele>613.8</ele>
        <time>2022-05-27T08:34:22Z</time>
      </trkpt>
      <trkpt lat="48.01945" lon="6.79198">
        <ele>612.2</ele>
        <time>2022-05-27T08:34:23Z</time>
      </trkpt>
      <trkpt lat="48.01946" lon="6.79178">
        <ele>610.1</ele>
        <time>2022-05-27T08:34:24Z</time>
      </trkpt>
      <trkpt lat="48.01948" lon="6.79159">
        <ele>608.2</ele>
        <time>2022-05-27T08:34:25Z</time>
      </trkpt>
      <trkpt lat="48.0195" lon="6.79139">
        <ele>607.3</ele>
        <time>2022-05-27T08:34:26Z</time>
      </trkpt>
      <trkpt lat="48.01954" lon="6.7912">
        <ele>603</ele>
        <time>2022-05-27T08:34:27Z</time>
      </trkpt>
      <trkpt lat="48.01956" lon="6.791">
        <ele>600.6</ele>
        <time>2022-05-27T08:34:28Z</time>
      </trkpt>
      <trkpt lat="48.01958" lon="6.79081">
        <ele>598.7</ele>
        <time>2022-05-27T08:34:29Z</time>
      </trkpt>
      <trkpt lat="48.01961" lon="6.79061">
        <ele>599.1</ele>
        <time>2022-05-27T08:34:30Z</time>
      </trkpt>
      <trkpt lat="48.01962" lon="6.79043">
        <ele>597.9</ele>
        <time>2022-05-27T08:34:31Z</time>
      </trkpt>
      <trkpt lat="48.01964" lon="6.79025">
        <ele>597.3</ele>
        <time>2022-05-27T08:34:32Z</time>
      </trkpt>
      <trkpt lat="48.01966" lon="6.79008">
        <ele>597.1</ele>
        <time>2022-05-27T08:34:33Z</time>
      </trkpt>
      <trkpt lat="48.01969" lon="6.78993">
        <ele>596.5</ele>
        <time>2022-05-27T08:34:34Z</time>
      </trkpt>
      <trkpt lat="48.01973" lon="6.78978">
        <ele>595.6</ele>
        <time>2022-05-27T08:34:35Z</time>
      </trkpt>
      <trkpt lat="48.01975" lon="6.78963">
        <ele>594.9</ele>
        <time>2022-05-27T08:34:36Z</time>
      </trkpt>
      <trkpt lat="48.01976" lon="6.78949">
        <ele>593.6</ele>
        <time>2022-05-27T08:34:37Z</time>
      </trkpt>
      <trkpt lat="48.01976" lon="6.78934">
        <ele>592.5</ele>
        <time>2022-05-27T08:34:38Z</time>
      </trkpt>
      <trkpt lat="48.01976" lon="6.78919">
        <ele>591.3</ele>
        <time>2022-05-27T08:34:39Z</time>
      </trkpt>
      <trkpt lat="48.01975" lon="6.78904">
        <ele>590.4</ele>
        <time>2022-05-27T08:34:40Z</time>
      </trkpt>
      <trkpt lat="48.01974" lon="6.78888">
        <ele>590</ele>
        <time>2022-05-27T08:34:41Z</time>
      </trkpt>
      <trkpt lat="48.01973" lon="6.78872">
        <ele>588.9</ele>
        <time>2022-05-27T08:34:42Z</time>
      </trkpt>
      <trkpt lat="48.01971" lon="6.78856">
        <ele>588.2</ele>
        <time>2022-05-27T08:34:43Z</time>
      </trkpt>
      <trkpt lat="48.01969" lon="6.78843">
        <ele>587.3</ele>
        <time>2022-05-27T08:34:44Z</time>
      </trkpt>
      <trkpt lat="48.01968" lon="6.78817">
        <ele>585</ele>
        <time>2022-05-27T08:34:46Z</time>
      </trkpt>
      <trkpt lat="48.01976" lon="6.78795">
        <ele>584.2</ele>
        <time>2022-05-27T08:34:48Z</time>
      </trkpt>
      <trkpt lat="48.01986" lon="6.78774">
        <ele>583.4</ele>
        <time>2022-05-27T08:34:50Z</time>
      </trkpt>
      <trkpt lat="48.01993" lon="6.78751">
        <ele>582.6</ele>
        <time>2022-05-27T08:34:52Z</time>
      </trkpt>
      <trkpt lat="48.01998" lon="6.78727">
        <ele>581.8</ele>
        <time>2022-05-27T08:34:54Z</time>
      </trkpt>
      <trkpt lat="48.02002" lon="6.78704">
        <ele>581.3</ele>
        <time>2022-05-27T08:34:56Z</time>
      </trkpt>
      <trkpt lat="48.02003" lon="6.78679">
        <ele>581</ele>
        <time>2022-05-27T08:34:58Z</time>
      </trkpt>
      <trkpt lat="48.01997" lon="6.78654">
        <ele>579</ele>
        <time>2022-05-27T08:35:00Z</time>
      </trkpt>
      <trkpt lat="48.01994" lon="6.78641">
        <ele>578.2</ele>
        <time>2022-05-27T08:35:01Z</time>
      </trkpt>
      <trkpt lat="48.01991" lon="6.78629">
        <ele>576.9</ele>
        <time>2022-05-27T08:35:02Z</time>
      </trkpt>
      <trkpt lat="48.01988" lon="6.78615">
        <ele>576.1</ele>
        <time>2022-05-27T08:35:03Z</time>
      </trkpt>
      <trkpt lat="48.01987" lon="6.78601">
        <ele>577</ele>
        <time>2022-05-27T08:35:04Z</time>
      </trkpt>
      <trkpt lat="48.01985" lon="6.78587">
        <ele>576.7</ele>
        <time>2022-05-27T08:35:05Z</time>
      </trkpt>
      <trkpt lat="48.01984" lon="6.78573">
        <ele>576.2</ele>
        <time>2022-05-27T08:35:06Z</time>
      </trkpt>
      <trkpt lat="48.01982" lon="6.78559">
        <ele>574.8</ele>
        <time>2022-05-27T08:35:07Z</time>
      </trkpt>
      <trkpt lat="48.01979" lon="6.78546">
        <ele>574.6</ele>
        <time>2022-05-27T08:35:08Z</time>
      </trkpt>
      <trkpt lat="48.01976" lon="6.78532">
        <ele>573.1</ele>
        <time>2022-05-27T08:35:09Z</time>
      </trkpt>
      <trkpt lat="48.01973" lon="6.78518">
        <ele>572.8</ele>
        <time>2022-05-27T08:35:10Z</time>
      </trkpt>
      <trkpt lat="48.01971" lon="6.78503">
        <ele>571.5</ele>
        <time>2022-05-27T08:35:11Z</time>
      </trkpt>
      <trkpt lat="48.01971" lon="6.78488">
        <ele>570.6</ele>
        <time>2022-05-27T08:35:12Z</time>
      </trkpt>
      <trkpt lat="48.01971" lon="6.78473">
        <ele>570.5</ele>
        <time>2022-05-27T08:35:13Z</time>
      </trkpt>
      <trkpt lat="48.01971" lon="6.78457">
        <ele>569.6</ele>
        <time>2022-05-27T08:35:14Z</time>
      </trkpt>
      <trkpt lat="48.01971" lon="6.78442">
        <ele>568.5</ele>
        <time>2022-05-27T08:35:15Z</time>
      </trkpt>
      <trkpt lat="48.01972" lon="6.78426">
        <ele>567.6</ele>
        <time>2022-05-27T08:35:16Z</time>
      </trkpt>
      <trkpt lat="48.01973" lon="6.78411">
        <ele>566.9</ele>
        <time>2022-05-27T08:35:17Z</time>
      </trkpt>
      <trkpt lat="48.01975" lon="6.78396">
        <ele>565.6</ele>
        <time>2022-05-27T08:35:18Z</time>
      </trkpt>
      <trkpt lat="48.01977" lon="6.78381">
        <ele>565.2</ele>
        <time>2022-05-27T08:35:19Z</time>
      </trkpt>
      <trkpt lat="48.0198" lon="6.78366">
        <ele>564.1</ele>
        <time>2022-05-27T08:35:20Z</time>
      </trkpt>
      <trkpt lat="48.01985" lon="6.78351">
        <ele>562.4</ele>
        <time>2022-05-27T08:35:21Z</time>
      </trkpt>
      <trkpt lat="48.01989" lon="6.78336">
        <ele>561</ele>
        <time>2022-05-27T08:35:22Z</time>
      </trkpt>
      <trkpt lat="48.01993" lon="6.7832">
        <ele>560.5</ele>
        <time>2022-05-27T08:35:23Z</time>
      </trkpt>
      <trkpt lat="48.01996" lon="6.78304">
        <ele>559.9</ele>
        <time>2022-05-27T08:35:24Z</time>
      </trkpt>
      <trkpt lat="48.01998" lon="6.78288">
        <ele>559.4</ele>
        <time>2022-05-27T08:35:25Z</time>
      </trkpt>
      <trkpt lat="48.01999" lon="6.78274">
        <ele>558.4</ele>
        <time>2022-05-27T08:35:26Z</time>
      </trkpt>
      <trkpt lat="48.01998" lon="6.78252">
        <ele>556.5</ele>
        <time>2022-05-27T08:35:28Z</time>
      </trkpt>
      <trkpt lat="48.01996" lon="6.78236">
        <ele>555.7</ele>
        <time>2022-05-27T08:35:31Z</time>
      </trkpt>
      <trkpt lat="48.01997" lon="6.78251">
        <ele>556.3</ele>
        <time>2022-05-27T08:35:45Z</time>
      </trkpt>
      <trkpt lat="48.01998" lon="6.78267">
        <ele>557.3</ele>
        <time>2022-05-27T08:35:50Z</time>
      </trkpt>
      <trkpt lat="48.01996" lon="6.78281">
        <ele>558.3</ele>
        <time>2022-05-27T08:35:55Z</time>
      </trkpt>
      <trkpt lat="48.01995" lon="6.78274">
        <ele>558.7</ele>
        <time>2022-05-27T08:36:01Z</time>
      </trkpt>
      <trkpt lat="48.01995" lon="6.78273">
        <ele>558.9</ele>
        <time>2022-05-27T08:36:05Z</time>
      </trkpt>
      <trkpt lat="48.01995" lon="6.78273">
        <ele>558.6</ele>
        <time>2022-05-27T08:36:22Z</time>
      </trkpt>
      <trkpt lat="48.01995" lon="6.78272">
        <ele>558.6</ele>
        <time>2022-05-27T08:36:24Z</time>
      </trkpt>
      <trkpt lat="48.01995" lon="6.78272">
        <ele>558.9</ele>
        <time>2022-05-27T08:36:27Z</time>
      </trkpt>
      <trkpt lat="48.01995" lon="6.78272">
        <ele>559</ele>
        <time>2022-05-27T08:36:56Z</time>
      </trkpt>
      <trkpt lat="48.01994" lon="6.78272">
        <ele>559.5</ele>
        <time>2022-05-27T08:37:10Z</time>
      </trkpt>
      <trkpt lat="48.01993" lon="6.78273">
        <ele>559.4</ele>
        <time>2022-05-27T08:37:14Z</time>
      </trkpt>
      <trkpt lat="48.01993" lon="6.78274">
        <ele>559.7</ele>
        <time>2022-05-27T08:37:34Z</time>
      </trkpt>
      <trkpt lat="48.01996" lon="6.78285">
        <ele>559.3</ele>
        <time>2022-05-27T08:37:44Z</time>
      </trkpt>
      <trkpt lat="48.01996" lon="6.78285">
        <ele>559.5</ele>
        <time>2022-05-27T08:38:18Z</time>
      </trkpt>
      <trkpt lat="48.01996" lon="6.78285">
        <ele>559.8</ele>
        <time>2022-05-27T08:38:24Z</time>
      </trkpt>
      <trkpt lat="48.01996" lon="6.78286">
        <ele>559.8</ele>
        <time>2022-05-27T08:38:28Z</time>
      </trkpt>
      <trkpt lat="48.01997" lon="6.78287">
        <ele>559.7</ele>
        <time>2022-05-27T08:38:30Z</time>
      </trkpt>
      <trkpt lat="48.01997" lon="6.78286">
        <ele>560.2</ele>
        <time>2022-05-27T08:38:56Z</time>
      </trkpt>
      <trkpt lat="48.01996" lon="6.78281">
        <ele>560.1</ele>
        <time>2022-05-27T08:39:05Z</time>
      </trkpt>
      <trkpt lat="48.01996" lon="6.7828">
        <ele>559.9</ele>
        <time>2022-05-27T08:39:34Z</time>
      </trkpt>
      <trkpt lat="48.01993" lon="6.78265">
        <ele>560.4</ele>
        <time>2022-05-27T08:39:41Z</time>
      </trkpt>
      <trkpt lat="48.01988" lon="6.7825">
        <ele>560.5</ele>
        <time>2022-05-27T08:39:45Z</time>
      </trkpt>
      <trkpt lat="48.01983" lon="6.78238">
        <ele>561.5</ele>
        <time>2022-05-27T08:39:48Z</time>
      </trkpt>
      <trkpt lat="48.01978" lon="6.78223">
        <ele>561.7</ele>
        <time>2022-05-27T08:39:52Z</time>
      </trkpt>
      <trkpt lat="48.01974" lon="6.7821">
        <ele>562.2</ele>
        <time>2022-05-27T08:39:55Z</time>
      </trkpt>
      <trkpt lat="48.01971" lon="6.78193">
        <ele>562.6</ele>
        <time>2022-05-27T08:39:59Z</time>
      </trkpt>
      <trkpt lat="48.01968" lon="6.78179">
        <ele>562.5</ele>
        <time>2022-05-27T08:40:02Z</time>
      </trkpt>
      <trkpt lat="48.01965" lon="6.78165">
        <ele>563</ele>
        <time>2022-05-27T08:40:05Z</time>
      </trkpt>
      <trkpt lat="48.01961" lon="6.78151">
        <ele>563.6</ele>
        <time>2022-05-27T08:40:08Z</time>
      </trkpt>
      <trkpt lat="48.01957" lon="6.78136">
        <ele>563.5</ele>
        <time>2022-05-27T08:40:11Z</time>
      </trkpt>
      <trkpt lat="48.01952" lon="6.78121">
        <ele>563.4</ele>
        <time>2022-05-27T08:40:14Z</time>
      </trkpt>
      <trkpt lat="48.01947" lon="6.78107">
        <ele>563.8</ele>
        <time>2022-05-27T08:40:17Z</time>
      </trkpt>
      <trkpt lat="48.01943" lon="6.78094">
        <ele>564.7</ele>
        <time>2022-05-27T08:40:20Z</time>
      </trkpt>
      <trkpt lat="48.01939" lon="6.78082">
        <ele>565</ele>
        <time>2022-05-27T08:40:23Z</time>
      </trkpt>
      <trkpt lat="48.01933" lon="6.78069">
        <ele>565.3</ele>
        <time>2022-05-27T08:40:26Z</time>
      </trkpt>
      <trkpt lat="48.01923" lon="6.78056">
        <ele>563.9</ele>
        <time>2022-05-27T08:40:29Z</time>
      </trkpt>
      <trkpt lat="48.01914" lon="6.78046">
        <ele>562.8</ele>
        <time>2022-05-27T08:40:31Z</time>
      </trkpt>
      <trkpt lat="48.01906" lon="6.78034">
        <ele>562.8</ele>
        <time>2022-05-27T08:40:33Z</time>
      </trkpt>
      <trkpt lat="48.01903" lon="6.78021">
        <ele>563.3</ele>
        <time>2022-05-27T08:40:35Z</time>
      </trkpt>
      <trkpt lat="48.01901" lon="6.78003">
        <ele>564.6</ele>
        <time>2022-05-27T08:40:38Z</time>
      </trkpt>
      <trkpt lat="48.01901" lon="6.77989">
        <ele>565.7</ele>
        <time>2022-05-27T08:40:41Z</time>
      </trkpt>
      <trkpt lat="48.01904" lon="6.77975">
        <ele>567.2</ele>
        <time>2022-05-27T08:40:45Z</time>
      </trkpt>
      <trkpt lat="48.01905" lon="6.7796">
        <ele>568.3</ele>
        <time>2022-05-27T08:40:49Z</time>
      </trkpt>
      <trkpt lat="48.01901" lon="6.77942">
        <ele>566.5</ele>
        <time>2022-05-27T08:40:53Z</time>
      </trkpt>
      <trkpt lat="48.01897" lon="6.77925">
        <ele>566.3</ele>
        <time>2022-05-27T08:40:56Z</time>
      </trkpt>
      <trkpt lat="48.01898" lon="6.77909">
        <ele>565.7</ele>
        <time>2022-05-27T08:40:59Z</time>
      </trkpt>
      <trkpt lat="48.01901" lon="6.77893">
        <ele>566.4</ele>
        <time>2022-05-27T08:41:02Z</time>
      </trkpt>
      <trkpt lat="48.019" lon="6.77876">
        <ele>565.6</ele>
        <time>2022-05-27T08:41:06Z</time>
      </trkpt>
      <trkpt lat="48.01897" lon="6.77863">
        <ele>565.9</ele>
        <time>2022-05-27T08:41:09Z</time>
      </trkpt>
      <trkpt lat="48.01892" lon="6.77851">
        <ele>566.3</ele>
        <time>2022-05-27T08:41:12Z</time>
      </trkpt>
      <trkpt lat="48.01885" lon="6.7784">
        <ele>566.1</ele>
        <time>2022-05-27T08:41:15Z</time>
      </trkpt>
      <trkpt lat="48.01878" lon="6.77827">
        <ele>565.4</ele>
        <time>2022-05-27T08:41:18Z</time>
      </trkpt>
      <trkpt lat="48.01871" lon="6.77817">
        <ele>564.4</ele>
        <time>2022-05-27T08:41:21Z</time>
      </trkpt>
      <trkpt lat="48.01863" lon="6.77808">
        <ele>566.1</ele>
        <time>2022-05-27T08:41:24Z</time>
      </trkpt>
      <trkpt lat="48.01858" lon="6.77796">
        <ele>566.3</ele>
        <time>2022-05-27T08:41:27Z</time>
      </trkpt>
      <trkpt lat="48.01859" lon="6.77781">
        <ele>566.1</ele>
        <time>2022-05-27T08:41:30Z</time>
      </trkpt>
      <trkpt lat="48.01861" lon="6.77767">
        <ele>565.9</ele>
        <time>2022-05-27T08:41:32Z</time>
      </trkpt>
      <trkpt lat="48.01861" lon="6.77751">
        <ele>565</ele>
        <time>2022-05-27T08:41:34Z</time>
      </trkpt>
      <trkpt lat="48.01862" lon="6.77732">
        <ele>563</ele>
        <time>2022-05-27T08:41:36Z</time>
      </trkpt>
      <trkpt lat="48.01859" lon="6.77713">
        <ele>562.7</ele>
        <time>2022-05-27T08:41:38Z</time>
      </trkpt>
      <trkpt lat="48.01856" lon="6.77694">
        <ele>560.7</ele>
        <time>2022-05-27T08:41:40Z</time>
      </trkpt>
      <trkpt lat="48.01851" lon="6.77677">
        <ele>560.6</ele>
        <time>2022-05-27T08:41:42Z</time>
      </trkpt>
      <trkpt lat="48.01845" lon="6.77662">
        <ele>559.3</ele>
        <time>2022-05-27T08:41:44Z</time>
      </trkpt>
      <trkpt lat="48.01837" lon="6.77649">
        <ele>559.8</ele>
        <time>2022-05-27T08:41:46Z</time>
      </trkpt>
      <trkpt lat="48.01828" lon="6.77638">
        <ele>559.2</ele>
        <time>2022-05-27T08:41:48Z</time>
      </trkpt>
      <trkpt lat="48.01824" lon="6.77623">
        <ele>557.9</ele>
        <time>2022-05-27T08:41:50Z</time>
      </trkpt>
      <trkpt lat="48.0182" lon="6.77605">
        <ele>560.4</ele>
        <time>2022-05-27T08:41:53Z</time>
      </trkpt>
      <trkpt lat="48.01813" lon="6.77589">
        <ele>559.1</ele>
        <time>2022-05-27T08:41:56Z</time>
      </trkpt>
      <trkpt lat="48.01806" lon="6.77575">
        <ele>557.9</ele>
        <time>2022-05-27T08:41:58Z</time>
      </trkpt>
      <trkpt lat="48.018" lon="6.77561">
        <ele>557</ele>
        <time>2022-05-27T08:42:00Z</time>
      </trkpt>
      <trkpt lat="48.01795" lon="6.77549">
        <ele>556.1</ele>
        <time>2022-05-27T08:42:02Z</time>
      </trkpt>
      <trkpt lat="48.01788" lon="6.77532">
        <ele>557.4</ele>
        <time>2022-05-27T08:42:05Z</time>
      </trkpt>
      <trkpt lat="48.01782" lon="6.77516">
        <ele>559.8</ele>
        <time>2022-05-27T08:42:08Z</time>
      </trkpt>
      <trkpt lat="48.01777" lon="6.77501">
        <ele>557.7</ele>
        <time>2022-05-27T08:42:11Z</time>
      </trkpt>
      <trkpt lat="48.01771" lon="6.77484">
        <ele>559.5</ele>
        <time>2022-05-27T08:42:14Z</time>
      </trkpt>
      <trkpt lat="48.01765" lon="6.77467">
        <ele>558.5</ele>
        <time>2022-05-27T08:42:17Z</time>
      </trkpt>
      <trkpt lat="48.0176" lon="6.77449">
        <ele>558.4</ele>
        <time>2022-05-27T08:42:20Z</time>
      </trkpt>
      <trkpt lat="48.01754" lon="6.77432">
        <ele>559.7</ele>
        <time>2022-05-27T08:42:23Z</time>
      </trkpt>
      <trkpt lat="48.01748" lon="6.77416">
        <ele>559.6</ele>
        <time>2022-05-27T08:42:26Z</time>
      </trkpt>
      <trkpt lat="48.01742" lon="6.77402">
        <ele>560.1</ele>
        <time>2022-05-27T08:42:29Z</time>
      </trkpt>
      <trkpt lat="48.01734" lon="6.77389">
        <ele>561.1</ele>
        <time>2022-05-27T08:42:32Z</time>
      </trkpt>
      <trkpt lat="48.01726" lon="6.77378">
        <ele>561.1</ele>
        <time>2022-05-27T08:42:35Z</time>
      </trkpt>
      <trkpt lat="48.01717" lon="6.77365">
        <ele>561</ele>
        <time>2022-05-27T08:42:38Z</time>
      </trkpt>
      <trkpt lat="48.01709" lon="6.77354">
        <ele>560.1</ele>
        <time>2022-05-27T08:42:40Z</time>
      </trkpt>
      <trkpt lat="48.01702" lon="6.77339">
        <ele>559.5</ele>
        <time>2022-05-27T08:42:42Z</time>
      </trkpt>
      <trkpt lat="48.01697" lon="6.77325">
        <ele>560.7</ele>
        <time>2022-05-27T08:42:44Z</time>
      </trkpt>
      <trkpt lat="48.01691" lon="6.77314">
        <ele>560.2</ele>
        <time>2022-05-27T08:42:46Z</time>
      </trkpt>
      <trkpt lat="48.01681" lon="6.773">
        <ele>558.2</ele>
        <time>2022-05-27T08:42:49Z</time>
      </trkpt>
      <trkpt lat="48.01672" lon="6.77293">
        <ele>557.9</ele>
        <time>2022-05-27T08:42:51Z</time>
      </trkpt>
      <trkpt lat="48.01663" lon="6.77286">
        <ele>555.2</ele>
        <time>2022-05-27T08:42:53Z</time>
      </trkpt>
      <trkpt lat="48.01655" lon="6.77274">
        <ele>555</ele>
        <time>2022-05-27T08:42:55Z</time>
      </trkpt>
      <trkpt lat="48.01654" lon="6.77259">
        <ele>556.9</ele>
        <time>2022-05-27T08:42:57Z</time>
      </trkpt>
      <trkpt lat="48.01658" lon="6.77246">
        <ele>557.5</ele>
        <time>2022-05-27T08:42:59Z</time>
      </trkpt>
      <trkpt lat="48.01663" lon="6.77228">
        <ele>557.1</ele>
        <time>2022-05-27T08:43:02Z</time>
      </trkpt>
      <trkpt lat="48.01665" lon="6.77213">
        <ele>557.7</ele>
        <time>2022-05-27T08:43:04Z</time>
      </trkpt>
      <trkpt lat="48.01666" lon="6.77199">
        <ele>555</ele>
        <time>2022-05-27T08:43:06Z</time>
      </trkpt>
      <trkpt lat="48.01664" lon="6.77186">
        <ele>558.5</ele>
        <time>2022-05-27T08:43:08Z</time>
      </trkpt>
      <trkpt lat="48.0166" lon="6.77169">
        <ele>559.1</ele>
        <time>2022-05-27T08:43:11Z</time>
      </trkpt>
      <trkpt lat="48.01653" lon="6.77155">
        <ele>558.3</ele>
        <time>2022-05-27T08:43:14Z</time>
      </trkpt>
      <trkpt lat="48.01644" lon="6.77143">
        <ele>559.5</ele>
        <time>2022-05-27T08:43:17Z</time>
      </trkpt>
      <trkpt lat="48.01635" lon="6.77135">
        <ele>561</ele>
        <time>2022-05-27T08:43:20Z</time>
      </trkpt>
      <trkpt lat="48.01627" lon="6.77125">
        <ele>560.7</ele>
        <time>2022-05-27T08:43:23Z</time>
      </trkpt>
      <trkpt lat="48.01621" lon="6.77111">
        <ele>562.5</ele>
        <time>2022-05-27T08:43:26Z</time>
      </trkpt>
      <trkpt lat="48.01616" lon="6.77097">
        <ele>562.3</ele>
        <time>2022-05-27T08:43:29Z</time>
      </trkpt>
      <trkpt lat="48.01613" lon="6.77081">
        <ele>562.5</ele>
        <time>2022-05-27T08:43:32Z</time>
      </trkpt>
      <trkpt lat="48.01613" lon="6.77067">
        <ele>563.5</ele>
        <time>2022-05-27T08:43:35Z</time>
      </trkpt>
      <trkpt lat="48.01614" lon="6.77051">
        <ele>564.6</ele>
        <time>2022-05-27T08:43:39Z</time>
      </trkpt>
      <trkpt lat="48.01612" lon="6.77035">
        <ele>565</ele>
        <time>2022-05-27T08:43:43Z</time>
      </trkpt>
      <trkpt lat="48.01606" lon="6.77024">
        <ele>565.2</ele>
        <time>2022-05-27T08:43:46Z</time>
      </trkpt>
      <trkpt lat="48.01598" lon="6.77016">
        <ele>564.6</ele>
        <time>2022-05-27T08:43:49Z</time>
      </trkpt>
      <trkpt lat="48.0159" lon="6.7701">
        <ele>565</ele>
        <time>2022-05-27T08:43:52Z</time>
      </trkpt>
      <trkpt lat="48.01579" lon="6.77004">
        <ele>565.9</ele>
        <time>2022-05-27T08:43:56Z</time>
      </trkpt>
      <trkpt lat="48.0157" lon="6.77">
        <ele>567.1</ele>
        <time>2022-05-27T08:43:59Z</time>
      </trkpt>
      <trkpt lat="48.01561" lon="6.76994">
        <ele>566.9</ele>
        <time>2022-05-27T08:44:02Z</time>
      </trkpt>
      <trkpt lat="48.01551" lon="6.7699">
        <ele>567.3</ele>
        <time>2022-05-27T08:44:05Z</time>
      </trkpt>
      <trkpt lat="48.01541" lon="6.76987">
        <ele>567.3</ele>
        <time>2022-05-27T08:44:08Z</time>
      </trkpt>
      <trkpt lat="48.01529" lon="6.76984">
        <ele>568</ele>
        <time>2022-05-27T08:44:12Z</time>
      </trkpt>
      <trkpt lat="48.01519" lon="6.76981">
        <ele>568.3</ele>
        <time>2022-05-27T08:44:15Z</time>
      </trkpt>
      <trkpt lat="48.01508" lon="6.76979">
        <ele>567.3</ele>
        <time>2022-05-27T08:44:18Z</time>
      </trkpt>
      <trkpt lat="48.01498" lon="6.76974">
        <ele>568.3</ele>
        <time>2022-05-27T08:44:21Z</time>
      </trkpt>
      <trkpt lat="48.01488" lon="6.76963">
        <ele>568.7</ele>
        <time>2022-05-27T08:44:24Z</time>
      </trkpt>
      <trkpt lat="48.0148" lon="6.76953">
        <ele>568.6</ele>
        <time>2022-05-27T08:44:27Z</time>
      </trkpt>
      <trkpt lat="48.01472" lon="6.76942">
        <ele>569.5</ele>
        <time>2022-05-27T08:44:30Z</time>
      </trkpt>
      <trkpt lat="48.01463" lon="6.76929">
        <ele>567.4</ele>
        <time>2022-05-27T08:44:33Z</time>
      </trkpt>
      <trkpt lat="48.01457" lon="6.76918">
        <ele>572</ele>
        <time>2022-05-27T08:44:35Z</time>
      </trkpt>
      <trkpt lat="48.01452" lon="6.76908">
        <ele>569.8</ele>
        <time>2022-05-27T08:44:37Z</time>
      </trkpt>
      <trkpt lat="48.01446" lon="6.76892">
        <ele>568.1</ele>
        <time>2022-05-27T08:44:40Z</time>
      </trkpt>
      <trkpt lat="48.01443" lon="6.76875">
        <ele>569.2</ele>
        <time>2022-05-27T08:44:43Z</time>
      </trkpt>
      <trkpt lat="48.01441" lon="6.76857">
        <ele>568.1</ele>
        <time>2022-05-27T08:44:46Z</time>
      </trkpt>
      <trkpt lat="48.0144" lon="6.76839">
        <ele>569.4</ele>
        <time>2022-05-27T08:44:49Z</time>
      </trkpt>
      <trkpt lat="48.01439" lon="6.76823">
        <ele>569.4</ele>
        <time>2022-05-27T08:44:52Z</time>
      </trkpt>
      <trkpt lat="48.01437" lon="6.76808">
        <ele>571.8</ele>
        <time>2022-05-27T08:44:55Z</time>
      </trkpt>
      <trkpt lat="48.01435" lon="6.76793">
        <ele>572</ele>
        <time>2022-05-27T08:44:58Z</time>
      </trkpt>
      <trkpt lat="48.01434" lon="6.76779">
        <ele>572.1</ele>
        <time>2022-05-27T08:45:01Z</time>
      </trkpt>
      <trkpt lat="48.01432" lon="6.76765">
        <ele>572.1</ele>
        <time>2022-05-27T08:45:04Z</time>
      </trkpt>
      <trkpt lat="48.01429" lon="6.76752">
        <ele>571.9</ele>
        <time>2022-05-27T08:45:07Z</time>
      </trkpt>
      <trkpt lat="48.01425" lon="6.76739">
        <ele>571.2</ele>
        <time>2022-05-27T08:45:09Z</time>
      </trkpt>
      <trkpt lat="48.01419" lon="6.76727">
        <ele>570.3</ele>
        <time>2022-05-27T08:45:11Z</time>
      </trkpt>
      <trkpt lat="48.01415" lon="6.76714">
        <ele>569.5</ele>
        <time>2022-05-27T08:45:13Z</time>
      </trkpt>
      <trkpt lat="48.01408" lon="6.76702">
        <ele>570.2</ele>
        <time>2022-05-27T08:45:15Z</time>
      </trkpt>
      <trkpt lat="48.014" lon="6.76692">
        <ele>568.6</ele>
        <time>2022-05-27T08:45:17Z</time>
      </trkpt>
      <trkpt lat="48.01389" lon="6.76682">
        <ele>567.9</ele>
        <time>2022-05-27T08:45:19Z</time>
      </trkpt>
      <trkpt lat="48.01377" lon="6.76671">
        <ele>566</ele>
        <time>2022-05-27T08:45:21Z</time>
      </trkpt>
      <trkpt lat="48.01367" lon="6.76657">
        <ele>565.7</ele>
        <time>2022-05-27T08:45:23Z</time>
      </trkpt>
      <trkpt lat="48.01362" lon="6.76644">
        <ele>565.8</ele>
        <time>2022-05-27T08:45:25Z</time>
      </trkpt>
      <trkpt lat="48.01359" lon="6.7663">
        <ele>566</ele>
        <time>2022-05-27T08:45:27Z</time>
      </trkpt>
      <trkpt lat="48.01354" lon="6.76614">
        <ele>565.3</ele>
        <time>2022-05-27T08:45:30Z</time>
      </trkpt>
      <trkpt lat="48.01345" lon="6.76601">
        <ele>565.1</ele>
        <time>2022-05-27T08:45:33Z</time>
      </trkpt>
      <trkpt lat="48.01337" lon="6.76591">
        <ele>565.5</ele>
        <time>2022-05-27T08:45:35Z</time>
      </trkpt>
      <trkpt lat="48.0133" lon="6.7658">
        <ele>562</ele>
        <time>2022-05-27T08:45:37Z</time>
      </trkpt>
      <trkpt lat="48.01322" lon="6.76566">
        <ele>562.8</ele>
        <time>2022-05-27T08:45:39Z</time>
      </trkpt>
      <trkpt lat="48.01314" lon="6.76552">
        <ele>562.2</ele>
        <time>2022-05-27T08:45:41Z</time>
      </trkpt>
      <trkpt lat="48.01307" lon="6.76538">
        <ele>560.1</ele>
        <time>2022-05-27T08:45:43Z</time>
      </trkpt>
      <trkpt lat="48.01301" lon="6.76522">
        <ele>557.5</ele>
        <time>2022-05-27T08:45:45Z</time>
      </trkpt>
      <trkpt lat="48.01297" lon="6.76508">
        <ele>559.3</ele>
        <time>2022-05-27T08:45:47Z</time>
      </trkpt>
      <trkpt lat="48.01294" lon="6.76495">
        <ele>560.7</ele>
        <time>2022-05-27T08:45:49Z</time>
      </trkpt>
      <trkpt lat="48.0129" lon="6.76479">
        <ele>561.3</ele>
        <time>2022-05-27T08:45:52Z</time>
      </trkpt>
      <trkpt lat="48.01286" lon="6.76467">
        <ele>561.7</ele>
        <time>2022-05-27T08:45:54Z</time>
      </trkpt>
      <trkpt lat="48.01282" lon="6.76454">
        <ele>560.6</ele>
        <time>2022-05-27T08:45:56Z</time>
      </trkpt>
      <trkpt lat="48.01278" lon="6.76441">
        <ele>561</ele>
        <time>2022-05-27T08:45:58Z</time>
      </trkpt>
      <trkpt lat="48.01273" lon="6.76423">
        <ele>560.8</ele>
        <time>2022-05-27T08:46:01Z</time>
      </trkpt>
      <trkpt lat="48.01271" lon="6.76407">
        <ele>562.7</ele>
        <time>2022-05-27T08:46:04Z</time>
      </trkpt>
      <trkpt lat="48.01273" lon="6.76393">
        <ele>562.3</ele>
        <time>2022-05-27T08:46:07Z</time>
      </trkpt>
      <trkpt lat="48.01278" lon="6.76382">
        <ele>562.7</ele>
        <time>2022-05-27T08:46:15Z</time>
      </trkpt>
      <trkpt lat="48.01277" lon="6.76384">
        <ele>562.5</ele>
        <time>2022-05-27T08:46:21Z</time>
      </trkpt>
      <trkpt lat="48.01277" lon="6.76384">
        <ele>562.6</ele>
        <time>2022-05-27T08:46:31Z</time>
      </trkpt>
      <trkpt lat="48.01277" lon="6.76385">
        <ele>562.8</ele>
        <time>2022-05-27T08:46:35Z</time>
      </trkpt>
      <trkpt lat="48.01278" lon="6.76385">
        <ele>563.3</ele>
        <time>2022-05-27T08:47:04Z</time>
      </trkpt>
      <trkpt lat="48.01287" lon="6.76389">
        <ele>560.9</ele>
        <time>2022-05-27T08:47:09Z</time>
      </trkpt>
      <trkpt lat="48.01298" lon="6.76396">
        <ele>559</ele>
        <time>2022-05-27T08:47:12Z</time>
      </trkpt>
      <trkpt lat="48.01294" lon="6.7641">
        <ele>554.7</ele>
        <time>2022-05-27T08:47:20Z</time>
      </trkpt>
      <trkpt lat="48.01293" lon="6.76424">
        <ele>553.9</ele>
        <time>2022-05-27T08:47:23Z</time>
      </trkpt>
      <trkpt lat="48.01296" lon="6.76434">
        <ele>554.4</ele>
        <time>2022-05-27T08:47:27Z</time>
      </trkpt>
      <trkpt lat="48.01301" lon="6.76447">
        <ele>554.9</ele>
        <time>2022-05-27T08:47:36Z</time>
      </trkpt>
      <trkpt lat="48.01298" lon="6.76461">
        <ele>555.9</ele>
        <time>2022-05-27T08:47:46Z</time>
      </trkpt>
      <trkpt lat="48.013" lon="6.76475">
        <ele>557.4</ele>
        <time>2022-05-27T08:47:52Z</time>
      </trkpt>
      <trkpt lat="48.01306" lon="6.76486">
        <ele>558.7</ele>
        <time>2022-05-27T08:47:56Z</time>
      </trkpt>
      <trkpt lat="48.01315" lon="6.76488">
        <ele>557</ele>
        <time>2022-05-27T08:48:01Z</time>
      </trkpt>
      <trkpt lat="48.01319" lon="6.76484">
        <ele>555.8</ele>
        <time>2022-05-27T08:48:06Z</time>
      </trkpt>
      <trkpt lat="48.01319" lon="6.76484">
        <ele>556.1</ele>
        <time>2022-05-27T08:48:48Z</time>
      </trkpt>
      <trkpt lat="48.0132" lon="6.76484">
        <ele>556.3</ele>
        <time>2022-05-27T08:49:04Z</time>
      </trkpt>
      <trkpt lat="48.0132" lon="6.76484">
        <ele>556.5</ele>
        <time>2022-05-27T08:49:25Z</time>
      </trkpt>
      <trkpt lat="48.0132" lon="6.76483">
        <ele>556.5</ele>
        <time>2022-05-27T08:49:55Z</time>
      </trkpt>
      <trkpt lat="48.01321" lon="6.76483">
        <ele>556.5</ele>
        <time>2022-05-27T08:49:58Z</time>
      </trkpt>
      <trkpt lat="48.0133" lon="6.76481">
        <ele>553.3</ele>
        <time>2022-05-27T08:50:04Z</time>
      </trkpt>
      <trkpt lat="48.0134" lon="6.76489">
        <ele>551.3</ele>
        <time>2022-05-27T08:50:08Z</time>
      </trkpt>
      <trkpt lat="48.01347" lon="6.76506">
        <ele>548</ele>
        <time>2022-05-27T08:50:11Z</time>
      </trkpt>
      <trkpt lat="48.01356" lon="6.76518">
        <ele>546.5</ele>
        <time>2022-05-27T08:50:13Z</time>
      </trkpt>
      <trkpt lat="48.01363" lon="6.76525">
        <ele>545.2</ele>
        <time>2022-05-27T08:50:15Z</time>
      </trkpt>
      <trkpt lat="48.01372" lon="6.76529">
        <ele>543.1</ele>
        <time>2022-05-27T08:50:17Z</time>
      </trkpt>
      <trkpt lat="48.01383" lon="6.76533">
        <ele>542.1</ele>
        <time>2022-05-27T08:50:19Z</time>
      </trkpt>
      <trkpt lat="48.01393" lon="6.76535">
        <ele>539.2</ele>
        <time>2022-05-27T08:50:21Z</time>
      </trkpt>
      <trkpt lat="48.01403" lon="6.76534">
        <ele>536.9</ele>
        <time>2022-05-27T08:50:23Z</time>
      </trkpt>
      <trkpt lat="48.01413" lon="6.76534">
        <ele>536.1</ele>
        <time>2022-05-27T08:50:25Z</time>
      </trkpt>
      <trkpt lat="48.01424" lon="6.76546">
        <ele>535.6</ele>
        <time>2022-05-27T08:50:28Z</time>
      </trkpt>
      <trkpt lat="48.01431" lon="6.76556">
        <ele>535.2</ele>
        <time>2022-05-27T08:50:30Z</time>
      </trkpt>
      <trkpt lat="48.0144" lon="6.76566">
        <ele>535</ele>
        <time>2022-05-27T08:50:32Z</time>
      </trkpt>
      <trkpt lat="48.01452" lon="6.76574">
        <ele>533.6</ele>
        <time>2022-05-27T08:50:34Z</time>
      </trkpt>
      <trkpt lat="48.01466" lon="6.76579">
        <ele>531.2</ele>
        <time>2022-05-27T08:50:36Z</time>
      </trkpt>
      <trkpt lat="48.01481" lon="6.76585">
        <ele>528.9</ele>
        <time>2022-05-27T08:50:38Z</time>
      </trkpt>
      <trkpt lat="48.01496" lon="6.76588">
        <ele>528.1</ele>
        <time>2022-05-27T08:50:40Z</time>
      </trkpt>
      <trkpt lat="48.01511" lon="6.76592">
        <ele>528.1</ele>
        <time>2022-05-27T08:50:42Z</time>
      </trkpt>
      <trkpt lat="48.01526" lon="6.76603">
        <ele>527.3</ele>
        <time>2022-05-27T08:50:44Z</time>
      </trkpt>
      <trkpt lat="48.01533" lon="6.76612">
        <ele>525.9</ele>
        <time>2022-05-27T08:50:45Z</time>
      </trkpt>
      <trkpt lat="48.01546" lon="6.76627">
        <ele>524.3</ele>
        <time>2022-05-27T08:50:47Z</time>
      </trkpt>
      <trkpt lat="48.01558" lon="6.76641">
        <ele>523.7</ele>
        <time>2022-05-27T08:50:49Z</time>
      </trkpt>
      <trkpt lat="48.01567" lon="6.76657">
        <ele>524.3</ele>
        <time>2022-05-27T08:50:51Z</time>
      </trkpt>
      <trkpt lat="48.01577" lon="6.76675">
        <ele>523.6</ele>
        <time>2022-05-27T08:50:53Z</time>
      </trkpt>
      <trkpt lat="48.01583" lon="6.76686">
        <ele>522</ele>
        <time>2022-05-27T08:50:54Z</time>
      </trkpt>
      <trkpt lat="48.01589" lon="6.76697">
        <ele>521.7</ele>
        <time>2022-05-27T08:50:55Z</time>
      </trkpt>
      <trkpt lat="48.01595" lon="6.76706">
        <ele>522.2</ele>
        <time>2022-05-27T08:50:56Z</time>
      </trkpt>
      <trkpt lat="48.01606" lon="6.76725">
        <ele>520.7</ele>
        <time>2022-05-27T08:50:58Z</time>
      </trkpt>
      <trkpt lat="48.01614" lon="6.76745">
        <ele>521.3</ele>
        <time>2022-05-27T08:51:00Z</time>
      </trkpt>
      <trkpt lat="48.01622" lon="6.76767">
        <ele>520.1</ele>
        <time>2022-05-27T08:51:02Z</time>
      </trkpt>
      <trkpt lat="48.01631" lon="6.76786">
        <ele>520.3</ele>
        <time>2022-05-27T08:51:04Z</time>
      </trkpt>
      <trkpt lat="48.01645" lon="6.76805">
        <ele>520.7</ele>
        <time>2022-05-27T08:51:06Z</time>
      </trkpt>
      <trkpt lat="48.01657" lon="6.76821">
        <ele>521.1</ele>
        <time>2022-05-27T08:51:08Z</time>
      </trkpt>
      <trkpt lat="48.01667" lon="6.76839">
        <ele>521.8</ele>
        <time>2022-05-27T08:51:10Z</time>
      </trkpt>
      <trkpt lat="48.01674" lon="6.76856">
        <ele>521.4</ele>
        <time>2022-05-27T08:51:12Z</time>
      </trkpt>
      <trkpt lat="48.01679" lon="6.76874">
        <ele>520.8</ele>
        <time>2022-05-27T08:51:14Z</time>
      </trkpt>
      <trkpt lat="48.01685" lon="6.76889">
        <ele>521.1</ele>
        <time>2022-05-27T08:51:16Z</time>
      </trkpt>
      <trkpt lat="48.01691" lon="6.76903">
        <ele>521.7</ele>
        <time>2022-05-27T08:51:18Z</time>
      </trkpt>
      <trkpt lat="48.01695" lon="6.76916">
        <ele>522</ele>
        <time>2022-05-27T08:51:20Z</time>
      </trkpt>
      <trkpt lat="48.017" lon="6.76929">
        <ele>521.6</ele>
        <time>2022-05-27T08:51:22Z</time>
      </trkpt>
      <trkpt lat="48.01704" lon="6.76941">
        <ele>520.7</ele>
        <time>2022-05-27T08:51:24Z</time>
      </trkpt>
      <trkpt lat="48.01713" lon="6.76946">
        <ele>521.5</ele>
        <time>2022-05-27T08:51:27Z</time>
      </trkpt>
      <trkpt lat="48.01722" lon="6.76951">
        <ele>521.4</ele>
        <time>2022-05-27T08:51:31Z</time>
      </trkpt>
      <trkpt lat="48.01728" lon="6.76963">
        <ele>521</ele>
        <time>2022-05-27T08:51:34Z</time>
      </trkpt>
      <trkpt lat="48.01736" lon="6.76973">
        <ele>521.7</ele>
        <time>2022-05-27T08:51:38Z</time>
      </trkpt>
      <trkpt lat="48.01746" lon="6.76981">
        <ele>522.9</ele>
        <time>2022-05-27T08:51:42Z</time>
      </trkpt>
      <trkpt lat="48.01754" lon="6.76991">
        <ele>522.9</ele>
        <time>2022-05-27T08:51:45Z</time>
      </trkpt>
      <trkpt lat="48.01761" lon="6.77001">
        <ele>523</ele>
        <time>2022-05-27T08:51:48Z</time>
      </trkpt>
      <trkpt lat="48.01768" lon="6.7701">
        <ele>522.5</ele>
        <time>2022-05-27T08:51:51Z</time>
      </trkpt>
      <trkpt lat="48.01775" lon="6.77021">
        <ele>522.6</ele>
        <time>2022-05-27T08:51:54Z</time>
      </trkpt>
      <trkpt lat="48.01782" lon="6.7703">
        <ele>523.3</ele>
        <time>2022-05-27T08:51:57Z</time>
      </trkpt>
      <trkpt lat="48.01791" lon="6.7704">
        <ele>523.6</ele>
        <time>2022-05-27T08:52:01Z</time>
      </trkpt>
      <trkpt lat="48.018" lon="6.77048">
        <ele>523.9</ele>
        <time>2022-05-27T08:52:04Z</time>
      </trkpt>
      <trkpt lat="48.01808" lon="6.77053">
        <ele>523.6</ele>
        <time>2022-05-27T08:52:07Z</time>
      </trkpt>
      <trkpt lat="48.01817" lon="6.77057">
        <ele>524</ele>
        <time>2022-05-27T08:52:10Z</time>
      </trkpt>
      <trkpt lat="48.01828" lon="6.77062">
        <ele>524.5</ele>
        <time>2022-05-27T08:52:13Z</time>
      </trkpt>
      <trkpt lat="48.0184" lon="6.77066">
        <ele>524.7</ele>
        <time>2022-05-27T08:52:16Z</time>
      </trkpt>
      <trkpt lat="48.0185" lon="6.77066">
        <ele>526.1</ele>
        <time>2022-05-27T08:52:19Z</time>
      </trkpt>
      <trkpt lat="48.01859" lon="6.77061">
        <ele>526.3</ele>
        <time>2022-05-27T08:52:22Z</time>
      </trkpt>
      <trkpt lat="48.01869" lon="6.7705">
        <ele>527.7</ele>
        <time>2022-05-27T08:52:26Z</time>
      </trkpt>
      <trkpt lat="48.01875" lon="6.77038">
        <ele>528.4</ele>
        <time>2022-05-27T08:52:30Z</time>
      </trkpt>
      <trkpt lat="48.01877" lon="6.77023">
        <ele>529.8</ele>
        <time>2022-05-27T08:52:35Z</time>
      </trkpt>
      <trkpt lat="48.01879" lon="6.77009">
        <ele>531.2</ele>
        <time>2022-05-27T08:52:40Z</time>
      </trkpt>
      <trkpt lat="48.01877" lon="6.76993">
        <ele>530.6</ele>
        <time>2022-05-27T08:52:45Z</time>
      </trkpt>
      <trkpt lat="48.01872" lon="6.76982">
        <ele>530.4</ele>
        <time>2022-05-27T08:52:48Z</time>
      </trkpt>
      <trkpt lat="48.01865" lon="6.76968">
        <ele>530.1</ele>
        <time>2022-05-27T08:52:51Z</time>
      </trkpt>
      <trkpt lat="48.01859" lon="6.76951">
        <ele>529.1</ele>
        <time>2022-05-27T08:52:54Z</time>
      </trkpt>
      <trkpt lat="48.01858" lon="6.76937">
        <ele>529.6</ele>
        <time>2022-05-27T08:52:57Z</time>
      </trkpt>
      <trkpt lat="48.01855" lon="6.76924">
        <ele>530.3</ele>
        <time>2022-05-27T08:53:01Z</time>
      </trkpt>
      <trkpt lat="48.01854" lon="6.76909">
        <ele>530.6</ele>
        <time>2022-05-27T08:53:06Z</time>
      </trkpt>
      <trkpt lat="48.01853" lon="6.76894">
        <ele>531.9</ele>
        <time>2022-05-27T08:53:11Z</time>
      </trkpt>
      <trkpt lat="48.01848" lon="6.76881">
        <ele>531.4</ele>
        <time>2022-05-27T08:53:16Z</time>
      </trkpt>
      <trkpt lat="48.01842" lon="6.76867">
        <ele>531.4</ele>
        <time>2022-05-27T08:53:20Z</time>
      </trkpt>
      <trkpt lat="48.01837" lon="6.76852">
        <ele>530.5</ele>
        <time>2022-05-27T08:53:24Z</time>
      </trkpt>
      <trkpt lat="48.01832" lon="6.76836">
        <ele>531.2</ele>
        <time>2022-05-27T08:53:28Z</time>
      </trkpt>
      <trkpt lat="48.01829" lon="6.76819">
        <ele>532.2</ele>
        <time>2022-05-27T08:53:32Z</time>
      </trkpt>
      <trkpt lat="48.01826" lon="6.76805">
        <ele>533.3</ele>
        <time>2022-05-27T08:53:36Z</time>
      </trkpt>
      <trkpt lat="48.01821" lon="6.76794">
        <ele>534.3</ele>
        <time>2022-05-27T08:53:41Z</time>
      </trkpt>
      <trkpt lat="48.01817" lon="6.7678">
        <ele>535.7</ele>
        <time>2022-05-27T08:53:48Z</time>
      </trkpt>
      <trkpt lat="48.01814" lon="6.76767">
        <ele>536.4</ele>
        <time>2022-05-27T08:53:55Z</time>
      </trkpt>
      <trkpt lat="48.01812" lon="6.76754">
        <ele>537.8</ele>
        <time>2022-05-27T08:54:03Z</time>
      </trkpt>
      <trkpt lat="48.01811" lon="6.76754">
        <ele>537.8</ele>
        <time>2022-05-27T08:54:04Z</time>
      </trkpt>
      <trkpt lat="48.01811" lon="6.76755">
        <ele>538.1</ele>
        <time>2022-05-27T08:54:06Z</time>
      </trkpt>
      <trkpt lat="48.01812" lon="6.76754">
        <ele>538.3</ele>
        <time>2022-05-27T08:54:09Z</time>
      </trkpt>
      <trkpt lat="48.01812" lon="6.76746">
        <ele>540.1</ele>
        <time>2022-05-27T08:54:20Z</time>
      </trkpt>
      <trkpt lat="48.01813" lon="6.76747">
        <ele>540.5</ele>
        <time>2022-05-27T08:54:22Z</time>
      </trkpt>
      <trkpt lat="48.01813" lon="6.76747">
        <ele>540.9</ele>
        <time>2022-05-27T08:55:01Z</time>
      </trkpt>
      <trkpt lat="48.01813" lon="6.76747">
        <ele>540.2</ele>
        <time>2022-05-27T08:55:19Z</time>
      </trkpt>
      <trkpt lat="48.01813" lon="6.76747">
        <ele>540.6</ele>
        <time>2022-05-27T08:55:34Z</time>
      </trkpt>
      <trkpt lat="48.01812" lon="6.76745">
        <ele>540.5</ele>
        <time>2022-05-27T08:55:39Z</time>
      </trkpt>
      <trkpt lat="48.01811" lon="6.76743">
        <ele>540.4</ele>
        <time>2022-05-27T08:55:44Z</time>
      </trkpt>
      <trkpt lat="48.01811" lon="6.76742">
        <ele>540.3</ele>
        <time>2022-05-27T08:55:46Z</time>
      </trkpt>
      <trkpt lat="48.01807" lon="6.76728">
        <ele>539.9</ele>
        <time>2022-05-27T08:55:57Z</time>
      </trkpt>
      <trkpt lat="48.01802" lon="6.76711">
        <ele>538.7</ele>
        <time>2022-05-27T08:56:01Z</time>
      </trkpt>
      <trkpt lat="48.01801" lon="6.76694">
        <ele>540.6</ele>
        <time>2022-05-27T08:56:04Z</time>
      </trkpt>
      <trkpt lat="48.018" lon="6.76675">
        <ele>539</ele>
        <time>2022-05-27T08:56:07Z</time>
      </trkpt>
      <trkpt lat="48.01804" lon="6.7666">
        <ele>539.4</ele>
        <time>2022-05-27T08:56:10Z</time>
      </trkpt>
      <trkpt lat="48.01809" lon="6.76648">
        <ele>540.9</ele>
        <time>2022-05-27T08:56:13Z</time>
      </trkpt>
      <trkpt lat="48.01817" lon="6.76638">
        <ele>541.1</ele>
        <time>2022-05-27T08:56:16Z</time>
      </trkpt>
      <trkpt lat="48.01825" lon="6.76627">
        <ele>542.1</ele>
        <time>2022-05-27T08:56:19Z</time>
      </trkpt>
      <trkpt lat="48.01831" lon="6.76614">
        <ele>542.7</ele>
        <time>2022-05-27T08:56:22Z</time>
      </trkpt>
      <trkpt lat="48.01836" lon="6.766">
        <ele>540.9</ele>
        <time>2022-05-27T08:56:25Z</time>
      </trkpt>
      <trkpt lat="48.01838" lon="6.76584">
        <ele>541.2</ele>
        <time>2022-05-27T08:56:28Z</time>
      </trkpt>
      <trkpt lat="48.01838" lon="6.76568">
        <ele>539.2</ele>
        <time>2022-05-27T08:56:31Z</time>
      </trkpt>
      <trkpt lat="48.01833" lon="6.76548">
        <ele>538.7</ele>
        <time>2022-05-27T08:56:34Z</time>
      </trkpt>
      <trkpt lat="48.01825" lon="6.76531">
        <ele>534.2</ele>
        <time>2022-05-27T08:56:36Z</time>
      </trkpt>
      <trkpt lat="48.01814" lon="6.76517">
        <ele>534.5</ele>
        <time>2022-05-27T08:56:38Z</time>
      </trkpt>
      <trkpt lat="48.01802" lon="6.76507">
        <ele>533.2</ele>
        <time>2022-05-27T08:56:40Z</time>
      </trkpt>
      <trkpt lat="48.01791" lon="6.76499">
        <ele>533.1</ele>
        <time>2022-05-27T08:56:42Z</time>
      </trkpt>
      <trkpt lat="48.01777" lon="6.76494">
        <ele>530.2</ele>
        <time>2022-05-27T08:56:44Z</time>
      </trkpt>
      <trkpt lat="48.01765" lon="6.7649">
        <ele>529</ele>
        <time>2022-05-27T08:56:46Z</time>
      </trkpt>
      <trkpt lat="48.01755" lon="6.76487">
        <ele>527.1</ele>
        <time>2022-05-27T08:56:48Z</time>
      </trkpt>
      <trkpt lat="48.01749" lon="6.76477">
        <ele>527.2</ele>
        <time>2022-05-27T08:56:50Z</time>
      </trkpt>
      <trkpt lat="48.01745" lon="6.76461">
        <ele>528.5</ele>
        <time>2022-05-27T08:56:53Z</time>
      </trkpt>
      <trkpt lat="48.0174" lon="6.76447">
        <ele>530.4</ele>
        <time>2022-05-27T08:56:57Z</time>
      </trkpt>
      <trkpt lat="48.01734" lon="6.76433">
        <ele>532</ele>
        <time>2022-05-27T08:57:03Z</time>
      </trkpt>
      <trkpt lat="48.01728" lon="6.7642">
        <ele>533.3</ele>
        <time>2022-05-27T08:57:08Z</time>
      </trkpt>
      <trkpt lat="48.01721" lon="6.76408">
        <ele>534.1</ele>
        <time>2022-05-27T08:57:13Z</time>
      </trkpt>
      <trkpt lat="48.01713" lon="6.76396">
        <ele>535.4</ele>
        <time>2022-05-27T08:57:19Z</time>
      </trkpt>
      <trkpt lat="48.01706" lon="6.76384">
        <ele>536.1</ele>
        <time>2022-05-27T08:57:24Z</time>
      </trkpt>
      <trkpt lat="48.01699" lon="6.76372">
        <ele>537.1</ele>
        <time>2022-05-27T08:57:29Z</time>
      </trkpt>
      <trkpt lat="48.01691" lon="6.7636">
        <ele>537.6</ele>
        <time>2022-05-27T08:57:34Z</time>
      </trkpt>
      <trkpt lat="48.01684" lon="6.7635">
        <ele>538.3</ele>
        <time>2022-05-27T08:57:39Z</time>
      </trkpt>
      <trkpt lat="48.01679" lon="6.76337">
        <ele>539.2</ele>
        <time>2022-05-27T08:57:44Z</time>
      </trkpt>
      <trkpt lat="48.01676" lon="6.76322">
        <ele>539.8</ele>
        <time>2022-05-27T08:57:49Z</time>
      </trkpt>
      <trkpt lat="48.01677" lon="6.76308">
        <ele>541.2</ele>
        <time>2022-05-27T08:57:54Z</time>
      </trkpt>
      <trkpt lat="48.01679" lon="6.76294">
        <ele>541.9</ele>
        <time>2022-05-27T08:57:59Z</time>
      </trkpt>
      <trkpt lat="48.01677" lon="6.76279">
        <ele>542.6</ele>
        <time>2022-05-27T08:58:04Z</time>
      </trkpt>
      <trkpt lat="48.01675" lon="6.76265">
        <ele>543.6</ele>
        <time>2022-05-27T08:58:09Z</time>
      </trkpt>
      <trkpt lat="48.01673" lon="6.76249">
        <ele>544.5</ele>
        <time>2022-05-27T08:58:15Z</time>
      </trkpt>
      <trkpt lat="48.01673" lon="6.76233">
        <ele>546.3</ele>
        <time>2022-05-27T08:58:21Z</time>
      </trkpt>
      <trkpt lat="48.01674" lon="6.7622">
        <ele>548.4</ele>
        <time>2022-05-27T08:58:26Z</time>
      </trkpt>
      <trkpt lat="48.01674" lon="6.76204">
        <ele>548.8</ele>
        <time>2022-05-27T08:58:32Z</time>
      </trkpt>
      <trkpt lat="48.01675" lon="6.76188">
        <ele>550.7</ele>
        <time>2022-05-27T08:58:38Z</time>
      </trkpt>
      <trkpt lat="48.01676" lon="6.76172">
        <ele>550.1</ele>
        <time>2022-05-27T08:58:43Z</time>
      </trkpt>
      <trkpt lat="48.01677" lon="6.76156">
        <ele>549.5</ele>
        <time>2022-05-27T08:58:47Z</time>
      </trkpt>
      <trkpt lat="48.01685" lon="6.76141">
        <ele>548.5</ele>
        <time>2022-05-27T08:58:51Z</time>
      </trkpt>
      <trkpt lat="48.01692" lon="6.76132">
        <ele>550.4</ele>
        <time>2022-05-27T08:58:54Z</time>
      </trkpt>
      <trkpt lat="48.01697" lon="6.7612">
        <ele>550.1</ele>
        <time>2022-05-27T08:58:57Z</time>
      </trkpt>
      <trkpt lat="48.01703" lon="6.76109">
        <ele>550</ele>
        <time>2022-05-27T08:59:01Z</time>
      </trkpt>
      <trkpt lat="48.01709" lon="6.76095">
        <ele>549</ele>
        <time>2022-05-27T08:59:06Z</time>
      </trkpt>
      <trkpt lat="48.0171" lon="6.7609">
        <ele>548.9</ele>
        <time>2022-05-27T08:59:11Z</time>
      </trkpt>
      <trkpt lat="48.01715" lon="6.76076">
        <ele>548.4</ele>
        <time>2022-05-27T08:59:24Z</time>
      </trkpt>
      <trkpt lat="48.01718" lon="6.76061">
        <ele>546.1</ele>
        <time>2022-05-27T08:59:27Z</time>
      </trkpt>
      <trkpt lat="48.0172" lon="6.76048">
        <ele>545</ele>
        <time>2022-05-27T08:59:30Z</time>
      </trkpt>
      <trkpt lat="48.01725" lon="6.76031">
        <ele>544.8</ele>
        <time>2022-05-27T08:59:33Z</time>
      </trkpt>
      <trkpt lat="48.01728" lon="6.76015">
        <ele>542.8</ele>
        <time>2022-05-27T08:59:35Z</time>
      </trkpt>
      <trkpt lat="48.01731" lon="6.75993">
        <ele>541.8</ele>
        <time>2022-05-27T08:59:37Z</time>
      </trkpt>
      <trkpt lat="48.01733" lon="6.75972">
        <ele>538.8</ele>
        <time>2022-05-27T08:59:39Z</time>
      </trkpt>
      <trkpt lat="48.01734" lon="6.75952">
        <ele>538.1</ele>
        <time>2022-05-27T08:59:41Z</time>
      </trkpt>
      <trkpt lat="48.01736" lon="6.75938">
        <ele>537</ele>
        <time>2022-05-27T08:59:43Z</time>
      </trkpt>
      <trkpt lat="48.01741" lon="6.75922">
        <ele>534.8</ele>
        <time>2022-05-27T08:59:46Z</time>
      </trkpt>
      <trkpt lat="48.01743" lon="6.75907">
        <ele>530.7</ele>
        <time>2022-05-27T08:59:49Z</time>
      </trkpt>
      <trkpt lat="48.01739" lon="6.75893">
        <ele>529</ele>
        <time>2022-05-27T08:59:51Z</time>
      </trkpt>
      <trkpt lat="48.01735" lon="6.75878">
        <ele>529.8</ele>
        <time>2022-05-27T08:59:53Z</time>
      </trkpt>
      <trkpt lat="48.01729" lon="6.75862">
        <ele>526.5</ele>
        <time>2022-05-27T08:59:55Z</time>
      </trkpt>
      <trkpt lat="48.01726" lon="6.75847">
        <ele>525.9</ele>
        <time>2022-05-27T08:59:57Z</time>
      </trkpt>
      <trkpt lat="48.01728" lon="6.75834">
        <ele>524.7</ele>
        <time>2022-05-27T08:59:59Z</time>
      </trkpt>
      <trkpt lat="48.01728" lon="6.75816">
        <ele>522.7</ele>
        <time>2022-05-27T09:00:02Z</time>
      </trkpt>
      <trkpt lat="48.01728" lon="6.75799">
        <ele>520.9</ele>
        <time>2022-05-27T09:00:04Z</time>
      </trkpt>
      <trkpt lat="48.01729" lon="6.75776">
        <ele>518.4</ele>
        <time>2022-05-27T09:00:06Z</time>
      </trkpt>
      <trkpt lat="48.0173" lon="6.75753">
        <ele>517.3</ele>
        <time>2022-05-27T09:00:08Z</time>
      </trkpt>
      <trkpt lat="48.01731" lon="6.75731">
        <ele>516.1</ele>
        <time>2022-05-27T09:00:10Z</time>
      </trkpt>
      <trkpt lat="48.01731" lon="6.75711">
        <ele>515.5</ele>
        <time>2022-05-27T09:00:12Z</time>
      </trkpt>
      <trkpt lat="48.01727" lon="6.75689">
        <ele>514.3</ele>
        <time>2022-05-27T09:00:14Z</time>
      </trkpt>
      <trkpt lat="48.0172" lon="6.75672">
        <ele>510</ele>
        <time>2022-05-27T09:00:16Z</time>
      </trkpt>
      <trkpt lat="48.01713" lon="6.75655">
        <ele>508.3</ele>
        <time>2022-05-27T09:00:18Z</time>
      </trkpt>
      <trkpt lat="48.01704" lon="6.75641">
        <ele>508</ele>
        <time>2022-05-27T09:00:20Z</time>
      </trkpt>
      <trkpt lat="48.01696" lon="6.75629">
        <ele>509.7</ele>
        <time>2022-05-27T09:00:22Z</time>
      </trkpt>
      <trkpt lat="48.01689" lon="6.75615">
        <ele>511.6</ele>
        <time>2022-05-27T09:00:25Z</time>
      </trkpt>
      <trkpt lat="48.01683" lon="6.75603">
        <ele>512</ele>
        <time>2022-05-27T09:00:28Z</time>
      </trkpt>
      <trkpt lat="48.01678" lon="6.75589">
        <ele>512.7</ele>
        <time>2022-05-27T09:00:31Z</time>
      </trkpt>
      <trkpt lat="48.01673" lon="6.75574">
        <ele>513.2</ele>
        <time>2022-05-27T09:00:34Z</time>
      </trkpt>
      <trkpt lat="48.01667" lon="6.75559">
        <ele>513.5</ele>
        <time>2022-05-27T09:00:37Z</time>
      </trkpt>
      <trkpt lat="48.01663" lon="6.75542">
        <ele>513.7</ele>
        <time>2022-05-27T09:00:40Z</time>
      </trkpt>
      <trkpt lat="48.0166" lon="6.75526">
        <ele>514.1</ele>
        <time>2022-05-27T09:00:43Z</time>
      </trkpt>
      <trkpt lat="48.01657" lon="6.75511">
        <ele>514.7</ele>
        <time>2022-05-27T09:00:46Z</time>
      </trkpt>
      <trkpt lat="48.01654" lon="6.75495">
        <ele>515.1</ele>
        <time>2022-05-27T09:00:50Z</time>
      </trkpt>
      <trkpt lat="48.01651" lon="6.7548">
        <ele>515.1</ele>
        <time>2022-05-27T09:00:54Z</time>
      </trkpt>
      <trkpt lat="48.01649" lon="6.75465">
        <ele>515.4</ele>
        <time>2022-05-27T09:00:58Z</time>
      </trkpt>
      <trkpt lat="48.01646" lon="6.75451">
        <ele>515.9</ele>
        <time>2022-05-27T09:01:02Z</time>
      </trkpt>
      <trkpt lat="48.01644" lon="6.75438">
        <ele>516.7</ele>
        <time>2022-05-27T09:01:07Z</time>
      </trkpt>
      <trkpt lat="48.01642" lon="6.75423">
        <ele>517</ele>
        <time>2022-05-27T09:01:11Z</time>
      </trkpt>
      <trkpt lat="48.01638" lon="6.75409">
        <ele>518.2</ele>
        <time>2022-05-27T09:01:16Z</time>
      </trkpt>
      <trkpt lat="48.01633" lon="6.75398">
        <ele>519.3</ele>
        <time>2022-05-27T09:01:21Z</time>
      </trkpt>
      <trkpt lat="48.01625" lon="6.7539">
        <ele>519.8</ele>
        <time>2022-05-27T09:01:26Z</time>
      </trkpt>
      <trkpt lat="48.01616" lon="6.75386">
        <ele>520.1</ele>
        <time>2022-05-27T09:01:31Z</time>
      </trkpt>
      <trkpt lat="48.01605" lon="6.75383">
        <ele>519.4</ele>
        <time>2022-05-27T09:01:36Z</time>
      </trkpt>
      <trkpt lat="48.01596" lon="6.7538">
        <ele>519.9</ele>
        <time>2022-05-27T09:01:40Z</time>
      </trkpt>
      <trkpt lat="48.01585" lon="6.75376">
        <ele>519.6</ele>
        <time>2022-05-27T09:01:44Z</time>
      </trkpt>
      <trkpt lat="48.01575" lon="6.75371">
        <ele>519.2</ele>
        <time>2022-05-27T09:01:48Z</time>
      </trkpt>
      <trkpt lat="48.01571" lon="6.75358">
        <ele>518.9</ele>
        <time>2022-05-27T09:01:58Z</time>
      </trkpt>
      <trkpt lat="48.01567" lon="6.7534">
        <ele>515.8</ele>
        <time>2022-05-27T09:02:02Z</time>
      </trkpt>
      <trkpt lat="48.01556" lon="6.75327">
        <ele>515.9</ele>
        <time>2022-05-27T09:02:05Z</time>
      </trkpt>
      <trkpt lat="48.01549" lon="6.75317">
        <ele>514.2</ele>
        <time>2022-05-27T09:02:07Z</time>
      </trkpt>
      <trkpt lat="48.0154" lon="6.75308">
        <ele>513.6</ele>
        <time>2022-05-27T09:02:09Z</time>
      </trkpt>
      <trkpt lat="48.01532" lon="6.753">
        <ele>512.6</ele>
        <time>2022-05-27T09:02:11Z</time>
      </trkpt>
      <trkpt lat="48.01522" lon="6.75291">
        <ele>510.9</ele>
        <time>2022-05-27T09:02:13Z</time>
      </trkpt>
      <trkpt lat="48.01509" lon="6.75281">
        <ele>507.3</ele>
        <time>2022-05-27T09:02:15Z</time>
      </trkpt>
      <trkpt lat="48.01496" lon="6.75271">
        <ele>507.3</ele>
        <time>2022-05-27T09:02:17Z</time>
      </trkpt>
      <trkpt lat="48.01483" lon="6.75261">
        <ele>505.2</ele>
        <time>2022-05-27T09:02:19Z</time>
      </trkpt>
      <trkpt lat="48.01471" lon="6.75254">
        <ele>502.4</ele>
        <time>2022-05-27T09:02:21Z</time>
      </trkpt>
      <trkpt lat="48.01457" lon="6.75247">
        <ele>502.6</ele>
        <time>2022-05-27T09:02:23Z</time>
      </trkpt>
      <trkpt lat="48.01447" lon="6.75243">
        <ele>502.8</ele>
        <time>2022-05-27T09:02:25Z</time>
      </trkpt>
      <trkpt lat="48.01435" lon="6.75237">
        <ele>501.1</ele>
        <time>2022-05-27T09:02:28Z</time>
      </trkpt>
      <trkpt lat="48.01433" lon="6.75223">
        <ele>499.9</ele>
        <time>2022-05-27T09:02:31Z</time>
      </trkpt>
      <trkpt lat="48.01442" lon="6.75209">
        <ele>498.3</ele>
        <time>2022-05-27T09:02:34Z</time>
      </trkpt>
      <trkpt lat="48.01448" lon="6.75199">
        <ele>497.7</ele>
        <time>2022-05-27T09:02:37Z</time>
      </trkpt>
      <trkpt lat="48.01449" lon="6.75185">
        <ele>496.4</ele>
        <time>2022-05-27T09:02:40Z</time>
      </trkpt>
      <trkpt lat="48.01454" lon="6.7517">
        <ele>495</ele>
        <time>2022-05-27T09:02:44Z</time>
      </trkpt>
      <trkpt lat="48.01461" lon="6.75162">
        <ele>493.2</ele>
        <time>2022-05-27T09:02:47Z</time>
      </trkpt>
      <trkpt lat="48.0147" lon="6.7515">
        <ele>495</ele>
        <time>2022-05-27T09:02:51Z</time>
      </trkpt>
      <trkpt lat="48.01481" lon="6.75146">
        <ele>493.8</ele>
        <time>2022-05-27T09:02:54Z</time>
      </trkpt>
      <trkpt lat="48.01494" lon="6.75149">
        <ele>490.2</ele>
        <time>2022-05-27T09:02:57Z</time>
      </trkpt>
      <trkpt lat="48.01507" lon="6.75154">
        <ele>490.5</ele>
        <time>2022-05-27T09:03:00Z</time>
      </trkpt>
      <trkpt lat="48.01517" lon="6.75156">
        <ele>489</ele>
        <time>2022-05-27T09:03:02Z</time>
      </trkpt>
      <trkpt lat="48.01529" lon="6.75151">
        <ele>487.2</ele>
        <time>2022-05-27T09:03:04Z</time>
      </trkpt>
      <trkpt lat="48.01542" lon="6.75141">
        <ele>484.8</ele>
        <time>2022-05-27T09:03:06Z</time>
      </trkpt>
      <trkpt lat="48.01553" lon="6.75131">
        <ele>482.9</ele>
        <time>2022-05-27T09:03:08Z</time>
      </trkpt>
      <trkpt lat="48.01564" lon="6.7512">
        <ele>482.1</ele>
        <time>2022-05-27T09:03:10Z</time>
      </trkpt>
      <trkpt lat="48.01575" lon="6.7511">
        <ele>481.6</ele>
        <time>2022-05-27T09:03:12Z</time>
      </trkpt>
      <trkpt lat="48.01588" lon="6.75101">
        <ele>481.1</ele>
        <time>2022-05-27T09:03:14Z</time>
      </trkpt>
      <trkpt lat="48.016" lon="6.75094">
        <ele>482.7</ele>
        <time>2022-05-27T09:03:17Z</time>
      </trkpt>
      <trkpt lat="48.01611" lon="6.75092">
        <ele>481.2</ele>
        <time>2022-05-27T09:03:19Z</time>
      </trkpt>
      <trkpt lat="48.01623" lon="6.75093">
        <ele>481.2</ele>
        <time>2022-05-27T09:03:21Z</time>
      </trkpt>
      <trkpt lat="48.01633" lon="6.751">
        <ele>481.2</ele>
        <time>2022-05-27T09:03:23Z</time>
      </trkpt>
      <trkpt lat="48.01643" lon="6.75108">
        <ele>481</ele>
        <time>2022-05-27T09:03:25Z</time>
      </trkpt>
      <trkpt lat="48.01651" lon="6.75116">
        <ele>479.8</ele>
        <time>2022-05-27T09:03:27Z</time>
      </trkpt>
      <trkpt lat="48.0166" lon="6.75123">
        <ele>480.5</ele>
        <time>2022-05-27T09:03:29Z</time>
      </trkpt>
      <trkpt lat="48.01668" lon="6.7513">
        <ele>479.4</ele>
        <time>2022-05-27T09:03:31Z</time>
      </trkpt>
      <trkpt lat="48.01676" lon="6.75136">
        <ele>477.6</ele>
        <time>2022-05-27T09:03:33Z</time>
      </trkpt>
      <trkpt lat="48.01685" lon="6.75143">
        <ele>476.8</ele>
        <time>2022-05-27T09:03:35Z</time>
      </trkpt>
      <trkpt lat="48.01696" lon="6.75149">
        <ele>475.2</ele>
        <time>2022-05-27T09:03:37Z</time>
      </trkpt>
      <trkpt lat="48.01709" lon="6.75153">
        <ele>474.3</ele>
        <time>2022-05-27T09:03:39Z</time>
      </trkpt>
      <trkpt lat="48.01722" lon="6.75152">
        <ele>472.5</ele>
        <time>2022-05-27T09:03:41Z</time>
      </trkpt>
      <trkpt lat="48.01736" lon="6.75148">
        <ele>473.9</ele>
        <time>2022-05-27T09:03:43Z</time>
      </trkpt>
      <trkpt lat="48.01749" lon="6.75141">
        <ele>472.6</ele>
        <time>2022-05-27T09:03:45Z</time>
      </trkpt>
      <trkpt lat="48.01763" lon="6.75133">
        <ele>470.8</ele>
        <time>2022-05-27T09:03:47Z</time>
      </trkpt>
      <trkpt lat="48.01778" lon="6.75127">
        <ele>470.2</ele>
        <time>2022-05-27T09:03:49Z</time>
      </trkpt>
      <trkpt lat="48.01792" lon="6.75122">
        <ele>470.1</ele>
        <time>2022-05-27T09:03:51Z</time>
      </trkpt>
      <trkpt lat="48.01802" lon="6.75115">
        <ele>468.4</ele>
        <time>2022-05-27T09:03:53Z</time>
      </trkpt>
      <trkpt lat="48.01809" lon="6.751">
        <ele>466.2</ele>
        <time>2022-05-27T09:03:55Z</time>
      </trkpt>
      <trkpt lat="48.01807" lon="6.7508">
        <ele>465.3</ele>
        <time>2022-05-27T09:03:57Z</time>
      </trkpt>
      <trkpt lat="48.018" lon="6.75058">
        <ele>463.5</ele>
        <time>2022-05-27T09:03:59Z</time>
      </trkpt>
      <trkpt lat="48.01793" lon="6.75037">
        <ele>461.4</ele>
        <time>2022-05-27T09:04:01Z</time>
      </trkpt>
      <trkpt lat="48.01786" lon="6.75017">
        <ele>461.4</ele>
        <time>2022-05-27T09:04:03Z</time>
      </trkpt>
      <trkpt lat="48.01783" lon="6.75001">
        <ele>460.9</ele>
        <time>2022-05-27T09:04:05Z</time>
      </trkpt>
      <trkpt lat="48.01786" lon="6.74986">
        <ele>460</ele>
        <time>2022-05-27T09:04:07Z</time>
      </trkpt>
      <trkpt lat="48.01794" lon="6.74974">
        <ele>459.2</ele>
        <time>2022-05-27T09:04:09Z</time>
      </trkpt>
      <trkpt lat="48.01801" lon="6.74964">
        <ele>458.9</ele>
        <time>2022-05-27T09:04:11Z</time>
      </trkpt>
      <trkpt lat="48.0181" lon="6.7495">
        <ele>458</ele>
        <time>2022-05-27T09:04:14Z</time>
      </trkpt>
      <trkpt lat="48.01817" lon="6.74939">
        <ele>458</ele>
        <time>2022-05-27T09:04:17Z</time>
      </trkpt>
      <trkpt lat="48.01825" lon="6.7493">
        <ele>458.2</ele>
        <time>2022-05-27T09:04:20Z</time>
      </trkpt>
      <trkpt lat="48.01834" lon="6.74921">
        <ele>457.7</ele>
        <time>2022-05-27T09:04:23Z</time>
      </trkpt>
      <trkpt lat="48.01842" lon="6.7491">
        <ele>458.4</ele>
        <time>2022-05-27T09:04:26Z</time>
      </trkpt>
      <trkpt lat="48.0185" lon="6.749">
        <ele>458.3</ele>
        <time>2022-05-27T09:04:29Z</time>
      </trkpt>
      <trkpt lat="48.01858" lon="6.74889">
        <ele>458.6</ele>
        <time>2022-05-27T09:04:32Z</time>
      </trkpt>
      <trkpt lat="48.01866" lon="6.74879">
        <ele>458.9</ele>
        <time>2022-05-27T09:04:35Z</time>
      </trkpt>
      <trkpt lat="48.01874" lon="6.74869">
        <ele>458.3</ele>
        <time>2022-05-27T09:04:38Z</time>
      </trkpt>
      <trkpt lat="48.01881" lon="6.7486">
        <ele>458.7</ele>
        <time>2022-05-27T09:04:41Z</time>
      </trkpt>
      <trkpt lat="48.01889" lon="6.7485">
        <ele>458.3</ele>
        <time>2022-05-27T09:04:44Z</time>
      </trkpt>
      <trkpt lat="48.01895" lon="6.74841">
        <ele>458.6</ele>
        <time>2022-05-27T09:04:47Z</time>
      </trkpt>
      <trkpt lat="48.01903" lon="6.74831">
        <ele>458.7</ele>
        <time>2022-05-27T09:04:50Z</time>
      </trkpt>
      <trkpt lat="48.0191" lon="6.7482">
        <ele>459</ele>
        <time>2022-05-27T09:04:53Z</time>
      </trkpt>
      <trkpt lat="48.01918" lon="6.7481">
        <ele>459.1</ele>
        <time>2022-05-27T09:04:56Z</time>
      </trkpt>
      <trkpt lat="48.01926" lon="6.748">
        <ele>459.2</ele>
        <time>2022-05-27T09:04:59Z</time>
      </trkpt>
      <trkpt lat="48.01934" lon="6.74791">
        <ele>460</ele>
        <time>2022-05-27T09:05:02Z</time>
      </trkpt>
      <trkpt lat="48.01941" lon="6.74781">
        <ele>460.4</ele>
        <time>2022-05-27T09:05:05Z</time>
      </trkpt>
      <trkpt lat="48.0195" lon="6.7477">
        <ele>461</ele>
        <time>2022-05-27T09:05:09Z</time>
      </trkpt>
      <trkpt lat="48.01958" lon="6.74762">
        <ele>461.6</ele>
        <time>2022-05-27T09:05:13Z</time>
      </trkpt>
      <trkpt lat="48.01964" lon="6.74751">
        <ele>463</ele>
        <time>2022-05-27T09:05:20Z</time>
      </trkpt>
      <trkpt lat="48.01964" lon="6.74747">
        <ele>462.9</ele>
        <time>2022-05-27T09:05:24Z</time>
      </trkpt>
      <trkpt lat="48.01963" lon="6.74747">
        <ele>462.8</ele>
        <time>2022-05-27T09:06:03Z</time>
      </trkpt>
      <trkpt lat="48.01959" lon="6.74749">
        <ele>462.3</ele>
        <time>2022-05-27T09:06:48Z</time>
      </trkpt>
      <trkpt lat="48.01959" lon="6.74749">
        <ele>461.5</ele>
        <time>2022-05-27T09:08:31Z</time>
      </trkpt>
      <trkpt lat="48.01959" lon="6.7475">
        <ele>461.9</ele>
        <time>2022-05-27T09:14:40Z</time>
      </trkpt>
      <trkpt lat="48.0196" lon="6.7475">
        <ele>461.4</ele>
        <time>2022-05-27T09:14:44Z</time>
      </trkpt>
      <trkpt lat="48.01959" lon="6.7475">
        <ele>461.6</ele>
        <time>2022-05-27T09:14:53Z</time>
      </trkpt>
      <trkpt lat="48.01959" lon="6.74751">
        <ele>461.7</ele>
        <time>2022-05-27T09:14:56Z</time>
      </trkpt>
      <trkpt lat="48.01968" lon="6.74746">
        <ele>462.7</ele>
        <time>2022-05-27T09:15:40Z</time>
      </trkpt>
      <trkpt lat="48.01971" lon="6.74732">
        <ele>463.7</ele>
        <time>2022-05-27T09:15:49Z</time>
      </trkpt>
      <trkpt lat="48.01972" lon="6.74719">
        <ele>464.5</ele>
        <time>2022-05-27T09:15:57Z</time>
      </trkpt>
      <trkpt lat="48.01968" lon="6.74705">
        <ele>465.1</ele>
        <time>2022-05-27T09:16:04Z</time>
      </trkpt>
      <trkpt lat="48.01964" lon="6.74691">
        <ele>466.1</ele>
        <time>2022-05-27T09:16:11Z</time>
      </trkpt>
      <trkpt lat="48.01962" lon="6.74677">
        <ele>467.4</ele>
        <time>2022-05-27T09:16:18Z</time>
      </trkpt>
      <trkpt lat="48.0196" lon="6.74662">
        <ele>468.2</ele>
        <time>2022-05-27T09:16:25Z</time>
      </trkpt>
      <trkpt lat="48.01958" lon="6.74647">
        <ele>469.1</ele>
        <time>2022-05-27T09:16:32Z</time>
      </trkpt>
      <trkpt lat="48.01957" lon="6.74632">
        <ele>470.3</ele>
        <time>2022-05-27T09:16:39Z</time>
      </trkpt>
      <trkpt lat="48.01955" lon="6.74619">
        <ele>471.5</ele>
        <time>2022-05-27T09:16:45Z</time>
      </trkpt>
      <trkpt lat="48.01953" lon="6.74605">
        <ele>472.2</ele>
        <time>2022-05-27T09:16:51Z</time>
      </trkpt>
      <trkpt lat="48.01951" lon="6.74591">
        <ele>473.2</ele>
        <time>2022-05-27T09:16:57Z</time>
      </trkpt>
      <trkpt lat="48.01949" lon="6.74576">
        <ele>473.9</ele>
        <time>2022-05-27T09:17:03Z</time>
      </trkpt>
      <trkpt lat="48.01947" lon="6.74562">
        <ele>474.5</ele>
        <time>2022-05-27T09:17:09Z</time>
      </trkpt>
      <trkpt lat="48.01945" lon="6.74548">
        <ele>475.5</ele>
        <time>2022-05-27T09:17:14Z</time>
      </trkpt>
      <trkpt lat="48.0194" lon="6.74563">
        <ele>472.2</ele>
        <time>2022-05-27T09:17:22Z</time>
      </trkpt>
      <trkpt lat="48.01939" lon="6.7458">
        <ele>471.3</ele>
        <time>2022-05-27T09:17:25Z</time>
      </trkpt>
      <trkpt lat="48.01934" lon="6.74593">
        <ele>469.2</ele>
        <time>2022-05-27T09:17:29Z</time>
      </trkpt>
      <trkpt lat="48.01925" lon="6.74583">
        <ele>468.3</ele>
        <time>2022-05-27T09:17:32Z</time>
      </trkpt>
      <trkpt lat="48.01918" lon="6.7457">
        <ele>468.3</ele>
        <time>2022-05-27T09:17:34Z</time>
      </trkpt>
      <trkpt lat="48.0191" lon="6.74557">
        <ele>465.9</ele>
        <time>2022-05-27T09:17:36Z</time>
      </trkpt>
      <trkpt lat="48.01902" lon="6.74544">
        <ele>464.1</ele>
        <time>2022-05-27T09:17:38Z</time>
      </trkpt>
      <trkpt lat="48.01894" lon="6.74532">
        <ele>464.3</ele>
        <time>2022-05-27T09:17:40Z</time>
      </trkpt>
      <trkpt lat="48.01886" lon="6.74523">
        <ele>459.2</ele>
        <time>2022-05-27T09:17:42Z</time>
      </trkpt>
      <trkpt lat="48.01879" lon="6.74509">
        <ele>458.5</ele>
        <time>2022-05-27T09:17:44Z</time>
      </trkpt>
      <trkpt lat="48.01872" lon="6.74496">
        <ele>459.7</ele>
        <time>2022-05-27T09:17:46Z</time>
      </trkpt>
      <trkpt lat="48.01864" lon="6.74485">
        <ele>456.5</ele>
        <time>2022-05-27T09:17:48Z</time>
      </trkpt>
      <trkpt lat="48.01856" lon="6.74475">
        <ele>456</ele>
        <time>2022-05-27T09:17:50Z</time>
      </trkpt>
      <trkpt lat="48.0185" lon="6.74464">
        <ele>454.9</ele>
        <time>2022-05-27T09:17:52Z</time>
      </trkpt>
      <trkpt lat="48.01843" lon="6.74452">
        <ele>455.3</ele>
        <time>2022-05-27T09:17:54Z</time>
      </trkpt>
      <trkpt lat="48.01838" lon="6.7444">
        <ele>454.8</ele>
        <time>2022-05-27T09:17:56Z</time>
      </trkpt>
      <trkpt lat="48.01837" lon="6.74426">
        <ele>453.8</ele>
        <time>2022-05-27T09:17:58Z</time>
      </trkpt>
      <trkpt lat="48.01837" lon="6.7441">
        <ele>454.8</ele>
        <time>2022-05-27T09:18:01Z</time>
      </trkpt>
      <trkpt lat="48.01837" lon="6.74394">
        <ele>455.4</ele>
        <time>2022-05-27T09:18:05Z</time>
      </trkpt>
      <trkpt lat="48.01837" lon="6.74378">
        <ele>456.2</ele>
        <time>2022-05-27T09:18:09Z</time>
      </trkpt>
      <trkpt lat="48.01837" lon="6.74362">
        <ele>457.6</ele>
        <time>2022-05-27T09:18:14Z</time>
      </trkpt>
      <trkpt lat="48.01836" lon="6.74348">
        <ele>458.7</ele>
        <time>2022-05-27T09:18:19Z</time>
      </trkpt>
      <trkpt lat="48.01836" lon="6.74333">
        <ele>460.1</ele>
        <time>2022-05-27T09:18:25Z</time>
      </trkpt>
      <trkpt lat="48.01833" lon="6.74317">
        <ele>461.2</ele>
        <time>2022-05-27T09:18:31Z</time>
      </trkpt>
      <trkpt lat="48.01831" lon="6.74301">
        <ele>461.2</ele>
        <time>2022-05-27T09:18:37Z</time>
      </trkpt>
      <trkpt lat="48.01829" lon="6.74286">
        <ele>462.8</ele>
        <time>2022-05-27T09:18:42Z</time>
      </trkpt>
      <trkpt lat="48.01825" lon="6.74273">
        <ele>463</ele>
        <time>2022-05-27T09:18:47Z</time>
      </trkpt>
      <trkpt lat="48.01821" lon="6.74257">
        <ele>462.9</ele>
        <time>2022-05-27T09:18:52Z</time>
      </trkpt>
      <trkpt lat="48.01816" lon="6.74243">
        <ele>462.9</ele>
        <time>2022-05-27T09:18:56Z</time>
      </trkpt>
      <trkpt lat="48.01811" lon="6.74227">
        <ele>462</ele>
        <time>2022-05-27T09:19:00Z</time>
      </trkpt>
      <trkpt lat="48.01806" lon="6.74213">
        <ele>462.5</ele>
        <time>2022-05-27T09:19:03Z</time>
      </trkpt>
      <trkpt lat="48.01801" lon="6.74198">
        <ele>462.9</ele>
        <time>2022-05-27T09:19:06Z</time>
      </trkpt>
      <trkpt lat="48.01796" lon="6.74183">
        <ele>462.9</ele>
        <time>2022-05-27T09:19:09Z</time>
      </trkpt>
      <trkpt lat="48.01791" lon="6.74166">
        <ele>461.2</ele>
        <time>2022-05-27T09:19:12Z</time>
      </trkpt>
      <trkpt lat="48.01786" lon="6.74149">
        <ele>460.6</ele>
        <time>2022-05-27T09:19:15Z</time>
      </trkpt>
      <trkpt lat="48.01782" lon="6.74131">
        <ele>462.4</ele>
        <time>2022-05-27T09:19:18Z</time>
      </trkpt>
      <trkpt lat="48.01778" lon="6.74116">
        <ele>461.6</ele>
        <time>2022-05-27T09:19:21Z</time>
      </trkpt>
      <trkpt lat="48.01777" lon="6.741">
        <ele>462.9</ele>
        <time>2022-05-27T09:19:24Z</time>
      </trkpt>
      <trkpt lat="48.01777" lon="6.74086">
        <ele>461.4</ele>
        <time>2022-05-27T09:19:28Z</time>
      </trkpt>
      <trkpt lat="48.01777" lon="6.74085">
        <ele>461.5</ele>
        <time>2022-05-27T09:19:31Z</time>
      </trkpt>
      <trkpt lat="48.01777" lon="6.74085">
        <ele>461.4</ele>
        <time>2022-05-27T09:19:59Z</time>
      </trkpt>
      <trkpt lat="48.01775" lon="6.74068">
        <ele>459.3</ele>
        <time>2022-05-27T09:20:04Z</time>
      </trkpt>
      <trkpt lat="48.01773" lon="6.74055">
        <ele>457.1</ele>
        <time>2022-05-27T09:20:07Z</time>
      </trkpt>
      <trkpt lat="48.01768" lon="6.74038">
        <ele>454.9</ele>
        <time>2022-05-27T09:20:10Z</time>
      </trkpt>
      <trkpt lat="48.01763" lon="6.74021">
        <ele>456.4</ele>
        <time>2022-05-27T09:20:12Z</time>
      </trkpt>
      <trkpt lat="48.01759" lon="6.74002">
        <ele>456.1</ele>
        <time>2022-05-27T09:20:14Z</time>
      </trkpt>
      <trkpt lat="48.01756" lon="6.73984">
        <ele>451</ele>
        <time>2022-05-27T09:20:16Z</time>
      </trkpt>
      <trkpt lat="48.0175" lon="6.73961">
        <ele>451.2</ele>
        <time>2022-05-27T09:20:18Z</time>
      </trkpt>
      <trkpt lat="48.01745" lon="6.73948">
        <ele>450.6</ele>
        <time>2022-05-27T09:20:19Z</time>
      </trkpt>
      <trkpt lat="48.01741" lon="6.73936">
        <ele>449.8</ele>
        <time>2022-05-27T09:20:20Z</time>
      </trkpt>
      <trkpt lat="48.01735" lon="6.73913">
        <ele>451.4</ele>
        <time>2022-05-27T09:20:22Z</time>
      </trkpt>
      <trkpt lat="48.01733" lon="6.73892">
        <ele>452</ele>
        <time>2022-05-27T09:20:24Z</time>
      </trkpt>
      <trkpt lat="48.01729" lon="6.73871">
        <ele>450.8</ele>
        <time>2022-05-27T09:20:26Z</time>
      </trkpt>
      <trkpt lat="48.01727" lon="6.73852">
        <ele>448.9</ele>
        <time>2022-05-27T09:20:28Z</time>
      </trkpt>
      <trkpt lat="48.01726" lon="6.73833">
        <ele>450.5</ele>
        <time>2022-05-27T09:20:30Z</time>
      </trkpt>
      <trkpt lat="48.01726" lon="6.73814">
        <ele>450</ele>
        <time>2022-05-27T09:20:32Z</time>
      </trkpt>
      <trkpt lat="48.01726" lon="6.73796">
        <ele>450.9</ele>
        <time>2022-05-27T09:20:34Z</time>
      </trkpt>
      <trkpt lat="48.01725" lon="6.73779">
        <ele>449.8</ele>
        <time>2022-05-27T09:20:36Z</time>
      </trkpt>
      <trkpt lat="48.01721" lon="6.7376">
        <ele>447</ele>
        <time>2022-05-27T09:20:38Z</time>
      </trkpt>
      <trkpt lat="48.01718" lon="6.7374">
        <ele>446.5</ele>
        <time>2022-05-27T09:20:40Z</time>
      </trkpt>
      <trkpt lat="48.01716" lon="6.7372">
        <ele>446.1</ele>
        <time>2022-05-27T09:20:42Z</time>
      </trkpt>
      <trkpt lat="48.01715" lon="6.73698">
        <ele>444.6</ele>
        <time>2022-05-27T09:20:44Z</time>
      </trkpt>
      <trkpt lat="48.01712" lon="6.73676">
        <ele>445</ele>
        <time>2022-05-27T09:20:46Z</time>
      </trkpt>
      <trkpt lat="48.01709" lon="6.73653">
        <ele>445.9</ele>
        <time>2022-05-27T09:20:48Z</time>
      </trkpt>
      <trkpt lat="48.01708" lon="6.73632">
        <ele>445</ele>
        <time>2022-05-27T09:20:50Z</time>
      </trkpt>
      <trkpt lat="48.01707" lon="6.73612">
        <ele>447</ele>
        <time>2022-05-27T09:20:52Z</time>
      </trkpt>
      <trkpt lat="48.01706" lon="6.73592">
        <ele>446</ele>
        <time>2022-05-27T09:20:54Z</time>
      </trkpt>
      <trkpt lat="48.01703" lon="6.73572">
        <ele>444.3</ele>
        <time>2022-05-27T09:20:56Z</time>
      </trkpt>
      <trkpt lat="48.01702" lon="6.73553">
        <ele>444.2</ele>
        <time>2022-05-27T09:20:58Z</time>
      </trkpt>
      <trkpt lat="48.01701" lon="6.73536">
        <ele>443.6</ele>
        <time>2022-05-27T09:21:00Z</time>
      </trkpt>
      <trkpt lat="48.01699" lon="6.7352">
        <ele>443.7</ele>
        <time>2022-05-27T09:21:02Z</time>
      </trkpt>
      <trkpt lat="48.01697" lon="6.73504">
        <ele>443.3</ele>
        <time>2022-05-27T09:21:04Z</time>
      </trkpt>
      <trkpt lat="48.01695" lon="6.73488">
        <ele>443.8</ele>
        <time>2022-05-27T09:21:06Z</time>
      </trkpt>
      <trkpt lat="48.01692" lon="6.73472">
        <ele>443.4</ele>
        <time>2022-05-27T09:21:08Z</time>
      </trkpt>
      <trkpt lat="48.01691" lon="6.73455">
        <ele>442.1</ele>
        <time>2022-05-27T09:21:10Z</time>
      </trkpt>
      <trkpt lat="48.01691" lon="6.73437">
        <ele>441.9</ele>
        <time>2022-05-27T09:21:12Z</time>
      </trkpt>
      <trkpt lat="48.0169" lon="6.7342">
        <ele>442</ele>
        <time>2022-05-27T09:21:14Z</time>
      </trkpt>
      <trkpt lat="48.01688" lon="6.73405">
        <ele>443.2</ele>
        <time>2022-05-27T09:21:16Z</time>
      </trkpt>
      <trkpt lat="48.01685" lon="6.7339">
        <ele>443.3</ele>
        <time>2022-05-27T09:21:18Z</time>
      </trkpt>
      <trkpt lat="48.01683" lon="6.73375">
        <ele>443</ele>
        <time>2022-05-27T09:21:20Z</time>
      </trkpt>
      <trkpt lat="48.01681" lon="6.7336">
        <ele>442.9</ele>
        <time>2022-05-27T09:21:22Z</time>
      </trkpt>
      <trkpt lat="48.01681" lon="6.73346">
        <ele>443.1</ele>
        <time>2022-05-27T09:21:24Z</time>
      </trkpt>
      <trkpt lat="48.0168" lon="6.73331">
        <ele>443.3</ele>
        <time>2022-05-27T09:21:26Z</time>
      </trkpt>
      <trkpt lat="48.01678" lon="6.73315">
        <ele>442</ele>
        <time>2022-05-27T09:21:28Z</time>
      </trkpt>
      <trkpt lat="48.01678" lon="6.733">
        <ele>441.3</ele>
        <time>2022-05-27T09:21:30Z</time>
      </trkpt>
      <trkpt lat="48.01677" lon="6.73284">
        <ele>443</ele>
        <time>2022-05-27T09:21:32Z</time>
      </trkpt>
      <trkpt lat="48.01677" lon="6.73268">
        <ele>442.8</ele>
        <time>2022-05-27T09:21:34Z</time>
      </trkpt>
      <trkpt lat="48.01676" lon="6.73253">
        <ele>442.3</ele>
        <time>2022-05-27T09:21:36Z</time>
      </trkpt>
      <trkpt lat="48.01676" lon="6.73239">
        <ele>442</ele>
        <time>2022-05-27T09:21:38Z</time>
      </trkpt>
      <trkpt lat="48.01675" lon="6.73224">
        <ele>441.7</ele>
        <time>2022-05-27T09:21:40Z</time>
      </trkpt>
      <trkpt lat="48.01674" lon="6.7321">
        <ele>442.6</ele>
        <time>2022-05-27T09:21:42Z</time>
      </trkpt>
      <trkpt lat="48.01673" lon="6.73196">
        <ele>442.3</ele>
        <time>2022-05-27T09:21:44Z</time>
      </trkpt>
      <trkpt lat="48.01672" lon="6.73181">
        <ele>442</ele>
        <time>2022-05-27T09:21:46Z</time>
      </trkpt>
      <trkpt lat="48.01671" lon="6.73166">
        <ele>441.9</ele>
        <time>2022-05-27T09:21:48Z</time>
      </trkpt>
      <trkpt lat="48.01671" lon="6.7315">
        <ele>442.2</ele>
        <time>2022-05-27T09:21:50Z</time>
      </trkpt>
      <trkpt lat="48.01672" lon="6.73134">
        <ele>441.5</ele>
        <time>2022-05-27T09:21:52Z</time>
      </trkpt>
      <trkpt lat="48.01673" lon="6.73118">
        <ele>441.4</ele>
        <time>2022-05-27T09:21:54Z</time>
      </trkpt>
      <trkpt lat="48.01673" lon="6.73101">
        <ele>440.6</ele>
        <time>2022-05-27T09:21:56Z</time>
      </trkpt>
      <trkpt lat="48.01673" lon="6.73084">
        <ele>441.1</ele>
        <time>2022-05-27T09:21:58Z</time>
      </trkpt>
      <trkpt lat="48.01673" lon="6.73068">
        <ele>441</ele>
        <time>2022-05-27T09:22:00Z</time>
      </trkpt>
      <trkpt lat="48.01673" lon="6.73051">
        <ele>439.8</ele>
        <time>2022-05-27T09:22:02Z</time>
      </trkpt>
      <trkpt lat="48.01674" lon="6.73033">
        <ele>439.1</ele>
        <time>2022-05-27T09:22:04Z</time>
      </trkpt>
      <trkpt lat="48.01678" lon="6.73016">
        <ele>438</ele>
        <time>2022-05-27T09:22:06Z</time>
      </trkpt>
      <trkpt lat="48.01683" lon="6.73001">
        <ele>438.9</ele>
        <time>2022-05-27T09:22:08Z</time>
      </trkpt>
      <trkpt lat="48.01687" lon="6.72988">
        <ele>438.6</ele>
        <time>2022-05-27T09:22:10Z</time>
      </trkpt>
      <trkpt lat="48.01691" lon="6.72973">
        <ele>441.9</ele>
        <time>2022-05-27T09:22:13Z</time>
      </trkpt>
      <trkpt lat="48.01692" lon="6.72958">
        <ele>442.2</ele>
        <time>2022-05-27T09:22:17Z</time>
      </trkpt>
      <trkpt lat="48.01695" lon="6.72942">
        <ele>443.5</ele>
        <time>2022-05-27T09:22:22Z</time>
      </trkpt>
      <trkpt lat="48.01699" lon="6.72929">
        <ele>444</ele>
        <time>2022-05-27T09:22:26Z</time>
      </trkpt>
      <trkpt lat="48.01703" lon="6.72916">
        <ele>445.3</ele>
        <time>2022-05-27T09:22:30Z</time>
      </trkpt>
      <trkpt lat="48.01707" lon="6.72902">
        <ele>445</ele>
        <time>2022-05-27T09:22:34Z</time>
      </trkpt>
      <trkpt lat="48.01711" lon="6.72889">
        <ele>446.2</ele>
        <time>2022-05-27T09:22:37Z</time>
      </trkpt>
      <trkpt lat="48.01715" lon="6.72874">
        <ele>446.3</ele>
        <time>2022-05-27T09:22:40Z</time>
      </trkpt>
      <trkpt lat="48.01719" lon="6.72858">
        <ele>445.7</ele>
        <time>2022-05-27T09:22:43Z</time>
      </trkpt>
      <trkpt lat="48.01723" lon="6.72843">
        <ele>445.8</ele>
        <time>2022-05-27T09:22:46Z</time>
      </trkpt>
      <trkpt lat="48.01728" lon="6.72828">
        <ele>446.2</ele>
        <time>2022-05-27T09:22:49Z</time>
      </trkpt>
      <trkpt lat="48.01733" lon="6.72812">
        <ele>444</ele>
        <time>2022-05-27T09:22:52Z</time>
      </trkpt>
      <trkpt lat="48.01736" lon="6.72793">
        <ele>443.3</ele>
        <time>2022-05-27T09:22:55Z</time>
      </trkpt>
      <trkpt lat="48.01738" lon="6.72775">
        <ele>442.8</ele>
        <time>2022-05-27T09:22:58Z</time>
      </trkpt>
      <trkpt lat="48.01745" lon="6.7276">
        <ele>443.3</ele>
        <time>2022-05-27T09:23:01Z</time>
      </trkpt>
      <trkpt lat="48.01755" lon="6.72747">
        <ele>444.8</ele>
        <time>2022-05-27T09:23:04Z</time>
      </trkpt>
      <trkpt lat="48.01763" lon="6.72734">
        <ele>442.7</ele>
        <time>2022-05-27T09:23:07Z</time>
      </trkpt>
      <trkpt lat="48.01771" lon="6.7272">
        <ele>443.9</ele>
        <time>2022-05-27T09:23:10Z</time>
      </trkpt>
      <trkpt lat="48.01779" lon="6.72706">
        <ele>443.9</ele>
        <time>2022-05-27T09:23:13Z</time>
      </trkpt>
      <trkpt lat="48.01786" lon="6.72691">
        <ele>443.9</ele>
        <time>2022-05-27T09:23:16Z</time>
      </trkpt>
      <trkpt lat="48.01794" lon="6.72677">
        <ele>446.3</ele>
        <time>2022-05-27T09:23:19Z</time>
      </trkpt>
      <trkpt lat="48.01802" lon="6.72666">
        <ele>447</ele>
        <time>2022-05-27T09:23:22Z</time>
      </trkpt>
      <trkpt lat="48.0181" lon="6.72657">
        <ele>447.1</ele>
        <time>2022-05-27T09:23:25Z</time>
      </trkpt>
      <trkpt lat="48.01818" lon="6.7265">
        <ele>448.4</ele>
        <time>2022-05-27T09:23:28Z</time>
      </trkpt>
      <trkpt lat="48.01826" lon="6.7264">
        <ele>448.3</ele>
        <time>2022-05-27T09:23:31Z</time>
      </trkpt>
      <trkpt lat="48.01833" lon="6.7263">
        <ele>448.7</ele>
        <time>2022-05-27T09:23:34Z</time>
      </trkpt>
      <trkpt lat="48.01839" lon="6.72618">
        <ele>448.7</ele>
        <time>2022-05-27T09:23:37Z</time>
      </trkpt>
      <trkpt lat="48.01845" lon="6.72605">
        <ele>446.8</ele>
        <time>2022-05-27T09:23:40Z</time>
      </trkpt>
      <trkpt lat="48.01849" lon="6.72589">
        <ele>444</ele>
        <time>2022-05-27T09:23:43Z</time>
      </trkpt>
      <trkpt lat="48.01851" lon="6.72567">
        <ele>442.9</ele>
        <time>2022-05-27T09:23:46Z</time>
      </trkpt>
      <trkpt lat="48.01852" lon="6.72544">
        <ele>441</ele>
        <time>2022-05-27T09:23:48Z</time>
      </trkpt>
      <trkpt lat="48.01852" lon="6.7253">
        <ele>441.5</ele>
        <time>2022-05-27T09:23:49Z</time>
      </trkpt>
      <trkpt lat="48.01853" lon="6.72505">
        <ele>440.4</ele>
        <time>2022-05-27T09:23:51Z</time>
      </trkpt>
      <trkpt lat="48.01856" lon="6.72485">
        <ele>442.3</ele>
        <time>2022-05-27T09:23:53Z</time>
      </trkpt>
      <trkpt lat="48.01859" lon="6.72468">
        <ele>443.3</ele>
        <time>2022-05-27T09:23:55Z</time>
      </trkpt>
      <trkpt lat="48.0186" lon="6.72452">
        <ele>440.7</ele>
        <time>2022-05-27T09:23:57Z</time>
      </trkpt>
      <trkpt lat="48.01862" lon="6.72435">
        <ele>440</ele>
        <time>2022-05-27T09:24:00Z</time>
      </trkpt>
      <trkpt lat="48.01865" lon="6.72417">
        <ele>441.3</ele>
        <time>2022-05-27T09:24:03Z</time>
      </trkpt>
      <trkpt lat="48.01866" lon="6.72403">
        <ele>442.7</ele>
        <time>2022-05-27T09:24:05Z</time>
      </trkpt>
      <trkpt lat="48.01867" lon="6.72387">
        <ele>439.7</ele>
        <time>2022-05-27T09:24:07Z</time>
      </trkpt>
      <trkpt lat="48.0187" lon="6.7237">
        <ele>441.7</ele>
        <time>2022-05-27T09:24:09Z</time>
      </trkpt>
      <trkpt lat="48.01872" lon="6.72354">
        <ele>442</ele>
        <time>2022-05-27T09:24:11Z</time>
      </trkpt>
      <trkpt lat="48.01874" lon="6.72339">
        <ele>439.8</ele>
        <time>2022-05-27T09:24:13Z</time>
      </trkpt>
      <trkpt lat="48.01876" lon="6.72325">
        <ele>440</ele>
        <time>2022-05-27T09:24:15Z</time>
      </trkpt>
      <trkpt lat="48.0188" lon="6.72307">
        <ele>438.6</ele>
        <time>2022-05-27T09:24:18Z</time>
      </trkpt>
      <trkpt lat="48.01883" lon="6.72288">
        <ele>439.4</ele>
        <time>2022-05-27T09:24:21Z</time>
      </trkpt>
      <trkpt lat="48.01883" lon="6.7227">
        <ele>439</ele>
        <time>2022-05-27T09:24:24Z</time>
      </trkpt>
      <trkpt lat="48.01885" lon="6.72253">
        <ele>437.3</ele>
        <time>2022-05-27T09:24:27Z</time>
      </trkpt>
      <trkpt lat="48.01886" lon="6.72239">
        <ele>436.1</ele>
        <time>2022-05-27T09:24:29Z</time>
      </trkpt>
      <trkpt lat="48.01886" lon="6.72224">
        <ele>440.6</ele>
        <time>2022-05-27T09:24:31Z</time>
      </trkpt>
      <trkpt lat="48.01888" lon="6.72211">
        <ele>440.8</ele>
        <time>2022-05-27T09:24:33Z</time>
      </trkpt>
      <trkpt lat="48.0189" lon="6.72192">
        <ele>438.6</ele>
        <time>2022-05-27T09:24:36Z</time>
      </trkpt>
      <trkpt lat="48.01892" lon="6.72179">
        <ele>438.6</ele>
        <time>2022-05-27T09:24:38Z</time>
      </trkpt>
      <trkpt lat="48.01893" lon="6.72165">
        <ele>437.8</ele>
        <time>2022-05-27T09:24:40Z</time>
      </trkpt>
      <trkpt lat="48.01894" lon="6.72146">
        <ele>437.5</ele>
        <time>2022-05-27T09:24:43Z</time>
      </trkpt>
      <trkpt lat="48.01895" lon="6.72131">
        <ele>436.8</ele>
        <time>2022-05-27T09:24:46Z</time>
      </trkpt>
      <trkpt lat="48.01894" lon="6.72114">
        <ele>437.9</ele>
        <time>2022-05-27T09:24:51Z</time>
      </trkpt>
      <trkpt lat="48.01895" lon="6.72097">
        <ele>438.4</ele>
        <time>2022-05-27T09:24:54Z</time>
      </trkpt>
      <trkpt lat="48.019" lon="6.7208">
        <ele>437</ele>
        <time>2022-05-27T09:24:57Z</time>
      </trkpt>
      <trkpt lat="48.01903" lon="6.72065">
        <ele>437.9</ele>
        <time>2022-05-27T09:25:00Z</time>
      </trkpt>
      <trkpt lat="48.01904" lon="6.72048">
        <ele>437.8</ele>
        <time>2022-05-27T09:25:03Z</time>
      </trkpt>
      <trkpt lat="48.01906" lon="6.7203">
        <ele>437.9</ele>
        <time>2022-05-27T09:25:06Z</time>
      </trkpt>
      <trkpt lat="48.01909" lon="6.72014">
        <ele>437.9</ele>
        <time>2022-05-27T09:25:09Z</time>
      </trkpt>
      <trkpt lat="48.01912" lon="6.71997">
        <ele>438.2</ele>
        <time>2022-05-27T09:25:12Z</time>
      </trkpt>
      <trkpt lat="48.01912" lon="6.71979">
        <ele>437.8</ele>
        <time>2022-05-27T09:25:15Z</time>
      </trkpt>
      <trkpt lat="48.01911" lon="6.7196">
        <ele>438.7</ele>
        <time>2022-05-27T09:25:18Z</time>
      </trkpt>
      <trkpt lat="48.01911" lon="6.71946">
        <ele>437.4</ele>
        <time>2022-05-27T09:25:20Z</time>
      </trkpt>
      <trkpt lat="48.01911" lon="6.71931">
        <ele>437.5</ele>
        <time>2022-05-27T09:25:22Z</time>
      </trkpt>
      <trkpt lat="48.01912" lon="6.71918">
        <ele>437.2</ele>
        <time>2022-05-27T09:25:24Z</time>
      </trkpt>
      <trkpt lat="48.01913" lon="6.71899">
        <ele>437.7</ele>
        <time>2022-05-27T09:25:27Z</time>
      </trkpt>
      <trkpt lat="48.01915" lon="6.71883">
        <ele>438.4</ele>
        <time>2022-05-27T09:25:30Z</time>
      </trkpt>
      <trkpt lat="48.01919" lon="6.71866">
        <ele>438.2</ele>
        <time>2022-05-27T09:25:33Z</time>
      </trkpt>
      <trkpt lat="48.01923" lon="6.71852">
        <ele>438.1</ele>
        <time>2022-05-27T09:25:35Z</time>
      </trkpt>
      <trkpt lat="48.01926" lon="6.71838">
        <ele>436.4</ele>
        <time>2022-05-27T09:25:37Z</time>
      </trkpt>
      <trkpt lat="48.0193" lon="6.71825">
        <ele>436.1</ele>
        <time>2022-05-27T09:25:39Z</time>
      </trkpt>
      <trkpt lat="48.01935" lon="6.71813">
        <ele>436.7</ele>
        <time>2022-05-27T09:25:41Z</time>
      </trkpt>
      <trkpt lat="48.01942" lon="6.71801">
        <ele>437.4</ele>
        <time>2022-05-27T09:25:43Z</time>
      </trkpt>
      <trkpt lat="48.01948" lon="6.7179">
        <ele>435.9</ele>
        <time>2022-05-27T09:25:45Z</time>
      </trkpt>
      <trkpt lat="48.01958" lon="6.71779">
        <ele>435</ele>
        <time>2022-05-27T09:25:48Z</time>
      </trkpt>
      <trkpt lat="48.01968" lon="6.71769">
        <ele>436.2</ele>
        <time>2022-05-27T09:25:52Z</time>
      </trkpt>
      <trkpt lat="48.01975" lon="6.71754">
        <ele>433.5</ele>
        <time>2022-05-27T09:25:55Z</time>
      </trkpt>
      <trkpt lat="48.01981" lon="6.71737">
        <ele>431.9</ele>
        <time>2022-05-27T09:25:58Z</time>
      </trkpt>
      <trkpt lat="48.01986" lon="6.71723">
        <ele>435.1</ele>
        <time>2022-05-27T09:26:01Z</time>
      </trkpt>
      <trkpt lat="48.01991" lon="6.71709">
        <ele>435.2</ele>
        <time>2022-05-27T09:26:04Z</time>
      </trkpt>
      <trkpt lat="48.01995" lon="6.71694">
        <ele>435.5</ele>
        <time>2022-05-27T09:26:07Z</time>
      </trkpt>
      <trkpt lat="48.01998" lon="6.71676">
        <ele>432.6</ele>
        <time>2022-05-27T09:26:10Z</time>
      </trkpt>
      <trkpt lat="48.02" lon="6.71662">
        <ele>432.6</ele>
        <time>2022-05-27T09:26:12Z</time>
      </trkpt>
      <trkpt lat="48.02002" lon="6.71647">
        <ele>432</ele>
        <time>2022-05-27T09:26:14Z</time>
      </trkpt>
      <trkpt lat="48.02005" lon="6.71632">
        <ele>432.3</ele>
        <time>2022-05-27T09:26:16Z</time>
      </trkpt>
      <trkpt lat="48.02009" lon="6.71618">
        <ele>432.3</ele>
        <time>2022-05-27T09:26:18Z</time>
      </trkpt>
      <trkpt lat="48.02009" lon="6.71603">
        <ele>430.6</ele>
        <time>2022-05-27T09:26:20Z</time>
      </trkpt>
      <trkpt lat="48.02004" lon="6.7159">
        <ele>431.8</ele>
        <time>2022-05-27T09:26:22Z</time>
      </trkpt>
      <trkpt lat="48.01995" lon="6.71584">
        <ele>431.8</ele>
        <time>2022-05-27T09:26:24Z</time>
      </trkpt>
      <trkpt lat="48.01985" lon="6.7158">
        <ele>431.6</ele>
        <time>2022-05-27T09:26:26Z</time>
      </trkpt>
      <trkpt lat="48.01972" lon="6.71582">
        <ele>433.1</ele>
        <time>2022-05-27T09:26:28Z</time>
      </trkpt>
      <trkpt lat="48.0196" lon="6.7158">
        <ele>430.7</ele>
        <time>2022-05-27T09:26:30Z</time>
      </trkpt>
      <trkpt lat="48.01949" lon="6.71576">
        <ele>431</ele>
        <time>2022-05-27T09:26:32Z</time>
      </trkpt>
      <trkpt lat="48.01938" lon="6.71569">
        <ele>430.1</ele>
        <time>2022-05-27T09:26:34Z</time>
      </trkpt>
      <trkpt lat="48.01926" lon="6.71559">
        <ele>428.3</ele>
        <time>2022-05-27T09:26:36Z</time>
      </trkpt>
      <trkpt lat="48.01914" lon="6.7155">
        <ele>426</ele>
        <time>2022-05-27T09:26:38Z</time>
      </trkpt>
      <trkpt lat="48.01905" lon="6.71541">
        <ele>427.4</ele>
        <time>2022-05-27T09:26:40Z</time>
      </trkpt>
      <trkpt lat="48.01894" lon="6.71533">
        <ele>429.3</ele>
        <time>2022-05-27T09:26:42Z</time>
      </trkpt>
      <trkpt lat="48.01881" lon="6.71531">
        <ele>427.8</ele>
        <time>2022-05-27T09:26:44Z</time>
      </trkpt>
      <trkpt lat="48.01867" lon="6.71532">
        <ele>426.4</ele>
        <time>2022-05-27T09:26:46Z</time>
      </trkpt>
      <trkpt lat="48.01853" lon="6.71532">
        <ele>427.4</ele>
        <time>2022-05-27T09:26:48Z</time>
      </trkpt>
      <trkpt lat="48.01842" lon="6.71531">
        <ele>429</ele>
        <time>2022-05-27T09:26:50Z</time>
      </trkpt>
      <trkpt lat="48.01832" lon="6.71529">
        <ele>429</ele>
        <time>2022-05-27T09:26:52Z</time>
      </trkpt>
      <trkpt lat="48.01821" lon="6.71527">
        <ele>428.4</ele>
        <time>2022-05-27T09:26:54Z</time>
      </trkpt>
      <trkpt lat="48.0181" lon="6.71523">
        <ele>427.5</ele>
        <time>2022-05-27T09:26:56Z</time>
      </trkpt>
      <trkpt lat="48.01803" lon="6.71514">
        <ele>428.6</ele>
        <time>2022-05-27T09:26:58Z</time>
      </trkpt>
      <trkpt lat="48.01802" lon="6.71494">
        <ele>426.6</ele>
        <time>2022-05-27T09:27:01Z</time>
      </trkpt>
      <trkpt lat="48.01809" lon="6.71482">
        <ele>427.9</ele>
        <time>2022-05-27T09:27:03Z</time>
      </trkpt>
      <trkpt lat="48.01818" lon="6.71473">
        <ele>428.5</ele>
        <time>2022-05-27T09:27:05Z</time>
      </trkpt>
      <trkpt lat="48.01828" lon="6.71464">
        <ele>427.8</ele>
        <time>2022-05-27T09:27:07Z</time>
      </trkpt>
      <trkpt lat="48.01837" lon="6.71454">
        <ele>428.1</ele>
        <time>2022-05-27T09:27:09Z</time>
      </trkpt>
      <trkpt lat="48.01845" lon="6.71444">
        <ele>428.5</ele>
        <time>2022-05-27T09:27:11Z</time>
      </trkpt>
      <trkpt lat="48.0185" lon="6.71427">
        <ele>429.2</ele>
        <time>2022-05-27T09:27:14Z</time>
      </trkpt>
      <trkpt lat="48.01851" lon="6.7141">
        <ele>430.5</ele>
        <time>2022-05-27T09:27:17Z</time>
      </trkpt>
      <trkpt lat="48.01856" lon="6.71398">
        <ele>430</ele>
        <time>2022-05-27T09:27:20Z</time>
      </trkpt>
      <trkpt lat="48.01864" lon="6.71388">
        <ele>429.3</ele>
        <time>2022-05-27T09:27:23Z</time>
      </trkpt>
      <trkpt lat="48.01872" lon="6.71377">
        <ele>428.8</ele>
        <time>2022-05-27T09:27:26Z</time>
      </trkpt>
      <trkpt lat="48.0188" lon="6.71363">
        <ele>427.3</ele>
        <time>2022-05-27T09:27:29Z</time>
      </trkpt>
      <trkpt lat="48.01887" lon="6.71352">
        <ele>427.5</ele>
        <time>2022-05-27T09:27:31Z</time>
      </trkpt>
      <trkpt lat="48.01894" lon="6.71342">
        <ele>427.1</ele>
        <time>2022-05-27T09:27:33Z</time>
      </trkpt>
      <trkpt lat="48.01903" lon="6.71328">
        <ele>426.5</ele>
        <time>2022-05-27T09:27:36Z</time>
      </trkpt>
      <trkpt lat="48.01909" lon="6.71312">
        <ele>425.7</ele>
        <time>2022-05-27T09:27:39Z</time>
      </trkpt>
      <trkpt lat="48.0191" lon="6.71295">
        <ele>426.1</ele>
        <time>2022-05-27T09:27:42Z</time>
      </trkpt>
      <trkpt lat="48.01916" lon="6.71283">
        <ele>427</ele>
        <time>2022-05-27T09:27:46Z</time>
      </trkpt>
      <trkpt lat="48.01926" lon="6.71284">
        <ele>427.6</ele>
        <time>2022-05-27T09:27:51Z</time>
      </trkpt>
      <trkpt lat="48.01937" lon="6.71289">
        <ele>425.2</ele>
        <time>2022-05-27T09:27:55Z</time>
      </trkpt>
      <trkpt lat="48.01949" lon="6.71294">
        <ele>426.3</ele>
        <time>2022-05-27T09:27:58Z</time>
      </trkpt>
      <trkpt lat="48.01962" lon="6.71294">
        <ele>426.7</ele>
        <time>2022-05-27T09:28:01Z</time>
      </trkpt>
      <trkpt lat="48.01975" lon="6.71294">
        <ele>427.3</ele>
        <time>2022-05-27T09:28:04Z</time>
      </trkpt>
      <trkpt lat="48.01988" lon="6.71295">
        <ele>424.7</ele>
        <time>2022-05-27T09:28:07Z</time>
      </trkpt>
      <trkpt lat="48.01997" lon="6.71296">
        <ele>425.4</ele>
        <time>2022-05-27T09:28:09Z</time>
      </trkpt>
      <trkpt lat="48.02007" lon="6.71298">
        <ele>426.5</ele>
        <time>2022-05-27T09:28:11Z</time>
      </trkpt>
      <trkpt lat="48.02016" lon="6.71299">
        <ele>426.6</ele>
        <time>2022-05-27T09:28:13Z</time>
      </trkpt>
      <trkpt lat="48.02029" lon="6.71302">
        <ele>426.3</ele>
        <time>2022-05-27T09:28:16Z</time>
      </trkpt>
      <trkpt lat="48.02038" lon="6.71304">
        <ele>427.9</ele>
        <time>2022-05-27T09:28:18Z</time>
      </trkpt>
      <trkpt lat="48.02048" lon="6.71306">
        <ele>427.5</ele>
        <time>2022-05-27T09:28:20Z</time>
      </trkpt>
      <trkpt lat="48.02057" lon="6.71308">
        <ele>426.7</ele>
        <time>2022-05-27T09:28:22Z</time>
      </trkpt>
      <trkpt lat="48.02066" lon="6.71311">
        <ele>425.9</ele>
        <time>2022-05-27T09:28:24Z</time>
      </trkpt>
      <trkpt lat="48.02075" lon="6.71313">
        <ele>426.3</ele>
        <time>2022-05-27T09:28:26Z</time>
      </trkpt>
      <trkpt lat="48.02087" lon="6.71317">
        <ele>426.5</ele>
        <time>2022-05-27T09:28:29Z</time>
      </trkpt>
      <trkpt lat="48.02098" lon="6.71323">
        <ele>426.1</ele>
        <time>2022-05-27T09:28:32Z</time>
      </trkpt>
      <trkpt lat="48.02107" lon="6.71328">
        <ele>426.6</ele>
        <time>2022-05-27T09:28:35Z</time>
      </trkpt>
      <trkpt lat="48.02117" lon="6.71326">
        <ele>425.8</ele>
        <time>2022-05-27T09:28:38Z</time>
      </trkpt>
      <trkpt lat="48.02122" lon="6.71312">
        <ele>426.3</ele>
        <time>2022-05-27T09:28:41Z</time>
      </trkpt>
      <trkpt lat="48.02123" lon="6.71295">
        <ele>425.7</ele>
        <time>2022-05-27T09:28:44Z</time>
      </trkpt>
      <trkpt lat="48.02125" lon="6.71275">
        <ele>425.1</ele>
        <time>2022-05-27T09:28:47Z</time>
      </trkpt>
      <trkpt lat="48.02126" lon="6.71261">
        <ele>424.2</ele>
        <time>2022-05-27T09:28:49Z</time>
      </trkpt>
      <trkpt lat="48.02127" lon="6.71247">
        <ele>424.2</ele>
        <time>2022-05-27T09:28:51Z</time>
      </trkpt>
      <trkpt lat="48.02127" lon="6.71233">
        <ele>425</ele>
        <time>2022-05-27T09:28:53Z</time>
      </trkpt>
      <trkpt lat="48.02128" lon="6.71219">
        <ele>423.3</ele>
        <time>2022-05-27T09:28:55Z</time>
      </trkpt>
      <trkpt lat="48.02128" lon="6.71206">
        <ele>424.3</ele>
        <time>2022-05-27T09:28:57Z</time>
      </trkpt>
      <trkpt lat="48.02127" lon="6.71192">
        <ele>423.6</ele>
        <time>2022-05-27T09:28:59Z</time>
      </trkpt>
      <trkpt lat="48.02127" lon="6.71178">
        <ele>422.9</ele>
        <time>2022-05-27T09:29:01Z</time>
      </trkpt>
      <trkpt lat="48.02126" lon="6.71163">
        <ele>423</ele>
        <time>2022-05-27T09:29:03Z</time>
      </trkpt>
      <trkpt lat="48.02125" lon="6.71148">
        <ele>422.5</ele>
        <time>2022-05-27T09:29:05Z</time>
      </trkpt>
      <trkpt lat="48.02124" lon="6.71133">
        <ele>422.7</ele>
        <time>2022-05-27T09:29:07Z</time>
      </trkpt>
      <trkpt lat="48.02123" lon="6.71118">
        <ele>422.2</ele>
        <time>2022-05-27T09:29:09Z</time>
      </trkpt>
      <trkpt lat="48.02123" lon="6.71103">
        <ele>421.7</ele>
        <time>2022-05-27T09:29:11Z</time>
      </trkpt>
      <trkpt lat="48.02122" lon="6.71089">
        <ele>422.4</ele>
        <time>2022-05-27T09:29:13Z</time>
      </trkpt>
      <trkpt lat="48.02128" lon="6.71076">
        <ele>421.9</ele>
        <time>2022-05-27T09:29:16Z</time>
      </trkpt>
      <trkpt lat="48.02137" lon="6.71076">
        <ele>422.2</ele>
        <time>2022-05-27T09:29:19Z</time>
      </trkpt>
      <trkpt lat="48.02148" lon="6.71079">
        <ele>422.5</ele>
        <time>2022-05-27T09:29:23Z</time>
      </trkpt>
      <trkpt lat="48.0216" lon="6.7108">
        <ele>422.6</ele>
        <time>2022-05-27T09:29:27Z</time>
      </trkpt>
      <trkpt lat="48.0217" lon="6.71083">
        <ele>422.8</ele>
        <time>2022-05-27T09:29:32Z</time>
      </trkpt>
      <trkpt lat="48.0218" lon="6.71086">
        <ele>422.2</ele>
        <time>2022-05-27T09:29:37Z</time>
      </trkpt>
      <trkpt lat="48.0219" lon="6.71087">
        <ele>422.8</ele>
        <time>2022-05-27T09:29:41Z</time>
      </trkpt>
      <trkpt lat="48.02202" lon="6.71085">
        <ele>423.3</ele>
        <time>2022-05-27T09:29:45Z</time>
      </trkpt>
      <trkpt lat="48.0221" lon="6.71081">
        <ele>423.7</ele>
        <time>2022-05-27T09:29:48Z</time>
      </trkpt>
      <trkpt lat="48.02221" lon="6.71075">
        <ele>424.6</ele>
        <time>2022-05-27T09:29:52Z</time>
      </trkpt>
      <trkpt lat="48.0223" lon="6.71068">
        <ele>425.2</ele>
        <time>2022-05-27T09:29:56Z</time>
      </trkpt>
      <trkpt lat="48.02238" lon="6.7106">
        <ele>425.2</ele>
        <time>2022-05-27T09:30:00Z</time>
      </trkpt>
      <trkpt lat="48.02247" lon="6.71052">
        <ele>426</ele>
        <time>2022-05-27T09:30:04Z</time>
      </trkpt>
      <trkpt lat="48.02255" lon="6.71042">
        <ele>426.3</ele>
        <time>2022-05-27T09:30:08Z</time>
      </trkpt>
      <trkpt lat="48.02263" lon="6.71032">
        <ele>426.8</ele>
        <time>2022-05-27T09:30:12Z</time>
      </trkpt>
      <trkpt lat="48.02272" lon="6.71023">
        <ele>427.8</ele>
        <time>2022-05-27T09:30:16Z</time>
      </trkpt>
      <trkpt lat="48.02279" lon="6.71013">
        <ele>428.3</ele>
        <time>2022-05-27T09:30:20Z</time>
      </trkpt>
      <trkpt lat="48.02288" lon="6.71005">
        <ele>428.4</ele>
        <time>2022-05-27T09:30:24Z</time>
      </trkpt>
      <trkpt lat="48.02297" lon="6.70999">
        <ele>429.4</ele>
        <time>2022-05-27T09:30:28Z</time>
      </trkpt>
      <trkpt lat="48.02307" lon="6.70996">
        <ele>429.7</ele>
        <time>2022-05-27T09:30:32Z</time>
      </trkpt>
      <trkpt lat="48.02317" lon="6.70995">
        <ele>430.2</ele>
        <time>2022-05-27T09:30:36Z</time>
      </trkpt>
      <trkpt lat="48.02328" lon="6.70995">
        <ele>430.9</ele>
        <time>2022-05-27T09:30:40Z</time>
      </trkpt>
      <trkpt lat="48.02339" lon="6.70994">
        <ele>431.8</ele>
        <time>2022-05-27T09:30:44Z</time>
      </trkpt>
      <trkpt lat="48.02348" lon="6.70993">
        <ele>431.6</ele>
        <time>2022-05-27T09:30:47Z</time>
      </trkpt>
      <trkpt lat="48.02358" lon="6.70993">
        <ele>431.7</ele>
        <time>2022-05-27T09:30:50Z</time>
      </trkpt>
      <trkpt lat="48.02368" lon="6.70993">
        <ele>431.7</ele>
        <time>2022-05-27T09:30:53Z</time>
      </trkpt>
      <trkpt lat="48.02377" lon="6.70992">
        <ele>431.9</ele>
        <time>2022-05-27T09:30:56Z</time>
      </trkpt>
      <trkpt lat="48.02387" lon="6.70991">
        <ele>432</ele>
        <time>2022-05-27T09:30:59Z</time>
      </trkpt>
      <trkpt lat="48.02397" lon="6.70991">
        <ele>432.2</ele>
        <time>2022-05-27T09:31:02Z</time>
      </trkpt>
      <trkpt lat="48.02408" lon="6.7099">
        <ele>432</ele>
        <time>2022-05-27T09:31:05Z</time>
      </trkpt>
      <trkpt lat="48.02417" lon="6.70989">
        <ele>432.3</ele>
        <time>2022-05-27T09:31:08Z</time>
      </trkpt>
      <trkpt lat="48.02427" lon="6.70985">
        <ele>432.1</ele>
        <time>2022-05-27T09:31:11Z</time>
      </trkpt>
      <trkpt lat="48.02435" lon="6.70979">
        <ele>432.5</ele>
        <time>2022-05-27T09:31:14Z</time>
      </trkpt>
      <trkpt lat="48.02443" lon="6.7097">
        <ele>432.4</ele>
        <time>2022-05-27T09:31:17Z</time>
      </trkpt>
      <trkpt lat="48.0245" lon="6.7096">
        <ele>432.3</ele>
        <time>2022-05-27T09:31:20Z</time>
      </trkpt>
      <trkpt lat="48.02456" lon="6.70949">
        <ele>432.9</ele>
        <time>2022-05-27T09:31:23Z</time>
      </trkpt>
      <trkpt lat="48.02462" lon="6.70939">
        <ele>433.6</ele>
        <time>2022-05-27T09:31:26Z</time>
      </trkpt>
      <trkpt lat="48.02469" lon="6.70929">
        <ele>434.6</ele>
        <time>2022-05-27T09:31:29Z</time>
      </trkpt>
      <trkpt lat="48.02478" lon="6.70919">
        <ele>435.3</ele>
        <time>2022-05-27T09:31:33Z</time>
      </trkpt>
      <trkpt lat="48.02487" lon="6.70915">
        <ele>436.3</ele>
        <time>2022-05-27T09:31:37Z</time>
      </trkpt>
      <trkpt lat="48.02492" lon="6.70908">
        <ele>436.4</ele>
        <time>2022-05-27T09:31:50Z</time>
      </trkpt>
      <trkpt lat="48.02491" lon="6.70908">
        <ele>436.1</ele>
        <time>2022-05-27T09:32:11Z</time>
      </trkpt>
      <trkpt lat="48.02501" lon="6.70914">
        <ele>437</ele>
        <time>2022-05-27T09:32:20Z</time>
      </trkpt>
      <trkpt lat="48.0251" lon="6.70915">
        <ele>437.4</ele>
        <time>2022-05-27T09:32:25Z</time>
      </trkpt>
      <trkpt lat="48.0252" lon="6.70914">
        <ele>439</ele>
        <time>2022-05-27T09:32:30Z</time>
      </trkpt>
      <trkpt lat="48.02529" lon="6.70907">
        <ele>439.8</ele>
        <time>2022-05-27T09:32:36Z</time>
      </trkpt>
      <trkpt lat="48.02535" lon="6.70895">
        <ele>440.4</ele>
        <time>2022-05-27T09:32:41Z</time>
      </trkpt>
      <trkpt lat="48.0254" lon="6.7088">
        <ele>441.3</ele>
        <time>2022-05-27T09:32:46Z</time>
      </trkpt>
      <trkpt lat="48.02544" lon="6.70866">
        <ele>442.1</ele>
        <time>2022-05-27T09:32:50Z</time>
      </trkpt>
      <trkpt lat="48.02547" lon="6.70852">
        <ele>443.1</ele>
        <time>2022-05-27T09:32:54Z</time>
      </trkpt>
      <trkpt lat="48.0255" lon="6.70838">
        <ele>443.6</ele>
        <time>2022-05-27T09:32:58Z</time>
      </trkpt>
      <trkpt lat="48.02553" lon="6.70824">
        <ele>444.8</ele>
        <time>2022-05-27T09:33:02Z</time>
      </trkpt>
      <trkpt lat="48.02558" lon="6.70811">
        <ele>445.3</ele>
        <time>2022-05-27T09:33:06Z</time>
      </trkpt>
      <trkpt lat="48.02565" lon="6.70801">
        <ele>445.8</ele>
        <time>2022-05-27T09:33:10Z</time>
      </trkpt>
      <trkpt lat="48.02574" lon="6.70795">
        <ele>446.5</ele>
        <time>2022-05-27T09:33:14Z</time>
      </trkpt>
      <trkpt lat="48.02582" lon="6.70786">
        <ele>448.5</ele>
        <time>2022-05-27T09:33:19Z</time>
      </trkpt>
      <trkpt lat="48.02589" lon="6.70777">
        <ele>450.3</ele>
        <time>2022-05-27T09:33:25Z</time>
      </trkpt>
      <trkpt lat="48.02596" lon="6.70767">
        <ele>452.4</ele>
        <time>2022-05-27T09:33:31Z</time>
      </trkpt>
      <trkpt lat="48.02604" lon="6.70757">
        <ele>454</ele>
        <time>2022-05-27T09:33:37Z</time>
      </trkpt>
      <trkpt lat="48.02611" lon="6.70746">
        <ele>455.1</ele>
        <time>2022-05-27T09:33:43Z</time>
      </trkpt>
      <trkpt lat="48.02619" lon="6.70735">
        <ele>456.6</ele>
        <time>2022-05-27T09:33:49Z</time>
      </trkpt>
      <trkpt lat="48.02626" lon="6.70726">
        <ele>457.7</ele>
        <time>2022-05-27T09:33:54Z</time>
      </trkpt>
      <trkpt lat="48.02635" lon="6.70717">
        <ele>458.5</ele>
        <time>2022-05-27T09:33:59Z</time>
      </trkpt>
      <trkpt lat="48.02644" lon="6.70708">
        <ele>459.1</ele>
        <time>2022-05-27T09:34:04Z</time>
      </trkpt>
      <trkpt lat="48.02652" lon="6.70701">
        <ele>459.8</ele>
        <time>2022-05-27T09:34:08Z</time>
      </trkpt>
      <trkpt lat="48.02661" lon="6.70694">
        <ele>459.8</ele>
        <time>2022-05-27T09:34:12Z</time>
      </trkpt>
      <trkpt lat="48.02671" lon="6.70686">
        <ele>459</ele>
        <time>2022-05-27T09:34:15Z</time>
      </trkpt>
      <trkpt lat="48.0268" lon="6.7068">
        <ele>458.2</ele>
        <time>2022-05-27T09:34:17Z</time>
      </trkpt>
      <trkpt lat="48.02689" lon="6.70675">
        <ele>458.7</ele>
        <time>2022-05-27T09:34:19Z</time>
      </trkpt>
      <trkpt lat="48.027" lon="6.70671">
        <ele>459.8</ele>
        <time>2022-05-27T09:34:22Z</time>
      </trkpt>
      <trkpt lat="48.0271" lon="6.7067">
        <ele>460.9</ele>
        <time>2022-05-27T09:34:25Z</time>
      </trkpt>
      <trkpt lat="48.0272" lon="6.70671">
        <ele>462</ele>
        <time>2022-05-27T09:34:29Z</time>
      </trkpt>
      <trkpt lat="48.0273" lon="6.70668">
        <ele>462.8</ele>
        <time>2022-05-27T09:34:34Z</time>
      </trkpt>
      <trkpt lat="48.02737" lon="6.70658">
        <ele>463.5</ele>
        <time>2022-05-27T09:34:39Z</time>
      </trkpt>
      <trkpt lat="48.02742" lon="6.70647">
        <ele>464</ele>
        <time>2022-05-27T09:34:44Z</time>
      </trkpt>
      <trkpt lat="48.02746" lon="6.70633">
        <ele>464.3</ele>
        <time>2022-05-27T09:34:49Z</time>
      </trkpt>
      <trkpt lat="48.0275" lon="6.7062">
        <ele>465.4</ele>
        <time>2022-05-27T09:34:54Z</time>
      </trkpt>
      <trkpt lat="48.02754" lon="6.70606">
        <ele>465.8</ele>
        <time>2022-05-27T09:34:59Z</time>
      </trkpt>
      <trkpt lat="48.02758" lon="6.70591">
        <ele>466.3</ele>
        <time>2022-05-27T09:35:04Z</time>
      </trkpt>
      <trkpt lat="48.0276" lon="6.70577">
        <ele>466.8</ele>
        <time>2022-05-27T09:35:09Z</time>
      </trkpt>
      <trkpt lat="48.02761" lon="6.70561">
        <ele>466.8</ele>
        <time>2022-05-27T09:35:15Z</time>
      </trkpt>
      <trkpt lat="48.02764" lon="6.70548">
        <ele>465.6</ele>
        <time>2022-05-27T09:35:18Z</time>
      </trkpt>
      <trkpt lat="48.02767" lon="6.70534">
        <ele>465.9</ele>
        <time>2022-05-27T09:35:21Z</time>
      </trkpt>
      <trkpt lat="48.02771" lon="6.7052">
        <ele>465.9</ele>
        <time>2022-05-27T09:35:24Z</time>
      </trkpt>
      <trkpt lat="48.02776" lon="6.70505">
        <ele>466.2</ele>
        <time>2022-05-27T09:35:27Z</time>
      </trkpt>
      <trkpt lat="48.0278" lon="6.7049">
        <ele>466</ele>
        <time>2022-05-27T09:35:30Z</time>
      </trkpt>
      <trkpt lat="48.02784" lon="6.70475">
        <ele>466.3</ele>
        <time>2022-05-27T09:35:33Z</time>
      </trkpt>
      <trkpt lat="48.02788" lon="6.70459">
        <ele>467.4</ele>
        <time>2022-05-27T09:35:36Z</time>
      </trkpt>
      <trkpt lat="48.02792" lon="6.7044">
        <ele>466.6</ele>
        <time>2022-05-27T09:35:39Z</time>
      </trkpt>
      <trkpt lat="48.02796" lon="6.70423">
        <ele>465</ele>
        <time>2022-05-27T09:35:42Z</time>
      </trkpt>
      <trkpt lat="48.02799" lon="6.70409">
        <ele>465.6</ele>
        <time>2022-05-27T09:35:45Z</time>
      </trkpt>
      <trkpt lat="48.02804" lon="6.70395">
        <ele>464.7</ele>
        <time>2022-05-27T09:35:48Z</time>
      </trkpt>
      <trkpt lat="48.02808" lon="6.70381">
        <ele>466.9</ele>
        <time>2022-05-27T09:35:51Z</time>
      </trkpt>
      <trkpt lat="48.02812" lon="6.70368">
        <ele>468.5</ele>
        <time>2022-05-27T09:35:54Z</time>
      </trkpt>
      <trkpt lat="48.02818" lon="6.70355">
        <ele>467.5</ele>
        <time>2022-05-27T09:35:57Z</time>
      </trkpt>
      <trkpt lat="48.02823" lon="6.70343">
        <ele>469.1</ele>
        <time>2022-05-27T09:36:00Z</time>
      </trkpt>
      <trkpt lat="48.02828" lon="6.7033">
        <ele>469.4</ele>
        <time>2022-05-27T09:36:04Z</time>
      </trkpt>
      <trkpt lat="48.02835" lon="6.70313">
        <ele>469.5</ele>
        <time>2022-05-27T09:36:08Z</time>
      </trkpt>
      <trkpt lat="48.02839" lon="6.70295">
        <ele>470.3</ele>
        <time>2022-05-27T09:36:11Z</time>
      </trkpt>
      <trkpt lat="48.02842" lon="6.70277">
        <ele>470.6</ele>
        <time>2022-05-27T09:36:14Z</time>
      </trkpt>
      <trkpt lat="48.02844" lon="6.70259">
        <ele>470.5</ele>
        <time>2022-05-27T09:36:17Z</time>
      </trkpt>
      <trkpt lat="48.02847" lon="6.70241">
        <ele>470.3</ele>
        <time>2022-05-27T09:36:20Z</time>
      </trkpt>
      <trkpt lat="48.02848" lon="6.70223">
        <ele>470.7</ele>
        <time>2022-05-27T09:36:23Z</time>
      </trkpt>
      <trkpt lat="48.02849" lon="6.70206">
        <ele>470.6</ele>
        <time>2022-05-27T09:36:26Z</time>
      </trkpt>
      <trkpt lat="48.02852" lon="6.7019">
        <ele>471.3</ele>
        <time>2022-05-27T09:36:30Z</time>
      </trkpt>
      <trkpt lat="48.02857" lon="6.70175">
        <ele>471.5</ele>
        <time>2022-05-27T09:36:34Z</time>
      </trkpt>
      <trkpt lat="48.0286" lon="6.70161">
        <ele>470.2</ele>
        <time>2022-05-27T09:36:37Z</time>
      </trkpt>
      <trkpt lat="48.02866" lon="6.70146">
        <ele>471.4</ele>
        <time>2022-05-27T09:36:40Z</time>
      </trkpt>
      <trkpt lat="48.02872" lon="6.70129">
        <ele>471.4</ele>
        <time>2022-05-27T09:36:43Z</time>
      </trkpt>
      <trkpt lat="48.02878" lon="6.70114">
        <ele>473.3</ele>
        <time>2022-05-27T09:36:46Z</time>
      </trkpt>
      <trkpt lat="48.02885" lon="6.70102">
        <ele>472.7</ele>
        <time>2022-05-27T09:36:50Z</time>
      </trkpt>
      <trkpt lat="48.02894" lon="6.70092">
        <ele>474.5</ele>
        <time>2022-05-27T09:36:54Z</time>
      </trkpt>
      <trkpt lat="48.02903" lon="6.70077">
        <ele>473</ele>
        <time>2022-05-27T09:36:57Z</time>
      </trkpt>
      <trkpt lat="48.02908" lon="6.70065">
        <ele>471.4</ele>
        <time>2022-05-27T09:36:59Z</time>
      </trkpt>
      <trkpt lat="48.02913" lon="6.70052">
        <ele>472</ele>
        <time>2022-05-27T09:37:01Z</time>
      </trkpt>
      <trkpt lat="48.02916" lon="6.7004">
        <ele>470.7</ele>
        <time>2022-05-27T09:37:03Z</time>
      </trkpt>
      <trkpt lat="48.0292" lon="6.70026">
        <ele>470.5</ele>
        <time>2022-05-27T09:37:05Z</time>
      </trkpt>
      <trkpt lat="48.02925" lon="6.70012">
        <ele>473.1</ele>
        <time>2022-05-27T09:37:07Z</time>
      </trkpt>
      <trkpt lat="48.02929" lon="6.69995">
        <ele>470.5</ele>
        <time>2022-05-27T09:37:09Z</time>
      </trkpt>
      <trkpt lat="48.02934" lon="6.69977">
        <ele>469.3</ele>
        <time>2022-05-27T09:37:11Z</time>
      </trkpt>
      <trkpt lat="48.02938" lon="6.69959">
        <ele>467.8</ele>
        <time>2022-05-27T09:37:13Z</time>
      </trkpt>
      <trkpt lat="48.02944" lon="6.69944">
        <ele>467.9</ele>
        <time>2022-05-27T09:37:15Z</time>
      </trkpt>
      <trkpt lat="48.0295" lon="6.69932">
        <ele>469.4</ele>
        <time>2022-05-27T09:37:17Z</time>
      </trkpt>
      <trkpt lat="48.02957" lon="6.69916">
        <ele>468.8</ele>
        <time>2022-05-27T09:37:20Z</time>
      </trkpt>
      <trkpt lat="48.02962" lon="6.69903">
        <ele>468.5</ele>
        <time>2022-05-27T09:37:22Z</time>
      </trkpt>
      <trkpt lat="48.02965" lon="6.69889">
        <ele>468.6</ele>
        <time>2022-05-27T09:37:24Z</time>
      </trkpt>
      <trkpt lat="48.02968" lon="6.69876">
        <ele>467.2</ele>
        <time>2022-05-27T09:37:26Z</time>
      </trkpt>
      <trkpt lat="48.02972" lon="6.69863">
        <ele>466.8</ele>
        <time>2022-05-27T09:37:28Z</time>
      </trkpt>
      <trkpt lat="48.02979" lon="6.69847">
        <ele>467.3</ele>
        <time>2022-05-27T09:37:31Z</time>
      </trkpt>
      <trkpt lat="48.02983" lon="6.69833">
        <ele>466.2</ele>
        <time>2022-05-27T09:37:34Z</time>
      </trkpt>
      <trkpt lat="48.02987" lon="6.69814">
        <ele>467.6</ele>
        <time>2022-05-27T09:37:37Z</time>
      </trkpt>
      <trkpt lat="48.0299" lon="6.69799">
        <ele>467</ele>
        <time>2022-05-27T09:37:39Z</time>
      </trkpt>
      <trkpt lat="48.02996" lon="6.69781">
        <ele>466.5</ele>
        <time>2022-05-27T09:37:41Z</time>
      </trkpt>
      <trkpt lat="48.03001" lon="6.69765">
        <ele>463.6</ele>
        <time>2022-05-27T09:37:43Z</time>
      </trkpt>
      <trkpt lat="48.03002" lon="6.69751">
        <ele>463.3</ele>
        <time>2022-05-27T09:37:45Z</time>
      </trkpt>
      <trkpt lat="48.02996" lon="6.69736">
        <ele>463.1</ele>
        <time>2022-05-27T09:37:47Z</time>
      </trkpt>
      <trkpt lat="48.0299" lon="6.69724">
        <ele>462.2</ele>
        <time>2022-05-27T09:37:49Z</time>
      </trkpt>
      <trkpt lat="48.02988" lon="6.6971">
        <ele>463.1</ele>
        <time>2022-05-27T09:37:51Z</time>
      </trkpt>
      <trkpt lat="48.02992" lon="6.69695">
        <ele>464.6</ele>
        <time>2022-05-27T09:37:53Z</time>
      </trkpt>
      <trkpt lat="48.02996" lon="6.69682">
        <ele>464.2</ele>
        <time>2022-05-27T09:37:55Z</time>
      </trkpt>
      <trkpt lat="48.03" lon="6.69669">
        <ele>464</ele>
        <time>2022-05-27T09:37:57Z</time>
      </trkpt>
      <trkpt lat="48.03007" lon="6.69653">
        <ele>464.5</ele>
        <time>2022-05-27T09:38:00Z</time>
      </trkpt>
      <trkpt lat="48.03015" lon="6.69637">
        <ele>461.2</ele>
        <time>2022-05-27T09:38:03Z</time>
      </trkpt>
      <trkpt lat="48.03022" lon="6.6962">
        <ele>463.5</ele>
        <time>2022-05-27T09:38:06Z</time>
      </trkpt>
      <trkpt lat="48.03027" lon="6.69609">
        <ele>464</ele>
        <time>2022-05-27T09:38:08Z</time>
      </trkpt>
      <trkpt lat="48.03034" lon="6.69593">
        <ele>463.3</ele>
        <time>2022-05-27T09:38:11Z</time>
      </trkpt>
      <trkpt lat="48.03043" lon="6.69581">
        <ele>463.6</ele>
        <time>2022-05-27T09:38:14Z</time>
      </trkpt>
      <trkpt lat="48.03053" lon="6.69568">
        <ele>462.7</ele>
        <time>2022-05-27T09:38:17Z</time>
      </trkpt>
      <trkpt lat="48.0306" lon="6.6956">
        <ele>463.6</ele>
        <time>2022-05-27T09:38:19Z</time>
      </trkpt>
      <trkpt lat="48.03067" lon="6.6955">
        <ele>464.6</ele>
        <time>2022-05-27T09:38:21Z</time>
      </trkpt>
      <trkpt lat="48.03075" lon="6.69537">
        <ele>462.3</ele>
        <time>2022-05-27T09:38:24Z</time>
      </trkpt>
      <trkpt lat="48.03082" lon="6.69525">
        <ele>462.1</ele>
        <time>2022-05-27T09:38:27Z</time>
      </trkpt>
      <trkpt lat="48.03087" lon="6.6951">
        <ele>464.3</ele>
        <time>2022-05-27T09:38:30Z</time>
      </trkpt>
      <trkpt lat="48.03095" lon="6.69495">
        <ele>462.8</ele>
        <time>2022-05-27T09:38:33Z</time>
      </trkpt>
      <trkpt lat="48.03103" lon="6.69479">
        <ele>461.4</ele>
        <time>2022-05-27T09:38:36Z</time>
      </trkpt>
      <trkpt lat="48.03112" lon="6.6947">
        <ele>460.4</ele>
        <time>2022-05-27T09:38:39Z</time>
      </trkpt>
      <trkpt lat="48.03122" lon="6.69464">
        <ele>464.8</ele>
        <time>2022-05-27T09:38:42Z</time>
      </trkpt>
      <trkpt lat="48.03132" lon="6.69456">
        <ele>465.3</ele>
        <time>2022-05-27T09:38:45Z</time>
      </trkpt>
      <trkpt lat="48.0314" lon="6.6944">
        <ele>464.6</ele>
        <time>2022-05-27T09:38:48Z</time>
      </trkpt>
      <trkpt lat="48.03147" lon="6.69424">
        <ele>465.3</ele>
        <time>2022-05-27T09:38:51Z</time>
      </trkpt>
      <trkpt lat="48.03152" lon="6.69411">
        <ele>465.8</ele>
        <time>2022-05-27T09:38:54Z</time>
      </trkpt>
      <trkpt lat="48.03157" lon="6.69396">
        <ele>465.4</ele>
        <time>2022-05-27T09:38:57Z</time>
      </trkpt>
      <trkpt lat="48.03162" lon="6.69381">
        <ele>464.9</ele>
        <time>2022-05-27T09:39:00Z</time>
      </trkpt>
      <trkpt lat="48.03167" lon="6.69367">
        <ele>465.8</ele>
        <time>2022-05-27T09:39:03Z</time>
      </trkpt>
      <trkpt lat="48.03172" lon="6.69351">
        <ele>465.1</ele>
        <time>2022-05-27T09:39:06Z</time>
      </trkpt>
      <trkpt lat="48.03177" lon="6.69335">
        <ele>464.1</ele>
        <time>2022-05-27T09:39:09Z</time>
      </trkpt>
      <trkpt lat="48.03183" lon="6.69319">
        <ele>464</ele>
        <time>2022-05-27T09:39:12Z</time>
      </trkpt>
      <trkpt lat="48.0319" lon="6.69303">
        <ele>465.4</ele>
        <time>2022-05-27T09:39:15Z</time>
      </trkpt>
      <trkpt lat="48.03197" lon="6.69287">
        <ele>465</ele>
        <time>2022-05-27T09:39:18Z</time>
      </trkpt>
      <trkpt lat="48.03203" lon="6.69272">
        <ele>465.7</ele>
        <time>2022-05-27T09:39:21Z</time>
      </trkpt>
      <trkpt lat="48.03211" lon="6.69258">
        <ele>465.3</ele>
        <time>2022-05-27T09:39:24Z</time>
      </trkpt>
      <trkpt lat="48.03217" lon="6.69247">
        <ele>464.6</ele>
        <time>2022-05-27T09:39:26Z</time>
      </trkpt>
      <trkpt lat="48.03223" lon="6.69236">
        <ele>464.8</ele>
        <time>2022-05-27T09:39:28Z</time>
      </trkpt>
      <trkpt lat="48.03232" lon="6.69221">
        <ele>464.9</ele>
        <time>2022-05-27T09:39:31Z</time>
      </trkpt>
      <trkpt lat="48.03238" lon="6.69207">
        <ele>465.1</ele>
        <time>2022-05-27T09:39:34Z</time>
      </trkpt>
      <trkpt lat="48.03244" lon="6.69191">
        <ele>465.1</ele>
        <time>2022-05-27T09:39:37Z</time>
      </trkpt>
      <trkpt lat="48.03249" lon="6.69175">
        <ele>464.5</ele>
        <time>2022-05-27T09:39:40Z</time>
      </trkpt>
      <trkpt lat="48.03254" lon="6.69158">
        <ele>464.6</ele>
        <time>2022-05-27T09:39:43Z</time>
      </trkpt>
      <trkpt lat="48.03261" lon="6.69143">
        <ele>464.4</ele>
        <time>2022-05-27T09:39:46Z</time>
      </trkpt>
      <trkpt lat="48.03267" lon="6.69128">
        <ele>464.6</ele>
        <time>2022-05-27T09:39:49Z</time>
      </trkpt>
      <trkpt lat="48.03274" lon="6.69113">
        <ele>463.6</ele>
        <time>2022-05-27T09:39:52Z</time>
      </trkpt>
      <trkpt lat="48.03282" lon="6.69098">
        <ele>463.5</ele>
        <time>2022-05-27T09:39:55Z</time>
      </trkpt>
      <trkpt lat="48.03288" lon="6.69082">
        <ele>463.1</ele>
        <time>2022-05-27T09:39:58Z</time>
      </trkpt>
      <trkpt lat="48.03292" lon="6.69065">
        <ele>463.7</ele>
        <time>2022-05-27T09:40:01Z</time>
      </trkpt>
      <trkpt lat="48.03296" lon="6.69052">
        <ele>462</ele>
        <time>2022-05-27T09:40:03Z</time>
      </trkpt>
      <trkpt lat="48.033" lon="6.6904">
        <ele>462.7</ele>
        <time>2022-05-27T09:40:05Z</time>
      </trkpt>
      <trkpt lat="48.03307" lon="6.69024">
        <ele>463.7</ele>
        <time>2022-05-27T09:40:08Z</time>
      </trkpt>
      <trkpt lat="48.03314" lon="6.69006">
        <ele>462.7</ele>
        <time>2022-05-27T09:40:11Z</time>
      </trkpt>
      <trkpt lat="48.03319" lon="6.68994">
        <ele>461.4</ele>
        <time>2022-05-27T09:40:13Z</time>
      </trkpt>
      <trkpt lat="48.03324" lon="6.68983">
        <ele>461.1</ele>
        <time>2022-05-27T09:40:15Z</time>
      </trkpt>
      <trkpt lat="48.03331" lon="6.68966">
        <ele>460.9</ele>
        <time>2022-05-27T09:40:18Z</time>
      </trkpt>
      <trkpt lat="48.03338" lon="6.68951">
        <ele>462.6</ele>
        <time>2022-05-27T09:40:21Z</time>
      </trkpt>
      <trkpt lat="48.03347" lon="6.68936">
        <ele>460.9</ele>
        <time>2022-05-27T09:40:24Z</time>
      </trkpt>
      <trkpt lat="48.03355" lon="6.68921">
        <ele>462.2</ele>
        <time>2022-05-27T09:40:27Z</time>
      </trkpt>
      <trkpt lat="48.03362" lon="6.68907">
        <ele>465</ele>
        <time>2022-05-27T09:40:30Z</time>
      </trkpt>
      <trkpt lat="48.03369" lon="6.68894">
        <ele>463.9</ele>
        <time>2022-05-27T09:40:33Z</time>
      </trkpt>
      <trkpt lat="48.03374" lon="6.68878">
        <ele>462</ele>
        <time>2022-05-27T09:40:36Z</time>
      </trkpt>
      <trkpt lat="48.0338" lon="6.68863">
        <ele>464.8</ele>
        <time>2022-05-27T09:40:39Z</time>
      </trkpt>
      <trkpt lat="48.03384" lon="6.68849">
        <ele>463.8</ele>
        <time>2022-05-27T09:40:42Z</time>
      </trkpt>
      <trkpt lat="48.03391" lon="6.6884">
        <ele>464.7</ele>
        <time>2022-05-27T09:40:49Z</time>
      </trkpt>
      <trkpt lat="48.03401" lon="6.68834">
        <ele>464.6</ele>
        <time>2022-05-27T09:40:55Z</time>
      </trkpt>
      <trkpt lat="48.03408" lon="6.68825">
        <ele>466.6</ele>
        <time>2022-05-27T09:41:00Z</time>
      </trkpt>
      <trkpt lat="48.03416" lon="6.68813">
        <ele>466.3</ele>
        <time>2022-05-27T09:41:04Z</time>
      </trkpt>
      <trkpt lat="48.03424" lon="6.68802">
        <ele>466.7</ele>
        <time>2022-05-27T09:41:08Z</time>
      </trkpt>
      <trkpt lat="48.03434" lon="6.68796">
        <ele>466.7</ele>
        <time>2022-05-27T09:41:12Z</time>
      </trkpt>
      <trkpt lat="48.03442" lon="6.68789">
        <ele>467.8</ele>
        <time>2022-05-27T09:41:17Z</time>
      </trkpt>
      <trkpt lat="48.0345" lon="6.68783">
        <ele>469.5</ele>
        <time>2022-05-27T09:41:22Z</time>
      </trkpt>
      <trkpt lat="48.03459" lon="6.68779">
        <ele>469.9</ele>
        <time>2022-05-27T09:41:28Z</time>
      </trkpt>
      <trkpt lat="48.03468" lon="6.68774">
        <ele>472.5</ele>
        <time>2022-05-27T09:41:34Z</time>
      </trkpt>
      <trkpt lat="48.03477" lon="6.68774">
        <ele>475</ele>
        <time>2022-05-27T09:41:44Z</time>
      </trkpt>
      <trkpt lat="48.03479" lon="6.68772">
        <ele>476.1</ele>
        <time>2022-05-27T09:41:50Z</time>
      </trkpt>
      <trkpt lat="48.03479" lon="6.68772">
        <ele>476.3</ele>
        <time>2022-05-27T09:42:00Z</time>
      </trkpt>
      <trkpt lat="48.03488" lon="6.68763">
        <ele>478.4</ele>
        <time>2022-05-27T09:42:12Z</time>
      </trkpt>
      <trkpt lat="48.03494" lon="6.68753">
        <ele>479.6</ele>
        <time>2022-05-27T09:42:20Z</time>
      </trkpt>
      <trkpt lat="48.03496" lon="6.68746">
        <ele>479.4</ele>
        <time>2022-05-27T09:42:25Z</time>
      </trkpt>
      <trkpt lat="48.03502" lon="6.68736">
        <ele>479.7</ele>
        <time>2022-05-27T09:42:41Z</time>
      </trkpt>
      <trkpt lat="48.03502" lon="6.68736">
        <ele>479.5</ele>
        <time>2022-05-27T09:42:42Z</time>
      </trkpt>
      <trkpt lat="48.03504" lon="6.68736">
        <ele>479.7</ele>
        <time>2022-05-27T09:42:45Z</time>
      </trkpt>
      <trkpt lat="48.03505" lon="6.68735">
        <ele>480</ele>
        <time>2022-05-27T09:42:53Z</time>
      </trkpt>
      <trkpt lat="48.03506" lon="6.68735">
        <ele>479.9</ele>
        <time>2022-05-27T09:42:54Z</time>
      </trkpt>
      <trkpt lat="48.03515" lon="6.68726">
        <ele>480.4</ele>
        <time>2022-05-27T09:43:02Z</time>
      </trkpt>
      <trkpt lat="48.03522" lon="6.68715">
        <ele>479.1</ele>
        <time>2022-05-27T09:43:05Z</time>
      </trkpt>
      <trkpt lat="48.03528" lon="6.68704">
        <ele>479.1</ele>
        <time>2022-05-27T09:43:08Z</time>
      </trkpt>
      <trkpt lat="48.03534" lon="6.68689">
        <ele>481.4</ele>
        <time>2022-05-27T09:43:12Z</time>
      </trkpt>
      <trkpt lat="48.0354" lon="6.68676">
        <ele>481.1</ele>
        <time>2022-05-27T09:43:18Z</time>
      </trkpt>
      <trkpt lat="48.03545" lon="6.68663">
        <ele>481.6</ele>
        <time>2022-05-27T09:43:21Z</time>
      </trkpt>
      <trkpt lat="48.03553" lon="6.68655">
        <ele>481.1</ele>
        <time>2022-05-27T09:43:25Z</time>
      </trkpt>
      <trkpt lat="48.03561" lon="6.68647">
        <ele>481.3</ele>
        <time>2022-05-27T09:43:30Z</time>
      </trkpt>
      <trkpt lat="48.03561" lon="6.68644">
        <ele>481.4</ele>
        <time>2022-05-27T09:43:32Z</time>
      </trkpt>
      <trkpt lat="48.03562" lon="6.68642">
        <ele>481.3</ele>
        <time>2022-05-27T09:43:40Z</time>
      </trkpt>
      <trkpt lat="48.03562" lon="6.68641">
        <ele>481.5</ele>
        <time>2022-05-27T09:43:44Z</time>
      </trkpt>
      <trkpt lat="48.03562" lon="6.68639">
        <ele>481.8</ele>
        <time>2022-05-27T09:44:16Z</time>
      </trkpt>
      <trkpt lat="48.03561" lon="6.68639">
        <ele>481.4</ele>
        <time>2022-05-27T09:44:23Z</time>
      </trkpt>
      <trkpt lat="48.03561" lon="6.68638">
        <ele>481.7</ele>
        <time>2022-05-27T09:44:30Z</time>
      </trkpt>
      <trkpt lat="48.03561" lon="6.68638">
        <ele>481.5</ele>
        <time>2022-05-27T09:44:49Z</time>
      </trkpt>
      <trkpt lat="48.0356" lon="6.68638">
        <ele>481.6</ele>
        <time>2022-05-27T09:44:55Z</time>
      </trkpt>
      <trkpt lat="48.0356" lon="6.68637">
        <ele>481.4</ele>
        <time>2022-05-27T09:44:59Z</time>
      </trkpt>
      <trkpt lat="48.03559" lon="6.68637">
        <ele>481.4</ele>
        <time>2022-05-27T09:45:02Z</time>
      </trkpt>
      <trkpt lat="48.0356" lon="6.68637">
        <ele>481.2</ele>
        <time>2022-05-27T09:45:29Z</time>
      </trkpt>
      <trkpt lat="48.03559" lon="6.68637">
        <ele>481.7</ele>
        <time>2022-05-27T09:45:55Z</time>
      </trkpt>
      <trkpt lat="48.0355" lon="6.68646">
        <ele>481.2</ele>
        <time>2022-05-27T09:46:03Z</time>
      </trkpt>
      <trkpt lat="48.0354" lon="6.68654">
        <ele>480.6</ele>
        <time>2022-05-27T09:46:07Z</time>
      </trkpt>
      <trkpt lat="48.03537" lon="6.6867">
        <ele>481</ele>
        <time>2022-05-27T09:46:11Z</time>
      </trkpt>
      <trkpt lat="48.03539" lon="6.68684">
        <ele>481.3</ele>
        <time>2022-05-27T09:46:16Z</time>
      </trkpt>
      <trkpt lat="48.03537" lon="6.68687">
        <ele>481.4</ele>
        <time>2022-05-27T09:46:21Z</time>
      </trkpt>
      <trkpt lat="48.03538" lon="6.68687">
        <ele>481</ele>
        <time>2022-05-27T09:46:23Z</time>
      </trkpt>
      <trkpt lat="48.03538" lon="6.68688">
        <ele>481.1</ele>
        <time>2022-05-27T09:46:31Z</time>
      </trkpt>
      <trkpt lat="48.03539" lon="6.68688">
        <ele>481.1</ele>
        <time>2022-05-27T09:46:34Z</time>
      </trkpt>
      <trkpt lat="48.03539" lon="6.68688">
        <ele>481.5</ele>
        <time>2022-05-27T09:46:46Z</time>
      </trkpt>
      <trkpt lat="48.03539" lon="6.68687">
        <ele>480.9</ele>
        <time>2022-05-27T09:46:50Z</time>
      </trkpt>
      <trkpt lat="48.03539" lon="6.68686">
        <ele>481</ele>
        <time>2022-05-27T09:46:54Z</time>
      </trkpt>
      <trkpt lat="48.03541" lon="6.6867">
        <ele>479.4</ele>
        <time>2022-05-27T09:46:59Z</time>
      </trkpt>
      <trkpt lat="48.03546" lon="6.68657">
        <ele>480</ele>
        <time>2022-05-27T09:47:02Z</time>
      </trkpt>
      <trkpt lat="48.03555" lon="6.68651">
        <ele>480.8</ele>
        <time>2022-05-27T09:47:06Z</time>
      </trkpt>
      <trkpt lat="48.03562" lon="6.68643">
        <ele>481.3</ele>
        <time>2022-05-27T09:47:11Z</time>
      </trkpt>
      <trkpt lat="48.03563" lon="6.68641">
        <ele>481.4</ele>
        <time>2022-05-27T09:47:13Z</time>
      </trkpt>
      <trkpt lat="48.03573" lon="6.68631">
        <ele>481.1</ele>
        <time>2022-05-27T09:47:19Z</time>
      </trkpt>
      <trkpt lat="48.03582" lon="6.68625">
        <ele>481.2</ele>
        <time>2022-05-27T09:47:22Z</time>
      </trkpt>
      <trkpt lat="48.03591" lon="6.68616">
        <ele>481.6</ele>
        <time>2022-05-27T09:47:25Z</time>
      </trkpt>
      <trkpt lat="48.03599" lon="6.68608">
        <ele>481.3</ele>
        <time>2022-05-27T09:47:28Z</time>
      </trkpt>
      <trkpt lat="48.03608" lon="6.68598">
        <ele>481.2</ele>
        <time>2022-05-27T09:47:32Z</time>
      </trkpt>
      <trkpt lat="48.03618" lon="6.68585">
        <ele>480.2</ele>
        <time>2022-05-27T09:47:36Z</time>
      </trkpt>
      <trkpt lat="48.03628" lon="6.68573">
        <ele>476</ele>
        <time>2022-05-27T09:47:39Z</time>
      </trkpt>
      <trkpt lat="48.03639" lon="6.68562">
        <ele>474.5</ele>
        <time>2022-05-27T09:47:42Z</time>
      </trkpt>
      <trkpt lat="48.03649" lon="6.68558">
        <ele>473.5</ele>
        <time>2022-05-27T09:47:44Z</time>
      </trkpt>
      <trkpt lat="48.03661" lon="6.68559">
        <ele>474</ele>
        <time>2022-05-27T09:47:47Z</time>
      </trkpt>
      <trkpt lat="48.03671" lon="6.68558">
        <ele>474.8</ele>
        <time>2022-05-27T09:47:52Z</time>
      </trkpt>
      <trkpt lat="48.0368" lon="6.68556">
        <ele>475</ele>
        <time>2022-05-27T09:47:58Z</time>
      </trkpt>
      <trkpt lat="48.03691" lon="6.68552">
        <ele>474.8</ele>
        <time>2022-05-27T09:48:03Z</time>
      </trkpt>
      <trkpt lat="48.03701" lon="6.68547">
        <ele>475.4</ele>
        <time>2022-05-27T09:48:08Z</time>
      </trkpt>
      <trkpt lat="48.03709" lon="6.68556">
        <ele>473.9</ele>
        <time>2022-05-27T09:48:12Z</time>
      </trkpt>
      <trkpt lat="48.03708" lon="6.68569">
        <ele>473.6</ele>
        <time>2022-05-27T09:48:16Z</time>
      </trkpt>
      <trkpt lat="48.03701" lon="6.68581">
        <ele>473.6</ele>
        <time>2022-05-27T09:48:19Z</time>
      </trkpt>
      <trkpt lat="48.03693" lon="6.68594">
        <ele>472</ele>
        <time>2022-05-27T09:48:22Z</time>
      </trkpt>
      <trkpt lat="48.03685" lon="6.68604">
        <ele>471.5</ele>
        <time>2022-05-27T09:48:25Z</time>
      </trkpt>
      <trkpt lat="48.03678" lon="6.68618">
        <ele>470.9</ele>
        <time>2022-05-27T09:48:28Z</time>
      </trkpt>
      <trkpt lat="48.03674" lon="6.6863">
        <ele>472.8</ele>
        <time>2022-05-27T09:48:31Z</time>
      </trkpt>
      <trkpt lat="48.03672" lon="6.68645">
        <ele>472.7</ele>
        <time>2022-05-27T09:48:36Z</time>
      </trkpt>
      <trkpt lat="48.0368" lon="6.68657">
        <ele>471.7</ele>
        <time>2022-05-27T09:48:41Z</time>
      </trkpt>
      <trkpt lat="48.0369" lon="6.68666">
        <ele>471.4</ele>
        <time>2022-05-27T09:48:45Z</time>
      </trkpt>
      <trkpt lat="48.03698" lon="6.68672">
        <ele>471</ele>
        <time>2022-05-27T09:48:48Z</time>
      </trkpt>
      <trkpt lat="48.03707" lon="6.68673">
        <ele>472.6</ele>
        <time>2022-05-27T09:48:51Z</time>
      </trkpt>
      <trkpt lat="48.03717" lon="6.68668">
        <ele>475.5</ele>
        <time>2022-05-27T09:48:55Z</time>
      </trkpt>
      <trkpt lat="48.03725" lon="6.6866">
        <ele>473.4</ele>
        <time>2022-05-27T09:48:59Z</time>
      </trkpt>
      <trkpt lat="48.03735" lon="6.68652">
        <ele>473.9</ele>
        <time>2022-05-27T09:49:04Z</time>
      </trkpt>
      <trkpt lat="48.03743" lon="6.68643">
        <ele>475</ele>
        <time>2022-05-27T09:49:08Z</time>
      </trkpt>
      <trkpt lat="48.03752" lon="6.68634">
        <ele>474.6</ele>
        <time>2022-05-27T09:49:13Z</time>
      </trkpt>
      <trkpt lat="48.03759" lon="6.68624">
        <ele>475.6</ele>
        <time>2022-05-27T09:49:17Z</time>
      </trkpt>
      <trkpt lat="48.03768" lon="6.68613">
        <ele>475.7</ele>
        <time>2022-05-27T09:49:22Z</time>
      </trkpt>
      <trkpt lat="48.03777" lon="6.68603">
        <ele>475.8</ele>
        <time>2022-05-27T09:49:26Z</time>
      </trkpt>
      <trkpt lat="48.03785" lon="6.68593">
        <ele>474.5</ele>
        <time>2022-05-27T09:49:29Z</time>
      </trkpt>
      <trkpt lat="48.03794" lon="6.68578">
        <ele>473.9</ele>
        <time>2022-05-27T09:49:32Z</time>
      </trkpt>
      <trkpt lat="48.03802" lon="6.68567">
        <ele>474.2</ele>
        <time>2022-05-27T09:49:34Z</time>
      </trkpt>
      <trkpt lat="48.03811" lon="6.68559">
        <ele>474.2</ele>
        <time>2022-05-27T09:49:36Z</time>
      </trkpt>
      <trkpt lat="48.03822" lon="6.68553">
        <ele>473.9</ele>
        <time>2022-05-27T09:49:39Z</time>
      </trkpt>
      <trkpt lat="48.03831" lon="6.68547">
        <ele>474.2</ele>
        <time>2022-05-27T09:49:42Z</time>
      </trkpt>
      <trkpt lat="48.03841" lon="6.68542">
        <ele>474.8</ele>
        <time>2022-05-27T09:49:46Z</time>
      </trkpt>
      <trkpt lat="48.0385" lon="6.68536">
        <ele>475.4</ele>
        <time>2022-05-27T09:49:50Z</time>
      </trkpt>
      <trkpt lat="48.0386" lon="6.6853">
        <ele>475.8</ele>
        <time>2022-05-27T09:49:54Z</time>
      </trkpt>
      <trkpt lat="48.03869" lon="6.68524">
        <ele>475.7</ele>
        <time>2022-05-27T09:49:57Z</time>
      </trkpt>
      <trkpt lat="48.03877" lon="6.68519">
        <ele>475.5</ele>
        <time>2022-05-27T09:50:00Z</time>
      </trkpt>
      <trkpt lat="48.03888" lon="6.68514">
        <ele>476.3</ele>
        <time>2022-05-27T09:50:04Z</time>
      </trkpt>
      <trkpt lat="48.039" lon="6.6851">
        <ele>476.7</ele>
        <time>2022-05-27T09:50:08Z</time>
      </trkpt>
      <trkpt lat="48.0391" lon="6.68508">
        <ele>477.6</ele>
        <time>2022-05-27T09:50:12Z</time>
      </trkpt>
      <trkpt lat="48.0392" lon="6.68504">
        <ele>478.3</ele>
        <time>2022-05-27T09:50:16Z</time>
      </trkpt>
      <trkpt lat="48.03931" lon="6.68496">
        <ele>478.2</ele>
        <time>2022-05-27T09:50:20Z</time>
      </trkpt>
      <trkpt lat="48.03939" lon="6.6849">
        <ele>478.2</ele>
        <time>2022-05-27T09:50:23Z</time>
      </trkpt>
      <trkpt lat="48.03947" lon="6.68482">
        <ele>478.3</ele>
        <time>2022-05-27T09:50:27Z</time>
      </trkpt>
      <trkpt lat="48.03956" lon="6.68474">
        <ele>479.1</ele>
        <time>2022-05-27T09:50:31Z</time>
      </trkpt>
      <trkpt lat="48.03965" lon="6.68467">
        <ele>480.5</ele>
        <time>2022-05-27T09:50:36Z</time>
      </trkpt>
      <trkpt lat="48.03976" lon="6.68465">
        <ele>481.7</ele>
        <time>2022-05-27T09:50:41Z</time>
      </trkpt>
      <trkpt lat="48.03986" lon="6.68469">
        <ele>482.9</ele>
        <time>2022-05-27T09:50:46Z</time>
      </trkpt>
      <trkpt lat="48.03995" lon="6.68472">
        <ele>483.9</ele>
        <time>2022-05-27T09:50:51Z</time>
      </trkpt>
      <trkpt lat="48.04004" lon="6.68475">
        <ele>485.3</ele>
        <time>2022-05-27T09:50:57Z</time>
      </trkpt>
      <trkpt lat="48.04013" lon="6.68478">
        <ele>486.3</ele>
        <time>2022-05-27T09:51:03Z</time>
      </trkpt>
      <trkpt lat="48.04023" lon="6.68483">
        <ele>487.4</ele>
        <time>2022-05-27T09:51:09Z</time>
      </trkpt>
      <trkpt lat="48.04034" lon="6.68486">
        <ele>488.5</ele>
        <time>2022-05-27T09:51:15Z</time>
      </trkpt>
      <trkpt lat="48.04043" lon="6.68483">
        <ele>489</ele>
        <time>2022-05-27T09:51:21Z</time>
      </trkpt>
      <trkpt lat="48.04053" lon="6.68478">
        <ele>489.6</ele>
        <time>2022-05-27T09:51:26Z</time>
      </trkpt>
      <trkpt lat="48.04062" lon="6.68472">
        <ele>489.9</ele>
        <time>2022-05-27T09:51:31Z</time>
      </trkpt>
      <trkpt lat="48.04072" lon="6.68469">
        <ele>490.1</ele>
        <time>2022-05-27T09:51:36Z</time>
      </trkpt>
      <trkpt lat="48.04082" lon="6.68465">
        <ele>491.6</ele>
        <time>2022-05-27T09:51:41Z</time>
      </trkpt>
      <trkpt lat="48.04091" lon="6.68462">
        <ele>493.6</ele>
        <time>2022-05-27T09:51:47Z</time>
      </trkpt>
      <trkpt lat="48.04101" lon="6.68458">
        <ele>495.1</ele>
        <time>2022-05-27T09:51:55Z</time>
      </trkpt>
      <trkpt lat="48.0411" lon="6.68454">
        <ele>496.7</ele>
        <time>2022-05-27T09:52:00Z</time>
      </trkpt>
      <trkpt lat="48.0412" lon="6.68447">
        <ele>497.7</ele>
        <time>2022-05-27T09:52:06Z</time>
      </trkpt>
      <trkpt lat="48.0413" lon="6.68443">
        <ele>499.4</ele>
        <time>2022-05-27T09:52:12Z</time>
      </trkpt>
      <trkpt lat="48.0414" lon="6.68444">
        <ele>500.5</ele>
        <time>2022-05-27T09:52:18Z</time>
      </trkpt>
      <trkpt lat="48.04149" lon="6.68446">
        <ele>501</ele>
        <time>2022-05-27T09:52:24Z</time>
      </trkpt>
      <trkpt lat="48.04159" lon="6.68449">
        <ele>502.9</ele>
        <time>2022-05-27T09:52:30Z</time>
      </trkpt>
      <trkpt lat="48.04168" lon="6.68453">
        <ele>503.8</ele>
        <time>2022-05-27T09:52:36Z</time>
      </trkpt>
      <trkpt lat="48.04176" lon="6.68458">
        <ele>506.4</ele>
        <time>2022-05-27T09:52:42Z</time>
      </trkpt>
      <trkpt lat="48.04185" lon="6.68465">
        <ele>506.2</ele>
        <time>2022-05-27T09:52:48Z</time>
      </trkpt>
      <trkpt lat="48.04193" lon="6.68474">
        <ele>508.9</ele>
        <time>2022-05-27T09:52:58Z</time>
      </trkpt>
      <trkpt lat="48.042" lon="6.68484">
        <ele>510.6</ele>
        <time>2022-05-27T09:53:04Z</time>
      </trkpt>
      <trkpt lat="48.04209" lon="6.6849">
        <ele>512.2</ele>
        <time>2022-05-27T09:53:09Z</time>
      </trkpt>
      <trkpt lat="48.04217" lon="6.68496">
        <ele>513.9</ele>
        <time>2022-05-27T09:53:15Z</time>
      </trkpt>
      <trkpt lat="48.04226" lon="6.685">
        <ele>514.9</ele>
        <time>2022-05-27T09:53:21Z</time>
      </trkpt>
      <trkpt lat="48.04234" lon="6.6851">
        <ele>515.7</ele>
        <time>2022-05-27T09:53:29Z</time>
      </trkpt>
      <trkpt lat="48.0424" lon="6.68521">
        <ele>516.7</ele>
        <time>2022-05-27T09:53:35Z</time>
      </trkpt>
      <trkpt lat="48.04241" lon="6.68535">
        <ele>519.5</ele>
        <time>2022-05-27T09:53:42Z</time>
      </trkpt>
      <trkpt lat="48.04234" lon="6.68546">
        <ele>520.9</ele>
        <time>2022-05-27T09:53:49Z</time>
      </trkpt>
      <trkpt lat="48.04227" lon="6.68554">
        <ele>522.3</ele>
        <time>2022-05-27T09:53:56Z</time>
      </trkpt>
      <trkpt lat="48.04217" lon="6.68562">
        <ele>523.4</ele>
        <time>2022-05-27T09:54:03Z</time>
      </trkpt>
      <trkpt lat="48.0421" lon="6.68571">
        <ele>524.4</ele>
        <time>2022-05-27T09:54:09Z</time>
      </trkpt>
      <trkpt lat="48.04203" lon="6.68582">
        <ele>525.5</ele>
        <time>2022-05-27T09:54:15Z</time>
      </trkpt>
      <trkpt lat="48.04197" lon="6.68594">
        <ele>527.6</ele>
        <time>2022-05-27T09:54:22Z</time>
      </trkpt>
      <trkpt lat="48.04189" lon="6.68603">
        <ele>529.1</ele>
        <time>2022-05-27T09:54:29Z</time>
      </trkpt>
      <trkpt lat="48.0418" lon="6.68607">
        <ele>530.2</ele>
        <time>2022-05-27T09:54:35Z</time>
      </trkpt>
      <trkpt lat="48.04169" lon="6.68607">
        <ele>530.6</ele>
        <time>2022-05-27T09:54:41Z</time>
      </trkpt>
      <trkpt lat="48.04159" lon="6.68605">
        <ele>531.9</ele>
        <time>2022-05-27T09:54:46Z</time>
      </trkpt>
      <trkpt lat="48.04149" lon="6.686">
        <ele>532</ele>
        <time>2022-05-27T09:54:51Z</time>
      </trkpt>
      <trkpt lat="48.04138" lon="6.68597">
        <ele>532.8</ele>
        <time>2022-05-27T09:54:56Z</time>
      </trkpt>
      <trkpt lat="48.04127" lon="6.68594">
        <ele>532.2</ele>
        <time>2022-05-27T09:55:00Z</time>
      </trkpt>
      <trkpt lat="48.04118" lon="6.68595">
        <ele>532.5</ele>
        <time>2022-05-27T09:55:04Z</time>
      </trkpt>
      <trkpt lat="48.04113" lon="6.68601">
        <ele>532.6</ele>
        <time>2022-05-27T09:55:12Z</time>
      </trkpt>
      <trkpt lat="48.04112" lon="6.68601">
        <ele>532.7</ele>
        <time>2022-05-27T09:55:46Z</time>
      </trkpt>
      <trkpt lat="48.04101" lon="6.68607">
        <ele>531.8</ele>
        <time>2022-05-27T09:55:52Z</time>
      </trkpt>
      <trkpt lat="48.04092" lon="6.68613">
        <ele>531.4</ele>
        <time>2022-05-27T09:55:55Z</time>
      </trkpt>
      <trkpt lat="48.04082" lon="6.68618">
        <ele>531.3</ele>
        <time>2022-05-27T09:55:58Z</time>
      </trkpt>
      <trkpt lat="48.04072" lon="6.68625">
        <ele>531.2</ele>
        <time>2022-05-27T09:56:01Z</time>
      </trkpt>
      <trkpt lat="48.04062" lon="6.68633">
        <ele>531.2</ele>
        <time>2022-05-27T09:56:04Z</time>
      </trkpt>
      <trkpt lat="48.04052" lon="6.6864">
        <ele>530.2</ele>
        <time>2022-05-27T09:56:07Z</time>
      </trkpt>
      <trkpt lat="48.04042" lon="6.68648">
        <ele>531.3</ele>
        <time>2022-05-27T09:56:10Z</time>
      </trkpt>
      <trkpt lat="48.0403" lon="6.68653">
        <ele>532.1</ele>
        <time>2022-05-27T09:56:13Z</time>
      </trkpt>
      <trkpt lat="48.04019" lon="6.68658">
        <ele>531.5</ele>
        <time>2022-05-27T09:56:16Z</time>
      </trkpt>
      <trkpt lat="48.0401" lon="6.68664">
        <ele>531.7</ele>
        <time>2022-05-27T09:56:19Z</time>
      </trkpt>
      <trkpt lat="48.04" lon="6.68671">
        <ele>531.3</ele>
        <time>2022-05-27T09:56:22Z</time>
      </trkpt>
      <trkpt lat="48.03991" lon="6.68679">
        <ele>531.3</ele>
        <time>2022-05-27T09:56:25Z</time>
      </trkpt>
      <trkpt lat="48.03981" lon="6.68686">
        <ele>531.5</ele>
        <time>2022-05-27T09:56:28Z</time>
      </trkpt>
      <trkpt lat="48.03971" lon="6.68693">
        <ele>531.9</ele>
        <time>2022-05-27T09:56:31Z</time>
      </trkpt>
      <trkpt lat="48.03961" lon="6.68699">
        <ele>532.2</ele>
        <time>2022-05-27T09:56:34Z</time>
      </trkpt>
      <trkpt lat="48.03952" lon="6.68706">
        <ele>531.4</ele>
        <time>2022-05-27T09:56:37Z</time>
      </trkpt>
      <trkpt lat="48.03945" lon="6.68715">
        <ele>531.7</ele>
        <time>2022-05-27T09:56:40Z</time>
      </trkpt>
      <trkpt lat="48.03938" lon="6.68725">
        <ele>531.2</ele>
        <time>2022-05-27T09:56:43Z</time>
      </trkpt>
      <trkpt lat="48.0393" lon="6.68736">
        <ele>532.3</ele>
        <time>2022-05-27T09:56:47Z</time>
      </trkpt>
      <trkpt lat="48.03926" lon="6.68749">
        <ele>532.1</ele>
        <time>2022-05-27T09:56:51Z</time>
      </trkpt>
      <trkpt lat="48.03922" lon="6.68761">
        <ele>534</ele>
        <time>2022-05-27T09:56:55Z</time>
      </trkpt>
      <trkpt lat="48.03917" lon="6.68773">
        <ele>534</ele>
        <time>2022-05-27T09:56:59Z</time>
      </trkpt>
      <trkpt lat="48.03912" lon="6.68785">
        <ele>536.3</ele>
        <time>2022-05-27T09:57:05Z</time>
      </trkpt>
      <trkpt lat="48.03908" lon="6.68799">
        <ele>537.8</ele>
        <time>2022-05-27T09:57:11Z</time>
      </trkpt>
      <trkpt lat="48.03905" lon="6.68812">
        <ele>538.5</ele>
        <time>2022-05-27T09:57:16Z</time>
      </trkpt>
      <trkpt lat="48.039" lon="6.68823">
        <ele>540.8</ele>
        <time>2022-05-27T09:57:21Z</time>
      </trkpt>
      <trkpt lat="48.03897" lon="6.68838">
        <ele>541.9</ele>
        <time>2022-05-27T09:57:26Z</time>
      </trkpt>
      <trkpt lat="48.03896" lon="6.68852">
        <ele>543.4</ele>
        <time>2022-05-27T09:57:31Z</time>
      </trkpt>
      <trkpt lat="48.03894" lon="6.68865">
        <ele>544.2</ele>
        <time>2022-05-27T09:57:36Z</time>
      </trkpt>
      <trkpt lat="48.0389" lon="6.68878">
        <ele>545.9</ele>
        <time>2022-05-27T09:57:41Z</time>
      </trkpt>
      <trkpt lat="48.03887" lon="6.68892">
        <ele>546.4</ele>
        <time>2022-05-27T09:57:47Z</time>
      </trkpt>
      <trkpt lat="48.03882" lon="6.68906">
        <ele>548.3</ele>
        <time>2022-05-27T09:57:53Z</time>
      </trkpt>
      <trkpt lat="48.03878" lon="6.68918">
        <ele>550.2</ele>
        <time>2022-05-27T09:57:58Z</time>
      </trkpt>
      <trkpt lat="48.03875" lon="6.68932">
        <ele>550.6</ele>
        <time>2022-05-27T09:58:03Z</time>
      </trkpt>
      <trkpt lat="48.0387" lon="6.68945">
        <ele>551.4</ele>
        <time>2022-05-27T09:58:08Z</time>
      </trkpt>
      <trkpt lat="48.03865" lon="6.68957">
        <ele>553.5</ele>
        <time>2022-05-27T09:58:13Z</time>
      </trkpt>
      <trkpt lat="48.03859" lon="6.68971">
        <ele>553.3</ele>
        <time>2022-05-27T09:58:18Z</time>
      </trkpt>
      <trkpt lat="48.03853" lon="6.68981">
        <ele>554</ele>
        <time>2022-05-27T09:58:22Z</time>
      </trkpt>
      <trkpt lat="48.03846" lon="6.68992">
        <ele>555.6</ele>
        <time>2022-05-27T09:58:26Z</time>
      </trkpt>
      <trkpt lat="48.0384" lon="6.69003">
        <ele>556.1</ele>
        <time>2022-05-27T09:58:30Z</time>
      </trkpt>
      <trkpt lat="48.03832" lon="6.69013">
        <ele>556.5</ele>
        <time>2022-05-27T09:58:34Z</time>
      </trkpt>
      <trkpt lat="48.03825" lon="6.69023">
        <ele>557.5</ele>
        <time>2022-05-27T09:58:38Z</time>
      </trkpt>
      <trkpt lat="48.03819" lon="6.69034">
        <ele>557.6</ele>
        <time>2022-05-27T09:58:42Z</time>
      </trkpt>
      <trkpt lat="48.03811" lon="6.69044">
        <ele>557.4</ele>
        <time>2022-05-27T09:58:46Z</time>
      </trkpt>
      <trkpt lat="48.03802" lon="6.69053">
        <ele>558.2</ele>
        <time>2022-05-27T09:58:50Z</time>
      </trkpt>
      <trkpt lat="48.03793" lon="6.69062">
        <ele>558.3</ele>
        <time>2022-05-27T09:58:54Z</time>
      </trkpt>
      <trkpt lat="48.03783" lon="6.69069">
        <ele>558.3</ele>
        <time>2022-05-27T09:58:58Z</time>
      </trkpt>
      <trkpt lat="48.03772" lon="6.69077">
        <ele>558.4</ele>
        <time>2022-05-27T09:59:02Z</time>
      </trkpt>
      <trkpt lat="48.03764" lon="6.69083">
        <ele>558.4</ele>
        <time>2022-05-27T09:59:05Z</time>
      </trkpt>
      <trkpt lat="48.03756" lon="6.6909">
        <ele>558.5</ele>
        <time>2022-05-27T09:59:08Z</time>
      </trkpt>
      <trkpt lat="48.03748" lon="6.69099">
        <ele>559.3</ele>
        <time>2022-05-27T09:59:11Z</time>
      </trkpt>
      <trkpt lat="48.03741" lon="6.69108">
        <ele>559.2</ele>
        <time>2022-05-27T09:59:14Z</time>
      </trkpt>
      <trkpt lat="48.03732" lon="6.69118">
        <ele>560.1</ele>
        <time>2022-05-27T09:59:18Z</time>
      </trkpt>
      <trkpt lat="48.03722" lon="6.69126">
        <ele>560.8</ele>
        <time>2022-05-27T09:59:22Z</time>
      </trkpt>
      <trkpt lat="48.03712" lon="6.69134">
        <ele>561.2</ele>
        <time>2022-05-27T09:59:26Z</time>
      </trkpt>
      <trkpt lat="48.03703" lon="6.69142">
        <ele>560.8</ele>
        <time>2022-05-27T09:59:30Z</time>
      </trkpt>
      <trkpt lat="48.03694" lon="6.69151">
        <ele>561.3</ele>
        <time>2022-05-27T09:59:34Z</time>
      </trkpt>
      <trkpt lat="48.03685" lon="6.69161">
        <ele>561.5</ele>
        <time>2022-05-27T09:59:38Z</time>
      </trkpt>
      <trkpt lat="48.03676" lon="6.69172">
        <ele>560.7</ele>
        <time>2022-05-27T09:59:42Z</time>
      </trkpt>
      <trkpt lat="48.03668" lon="6.6918">
        <ele>562.4</ele>
        <time>2022-05-27T09:59:46Z</time>
      </trkpt>
      <trkpt lat="48.0366" lon="6.69188">
        <ele>562.3</ele>
        <time>2022-05-27T09:59:50Z</time>
      </trkpt>
      <trkpt lat="48.03652" lon="6.69195">
        <ele>565.4</ele>
        <time>2022-05-27T09:59:55Z</time>
      </trkpt>
      <trkpt lat="48.03643" lon="6.69202">
        <ele>566.3</ele>
        <time>2022-05-27T10:00:01Z</time>
      </trkpt>
      <trkpt lat="48.03635" lon="6.69211">
        <ele>568.9</ele>
        <time>2022-05-27T10:00:07Z</time>
      </trkpt>
      <trkpt lat="48.03626" lon="6.69217">
        <ele>569.5</ele>
        <time>2022-05-27T10:00:12Z</time>
      </trkpt>
      <trkpt lat="48.03618" lon="6.69225">
        <ele>569.7</ele>
        <time>2022-05-27T10:00:17Z</time>
      </trkpt>
      <trkpt lat="48.03611" lon="6.69236">
        <ele>571.2</ele>
        <time>2022-05-27T10:00:23Z</time>
      </trkpt>
      <trkpt lat="48.03602" lon="6.69245">
        <ele>572.6</ele>
        <time>2022-05-27T10:00:29Z</time>
      </trkpt>
      <trkpt lat="48.03594" lon="6.69253">
        <ele>574.8</ele>
        <time>2022-05-27T10:00:35Z</time>
      </trkpt>
      <trkpt lat="48.03584" lon="6.69261">
        <ele>575.9</ele>
        <time>2022-05-27T10:00:41Z</time>
      </trkpt>
      <trkpt lat="48.03576" lon="6.69267">
        <ele>576.8</ele>
        <time>2022-05-27T10:00:47Z</time>
      </trkpt>
      <trkpt lat="48.03567" lon="6.69274">
        <ele>578.3</ele>
        <time>2022-05-27T10:00:52Z</time>
      </trkpt>
      <trkpt lat="48.03568" lon="6.6929">
        <ele>579.2</ele>
        <time>2022-05-27T10:00:57Z</time>
      </trkpt>
      <trkpt lat="48.03575" lon="6.69298">
        <ele>580.7</ele>
        <time>2022-05-27T10:01:02Z</time>
      </trkpt>
      <trkpt lat="48.03584" lon="6.69297">
        <ele>581.6</ele>
        <time>2022-05-27T10:01:07Z</time>
      </trkpt>
      <trkpt lat="48.03593" lon="6.69296">
        <ele>582.6</ele>
        <time>2022-05-27T10:01:12Z</time>
      </trkpt>
      <trkpt lat="48.03598" lon="6.69307">
        <ele>583.4</ele>
        <time>2022-05-27T10:01:16Z</time>
      </trkpt>
      <trkpt lat="48.03593" lon="6.69319">
        <ele>584.6</ele>
        <time>2022-05-27T10:01:21Z</time>
      </trkpt>
      <trkpt lat="48.03583" lon="6.69319">
        <ele>584.6</ele>
        <time>2022-05-27T10:01:25Z</time>
      </trkpt>
      <trkpt lat="48.03574" lon="6.6932">
        <ele>585.2</ele>
        <time>2022-05-27T10:01:29Z</time>
      </trkpt>
      <trkpt lat="48.03565" lon="6.69321">
        <ele>586.2</ele>
        <time>2022-05-27T10:01:33Z</time>
      </trkpt>
      <trkpt lat="48.03556" lon="6.69324">
        <ele>585.5</ele>
        <time>2022-05-27T10:01:37Z</time>
      </trkpt>
      <trkpt lat="48.03547" lon="6.69331">
        <ele>585.7</ele>
        <time>2022-05-27T10:01:41Z</time>
      </trkpt>
      <trkpt lat="48.03538" lon="6.6934">
        <ele>586.6</ele>
        <time>2022-05-27T10:01:45Z</time>
      </trkpt>
      <trkpt lat="48.03531" lon="6.6935">
        <ele>586.4</ele>
        <time>2022-05-27T10:01:48Z</time>
      </trkpt>
      <trkpt lat="48.03523" lon="6.69362">
        <ele>586.7</ele>
        <time>2022-05-27T10:01:52Z</time>
      </trkpt>
      <trkpt lat="48.03516" lon="6.69373">
        <ele>586.8</ele>
        <time>2022-05-27T10:01:56Z</time>
      </trkpt>
      <trkpt lat="48.0351" lon="6.69385">
        <ele>587.6</ele>
        <time>2022-05-27T10:02:00Z</time>
      </trkpt>
      <trkpt lat="48.03504" lon="6.69398">
        <ele>587.5</ele>
        <time>2022-05-27T10:02:04Z</time>
      </trkpt>
      <trkpt lat="48.03497" lon="6.69412">
        <ele>587.5</ele>
        <time>2022-05-27T10:02:08Z</time>
      </trkpt>
      <trkpt lat="48.03491" lon="6.69426">
        <ele>587.7</ele>
        <time>2022-05-27T10:02:12Z</time>
      </trkpt>
      <trkpt lat="48.03485" lon="6.69439">
        <ele>587.5</ele>
        <time>2022-05-27T10:02:16Z</time>
      </trkpt>
      <trkpt lat="48.0348" lon="6.69452">
        <ele>587.7</ele>
        <time>2022-05-27T10:02:20Z</time>
      </trkpt>
      <trkpt lat="48.03477" lon="6.69467">
        <ele>589.3</ele>
        <time>2022-05-27T10:02:24Z</time>
      </trkpt>
      <trkpt lat="48.03477" lon="6.69484">
        <ele>589.6</ele>
        <time>2022-05-27T10:02:28Z</time>
      </trkpt>
      <trkpt lat="48.03477" lon="6.69497">
        <ele>590.4</ele>
        <time>2022-05-27T10:02:32Z</time>
      </trkpt>
      <trkpt lat="48.03478" lon="6.69514">
        <ele>590.7</ele>
        <time>2022-05-27T10:02:37Z</time>
      </trkpt>
      <trkpt lat="48.03476" lon="6.69529">
        <ele>591.9</ele>
        <time>2022-05-27T10:02:42Z</time>
      </trkpt>
      <trkpt lat="48.03467" lon="6.69538">
        <ele>593.9</ele>
        <time>2022-05-27T10:02:47Z</time>
      </trkpt>
      <trkpt lat="48.03456" lon="6.69543">
        <ele>593.8</ele>
        <time>2022-05-27T10:02:52Z</time>
      </trkpt>
      <trkpt lat="48.03446" lon="6.69547">
        <ele>594.7</ele>
        <time>2022-05-27T10:02:57Z</time>
      </trkpt>
      <trkpt lat="48.03438" lon="6.69552">
        <ele>595.1</ele>
        <time>2022-05-27T10:03:01Z</time>
      </trkpt>
      <trkpt lat="48.03429" lon="6.6956">
        <ele>595.3</ele>
        <time>2022-05-27T10:03:05Z</time>
      </trkpt>
      <trkpt lat="48.0342" lon="6.69571">
        <ele>596.1</ele>
        <time>2022-05-27T10:03:09Z</time>
      </trkpt>
      <trkpt lat="48.03413" lon="6.69581">
        <ele>597.8</ele>
        <time>2022-05-27T10:03:13Z</time>
      </trkpt>
      <trkpt lat="48.03406" lon="6.69594">
        <ele>598.8</ele>
        <time>2022-05-27T10:03:18Z</time>
      </trkpt>
      <trkpt lat="48.034" lon="6.69606">
        <ele>599.5</ele>
        <time>2022-05-27T10:03:23Z</time>
      </trkpt>
      <trkpt lat="48.03393" lon="6.69619">
        <ele>599</ele>
        <time>2022-05-27T10:03:28Z</time>
      </trkpt>
      <trkpt lat="48.03389" lon="6.69632">
        <ele>599.8</ele>
        <time>2022-05-27T10:03:32Z</time>
      </trkpt>
      <trkpt lat="48.03387" lon="6.69646">
        <ele>600.3</ele>
        <time>2022-05-27T10:03:36Z</time>
      </trkpt>
      <trkpt lat="48.03386" lon="6.6966">
        <ele>600.5</ele>
        <time>2022-05-27T10:03:40Z</time>
      </trkpt>
      <trkpt lat="48.03388" lon="6.69674">
        <ele>601.5</ele>
        <time>2022-05-27T10:03:44Z</time>
      </trkpt>
      <trkpt lat="48.03389" lon="6.6969">
        <ele>603.5</ele>
        <time>2022-05-27T10:03:49Z</time>
      </trkpt>
      <trkpt lat="48.03391" lon="6.69706">
        <ele>603.9</ele>
        <time>2022-05-27T10:03:54Z</time>
      </trkpt>
      <trkpt lat="48.03393" lon="6.69721">
        <ele>605.7</ele>
        <time>2022-05-27T10:03:59Z</time>
      </trkpt>
      <trkpt lat="48.03395" lon="6.69737">
        <ele>605.6</ele>
        <time>2022-05-27T10:04:05Z</time>
      </trkpt>
      <trkpt lat="48.03398" lon="6.69752">
        <ele>607.5</ele>
        <time>2022-05-27T10:04:10Z</time>
      </trkpt>
      <trkpt lat="48.03402" lon="6.69767">
        <ele>609.2</ele>
        <time>2022-05-27T10:04:15Z</time>
      </trkpt>
      <trkpt lat="48.03404" lon="6.69781">
        <ele>610.4</ele>
        <time>2022-05-27T10:04:20Z</time>
      </trkpt>
      <trkpt lat="48.03407" lon="6.69796">
        <ele>611.9</ele>
        <time>2022-05-27T10:04:25Z</time>
      </trkpt>
      <trkpt lat="48.0341" lon="6.69812">
        <ele>613</ele>
        <time>2022-05-27T10:04:30Z</time>
      </trkpt>
      <trkpt lat="48.03417" lon="6.69823">
        <ele>614</ele>
        <time>2022-05-27T10:04:36Z</time>
      </trkpt>
      <trkpt lat="48.03426" lon="6.69817">
        <ele>615.6</ele>
        <time>2022-05-27T10:04:42Z</time>
      </trkpt>
      <trkpt lat="48.03429" lon="6.69801">
        <ele>617.1</ele>
        <time>2022-05-27T10:04:48Z</time>
      </trkpt>
      <trkpt lat="48.03428" lon="6.69787">
        <ele>617.7</ele>
        <time>2022-05-27T10:04:53Z</time>
      </trkpt>
      <trkpt lat="48.03436" lon="6.69778">
        <ele>619</ele>
        <time>2022-05-27T10:04:59Z</time>
      </trkpt>
      <trkpt lat="48.03442" lon="6.6979">
        <ele>620.1</ele>
        <time>2022-05-27T10:05:04Z</time>
      </trkpt>
      <trkpt lat="48.03446" lon="6.69803">
        <ele>620.9</ele>
        <time>2022-05-27T10:05:08Z</time>
      </trkpt>
      <trkpt lat="48.03448" lon="6.69816">
        <ele>622.1</ele>
        <time>2022-05-27T10:05:12Z</time>
      </trkpt>
      <trkpt lat="48.03449" lon="6.69831">
        <ele>622.2</ele>
        <time>2022-05-27T10:05:16Z</time>
      </trkpt>
      <trkpt lat="48.03447" lon="6.69845">
        <ele>622.7</ele>
        <time>2022-05-27T10:05:20Z</time>
      </trkpt>
      <trkpt lat="48.03443" lon="6.69859">
        <ele>623.4</ele>
        <time>2022-05-27T10:05:25Z</time>
      </trkpt>
      <trkpt lat="48.03439" lon="6.69873">
        <ele>623.2</ele>
        <time>2022-05-27T10:05:30Z</time>
      </trkpt>
      <trkpt lat="48.03433" lon="6.69887">
        <ele>623.1</ele>
        <time>2022-05-27T10:05:35Z</time>
      </trkpt>
      <trkpt lat="48.03437" lon="6.69899">
        <ele>622.6</ele>
        <time>2022-05-27T10:05:40Z</time>
      </trkpt>
      <trkpt lat="48.03443" lon="6.69889">
        <ele>624.9</ele>
        <time>2022-05-27T10:05:48Z</time>
      </trkpt>
      <trkpt lat="48.03447" lon="6.69876">
        <ele>625.9</ele>
        <time>2022-05-27T10:05:54Z</time>
      </trkpt>
      <trkpt lat="48.03454" lon="6.69866">
        <ele>627.4</ele>
        <time>2022-05-27T10:06:00Z</time>
      </trkpt>
      <trkpt lat="48.03461" lon="6.69856">
        <ele>628.6</ele>
        <time>2022-05-27T10:06:06Z</time>
      </trkpt>
      <trkpt lat="48.03469" lon="6.69849">
        <ele>631.6</ele>
        <time>2022-05-27T10:06:13Z</time>
      </trkpt>
      <trkpt lat="48.03479" lon="6.69842">
        <ele>633.1</ele>
        <time>2022-05-27T10:06:20Z</time>
      </trkpt>
      <trkpt lat="48.03487" lon="6.69835">
        <ele>635.1</ele>
        <time>2022-05-27T10:06:27Z</time>
      </trkpt>
      <trkpt lat="48.03494" lon="6.69825">
        <ele>637.4</ele>
        <time>2022-05-27T10:06:35Z</time>
      </trkpt>
      <trkpt lat="48.03501" lon="6.69815">
        <ele>639.8</ele>
        <time>2022-05-27T10:06:42Z</time>
      </trkpt>
      <trkpt lat="48.0351" lon="6.69808">
        <ele>641.7</ele>
        <time>2022-05-27T10:06:50Z</time>
      </trkpt>
      <trkpt lat="48.03518" lon="6.69802">
        <ele>643.1</ele>
        <time>2022-05-27T10:06:57Z</time>
      </trkpt>
      <trkpt lat="48.03527" lon="6.69797">
        <ele>643.9</ele>
        <time>2022-05-27T10:07:03Z</time>
      </trkpt>
      <trkpt lat="48.03536" lon="6.69789">
        <ele>645.1</ele>
        <time>2022-05-27T10:07:10Z</time>
      </trkpt>
      <trkpt lat="48.03544" lon="6.6978">
        <ele>646.9</ele>
        <time>2022-05-27T10:07:16Z</time>
      </trkpt>
      <trkpt lat="48.03552" lon="6.6977">
        <ele>647.9</ele>
        <time>2022-05-27T10:07:22Z</time>
      </trkpt>
      <trkpt lat="48.03557" lon="6.69759">
        <ele>650.1</ele>
        <time>2022-05-27T10:07:27Z</time>
      </trkpt>
      <trkpt lat="48.03562" lon="6.69745">
        <ele>649.7</ele>
        <time>2022-05-27T10:07:32Z</time>
      </trkpt>
      <trkpt lat="48.03566" lon="6.69731">
        <ele>650.1</ele>
        <time>2022-05-27T10:07:36Z</time>
      </trkpt>
      <trkpt lat="48.0357" lon="6.69719">
        <ele>650.7</ele>
        <time>2022-05-27T10:07:40Z</time>
      </trkpt>
      <trkpt lat="48.03574" lon="6.69704">
        <ele>651.4</ele>
        <time>2022-05-27T10:07:44Z</time>
      </trkpt>
      <trkpt lat="48.03577" lon="6.69689">
        <ele>651.2</ele>
        <time>2022-05-27T10:07:48Z</time>
      </trkpt>
      <trkpt lat="48.0358" lon="6.69674">
        <ele>651.3</ele>
        <time>2022-05-27T10:07:52Z</time>
      </trkpt>
      <trkpt lat="48.03587" lon="6.69659">
        <ele>652</ele>
        <time>2022-05-27T10:07:56Z</time>
      </trkpt>
      <trkpt lat="48.03593" lon="6.69648">
        <ele>652.4</ele>
        <time>2022-05-27T10:07:59Z</time>
      </trkpt>
      <trkpt lat="48.03599" lon="6.69638">
        <ele>651.4</ele>
        <time>2022-05-27T10:08:02Z</time>
      </trkpt>
      <trkpt lat="48.03607" lon="6.69629">
        <ele>651.9</ele>
        <time>2022-05-27T10:08:05Z</time>
      </trkpt>
      <trkpt lat="48.03616" lon="6.69619">
        <ele>652.5</ele>
        <time>2022-05-27T10:08:09Z</time>
      </trkpt>
      <trkpt lat="48.03623" lon="6.6961">
        <ele>653.5</ele>
        <time>2022-05-27T10:08:12Z</time>
      </trkpt>
      <trkpt lat="48.03631" lon="6.69602">
        <ele>652.3</ele>
        <time>2022-05-27T10:08:15Z</time>
      </trkpt>
      <trkpt lat="48.0364" lon="6.69596">
        <ele>654.2</ele>
        <time>2022-05-27T10:08:18Z</time>
      </trkpt>
      <trkpt lat="48.03649" lon="6.69586">
        <ele>654.1</ele>
        <time>2022-05-27T10:08:22Z</time>
      </trkpt>
      <trkpt lat="48.03657" lon="6.69579">
        <ele>653.7</ele>
        <time>2022-05-27T10:08:25Z</time>
      </trkpt>
      <trkpt lat="48.03667" lon="6.69571">
        <ele>655.2</ele>
        <time>2022-05-27T10:08:29Z</time>
      </trkpt>
      <trkpt lat="48.03675" lon="6.69563">
        <ele>654.2</ele>
        <time>2022-05-27T10:08:32Z</time>
      </trkpt>
      <trkpt lat="48.03684" lon="6.69554">
        <ele>654.8</ele>
        <time>2022-05-27T10:08:36Z</time>
      </trkpt>
      <trkpt lat="48.03692" lon="6.69546">
        <ele>654.8</ele>
        <time>2022-05-27T10:08:39Z</time>
      </trkpt>
      <trkpt lat="48.03701" lon="6.69537">
        <ele>656.2</ele>
        <time>2022-05-27T10:08:43Z</time>
      </trkpt>
      <trkpt lat="48.03711" lon="6.69526">
        <ele>655.7</ele>
        <time>2022-05-27T10:08:47Z</time>
      </trkpt>
      <trkpt lat="48.0372" lon="6.69521">
        <ele>654.6</ele>
        <time>2022-05-27T10:08:50Z</time>
      </trkpt>
      <trkpt lat="48.03731" lon="6.69516">
        <ele>655.5</ele>
        <time>2022-05-27T10:08:54Z</time>
      </trkpt>
      <trkpt lat="48.03741" lon="6.6951">
        <ele>656.6</ele>
        <time>2022-05-27T10:08:57Z</time>
      </trkpt>
      <trkpt lat="48.0375" lon="6.69503">
        <ele>655.7</ele>
        <time>2022-05-27T10:09:00Z</time>
      </trkpt>
      <trkpt lat="48.03758" lon="6.69496">
        <ele>657.1</ele>
        <time>2022-05-27T10:09:03Z</time>
      </trkpt>
      <trkpt lat="48.03766" lon="6.69489">
        <ele>657</ele>
        <time>2022-05-27T10:09:06Z</time>
      </trkpt>
      <trkpt lat="48.03775" lon="6.6948">
        <ele>655.5</ele>
        <time>2022-05-27T10:09:09Z</time>
      </trkpt>
      <trkpt lat="48.03782" lon="6.69471">
        <ele>656.8</ele>
        <time>2022-05-27T10:09:12Z</time>
      </trkpt>
      <trkpt lat="48.03791" lon="6.69464">
        <ele>657.3</ele>
        <time>2022-05-27T10:09:15Z</time>
      </trkpt>
      <trkpt lat="48.038" lon="6.69457">
        <ele>657.1</ele>
        <time>2022-05-27T10:09:18Z</time>
      </trkpt>
      <trkpt lat="48.03809" lon="6.69451">
        <ele>656.9</ele>
        <time>2022-05-27T10:09:21Z</time>
      </trkpt>
      <trkpt lat="48.03818" lon="6.69444">
        <ele>658.3</ele>
        <time>2022-05-27T10:09:24Z</time>
      </trkpt>
      <trkpt lat="48.03828" lon="6.69436">
        <ele>657.9</ele>
        <time>2022-05-27T10:09:28Z</time>
      </trkpt>
      <trkpt lat="48.03838" lon="6.69429">
        <ele>658</ele>
        <time>2022-05-27T10:09:31Z</time>
      </trkpt>
      <trkpt lat="48.03848" lon="6.69421">
        <ele>657</ele>
        <time>2022-05-27T10:09:34Z</time>
      </trkpt>
      <trkpt lat="48.03858" lon="6.69413">
        <ele>656.9</ele>
        <time>2022-05-27T10:09:37Z</time>
      </trkpt>
      <trkpt lat="48.03868" lon="6.69409">
        <ele>658.1</ele>
        <time>2022-05-27T10:09:40Z</time>
      </trkpt>
      <trkpt lat="48.03877" lon="6.69413">
        <ele>658.8</ele>
        <time>2022-05-27T10:09:44Z</time>
      </trkpt>
      <trkpt lat="48.03887" lon="6.69416">
        <ele>658.8</ele>
        <time>2022-05-27T10:09:47Z</time>
      </trkpt>
      <trkpt lat="48.03896" lon="6.6942">
        <ele>659.3</ele>
        <time>2022-05-27T10:09:50Z</time>
      </trkpt>
      <trkpt lat="48.03903" lon="6.69431">
        <ele>659.8</ele>
        <time>2022-05-27T10:09:55Z</time>
      </trkpt>
      <trkpt lat="48.03899" lon="6.69443">
        <ele>662.2</ele>
        <time>2022-05-27T10:10:02Z</time>
      </trkpt>
      <trkpt lat="48.03892" lon="6.69453">
        <ele>663.9</ele>
        <time>2022-05-27T10:10:10Z</time>
      </trkpt>
      <trkpt lat="48.03885" lon="6.69463">
        <ele>665.6</ele>
        <time>2022-05-27T10:10:17Z</time>
      </trkpt>
      <trkpt lat="48.03877" lon="6.69472">
        <ele>666.7</ele>
        <time>2022-05-27T10:10:24Z</time>
      </trkpt>
      <trkpt lat="48.0387" lon="6.69481">
        <ele>668.9</ele>
        <time>2022-05-27T10:10:31Z</time>
      </trkpt>
      <trkpt lat="48.03862" lon="6.69491">
        <ele>669.9</ele>
        <time>2022-05-27T10:10:38Z</time>
      </trkpt>
      <trkpt lat="48.03854" lon="6.695">
        <ele>671.7</ele>
        <time>2022-05-27T10:10:44Z</time>
      </trkpt>
      <trkpt lat="48.03847" lon="6.69509">
        <ele>673</ele>
        <time>2022-05-27T10:10:50Z</time>
      </trkpt>
      <trkpt lat="48.03839" lon="6.69515">
        <ele>674.5</ele>
        <time>2022-05-27T10:10:58Z</time>
      </trkpt>
      <trkpt lat="48.0383" lon="6.69518">
        <ele>675.7</ele>
        <time>2022-05-27T10:11:05Z</time>
      </trkpt>
      <trkpt lat="48.03822" lon="6.69528">
        <ele>676.9</ele>
        <time>2022-05-27T10:11:11Z</time>
      </trkpt>
      <trkpt lat="48.03814" lon="6.69537">
        <ele>677</ele>
        <time>2022-05-27T10:11:17Z</time>
      </trkpt>
      <trkpt lat="48.03807" lon="6.69546">
        <ele>678</ele>
        <time>2022-05-27T10:11:22Z</time>
      </trkpt>
      <trkpt lat="48.03799" lon="6.69555">
        <ele>679.2</ele>
        <time>2022-05-27T10:11:27Z</time>
      </trkpt>
      <trkpt lat="48.0379" lon="6.69562">
        <ele>679.2</ele>
        <time>2022-05-27T10:11:32Z</time>
      </trkpt>
      <trkpt lat="48.0378" lon="6.69571">
        <ele>679.3</ele>
        <time>2022-05-27T10:11:37Z</time>
      </trkpt>
      <trkpt lat="48.03773" lon="6.69584">
        <ele>681.4</ele>
        <time>2022-05-27T10:11:42Z</time>
      </trkpt>
      <trkpt lat="48.03766" lon="6.69593">
        <ele>682</ele>
        <time>2022-05-27T10:11:46Z</time>
      </trkpt>
      <trkpt lat="48.03757" lon="6.69602">
        <ele>682.8</ele>
        <time>2022-05-27T10:11:51Z</time>
      </trkpt>
      <trkpt lat="48.0375" lon="6.69613">
        <ele>683.1</ele>
        <time>2022-05-27T10:11:56Z</time>
      </trkpt>
      <trkpt lat="48.03742" lon="6.69623">
        <ele>684.5</ele>
        <time>2022-05-27T10:12:01Z</time>
      </trkpt>
      <trkpt lat="48.03735" lon="6.69634">
        <ele>685.4</ele>
        <time>2022-05-27T10:12:05Z</time>
      </trkpt>
      <trkpt lat="48.0373" lon="6.69646">
        <ele>686</ele>
        <time>2022-05-27T10:12:10Z</time>
      </trkpt>
      <trkpt lat="48.03724" lon="6.69657">
        <ele>687.4</ele>
        <time>2022-05-27T10:12:15Z</time>
      </trkpt>
      <trkpt lat="48.03718" lon="6.69668">
        <ele>687.9</ele>
        <time>2022-05-27T10:12:20Z</time>
      </trkpt>
      <trkpt lat="48.03711" lon="6.6968">
        <ele>689.5</ele>
        <time>2022-05-27T10:12:26Z</time>
      </trkpt>
      <trkpt lat="48.03707" lon="6.69692">
        <ele>690.8</ele>
        <time>2022-05-27T10:12:32Z</time>
      </trkpt>
      <trkpt lat="48.03701" lon="6.69704">
        <ele>692</ele>
        <time>2022-05-27T10:12:38Z</time>
      </trkpt>
      <trkpt lat="48.03693" lon="6.69715">
        <ele>692.9</ele>
        <time>2022-05-27T10:12:43Z</time>
      </trkpt>
      <trkpt lat="48.0369" lon="6.6973">
        <ele>694.1</ele>
        <time>2022-05-27T10:12:48Z</time>
      </trkpt>
      <trkpt lat="48.03687" lon="6.69746">
        <ele>695.1</ele>
        <time>2022-05-27T10:12:53Z</time>
      </trkpt>
      <trkpt lat="48.03683" lon="6.69759">
        <ele>696.1</ele>
        <time>2022-05-27T10:12:58Z</time>
      </trkpt>
      <trkpt lat="48.03682" lon="6.69774">
        <ele>696.7</ele>
        <time>2022-05-27T10:13:02Z</time>
      </trkpt>
      <trkpt lat="48.03692" lon="6.6977">
        <ele>698.5</ele>
        <time>2022-05-27T10:13:09Z</time>
      </trkpt>
      <trkpt lat="48.037" lon="6.69761">
        <ele>699.3</ele>
        <time>2022-05-27T10:13:14Z</time>
      </trkpt>
      <trkpt lat="48.03708" lon="6.69753">
        <ele>699.6</ele>
        <time>2022-05-27T10:13:18Z</time>
      </trkpt>
      <trkpt lat="48.03717" lon="6.6975">
        <ele>701.3</ele>
        <time>2022-05-27T10:13:26Z</time>
      </trkpt>
      <trkpt lat="48.03726" lon="6.69746">
        <ele>703.2</ele>
        <time>2022-05-27T10:13:35Z</time>
      </trkpt>
      <trkpt lat="48.03734" lon="6.69742">
        <ele>704.4</ele>
        <time>2022-05-27T10:13:40Z</time>
      </trkpt>
      <trkpt lat="48.03744" lon="6.6974">
        <ele>707</ele>
        <time>2022-05-27T10:13:47Z</time>
      </trkpt>
      <trkpt lat="48.03754" lon="6.69738">
        <ele>708.3</ele>
        <time>2022-05-27T10:13:54Z</time>
      </trkpt>
      <trkpt lat="48.03764" lon="6.69736">
        <ele>710.8</ele>
        <time>2022-05-27T10:14:01Z</time>
      </trkpt>
      <trkpt lat="48.03773" lon="6.69737">
        <ele>712.5</ele>
        <time>2022-05-27T10:14:08Z</time>
      </trkpt>
      <trkpt lat="48.03782" lon="6.69734">
        <ele>713.2</ele>
        <time>2022-05-27T10:14:14Z</time>
      </trkpt>
      <trkpt lat="48.03793" lon="6.69733">
        <ele>713.5</ele>
        <time>2022-05-27T10:14:23Z</time>
      </trkpt>
      <trkpt lat="48.03803" lon="6.69727">
        <ele>711.7</ele>
        <time>2022-05-27T10:14:28Z</time>
      </trkpt>
      <trkpt lat="48.03813" lon="6.69718">
        <ele>713.7</ele>
        <time>2022-05-27T10:14:32Z</time>
      </trkpt>
      <trkpt lat="48.03822" lon="6.69711">
        <ele>712.9</ele>
        <time>2022-05-27T10:14:38Z</time>
      </trkpt>
      <trkpt lat="48.03831" lon="6.69714">
        <ele>713.8</ele>
        <time>2022-05-27T10:14:45Z</time>
      </trkpt>
      <trkpt lat="48.03839" lon="6.69705">
        <ele>713.7</ele>
        <time>2022-05-27T10:15:01Z</time>
      </trkpt>
      <trkpt lat="48.03847" lon="6.69699">
        <ele>714.5</ele>
        <time>2022-05-27T10:15:07Z</time>
      </trkpt>
      <trkpt lat="48.03855" lon="6.69689">
        <ele>715.7</ele>
        <time>2022-05-27T10:15:12Z</time>
      </trkpt>
      <trkpt lat="48.03865" lon="6.69686">
        <ele>718.4</ele>
        <time>2022-05-27T10:15:19Z</time>
      </trkpt>
      <trkpt lat="48.03873" lon="6.69692">
        <ele>719.3</ele>
        <time>2022-05-27T10:15:27Z</time>
      </trkpt>
      <trkpt lat="48.03873" lon="6.69692">
        <ele>718.8</ele>
        <time>2022-05-27T10:15:41Z</time>
      </trkpt>
      <trkpt lat="48.03873" lon="6.69693">
        <ele>719</ele>
        <time>2022-05-27T10:16:43Z</time>
      </trkpt>
      <trkpt lat="48.03873" lon="6.69693">
        <ele>719</ele>
        <time>2022-05-27T10:16:54Z</time>
      </trkpt>
      <trkpt lat="48.03873" lon="6.69693">
        <ele>718.9</ele>
        <time>2022-05-27T10:17:51Z</time>
      </trkpt>
      <trkpt lat="48.03873" lon="6.69692">
        <ele>718.6</ele>
        <time>2022-05-27T10:18:18Z</time>
      </trkpt>
      <trkpt lat="48.03872" lon="6.69693">
        <ele>719</ele>
        <time>2022-05-27T10:18:20Z</time>
      </trkpt>
      <trkpt lat="48.03873" lon="6.69692">
        <ele>719.2</ele>
        <time>2022-05-27T10:18:29Z</time>
      </trkpt>
      <trkpt lat="48.03872" lon="6.69693">
        <ele>719</ele>
        <time>2022-05-27T10:18:54Z</time>
      </trkpt>
      <trkpt lat="48.03872" lon="6.69692">
        <ele>719</ele>
        <time>2022-05-27T10:19:37Z</time>
      </trkpt>
      <trkpt lat="48.03872" lon="6.69693">
        <ele>718.9</ele>
        <time>2022-05-27T10:20:03Z</time>
      </trkpt>
      <trkpt lat="48.03871" lon="6.69693">
        <ele>718.9</ele>
        <time>2022-05-27T10:20:49Z</time>
      </trkpt>
      <trkpt lat="48.03871" lon="6.69693">
        <ele>718.9</ele>
        <time>2022-05-27T10:20:53Z</time>
      </trkpt>
      <trkpt lat="48.0388" lon="6.69699">
        <ele>716.3</ele>
        <time>2022-05-27T10:21:00Z</time>
      </trkpt>
      <trkpt lat="48.03889" lon="6.69706">
        <ele>714.7</ele>
        <time>2022-05-27T10:21:05Z</time>
      </trkpt>
      <trkpt lat="48.03896" lon="6.69718">
        <ele>713.1</ele>
        <time>2022-05-27T10:21:08Z</time>
      </trkpt>
      <trkpt lat="48.03906" lon="6.6973">
        <ele>712.4</ele>
        <time>2022-05-27T10:21:11Z</time>
      </trkpt>
      <trkpt lat="48.03915" lon="6.69744">
        <ele>711.8</ele>
        <time>2022-05-27T10:21:14Z</time>
      </trkpt>
      <trkpt lat="48.03924" lon="6.69754">
        <ele>709.1</ele>
        <time>2022-05-27T10:21:16Z</time>
      </trkpt>
      <trkpt lat="48.03935" lon="6.69763">
        <ele>708.4</ele>
        <time>2022-05-27T10:21:18Z</time>
      </trkpt>
      <trkpt lat="48.03945" lon="6.69773">
        <ele>709.1</ele>
        <time>2022-05-27T10:21:20Z</time>
      </trkpt>
      <trkpt lat="48.03953" lon="6.69784">
        <ele>708.7</ele>
        <time>2022-05-27T10:21:22Z</time>
      </trkpt>
      <trkpt lat="48.0396" lon="6.69793">
        <ele>710.5</ele>
        <time>2022-05-27T10:21:24Z</time>
      </trkpt>
      <trkpt lat="48.03968" lon="6.69801">
        <ele>710.2</ele>
        <time>2022-05-27T10:21:27Z</time>
      </trkpt>
      <trkpt lat="48.03977" lon="6.69809">
        <ele>710.8</ele>
        <time>2022-05-27T10:21:31Z</time>
      </trkpt>
      <trkpt lat="48.03985" lon="6.69818">
        <ele>711.5</ele>
        <time>2022-05-27T10:21:36Z</time>
      </trkpt>
      <trkpt lat="48.03992" lon="6.6983">
        <ele>711.9</ele>
        <time>2022-05-27T10:21:41Z</time>
      </trkpt>
      <trkpt lat="48.03999" lon="6.69839">
        <ele>712.5</ele>
        <time>2022-05-27T10:21:45Z</time>
      </trkpt>
      <trkpt lat="48.04004" lon="6.69853">
        <ele>713.5</ele>
        <time>2022-05-27T10:21:51Z</time>
      </trkpt>
      <trkpt lat="48.04009" lon="6.69865">
        <ele>713.4</ele>
        <time>2022-05-27T10:21:57Z</time>
      </trkpt>
      <trkpt lat="48.04016" lon="6.69873">
        <ele>714.5</ele>
        <time>2022-05-27T10:22:05Z</time>
      </trkpt>
      <trkpt lat="48.04026" lon="6.69877">
        <ele>716.1</ele>
        <time>2022-05-27T10:22:13Z</time>
      </trkpt>
      <trkpt lat="48.04035" lon="6.69878">
        <ele>716.3</ele>
        <time>2022-05-27T10:22:20Z</time>
      </trkpt>
      <trkpt lat="48.04045" lon="6.6988">
        <ele>716.5</ele>
        <time>2022-05-27T10:22:26Z</time>
      </trkpt>
      <trkpt lat="48.04054" lon="6.69882">
        <ele>716.9</ele>
        <time>2022-05-27T10:22:31Z</time>
      </trkpt>
      <trkpt lat="48.04063" lon="6.6988">
        <ele>717.1</ele>
        <time>2022-05-27T10:22:36Z</time>
      </trkpt>
      <trkpt lat="48.04074" lon="6.69876">
        <ele>716.5</ele>
        <time>2022-05-27T10:22:40Z</time>
      </trkpt>
      <trkpt lat="48.04084" lon="6.69871">
        <ele>716.6</ele>
        <time>2022-05-27T10:22:43Z</time>
      </trkpt>
      <trkpt lat="48.04095" lon="6.69868">
        <ele>717</ele>
        <time>2022-05-27T10:22:47Z</time>
      </trkpt>
      <trkpt lat="48.04104" lon="6.69864">
        <ele>718.5</ele>
        <time>2022-05-27T10:22:51Z</time>
      </trkpt>
      <trkpt lat="48.04113" lon="6.69861">
        <ele>719.3</ele>
        <time>2022-05-27T10:22:56Z</time>
      </trkpt>
      <trkpt lat="48.04122" lon="6.69857">
        <ele>720.1</ele>
        <time>2022-05-27T10:23:01Z</time>
      </trkpt>
      <trkpt lat="48.04131" lon="6.69852">
        <ele>722.4</ele>
        <time>2022-05-27T10:23:07Z</time>
      </trkpt>
      <trkpt lat="48.04141" lon="6.6985">
        <ele>724</ele>
        <time>2022-05-27T10:23:13Z</time>
      </trkpt>
      <trkpt lat="48.04152" lon="6.6985">
        <ele>724.3</ele>
        <time>2022-05-27T10:23:19Z</time>
      </trkpt>
      <trkpt lat="48.04162" lon="6.69849">
        <ele>726</ele>
        <time>2022-05-27T10:23:25Z</time>
      </trkpt>
      <trkpt lat="48.04171" lon="6.69846">
        <ele>727</ele>
        <time>2022-05-27T10:23:30Z</time>
      </trkpt>
      <trkpt lat="48.04181" lon="6.69842">
        <ele>726.6</ele>
        <time>2022-05-27T10:23:35Z</time>
      </trkpt>
      <trkpt lat="48.0419" lon="6.69836">
        <ele>727.2</ele>
        <time>2022-05-27T10:23:39Z</time>
      </trkpt>
      <trkpt lat="48.04199" lon="6.69831">
        <ele>728.4</ele>
        <time>2022-05-27T10:23:44Z</time>
      </trkpt>
      <trkpt lat="48.04208" lon="6.69825">
        <ele>728.7</ele>
        <time>2022-05-27T10:23:50Z</time>
      </trkpt>
      <trkpt lat="48.04218" lon="6.6982">
        <ele>730.4</ele>
        <time>2022-05-27T10:23:55Z</time>
      </trkpt>
      <trkpt lat="48.04227" lon="6.69816">
        <ele>731.2</ele>
        <time>2022-05-27T10:24:00Z</time>
      </trkpt>
      <trkpt lat="48.04236" lon="6.6981">
        <ele>731.9</ele>
        <time>2022-05-27T10:24:06Z</time>
      </trkpt>
      <trkpt lat="48.04245" lon="6.69807">
        <ele>733</ele>
        <time>2022-05-27T10:24:12Z</time>
      </trkpt>
      <trkpt lat="48.04256" lon="6.69805">
        <ele>735.2</ele>
        <time>2022-05-27T10:24:18Z</time>
      </trkpt>
      <trkpt lat="48.04267" lon="6.69804">
        <ele>735</ele>
        <time>2022-05-27T10:24:24Z</time>
      </trkpt>
      <trkpt lat="48.04277" lon="6.69803">
        <ele>737</ele>
        <time>2022-05-27T10:24:30Z</time>
      </trkpt>
      <trkpt lat="48.04287" lon="6.69802">
        <ele>738.6</ele>
        <time>2022-05-27T10:24:35Z</time>
      </trkpt>
      <trkpt lat="48.04297" lon="6.69798">
        <ele>739.8</ele>
        <time>2022-05-27T10:24:41Z</time>
      </trkpt>
      <trkpt lat="48.04306" lon="6.69796">
        <ele>740.7</ele>
        <time>2022-05-27T10:24:47Z</time>
      </trkpt>
      <trkpt lat="48.04316" lon="6.69794">
        <ele>741.2</ele>
        <time>2022-05-27T10:24:53Z</time>
      </trkpt>
      <trkpt lat="48.04326" lon="6.69793">
        <ele>743.6</ele>
        <time>2022-05-27T10:24:59Z</time>
      </trkpt>
      <trkpt lat="48.04335" lon="6.69791">
        <ele>744.9</ele>
        <time>2022-05-27T10:25:04Z</time>
      </trkpt>
      <trkpt lat="48.04345" lon="6.69791">
        <ele>745.1</ele>
        <time>2022-05-27T10:25:10Z</time>
      </trkpt>
      <trkpt lat="48.04354" lon="6.6979">
        <ele>746.5</ele>
        <time>2022-05-27T10:25:15Z</time>
      </trkpt>
      <trkpt lat="48.04365" lon="6.69792">
        <ele>747.5</ele>
        <time>2022-05-27T10:25:20Z</time>
      </trkpt>
      <trkpt lat="48.04374" lon="6.69795">
        <ele>749.4</ele>
        <time>2022-05-27T10:25:26Z</time>
      </trkpt>
      <trkpt lat="48.04383" lon="6.69805">
        <ele>750.1</ele>
        <time>2022-05-27T10:25:33Z</time>
      </trkpt>
      <trkpt lat="48.04391" lon="6.69814">
        <ele>750.6</ele>
        <time>2022-05-27T10:25:37Z</time>
      </trkpt>
      <trkpt lat="48.04398" lon="6.69823">
        <ele>751.6</ele>
        <time>2022-05-27T10:25:41Z</time>
      </trkpt>
      <trkpt lat="48.04405" lon="6.69832">
        <ele>752.6</ele>
        <time>2022-05-27T10:25:45Z</time>
      </trkpt>
      <trkpt lat="48.04413" lon="6.69842">
        <ele>753.1</ele>
        <time>2022-05-27T10:25:49Z</time>
      </trkpt>
      <trkpt lat="48.04419" lon="6.69852">
        <ele>754.8</ele>
        <time>2022-05-27T10:25:53Z</time>
      </trkpt>
      <trkpt lat="48.04425" lon="6.69863">
        <ele>755.5</ele>
        <time>2022-05-27T10:25:57Z</time>
      </trkpt>
      <trkpt lat="48.04429" lon="6.69876">
        <ele>755.4</ele>
        <time>2022-05-27T10:26:01Z</time>
      </trkpt>
      <trkpt lat="48.04432" lon="6.69889">
        <ele>756.2</ele>
        <time>2022-05-27T10:26:05Z</time>
      </trkpt>
      <trkpt lat="48.04436" lon="6.69902">
        <ele>756.9</ele>
        <time>2022-05-27T10:26:09Z</time>
      </trkpt>
      <trkpt lat="48.04439" lon="6.69915">
        <ele>757</ele>
        <time>2022-05-27T10:26:13Z</time>
      </trkpt>
      <trkpt lat="48.04443" lon="6.69927">
        <ele>759.4</ele>
        <time>2022-05-27T10:26:17Z</time>
      </trkpt>
      <trkpt lat="48.04447" lon="6.69939">
        <ele>759.8</ele>
        <time>2022-05-27T10:26:21Z</time>
      </trkpt>
      <trkpt lat="48.04452" lon="6.69951">
        <ele>761.3</ele>
        <time>2022-05-27T10:26:25Z</time>
      </trkpt>
      <trkpt lat="48.04456" lon="6.69965">
        <ele>762.2</ele>
        <time>2022-05-27T10:26:30Z</time>
      </trkpt>
      <trkpt lat="48.04458" lon="6.6998">
        <ele>762.7</ele>
        <time>2022-05-27T10:26:35Z</time>
      </trkpt>
      <trkpt lat="48.04458" lon="6.69996">
        <ele>763.6</ele>
        <time>2022-05-27T10:26:40Z</time>
      </trkpt>
      <trkpt lat="48.04456" lon="6.70011">
        <ele>764.2</ele>
        <time>2022-05-27T10:26:45Z</time>
      </trkpt>
      <trkpt lat="48.04454" lon="6.70027">
        <ele>764.7</ele>
        <time>2022-05-27T10:26:50Z</time>
      </trkpt>
      <trkpt lat="48.04453" lon="6.70045">
        <ele>765.5</ele>
        <time>2022-05-27T10:26:54Z</time>
      </trkpt>
      <trkpt lat="48.04449" lon="6.7006">
        <ele>765.8</ele>
        <time>2022-05-27T10:26:58Z</time>
      </trkpt>
      <trkpt lat="48.04446" lon="6.70075">
        <ele>766.9</ele>
        <time>2022-05-27T10:27:02Z</time>
      </trkpt>
      <trkpt lat="48.04442" lon="6.7009">
        <ele>767</ele>
        <time>2022-05-27T10:27:06Z</time>
      </trkpt>
      <trkpt lat="48.04436" lon="6.70105">
        <ele>766.1</ele>
        <time>2022-05-27T10:27:10Z</time>
      </trkpt>
      <trkpt lat="48.0443" lon="6.70119">
        <ele>767.7</ele>
        <time>2022-05-27T10:27:14Z</time>
      </trkpt>
      <trkpt lat="48.04422" lon="6.70131">
        <ele>769.8</ele>
        <time>2022-05-27T10:27:18Z</time>
      </trkpt>
      <trkpt lat="48.04414" lon="6.70138">
        <ele>769.9</ele>
        <time>2022-05-27T10:27:21Z</time>
      </trkpt>
      <trkpt lat="48.04406" lon="6.70146">
        <ele>769.2</ele>
        <time>2022-05-27T10:27:24Z</time>
      </trkpt>
      <trkpt lat="48.04399" lon="6.70154">
        <ele>769.4</ele>
        <time>2022-05-27T10:27:27Z</time>
      </trkpt>
      <trkpt lat="48.04392" lon="6.70165">
        <ele>771.6</ele>
        <time>2022-05-27T10:27:30Z</time>
      </trkpt>
      <trkpt lat="48.04388" lon="6.70181">
        <ele>770.8</ele>
        <time>2022-05-27T10:27:34Z</time>
      </trkpt>
      <trkpt lat="48.04385" lon="6.70195">
        <ele>770.8</ele>
        <time>2022-05-27T10:27:37Z</time>
      </trkpt>
      <trkpt lat="48.04385" lon="6.70212">
        <ele>771.5</ele>
        <time>2022-05-27T10:27:40Z</time>
      </trkpt>
      <trkpt lat="48.04383" lon="6.70226">
        <ele>770.7</ele>
        <time>2022-05-27T10:27:43Z</time>
      </trkpt>
      <trkpt lat="48.04381" lon="6.7024">
        <ele>772.2</ele>
        <time>2022-05-27T10:27:47Z</time>
      </trkpt>
      <trkpt lat="48.04379" lon="6.70258">
        <ele>774.3</ele>
        <time>2022-05-27T10:27:51Z</time>
      </trkpt>
      <trkpt lat="48.04377" lon="6.70273">
        <ele>774</ele>
        <time>2022-05-27T10:27:54Z</time>
      </trkpt>
      <trkpt lat="48.04374" lon="6.7029">
        <ele>774.3</ele>
        <time>2022-05-27T10:27:58Z</time>
      </trkpt>
      <trkpt lat="48.04371" lon="6.70304">
        <ele>774.7</ele>
        <time>2022-05-27T10:28:02Z</time>
      </trkpt>
      <trkpt lat="48.04368" lon="6.7032">
        <ele>776.5</ele>
        <time>2022-05-27T10:28:06Z</time>
      </trkpt>
      <trkpt lat="48.04363" lon="6.70335">
        <ele>777</ele>
        <time>2022-05-27T10:28:10Z</time>
      </trkpt>
      <trkpt lat="48.04356" lon="6.70349">
        <ele>777.8</ele>
        <time>2022-05-27T10:28:14Z</time>
      </trkpt>
      <trkpt lat="48.04352" lon="6.70362">
        <ele>776.6</ele>
        <time>2022-05-27T10:28:17Z</time>
      </trkpt>
      <trkpt lat="48.04349" lon="6.70375">
        <ele>776.2</ele>
        <time>2022-05-27T10:28:20Z</time>
      </trkpt>
      <trkpt lat="48.04348" lon="6.7039">
        <ele>775.5</ele>
        <time>2022-05-27T10:28:23Z</time>
      </trkpt>
      <trkpt lat="48.04347" lon="6.70407">
        <ele>778.7</ele>
        <time>2022-05-27T10:28:27Z</time>
      </trkpt>
      <trkpt lat="48.04343" lon="6.70423">
        <ele>780.3</ele>
        <time>2022-05-27T10:28:31Z</time>
      </trkpt>
      <trkpt lat="48.04341" lon="6.70439">
        <ele>779.2</ele>
        <time>2022-05-27T10:28:35Z</time>
      </trkpt>
      <trkpt lat="48.04338" lon="6.70452">
        <ele>780.4</ele>
        <time>2022-05-27T10:28:38Z</time>
      </trkpt>
      <trkpt lat="48.04335" lon="6.70469">
        <ele>780.7</ele>
        <time>2022-05-27T10:28:42Z</time>
      </trkpt>
      <trkpt lat="48.04331" lon="6.70484">
        <ele>781.5</ele>
        <time>2022-05-27T10:28:46Z</time>
      </trkpt>
      <trkpt lat="48.04328" lon="6.70501">
        <ele>781.4</ele>
        <time>2022-05-27T10:28:50Z</time>
      </trkpt>
      <trkpt lat="48.04324" lon="6.70516">
        <ele>782.2</ele>
        <time>2022-05-27T10:28:54Z</time>
      </trkpt>
      <trkpt lat="48.04319" lon="6.70531">
        <ele>783.6</ele>
        <time>2022-05-27T10:28:58Z</time>
      </trkpt>
      <trkpt lat="48.04315" lon="6.70547">
        <ele>783.1</ele>
        <time>2022-05-27T10:29:02Z</time>
      </trkpt>
      <trkpt lat="48.04315" lon="6.70563">
        <ele>784</ele>
        <time>2022-05-27T10:29:06Z</time>
      </trkpt>
      <trkpt lat="48.04314" lon="6.70578">
        <ele>785</ele>
        <time>2022-05-27T10:29:10Z</time>
      </trkpt>
      <trkpt lat="48.04316" lon="6.70594">
        <ele>786.2</ele>
        <time>2022-05-27T10:29:14Z</time>
      </trkpt>
      <trkpt lat="48.04316" lon="6.70609">
        <ele>785.5</ele>
        <time>2022-05-27T10:29:18Z</time>
      </trkpt>
      <trkpt lat="48.04315" lon="6.70624">
        <ele>787.6</ele>
        <time>2022-05-27T10:29:22Z</time>
      </trkpt>
      <trkpt lat="48.04313" lon="6.7064">
        <ele>786.6</ele>
        <time>2022-05-27T10:29:26Z</time>
      </trkpt>
      <trkpt lat="48.04309" lon="6.70654">
        <ele>787.5</ele>
        <time>2022-05-27T10:29:30Z</time>
      </trkpt>
      <trkpt lat="48.04305" lon="6.70669">
        <ele>788.3</ele>
        <time>2022-05-27T10:29:34Z</time>
      </trkpt>
      <trkpt lat="48.04301" lon="6.70684">
        <ele>789.7</ele>
        <time>2022-05-27T10:29:38Z</time>
      </trkpt>
      <trkpt lat="48.04296" lon="6.70697">
        <ele>788.9</ele>
        <time>2022-05-27T10:29:42Z</time>
      </trkpt>
      <trkpt lat="48.0429" lon="6.70711">
        <ele>790</ele>
        <time>2022-05-27T10:29:46Z</time>
      </trkpt>
      <trkpt lat="48.04285" lon="6.70726">
        <ele>790</ele>
        <time>2022-05-27T10:29:50Z</time>
      </trkpt>
      <trkpt lat="48.04281" lon="6.70739">
        <ele>790.8</ele>
        <time>2022-05-27T10:29:53Z</time>
      </trkpt>
      <trkpt lat="48.04274" lon="6.70754">
        <ele>791.7</ele>
        <time>2022-05-27T10:29:57Z</time>
      </trkpt>
      <trkpt lat="48.04268" lon="6.70765">
        <ele>792.2</ele>
        <time>2022-05-27T10:30:00Z</time>
      </trkpt>
      <trkpt lat="48.04261" lon="6.70779">
        <ele>793.4</ele>
        <time>2022-05-27T10:30:04Z</time>
      </trkpt>
      <trkpt lat="48.04255" lon="6.7079">
        <ele>794.5</ele>
        <time>2022-05-27T10:30:07Z</time>
      </trkpt>
      <trkpt lat="48.04249" lon="6.708">
        <ele>794.5</ele>
        <time>2022-05-27T10:30:10Z</time>
      </trkpt>
      <trkpt lat="48.04242" lon="6.70814">
        <ele>795</ele>
        <time>2022-05-27T10:30:14Z</time>
      </trkpt>
      <trkpt lat="48.04236" lon="6.70829">
        <ele>796.1</ele>
        <time>2022-05-27T10:30:18Z</time>
      </trkpt>
      <trkpt lat="48.04232" lon="6.70843">
        <ele>793.7</ele>
        <time>2022-05-27T10:30:21Z</time>
      </trkpt>
      <trkpt lat="48.04229" lon="6.70859">
        <ele>793.3</ele>
        <time>2022-05-27T10:30:24Z</time>
      </trkpt>
      <trkpt lat="48.04228" lon="6.70877">
        <ele>794.9</ele>
        <time>2022-05-27T10:30:27Z</time>
      </trkpt>
      <trkpt lat="48.04224" lon="6.70894">
        <ele>797.2</ele>
        <time>2022-05-27T10:30:30Z</time>
      </trkpt>
      <trkpt lat="48.04218" lon="6.70907">
        <ele>795.6</ele>
        <time>2022-05-27T10:30:33Z</time>
      </trkpt>
      <trkpt lat="48.04211" lon="6.70919">
        <ele>793.8</ele>
        <time>2022-05-27T10:30:36Z</time>
      </trkpt>
      <trkpt lat="48.04205" lon="6.7093">
        <ele>795.9</ele>
        <time>2022-05-27T10:30:39Z</time>
      </trkpt>
      <trkpt lat="48.04199" lon="6.70942">
        <ele>797.5</ele>
        <time>2022-05-27T10:30:42Z</time>
      </trkpt>
      <trkpt lat="48.04192" lon="6.70955">
        <ele>798.4</ele>
        <time>2022-05-27T10:30:46Z</time>
      </trkpt>
      <trkpt lat="48.04187" lon="6.70971">
        <ele>797.4</ele>
        <time>2022-05-27T10:30:50Z</time>
      </trkpt>
      <trkpt lat="48.04187" lon="6.70986">
        <ele>798</ele>
        <time>2022-05-27T10:30:54Z</time>
      </trkpt>
      <trkpt lat="48.04191" lon="6.70999">
        <ele>799.1</ele>
        <time>2022-05-27T10:31:00Z</time>
      </trkpt>
      <trkpt lat="48.04196" lon="6.71008">
        <ele>797.9</ele>
        <time>2022-05-27T10:31:07Z</time>
      </trkpt>
      <trkpt lat="48.04191" lon="6.71005">
        <ele>797.8</ele>
        <time>2022-05-27T10:31:15Z</time>
      </trkpt>
      <trkpt lat="48.04191" lon="6.71005">
        <ele>797.8</ele>
        <time>2022-05-27T10:31:46Z</time>
      </trkpt>
      <trkpt lat="48.04191" lon="6.71006">
        <ele>798</ele>
        <time>2022-05-27T10:31:51Z</time>
      </trkpt>
      <trkpt lat="48.04189" lon="6.71008">
        <ele>798</ele>
        <time>2022-05-27T10:32:00Z</time>
      </trkpt>
      <trkpt lat="48.04189" lon="6.71008">
        <ele>798.2</ele>
        <time>2022-05-27T10:32:26Z</time>
      </trkpt>
      <trkpt lat="48.04189" lon="6.71007">
        <ele>798.1</ele>
        <time>2022-05-27T10:32:46Z</time>
      </trkpt>
      <trkpt lat="48.04188" lon="6.71007">
        <ele>798.2</ele>
        <time>2022-05-27T10:33:20Z</time>
      </trkpt>
      <trkpt lat="48.04188" lon="6.71007">
        <ele>798.2</ele>
        <time>2022-05-27T10:33:21Z</time>
      </trkpt>
      <trkpt lat="48.04188" lon="6.71006">
        <ele>798.5</ele>
        <time>2022-05-27T10:33:22Z</time>
      </trkpt>
      <trkpt lat="48.04192" lon="6.71003">
        <ele>798.6</ele>
        <time>2022-05-27T10:33:32Z</time>
      </trkpt>
      <trkpt lat="48.04192" lon="6.71004">
        <ele>798.3</ele>
        <time>2022-05-27T10:33:37Z</time>
      </trkpt>
      <trkpt lat="48.04199" lon="6.71015">
        <ele>798.9</ele>
        <time>2022-05-27T10:33:41Z</time>
      </trkpt>
      <trkpt lat="48.04208" lon="6.71027">
        <ele>797.6</ele>
        <time>2022-05-27T10:33:45Z</time>
      </trkpt>
      <trkpt lat="48.04215" lon="6.71043">
        <ele>796.9</ele>
        <time>2022-05-27T10:33:48Z</time>
      </trkpt>
      <trkpt lat="48.04219" lon="6.71055">
        <ele>797.5</ele>
        <time>2022-05-27T10:33:50Z</time>
      </trkpt>
      <trkpt lat="48.04223" lon="6.71073">
        <ele>797.1</ele>
        <time>2022-05-27T10:33:53Z</time>
      </trkpt>
      <trkpt lat="48.04225" lon="6.7109">
        <ele>794.2</ele>
        <time>2022-05-27T10:33:55Z</time>
      </trkpt>
      <trkpt lat="48.04225" lon="6.71107">
        <ele>791.9</ele>
        <time>2022-05-27T10:33:57Z</time>
      </trkpt>
      <trkpt lat="48.04226" lon="6.71128">
        <ele>792.3</ele>
        <time>2022-05-27T10:33:59Z</time>
      </trkpt>
      <trkpt lat="48.04229" lon="6.71145">
        <ele>792.9</ele>
        <time>2022-05-27T10:34:01Z</time>
      </trkpt>
      <trkpt lat="48.0423" lon="6.7116">
        <ele>789.9</ele>
        <time>2022-05-27T10:34:03Z</time>
      </trkpt>
      <trkpt lat="48.04228" lon="6.71179">
        <ele>789.9</ele>
        <time>2022-05-27T10:34:05Z</time>
      </trkpt>
      <trkpt lat="48.04224" lon="6.71197">
        <ele>788.5</ele>
        <time>2022-05-27T10:34:07Z</time>
      </trkpt>
      <trkpt lat="48.04214" lon="6.71212">
        <ele>785</ele>
        <time>2022-05-27T10:34:09Z</time>
      </trkpt>
      <trkpt lat="48.04201" lon="6.71223">
        <ele>782.3</ele>
        <time>2022-05-27T10:34:11Z</time>
      </trkpt>
      <trkpt lat="48.0419" lon="6.71232">
        <ele>783</ele>
        <time>2022-05-27T10:34:13Z</time>
      </trkpt>
      <trkpt lat="48.04177" lon="6.71242">
        <ele>785.3</ele>
        <time>2022-05-27T10:34:15Z</time>
      </trkpt>
      <trkpt lat="48.04165" lon="6.71252">
        <ele>781.8</ele>
        <time>2022-05-27T10:34:17Z</time>
      </trkpt>
      <trkpt lat="48.04153" lon="6.71265">
        <ele>780.3</ele>
        <time>2022-05-27T10:34:19Z</time>
      </trkpt>
      <trkpt lat="48.04142" lon="6.71277">
        <ele>781.6</ele>
        <time>2022-05-27T10:34:21Z</time>
      </trkpt>
      <trkpt lat="48.0413" lon="6.71291">
        <ele>783.2</ele>
        <time>2022-05-27T10:34:23Z</time>
      </trkpt>
      <trkpt lat="48.04122" lon="6.71303">
        <ele>782.1</ele>
        <time>2022-05-27T10:34:25Z</time>
      </trkpt>
      <trkpt lat="48.04114" lon="6.71316">
        <ele>783.6</ele>
        <time>2022-05-27T10:34:27Z</time>
      </trkpt>
      <trkpt lat="48.04108" lon="6.71328">
        <ele>783.8</ele>
        <time>2022-05-27T10:34:29Z</time>
      </trkpt>
      <trkpt lat="48.04102" lon="6.71339">
        <ele>782.5</ele>
        <time>2022-05-27T10:34:31Z</time>
      </trkpt>
      <trkpt lat="48.04096" lon="6.7135">
        <ele>783.1</ele>
        <time>2022-05-27T10:34:33Z</time>
      </trkpt>
      <trkpt lat="48.04089" lon="6.71364">
        <ele>781.6</ele>
        <time>2022-05-27T10:34:36Z</time>
      </trkpt>
      <trkpt lat="48.04081" lon="6.71376">
        <ele>782.1</ele>
        <time>2022-05-27T10:34:40Z</time>
      </trkpt>
      <trkpt lat="48.04073" lon="6.71386">
        <ele>780.9</ele>
        <time>2022-05-27T10:34:43Z</time>
      </trkpt>
      <trkpt lat="48.04062" lon="6.71395">
        <ele>781.9</ele>
        <time>2022-05-27T10:34:46Z</time>
      </trkpt>
      <trkpt lat="48.04051" lon="6.71401">
        <ele>782.4</ele>
        <time>2022-05-27T10:34:49Z</time>
      </trkpt>
      <trkpt lat="48.04041" lon="6.71407">
        <ele>781.5</ele>
        <time>2022-05-27T10:34:52Z</time>
      </trkpt>
      <trkpt lat="48.04033" lon="6.71414">
        <ele>781.9</ele>
        <time>2022-05-27T10:34:55Z</time>
      </trkpt>
      <trkpt lat="48.04025" lon="6.71426">
        <ele>780.5</ele>
        <time>2022-05-27T10:34:58Z</time>
      </trkpt>
      <trkpt lat="48.04018" lon="6.7144">
        <ele>781.3</ele>
        <time>2022-05-27T10:35:01Z</time>
      </trkpt>
      <trkpt lat="48.04013" lon="6.71453">
        <ele>781.1</ele>
        <time>2022-05-27T10:35:04Z</time>
      </trkpt>
      <trkpt lat="48.04008" lon="6.71466">
        <ele>781.1</ele>
        <time>2022-05-27T10:35:07Z</time>
      </trkpt>
      <trkpt lat="48.04004" lon="6.71482">
        <ele>781.3</ele>
        <time>2022-05-27T10:35:11Z</time>
      </trkpt>
      <trkpt lat="48.04002" lon="6.71495">
        <ele>782</ele>
        <time>2022-05-27T10:35:16Z</time>
      </trkpt>
      <trkpt lat="48.04006" lon="6.71508">
        <ele>782</ele>
        <time>2022-05-27T10:35:22Z</time>
      </trkpt>
      <trkpt lat="48.04013" lon="6.71518">
        <ele>781.9</ele>
        <time>2022-05-27T10:35:27Z</time>
      </trkpt>
      <trkpt lat="48.0402" lon="6.71526">
        <ele>782.4</ele>
        <time>2022-05-27T10:35:32Z</time>
      </trkpt>
      <trkpt lat="48.04026" lon="6.71539">
        <ele>780.4</ele>
        <time>2022-05-27T10:35:36Z</time>
      </trkpt>
      <trkpt lat="48.04029" lon="6.71551">
        <ele>782</ele>
        <time>2022-05-27T10:35:40Z</time>
      </trkpt>
      <trkpt lat="48.04034" lon="6.71564">
        <ele>783.4</ele>
        <time>2022-05-27T10:35:46Z</time>
      </trkpt>
      <trkpt lat="48.04038" lon="6.71576">
        <ele>785</ele>
        <time>2022-05-27T10:35:51Z</time>
      </trkpt>
      <trkpt lat="48.04042" lon="6.71589">
        <ele>786.8</ele>
        <time>2022-05-27T10:35:57Z</time>
      </trkpt>
      <trkpt lat="48.04045" lon="6.71602">
        <ele>789.2</ele>
        <time>2022-05-27T10:36:03Z</time>
      </trkpt>
      <trkpt lat="48.04044" lon="6.71616">
        <ele>789.6</ele>
        <time>2022-05-27T10:36:08Z</time>
      </trkpt>
      <trkpt lat="48.04042" lon="6.71631">
        <ele>789.2</ele>
        <time>2022-05-27T10:36:13Z</time>
      </trkpt>
      <trkpt lat="48.04045" lon="6.71646">
        <ele>789.6</ele>
        <time>2022-05-27T10:36:18Z</time>
      </trkpt>
      <trkpt lat="48.04051" lon="6.71658">
        <ele>790.4</ele>
        <time>2022-05-27T10:36:24Z</time>
      </trkpt>
      <trkpt lat="48.0406" lon="6.71664">
        <ele>791.3</ele>
        <time>2022-05-27T10:36:31Z</time>
      </trkpt>
      <trkpt lat="48.04069" lon="6.71665">
        <ele>793.7</ele>
        <time>2022-05-27T10:36:39Z</time>
      </trkpt>
      <trkpt lat="48.04079" lon="6.71666">
        <ele>794.7</ele>
        <time>2022-05-27T10:36:48Z</time>
      </trkpt>
      <trkpt lat="48.04089" lon="6.7167">
        <ele>796.7</ele>
        <time>2022-05-27T10:36:54Z</time>
      </trkpt>
      <trkpt lat="48.04099" lon="6.7167">
        <ele>798.4</ele>
        <time>2022-05-27T10:37:00Z</time>
      </trkpt>
      <trkpt lat="48.04109" lon="6.71674">
        <ele>800.5</ele>
        <time>2022-05-27T10:37:11Z</time>
      </trkpt>
      <trkpt lat="48.04114" lon="6.71687">
        <ele>801.6</ele>
        <time>2022-05-27T10:37:18Z</time>
      </trkpt>
      <trkpt lat="48.04114" lon="6.717">
        <ele>803.6</ele>
        <time>2022-05-27T10:37:26Z</time>
      </trkpt>
      <trkpt lat="48.04115" lon="6.71714">
        <ele>805.5</ele>
        <time>2022-05-27T10:37:34Z</time>
      </trkpt>
      <trkpt lat="48.04119" lon="6.71727">
        <ele>807.5</ele>
        <time>2022-05-27T10:37:42Z</time>
      </trkpt>
      <trkpt lat="48.04125" lon="6.71738">
        <ele>809.3</ele>
        <time>2022-05-27T10:37:49Z</time>
      </trkpt>
      <trkpt lat="48.04129" lon="6.71751">
        <ele>810.9</ele>
        <time>2022-05-27T10:37:56Z</time>
      </trkpt>
      <trkpt lat="48.04137" lon="6.71761">
        <ele>811.9</ele>
        <time>2022-05-27T10:38:02Z</time>
      </trkpt>
      <trkpt lat="48.04145" lon="6.71771">
        <ele>812</ele>
        <time>2022-05-27T10:38:08Z</time>
      </trkpt>
      <trkpt lat="48.04154" lon="6.71779">
        <ele>811.6</ele>
        <time>2022-05-27T10:38:15Z</time>
      </trkpt>
      <trkpt lat="48.04162" lon="6.71784">
        <ele>813.1</ele>
        <time>2022-05-27T10:38:21Z</time>
      </trkpt>
      <trkpt lat="48.04171" lon="6.71793">
        <ele>815.1</ele>
        <time>2022-05-27T10:38:27Z</time>
      </trkpt>
      <trkpt lat="48.04174" lon="6.71807">
        <ele>815.9</ele>
        <time>2022-05-27T10:38:33Z</time>
      </trkpt>
      <trkpt lat="48.04176" lon="6.71823">
        <ele>814.6</ele>
        <time>2022-05-27T10:38:38Z</time>
      </trkpt>
      <trkpt lat="48.04178" lon="6.71839">
        <ele>816.1</ele>
        <time>2022-05-27T10:38:43Z</time>
      </trkpt>
      <trkpt lat="48.04182" lon="6.71856">
        <ele>818.3</ele>
        <time>2022-05-27T10:38:48Z</time>
      </trkpt>
      <trkpt lat="48.04186" lon="6.71871">
        <ele>818.1</ele>
        <time>2022-05-27T10:38:52Z</time>
      </trkpt>
      <trkpt lat="48.04191" lon="6.71884">
        <ele>818.6</ele>
        <time>2022-05-27T10:38:57Z</time>
      </trkpt>
      <trkpt lat="48.04196" lon="6.71898">
        <ele>818.9</ele>
        <time>2022-05-27T10:39:02Z</time>
      </trkpt>
      <trkpt lat="48.04203" lon="6.7191">
        <ele>818</ele>
        <time>2022-05-27T10:39:07Z</time>
      </trkpt>
      <trkpt lat="48.04211" lon="6.71923">
        <ele>818.5</ele>
        <time>2022-05-27T10:39:11Z</time>
      </trkpt>
      <trkpt lat="48.04218" lon="6.71935">
        <ele>819.9</ele>
        <time>2022-05-27T10:39:15Z</time>
      </trkpt>
      <trkpt lat="48.04224" lon="6.71941">
        <ele>820</ele>
        <time>2022-05-27T10:39:22Z</time>
      </trkpt>
      <trkpt lat="48.04224" lon="6.71941">
        <ele>820</ele>
        <time>2022-05-27T10:40:14Z</time>
      </trkpt>
      <trkpt lat="48.04225" lon="6.7194">
        <ele>819.5</ele>
        <time>2022-05-27T10:40:18Z</time>
      </trkpt>
      <trkpt lat="48.04232" lon="6.71952">
        <ele>820.1</ele>
        <time>2022-05-27T10:40:32Z</time>
      </trkpt>
      <trkpt lat="48.04238" lon="6.71968">
        <ele>818.5</ele>
        <time>2022-05-27T10:40:36Z</time>
      </trkpt>
      <trkpt lat="48.04245" lon="6.71984">
        <ele>816.7</ele>
        <time>2022-05-27T10:40:39Z</time>
      </trkpt>
      <trkpt lat="48.04249" lon="6.71997">
        <ele>817.5</ele>
        <time>2022-05-27T10:40:41Z</time>
      </trkpt>
      <trkpt lat="48.04255" lon="6.72012">
        <ele>817.3</ele>
        <time>2022-05-27T10:40:43Z</time>
      </trkpt>
      <trkpt lat="48.04263" lon="6.72028">
        <ele>814.3</ele>
        <time>2022-05-27T10:40:45Z</time>
      </trkpt>
      <trkpt lat="48.04271" lon="6.72045">
        <ele>813</ele>
        <time>2022-05-27T10:40:47Z</time>
      </trkpt>
      <trkpt lat="48.04276" lon="6.7206">
        <ele>814.9</ele>
        <time>2022-05-27T10:40:49Z</time>
      </trkpt>
      <trkpt lat="48.04272" lon="6.72076">
        <ele>813.8</ele>
        <time>2022-05-27T10:40:52Z</time>
      </trkpt>
      <trkpt lat="48.04267" lon="6.72091">
        <ele>812.8</ele>
        <time>2022-05-27T10:40:55Z</time>
      </trkpt>
      <trkpt lat="48.04262" lon="6.72101">
        <ele>814.1</ele>
        <time>2022-05-27T10:40:57Z</time>
      </trkpt>
      <trkpt lat="48.04255" lon="6.72112">
        <ele>812.8</ele>
        <time>2022-05-27T10:40:59Z</time>
      </trkpt>
      <trkpt lat="48.04246" lon="6.72125">
        <ele>812.6</ele>
        <time>2022-05-27T10:41:02Z</time>
      </trkpt>
      <trkpt lat="48.04239" lon="6.72133">
        <ele>812.7</ele>
        <time>2022-05-27T10:41:04Z</time>
      </trkpt>
      <trkpt lat="48.04231" lon="6.72146">
        <ele>812.2</ele>
        <time>2022-05-27T10:41:07Z</time>
      </trkpt>
      <trkpt lat="48.04223" lon="6.72164">
        <ele>810.6</ele>
        <time>2022-05-27T10:41:10Z</time>
      </trkpt>
      <trkpt lat="48.04213" lon="6.72177">
        <ele>807.6</ele>
        <time>2022-05-27T10:41:12Z</time>
      </trkpt>
      <trkpt lat="48.04202" lon="6.72189">
        <ele>807.1</ele>
        <time>2022-05-27T10:41:14Z</time>
      </trkpt>
      <trkpt lat="48.04191" lon="6.72203">
        <ele>803.2</ele>
        <time>2022-05-27T10:41:16Z</time>
      </trkpt>
      <trkpt lat="48.04178" lon="6.72217">
        <ele>802.6</ele>
        <time>2022-05-27T10:41:18Z</time>
      </trkpt>
      <trkpt lat="48.04165" lon="6.72231">
        <ele>804.3</ele>
        <time>2022-05-27T10:41:20Z</time>
      </trkpt>
      <trkpt lat="48.04155" lon="6.72246">
        <ele>803.8</ele>
        <time>2022-05-27T10:41:22Z</time>
      </trkpt>
      <trkpt lat="48.04149" lon="6.72264">
        <ele>802.5</ele>
        <time>2022-05-27T10:41:24Z</time>
      </trkpt>
      <trkpt lat="48.04146" lon="6.72279">
        <ele>802.6</ele>
        <time>2022-05-27T10:41:26Z</time>
      </trkpt>
      <trkpt lat="48.04143" lon="6.72294">
        <ele>803.2</ele>
        <time>2022-05-27T10:41:28Z</time>
      </trkpt>
      <trkpt lat="48.04139" lon="6.72307">
        <ele>803.3</ele>
        <time>2022-05-27T10:41:30Z</time>
      </trkpt>
      <trkpt lat="48.04136" lon="6.7232">
        <ele>803.4</ele>
        <time>2022-05-27T10:41:32Z</time>
      </trkpt>
      <trkpt lat="48.04132" lon="6.72333">
        <ele>802.6</ele>
        <time>2022-05-27T10:41:34Z</time>
      </trkpt>
      <trkpt lat="48.04129" lon="6.72346">
        <ele>801.5</ele>
        <time>2022-05-27T10:41:36Z</time>
      </trkpt>
      <trkpt lat="48.04126" lon="6.7236">
        <ele>802.3</ele>
        <time>2022-05-27T10:41:38Z</time>
      </trkpt>
      <trkpt lat="48.04121" lon="6.72375">
        <ele>802.1</ele>
        <time>2022-05-27T10:41:40Z</time>
      </trkpt>
      <trkpt lat="48.04115" lon="6.7239">
        <ele>799.9</ele>
        <time>2022-05-27T10:41:42Z</time>
      </trkpt>
      <trkpt lat="48.04108" lon="6.72406">
        <ele>800.1</ele>
        <time>2022-05-27T10:41:44Z</time>
      </trkpt>
      <trkpt lat="48.04102" lon="6.72421">
        <ele>800.4</ele>
        <time>2022-05-27T10:41:46Z</time>
      </trkpt>
      <trkpt lat="48.04097" lon="6.72435">
        <ele>801.2</ele>
        <time>2022-05-27T10:41:48Z</time>
      </trkpt>
      <trkpt lat="48.04093" lon="6.7245">
        <ele>800.8</ele>
        <time>2022-05-27T10:41:50Z</time>
      </trkpt>
      <trkpt lat="48.04091" lon="6.72466">
        <ele>801.1</ele>
        <time>2022-05-27T10:41:52Z</time>
      </trkpt>
      <trkpt lat="48.04091" lon="6.72482">
        <ele>800.8</ele>
        <time>2022-05-27T10:41:54Z</time>
      </trkpt>
      <trkpt lat="48.04092" lon="6.72498">
        <ele>800.9</ele>
        <time>2022-05-27T10:41:56Z</time>
      </trkpt>
      <trkpt lat="48.04094" lon="6.72511">
        <ele>801.9</ele>
        <time>2022-05-27T10:41:58Z</time>
      </trkpt>
      <trkpt lat="48.04095" lon="6.72529">
        <ele>803.7</ele>
        <time>2022-05-27T10:42:01Z</time>
      </trkpt>
      <trkpt lat="48.04092" lon="6.72544">
        <ele>803.7</ele>
        <time>2022-05-27T10:42:04Z</time>
      </trkpt>
      <trkpt lat="48.04088" lon="6.72557">
        <ele>802.6</ele>
        <time>2022-05-27T10:42:07Z</time>
      </trkpt>
      <trkpt lat="48.04082" lon="6.72571">
        <ele>804.5</ele>
        <time>2022-05-27T10:42:11Z</time>
      </trkpt>
      <trkpt lat="48.04075" lon="6.72584">
        <ele>804.7</ele>
        <time>2022-05-27T10:42:15Z</time>
      </trkpt>
      <trkpt lat="48.04069" lon="6.72597">
        <ele>806.9</ele>
        <time>2022-05-27T10:42:19Z</time>
      </trkpt>
      <trkpt lat="48.04062" lon="6.7261">
        <ele>808</ele>
        <time>2022-05-27T10:42:24Z</time>
      </trkpt>
      <trkpt lat="48.04057" lon="6.72624">
        <ele>809.7</ele>
        <time>2022-05-27T10:42:29Z</time>
      </trkpt>
      <trkpt lat="48.04055" lon="6.72638">
        <ele>810.3</ele>
        <time>2022-05-27T10:42:33Z</time>
      </trkpt>
      <trkpt lat="48.04054" lon="6.72652">
        <ele>811</ele>
        <time>2022-05-27T10:42:37Z</time>
      </trkpt>
      <trkpt lat="48.04055" lon="6.72669">
        <ele>811.5</ele>
        <time>2022-05-27T10:42:42Z</time>
      </trkpt>
      <trkpt lat="48.04058" lon="6.72686">
        <ele>812.9</ele>
        <time>2022-05-27T10:42:46Z</time>
      </trkpt>
      <trkpt lat="48.04064" lon="6.727">
        <ele>810.7</ele>
        <time>2022-05-27T10:42:49Z</time>
      </trkpt>
      <trkpt lat="48.04071" lon="6.72715">
        <ele>810.3</ele>
        <time>2022-05-27T10:42:52Z</time>
      </trkpt>
      <trkpt lat="48.04076" lon="6.72732">
        <ele>810.5</ele>
        <time>2022-05-27T10:42:55Z</time>
      </trkpt>
      <trkpt lat="48.04077" lon="6.7275">
        <ele>810.5</ele>
        <time>2022-05-27T10:42:58Z</time>
      </trkpt>
      <trkpt lat="48.04078" lon="6.7277">
        <ele>810.5</ele>
        <time>2022-05-27T10:43:01Z</time>
      </trkpt>
      <trkpt lat="48.04078" lon="6.72788">
        <ele>812.9</ele>
        <time>2022-05-27T10:43:04Z</time>
      </trkpt>
      <trkpt lat="48.04081" lon="6.72805">
        <ele>812.5</ele>
        <time>2022-05-27T10:43:07Z</time>
      </trkpt>
      <trkpt lat="48.04085" lon="6.72819">
        <ele>812.7</ele>
        <time>2022-05-27T10:43:10Z</time>
      </trkpt>
      <trkpt lat="48.0409" lon="6.72833">
        <ele>812.7</ele>
        <time>2022-05-27T10:43:13Z</time>
      </trkpt>
      <trkpt lat="48.04097" lon="6.72847">
        <ele>813.1</ele>
        <time>2022-05-27T10:43:16Z</time>
      </trkpt>
      <trkpt lat="48.04104" lon="6.72863">
        <ele>812.7</ele>
        <time>2022-05-27T10:43:19Z</time>
      </trkpt>
      <trkpt lat="48.04111" lon="6.7288">
        <ele>812.3</ele>
        <time>2022-05-27T10:43:22Z</time>
      </trkpt>
      <trkpt lat="48.04114" lon="6.72892">
        <ele>811.1</ele>
        <time>2022-05-27T10:43:24Z</time>
      </trkpt>
      <trkpt lat="48.04118" lon="6.72905">
        <ele>812</ele>
        <time>2022-05-27T10:43:26Z</time>
      </trkpt>
      <trkpt lat="48.04124" lon="6.72922">
        <ele>811.5</ele>
        <time>2022-05-27T10:43:29Z</time>
      </trkpt>
      <trkpt lat="48.04129" lon="6.72933">
        <ele>810.8</ele>
        <time>2022-05-27T10:43:31Z</time>
      </trkpt>
      <trkpt lat="48.04137" lon="6.72948">
        <ele>811.8</ele>
        <time>2022-05-27T10:43:34Z</time>
      </trkpt>
      <trkpt lat="48.04143" lon="6.72964">
        <ele>811.8</ele>
        <time>2022-05-27T10:43:37Z</time>
      </trkpt>
      <trkpt lat="48.04148" lon="6.72981">
        <ele>811.8</ele>
        <time>2022-05-27T10:43:40Z</time>
      </trkpt>
      <trkpt lat="48.04154" lon="6.72997">
        <ele>812.3</ele>
        <time>2022-05-27T10:43:43Z</time>
      </trkpt>
      <trkpt lat="48.0416" lon="6.73012">
        <ele>811.8</ele>
        <time>2022-05-27T10:43:46Z</time>
      </trkpt>
      <trkpt lat="48.04167" lon="6.73024">
        <ele>813.5</ele>
        <time>2022-05-27T10:43:50Z</time>
      </trkpt>
      <trkpt lat="48.04175" lon="6.73034">
        <ele>815.2</ele>
        <time>2022-05-27T10:43:54Z</time>
      </trkpt>
      <trkpt lat="48.04183" lon="6.73043">
        <ele>816</ele>
        <time>2022-05-27T10:43:58Z</time>
      </trkpt>
      <trkpt lat="48.04191" lon="6.73053">
        <ele>816.5</ele>
        <time>2022-05-27T10:44:02Z</time>
      </trkpt>
      <trkpt lat="48.04199" lon="6.73062">
        <ele>818.2</ele>
        <time>2022-05-27T10:44:06Z</time>
      </trkpt>
      <trkpt lat="48.04208" lon="6.73068">
        <ele>818.2</ele>
        <time>2022-05-27T10:44:10Z</time>
      </trkpt>
      <trkpt lat="48.04217" lon="6.73078">
        <ele>819.7</ele>
        <time>2022-05-27T10:44:15Z</time>
      </trkpt>
      <trkpt lat="48.04222" lon="6.73092">
        <ele>821.8</ele>
        <time>2022-05-27T10:44:20Z</time>
      </trkpt>
      <trkpt lat="48.04226" lon="6.73106">
        <ele>821.9</ele>
        <time>2022-05-27T10:44:25Z</time>
      </trkpt>
      <trkpt lat="48.04229" lon="6.73119">
        <ele>823.5</ele>
        <time>2022-05-27T10:44:30Z</time>
      </trkpt>
      <trkpt lat="48.04233" lon="6.73133">
        <ele>824</ele>
        <time>2022-05-27T10:44:35Z</time>
      </trkpt>
      <trkpt lat="48.04237" lon="6.73146">
        <ele>825.3</ele>
        <time>2022-05-27T10:44:40Z</time>
      </trkpt>
      <trkpt lat="48.0424" lon="6.73161">
        <ele>826.3</ele>
        <time>2022-05-27T10:44:45Z</time>
      </trkpt>
      <trkpt lat="48.04243" lon="6.73175">
        <ele>827.6</ele>
        <time>2022-05-27T10:44:50Z</time>
      </trkpt>
      <trkpt lat="48.04246" lon="6.7319">
        <ele>827.7</ele>
        <time>2022-05-27T10:44:55Z</time>
      </trkpt>
      <trkpt lat="48.04249" lon="6.73206">
        <ele>828.1</ele>
        <time>2022-05-27T10:45:00Z</time>
      </trkpt>
      <trkpt lat="48.04252" lon="6.7322">
        <ele>829.1</ele>
        <time>2022-05-27T10:45:04Z</time>
      </trkpt>
      <trkpt lat="48.04255" lon="6.73234">
        <ele>830.1</ele>
        <time>2022-05-27T10:45:08Z</time>
      </trkpt>
      <trkpt lat="48.04258" lon="6.73248">
        <ele>831.1</ele>
        <time>2022-05-27T10:45:13Z</time>
      </trkpt>
      <trkpt lat="48.04261" lon="6.73262">
        <ele>831.9</ele>
        <time>2022-05-27T10:45:18Z</time>
      </trkpt>
      <trkpt lat="48.04263" lon="6.73276">
        <ele>832.8</ele>
        <time>2022-05-27T10:45:23Z</time>
      </trkpt>
      <trkpt lat="48.04262" lon="6.7329">
        <ele>833.3</ele>
        <time>2022-05-27T10:45:27Z</time>
      </trkpt>
      <trkpt lat="48.04262" lon="6.73305">
        <ele>834.9</ele>
        <time>2022-05-27T10:45:32Z</time>
      </trkpt>
      <trkpt lat="48.04263" lon="6.73321">
        <ele>835.9</ele>
        <time>2022-05-27T10:45:37Z</time>
      </trkpt>
      <trkpt lat="48.04267" lon="6.73333">
        <ele>837.3</ele>
        <time>2022-05-27T10:45:42Z</time>
      </trkpt>
      <trkpt lat="48.04272" lon="6.73346">
        <ele>838</ele>
        <time>2022-05-27T10:45:47Z</time>
      </trkpt>
      <trkpt lat="48.04276" lon="6.73359">
        <ele>839.4</ele>
        <time>2022-05-27T10:45:51Z</time>
      </trkpt>
      <trkpt lat="48.04281" lon="6.7337">
        <ele>839.3</ele>
        <time>2022-05-27T10:45:55Z</time>
      </trkpt>
      <trkpt lat="48.04285" lon="6.73382">
        <ele>839.8</ele>
        <time>2022-05-27T10:45:59Z</time>
      </trkpt>
      <trkpt lat="48.04288" lon="6.73397">
        <ele>840</ele>
        <time>2022-05-27T10:46:03Z</time>
      </trkpt>
      <trkpt lat="48.04291" lon="6.73414">
        <ele>840.2</ele>
        <time>2022-05-27T10:46:07Z</time>
      </trkpt>
      <trkpt lat="48.04292" lon="6.73428">
        <ele>840.5</ele>
        <time>2022-05-27T10:46:10Z</time>
      </trkpt>
      <trkpt lat="48.04296" lon="6.73442">
        <ele>840</ele>
        <time>2022-05-27T10:46:13Z</time>
      </trkpt>
      <trkpt lat="48.04301" lon="6.73458">
        <ele>840.3</ele>
        <time>2022-05-27T10:46:16Z</time>
      </trkpt>
      <trkpt lat="48.04308" lon="6.73472">
        <ele>839.8</ele>
        <time>2022-05-27T10:46:19Z</time>
      </trkpt>
      <trkpt lat="48.04316" lon="6.73488">
        <ele>838.8</ele>
        <time>2022-05-27T10:46:22Z</time>
      </trkpt>
      <trkpt lat="48.04322" lon="6.73501">
        <ele>838.6</ele>
        <time>2022-05-27T10:46:24Z</time>
      </trkpt>
      <trkpt lat="48.04328" lon="6.73514">
        <ele>839.2</ele>
        <time>2022-05-27T10:46:26Z</time>
      </trkpt>
      <trkpt lat="48.04333" lon="6.7353">
        <ele>837.8</ele>
        <time>2022-05-27T10:46:28Z</time>
      </trkpt>
      <trkpt lat="48.04339" lon="6.73546">
        <ele>838</ele>
        <time>2022-05-27T10:46:30Z</time>
      </trkpt>
      <trkpt lat="48.04347" lon="6.73562">
        <ele>837</ele>
        <time>2022-05-27T10:46:32Z</time>
      </trkpt>
      <trkpt lat="48.04356" lon="6.73579">
        <ele>833.7</ele>
        <time>2022-05-27T10:46:34Z</time>
      </trkpt>
      <trkpt lat="48.04365" lon="6.73597">
        <ele>834.7</ele>
        <time>2022-05-27T10:46:36Z</time>
      </trkpt>
      <trkpt lat="48.04369" lon="6.73612">
        <ele>833</ele>
        <time>2022-05-27T10:46:38Z</time>
      </trkpt>
      <trkpt lat="48.04372" lon="6.73629">
        <ele>834.8</ele>
        <time>2022-05-27T10:46:41Z</time>
      </trkpt>
      <trkpt lat="48.04376" lon="6.73643">
        <ele>834.9</ele>
        <time>2022-05-27T10:46:45Z</time>
      </trkpt>
      <trkpt lat="48.0438" lon="6.73656">
        <ele>832.9</ele>
        <time>2022-05-27T10:46:49Z</time>
      </trkpt>
      <trkpt lat="48.04387" lon="6.73666">
        <ele>832.9</ele>
        <time>2022-05-27T10:46:53Z</time>
      </trkpt>
      <trkpt lat="48.04396" lon="6.73671">
        <ele>832.8</ele>
        <time>2022-05-27T10:46:58Z</time>
      </trkpt>
      <trkpt lat="48.04401" lon="6.73671">
        <ele>832.9</ele>
        <time>2022-05-27T10:47:14Z</time>
      </trkpt>
      <trkpt lat="48.04401" lon="6.7367">
        <ele>832.1</ele>
        <time>2022-05-27T10:47:20Z</time>
      </trkpt>
      <trkpt lat="48.04401" lon="6.7367">
        <ele>831.9</ele>
        <time>2022-05-27T10:48:51Z</time>
      </trkpt>
      <trkpt lat="48.04401" lon="6.73669">
        <ele>831.6</ele>
        <time>2022-05-27T10:51:23Z</time>
      </trkpt>
      <trkpt lat="48.04401" lon="6.73669">
        <ele>831.2</ele>
        <time>2022-05-27T10:56:43Z</time>
      </trkpt>
      <trkpt lat="48.044" lon="6.73668">
        <ele>830.5</ele>
        <time>2022-05-27T10:59:12Z</time>
      </trkpt>
      <trkpt lat="48.044" lon="6.73668">
        <ele>831.2</ele>
        <time>2022-05-27T11:03:47Z</time>
      </trkpt>
      <trkpt lat="48.044" lon="6.73668">
        <ele>830.8</ele>
        <time>2022-05-27T11:08:03Z</time>
      </trkpt>
      <trkpt lat="48.04393" lon="6.73672">
        <ele>831.3</ele>
        <time>2022-05-27T11:08:23Z</time>
      </trkpt>
      <trkpt lat="48.04393" lon="6.73672">
        <ele>831.3</ele>
        <time>2022-05-27T11:08:24Z</time>
      </trkpt>
      <trkpt lat="48.04386" lon="6.73682">
        <ele>831</ele>
        <time>2022-05-27T11:08:49Z</time>
      </trkpt>
      <trkpt lat="48.04379" lon="6.73691">
        <ele>829.6</ele>
        <time>2022-05-27T11:08:57Z</time>
      </trkpt>
      <trkpt lat="48.04379" lon="6.73692">
        <ele>829</ele>
        <time>2022-05-27T11:08:59Z</time>
      </trkpt>
      <trkpt lat="48.04379" lon="6.73692">
        <ele>829</ele>
        <time>2022-05-27T11:09:23Z</time>
      </trkpt>
      <trkpt lat="48.04379" lon="6.73691">
        <ele>828.8</ele>
        <time>2022-05-27T11:10:34Z</time>
      </trkpt>
      <trkpt lat="48.04379" lon="6.73691">
        <ele>829.1</ele>
        <time>2022-05-27T11:10:42Z</time>
      </trkpt>
      <trkpt lat="48.04379" lon="6.73691">
        <ele>829.2</ele>
        <time>2022-05-27T11:11:51Z</time>
      </trkpt>
      <trkpt lat="48.0438" lon="6.7369">
        <ele>828.5</ele>
        <time>2022-05-27T11:13:22Z</time>
      </trkpt>
      <trkpt lat="48.04379" lon="6.73691">
        <ele>828.5</ele>
        <time>2022-05-27T11:13:24Z</time>
      </trkpt>
      <trkpt lat="48.0438" lon="6.73691">
        <ele>828</ele>
        <time>2022-05-27T11:15:12Z</time>
      </trkpt>
      <trkpt lat="48.04379" lon="6.73691">
        <ele>828.5</ele>
        <time>2022-05-27T11:16:12Z</time>
      </trkpt>
      <trkpt lat="48.04379" lon="6.7369">
        <ele>828.6</ele>
        <time>2022-05-27T11:16:14Z</time>
      </trkpt>
      <trkpt lat="48.04379" lon="6.7369">
        <ele>828.5</ele>
        <time>2022-05-27T11:16:57Z</time>
      </trkpt>
      <trkpt lat="48.04379" lon="6.7369">
        <ele>828.3</ele>
        <time>2022-05-27T11:17:00Z</time>
      </trkpt>
      <trkpt lat="48.04388" lon="6.73691">
        <ele>829.3</ele>
        <time>2022-05-27T11:18:28Z</time>
      </trkpt>
      <trkpt lat="48.04388" lon="6.7369">
        <ele>829.6</ele>
        <time>2022-05-27T11:18:34Z</time>
      </trkpt>
      <trkpt lat="48.04387" lon="6.73685">
        <ele>829.8</ele>
        <time>2022-05-27T11:18:41Z</time>
      </trkpt>
      <trkpt lat="48.04387" lon="6.73684">
        <ele>829.3</ele>
        <time>2022-05-27T11:18:44Z</time>
      </trkpt>
      <trkpt lat="48.04381" lon="6.73684">
        <ele>830</ele>
        <time>2022-05-27T11:18:58Z</time>
      </trkpt>
      <trkpt lat="48.04381" lon="6.73685">
        <ele>829.9</ele>
        <time>2022-05-27T11:19:14Z</time>
      </trkpt>
      <trkpt lat="48.04381" lon="6.73685">
        <ele>829.8</ele>
        <time>2022-05-27T11:19:15Z</time>
      </trkpt>
      <trkpt lat="48.04381" lon="6.73685">
        <ele>829.7</ele>
        <time>2022-05-27T11:19:18Z</time>
      </trkpt>
      <trkpt lat="48.04381" lon="6.73685">
        <ele>830.1</ele>
        <time>2022-05-27T11:19:20Z</time>
      </trkpt>
      <trkpt lat="48.04381" lon="6.73685">
        <ele>829.3</ele>
        <time>2022-05-27T11:20:07Z</time>
      </trkpt>
      <trkpt lat="48.04388" lon="6.73677">
        <ele>830.1</ele>
        <time>2022-05-27T11:20:21Z</time>
      </trkpt>
      <trkpt lat="48.04396" lon="6.73668">
        <ele>830.8</ele>
        <time>2022-05-27T11:20:31Z</time>
      </trkpt>
      <trkpt lat="48.04399" lon="6.73666">
        <ele>829.9</ele>
        <time>2022-05-27T11:20:37Z</time>
      </trkpt>
      <trkpt lat="48.044" lon="6.73666">
        <ele>830.7</ele>
        <time>2022-05-27T11:20:41Z</time>
      </trkpt>
      <trkpt lat="48.04401" lon="6.73666">
        <ele>830.3</ele>
        <time>2022-05-27T11:20:49Z</time>
      </trkpt>
      <trkpt lat="48.04401" lon="6.73667">
        <ele>830.1</ele>
        <time>2022-05-27T11:21:25Z</time>
      </trkpt>
      <trkpt lat="48.04402" lon="6.73667">
        <ele>830.2</ele>
        <time>2022-05-27T11:21:39Z</time>
      </trkpt>
      <trkpt lat="48.04402" lon="6.73667">
        <ele>830</ele>
        <time>2022-05-27T11:22:04Z</time>
      </trkpt>
      <trkpt lat="48.04402" lon="6.73667">
        <ele>830.4</ele>
        <time>2022-05-27T11:22:38Z</time>
      </trkpt>
      <trkpt lat="48.04402" lon="6.73667">
        <ele>830.3</ele>
        <time>2022-05-27T11:23:27Z</time>
      </trkpt>
      <trkpt lat="48.04402" lon="6.73667">
        <ele>830.4</ele>
        <time>2022-05-27T11:24:57Z</time>
      </trkpt>
      <trkpt lat="48.04402" lon="6.73667">
        <ele>830.6</ele>
        <time>2022-05-27T11:28:16Z</time>
      </trkpt>
      <trkpt lat="48.04402" lon="6.73667">
        <ele>831.1</ele>
        <time>2022-05-27T11:29:10Z</time>
      </trkpt>
      <trkpt lat="48.04401" lon="6.73667">
        <ele>830.8</ele>
        <time>2022-05-27T11:32:01Z</time>
      </trkpt>
      <trkpt lat="48.04401" lon="6.73667">
        <ele>831.5</ele>
        <time>2022-05-27T11:32:39Z</time>
      </trkpt>
      <trkpt lat="48.04401" lon="6.73667">
        <ele>831.3</ele>
        <time>2022-05-27T11:33:10Z</time>
      </trkpt>
      <trkpt lat="48.04401" lon="6.73667">
        <ele>831.2</ele>
        <time>2022-05-27T11:33:41Z</time>
      </trkpt>
      <trkpt lat="48.044" lon="6.73667">
        <ele>831.1</ele>
        <time>2022-05-27T11:33:43Z</time>
      </trkpt>
      <trkpt lat="48.044" lon="6.73667">
        <ele>831.1</ele>
        <time>2022-05-27T11:33:52Z</time>
      </trkpt>
      <trkpt lat="48.044" lon="6.73666">
        <ele>831.2</ele>
        <time>2022-05-27T11:33:55Z</time>
      </trkpt>
      <trkpt lat="48.04399" lon="6.73666">
        <ele>830.8</ele>
        <time>2022-05-27T11:34:34Z</time>
      </trkpt>
      <trkpt lat="48.04392" lon="6.73674">
        <ele>830.4</ele>
        <time>2022-05-27T11:34:50Z</time>
      </trkpt>
      <trkpt lat="48.04387" lon="6.73687">
        <ele>829.4</ele>
        <time>2022-05-27T11:34:55Z</time>
      </trkpt>
      <trkpt lat="48.04386" lon="6.73703">
        <ele>830</ele>
        <time>2022-05-27T11:34:58Z</time>
      </trkpt>
      <trkpt lat="48.04388" lon="6.7372">
        <ele>828.6</ele>
        <time>2022-05-27T11:35:01Z</time>
      </trkpt>
      <trkpt lat="48.04388" lon="6.73737">
        <ele>827.4</ele>
        <time>2022-05-27T11:35:04Z</time>
      </trkpt>
      <trkpt lat="48.04386" lon="6.73754">
        <ele>827.9</ele>
        <time>2022-05-27T11:35:07Z</time>
      </trkpt>
      <trkpt lat="48.04385" lon="6.73771">
        <ele>828</ele>
        <time>2022-05-27T11:35:10Z</time>
      </trkpt>
      <trkpt lat="48.04384" lon="6.73791">
        <ele>827.8</ele>
        <time>2022-05-27T11:35:13Z</time>
      </trkpt>
      <trkpt lat="48.04382" lon="6.73805">
        <ele>825.6</ele>
        <time>2022-05-27T11:35:15Z</time>
      </trkpt>
      <trkpt lat="48.04379" lon="6.73818">
        <ele>824.5</ele>
        <time>2022-05-27T11:35:17Z</time>
      </trkpt>
      <trkpt lat="48.04376" lon="6.73831">
        <ele>825.6</ele>
        <time>2022-05-27T11:35:19Z</time>
      </trkpt>
      <trkpt lat="48.04371" lon="6.73843">
        <ele>825.4</ele>
        <time>2022-05-27T11:35:21Z</time>
      </trkpt>
      <trkpt lat="48.04364" lon="6.73856">
        <ele>825.1</ele>
        <time>2022-05-27T11:35:24Z</time>
      </trkpt>
      <trkpt lat="48.04357" lon="6.73867">
        <ele>825.4</ele>
        <time>2022-05-27T11:35:27Z</time>
      </trkpt>
      <trkpt lat="48.0435" lon="6.73877">
        <ele>825.6</ele>
        <time>2022-05-27T11:35:30Z</time>
      </trkpt>
      <trkpt lat="48.04344" lon="6.7389">
        <ele>824.9</ele>
        <time>2022-05-27T11:35:33Z</time>
      </trkpt>
      <trkpt lat="48.04338" lon="6.73904">
        <ele>823.7</ele>
        <time>2022-05-27T11:35:36Z</time>
      </trkpt>
      <trkpt lat="48.04333" lon="6.73918">
        <ele>823.3</ele>
        <time>2022-05-27T11:35:39Z</time>
      </trkpt>
      <trkpt lat="48.04329" lon="6.73933">
        <ele>824.2</ele>
        <time>2022-05-27T11:35:42Z</time>
      </trkpt>
      <trkpt lat="48.04327" lon="6.73953">
        <ele>822</ele>
        <time>2022-05-27T11:35:45Z</time>
      </trkpt>
      <trkpt lat="48.04326" lon="6.7397">
        <ele>819.8</ele>
        <time>2022-05-27T11:35:47Z</time>
      </trkpt>
      <trkpt lat="48.04322" lon="6.7399">
        <ele>818.7</ele>
        <time>2022-05-27T11:35:49Z</time>
      </trkpt>
      <trkpt lat="48.04316" lon="6.74007">
        <ele>817.9</ele>
        <time>2022-05-27T11:35:51Z</time>
      </trkpt>
      <trkpt lat="48.04313" lon="6.74023">
        <ele>815.9</ele>
        <time>2022-05-27T11:35:53Z</time>
      </trkpt>
      <trkpt lat="48.04314" lon="6.74039">
        <ele>816.8</ele>
        <time>2022-05-27T11:35:55Z</time>
      </trkpt>
      <trkpt lat="48.04318" lon="6.74054">
        <ele>818.8</ele>
        <time>2022-05-27T11:35:57Z</time>
      </trkpt>
      <trkpt lat="48.04323" lon="6.74067">
        <ele>817.3</ele>
        <time>2022-05-27T11:35:59Z</time>
      </trkpt>
      <trkpt lat="48.0433" lon="6.74079">
        <ele>815.5</ele>
        <time>2022-05-27T11:36:01Z</time>
      </trkpt>
      <trkpt lat="48.04336" lon="6.74089">
        <ele>817.6</ele>
        <time>2022-05-27T11:36:03Z</time>
      </trkpt>
      <trkpt lat="48.04344" lon="6.74097">
        <ele>815.2</ele>
        <time>2022-05-27T11:36:05Z</time>
      </trkpt>
      <trkpt lat="48.04353" lon="6.74106">
        <ele>812.8</ele>
        <time>2022-05-27T11:36:07Z</time>
      </trkpt>
      <trkpt lat="48.04363" lon="6.74114">
        <ele>813.1</ele>
        <time>2022-05-27T11:36:09Z</time>
      </trkpt>
      <trkpt lat="48.04371" lon="6.74121">
        <ele>812.1</ele>
        <time>2022-05-27T11:36:11Z</time>
      </trkpt>
      <trkpt lat="48.04379" lon="6.74136">
        <ele>811.8</ele>
        <time>2022-05-27T11:36:14Z</time>
      </trkpt>
      <trkpt lat="48.04374" lon="6.74155">
        <ele>811.6</ele>
        <time>2022-05-27T11:36:17Z</time>
      </trkpt>
      <trkpt lat="48.04368" lon="6.74166">
        <ele>811.4</ele>
        <time>2022-05-27T11:36:19Z</time>
      </trkpt>
      <trkpt lat="48.04359" lon="6.74181">
        <ele>810.3</ele>
        <time>2022-05-27T11:36:22Z</time>
      </trkpt>
      <trkpt lat="48.04354" lon="6.74193">
        <ele>810.2</ele>
        <time>2022-05-27T11:36:24Z</time>
      </trkpt>
      <trkpt lat="48.0435" lon="6.74205">
        <ele>810.8</ele>
        <time>2022-05-27T11:36:26Z</time>
      </trkpt>
      <trkpt lat="48.04347" lon="6.74219">
        <ele>811.2</ele>
        <time>2022-05-27T11:36:28Z</time>
      </trkpt>
      <trkpt lat="48.04346" lon="6.74237">
        <ele>812.3</ele>
        <time>2022-05-27T11:36:31Z</time>
      </trkpt>
      <trkpt lat="48.04348" lon="6.74253">
        <ele>811.9</ele>
        <time>2022-05-27T11:36:34Z</time>
      </trkpt>
      <trkpt lat="48.0435" lon="6.74267">
        <ele>812.5</ele>
        <time>2022-05-27T11:36:37Z</time>
      </trkpt>
      <trkpt lat="48.04348" lon="6.74284">
        <ele>814.3</ele>
        <time>2022-05-27T11:36:41Z</time>
      </trkpt>
      <trkpt lat="48.04343" lon="6.74299">
        <ele>814.5</ele>
        <time>2022-05-27T11:36:45Z</time>
      </trkpt>
      <trkpt lat="48.04337" lon="6.74313">
        <ele>814.6</ele>
        <time>2022-05-27T11:36:49Z</time>
      </trkpt>
      <trkpt lat="48.04331" lon="6.74328">
        <ele>814.2</ele>
        <time>2022-05-27T11:36:53Z</time>
      </trkpt>
      <trkpt lat="48.04327" lon="6.74341">
        <ele>815.9</ele>
        <time>2022-05-27T11:36:57Z</time>
      </trkpt>
      <trkpt lat="48.04322" lon="6.74354">
        <ele>816.1</ele>
        <time>2022-05-27T11:37:02Z</time>
      </trkpt>
      <trkpt lat="48.04317" lon="6.74369">
        <ele>816.7</ele>
        <time>2022-05-27T11:37:07Z</time>
      </trkpt>
      <trkpt lat="48.04313" lon="6.74382">
        <ele>817.6</ele>
        <time>2022-05-27T11:37:11Z</time>
      </trkpt>
      <trkpt lat="48.04308" lon="6.74396">
        <ele>818.1</ele>
        <time>2022-05-27T11:37:16Z</time>
      </trkpt>
      <trkpt lat="48.043" lon="6.74407">
        <ele>818.6</ele>
        <time>2022-05-27T11:37:21Z</time>
      </trkpt>
      <trkpt lat="48.04292" lon="6.74414">
        <ele>818.2</ele>
        <time>2022-05-27T11:37:25Z</time>
      </trkpt>
      <trkpt lat="48.04282" lon="6.7442">
        <ele>818.1</ele>
        <time>2022-05-27T11:37:29Z</time>
      </trkpt>
      <trkpt lat="48.04273" lon="6.74427">
        <ele>819.4</ele>
        <time>2022-05-27T11:37:33Z</time>
      </trkpt>
      <trkpt lat="48.04264" lon="6.74436">
        <ele>819</ele>
        <time>2022-05-27T11:37:37Z</time>
      </trkpt>
      <trkpt lat="48.04257" lon="6.74448">
        <ele>819.1</ele>
        <time>2022-05-27T11:37:41Z</time>
      </trkpt>
      <trkpt lat="48.04249" lon="6.7446">
        <ele>818.9</ele>
        <time>2022-05-27T11:37:45Z</time>
      </trkpt>
      <trkpt lat="48.04242" lon="6.74474">
        <ele>819.6</ele>
        <time>2022-05-27T11:37:49Z</time>
      </trkpt>
      <trkpt lat="48.04238" lon="6.74489">
        <ele>820</ele>
        <time>2022-05-27T11:37:53Z</time>
      </trkpt>
      <trkpt lat="48.04236" lon="6.74507">
        <ele>819.7</ele>
        <time>2022-05-27T11:37:57Z</time>
      </trkpt>
      <trkpt lat="48.04235" lon="6.74521">
        <ele>820.3</ele>
        <time>2022-05-27T11:38:00Z</time>
      </trkpt>
      <trkpt lat="48.04233" lon="6.74534">
        <ele>820.6</ele>
        <time>2022-05-27T11:38:03Z</time>
      </trkpt>
      <trkpt lat="48.04231" lon="6.74552">
        <ele>819.7</ele>
        <time>2022-05-27T11:38:07Z</time>
      </trkpt>
      <trkpt lat="48.0423" lon="6.74566">
        <ele>820.7</ele>
        <time>2022-05-27T11:38:10Z</time>
      </trkpt>
      <trkpt lat="48.04229" lon="6.74582">
        <ele>820.9</ele>
        <time>2022-05-27T11:38:14Z</time>
      </trkpt>
      <trkpt lat="48.04228" lon="6.746">
        <ele>820.9</ele>
        <time>2022-05-27T11:38:18Z</time>
      </trkpt>
      <trkpt lat="48.04228" lon="6.74614">
        <ele>820.2</ele>
        <time>2022-05-27T11:38:21Z</time>
      </trkpt>
      <trkpt lat="48.04227" lon="6.74632">
        <ele>820.4</ele>
        <time>2022-05-27T11:38:25Z</time>
      </trkpt>
      <trkpt lat="48.04225" lon="6.74647">
        <ele>819.8</ele>
        <time>2022-05-27T11:38:28Z</time>
      </trkpt>
      <trkpt lat="48.04222" lon="6.74662">
        <ele>820.9</ele>
        <time>2022-05-27T11:38:31Z</time>
      </trkpt>
      <trkpt lat="48.04218" lon="6.74675">
        <ele>821.1</ele>
        <time>2022-05-27T11:38:34Z</time>
      </trkpt>
      <trkpt lat="48.04212" lon="6.74688">
        <ele>821</ele>
        <time>2022-05-27T11:38:37Z</time>
      </trkpt>
      <trkpt lat="48.04207" lon="6.747">
        <ele>821.5</ele>
        <time>2022-05-27T11:38:40Z</time>
      </trkpt>
      <trkpt lat="48.04204" lon="6.74717">
        <ele>821.9</ele>
        <time>2022-05-27T11:38:44Z</time>
      </trkpt>
      <trkpt lat="48.04203" lon="6.74735">
        <ele>822.5</ele>
        <time>2022-05-27T11:38:48Z</time>
      </trkpt>
      <trkpt lat="48.04203" lon="6.74749">
        <ele>822.5</ele>
        <time>2022-05-27T11:38:51Z</time>
      </trkpt>
      <trkpt lat="48.04204" lon="6.74764">
        <ele>822.2</ele>
        <time>2022-05-27T11:38:54Z</time>
      </trkpt>
      <trkpt lat="48.04205" lon="6.7478">
        <ele>822.1</ele>
        <time>2022-05-27T11:38:57Z</time>
      </trkpt>
      <trkpt lat="48.04206" lon="6.74796">
        <ele>821.5</ele>
        <time>2022-05-27T11:39:00Z</time>
      </trkpt>
      <trkpt lat="48.04206" lon="6.74812">
        <ele>820.8</ele>
        <time>2022-05-27T11:39:03Z</time>
      </trkpt>
      <trkpt lat="48.04208" lon="6.74829">
        <ele>821.7</ele>
        <time>2022-05-27T11:39:06Z</time>
      </trkpt>
      <trkpt lat="48.04209" lon="6.74847">
        <ele>820.9</ele>
        <time>2022-05-27T11:39:09Z</time>
      </trkpt>
      <trkpt lat="48.0421" lon="6.74867">
        <ele>820.3</ele>
        <time>2022-05-27T11:39:12Z</time>
      </trkpt>
      <trkpt lat="48.0421" lon="6.74886">
        <ele>820.4</ele>
        <time>2022-05-27T11:39:15Z</time>
      </trkpt>
      <trkpt lat="48.0421" lon="6.74906">
        <ele>821.1</ele>
        <time>2022-05-27T11:39:18Z</time>
      </trkpt>
      <trkpt lat="48.04209" lon="6.74919">
        <ele>820.1</ele>
        <time>2022-05-27T11:39:20Z</time>
      </trkpt>
      <trkpt lat="48.04206" lon="6.74932">
        <ele>820.8</ele>
        <time>2022-05-27T11:39:22Z</time>
      </trkpt>
      <trkpt lat="48.04204" lon="6.74946">
        <ele>820.4</ele>
        <time>2022-05-27T11:39:24Z</time>
      </trkpt>
      <trkpt lat="48.04197" lon="6.74963">
        <ele>820.6</ele>
        <time>2022-05-27T11:39:27Z</time>
      </trkpt>
      <trkpt lat="48.04192" lon="6.74975">
        <ele>819.7</ele>
        <time>2022-05-27T11:39:29Z</time>
      </trkpt>
      <trkpt lat="48.04187" lon="6.74987">
        <ele>820.5</ele>
        <time>2022-05-27T11:39:31Z</time>
      </trkpt>
      <trkpt lat="48.04182" lon="6.74999">
        <ele>820.2</ele>
        <time>2022-05-27T11:39:33Z</time>
      </trkpt>
      <trkpt lat="48.04176" lon="6.75017">
        <ele>820.1</ele>
        <time>2022-05-27T11:39:36Z</time>
      </trkpt>
      <trkpt lat="48.0417" lon="6.75032">
        <ele>820.3</ele>
        <time>2022-05-27T11:39:39Z</time>
      </trkpt>
      <trkpt lat="48.04164" lon="6.75047">
        <ele>819.8</ele>
        <time>2022-05-27T11:39:42Z</time>
      </trkpt>
      <trkpt lat="48.0416" lon="6.75061">
        <ele>819</ele>
        <time>2022-05-27T11:39:45Z</time>
      </trkpt>
      <trkpt lat="48.04157" lon="6.75077">
        <ele>819.1</ele>
        <time>2022-05-27T11:39:48Z</time>
      </trkpt>
      <trkpt lat="48.04151" lon="6.75093">
        <ele>818.6</ele>
        <time>2022-05-27T11:39:51Z</time>
      </trkpt>
      <trkpt lat="48.04147" lon="6.75107">
        <ele>819.8</ele>
        <time>2022-05-27T11:39:54Z</time>
      </trkpt>
      <trkpt lat="48.04139" lon="6.7512">
        <ele>820.6</ele>
        <time>2022-05-27T11:39:58Z</time>
      </trkpt>
      <trkpt lat="48.04131" lon="6.75129">
        <ele>821.4</ele>
        <time>2022-05-27T11:40:02Z</time>
      </trkpt>
      <trkpt lat="48.04123" lon="6.75139">
        <ele>822.9</ele>
        <time>2022-05-27T11:40:07Z</time>
      </trkpt>
      <trkpt lat="48.04116" lon="6.7515">
        <ele>823.7</ele>
        <time>2022-05-27T11:40:12Z</time>
      </trkpt>
      <trkpt lat="48.04109" lon="6.7516">
        <ele>824.6</ele>
        <time>2022-05-27T11:40:17Z</time>
      </trkpt>
      <trkpt lat="48.04102" lon="6.75172">
        <ele>825.6</ele>
        <time>2022-05-27T11:40:22Z</time>
      </trkpt>
      <trkpt lat="48.04097" lon="6.75182">
        <ele>826.2</ele>
        <time>2022-05-27T11:40:26Z</time>
      </trkpt>
      <trkpt lat="48.04091" lon="6.75195">
        <ele>827</ele>
        <time>2022-05-27T11:40:31Z</time>
      </trkpt>
      <trkpt lat="48.04086" lon="6.75208">
        <ele>827.8</ele>
        <time>2022-05-27T11:40:36Z</time>
      </trkpt>
      <trkpt lat="48.04082" lon="6.75222">
        <ele>828.5</ele>
        <time>2022-05-27T11:40:41Z</time>
      </trkpt>
      <trkpt lat="48.04078" lon="6.75237">
        <ele>829.2</ele>
        <time>2022-05-27T11:40:46Z</time>
      </trkpt>
      <trkpt lat="48.04074" lon="6.75251">
        <ele>829.7</ele>
        <time>2022-05-27T11:40:51Z</time>
      </trkpt>
      <trkpt lat="48.0407" lon="6.75264">
        <ele>830.9</ele>
        <time>2022-05-27T11:40:56Z</time>
      </trkpt>
      <trkpt lat="48.04066" lon="6.75277">
        <ele>831.6</ele>
        <time>2022-05-27T11:41:01Z</time>
      </trkpt>
      <trkpt lat="48.0406" lon="6.7529">
        <ele>832.1</ele>
        <time>2022-05-27T11:41:06Z</time>
      </trkpt>
      <trkpt lat="48.04054" lon="6.75304">
        <ele>832.3</ele>
        <time>2022-05-27T11:41:11Z</time>
      </trkpt>
      <trkpt lat="48.04049" lon="6.75315">
        <ele>832.6</ele>
        <time>2022-05-27T11:41:15Z</time>
      </trkpt>
      <trkpt lat="48.04042" lon="6.75328">
        <ele>833.4</ele>
        <time>2022-05-27T11:41:20Z</time>
      </trkpt>
      <trkpt lat="48.04034" lon="6.7534">
        <ele>833.7</ele>
        <time>2022-05-27T11:41:25Z</time>
      </trkpt>
      <trkpt lat="48.04029" lon="6.75352">
        <ele>833.8</ele>
        <time>2022-05-27T11:41:29Z</time>
      </trkpt>
      <trkpt lat="48.04022" lon="6.75364">
        <ele>834.8</ele>
        <time>2022-05-27T11:41:34Z</time>
      </trkpt>
      <trkpt lat="48.04015" lon="6.75377">
        <ele>835.6</ele>
        <time>2022-05-27T11:41:39Z</time>
      </trkpt>
      <trkpt lat="48.0401" lon="6.75389">
        <ele>836.5</ele>
        <time>2022-05-27T11:41:44Z</time>
      </trkpt>
      <trkpt lat="48.04003" lon="6.75399">
        <ele>837.1</ele>
        <time>2022-05-27T11:41:49Z</time>
      </trkpt>
      <trkpt lat="48.03995" lon="6.75407">
        <ele>837.6</ele>
        <time>2022-05-27T11:41:54Z</time>
      </trkpt>
      <trkpt lat="48.03987" lon="6.75412">
        <ele>838.6</ele>
        <time>2022-05-27T11:41:59Z</time>
      </trkpt>
      <trkpt lat="48.03977" lon="6.75414">
        <ele>839.4</ele>
        <time>2022-05-27T11:42:04Z</time>
      </trkpt>
      <trkpt lat="48.03966" lon="6.75416">
        <ele>840.1</ele>
        <time>2022-05-27T11:42:09Z</time>
      </trkpt>
      <trkpt lat="48.03956" lon="6.75415">
        <ele>840.8</ele>
        <time>2022-05-27T11:42:14Z</time>
      </trkpt>
      <trkpt lat="48.03946" lon="6.75421">
        <ele>841.4</ele>
        <time>2022-05-27T11:42:19Z</time>
      </trkpt>
      <trkpt lat="48.03939" lon="6.75432">
        <ele>843.4</ele>
        <time>2022-05-27T11:42:25Z</time>
      </trkpt>
      <trkpt lat="48.03934" lon="6.75446">
        <ele>844.1</ele>
        <time>2022-05-27T11:42:31Z</time>
      </trkpt>
      <trkpt lat="48.03927" lon="6.75457">
        <ele>845.5</ele>
        <time>2022-05-27T11:42:37Z</time>
      </trkpt>
      <trkpt lat="48.03918" lon="6.75464">
        <ele>846.3</ele>
        <time>2022-05-27T11:42:43Z</time>
      </trkpt>
      <trkpt lat="48.03908" lon="6.75468">
        <ele>847.4</ele>
        <time>2022-05-27T11:42:49Z</time>
      </trkpt>
      <trkpt lat="48.03898" lon="6.75466">
        <ele>848.2</ele>
        <time>2022-05-27T11:42:55Z</time>
      </trkpt>
      <trkpt lat="48.03888" lon="6.75462">
        <ele>849.4</ele>
        <time>2022-05-27T11:43:01Z</time>
      </trkpt>
      <trkpt lat="48.03879" lon="6.75456">
        <ele>851</ele>
        <time>2022-05-27T11:43:07Z</time>
      </trkpt>
      <trkpt lat="48.0387" lon="6.75451">
        <ele>852.1</ele>
        <time>2022-05-27T11:43:13Z</time>
      </trkpt>
      <trkpt lat="48.03861" lon="6.75449">
        <ele>852.9</ele>
        <time>2022-05-27T11:43:19Z</time>
      </trkpt>
      <trkpt lat="48.03852" lon="6.7545">
        <ele>855</ele>
        <time>2022-05-27T11:43:25Z</time>
      </trkpt>
      <trkpt lat="48.03843" lon="6.75451">
        <ele>856.5</ele>
        <time>2022-05-27T11:43:32Z</time>
      </trkpt>
      <trkpt lat="48.03833" lon="6.75453">
        <ele>857.7</ele>
        <time>2022-05-27T11:43:40Z</time>
      </trkpt>
      <trkpt lat="48.03823" lon="6.75457">
        <ele>859.4</ele>
        <time>2022-05-27T11:43:48Z</time>
      </trkpt>
      <trkpt lat="48.03814" lon="6.7546">
        <ele>860.7</ele>
        <time>2022-05-27T11:43:55Z</time>
      </trkpt>
      <trkpt lat="48.03804" lon="6.75464">
        <ele>861.6</ele>
        <time>2022-05-27T11:44:02Z</time>
      </trkpt>
      <trkpt lat="48.03795" lon="6.75468">
        <ele>862.9</ele>
        <time>2022-05-27T11:44:09Z</time>
      </trkpt>
      <trkpt lat="48.03786" lon="6.75475">
        <ele>864.6</ele>
        <time>2022-05-27T11:44:15Z</time>
      </trkpt>
      <trkpt lat="48.03776" lon="6.7548">
        <ele>865.2</ele>
        <time>2022-05-27T11:44:21Z</time>
      </trkpt>
      <trkpt lat="48.03766" lon="6.75487">
        <ele>864.9</ele>
        <time>2022-05-27T11:44:26Z</time>
      </trkpt>
      <trkpt lat="48.03758" lon="6.75494">
        <ele>865.4</ele>
        <time>2022-05-27T11:44:31Z</time>
      </trkpt>
      <trkpt lat="48.03752" lon="6.75504">
        <ele>865.7</ele>
        <time>2022-05-27T11:44:36Z</time>
      </trkpt>
      <trkpt lat="48.03746" lon="6.75515">
        <ele>866.8</ele>
        <time>2022-05-27T11:44:39Z</time>
      </trkpt>
      <trkpt lat="48.03739" lon="6.7553">
        <ele>866.6</ele>
        <time>2022-05-27T11:44:43Z</time>
      </trkpt>
      <trkpt lat="48.03733" lon="6.75545">
        <ele>865.6</ele>
        <time>2022-05-27T11:44:46Z</time>
      </trkpt>
      <trkpt lat="48.03728" lon="6.75556">
        <ele>864.8</ele>
        <time>2022-05-27T11:44:49Z</time>
      </trkpt>
      <trkpt lat="48.03722" lon="6.75567">
        <ele>865.3</ele>
        <time>2022-05-27T11:44:52Z</time>
      </trkpt>
      <trkpt lat="48.03715" lon="6.75579">
        <ele>866.1</ele>
        <time>2022-05-27T11:44:55Z</time>
      </trkpt>
      <trkpt lat="48.03708" lon="6.75591">
        <ele>865.9</ele>
        <time>2022-05-27T11:44:59Z</time>
      </trkpt>
      <trkpt lat="48.03701" lon="6.75601">
        <ele>866.6</ele>
        <time>2022-05-27T11:45:03Z</time>
      </trkpt>
      <trkpt lat="48.03695" lon="6.75614">
        <ele>865.7</ele>
        <time>2022-05-27T11:45:07Z</time>
      </trkpt>
      <trkpt lat="48.03689" lon="6.75629">
        <ele>865.1</ele>
        <time>2022-05-27T11:45:11Z</time>
      </trkpt>
      <trkpt lat="48.03684" lon="6.75641">
        <ele>864.5</ele>
        <time>2022-05-27T11:45:14Z</time>
      </trkpt>
      <trkpt lat="48.03678" lon="6.75654">
        <ele>864.3</ele>
        <time>2022-05-27T11:45:17Z</time>
      </trkpt>
      <trkpt lat="48.03671" lon="6.75667">
        <ele>865</ele>
        <time>2022-05-27T11:45:20Z</time>
      </trkpt>
      <trkpt lat="48.03664" lon="6.7568">
        <ele>864.4</ele>
        <time>2022-05-27T11:45:23Z</time>
      </trkpt>
      <trkpt lat="48.03656" lon="6.75693">
        <ele>864.1</ele>
        <time>2022-05-27T11:45:26Z</time>
      </trkpt>
      <trkpt lat="48.03647" lon="6.75707">
        <ele>863.4</ele>
        <time>2022-05-27T11:45:29Z</time>
      </trkpt>
      <trkpt lat="48.03641" lon="6.75718">
        <ele>863.2</ele>
        <time>2022-05-27T11:45:31Z</time>
      </trkpt>
      <trkpt lat="48.03635" lon="6.75728">
        <ele>862.8</ele>
        <time>2022-05-27T11:45:33Z</time>
      </trkpt>
      <trkpt lat="48.03627" lon="6.75744">
        <ele>862.9</ele>
        <time>2022-05-27T11:45:36Z</time>
      </trkpt>
      <trkpt lat="48.0362" lon="6.7576">
        <ele>861.3</ele>
        <time>2022-05-27T11:45:39Z</time>
      </trkpt>
      <trkpt lat="48.03616" lon="6.75773">
        <ele>861.2</ele>
        <time>2022-05-27T11:45:41Z</time>
      </trkpt>
      <trkpt lat="48.03612" lon="6.75786">
        <ele>861.7</ele>
        <time>2022-05-27T11:45:43Z</time>
      </trkpt>
      <trkpt lat="48.03607" lon="6.75803">
        <ele>861.7</ele>
        <time>2022-05-27T11:45:46Z</time>
      </trkpt>
      <trkpt lat="48.03602" lon="6.75821">
        <ele>860.1</ele>
        <time>2022-05-27T11:45:49Z</time>
      </trkpt>
      <trkpt lat="48.03597" lon="6.75839">
        <ele>861.1</ele>
        <time>2022-05-27T11:45:52Z</time>
      </trkpt>
      <trkpt lat="48.03592" lon="6.75852">
        <ele>861</ele>
        <time>2022-05-27T11:45:54Z</time>
      </trkpt>
      <trkpt lat="48.03587" lon="6.75865">
        <ele>858.8</ele>
        <time>2022-05-27T11:45:56Z</time>
      </trkpt>
      <trkpt lat="48.03582" lon="6.75878">
        <ele>858.7</ele>
        <time>2022-05-27T11:45:58Z</time>
      </trkpt>
      <trkpt lat="48.03577" lon="6.75892">
        <ele>859.5</ele>
        <time>2022-05-27T11:46:00Z</time>
      </trkpt>
      <trkpt lat="48.03572" lon="6.75906">
        <ele>859.5</ele>
        <time>2022-05-27T11:46:02Z</time>
      </trkpt>
      <trkpt lat="48.03567" lon="6.75918">
        <ele>860</ele>
        <time>2022-05-27T11:46:04Z</time>
      </trkpt>
      <trkpt lat="48.03562" lon="6.75934">
        <ele>859.6</ele>
        <time>2022-05-27T11:46:07Z</time>
      </trkpt>
      <trkpt lat="48.03556" lon="6.75949">
        <ele>860.6</ele>
        <time>2022-05-27T11:46:10Z</time>
      </trkpt>
      <trkpt lat="48.03552" lon="6.75964">
        <ele>857.6</ele>
        <time>2022-05-27T11:46:13Z</time>
      </trkpt>
      <trkpt lat="48.03547" lon="6.7598">
        <ele>858.6</ele>
        <time>2022-05-27T11:46:16Z</time>
      </trkpt>
      <trkpt lat="48.03542" lon="6.75995">
        <ele>858.8</ele>
        <time>2022-05-27T11:46:19Z</time>
      </trkpt>
      <trkpt lat="48.03537" lon="6.76012">
        <ele>859.5</ele>
        <time>2022-05-27T11:46:22Z</time>
      </trkpt>
      <trkpt lat="48.03532" lon="6.76028">
        <ele>859</ele>
        <time>2022-05-27T11:46:25Z</time>
      </trkpt>
      <trkpt lat="48.03528" lon="6.76042">
        <ele>859.5</ele>
        <time>2022-05-27T11:46:28Z</time>
      </trkpt>
      <trkpt lat="48.03524" lon="6.76056">
        <ele>859.7</ele>
        <time>2022-05-27T11:46:31Z</time>
      </trkpt>
      <trkpt lat="48.03521" lon="6.76068">
        <ele>861.3</ele>
        <time>2022-05-27T11:46:34Z</time>
      </trkpt>
      <trkpt lat="48.03517" lon="6.76084">
        <ele>860.5</ele>
        <time>2022-05-27T11:46:38Z</time>
      </trkpt>
      <trkpt lat="48.03512" lon="6.761">
        <ele>861.5</ele>
        <time>2022-05-27T11:46:42Z</time>
      </trkpt>
      <trkpt lat="48.03508" lon="6.76114">
        <ele>861.8</ele>
        <time>2022-05-27T11:46:45Z</time>
      </trkpt>
      <trkpt lat="48.03503" lon="6.76132">
        <ele>861.2</ele>
        <time>2022-05-27T11:46:48Z</time>
      </trkpt>
      <trkpt lat="48.03499" lon="6.76148">
        <ele>861.2</ele>
        <time>2022-05-27T11:46:51Z</time>
      </trkpt>
      <trkpt lat="48.03496" lon="6.76162">
        <ele>862.5</ele>
        <time>2022-05-27T11:46:54Z</time>
      </trkpt>
      <trkpt lat="48.03493" lon="6.76176">
        <ele>864</ele>
        <time>2022-05-27T11:46:58Z</time>
      </trkpt>
      <trkpt lat="48.0349" lon="6.76189">
        <ele>865.1</ele>
        <time>2022-05-27T11:47:02Z</time>
      </trkpt>
      <trkpt lat="48.03486" lon="6.76204">
        <ele>865.6</ele>
        <time>2022-05-27T11:47:07Z</time>
      </trkpt>
      <trkpt lat="48.03484" lon="6.7622">
        <ele>866.7</ele>
        <time>2022-05-27T11:47:12Z</time>
      </trkpt>
      <trkpt lat="48.03482" lon="6.76236">
        <ele>867.8</ele>
        <time>2022-05-27T11:47:17Z</time>
      </trkpt>
      <trkpt lat="48.03481" lon="6.76253">
        <ele>867.8</ele>
        <time>2022-05-27T11:47:22Z</time>
      </trkpt>
      <trkpt lat="48.0348" lon="6.76267">
        <ele>868.7</ele>
        <time>2022-05-27T11:47:26Z</time>
      </trkpt>
      <trkpt lat="48.0348" lon="6.76282">
        <ele>869.5</ele>
        <time>2022-05-27T11:47:30Z</time>
      </trkpt>
      <trkpt lat="48.03479" lon="6.76298">
        <ele>870.1</ele>
        <time>2022-05-27T11:47:34Z</time>
      </trkpt>
      <trkpt lat="48.0348" lon="6.76315">
        <ele>870.2</ele>
        <time>2022-05-27T11:47:38Z</time>
      </trkpt>
      <trkpt lat="48.03481" lon="6.76332">
        <ele>869.9</ele>
        <time>2022-05-27T11:47:42Z</time>
      </trkpt>
      <trkpt lat="48.03481" lon="6.76349">
        <ele>870.1</ele>
        <time>2022-05-27T11:47:46Z</time>
      </trkpt>
      <trkpt lat="48.03482" lon="6.76367">
        <ele>870.6</ele>
        <time>2022-05-27T11:47:50Z</time>
      </trkpt>
      <trkpt lat="48.03483" lon="6.76383">
        <ele>871.7</ele>
        <time>2022-05-27T11:47:54Z</time>
      </trkpt>
      <trkpt lat="48.03486" lon="6.764">
        <ele>871.5</ele>
        <time>2022-05-27T11:47:58Z</time>
      </trkpt>
      <trkpt lat="48.0349" lon="6.76415">
        <ele>871.2</ele>
        <time>2022-05-27T11:48:01Z</time>
      </trkpt>
      <trkpt lat="48.03493" lon="6.76433">
        <ele>870.2</ele>
        <time>2022-05-27T11:48:04Z</time>
      </trkpt>
      <trkpt lat="48.03493" lon="6.7645">
        <ele>872.4</ele>
        <time>2022-05-27T11:48:08Z</time>
      </trkpt>
      <trkpt lat="48.03494" lon="6.76467">
        <ele>871.5</ele>
        <time>2022-05-27T11:48:12Z</time>
      </trkpt>
      <trkpt lat="48.03497" lon="6.76484">
        <ele>873.2</ele>
        <time>2022-05-27T11:48:16Z</time>
      </trkpt>
      <trkpt lat="48.03503" lon="6.76499">
        <ele>874.2</ele>
        <time>2022-05-27T11:48:20Z</time>
      </trkpt>
      <trkpt lat="48.03508" lon="6.76514">
        <ele>873.8</ele>
        <time>2022-05-27T11:48:24Z</time>
      </trkpt>
      <trkpt lat="48.03514" lon="6.76529">
        <ele>874</ele>
        <time>2022-05-27T11:48:28Z</time>
      </trkpt>
      <trkpt lat="48.03518" lon="6.76542">
        <ele>874.7</ele>
        <time>2022-05-27T11:48:31Z</time>
      </trkpt>
      <trkpt lat="48.03526" lon="6.76552">
        <ele>872.5</ele>
        <time>2022-05-27T11:48:34Z</time>
      </trkpt>
      <trkpt lat="48.03531" lon="6.76567">
        <ele>874</ele>
        <time>2022-05-27T11:48:38Z</time>
      </trkpt>
      <trkpt lat="48.03533" lon="6.76584">
        <ele>872.6</ele>
        <time>2022-05-27T11:48:41Z</time>
      </trkpt>
      <trkpt lat="48.0353" lon="6.76602">
        <ele>872.1</ele>
        <time>2022-05-27T11:48:44Z</time>
      </trkpt>
      <trkpt lat="48.03525" lon="6.7662">
        <ele>870.5</ele>
        <time>2022-05-27T11:48:47Z</time>
      </trkpt>
      <trkpt lat="48.03521" lon="6.76636">
        <ele>869.6</ele>
        <time>2022-05-27T11:48:49Z</time>
      </trkpt>
      <trkpt lat="48.03514" lon="6.76652">
        <ele>868.8</ele>
        <time>2022-05-27T11:48:51Z</time>
      </trkpt>
      <trkpt lat="48.03507" lon="6.76665">
        <ele>868.3</ele>
        <time>2022-05-27T11:48:53Z</time>
      </trkpt>
      <trkpt lat="48.03499" lon="6.76676">
        <ele>867.3</ele>
        <time>2022-05-27T11:48:55Z</time>
      </trkpt>
      <trkpt lat="48.0349" lon="6.76684">
        <ele>869.2</ele>
        <time>2022-05-27T11:48:57Z</time>
      </trkpt>
      <trkpt lat="48.0348" lon="6.76696">
        <ele>867</ele>
        <time>2022-05-27T11:48:59Z</time>
      </trkpt>
      <trkpt lat="48.03471" lon="6.76713">
        <ele>866.6</ele>
        <time>2022-05-27T11:49:01Z</time>
      </trkpt>
      <trkpt lat="48.03468" lon="6.76736">
        <ele>863.6</ele>
        <time>2022-05-27T11:49:03Z</time>
      </trkpt>
      <trkpt lat="48.03466" lon="6.76756">
        <ele>863.7</ele>
        <time>2022-05-27T11:49:05Z</time>
      </trkpt>
      <trkpt lat="48.03464" lon="6.76771">
        <ele>860.5</ele>
        <time>2022-05-27T11:49:07Z</time>
      </trkpt>
      <trkpt lat="48.03459" lon="6.76783">
        <ele>862.1</ele>
        <time>2022-05-27T11:49:09Z</time>
      </trkpt>
      <trkpt lat="48.03451" lon="6.76795">
        <ele>861.3</ele>
        <time>2022-05-27T11:49:11Z</time>
      </trkpt>
      <trkpt lat="48.03442" lon="6.76806">
        <ele>859.9</ele>
        <time>2022-05-27T11:49:13Z</time>
      </trkpt>
      <trkpt lat="48.03435" lon="6.76818">
        <ele>859.1</ele>
        <time>2022-05-27T11:49:15Z</time>
      </trkpt>
      <trkpt lat="48.0343" lon="6.7683">
        <ele>861.2</ele>
        <time>2022-05-27T11:49:17Z</time>
      </trkpt>
      <trkpt lat="48.03428" lon="6.76848">
        <ele>861.5</ele>
        <time>2022-05-27T11:49:20Z</time>
      </trkpt>
      <trkpt lat="48.0343" lon="6.76863">
        <ele>864</ele>
        <time>2022-05-27T11:49:23Z</time>
      </trkpt>
      <trkpt lat="48.03435" lon="6.76877">
        <ele>865.6</ele>
        <time>2022-05-27T11:49:26Z</time>
      </trkpt>
      <trkpt lat="48.03442" lon="6.76891">
        <ele>865.7</ele>
        <time>2022-05-27T11:49:29Z</time>
      </trkpt>
      <trkpt lat="48.03447" lon="6.76902">
        <ele>865.2</ele>
        <time>2022-05-27T11:49:31Z</time>
      </trkpt>
      <trkpt lat="48.03455" lon="6.76917">
        <ele>864.8</ele>
        <time>2022-05-27T11:49:34Z</time>
      </trkpt>
      <trkpt lat="48.0346" lon="6.76929">
        <ele>864.7</ele>
        <time>2022-05-27T11:49:36Z</time>
      </trkpt>
      <trkpt lat="48.03464" lon="6.76942">
        <ele>864.1</ele>
        <time>2022-05-27T11:49:38Z</time>
      </trkpt>
      <trkpt lat="48.0347" lon="6.76957">
        <ele>864</ele>
        <time>2022-05-27T11:49:40Z</time>
      </trkpt>
      <trkpt lat="48.03476" lon="6.76972">
        <ele>862.6</ele>
        <time>2022-05-27T11:49:42Z</time>
      </trkpt>
      <trkpt lat="48.0348" lon="6.76988">
        <ele>860.8</ele>
        <time>2022-05-27T11:49:44Z</time>
      </trkpt>
      <trkpt lat="48.03482" lon="6.77002">
        <ele>863</ele>
        <time>2022-05-27T11:49:46Z</time>
      </trkpt>
      <trkpt lat="48.03483" lon="6.77019">
        <ele>864</ele>
        <time>2022-05-27T11:49:49Z</time>
      </trkpt>
      <trkpt lat="48.03484" lon="6.77034">
        <ele>863.2</ele>
        <time>2022-05-27T11:49:52Z</time>
      </trkpt>
      <trkpt lat="48.03487" lon="6.77052">
        <ele>863.5</ele>
        <time>2022-05-27T11:49:55Z</time>
      </trkpt>
      <trkpt lat="48.03492" lon="6.77069">
        <ele>861.2</ele>
        <time>2022-05-27T11:49:58Z</time>
      </trkpt>
      <trkpt lat="48.03494" lon="6.77084">
        <ele>861.1</ele>
        <time>2022-05-27T11:50:00Z</time>
      </trkpt>
      <trkpt lat="48.03497" lon="6.77099">
        <ele>862.4</ele>
        <time>2022-05-27T11:50:02Z</time>
      </trkpt>
      <trkpt lat="48.03501" lon="6.77111">
        <ele>860.4</ele>
        <time>2022-05-27T11:50:04Z</time>
      </trkpt>
      <trkpt lat="48.03505" lon="6.77123">
        <ele>860.7</ele>
        <time>2022-05-27T11:50:06Z</time>
      </trkpt>
      <trkpt lat="48.03512" lon="6.77134">
        <ele>857.8</ele>
        <time>2022-05-27T11:50:08Z</time>
      </trkpt>
      <trkpt lat="48.03519" lon="6.77146">
        <ele>855.8</ele>
        <time>2022-05-27T11:50:10Z</time>
      </trkpt>
      <trkpt lat="48.03525" lon="6.77158">
        <ele>854.5</ele>
        <time>2022-05-27T11:50:12Z</time>
      </trkpt>
      <trkpt lat="48.03532" lon="6.77175">
        <ele>854.8</ele>
        <time>2022-05-27T11:50:15Z</time>
      </trkpt>
      <trkpt lat="48.03534" lon="6.77188">
        <ele>855.2</ele>
        <time>2022-05-27T11:50:17Z</time>
      </trkpt>
      <trkpt lat="48.03533" lon="6.77207">
        <ele>855.1</ele>
        <time>2022-05-27T11:50:20Z</time>
      </trkpt>
      <trkpt lat="48.03527" lon="6.77223">
        <ele>855.3</ele>
        <time>2022-05-27T11:50:23Z</time>
      </trkpt>
      <trkpt lat="48.0352" lon="6.77235">
        <ele>854.5</ele>
        <time>2022-05-27T11:50:26Z</time>
      </trkpt>
      <trkpt lat="48.03517" lon="6.77248">
        <ele>855.7</ele>
        <time>2022-05-27T11:50:29Z</time>
      </trkpt>
      <trkpt lat="48.03518" lon="6.77266">
        <ele>853.5</ele>
        <time>2022-05-27T11:50:33Z</time>
      </trkpt>
      <trkpt lat="48.03523" lon="6.77282">
        <ele>852.9</ele>
        <time>2022-05-27T11:50:36Z</time>
      </trkpt>
      <trkpt lat="48.03527" lon="6.77296">
        <ele>848.4</ele>
        <time>2022-05-27T11:50:38Z</time>
      </trkpt>
      <trkpt lat="48.0353" lon="6.77311">
        <ele>850.5</ele>
        <time>2022-05-27T11:50:40Z</time>
      </trkpt>
      <trkpt lat="48.03535" lon="6.77327">
        <ele>852.9</ele>
        <time>2022-05-27T11:50:43Z</time>
      </trkpt>
      <trkpt lat="48.03541" lon="6.77338">
        <ele>853.7</ele>
        <time>2022-05-27T11:50:46Z</time>
      </trkpt>
      <trkpt lat="48.03548" lon="6.77349">
        <ele>854.9</ele>
        <time>2022-05-27T11:50:50Z</time>
      </trkpt>
      <trkpt lat="48.03555" lon="6.77359">
        <ele>855.8</ele>
        <time>2022-05-27T11:50:54Z</time>
      </trkpt>
      <trkpt lat="48.03562" lon="6.77369">
        <ele>856.8</ele>
        <time>2022-05-27T11:50:58Z</time>
      </trkpt>
      <trkpt lat="48.0357" lon="6.77379">
        <ele>858.1</ele>
        <time>2022-05-27T11:51:03Z</time>
      </trkpt>
      <trkpt lat="48.0358" lon="6.77386">
        <ele>859.1</ele>
        <time>2022-05-27T11:51:08Z</time>
      </trkpt>
      <trkpt lat="48.03588" lon="6.77397">
        <ele>860.2</ele>
        <time>2022-05-27T11:51:13Z</time>
      </trkpt>
      <trkpt lat="48.03595" lon="6.7741">
        <ele>861.7</ele>
        <time>2022-05-27T11:51:18Z</time>
      </trkpt>
      <trkpt lat="48.03601" lon="6.77424">
        <ele>863.1</ele>
        <time>2022-05-27T11:51:23Z</time>
      </trkpt>
      <trkpt lat="48.03604" lon="6.77436">
        <ele>863.8</ele>
        <time>2022-05-27T11:51:27Z</time>
      </trkpt>
      <trkpt lat="48.03609" lon="6.77449">
        <ele>864.1</ele>
        <time>2022-05-27T11:51:31Z</time>
      </trkpt>
      <trkpt lat="48.03613" lon="6.77462">
        <ele>864.8</ele>
        <time>2022-05-27T11:51:35Z</time>
      </trkpt>
      <trkpt lat="48.03617" lon="6.77475">
        <ele>865.4</ele>
        <time>2022-05-27T11:51:39Z</time>
      </trkpt>
      <trkpt lat="48.0362" lon="6.77487">
        <ele>866.4</ele>
        <time>2022-05-27T11:51:43Z</time>
      </trkpt>
      <trkpt lat="48.03622" lon="6.77501">
        <ele>866.9</ele>
        <time>2022-05-27T11:51:47Z</time>
      </trkpt>
      <trkpt lat="48.03625" lon="6.77516">
        <ele>867.7</ele>
        <time>2022-05-27T11:51:51Z</time>
      </trkpt>
      <trkpt lat="48.03629" lon="6.77529">
        <ele>868.6</ele>
        <time>2022-05-27T11:51:55Z</time>
      </trkpt>
      <trkpt lat="48.03633" lon="6.77542">
        <ele>869</ele>
        <time>2022-05-27T11:51:59Z</time>
      </trkpt>
      <trkpt lat="48.03639" lon="6.77555">
        <ele>869.8</ele>
        <time>2022-05-27T11:52:03Z</time>
      </trkpt>
      <trkpt lat="48.03646" lon="6.77567">
        <ele>870.7</ele>
        <time>2022-05-27T11:52:07Z</time>
      </trkpt>
      <trkpt lat="48.03653" lon="6.77579">
        <ele>871.2</ele>
        <time>2022-05-27T11:52:11Z</time>
      </trkpt>
      <trkpt lat="48.03659" lon="6.77591">
        <ele>871.9</ele>
        <time>2022-05-27T11:52:15Z</time>
      </trkpt>
      <trkpt lat="48.03666" lon="6.77602">
        <ele>872.1</ele>
        <time>2022-05-27T11:52:19Z</time>
      </trkpt>
      <trkpt lat="48.03672" lon="6.77613">
        <ele>872.9</ele>
        <time>2022-05-27T11:52:23Z</time>
      </trkpt>
      <trkpt lat="48.03681" lon="6.77622">
        <ele>873.5</ele>
        <time>2022-05-27T11:52:27Z</time>
      </trkpt>
      <trkpt lat="48.0369" lon="6.77627">
        <ele>873.7</ele>
        <time>2022-05-27T11:52:31Z</time>
      </trkpt>
      <trkpt lat="48.03701" lon="6.77629">
        <ele>874.2</ele>
        <time>2022-05-27T11:52:35Z</time>
      </trkpt>
      <trkpt lat="48.0371" lon="6.77629">
        <ele>874.3</ele>
        <time>2022-05-27T11:52:39Z</time>
      </trkpt>
      <trkpt lat="48.0372" lon="6.7763">
        <ele>874.4</ele>
        <time>2022-05-27T11:52:44Z</time>
      </trkpt>
      <trkpt lat="48.03731" lon="6.7763">
        <ele>875.2</ele>
        <time>2022-05-27T11:52:48Z</time>
      </trkpt>
      <trkpt lat="48.0374" lon="6.77628">
        <ele>875.4</ele>
        <time>2022-05-27T11:52:51Z</time>
      </trkpt>
      <trkpt lat="48.0375" lon="6.77627">
        <ele>875.6</ele>
        <time>2022-05-27T11:52:54Z</time>
      </trkpt>
      <trkpt lat="48.0376" lon="6.77627">
        <ele>876</ele>
        <time>2022-05-27T11:52:58Z</time>
      </trkpt>
      <trkpt lat="48.03771" lon="6.77627">
        <ele>877</ele>
        <time>2022-05-27T11:53:02Z</time>
      </trkpt>
      <trkpt lat="48.0378" lon="6.77627">
        <ele>877.8</ele>
        <time>2022-05-27T11:53:06Z</time>
      </trkpt>
      <trkpt lat="48.0379" lon="6.77627">
        <ele>878.7</ele>
        <time>2022-05-27T11:53:11Z</time>
      </trkpt>
      <trkpt lat="48.03798" lon="6.77629">
        <ele>879.2</ele>
        <time>2022-05-27T11:53:18Z</time>
      </trkpt>
      <trkpt lat="48.03798" lon="6.77629">
        <ele>879.7</ele>
        <time>2022-05-27T11:54:36Z</time>
      </trkpt>
      <trkpt lat="48.03807" lon="6.77636">
        <ele>880.8</ele>
        <time>2022-05-27T11:55:01Z</time>
      </trkpt>
      <trkpt lat="48.03815" lon="6.77647">
        <ele>882.8</ele>
        <time>2022-05-27T11:55:06Z</time>
      </trkpt>
      <trkpt lat="48.03822" lon="6.77656">
        <ele>882.9</ele>
        <time>2022-05-27T11:55:10Z</time>
      </trkpt>
      <trkpt lat="48.03828" lon="6.77666">
        <ele>883.6</ele>
        <time>2022-05-27T11:55:14Z</time>
      </trkpt>
      <trkpt lat="48.03834" lon="6.77679">
        <ele>884.7</ele>
        <time>2022-05-27T11:55:19Z</time>
      </trkpt>
      <trkpt lat="48.03838" lon="6.77691">
        <ele>884.7</ele>
        <time>2022-05-27T11:55:23Z</time>
      </trkpt>
      <trkpt lat="48.03844" lon="6.77704">
        <ele>885.5</ele>
        <time>2022-05-27T11:55:28Z</time>
      </trkpt>
      <trkpt lat="48.03848" lon="6.77717">
        <ele>885.8</ele>
        <time>2022-05-27T11:55:33Z</time>
      </trkpt>
      <trkpt lat="48.03852" lon="6.7773">
        <ele>886</ele>
        <time>2022-05-27T11:55:38Z</time>
      </trkpt>
      <trkpt lat="48.03858" lon="6.77742">
        <ele>886.9</ele>
        <time>2022-05-27T11:55:43Z</time>
      </trkpt>
      <trkpt lat="48.03863" lon="6.77755">
        <ele>888.1</ele>
        <time>2022-05-27T11:55:48Z</time>
      </trkpt>
      <trkpt lat="48.03867" lon="6.77769">
        <ele>888.1</ele>
        <time>2022-05-27T11:55:54Z</time>
      </trkpt>
      <trkpt lat="48.03869" lon="6.77784">
        <ele>889.1</ele>
        <time>2022-05-27T11:56:00Z</time>
      </trkpt>
      <trkpt lat="48.03871" lon="6.778">
        <ele>889.9</ele>
        <time>2022-05-27T11:56:06Z</time>
      </trkpt>
      <trkpt lat="48.03873" lon="6.77815">
        <ele>891.2</ele>
        <time>2022-05-27T11:56:12Z</time>
      </trkpt>
      <trkpt lat="48.03875" lon="6.77831">
        <ele>892</ele>
        <time>2022-05-27T11:56:18Z</time>
      </trkpt>
      <trkpt lat="48.03878" lon="6.77845">
        <ele>893.5</ele>
        <time>2022-05-27T11:56:24Z</time>
      </trkpt>
      <trkpt lat="48.03881" lon="6.77861">
        <ele>894.5</ele>
        <time>2022-05-27T11:56:30Z</time>
      </trkpt>
      <trkpt lat="48.03883" lon="6.77876">
        <ele>895.4</ele>
        <time>2022-05-27T11:56:36Z</time>
      </trkpt>
      <trkpt lat="48.03885" lon="6.77892">
        <ele>896.9</ele>
        <time>2022-05-27T11:56:42Z</time>
      </trkpt>
      <trkpt lat="48.03888" lon="6.77907">
        <ele>897.9</ele>
        <time>2022-05-27T11:56:48Z</time>
      </trkpt>
      <trkpt lat="48.0389" lon="6.7792">
        <ele>898.2</ele>
        <time>2022-05-27T11:56:53Z</time>
      </trkpt>
      <trkpt lat="48.03892" lon="6.77935">
        <ele>899.9</ele>
        <time>2022-05-27T11:56:59Z</time>
      </trkpt>
      <trkpt lat="48.03894" lon="6.7795">
        <ele>900.9</ele>
        <time>2022-05-27T11:57:05Z</time>
      </trkpt>
      <trkpt lat="48.03894" lon="6.77965">
        <ele>901.4</ele>
        <time>2022-05-27T11:57:11Z</time>
      </trkpt>
      <trkpt lat="48.03892" lon="6.77979">
        <ele>902.5</ele>
        <time>2022-05-27T11:57:17Z</time>
      </trkpt>
      <trkpt lat="48.03893" lon="6.77993">
        <ele>903.8</ele>
        <time>2022-05-27T11:57:23Z</time>
      </trkpt>
      <trkpt lat="48.03893" lon="6.78009">
        <ele>905.2</ele>
        <time>2022-05-27T11:57:29Z</time>
      </trkpt>
      <trkpt lat="48.03893" lon="6.78022">
        <ele>906.3</ele>
        <time>2022-05-27T11:57:36Z</time>
      </trkpt>
      <trkpt lat="48.03894" lon="6.78036">
        <ele>907.8</ele>
        <time>2022-05-27T11:57:42Z</time>
      </trkpt>
      <trkpt lat="48.03895" lon="6.7805">
        <ele>908.8</ele>
        <time>2022-05-27T11:57:48Z</time>
      </trkpt>
      <trkpt lat="48.03896" lon="6.78065">
        <ele>909.7</ele>
        <time>2022-05-27T11:57:55Z</time>
      </trkpt>
      <trkpt lat="48.03897" lon="6.7808">
        <ele>910.9</ele>
        <time>2022-05-27T11:58:02Z</time>
      </trkpt>
      <trkpt lat="48.03898" lon="6.78093">
        <ele>911.8</ele>
        <time>2022-05-27T11:58:08Z</time>
      </trkpt>
      <trkpt lat="48.03899" lon="6.78107">
        <ele>912.9</ele>
        <time>2022-05-27T11:58:15Z</time>
      </trkpt>
      <trkpt lat="48.03901" lon="6.78122">
        <ele>914</ele>
        <time>2022-05-27T11:58:23Z</time>
      </trkpt>
      <trkpt lat="48.03901" lon="6.78136">
        <ele>914.5</ele>
        <time>2022-05-27T11:58:29Z</time>
      </trkpt>
      <trkpt lat="48.039" lon="6.78151">
        <ele>915.3</ele>
        <time>2022-05-27T11:58:34Z</time>
      </trkpt>
      <trkpt lat="48.03898" lon="6.78165">
        <ele>916.2</ele>
        <time>2022-05-27T11:58:39Z</time>
      </trkpt>
      <trkpt lat="48.03897" lon="6.7818">
        <ele>916.4</ele>
        <time>2022-05-27T11:58:44Z</time>
      </trkpt>
      <trkpt lat="48.03896" lon="6.78193">
        <ele>917.6</ele>
        <time>2022-05-27T11:58:49Z</time>
      </trkpt>
      <trkpt lat="48.03895" lon="6.78208">
        <ele>918.2</ele>
        <time>2022-05-27T11:58:55Z</time>
      </trkpt>
      <trkpt lat="48.03893" lon="6.78223">
        <ele>918.4</ele>
        <time>2022-05-27T11:59:02Z</time>
      </trkpt>
      <trkpt lat="48.03886" lon="6.78234">
        <ele>918.7</ele>
        <time>2022-05-27T11:59:08Z</time>
      </trkpt>
      <trkpt lat="48.03883" lon="6.78237">
        <ele>918.8</ele>
        <time>2022-05-27T11:59:13Z</time>
      </trkpt>
      <trkpt lat="48.03874" lon="6.78245">
        <ele>918.6</ele>
        <time>2022-05-27T12:00:03Z</time>
      </trkpt>
      <trkpt lat="48.03868" lon="6.78257">
        <ele>918.3</ele>
        <time>2022-05-27T12:00:12Z</time>
      </trkpt>
      <trkpt lat="48.03863" lon="6.78271">
        <ele>917.9</ele>
        <time>2022-05-27T12:00:17Z</time>
      </trkpt>
      <trkpt lat="48.03861" lon="6.78284">
        <ele>918.8</ele>
        <time>2022-05-27T12:00:21Z</time>
      </trkpt>
      <trkpt lat="48.03862" lon="6.78299">
        <ele>919</ele>
        <time>2022-05-27T12:00:25Z</time>
      </trkpt>
      <trkpt lat="48.03863" lon="6.78315">
        <ele>916.9</ele>
        <time>2022-05-27T12:00:29Z</time>
      </trkpt>
      <trkpt lat="48.03865" lon="6.78328">
        <ele>918.1</ele>
        <time>2022-05-27T12:00:32Z</time>
      </trkpt>
      <trkpt lat="48.03865" lon="6.78342">
        <ele>918</ele>
        <time>2022-05-27T12:00:35Z</time>
      </trkpt>
      <trkpt lat="48.03866" lon="6.78356">
        <ele>917.9</ele>
        <time>2022-05-27T12:00:38Z</time>
      </trkpt>
      <trkpt lat="48.03866" lon="6.7837">
        <ele>917.6</ele>
        <time>2022-05-27T12:00:41Z</time>
      </trkpt>
      <trkpt lat="48.03867" lon="6.78384">
        <ele>917.4</ele>
        <time>2022-05-27T12:00:44Z</time>
      </trkpt>
      <trkpt lat="48.03868" lon="6.78399">
        <ele>916.8</ele>
        <time>2022-05-27T12:00:47Z</time>
      </trkpt>
      <trkpt lat="48.0387" lon="6.78416">
        <ele>917.4</ele>
        <time>2022-05-27T12:00:51Z</time>
      </trkpt>
      <trkpt lat="48.03871" lon="6.78431">
        <ele>918</ele>
        <time>2022-05-27T12:00:54Z</time>
      </trkpt>
      <trkpt lat="48.03873" lon="6.78446">
        <ele>917.3</ele>
        <time>2022-05-27T12:00:57Z</time>
      </trkpt>
      <trkpt lat="48.03875" lon="6.78462">
        <ele>916.6</ele>
        <time>2022-05-27T12:01:00Z</time>
      </trkpt>
      <trkpt lat="48.03877" lon="6.7848">
        <ele>916.2</ele>
        <time>2022-05-27T12:01:03Z</time>
      </trkpt>
      <trkpt lat="48.03879" lon="6.78496">
        <ele>916.1</ele>
        <time>2022-05-27T12:01:06Z</time>
      </trkpt>
      <trkpt lat="48.0388" lon="6.78513">
        <ele>917.3</ele>
        <time>2022-05-27T12:01:09Z</time>
      </trkpt>
      <trkpt lat="48.03884" lon="6.7853">
        <ele>915.3</ele>
        <time>2022-05-27T12:01:12Z</time>
      </trkpt>
      <trkpt lat="48.03889" lon="6.78547">
        <ele>915.9</ele>
        <time>2022-05-27T12:01:15Z</time>
      </trkpt>
      <trkpt lat="48.03895" lon="6.78564">
        <ele>916.1</ele>
        <time>2022-05-27T12:01:18Z</time>
      </trkpt>
      <trkpt lat="48.039" lon="6.7858">
        <ele>916</ele>
        <time>2022-05-27T12:01:21Z</time>
      </trkpt>
      <trkpt lat="48.03905" lon="6.78596">
        <ele>915.7</ele>
        <time>2022-05-27T12:01:24Z</time>
      </trkpt>
      <trkpt lat="48.03909" lon="6.78613">
        <ele>916.3</ele>
        <time>2022-05-27T12:01:27Z</time>
      </trkpt>
      <trkpt lat="48.03914" lon="6.78631">
        <ele>916.3</ele>
        <time>2022-05-27T12:01:30Z</time>
      </trkpt>
      <trkpt lat="48.03918" lon="6.78649">
        <ele>915.4</ele>
        <time>2022-05-27T12:01:33Z</time>
      </trkpt>
      <trkpt lat="48.03922" lon="6.78667">
        <ele>915.9</ele>
        <time>2022-05-27T12:01:36Z</time>
      </trkpt>
      <trkpt lat="48.03925" lon="6.78685">
        <ele>917</ele>
        <time>2022-05-27T12:01:39Z</time>
      </trkpt>
      <trkpt lat="48.03929" lon="6.78702">
        <ele>916.9</ele>
        <time>2022-05-27T12:01:42Z</time>
      </trkpt>
      <trkpt lat="48.03934" lon="6.7872">
        <ele>917</ele>
        <time>2022-05-27T12:01:45Z</time>
      </trkpt>
      <trkpt lat="48.03938" lon="6.78739">
        <ele>915.4</ele>
        <time>2022-05-27T12:01:48Z</time>
      </trkpt>
      <trkpt lat="48.03941" lon="6.78756">
        <ele>917</ele>
        <time>2022-05-27T12:01:51Z</time>
      </trkpt>
      <trkpt lat="48.03944" lon="6.78774">
        <ele>916.4</ele>
        <time>2022-05-27T12:01:54Z</time>
      </trkpt>
      <trkpt lat="48.03947" lon="6.78791">
        <ele>915.5</ele>
        <time>2022-05-27T12:01:57Z</time>
      </trkpt>
      <trkpt lat="48.03952" lon="6.78807">
        <ele>915.9</ele>
        <time>2022-05-27T12:02:00Z</time>
      </trkpt>
      <trkpt lat="48.03957" lon="6.78824">
        <ele>914.9</ele>
        <time>2022-05-27T12:02:03Z</time>
      </trkpt>
      <trkpt lat="48.03962" lon="6.78838">
        <ele>915.1</ele>
        <time>2022-05-27T12:02:06Z</time>
      </trkpt>
      <trkpt lat="48.03963" lon="6.78856">
        <ele>916.3</ele>
        <time>2022-05-27T12:02:09Z</time>
      </trkpt>
      <trkpt lat="48.03962" lon="6.78874">
        <ele>916.2</ele>
        <time>2022-05-27T12:02:12Z</time>
      </trkpt>
      <trkpt lat="48.03962" lon="6.78891">
        <ele>917</ele>
        <time>2022-05-27T12:02:15Z</time>
      </trkpt>
      <trkpt lat="48.0396" lon="6.7891">
        <ele>915</ele>
        <time>2022-05-27T12:02:18Z</time>
      </trkpt>
      <trkpt lat="48.0396" lon="6.7893">
        <ele>916.8</ele>
        <time>2022-05-27T12:02:21Z</time>
      </trkpt>
      <trkpt lat="48.03961" lon="6.78949">
        <ele>915.8</ele>
        <time>2022-05-27T12:02:24Z</time>
      </trkpt>
      <trkpt lat="48.03963" lon="6.78967">
        <ele>917</ele>
        <time>2022-05-27T12:02:27Z</time>
      </trkpt>
      <trkpt lat="48.03966" lon="6.78985">
        <ele>916.4</ele>
        <time>2022-05-27T12:02:30Z</time>
      </trkpt>
      <trkpt lat="48.03969" lon="6.79003">
        <ele>914.9</ele>
        <time>2022-05-27T12:02:33Z</time>
      </trkpt>
      <trkpt lat="48.03973" lon="6.7902">
        <ele>916.3</ele>
        <time>2022-05-27T12:02:36Z</time>
      </trkpt>
      <trkpt lat="48.03977" lon="6.79037">
        <ele>916.2</ele>
        <time>2022-05-27T12:02:39Z</time>
      </trkpt>
      <trkpt lat="48.03981" lon="6.79056">
        <ele>915.5</ele>
        <time>2022-05-27T12:02:42Z</time>
      </trkpt>
      <trkpt lat="48.03985" lon="6.79073">
        <ele>916.6</ele>
        <time>2022-05-27T12:02:45Z</time>
      </trkpt>
      <trkpt lat="48.03991" lon="6.7909">
        <ele>914.6</ele>
        <time>2022-05-27T12:02:48Z</time>
      </trkpt>
      <trkpt lat="48.04" lon="6.79105">
        <ele>915.6</ele>
        <time>2022-05-27T12:02:51Z</time>
      </trkpt>
      <trkpt lat="48.04007" lon="6.79114">
        <ele>915.3</ele>
        <time>2022-05-27T12:02:53Z</time>
      </trkpt>
      <trkpt lat="48.04014" lon="6.79124">
        <ele>914.6</ele>
        <time>2022-05-27T12:02:55Z</time>
      </trkpt>
      <trkpt lat="48.04021" lon="6.79133">
        <ele>914.8</ele>
        <time>2022-05-27T12:02:57Z</time>
      </trkpt>
      <trkpt lat="48.0403" lon="6.79143">
        <ele>912.5</ele>
        <time>2022-05-27T12:02:59Z</time>
      </trkpt>
      <trkpt lat="48.04038" lon="6.79155">
        <ele>911.3</ele>
        <time>2022-05-27T12:03:01Z</time>
      </trkpt>
      <trkpt lat="48.04047" lon="6.79169">
        <ele>911.1</ele>
        <time>2022-05-27T12:03:03Z</time>
      </trkpt>
      <trkpt lat="48.04054" lon="6.79187">
        <ele>908.2</ele>
        <time>2022-05-27T12:03:05Z</time>
      </trkpt>
      <trkpt lat="48.04058" lon="6.79205">
        <ele>910.1</ele>
        <time>2022-05-27T12:03:07Z</time>
      </trkpt>
      <trkpt lat="48.04062" lon="6.79224">
        <ele>906.2</ele>
        <time>2022-05-27T12:03:09Z</time>
      </trkpt>
      <trkpt lat="48.04066" lon="6.79244">
        <ele>904.2</ele>
        <time>2022-05-27T12:03:11Z</time>
      </trkpt>
      <trkpt lat="48.04072" lon="6.79265">
        <ele>905.3</ele>
        <time>2022-05-27T12:03:13Z</time>
      </trkpt>
      <trkpt lat="48.04078" lon="6.79288">
        <ele>904.8</ele>
        <time>2022-05-27T12:03:15Z</time>
      </trkpt>
      <trkpt lat="48.04083" lon="6.7931">
        <ele>904.6</ele>
        <time>2022-05-27T12:03:17Z</time>
      </trkpt>
      <trkpt lat="48.04085" lon="6.79334">
        <ele>904</ele>
        <time>2022-05-27T12:03:19Z</time>
      </trkpt>
      <trkpt lat="48.04087" lon="6.79359">
        <ele>904.5</ele>
        <time>2022-05-27T12:03:21Z</time>
      </trkpt>
      <trkpt lat="48.04092" lon="6.79384">
        <ele>898</ele>
        <time>2022-05-27T12:03:23Z</time>
      </trkpt>
      <trkpt lat="48.04095" lon="6.79397">
        <ele>897.7</ele>
        <time>2022-05-27T12:03:24Z</time>
      </trkpt>
      <trkpt lat="48.04097" lon="6.7941">
        <ele>897.4</ele>
        <time>2022-05-27T12:03:25Z</time>
      </trkpt>
      <trkpt lat="48.04101" lon="6.79436">
        <ele>899.2</ele>
        <time>2022-05-27T12:03:27Z</time>
      </trkpt>
      <trkpt lat="48.04103" lon="6.79463">
        <ele>900.4</ele>
        <time>2022-05-27T12:03:29Z</time>
      </trkpt>
      <trkpt lat="48.04104" lon="6.79476">
        <ele>897.9</ele>
        <time>2022-05-27T12:03:30Z</time>
      </trkpt>
      <trkpt lat="48.04105" lon="6.7949">
        <ele>894.5</ele>
        <time>2022-05-27T12:03:31Z</time>
      </trkpt>
      <trkpt lat="48.04107" lon="6.79504">
        <ele>894.2</ele>
        <time>2022-05-27T12:03:32Z</time>
      </trkpt>
      <trkpt lat="48.0411" lon="6.79518">
        <ele>893</ele>
        <time>2022-05-27T12:03:33Z</time>
      </trkpt>
      <trkpt lat="48.04113" lon="6.79532">
        <ele>893.5</ele>
        <time>2022-05-27T12:03:34Z</time>
      </trkpt>
      <trkpt lat="48.04115" lon="6.79546">
        <ele>893.9</ele>
        <time>2022-05-27T12:03:35Z</time>
      </trkpt>
      <trkpt lat="48.04117" lon="6.7956">
        <ele>893.4</ele>
        <time>2022-05-27T12:03:36Z</time>
      </trkpt>
      <trkpt lat="48.04118" lon="6.79574">
        <ele>891.8</ele>
        <time>2022-05-27T12:03:37Z</time>
      </trkpt>
      <trkpt lat="48.04118" lon="6.79587">
        <ele>891.9</ele>
        <time>2022-05-27T12:03:38Z</time>
      </trkpt>
      <trkpt lat="48.04117" lon="6.79613">
        <ele>890</ele>
        <time>2022-05-27T12:03:40Z</time>
      </trkpt>
      <trkpt lat="48.04117" lon="6.79638">
        <ele>889.6</ele>
        <time>2022-05-27T12:03:42Z</time>
      </trkpt>
      <trkpt lat="48.04116" lon="6.79661">
        <ele>888.7</ele>
        <time>2022-05-27T12:03:44Z</time>
      </trkpt>
      <trkpt lat="48.04111" lon="6.7968">
        <ele>885.8</ele>
        <time>2022-05-27T12:03:46Z</time>
      </trkpt>
      <trkpt lat="48.04102" lon="6.79695">
        <ele>885.5</ele>
        <time>2022-05-27T12:03:48Z</time>
      </trkpt>
      <trkpt lat="48.04092" lon="6.79713">
        <ele>886</ele>
        <time>2022-05-27T12:03:50Z</time>
      </trkpt>
      <trkpt lat="48.04086" lon="6.79736">
        <ele>886</ele>
        <time>2022-05-27T12:03:52Z</time>
      </trkpt>
      <trkpt lat="48.04078" lon="6.79759">
        <ele>882.1</ele>
        <time>2022-05-27T12:03:54Z</time>
      </trkpt>
      <trkpt lat="48.04069" lon="6.79779">
        <ele>883.8</ele>
        <time>2022-05-27T12:03:56Z</time>
      </trkpt>
      <trkpt lat="48.0406" lon="6.79801">
        <ele>878.6</ele>
        <time>2022-05-27T12:03:58Z</time>
      </trkpt>
      <trkpt lat="48.04052" lon="6.79824">
        <ele>881</ele>
        <time>2022-05-27T12:04:00Z</time>
      </trkpt>
      <trkpt lat="48.04047" lon="6.79849">
        <ele>881</ele>
        <time>2022-05-27T12:04:02Z</time>
      </trkpt>
      <trkpt lat="48.04045" lon="6.79875">
        <ele>878.7</ele>
        <time>2022-05-27T12:04:04Z</time>
      </trkpt>
      <trkpt lat="48.04045" lon="6.79889">
        <ele>878.8</ele>
        <time>2022-05-27T12:04:05Z</time>
      </trkpt>
      <trkpt lat="48.04045" lon="6.79915">
        <ele>874.1</ele>
        <time>2022-05-27T12:04:07Z</time>
      </trkpt>
      <trkpt lat="48.04045" lon="6.79941">
        <ele>876.9</ele>
        <time>2022-05-27T12:04:09Z</time>
      </trkpt>
      <trkpt lat="48.04045" lon="6.79965">
        <ele>878</ele>
        <time>2022-05-27T12:04:11Z</time>
      </trkpt>
      <trkpt lat="48.04047" lon="6.79989">
        <ele>876.5</ele>
        <time>2022-05-27T12:04:13Z</time>
      </trkpt>
      <trkpt lat="48.0405" lon="6.80013">
        <ele>878.1</ele>
        <time>2022-05-27T12:04:15Z</time>
      </trkpt>
      <trkpt lat="48.04055" lon="6.80036">
        <ele>875.7</ele>
        <time>2022-05-27T12:04:17Z</time>
      </trkpt>
      <trkpt lat="48.04062" lon="6.80057">
        <ele>874.4</ele>
        <time>2022-05-27T12:04:19Z</time>
      </trkpt>
      <trkpt lat="48.0407" lon="6.80078">
        <ele>874</ele>
        <time>2022-05-27T12:04:21Z</time>
      </trkpt>
      <trkpt lat="48.04079" lon="6.80098">
        <ele>870.8</ele>
        <time>2022-05-27T12:04:23Z</time>
      </trkpt>
      <trkpt lat="48.04086" lon="6.80117">
        <ele>871.7</ele>
        <time>2022-05-27T12:04:25Z</time>
      </trkpt>
      <trkpt lat="48.04092" lon="6.80136">
        <ele>874.4</ele>
        <time>2022-05-27T12:04:27Z</time>
      </trkpt>
      <trkpt lat="48.04098" lon="6.80154">
        <ele>874.4</ele>
        <time>2022-05-27T12:04:29Z</time>
      </trkpt>
      <trkpt lat="48.04105" lon="6.8017">
        <ele>873.5</ele>
        <time>2022-05-27T12:04:31Z</time>
      </trkpt>
      <trkpt lat="48.04112" lon="6.80185">
        <ele>874.2</ele>
        <time>2022-05-27T12:04:33Z</time>
      </trkpt>
      <trkpt lat="48.04117" lon="6.802">
        <ele>873.7</ele>
        <time>2022-05-27T12:04:35Z</time>
      </trkpt>
      <trkpt lat="48.04123" lon="6.80215">
        <ele>874.5</ele>
        <time>2022-05-27T12:04:37Z</time>
      </trkpt>
      <trkpt lat="48.04129" lon="6.8023">
        <ele>874</ele>
        <time>2022-05-27T12:04:39Z</time>
      </trkpt>
      <trkpt lat="48.04136" lon="6.80244">
        <ele>873.7</ele>
        <time>2022-05-27T12:04:41Z</time>
      </trkpt>
      <trkpt lat="48.04144" lon="6.80256">
        <ele>873.7</ele>
        <time>2022-05-27T12:04:43Z</time>
      </trkpt>
      <trkpt lat="48.04151" lon="6.8027">
        <ele>875.2</ele>
        <time>2022-05-27T12:04:45Z</time>
      </trkpt>
      <trkpt lat="48.04158" lon="6.80284">
        <ele>873.4</ele>
        <time>2022-05-27T12:04:47Z</time>
      </trkpt>
      <trkpt lat="48.04164" lon="6.80299">
        <ele>874.1</ele>
        <time>2022-05-27T12:04:49Z</time>
      </trkpt>
      <trkpt lat="48.04172" lon="6.80311">
        <ele>874.1</ele>
        <time>2022-05-27T12:04:51Z</time>
      </trkpt>
      <trkpt lat="48.04178" lon="6.80324">
        <ele>873.7</ele>
        <time>2022-05-27T12:04:53Z</time>
      </trkpt>
      <trkpt lat="48.04186" lon="6.80337">
        <ele>873.8</ele>
        <time>2022-05-27T12:04:55Z</time>
      </trkpt>
      <trkpt lat="48.04193" lon="6.8035">
        <ele>874.4</ele>
        <time>2022-05-27T12:04:57Z</time>
      </trkpt>
      <trkpt lat="48.04201" lon="6.80361">
        <ele>875.1</ele>
        <time>2022-05-27T12:04:59Z</time>
      </trkpt>
      <trkpt lat="48.04208" lon="6.80373">
        <ele>875.8</ele>
        <time>2022-05-27T12:05:01Z</time>
      </trkpt>
      <trkpt lat="48.04215" lon="6.80386">
        <ele>875.8</ele>
        <time>2022-05-27T12:05:03Z</time>
      </trkpt>
      <trkpt lat="48.04223" lon="6.80397">
        <ele>875.1</ele>
        <time>2022-05-27T12:05:05Z</time>
      </trkpt>
      <trkpt lat="48.04231" lon="6.80408">
        <ele>873.5</ele>
        <time>2022-05-27T12:05:07Z</time>
      </trkpt>
      <trkpt lat="48.04239" lon="6.8042">
        <ele>874.6</ele>
        <time>2022-05-27T12:05:09Z</time>
      </trkpt>
      <trkpt lat="48.04247" lon="6.80431">
        <ele>876.6</ele>
        <time>2022-05-27T12:05:11Z</time>
      </trkpt>
      <trkpt lat="48.04256" lon="6.80441">
        <ele>874.9</ele>
        <time>2022-05-27T12:05:13Z</time>
      </trkpt>
      <trkpt lat="48.04263" lon="6.80451">
        <ele>875.3</ele>
        <time>2022-05-27T12:05:15Z</time>
      </trkpt>
      <trkpt lat="48.04276" lon="6.80457">
        <ele>874.3</ele>
        <time>2022-05-27T12:05:18Z</time>
      </trkpt>
      <trkpt lat="48.04286" lon="6.80459">
        <ele>873.7</ele>
        <time>2022-05-27T12:05:20Z</time>
      </trkpt>
      <trkpt lat="48.04296" lon="6.80463">
        <ele>874</ele>
        <time>2022-05-27T12:05:22Z</time>
      </trkpt>
      <trkpt lat="48.04305" lon="6.80465">
        <ele>873.7</ele>
        <time>2022-05-27T12:05:24Z</time>
      </trkpt>
      <trkpt lat="48.04316" lon="6.80465">
        <ele>874.1</ele>
        <time>2022-05-27T12:05:26Z</time>
      </trkpt>
      <trkpt lat="48.04327" lon="6.80467">
        <ele>874.9</ele>
        <time>2022-05-27T12:05:28Z</time>
      </trkpt>
      <trkpt lat="48.04338" lon="6.80468">
        <ele>874.5</ele>
        <time>2022-05-27T12:05:30Z</time>
      </trkpt>
      <trkpt lat="48.04349" lon="6.80469">
        <ele>874.8</ele>
        <time>2022-05-27T12:05:32Z</time>
      </trkpt>
      <trkpt lat="48.0436" lon="6.80471">
        <ele>876.1</ele>
        <time>2022-05-27T12:05:34Z</time>
      </trkpt>
      <trkpt lat="48.0437" lon="6.80472">
        <ele>874</ele>
        <time>2022-05-27T12:05:36Z</time>
      </trkpt>
      <trkpt lat="48.04381" lon="6.80473">
        <ele>874.6</ele>
        <time>2022-05-27T12:05:38Z</time>
      </trkpt>
      <trkpt lat="48.04391" lon="6.80475">
        <ele>874.4</ele>
        <time>2022-05-27T12:05:40Z</time>
      </trkpt>
      <trkpt lat="48.044" lon="6.80476">
        <ele>874.9</ele>
        <time>2022-05-27T12:05:42Z</time>
      </trkpt>
      <trkpt lat="48.0441" lon="6.80477">
        <ele>874.9</ele>
        <time>2022-05-27T12:05:44Z</time>
      </trkpt>
      <trkpt lat="48.0442" lon="6.80475">
        <ele>876.1</ele>
        <time>2022-05-27T12:05:46Z</time>
      </trkpt>
      <trkpt lat="48.04431" lon="6.80473">
        <ele>875.1</ele>
        <time>2022-05-27T12:05:48Z</time>
      </trkpt>
      <trkpt lat="48.04442" lon="6.80471">
        <ele>874.9</ele>
        <time>2022-05-27T12:05:50Z</time>
      </trkpt>
      <trkpt lat="48.04453" lon="6.80469">
        <ele>874.7</ele>
        <time>2022-05-27T12:05:52Z</time>
      </trkpt>
      <trkpt lat="48.04463" lon="6.80469">
        <ele>875.1</ele>
        <time>2022-05-27T12:05:54Z</time>
      </trkpt>
      <trkpt lat="48.04473" lon="6.8047">
        <ele>875.8</ele>
        <time>2022-05-27T12:05:56Z</time>
      </trkpt>
      <trkpt lat="48.04483" lon="6.80476">
        <ele>877.1</ele>
        <time>2022-05-27T12:05:58Z</time>
      </trkpt>
      <trkpt lat="48.0449" lon="6.80487">
        <ele>876.9</ele>
        <time>2022-05-27T12:06:00Z</time>
      </trkpt>
      <trkpt lat="48.04494" lon="6.80501">
        <ele>876.9</ele>
        <time>2022-05-27T12:06:02Z</time>
      </trkpt>
      <trkpt lat="48.04496" lon="6.80516">
        <ele>875.4</ele>
        <time>2022-05-27T12:06:04Z</time>
      </trkpt>
      <trkpt lat="48.04497" lon="6.80531">
        <ele>874.6</ele>
        <time>2022-05-27T12:06:06Z</time>
      </trkpt>
      <trkpt lat="48.04497" lon="6.80546">
        <ele>875.3</ele>
        <time>2022-05-27T12:06:08Z</time>
      </trkpt>
      <trkpt lat="48.04498" lon="6.8056">
        <ele>875</ele>
        <time>2022-05-27T12:06:10Z</time>
      </trkpt>
      <trkpt lat="48.04498" lon="6.80574">
        <ele>875.1</ele>
        <time>2022-05-27T12:06:12Z</time>
      </trkpt>
      <trkpt lat="48.04495" lon="6.80588">
        <ele>876.4</ele>
        <time>2022-05-27T12:06:14Z</time>
      </trkpt>
      <trkpt lat="48.04491" lon="6.80601">
        <ele>875.9</ele>
        <time>2022-05-27T12:06:16Z</time>
      </trkpt>
      <trkpt lat="48.04487" lon="6.80613">
        <ele>876.6</ele>
        <time>2022-05-27T12:06:18Z</time>
      </trkpt>
      <trkpt lat="48.04483" lon="6.80626">
        <ele>877</ele>
        <time>2022-05-27T12:06:20Z</time>
      </trkpt>
      <trkpt lat="48.0448" lon="6.80639">
        <ele>876.9</ele>
        <time>2022-05-27T12:06:22Z</time>
      </trkpt>
      <trkpt lat="48.04477" lon="6.80653">
        <ele>876.6</ele>
        <time>2022-05-27T12:06:24Z</time>
      </trkpt>
      <trkpt lat="48.04471" lon="6.80671">
        <ele>876.3</ele>
        <time>2022-05-27T12:06:27Z</time>
      </trkpt>
      <trkpt lat="48.04467" lon="6.80683">
        <ele>876.6</ele>
        <time>2022-05-27T12:06:29Z</time>
      </trkpt>
      <trkpt lat="48.04463" lon="6.80696">
        <ele>876.8</ele>
        <time>2022-05-27T12:06:31Z</time>
      </trkpt>
      <trkpt lat="48.04459" lon="6.80708">
        <ele>877.2</ele>
        <time>2022-05-27T12:06:33Z</time>
      </trkpt>
      <trkpt lat="48.04455" lon="6.8072">
        <ele>877</ele>
        <time>2022-05-27T12:06:35Z</time>
      </trkpt>
      <trkpt lat="48.0445" lon="6.80733">
        <ele>876.9</ele>
        <time>2022-05-27T12:06:37Z</time>
      </trkpt>
      <trkpt lat="48.04446" lon="6.80745">
        <ele>877</ele>
        <time>2022-05-27T12:06:39Z</time>
      </trkpt>
      <trkpt lat="48.04443" lon="6.80758">
        <ele>877</ele>
        <time>2022-05-27T12:06:41Z</time>
      </trkpt>
      <trkpt lat="48.04439" lon="6.8077">
        <ele>877.3</ele>
        <time>2022-05-27T12:06:43Z</time>
      </trkpt>
      <trkpt lat="48.04435" lon="6.80782">
        <ele>877.4</ele>
        <time>2022-05-27T12:06:45Z</time>
      </trkpt>
      <trkpt lat="48.04429" lon="6.80799">
        <ele>877.5</ele>
        <time>2022-05-27T12:06:48Z</time>
      </trkpt>
      <trkpt lat="48.04424" lon="6.80816">
        <ele>877.7</ele>
        <time>2022-05-27T12:06:51Z</time>
      </trkpt>
      <trkpt lat="48.0442" lon="6.80833">
        <ele>878.2</ele>
        <time>2022-05-27T12:06:54Z</time>
      </trkpt>
      <trkpt lat="48.04417" lon="6.80852">
        <ele>878.3</ele>
        <time>2022-05-27T12:06:57Z</time>
      </trkpt>
      <trkpt lat="48.04414" lon="6.80871">
        <ele>878.4</ele>
        <time>2022-05-27T12:07:00Z</time>
      </trkpt>
      <trkpt lat="48.04412" lon="6.80884">
        <ele>878</ele>
        <time>2022-05-27T12:07:02Z</time>
      </trkpt>
      <trkpt lat="48.0441" lon="6.80904">
        <ele>878.7</ele>
        <time>2022-05-27T12:07:05Z</time>
      </trkpt>
      <trkpt lat="48.04408" lon="6.80922">
        <ele>878.7</ele>
        <time>2022-05-27T12:07:08Z</time>
      </trkpt>
      <trkpt lat="48.04408" lon="6.8094">
        <ele>878.9</ele>
        <time>2022-05-27T12:07:11Z</time>
      </trkpt>
      <trkpt lat="48.04408" lon="6.80957">
        <ele>878.9</ele>
        <time>2022-05-27T12:07:14Z</time>
      </trkpt>
      <trkpt lat="48.04409" lon="6.80975">
        <ele>878.9</ele>
        <time>2022-05-27T12:07:17Z</time>
      </trkpt>
      <trkpt lat="48.04412" lon="6.80993">
        <ele>878.7</ele>
        <time>2022-05-27T12:07:20Z</time>
      </trkpt>
      <trkpt lat="48.04414" lon="6.81007">
        <ele>878.7</ele>
        <time>2022-05-27T12:07:22Z</time>
      </trkpt>
      <trkpt lat="48.04416" lon="6.81021">
        <ele>878.7</ele>
        <time>2022-05-27T12:07:24Z</time>
      </trkpt>
      <trkpt lat="48.0442" lon="6.81035">
        <ele>879</ele>
        <time>2022-05-27T12:07:26Z</time>
      </trkpt>
      <trkpt lat="48.04424" lon="6.81048">
        <ele>878.9</ele>
        <time>2022-05-27T12:07:28Z</time>
      </trkpt>
      <trkpt lat="48.04428" lon="6.81059">
        <ele>878.9</ele>
        <time>2022-05-27T12:07:30Z</time>
      </trkpt>
      <trkpt lat="48.04436" lon="6.81074">
        <ele>879.3</ele>
        <time>2022-05-27T12:07:33Z</time>
      </trkpt>
      <trkpt lat="48.04446" lon="6.81087">
        <ele>879.1</ele>
        <time>2022-05-27T12:07:36Z</time>
      </trkpt>
      <trkpt lat="48.04456" lon="6.81098">
        <ele>879.7</ele>
        <time>2022-05-27T12:07:39Z</time>
      </trkpt>
      <trkpt lat="48.04466" lon="6.81109">
        <ele>879.5</ele>
        <time>2022-05-27T12:07:42Z</time>
      </trkpt>
      <trkpt lat="48.04475" lon="6.81122">
        <ele>879.6</ele>
        <time>2022-05-27T12:07:45Z</time>
      </trkpt>
      <trkpt lat="48.04484" lon="6.81134">
        <ele>879.9</ele>
        <time>2022-05-27T12:07:48Z</time>
      </trkpt>
      <trkpt lat="48.04493" lon="6.81145">
        <ele>880.2</ele>
        <time>2022-05-27T12:07:51Z</time>
      </trkpt>
      <trkpt lat="48.04503" lon="6.81155">
        <ele>880.4</ele>
        <time>2022-05-27T12:07:54Z</time>
      </trkpt>
      <trkpt lat="48.04512" lon="6.81165">
        <ele>880.9</ele>
        <time>2022-05-27T12:07:57Z</time>
      </trkpt>
      <trkpt lat="48.0452" lon="6.81174">
        <ele>880.8</ele>
        <time>2022-05-27T12:08:00Z</time>
      </trkpt>
      <trkpt lat="48.04529" lon="6.81183">
        <ele>881.3</ele>
        <time>2022-05-27T12:08:03Z</time>
      </trkpt>
      <trkpt lat="48.0454" lon="6.81193">
        <ele>881.7</ele>
        <time>2022-05-27T12:08:06Z</time>
      </trkpt>
      <trkpt lat="48.04549" lon="6.81203">
        <ele>881.7</ele>
        <time>2022-05-27T12:08:09Z</time>
      </trkpt>
      <trkpt lat="48.04557" lon="6.81215">
        <ele>881.6</ele>
        <time>2022-05-27T12:08:12Z</time>
      </trkpt>
      <trkpt lat="48.04564" lon="6.81226">
        <ele>881.6</ele>
        <time>2022-05-27T12:08:15Z</time>
      </trkpt>
      <trkpt lat="48.04569" lon="6.81238">
        <ele>882.1</ele>
        <time>2022-05-27T12:08:18Z</time>
      </trkpt>
      <trkpt lat="48.0457" lon="6.81253">
        <ele>882.1</ele>
        <time>2022-05-27T12:08:22Z</time>
      </trkpt>
      <trkpt lat="48.04563" lon="6.81269">
        <ele>881.3</ele>
        <time>2022-05-27T12:08:26Z</time>
      </trkpt>
      <trkpt lat="48.04556" lon="6.81283">
        <ele>881</ele>
        <time>2022-05-27T12:08:29Z</time>
      </trkpt>
      <trkpt lat="48.04548" lon="6.81298">
        <ele>880.3</ele>
        <time>2022-05-27T12:08:32Z</time>
      </trkpt>
      <trkpt lat="48.04538" lon="6.81313">
        <ele>880.2</ele>
        <time>2022-05-27T12:08:35Z</time>
      </trkpt>
      <trkpt lat="48.0453" lon="6.81324">
        <ele>879.4</ele>
        <time>2022-05-27T12:08:37Z</time>
      </trkpt>
      <trkpt lat="48.04521" lon="6.81334">
        <ele>878.5</ele>
        <time>2022-05-27T12:08:39Z</time>
      </trkpt>
      <trkpt lat="48.0451" lon="6.8134">
        <ele>878.4</ele>
        <time>2022-05-27T12:08:41Z</time>
      </trkpt>
      <trkpt lat="48.04499" lon="6.81344">
        <ele>877.9</ele>
        <time>2022-05-27T12:08:43Z</time>
      </trkpt>
      <trkpt lat="48.04487" lon="6.81344">
        <ele>876.9</ele>
        <time>2022-05-27T12:08:45Z</time>
      </trkpt>
      <trkpt lat="48.04473" lon="6.81346">
        <ele>876.1</ele>
        <time>2022-05-27T12:08:47Z</time>
      </trkpt>
      <trkpt lat="48.04458" lon="6.81352">
        <ele>875.4</ele>
        <time>2022-05-27T12:08:49Z</time>
      </trkpt>
      <trkpt lat="48.04443" lon="6.81359">
        <ele>874.7</ele>
        <time>2022-05-27T12:08:51Z</time>
      </trkpt>
      <trkpt lat="48.04428" lon="6.81369">
        <ele>873</ele>
        <time>2022-05-27T12:08:53Z</time>
      </trkpt>
      <trkpt lat="48.04413" lon="6.81381">
        <ele>872.8</ele>
        <time>2022-05-27T12:08:55Z</time>
      </trkpt>
      <trkpt lat="48.04401" lon="6.81398">
        <ele>872.1</ele>
        <time>2022-05-27T12:08:57Z</time>
      </trkpt>
      <trkpt lat="48.04391" lon="6.81415">
        <ele>871.9</ele>
        <time>2022-05-27T12:08:59Z</time>
      </trkpt>
      <trkpt lat="48.04381" lon="6.81431">
        <ele>872</ele>
        <time>2022-05-27T12:09:01Z</time>
      </trkpt>
      <trkpt lat="48.04372" lon="6.81449">
        <ele>872.1</ele>
        <time>2022-05-27T12:09:03Z</time>
      </trkpt>
      <trkpt lat="48.04364" lon="6.81465">
        <ele>872</ele>
        <time>2022-05-27T12:09:05Z</time>
      </trkpt>
      <trkpt lat="48.04356" lon="6.81479">
        <ele>872.4</ele>
        <time>2022-05-27T12:09:07Z</time>
      </trkpt>
      <trkpt lat="48.0435" lon="6.81493">
        <ele>872</ele>
        <time>2022-05-27T12:09:09Z</time>
      </trkpt>
      <trkpt lat="48.04342" lon="6.81507">
        <ele>872.1</ele>
        <time>2022-05-27T12:09:11Z</time>
      </trkpt>
      <trkpt lat="48.04334" lon="6.81521">
        <ele>872.7</ele>
        <time>2022-05-27T12:09:13Z</time>
      </trkpt>
      <trkpt lat="48.04327" lon="6.81534">
        <ele>872.6</ele>
        <time>2022-05-27T12:09:15Z</time>
      </trkpt>
      <trkpt lat="48.0432" lon="6.81548">
        <ele>872.9</ele>
        <time>2022-05-27T12:09:17Z</time>
      </trkpt>
      <trkpt lat="48.04314" lon="6.81563">
        <ele>873</ele>
        <time>2022-05-27T12:09:19Z</time>
      </trkpt>
      <trkpt lat="48.04309" lon="6.81578">
        <ele>873.1</ele>
        <time>2022-05-27T12:09:21Z</time>
      </trkpt>
      <trkpt lat="48.04304" lon="6.81592">
        <ele>873.2</ele>
        <time>2022-05-27T12:09:23Z</time>
      </trkpt>
      <trkpt lat="48.04296" lon="6.81603">
        <ele>873.4</ele>
        <time>2022-05-27T12:09:25Z</time>
      </trkpt>
      <trkpt lat="48.04285" lon="6.8161">
        <ele>872.7</ele>
        <time>2022-05-27T12:09:27Z</time>
      </trkpt>
      <trkpt lat="48.04275" lon="6.81622">
        <ele>872.5</ele>
        <time>2022-05-27T12:09:29Z</time>
      </trkpt>
      <trkpt lat="48.04267" lon="6.81637">
        <ele>872.7</ele>
        <time>2022-05-27T12:09:31Z</time>
      </trkpt>
      <trkpt lat="48.0426" lon="6.81651">
        <ele>873.1</ele>
        <time>2022-05-27T12:09:33Z</time>
      </trkpt>
      <trkpt lat="48.04254" lon="6.81664">
        <ele>873.5</ele>
        <time>2022-05-27T12:09:35Z</time>
      </trkpt>
      <trkpt lat="48.04248" lon="6.81676">
        <ele>873.9</ele>
        <time>2022-05-27T12:09:37Z</time>
      </trkpt>
      <trkpt lat="48.04243" lon="6.81687">
        <ele>874</ele>
        <time>2022-05-27T12:09:39Z</time>
      </trkpt>
      <trkpt lat="48.04237" lon="6.81698">
        <ele>874.3</ele>
        <time>2022-05-27T12:09:41Z</time>
      </trkpt>
      <trkpt lat="48.04231" lon="6.81708">
        <ele>874.4</ele>
        <time>2022-05-27T12:09:43Z</time>
      </trkpt>
      <trkpt lat="48.04219" lon="6.81715">
        <ele>874.4</ele>
        <time>2022-05-27T12:09:46Z</time>
      </trkpt>
      <trkpt lat="48.04211" lon="6.81707">
        <ele>874.8</ele>
        <time>2022-05-27T12:09:50Z</time>
      </trkpt>
      <trkpt lat="48.04202" lon="6.81703">
        <ele>875</ele>
        <time>2022-05-27T12:09:58Z</time>
      </trkpt>
      <trkpt lat="48.04192" lon="6.81703">
        <ele>875.8</ele>
        <time>2022-05-27T12:10:06Z</time>
      </trkpt>
      <trkpt lat="48.04185" lon="6.81713">
        <ele>877</ele>
        <time>2022-05-27T12:10:12Z</time>
      </trkpt>
      <trkpt lat="48.04178" lon="6.81723">
        <ele>879.3</ele>
        <time>2022-05-27T12:10:18Z</time>
      </trkpt>
      <trkpt lat="48.04171" lon="6.81731">
        <ele>880.7</ele>
        <time>2022-05-27T12:10:24Z</time>
      </trkpt>
      <trkpt lat="48.04165" lon="6.81738">
        <ele>882.7</ele>
        <time>2022-05-27T12:10:33Z</time>
      </trkpt>
      <trkpt lat="48.04162" lon="6.81742">
        <ele>883.7</ele>
        <time>2022-05-27T12:10:43Z</time>
      </trkpt>
      <trkpt lat="48.04161" lon="6.81742">
        <ele>884.2</ele>
        <time>2022-05-27T12:10:47Z</time>
      </trkpt>
      <trkpt lat="48.04153" lon="6.8175">
        <ele>885.5</ele>
        <time>2022-05-27T12:10:55Z</time>
      </trkpt>
      <trkpt lat="48.04147" lon="6.81762">
        <ele>887.1</ele>
        <time>2022-05-27T12:11:02Z</time>
      </trkpt>
      <trkpt lat="48.04143" lon="6.81774">
        <ele>889</ele>
        <time>2022-05-27T12:11:08Z</time>
      </trkpt>
      <trkpt lat="48.04139" lon="6.81787">
        <ele>890.2</ele>
        <time>2022-05-27T12:11:14Z</time>
      </trkpt>
      <trkpt lat="48.04135" lon="6.818">
        <ele>890.7</ele>
        <time>2022-05-27T12:11:20Z</time>
      </trkpt>
      <trkpt lat="48.04135" lon="6.81814">
        <ele>890.7</ele>
        <time>2022-05-27T12:11:25Z</time>
      </trkpt>
      <trkpt lat="48.04138" lon="6.81827">
        <ele>891.6</ele>
        <time>2022-05-27T12:11:30Z</time>
      </trkpt>
      <trkpt lat="48.04139" lon="6.81841">
        <ele>891.9</ele>
        <time>2022-05-27T12:11:36Z</time>
      </trkpt>
      <trkpt lat="48.04139" lon="6.81842">
        <ele>891.9</ele>
        <time>2022-05-27T12:11:38Z</time>
      </trkpt>
      <trkpt lat="48.04137" lon="6.81858">
        <ele>891.8</ele>
        <time>2022-05-27T12:12:30Z</time>
      </trkpt>
      <trkpt lat="48.04135" lon="6.81875">
        <ele>890.7</ele>
        <time>2022-05-27T12:12:34Z</time>
      </trkpt>
      <trkpt lat="48.04135" lon="6.8189">
        <ele>890.8</ele>
        <time>2022-05-27T12:12:38Z</time>
      </trkpt>
      <trkpt lat="48.04134" lon="6.81904">
        <ele>891.2</ele>
        <time>2022-05-27T12:12:41Z</time>
      </trkpt>
      <trkpt lat="48.04134" lon="6.81918">
        <ele>890.6</ele>
        <time>2022-05-27T12:12:44Z</time>
      </trkpt>
      <trkpt lat="48.04134" lon="6.81934">
        <ele>890.2</ele>
        <time>2022-05-27T12:12:47Z</time>
      </trkpt>
      <trkpt lat="48.04136" lon="6.81951">
        <ele>889.6</ele>
        <time>2022-05-27T12:12:50Z</time>
      </trkpt>
      <trkpt lat="48.04136" lon="6.81969">
        <ele>888.4</ele>
        <time>2022-05-27T12:12:53Z</time>
      </trkpt>
      <trkpt lat="48.04135" lon="6.81986">
        <ele>888.9</ele>
        <time>2022-05-27T12:12:56Z</time>
      </trkpt>
      <trkpt lat="48.04134" lon="6.82003">
        <ele>889.8</ele>
        <time>2022-05-27T12:12:59Z</time>
      </trkpt>
      <trkpt lat="48.04132" lon="6.82022">
        <ele>890</ele>
        <time>2022-05-27T12:13:02Z</time>
      </trkpt>
      <trkpt lat="48.0413" lon="6.82041">
        <ele>888.6</ele>
        <time>2022-05-27T12:13:05Z</time>
      </trkpt>
      <trkpt lat="48.04128" lon="6.82055">
        <ele>888</ele>
        <time>2022-05-27T12:13:07Z</time>
      </trkpt>
      <trkpt lat="48.04124" lon="6.82072">
        <ele>885.1</ele>
        <time>2022-05-27T12:13:09Z</time>
      </trkpt>
      <trkpt lat="48.04119" lon="6.8209">
        <ele>882.3</ele>
        <time>2022-05-27T12:13:11Z</time>
      </trkpt>
      <trkpt lat="48.04113" lon="6.82108">
        <ele>882</ele>
        <time>2022-05-27T12:13:13Z</time>
      </trkpt>
      <trkpt lat="48.04108" lon="6.82126">
        <ele>884.7</ele>
        <time>2022-05-27T12:13:15Z</time>
      </trkpt>
      <trkpt lat="48.04105" lon="6.82146">
        <ele>882.9</ele>
        <time>2022-05-27T12:13:17Z</time>
      </trkpt>
      <trkpt lat="48.04103" lon="6.82163">
        <ele>882.7</ele>
        <time>2022-05-27T12:13:19Z</time>
      </trkpt>
      <trkpt lat="48.04101" lon="6.82177">
        <ele>883.1</ele>
        <time>2022-05-27T12:13:21Z</time>
      </trkpt>
      <trkpt lat="48.04099" lon="6.82196">
        <ele>887.7</ele>
        <time>2022-05-27T12:13:24Z</time>
      </trkpt>
      <trkpt lat="48.04097" lon="6.82211">
        <ele>886.1</ele>
        <time>2022-05-27T12:13:27Z</time>
      </trkpt>
      <trkpt lat="48.04093" lon="6.82223">
        <ele>886.4</ele>
        <time>2022-05-27T12:13:30Z</time>
      </trkpt>
      <trkpt lat="48.04091" lon="6.82239">
        <ele>887.7</ele>
        <time>2022-05-27T12:13:33Z</time>
      </trkpt>
      <trkpt lat="48.04088" lon="6.82254">
        <ele>887.6</ele>
        <time>2022-05-27T12:13:36Z</time>
      </trkpt>
      <trkpt lat="48.04086" lon="6.8227">
        <ele>888.6</ele>
        <time>2022-05-27T12:13:39Z</time>
      </trkpt>
      <trkpt lat="48.04082" lon="6.82286">
        <ele>889.3</ele>
        <time>2022-05-27T12:13:42Z</time>
      </trkpt>
      <trkpt lat="48.04078" lon="6.823">
        <ele>890.6</ele>
        <time>2022-05-27T12:13:45Z</time>
      </trkpt>
      <trkpt lat="48.04075" lon="6.82316">
        <ele>891.2</ele>
        <time>2022-05-27T12:13:49Z</time>
      </trkpt>
      <trkpt lat="48.04073" lon="6.82331">
        <ele>891</ele>
        <time>2022-05-27T12:13:53Z</time>
      </trkpt>
      <trkpt lat="48.04074" lon="6.82347">
        <ele>890.2</ele>
        <time>2022-05-27T12:13:57Z</time>
      </trkpt>
      <trkpt lat="48.04077" lon="6.82362">
        <ele>891.8</ele>
        <time>2022-05-27T12:14:01Z</time>
      </trkpt>
      <trkpt lat="48.04075" lon="6.8238">
        <ele>891.2</ele>
        <time>2022-05-27T12:14:06Z</time>
      </trkpt>
      <trkpt lat="48.04074" lon="6.82394">
        <ele>890.2</ele>
        <time>2022-05-27T12:14:09Z</time>
      </trkpt>
      <trkpt lat="48.04076" lon="6.8241">
        <ele>889.6</ele>
        <time>2022-05-27T12:14:12Z</time>
      </trkpt>
      <trkpt lat="48.04075" lon="6.82429">
        <ele>887</ele>
        <time>2022-05-27T12:14:15Z</time>
      </trkpt>
      <trkpt lat="48.04073" lon="6.82446">
        <ele>887.3</ele>
        <time>2022-05-27T12:14:18Z</time>
      </trkpt>
      <trkpt lat="48.04071" lon="6.8246">
        <ele>885.6</ele>
        <time>2022-05-27T12:14:21Z</time>
      </trkpt>
      <trkpt lat="48.04073" lon="6.8248">
        <ele>885.8</ele>
        <time>2022-05-27T12:14:24Z</time>
      </trkpt>
      <trkpt lat="48.04073" lon="6.82495">
        <ele>884.1</ele>
        <time>2022-05-27T12:14:26Z</time>
      </trkpt>
      <trkpt lat="48.04074" lon="6.82509">
        <ele>884.3</ele>
        <time>2022-05-27T12:14:28Z</time>
      </trkpt>
      <trkpt lat="48.04073" lon="6.82525">
        <ele>883.3</ele>
        <time>2022-05-27T12:14:31Z</time>
      </trkpt>
      <trkpt lat="48.04071" lon="6.82543">
        <ele>882.8</ele>
        <time>2022-05-27T12:14:34Z</time>
      </trkpt>
      <trkpt lat="48.04073" lon="6.82561">
        <ele>882.7</ele>
        <time>2022-05-27T12:14:37Z</time>
      </trkpt>
      <trkpt lat="48.04075" lon="6.82574">
        <ele>880.9</ele>
        <time>2022-05-27T12:14:40Z</time>
      </trkpt>
      <trkpt lat="48.04077" lon="6.82592">
        <ele>880.8</ele>
        <time>2022-05-27T12:14:44Z</time>
      </trkpt>
      <trkpt lat="48.0408" lon="6.82606">
        <ele>882.7</ele>
        <time>2022-05-27T12:14:47Z</time>
      </trkpt>
      <trkpt lat="48.04085" lon="6.82619">
        <ele>883.6</ele>
        <time>2022-05-27T12:14:50Z</time>
      </trkpt>
      <trkpt lat="48.04089" lon="6.82632">
        <ele>883.1</ele>
        <time>2022-05-27T12:14:53Z</time>
      </trkpt>
      <trkpt lat="48.04092" lon="6.82645">
        <ele>884.5</ele>
        <time>2022-05-27T12:14:56Z</time>
      </trkpt>
      <trkpt lat="48.04095" lon="6.82661">
        <ele>885.3</ele>
        <time>2022-05-27T12:15:00Z</time>
      </trkpt>
      <trkpt lat="48.04094" lon="6.82678">
        <ele>884.1</ele>
        <time>2022-05-27T12:15:04Z</time>
      </trkpt>
      <trkpt lat="48.04094" lon="6.82693">
        <ele>882.9</ele>
        <time>2022-05-27T12:15:07Z</time>
      </trkpt>
      <trkpt lat="48.04096" lon="6.82706">
        <ele>882.8</ele>
        <time>2022-05-27T12:15:10Z</time>
      </trkpt>
      <trkpt lat="48.04098" lon="6.8272">
        <ele>882.6</ele>
        <time>2022-05-27T12:15:13Z</time>
      </trkpt>
      <trkpt lat="48.04103" lon="6.82735">
        <ele>881.9</ele>
        <time>2022-05-27T12:15:16Z</time>
      </trkpt>
      <trkpt lat="48.04108" lon="6.82751">
        <ele>882</ele>
        <time>2022-05-27T12:15:19Z</time>
      </trkpt>
      <trkpt lat="48.04116" lon="6.82766">
        <ele>880.8</ele>
        <time>2022-05-27T12:15:22Z</time>
      </trkpt>
      <trkpt lat="48.04123" lon="6.82782">
        <ele>882.1</ele>
        <time>2022-05-27T12:15:25Z</time>
      </trkpt>
      <trkpt lat="48.04129" lon="6.82793">
        <ele>881.5</ele>
        <time>2022-05-27T12:15:27Z</time>
      </trkpt>
      <trkpt lat="48.04133" lon="6.82805">
        <ele>881</ele>
        <time>2022-05-27T12:15:29Z</time>
      </trkpt>
      <trkpt lat="48.04138" lon="6.82816">
        <ele>881.3</ele>
        <time>2022-05-27T12:15:31Z</time>
      </trkpt>
      <trkpt lat="48.04146" lon="6.82832">
        <ele>882.9</ele>
        <time>2022-05-27T12:15:34Z</time>
      </trkpt>
      <trkpt lat="48.04152" lon="6.82844">
        <ele>880.3</ele>
        <time>2022-05-27T12:15:36Z</time>
      </trkpt>
      <trkpt lat="48.04158" lon="6.82856">
        <ele>880.6</ele>
        <time>2022-05-27T12:15:38Z</time>
      </trkpt>
      <trkpt lat="48.04164" lon="6.82868">
        <ele>880</ele>
        <time>2022-05-27T12:15:41Z</time>
      </trkpt>
      <trkpt lat="48.04169" lon="6.82885">
        <ele>879.7</ele>
        <time>2022-05-27T12:15:45Z</time>
      </trkpt>
      <trkpt lat="48.04169" lon="6.82902">
        <ele>881.4</ele>
        <time>2022-05-27T12:15:48Z</time>
      </trkpt>
      <trkpt lat="48.04171" lon="6.82915">
        <ele>880.5</ele>
        <time>2022-05-27T12:15:51Z</time>
      </trkpt>
      <trkpt lat="48.04173" lon="6.82933">
        <ele>882.7</ele>
        <time>2022-05-27T12:15:55Z</time>
      </trkpt>
      <trkpt lat="48.04177" lon="6.82949">
        <ele>882.8</ele>
        <time>2022-05-27T12:15:59Z</time>
      </trkpt>
      <trkpt lat="48.04181" lon="6.82961">
        <ele>883.7</ele>
        <time>2022-05-27T12:16:02Z</time>
      </trkpt>
      <trkpt lat="48.04185" lon="6.82975">
        <ele>883.5</ele>
        <time>2022-05-27T12:16:05Z</time>
      </trkpt>
      <trkpt lat="48.04188" lon="6.82991">
        <ele>883</ele>
        <time>2022-05-27T12:16:09Z</time>
      </trkpt>
      <trkpt lat="48.04191" lon="6.83008">
        <ele>883.5</ele>
        <time>2022-05-27T12:16:13Z</time>
      </trkpt>
      <trkpt lat="48.04192" lon="6.83027">
        <ele>881.5</ele>
        <time>2022-05-27T12:16:16Z</time>
      </trkpt>
      <trkpt lat="48.04192" lon="6.83043">
        <ele>883.3</ele>
        <time>2022-05-27T12:16:18Z</time>
      </trkpt>
      <trkpt lat="48.04193" lon="6.83061">
        <ele>880.7</ele>
        <time>2022-05-27T12:16:20Z</time>
      </trkpt>
      <trkpt lat="48.04194" lon="6.8308">
        <ele>880.1</ele>
        <time>2022-05-27T12:16:22Z</time>
      </trkpt>
      <trkpt lat="48.04195" lon="6.83101">
        <ele>878.9</ele>
        <time>2022-05-27T12:16:24Z</time>
      </trkpt>
      <trkpt lat="48.04197" lon="6.83122">
        <ele>878</ele>
        <time>2022-05-27T12:16:26Z</time>
      </trkpt>
      <trkpt lat="48.042" lon="6.83146">
        <ele>875.9</ele>
        <time>2022-05-27T12:16:28Z</time>
      </trkpt>
      <trkpt lat="48.04204" lon="6.83169">
        <ele>878.3</ele>
        <time>2022-05-27T12:16:30Z</time>
      </trkpt>
      <trkpt lat="48.04208" lon="6.8319">
        <ele>876</ele>
        <time>2022-05-27T12:16:32Z</time>
      </trkpt>
      <trkpt lat="48.04211" lon="6.83209">
        <ele>874.9</ele>
        <time>2022-05-27T12:16:34Z</time>
      </trkpt>
      <trkpt lat="48.04216" lon="6.83227">
        <ele>875.8</ele>
        <time>2022-05-27T12:16:36Z</time>
      </trkpt>
      <trkpt lat="48.0422" lon="6.83244">
        <ele>875.4</ele>
        <time>2022-05-27T12:16:38Z</time>
      </trkpt>
      <trkpt lat="48.04224" lon="6.83261">
        <ele>874.9</ele>
        <time>2022-05-27T12:16:40Z</time>
      </trkpt>
      <trkpt lat="48.04227" lon="6.83276">
        <ele>872.6</ele>
        <time>2022-05-27T12:16:42Z</time>
      </trkpt>
      <trkpt lat="48.04232" lon="6.83292">
        <ele>873.7</ele>
        <time>2022-05-27T12:16:44Z</time>
      </trkpt>
      <trkpt lat="48.04236" lon="6.83309">
        <ele>872.8</ele>
        <time>2022-05-27T12:16:46Z</time>
      </trkpt>
      <trkpt lat="48.0424" lon="6.83326">
        <ele>871.1</ele>
        <time>2022-05-27T12:16:48Z</time>
      </trkpt>
      <trkpt lat="48.04245" lon="6.83345">
        <ele>871.5</ele>
        <time>2022-05-27T12:16:50Z</time>
      </trkpt>
      <trkpt lat="48.04247" lon="6.83362">
        <ele>870.5</ele>
        <time>2022-05-27T12:16:53Z</time>
      </trkpt>
      <trkpt lat="48.04246" lon="6.83376">
        <ele>870.1</ele>
        <time>2022-05-27T12:16:57Z</time>
      </trkpt>
      <trkpt lat="48.04252" lon="6.83391">
        <ele>867.6</ele>
        <time>2022-05-27T12:17:00Z</time>
      </trkpt>
      <trkpt lat="48.0426" lon="6.83405">
        <ele>868.8</ele>
        <time>2022-05-27T12:17:03Z</time>
      </trkpt>
      <trkpt lat="48.04268" lon="6.83415">
        <ele>867.6</ele>
        <time>2022-05-27T12:17:05Z</time>
      </trkpt>
      <trkpt lat="48.04277" lon="6.83428">
        <ele>867.2</ele>
        <time>2022-05-27T12:17:07Z</time>
      </trkpt>
      <trkpt lat="48.04285" lon="6.83441">
        <ele>866.5</ele>
        <time>2022-05-27T12:17:09Z</time>
      </trkpt>
      <trkpt lat="48.04293" lon="6.83453">
        <ele>867.5</ele>
        <time>2022-05-27T12:17:11Z</time>
      </trkpt>
      <trkpt lat="48.04302" lon="6.83464">
        <ele>867.1</ele>
        <time>2022-05-27T12:17:13Z</time>
      </trkpt>
      <trkpt lat="48.04311" lon="6.83473">
        <ele>868.5</ele>
        <time>2022-05-27T12:17:15Z</time>
      </trkpt>
      <trkpt lat="48.0432" lon="6.83481">
        <ele>868.1</ele>
        <time>2022-05-27T12:17:17Z</time>
      </trkpt>
      <trkpt lat="48.04329" lon="6.83484">
        <ele>868.8</ele>
        <time>2022-05-27T12:17:19Z</time>
      </trkpt>
      <trkpt lat="48.04341" lon="6.83487">
        <ele>869.5</ele>
        <time>2022-05-27T12:17:22Z</time>
      </trkpt>
      <trkpt lat="48.04353" lon="6.83491">
        <ele>869.9</ele>
        <time>2022-05-27T12:17:25Z</time>
      </trkpt>
      <trkpt lat="48.04361" lon="6.83496">
        <ele>872.5</ele>
        <time>2022-05-27T12:17:27Z</time>
      </trkpt>
      <trkpt lat="48.04372" lon="6.83499">
        <ele>869.1</ele>
        <time>2022-05-27T12:17:29Z</time>
      </trkpt>
      <trkpt lat="48.04383" lon="6.83504">
        <ele>866.4</ele>
        <time>2022-05-27T12:17:31Z</time>
      </trkpt>
      <trkpt lat="48.04392" lon="6.83513">
        <ele>866.5</ele>
        <time>2022-05-27T12:17:33Z</time>
      </trkpt>
      <trkpt lat="48.04399" lon="6.83523">
        <ele>867.3</ele>
        <time>2022-05-27T12:17:35Z</time>
      </trkpt>
      <trkpt lat="48.04406" lon="6.83532">
        <ele>869.5</ele>
        <time>2022-05-27T12:17:37Z</time>
      </trkpt>
      <trkpt lat="48.04415" lon="6.83547">
        <ele>869.2</ele>
        <time>2022-05-27T12:17:40Z</time>
      </trkpt>
      <trkpt lat="48.04422" lon="6.83561">
        <ele>870.7</ele>
        <time>2022-05-27T12:17:43Z</time>
      </trkpt>
      <trkpt lat="48.04427" lon="6.83573">
        <ele>870.3</ele>
        <time>2022-05-27T12:17:47Z</time>
      </trkpt>
      <trkpt lat="48.04433" lon="6.83584">
        <ele>870.6</ele>
        <time>2022-05-27T12:17:52Z</time>
      </trkpt>
      <trkpt lat="48.04436" lon="6.83587">
        <ele>870.6</ele>
        <time>2022-05-27T12:17:56Z</time>
      </trkpt>
      <trkpt lat="48.04436" lon="6.83588">
        <ele>870.7</ele>
        <time>2022-05-27T12:19:10Z</time>
      </trkpt>
      <trkpt lat="48.0444" lon="6.83603">
        <ele>870.2</ele>
        <time>2022-05-27T12:19:15Z</time>
      </trkpt>
      <trkpt lat="48.04444" lon="6.83619">
        <ele>870.1</ele>
        <time>2022-05-27T12:19:18Z</time>
      </trkpt>
      <trkpt lat="48.04447" lon="6.83632">
        <ele>868.9</ele>
        <time>2022-05-27T12:19:20Z</time>
      </trkpt>
      <trkpt lat="48.04453" lon="6.83648">
        <ele>867.3</ele>
        <time>2022-05-27T12:19:22Z</time>
      </trkpt>
      <trkpt lat="48.04458" lon="6.83664">
        <ele>865.9</ele>
        <time>2022-05-27T12:19:24Z</time>
      </trkpt>
      <trkpt lat="48.04463" lon="6.8368">
        <ele>865.2</ele>
        <time>2022-05-27T12:19:26Z</time>
      </trkpt>
      <trkpt lat="48.04469" lon="6.83694">
        <ele>864.8</ele>
        <time>2022-05-27T12:19:28Z</time>
      </trkpt>
      <trkpt lat="48.04472" lon="6.83712">
        <ele>862.1</ele>
        <time>2022-05-27T12:19:31Z</time>
      </trkpt>
      <trkpt lat="48.04466" lon="6.83726">
        <ele>860.5</ele>
        <time>2022-05-27T12:19:33Z</time>
      </trkpt>
      <trkpt lat="48.04458" lon="6.83738">
        <ele>860.8</ele>
        <time>2022-05-27T12:19:35Z</time>
      </trkpt>
      <trkpt lat="48.04449" lon="6.8375">
        <ele>859.1</ele>
        <time>2022-05-27T12:19:37Z</time>
      </trkpt>
      <trkpt lat="48.0444" lon="6.8376">
        <ele>858</ele>
        <time>2022-05-27T12:19:39Z</time>
      </trkpt>
      <trkpt lat="48.04433" lon="6.83769">
        <ele>857.3</ele>
        <time>2022-05-27T12:19:41Z</time>
      </trkpt>
      <trkpt lat="48.04424" lon="6.83781">
        <ele>856.8</ele>
        <time>2022-05-27T12:19:44Z</time>
      </trkpt>
      <trkpt lat="48.04418" lon="6.83792">
        <ele>855.4</ele>
        <time>2022-05-27T12:19:46Z</time>
      </trkpt>
      <trkpt lat="48.04409" lon="6.838">
        <ele>854.3</ele>
        <time>2022-05-27T12:19:48Z</time>
      </trkpt>
      <trkpt lat="48.044" lon="6.83803">
        <ele>855.4</ele>
        <time>2022-05-27T12:19:50Z</time>
      </trkpt>
      <trkpt lat="48.0439" lon="6.83804">
        <ele>855.4</ele>
        <time>2022-05-27T12:19:52Z</time>
      </trkpt>
      <trkpt lat="48.04381" lon="6.83805">
        <ele>855.4</ele>
        <time>2022-05-27T12:19:54Z</time>
      </trkpt>
      <trkpt lat="48.04371" lon="6.83807">
        <ele>855.4</ele>
        <time>2022-05-27T12:19:56Z</time>
      </trkpt>
      <trkpt lat="48.04362" lon="6.83809">
        <ele>854.9</ele>
        <time>2022-05-27T12:19:58Z</time>
      </trkpt>
      <trkpt lat="48.04349" lon="6.83812">
        <ele>853.9</ele>
        <time>2022-05-27T12:20:01Z</time>
      </trkpt>
      <trkpt lat="48.04337" lon="6.83816">
        <ele>854</ele>
        <time>2022-05-27T12:20:04Z</time>
      </trkpt>
      <trkpt lat="48.04327" lon="6.83826">
        <ele>853.9</ele>
        <time>2022-05-27T12:20:07Z</time>
      </trkpt>
      <trkpt lat="48.04321" lon="6.83843">
        <ele>854.1</ele>
        <time>2022-05-27T12:20:10Z</time>
      </trkpt>
      <trkpt lat="48.04317" lon="6.83862">
        <ele>854.7</ele>
        <time>2022-05-27T12:20:13Z</time>
      </trkpt>
      <trkpt lat="48.04313" lon="6.83881">
        <ele>854.6</ele>
        <time>2022-05-27T12:20:16Z</time>
      </trkpt>
      <trkpt lat="48.04311" lon="6.83898">
        <ele>855</ele>
        <time>2022-05-27T12:20:19Z</time>
      </trkpt>
      <trkpt lat="48.04311" lon="6.83913">
        <ele>855.2</ele>
        <time>2022-05-27T12:20:22Z</time>
      </trkpt>
      <trkpt lat="48.04318" lon="6.83924">
        <ele>857</ele>
        <time>2022-05-27T12:20:26Z</time>
      </trkpt>
      <trkpt lat="48.04326" lon="6.83931">
        <ele>857</ele>
        <time>2022-05-27T12:20:30Z</time>
      </trkpt>
      <trkpt lat="48.04336" lon="6.83938">
        <ele>858.3</ele>
        <time>2022-05-27T12:20:34Z</time>
      </trkpt>
      <trkpt lat="48.04345" lon="6.83945">
        <ele>859.7</ele>
        <time>2022-05-27T12:20:38Z</time>
      </trkpt>
      <trkpt lat="48.04354" lon="6.83953">
        <ele>859.9</ele>
        <time>2022-05-27T12:20:42Z</time>
      </trkpt>
      <trkpt lat="48.04362" lon="6.83963">
        <ele>861</ele>
        <time>2022-05-27T12:20:46Z</time>
      </trkpt>
      <trkpt lat="48.0437" lon="6.83973">
        <ele>861.3</ele>
        <time>2022-05-27T12:20:50Z</time>
      </trkpt>
      <trkpt lat="48.04376" lon="6.83984">
        <ele>861.9</ele>
        <time>2022-05-27T12:20:54Z</time>
      </trkpt>
      <trkpt lat="48.04383" lon="6.83995">
        <ele>862.1</ele>
        <time>2022-05-27T12:20:58Z</time>
      </trkpt>
      <trkpt lat="48.04389" lon="6.84006">
        <ele>862.7</ele>
        <time>2022-05-27T12:21:02Z</time>
      </trkpt>
      <trkpt lat="48.04395" lon="6.84018">
        <ele>863.6</ele>
        <time>2022-05-27T12:21:06Z</time>
      </trkpt>
      <trkpt lat="48.044" lon="6.84031">
        <ele>863.6</ele>
        <time>2022-05-27T12:21:10Z</time>
      </trkpt>
      <trkpt lat="48.04404" lon="6.84043">
        <ele>864.9</ele>
        <time>2022-05-27T12:21:14Z</time>
      </trkpt>
      <trkpt lat="48.04405" lon="6.84057">
        <ele>864.9</ele>
        <time>2022-05-27T12:21:18Z</time>
      </trkpt>
      <trkpt lat="48.04401" lon="6.84069">
        <ele>864.8</ele>
        <time>2022-05-27T12:21:22Z</time>
      </trkpt>
      <trkpt lat="48.04391" lon="6.8408">
        <ele>864.4</ele>
        <time>2022-05-27T12:21:26Z</time>
      </trkpt>
      <trkpt lat="48.0438" lon="6.84088">
        <ele>864.7</ele>
        <time>2022-05-27T12:21:29Z</time>
      </trkpt>
      <trkpt lat="48.0437" lon="6.84093">
        <ele>863.3</ele>
        <time>2022-05-27T12:21:31Z</time>
      </trkpt>
      <trkpt lat="48.0436" lon="6.84097">
        <ele>862.2</ele>
        <time>2022-05-27T12:21:33Z</time>
      </trkpt>
      <trkpt lat="48.04349" lon="6.84102">
        <ele>860.6</ele>
        <time>2022-05-27T12:21:35Z</time>
      </trkpt>
      <trkpt lat="48.04343" lon="6.84113">
        <ele>862.2</ele>
        <time>2022-05-27T12:21:37Z</time>
      </trkpt>
      <trkpt lat="48.04343" lon="6.84129">
        <ele>862.4</ele>
        <time>2022-05-27T12:21:39Z</time>
      </trkpt>
      <trkpt lat="48.04347" lon="6.84143">
        <ele>860.6</ele>
        <time>2022-05-27T12:21:41Z</time>
      </trkpt>
      <trkpt lat="48.04356" lon="6.84157">
        <ele>859.8</ele>
        <time>2022-05-27T12:21:43Z</time>
      </trkpt>
      <trkpt lat="48.04365" lon="6.84174">
        <ele>858</ele>
        <time>2022-05-27T12:21:45Z</time>
      </trkpt>
      <trkpt lat="48.04367" lon="6.84193">
        <ele>859.5</ele>
        <time>2022-05-27T12:21:47Z</time>
      </trkpt>
      <trkpt lat="48.04366" lon="6.84214">
        <ele>859</ele>
        <time>2022-05-27T12:21:49Z</time>
      </trkpt>
      <trkpt lat="48.04368" lon="6.84233">
        <ele>858.9</ele>
        <time>2022-05-27T12:21:51Z</time>
      </trkpt>
      <trkpt lat="48.04377" lon="6.84249">
        <ele>857.3</ele>
        <time>2022-05-27T12:21:53Z</time>
      </trkpt>
      <trkpt lat="48.04386" lon="6.84263">
        <ele>858.1</ele>
        <time>2022-05-27T12:21:55Z</time>
      </trkpt>
      <trkpt lat="48.04391" lon="6.8428">
        <ele>856.7</ele>
        <time>2022-05-27T12:21:57Z</time>
      </trkpt>
      <trkpt lat="48.04392" lon="6.84297">
        <ele>857.7</ele>
        <time>2022-05-27T12:21:59Z</time>
      </trkpt>
      <trkpt lat="48.0439" lon="6.84313">
        <ele>857.7</ele>
        <time>2022-05-27T12:22:01Z</time>
      </trkpt>
      <trkpt lat="48.04385" lon="6.84328">
        <ele>857.2</ele>
        <time>2022-05-27T12:22:03Z</time>
      </trkpt>
      <trkpt lat="48.0438" lon="6.84343">
        <ele>857.4</ele>
        <time>2022-05-27T12:22:05Z</time>
      </trkpt>
      <trkpt lat="48.04375" lon="6.84359">
        <ele>856.7</ele>
        <time>2022-05-27T12:22:07Z</time>
      </trkpt>
      <trkpt lat="48.0437" lon="6.84374">
        <ele>856.3</ele>
        <time>2022-05-27T12:22:09Z</time>
      </trkpt>
      <trkpt lat="48.04363" lon="6.84389">
        <ele>855.1</ele>
        <time>2022-05-27T12:22:11Z</time>
      </trkpt>
      <trkpt lat="48.04353" lon="6.844">
        <ele>855.9</ele>
        <time>2022-05-27T12:22:13Z</time>
      </trkpt>
      <trkpt lat="48.04345" lon="6.8441">
        <ele>856.6</ele>
        <time>2022-05-27T12:22:15Z</time>
      </trkpt>
      <trkpt lat="48.04337" lon="6.84419">
        <ele>856.3</ele>
        <time>2022-05-27T12:22:17Z</time>
      </trkpt>
      <trkpt lat="48.04331" lon="6.84431">
        <ele>855.9</ele>
        <time>2022-05-27T12:22:19Z</time>
      </trkpt>
      <trkpt lat="48.04331" lon="6.84445">
        <ele>855.4</ele>
        <time>2022-05-27T12:22:21Z</time>
      </trkpt>
      <trkpt lat="48.04336" lon="6.84456">
        <ele>857.1</ele>
        <time>2022-05-27T12:22:23Z</time>
      </trkpt>
      <trkpt lat="48.04344" lon="6.84464">
        <ele>856.5</ele>
        <time>2022-05-27T12:22:25Z</time>
      </trkpt>
      <trkpt lat="48.04354" lon="6.84471">
        <ele>855.9</ele>
        <time>2022-05-27T12:22:27Z</time>
      </trkpt>
      <trkpt lat="48.04364" lon="6.84478">
        <ele>855.8</ele>
        <time>2022-05-27T12:22:29Z</time>
      </trkpt>
      <trkpt lat="48.04375" lon="6.84483">
        <ele>857.4</ele>
        <time>2022-05-27T12:22:31Z</time>
      </trkpt>
      <trkpt lat="48.04385" lon="6.84487">
        <ele>855.7</ele>
        <time>2022-05-27T12:22:33Z</time>
      </trkpt>
      <trkpt lat="48.04394" lon="6.8449">
        <ele>855.1</ele>
        <time>2022-05-27T12:22:35Z</time>
      </trkpt>
      <trkpt lat="48.04404" lon="6.84494">
        <ele>855.8</ele>
        <time>2022-05-27T12:22:37Z</time>
      </trkpt>
      <trkpt lat="48.04413" lon="6.84499">
        <ele>856.2</ele>
        <time>2022-05-27T12:22:39Z</time>
      </trkpt>
      <trkpt lat="48.04421" lon="6.84509">
        <ele>856.5</ele>
        <time>2022-05-27T12:22:41Z</time>
      </trkpt>
      <trkpt lat="48.04428" lon="6.84522">
        <ele>856.1</ele>
        <time>2022-05-27T12:22:43Z</time>
      </trkpt>
      <trkpt lat="48.04434" lon="6.84536">
        <ele>856.3</ele>
        <time>2022-05-27T12:22:45Z</time>
      </trkpt>
      <trkpt lat="48.04441" lon="6.84547">
        <ele>855.6</ele>
        <time>2022-05-27T12:22:47Z</time>
      </trkpt>
      <trkpt lat="48.04448" lon="6.84558">
        <ele>855.6</ele>
        <time>2022-05-27T12:22:49Z</time>
      </trkpt>
      <trkpt lat="48.04454" lon="6.8457">
        <ele>855.2</ele>
        <time>2022-05-27T12:22:51Z</time>
      </trkpt>
      <trkpt lat="48.04457" lon="6.84584">
        <ele>855.8</ele>
        <time>2022-05-27T12:22:53Z</time>
      </trkpt>
      <trkpt lat="48.04461" lon="6.84598">
        <ele>856</ele>
        <time>2022-05-27T12:22:55Z</time>
      </trkpt>
      <trkpt lat="48.04466" lon="6.84609">
        <ele>855.8</ele>
        <time>2022-05-27T12:22:57Z</time>
      </trkpt>
      <trkpt lat="48.04472" lon="6.8462">
        <ele>854.9</ele>
        <time>2022-05-27T12:22:59Z</time>
      </trkpt>
      <trkpt lat="48.04477" lon="6.84632">
        <ele>854.6</ele>
        <time>2022-05-27T12:23:01Z</time>
      </trkpt>
      <trkpt lat="48.04482" lon="6.84646">
        <ele>854</ele>
        <time>2022-05-27T12:23:03Z</time>
      </trkpt>
      <trkpt lat="48.04487" lon="6.84658">
        <ele>853.3</ele>
        <time>2022-05-27T12:23:05Z</time>
      </trkpt>
      <trkpt lat="48.04496" lon="6.84665">
        <ele>853.4</ele>
        <time>2022-05-27T12:23:07Z</time>
      </trkpt>
      <trkpt lat="48.04508" lon="6.8467">
        <ele>852.6</ele>
        <time>2022-05-27T12:23:09Z</time>
      </trkpt>
      <trkpt lat="48.04523" lon="6.84672">
        <ele>852.5</ele>
        <time>2022-05-27T12:23:11Z</time>
      </trkpt>
      <trkpt lat="48.04536" lon="6.84676">
        <ele>850.7</ele>
        <time>2022-05-27T12:23:13Z</time>
      </trkpt>
      <trkpt lat="48.04549" lon="6.84685">
        <ele>850.3</ele>
        <time>2022-05-27T12:23:15Z</time>
      </trkpt>
      <trkpt lat="48.04559" lon="6.84697">
        <ele>848.1</ele>
        <time>2022-05-27T12:23:17Z</time>
      </trkpt>
      <trkpt lat="48.04566" lon="6.84711">
        <ele>848.9</ele>
        <time>2022-05-27T12:23:19Z</time>
      </trkpt>
      <trkpt lat="48.04573" lon="6.84724">
        <ele>848.8</ele>
        <time>2022-05-27T12:23:21Z</time>
      </trkpt>
      <trkpt lat="48.0458" lon="6.84734">
        <ele>847.9</ele>
        <time>2022-05-27T12:23:23Z</time>
      </trkpt>
      <trkpt lat="48.0459" lon="6.84747">
        <ele>846.6</ele>
        <time>2022-05-27T12:23:25Z</time>
      </trkpt>
      <trkpt lat="48.04599" lon="6.84758">
        <ele>844</ele>
        <time>2022-05-27T12:23:27Z</time>
      </trkpt>
      <trkpt lat="48.04608" lon="6.84769">
        <ele>846.9</ele>
        <time>2022-05-27T12:23:29Z</time>
      </trkpt>
      <trkpt lat="48.04618" lon="6.8478">
        <ele>846.6</ele>
        <time>2022-05-27T12:23:31Z</time>
      </trkpt>
      <trkpt lat="48.04628" lon="6.84793">
        <ele>841.2</ele>
        <time>2022-05-27T12:23:33Z</time>
      </trkpt>
      <trkpt lat="48.04639" lon="6.84808">
        <ele>840.4</ele>
        <time>2022-05-27T12:23:35Z</time>
      </trkpt>
      <trkpt lat="48.04652" lon="6.84819">
        <ele>841.3</ele>
        <time>2022-05-27T12:23:37Z</time>
      </trkpt>
      <trkpt lat="48.04666" lon="6.84832">
        <ele>840.9</ele>
        <time>2022-05-27T12:23:39Z</time>
      </trkpt>
      <trkpt lat="48.04679" lon="6.84844">
        <ele>842.4</ele>
        <time>2022-05-27T12:23:41Z</time>
      </trkpt>
      <trkpt lat="48.04692" lon="6.84854">
        <ele>838.2</ele>
        <time>2022-05-27T12:23:43Z</time>
      </trkpt>
      <trkpt lat="48.04705" lon="6.84866">
        <ele>837.1</ele>
        <time>2022-05-27T12:23:45Z</time>
      </trkpt>
      <trkpt lat="48.04718" lon="6.84883">
        <ele>837</ele>
        <time>2022-05-27T12:23:47Z</time>
      </trkpt>
      <trkpt lat="48.04725" lon="6.84903">
        <ele>838.3</ele>
        <time>2022-05-27T12:23:49Z</time>
      </trkpt>
      <trkpt lat="48.04725" lon="6.84926">
        <ele>838.5</ele>
        <time>2022-05-27T12:23:51Z</time>
      </trkpt>
      <trkpt lat="48.04723" lon="6.8495">
        <ele>835.7</ele>
        <time>2022-05-27T12:23:53Z</time>
      </trkpt>
      <trkpt lat="48.04721" lon="6.84975">
        <ele>833.9</ele>
        <time>2022-05-27T12:23:55Z</time>
      </trkpt>
      <trkpt lat="48.0472" lon="6.84999">
        <ele>833.3</ele>
        <time>2022-05-27T12:23:57Z</time>
      </trkpt>
      <trkpt lat="48.0472" lon="6.85024">
        <ele>833.9</ele>
        <time>2022-05-27T12:23:59Z</time>
      </trkpt>
      <trkpt lat="48.04717" lon="6.85046">
        <ele>835.1</ele>
        <time>2022-05-27T12:24:01Z</time>
      </trkpt>
      <trkpt lat="48.04712" lon="6.85066">
        <ele>831.6</ele>
        <time>2022-05-27T12:24:03Z</time>
      </trkpt>
      <trkpt lat="48.04716" lon="6.85086">
        <ele>830</ele>
        <time>2022-05-27T12:24:05Z</time>
      </trkpt>
      <trkpt lat="48.04723" lon="6.85105">
        <ele>831.4</ele>
        <time>2022-05-27T12:24:07Z</time>
      </trkpt>
      <trkpt lat="48.0473" lon="6.85126">
        <ele>829.9</ele>
        <time>2022-05-27T12:24:09Z</time>
      </trkpt>
      <trkpt lat="48.04737" lon="6.85146">
        <ele>828.9</ele>
        <time>2022-05-27T12:24:11Z</time>
      </trkpt>
      <trkpt lat="48.04738" lon="6.85164">
        <ele>828.1</ele>
        <time>2022-05-27T12:24:13Z</time>
      </trkpt>
      <trkpt lat="48.04728" lon="6.85181">
        <ele>827</ele>
        <time>2022-05-27T12:24:15Z</time>
      </trkpt>
      <trkpt lat="48.04715" lon="6.85195">
        <ele>825.9</ele>
        <time>2022-05-27T12:24:17Z</time>
      </trkpt>
      <trkpt lat="48.04702" lon="6.85211">
        <ele>826.1</ele>
        <time>2022-05-27T12:24:19Z</time>
      </trkpt>
      <trkpt lat="48.04691" lon="6.85226">
        <ele>824.9</ele>
        <time>2022-05-27T12:24:21Z</time>
      </trkpt>
      <trkpt lat="48.04679" lon="6.85235">
        <ele>823.5</ele>
        <time>2022-05-27T12:24:23Z</time>
      </trkpt>
      <trkpt lat="48.04666" lon="6.85239">
        <ele>822.6</ele>
        <time>2022-05-27T12:24:25Z</time>
      </trkpt>
      <trkpt lat="48.04652" lon="6.85245">
        <ele>823.8</ele>
        <time>2022-05-27T12:24:27Z</time>
      </trkpt>
      <trkpt lat="48.04641" lon="6.85257">
        <ele>824.9</ele>
        <time>2022-05-27T12:24:29Z</time>
      </trkpt>
      <trkpt lat="48.04635" lon="6.8527">
        <ele>823.5</ele>
        <time>2022-05-27T12:24:31Z</time>
      </trkpt>
      <trkpt lat="48.04632" lon="6.85283">
        <ele>823.4</ele>
        <time>2022-05-27T12:24:33Z</time>
      </trkpt>
      <trkpt lat="48.04631" lon="6.85302">
        <ele>824.7</ele>
        <time>2022-05-27T12:24:36Z</time>
      </trkpt>
      <trkpt lat="48.04631" lon="6.85321">
        <ele>825.6</ele>
        <time>2022-05-27T12:24:39Z</time>
      </trkpt>
      <trkpt lat="48.0463" lon="6.85336">
        <ele>826.4</ele>
        <time>2022-05-27T12:24:42Z</time>
      </trkpt>
      <trkpt lat="48.04627" lon="6.8535">
        <ele>826.8</ele>
        <time>2022-05-27T12:24:45Z</time>
      </trkpt>
      <trkpt lat="48.04624" lon="6.85363">
        <ele>827</ele>
        <time>2022-05-27T12:24:48Z</time>
      </trkpt>
      <trkpt lat="48.0462" lon="6.85378">
        <ele>827.5</ele>
        <time>2022-05-27T12:24:51Z</time>
      </trkpt>
      <trkpt lat="48.0462" lon="6.85394">
        <ele>827.4</ele>
        <time>2022-05-27T12:24:54Z</time>
      </trkpt>
      <trkpt lat="48.04625" lon="6.8541">
        <ele>828.5</ele>
        <time>2022-05-27T12:24:57Z</time>
      </trkpt>
      <trkpt lat="48.04636" lon="6.85421">
        <ele>828.2</ele>
        <time>2022-05-27T12:25:00Z</time>
      </trkpt>
      <trkpt lat="48.04646" lon="6.85431">
        <ele>829.1</ele>
        <time>2022-05-27T12:25:03Z</time>
      </trkpt>
      <trkpt lat="48.04657" lon="6.85439">
        <ele>829.4</ele>
        <time>2022-05-27T12:25:06Z</time>
      </trkpt>
      <trkpt lat="48.04666" lon="6.85451">
        <ele>830.5</ele>
        <time>2022-05-27T12:25:09Z</time>
      </trkpt>
      <trkpt lat="48.04672" lon="6.85465">
        <ele>829.7</ele>
        <time>2022-05-27T12:25:12Z</time>
      </trkpt>
      <trkpt lat="48.04679" lon="6.85479">
        <ele>830.4</ele>
        <time>2022-05-27T12:25:15Z</time>
      </trkpt>
      <trkpt lat="48.04687" lon="6.85492">
        <ele>831.2</ele>
        <time>2022-05-27T12:25:18Z</time>
      </trkpt>
      <trkpt lat="48.04692" lon="6.85506">
        <ele>831</ele>
        <time>2022-05-27T12:25:21Z</time>
      </trkpt>
      <trkpt lat="48.04691" lon="6.85524">
        <ele>831.1</ele>
        <time>2022-05-27T12:25:24Z</time>
      </trkpt>
      <trkpt lat="48.04689" lon="6.85543">
        <ele>831.8</ele>
        <time>2022-05-27T12:25:27Z</time>
      </trkpt>
      <trkpt lat="48.0469" lon="6.85561">
        <ele>832.7</ele>
        <time>2022-05-27T12:25:30Z</time>
      </trkpt>
      <trkpt lat="48.04694" lon="6.85578">
        <ele>832.5</ele>
        <time>2022-05-27T12:25:33Z</time>
      </trkpt>
      <trkpt lat="48.04702" lon="6.85591">
        <ele>831.9</ele>
        <time>2022-05-27T12:25:36Z</time>
      </trkpt>
      <trkpt lat="48.04713" lon="6.85602">
        <ele>833.8</ele>
        <time>2022-05-27T12:25:39Z</time>
      </trkpt>
      <trkpt lat="48.0472" lon="6.8561">
        <ele>835.7</ele>
        <time>2022-05-27T12:25:41Z</time>
      </trkpt>
      <trkpt lat="48.04729" lon="6.85623">
        <ele>834</ele>
        <time>2022-05-27T12:25:44Z</time>
      </trkpt>
      <trkpt lat="48.04735" lon="6.8564">
        <ele>834.2</ele>
        <time>2022-05-27T12:25:47Z</time>
      </trkpt>
      <trkpt lat="48.04739" lon="6.85656">
        <ele>835.4</ele>
        <time>2022-05-27T12:25:50Z</time>
      </trkpt>
      <trkpt lat="48.04744" lon="6.8567">
        <ele>835.3</ele>
        <time>2022-05-27T12:25:53Z</time>
      </trkpt>
      <trkpt lat="48.04749" lon="6.85683">
        <ele>834.9</ele>
        <time>2022-05-27T12:25:56Z</time>
      </trkpt>
      <trkpt lat="48.04757" lon="6.85692">
        <ele>834.4</ele>
        <time>2022-05-27T12:25:59Z</time>
      </trkpt>
      <trkpt lat="48.04768" lon="6.85702">
        <ele>835.6</ele>
        <time>2022-05-27T12:26:02Z</time>
      </trkpt>
      <trkpt lat="48.04778" lon="6.85711">
        <ele>836.2</ele>
        <time>2022-05-27T12:26:05Z</time>
      </trkpt>
      <trkpt lat="48.04788" lon="6.85718">
        <ele>836.1</ele>
        <time>2022-05-27T12:26:08Z</time>
      </trkpt>
      <trkpt lat="48.04799" lon="6.85724">
        <ele>836.1</ele>
        <time>2022-05-27T12:26:11Z</time>
      </trkpt>
      <trkpt lat="48.0481" lon="6.85728">
        <ele>836.6</ele>
        <time>2022-05-27T12:26:14Z</time>
      </trkpt>
      <trkpt lat="48.04821" lon="6.85733">
        <ele>837.4</ele>
        <time>2022-05-27T12:26:17Z</time>
      </trkpt>
      <trkpt lat="48.04833" lon="6.85739">
        <ele>837.8</ele>
        <time>2022-05-27T12:26:20Z</time>
      </trkpt>
      <trkpt lat="48.04842" lon="6.85747">
        <ele>837.5</ele>
        <time>2022-05-27T12:26:23Z</time>
      </trkpt>
      <trkpt lat="48.0485" lon="6.85755">
        <ele>838</ele>
        <time>2022-05-27T12:26:26Z</time>
      </trkpt>
      <trkpt lat="48.04859" lon="6.85765">
        <ele>837.9</ele>
        <time>2022-05-27T12:26:29Z</time>
      </trkpt>
      <trkpt lat="48.04867" lon="6.85779">
        <ele>839.1</ele>
        <time>2022-05-27T12:26:32Z</time>
      </trkpt>
      <trkpt lat="48.0487" lon="6.85795">
        <ele>839.9</ele>
        <time>2022-05-27T12:26:35Z</time>
      </trkpt>
      <trkpt lat="48.04875" lon="6.85813">
        <ele>839.7</ele>
        <time>2022-05-27T12:26:38Z</time>
      </trkpt>
      <trkpt lat="48.04879" lon="6.85825">
        <ele>838.8</ele>
        <time>2022-05-27T12:26:40Z</time>
      </trkpt>
      <trkpt lat="48.04884" lon="6.85837">
        <ele>838.8</ele>
        <time>2022-05-27T12:26:42Z</time>
      </trkpt>
      <trkpt lat="48.04893" lon="6.8585">
        <ele>839.2</ele>
        <time>2022-05-27T12:26:45Z</time>
      </trkpt>
      <trkpt lat="48.04901" lon="6.85865">
        <ele>838.5</ele>
        <time>2022-05-27T12:26:48Z</time>
      </trkpt>
      <trkpt lat="48.04905" lon="6.85882">
        <ele>840</ele>
        <time>2022-05-27T12:26:51Z</time>
      </trkpt>
      <trkpt lat="48.04907" lon="6.85896">
        <ele>837.9</ele>
        <time>2022-05-27T12:26:53Z</time>
      </trkpt>
      <trkpt lat="48.04909" lon="6.85911">
        <ele>836.2</ele>
        <time>2022-05-27T12:26:55Z</time>
      </trkpt>
      <trkpt lat="48.04913" lon="6.85927">
        <ele>834.5</ele>
        <time>2022-05-27T12:26:57Z</time>
      </trkpt>
      <trkpt lat="48.04921" lon="6.85941">
        <ele>832.8</ele>
        <time>2022-05-27T12:26:59Z</time>
      </trkpt>
      <trkpt lat="48.04933" lon="6.85948">
        <ele>834.6</ele>
        <time>2022-05-27T12:27:01Z</time>
      </trkpt>
      <trkpt lat="48.04943" lon="6.85955">
        <ele>832.6</ele>
        <time>2022-05-27T12:27:03Z</time>
      </trkpt>
      <trkpt lat="48.04948" lon="6.85968">
        <ele>830.5</ele>
        <time>2022-05-27T12:27:05Z</time>
      </trkpt>
      <trkpt lat="48.04945" lon="6.85981">
        <ele>829.5</ele>
        <time>2022-05-27T12:27:07Z</time>
      </trkpt>
      <trkpt lat="48.04939" lon="6.85996">
        <ele>829.9</ele>
        <time>2022-05-27T12:27:09Z</time>
      </trkpt>
      <trkpt lat="48.04933" lon="6.86017">
        <ele>826.8</ele>
        <time>2022-05-27T12:27:11Z</time>
      </trkpt>
      <trkpt lat="48.04927" lon="6.86042">
        <ele>824.8</ele>
        <time>2022-05-27T12:27:13Z</time>
      </trkpt>
      <trkpt lat="48.04924" lon="6.86068">
        <ele>822.9</ele>
        <time>2022-05-27T12:27:15Z</time>
      </trkpt>
      <trkpt lat="48.04927" lon="6.86093">
        <ele>823.4</ele>
        <time>2022-05-27T12:27:17Z</time>
      </trkpt>
      <trkpt lat="48.04931" lon="6.86114">
        <ele>824.2</ele>
        <time>2022-05-27T12:27:19Z</time>
      </trkpt>
      <trkpt lat="48.0493" lon="6.86135">
        <ele>818.7</ele>
        <time>2022-05-27T12:27:21Z</time>
      </trkpt>
      <trkpt lat="48.04925" lon="6.86154">
        <ele>818</ele>
        <time>2022-05-27T12:27:23Z</time>
      </trkpt>
      <trkpt lat="48.0492" lon="6.86175">
        <ele>821.2</ele>
        <time>2022-05-27T12:27:25Z</time>
      </trkpt>
      <trkpt lat="48.04919" lon="6.86194">
        <ele>821.3</ele>
        <time>2022-05-27T12:27:27Z</time>
      </trkpt>
      <trkpt lat="48.04915" lon="6.86212">
        <ele>820.2</ele>
        <time>2022-05-27T12:27:29Z</time>
      </trkpt>
      <trkpt lat="48.04908" lon="6.86227">
        <ele>820.2</ele>
        <time>2022-05-27T12:27:31Z</time>
      </trkpt>
      <trkpt lat="48.04902" lon="6.86243">
        <ele>819.9</ele>
        <time>2022-05-27T12:27:33Z</time>
      </trkpt>
      <trkpt lat="48.04902" lon="6.8626">
        <ele>819.5</ele>
        <time>2022-05-27T12:27:35Z</time>
      </trkpt>
      <trkpt lat="48.04907" lon="6.86276">
        <ele>819.6</ele>
        <time>2022-05-27T12:27:37Z</time>
      </trkpt>
      <trkpt lat="48.04912" lon="6.86291">
        <ele>819.7</ele>
        <time>2022-05-27T12:27:39Z</time>
      </trkpt>
      <trkpt lat="48.04911" lon="6.86305">
        <ele>819.6</ele>
        <time>2022-05-27T12:27:41Z</time>
      </trkpt>
      <trkpt lat="48.04908" lon="6.86319">
        <ele>819.9</ele>
        <time>2022-05-27T12:27:43Z</time>
      </trkpt>
      <trkpt lat="48.04908" lon="6.86334">
        <ele>819.6</ele>
        <time>2022-05-27T12:27:45Z</time>
      </trkpt>
      <trkpt lat="48.04914" lon="6.86345">
        <ele>819.6</ele>
        <time>2022-05-27T12:27:47Z</time>
      </trkpt>
      <trkpt lat="48.04924" lon="6.86351">
        <ele>819.4</ele>
        <time>2022-05-27T12:27:49Z</time>
      </trkpt>
      <trkpt lat="48.04934" lon="6.86357">
        <ele>819.8</ele>
        <time>2022-05-27T12:27:51Z</time>
      </trkpt>
      <trkpt lat="48.04942" lon="6.86365">
        <ele>820.1</ele>
        <time>2022-05-27T12:27:53Z</time>
      </trkpt>
      <trkpt lat="48.04948" lon="6.86378">
        <ele>819.3</ele>
        <time>2022-05-27T12:27:55Z</time>
      </trkpt>
      <trkpt lat="48.04951" lon="6.86394">
        <ele>818.4</ele>
        <time>2022-05-27T12:27:57Z</time>
      </trkpt>
      <trkpt lat="48.04957" lon="6.86407">
        <ele>819.1</ele>
        <time>2022-05-27T12:27:59Z</time>
      </trkpt>
      <trkpt lat="48.04963" lon="6.86417">
        <ele>820.2</ele>
        <time>2022-05-27T12:28:01Z</time>
      </trkpt>
      <trkpt lat="48.04972" lon="6.8643">
        <ele>820.3</ele>
        <time>2022-05-27T12:28:04Z</time>
      </trkpt>
      <trkpt lat="48.04983" lon="6.86441">
        <ele>819.3</ele>
        <time>2022-05-27T12:28:07Z</time>
      </trkpt>
      <trkpt lat="48.04995" lon="6.86446">
        <ele>819.3</ele>
        <time>2022-05-27T12:28:10Z</time>
      </trkpt>
      <trkpt lat="48.05006" lon="6.86446">
        <ele>819.9</ele>
        <time>2022-05-27T12:28:13Z</time>
      </trkpt>
      <trkpt lat="48.05018" lon="6.86445">
        <ele>820</ele>
        <time>2022-05-27T12:28:16Z</time>
      </trkpt>
      <trkpt lat="48.05029" lon="6.8645">
        <ele>819.2</ele>
        <time>2022-05-27T12:28:19Z</time>
      </trkpt>
      <trkpt lat="48.0504" lon="6.86459">
        <ele>819.6</ele>
        <time>2022-05-27T12:28:22Z</time>
      </trkpt>
      <trkpt lat="48.05049" lon="6.86463">
        <ele>819</ele>
        <time>2022-05-27T12:28:24Z</time>
      </trkpt>
      <trkpt lat="48.05061" lon="6.86464">
        <ele>818.9</ele>
        <time>2022-05-27T12:28:27Z</time>
      </trkpt>
      <trkpt lat="48.05073" lon="6.86465">
        <ele>818.9</ele>
        <time>2022-05-27T12:28:30Z</time>
      </trkpt>
      <trkpt lat="48.05083" lon="6.8647">
        <ele>819.6</ele>
        <time>2022-05-27T12:28:33Z</time>
      </trkpt>
      <trkpt lat="48.05092" lon="6.86479">
        <ele>819.2</ele>
        <time>2022-05-27T12:28:36Z</time>
      </trkpt>
      <trkpt lat="48.05099" lon="6.86491">
        <ele>819.9</ele>
        <time>2022-05-27T12:28:39Z</time>
      </trkpt>
      <trkpt lat="48.05104" lon="6.86503">
        <ele>819.7</ele>
        <time>2022-05-27T12:28:42Z</time>
      </trkpt>
      <trkpt lat="48.0511" lon="6.86515">
        <ele>819.6</ele>
        <time>2022-05-27T12:28:45Z</time>
      </trkpt>
      <trkpt lat="48.05114" lon="6.86524">
        <ele>819.8</ele>
        <time>2022-05-27T12:28:51Z</time>
      </trkpt>
      <trkpt lat="48.05114" lon="6.86525">
        <ele>819.8</ele>
        <time>2022-05-27T12:28:52Z</time>
      </trkpt>
      <trkpt lat="48.05114" lon="6.86526">
        <ele>819.8</ele>
        <time>2022-05-27T12:28:56Z</time>
      </trkpt>
      <trkpt lat="48.05115" lon="6.86527">
        <ele>819.9</ele>
        <time>2022-05-27T12:28:57Z</time>
      </trkpt>
      <trkpt lat="48.05124" lon="6.86521">
        <ele>819.5</ele>
        <time>2022-05-27T12:29:03Z</time>
      </trkpt>
      <trkpt lat="48.05128" lon="6.86508">
        <ele>818.6</ele>
        <time>2022-05-27T12:29:11Z</time>
      </trkpt>
      <trkpt lat="48.05119" lon="6.86515">
        <ele>819.5</ele>
        <time>2022-05-27T12:29:16Z</time>
      </trkpt>
      <trkpt lat="48.05111" lon="6.86525">
        <ele>819.6</ele>
        <time>2022-05-27T12:29:22Z</time>
      </trkpt>
      <trkpt lat="48.05108" lon="6.86526">
        <ele>819.4</ele>
        <time>2022-05-27T12:29:29Z</time>
      </trkpt>
      <trkpt lat="48.05107" lon="6.86527">
        <ele>818.3</ele>
        <time>2022-05-27T12:30:27Z</time>
      </trkpt>
      <trkpt lat="48.05108" lon="6.86526">
        <ele>818.2</ele>
        <time>2022-05-27T12:31:46Z</time>
      </trkpt>
      <trkpt lat="48.05107" lon="6.86527">
        <ele>818.8</ele>
        <time>2022-05-27T12:31:54Z</time>
      </trkpt>
      <trkpt lat="48.05098" lon="6.86533">
        <ele>819.4</ele>
        <time>2022-05-27T12:32:01Z</time>
      </trkpt>
      <trkpt lat="48.05089" lon="6.8654">
        <ele>819.9</ele>
        <time>2022-05-27T12:32:06Z</time>
      </trkpt>
      <trkpt lat="48.05079" lon="6.86544">
        <ele>820.9</ele>
        <time>2022-05-27T12:32:13Z</time>
      </trkpt>
      <trkpt lat="48.05069" lon="6.86544">
        <ele>821.5</ele>
        <time>2022-05-27T12:32:18Z</time>
      </trkpt>
      <trkpt lat="48.05059" lon="6.86543">
        <ele>821.9</ele>
        <time>2022-05-27T12:32:23Z</time>
      </trkpt>
      <trkpt lat="48.05049" lon="6.86537">
        <ele>822.6</ele>
        <time>2022-05-27T12:32:29Z</time>
      </trkpt>
      <trkpt lat="48.0504" lon="6.86529">
        <ele>823.4</ele>
        <time>2022-05-27T12:32:34Z</time>
      </trkpt>
      <trkpt lat="48.05034" lon="6.86518">
        <ele>823.8</ele>
        <time>2022-05-27T12:32:38Z</time>
      </trkpt>
      <trkpt lat="48.05028" lon="6.86507">
        <ele>822.7</ele>
        <time>2022-05-27T12:32:41Z</time>
      </trkpt>
      <trkpt lat="48.05019" lon="6.86497">
        <ele>822.6</ele>
        <time>2022-05-27T12:32:44Z</time>
      </trkpt>
      <trkpt lat="48.05008" lon="6.86489">
        <ele>822.4</ele>
        <time>2022-05-27T12:32:47Z</time>
      </trkpt>
      <trkpt lat="48.04997" lon="6.8648">
        <ele>821.2</ele>
        <time>2022-05-27T12:32:50Z</time>
      </trkpt>
      <trkpt lat="48.04986" lon="6.86473">
        <ele>821.6</ele>
        <time>2022-05-27T12:32:53Z</time>
      </trkpt>
      <trkpt lat="48.04977" lon="6.86467">
        <ele>822.2</ele>
        <time>2022-05-27T12:32:56Z</time>
      </trkpt>
      <trkpt lat="48.04967" lon="6.86464">
        <ele>822.6</ele>
        <time>2022-05-27T12:32:59Z</time>
      </trkpt>
      <trkpt lat="48.04958" lon="6.8646">
        <ele>823.5</ele>
        <time>2022-05-27T12:33:02Z</time>
      </trkpt>
      <trkpt lat="48.04947" lon="6.86456">
        <ele>824.6</ele>
        <time>2022-05-27T12:33:06Z</time>
      </trkpt>
      <trkpt lat="48.04936" lon="6.86451">
        <ele>825</ele>
        <time>2022-05-27T12:33:10Z</time>
      </trkpt>
      <trkpt lat="48.04927" lon="6.86447">
        <ele>825.1</ele>
        <time>2022-05-27T12:33:13Z</time>
      </trkpt>
      <trkpt lat="48.04918" lon="6.86443">
        <ele>824.8</ele>
        <time>2022-05-27T12:33:16Z</time>
      </trkpt>
      <trkpt lat="48.04909" lon="6.86439">
        <ele>825.5</ele>
        <time>2022-05-27T12:33:19Z</time>
      </trkpt>
      <trkpt lat="48.049" lon="6.86435">
        <ele>826</ele>
        <time>2022-05-27T12:33:22Z</time>
      </trkpt>
      <trkpt lat="48.04889" lon="6.86431">
        <ele>826.1</ele>
        <time>2022-05-27T12:33:26Z</time>
      </trkpt>
      <trkpt lat="48.04878" lon="6.86427">
        <ele>827</ele>
        <time>2022-05-27T12:33:30Z</time>
      </trkpt>
      <trkpt lat="48.04867" lon="6.86423">
        <ele>827.4</ele>
        <time>2022-05-27T12:33:34Z</time>
      </trkpt>
      <trkpt lat="48.04858" lon="6.86422">
        <ele>828.3</ele>
        <time>2022-05-27T12:33:37Z</time>
      </trkpt>
      <trkpt lat="48.0485" lon="6.86429">
        <ele>827.9</ele>
        <time>2022-05-27T12:33:42Z</time>
      </trkpt>
      <trkpt lat="48.04843" lon="6.86442">
        <ele>828.4</ele>
        <time>2022-05-27T12:33:46Z</time>
      </trkpt>
      <trkpt lat="48.04835" lon="6.86453">
        <ele>828.7</ele>
        <time>2022-05-27T12:33:49Z</time>
      </trkpt>
      <trkpt lat="48.04829" lon="6.86465">
        <ele>825.7</ele>
        <time>2022-05-27T12:33:52Z</time>
      </trkpt>
      <trkpt lat="48.04821" lon="6.86479">
        <ele>824.5</ele>
        <time>2022-05-27T12:33:55Z</time>
      </trkpt>
      <trkpt lat="48.04813" lon="6.86494">
        <ele>825.1</ele>
        <time>2022-05-27T12:33:58Z</time>
      </trkpt>
      <trkpt lat="48.04804" lon="6.86498">
        <ele>821.9</ele>
        <time>2022-05-27T12:34:00Z</time>
      </trkpt>
      <trkpt lat="48.04793" lon="6.86501">
        <ele>819.9</ele>
        <time>2022-05-27T12:34:02Z</time>
      </trkpt>
      <trkpt lat="48.04783" lon="6.86503">
        <ele>820.1</ele>
        <time>2022-05-27T12:34:04Z</time>
      </trkpt>
      <trkpt lat="48.04773" lon="6.86501">
        <ele>818.2</ele>
        <time>2022-05-27T12:34:06Z</time>
      </trkpt>
      <trkpt lat="48.04762" lon="6.86497">
        <ele>813.8</ele>
        <time>2022-05-27T12:34:08Z</time>
      </trkpt>
      <trkpt lat="48.0475" lon="6.8649">
        <ele>814.6</ele>
        <time>2022-05-27T12:34:10Z</time>
      </trkpt>
      <trkpt lat="48.04739" lon="6.86486">
        <ele>817.7</ele>
        <time>2022-05-27T12:34:13Z</time>
      </trkpt>
      <trkpt lat="48.04728" lon="6.86485">
        <ele>818.1</ele>
        <time>2022-05-27T12:34:16Z</time>
      </trkpt>
      <trkpt lat="48.04717" lon="6.86482">
        <ele>816.4</ele>
        <time>2022-05-27T12:34:18Z</time>
      </trkpt>
      <trkpt lat="48.04708" lon="6.86478">
        <ele>816.4</ele>
        <time>2022-05-27T12:34:20Z</time>
      </trkpt>
      <trkpt lat="48.04697" lon="6.86476">
        <ele>817.9</ele>
        <time>2022-05-27T12:34:23Z</time>
      </trkpt>
      <trkpt lat="48.04686" lon="6.86472">
        <ele>818.2</ele>
        <time>2022-05-27T12:34:26Z</time>
      </trkpt>
      <trkpt lat="48.04676" lon="6.86471">
        <ele>817.4</ele>
        <time>2022-05-27T12:34:29Z</time>
      </trkpt>
      <trkpt lat="48.04665" lon="6.86469">
        <ele>818.1</ele>
        <time>2022-05-27T12:34:32Z</time>
      </trkpt>
      <trkpt lat="48.04653" lon="6.86466">
        <ele>818.6</ele>
        <time>2022-05-27T12:34:35Z</time>
      </trkpt>
      <trkpt lat="48.04642" lon="6.86467">
        <ele>815.7</ele>
        <time>2022-05-27T12:34:38Z</time>
      </trkpt>
      <trkpt lat="48.0463" lon="6.86469">
        <ele>818.6</ele>
        <time>2022-05-27T12:34:41Z</time>
      </trkpt>
      <trkpt lat="48.04621" lon="6.86467">
        <ele>812.2</ele>
        <time>2022-05-27T12:34:44Z</time>
      </trkpt>
      <trkpt lat="48.04612" lon="6.86461">
        <ele>815.2</ele>
        <time>2022-05-27T12:34:46Z</time>
      </trkpt>
      <trkpt lat="48.04604" lon="6.86451">
        <ele>813.8</ele>
        <time>2022-05-27T12:34:48Z</time>
      </trkpt>
      <trkpt lat="48.04595" lon="6.86439">
        <ele>813.4</ele>
        <time>2022-05-27T12:34:50Z</time>
      </trkpt>
      <trkpt lat="48.04588" lon="6.86431">
        <ele>812.3</ele>
        <time>2022-05-27T12:34:52Z</time>
      </trkpt>
      <trkpt lat="48.04579" lon="6.86424">
        <ele>812.5</ele>
        <time>2022-05-27T12:34:55Z</time>
      </trkpt>
      <trkpt lat="48.0457" lon="6.86415">
        <ele>812.3</ele>
        <time>2022-05-27T12:34:59Z</time>
      </trkpt>
      <trkpt lat="48.04561" lon="6.86402">
        <ele>810</ele>
        <time>2022-05-27T12:35:03Z</time>
      </trkpt>
      <trkpt lat="48.04555" lon="6.8639">
        <ele>810</ele>
        <time>2022-05-27T12:35:05Z</time>
      </trkpt>
      <trkpt lat="48.04547" lon="6.86377">
        <ele>809.4</ele>
        <time>2022-05-27T12:35:07Z</time>
      </trkpt>
      <trkpt lat="48.0454" lon="6.86365">
        <ele>807.9</ele>
        <time>2022-05-27T12:35:09Z</time>
      </trkpt>
      <trkpt lat="48.04533" lon="6.8635">
        <ele>806.9</ele>
        <time>2022-05-27T12:35:11Z</time>
      </trkpt>
      <trkpt lat="48.04528" lon="6.86338">
        <ele>807.8</ele>
        <time>2022-05-27T12:35:13Z</time>
      </trkpt>
      <trkpt lat="48.04523" lon="6.8635">
        <ele>805.3</ele>
        <time>2022-05-27T12:35:21Z</time>
      </trkpt>
      <trkpt lat="48.04525" lon="6.86364">
        <ele>804.7</ele>
        <time>2022-05-27T12:35:23Z</time>
      </trkpt>
      <trkpt lat="48.04527" lon="6.86379">
        <ele>803.4</ele>
        <time>2022-05-27T12:35:25Z</time>
      </trkpt>
      <trkpt lat="48.0453" lon="6.86398">
        <ele>802.7</ele>
        <time>2022-05-27T12:35:28Z</time>
      </trkpt>
      <trkpt lat="48.04532" lon="6.86413">
        <ele>802.3</ele>
        <time>2022-05-27T12:35:31Z</time>
      </trkpt>
      <trkpt lat="48.04535" lon="6.86426">
        <ele>801.9</ele>
        <time>2022-05-27T12:35:34Z</time>
      </trkpt>
      <trkpt lat="48.0454" lon="6.86438">
        <ele>801.2</ele>
        <time>2022-05-27T12:35:37Z</time>
      </trkpt>
      <trkpt lat="48.04545" lon="6.8645">
        <ele>800.8</ele>
        <time>2022-05-27T12:35:40Z</time>
      </trkpt>
      <trkpt lat="48.04551" lon="6.86465">
        <ele>800.8</ele>
        <time>2022-05-27T12:35:44Z</time>
      </trkpt>
      <trkpt lat="48.04557" lon="6.86476">
        <ele>800.7</ele>
        <time>2022-05-27T12:35:47Z</time>
      </trkpt>
      <trkpt lat="48.04565" lon="6.86487">
        <ele>800.4</ele>
        <time>2022-05-27T12:35:50Z</time>
      </trkpt>
      <trkpt lat="48.04575" lon="6.86499">
        <ele>799.1</ele>
        <time>2022-05-27T12:35:53Z</time>
      </trkpt>
      <trkpt lat="48.04585" lon="6.86509">
        <ele>798.6</ele>
        <time>2022-05-27T12:35:56Z</time>
      </trkpt>
      <trkpt lat="48.04594" lon="6.86517">
        <ele>798.2</ele>
        <time>2022-05-27T12:35:58Z</time>
      </trkpt>
      <trkpt lat="48.04604" lon="6.86525">
        <ele>797.7</ele>
        <time>2022-05-27T12:36:00Z</time>
      </trkpt>
      <trkpt lat="48.04614" lon="6.86532">
        <ele>796.3</ele>
        <time>2022-05-27T12:36:02Z</time>
      </trkpt>
      <trkpt lat="48.04623" lon="6.86539">
        <ele>796.5</ele>
        <time>2022-05-27T12:36:04Z</time>
      </trkpt>
      <trkpt lat="48.04632" lon="6.86545">
        <ele>796.6</ele>
        <time>2022-05-27T12:36:06Z</time>
      </trkpt>
      <trkpt lat="48.04645" lon="6.86551">
        <ele>797.9</ele>
        <time>2022-05-27T12:36:09Z</time>
      </trkpt>
      <trkpt lat="48.04657" lon="6.86557">
        <ele>797.9</ele>
        <time>2022-05-27T12:36:12Z</time>
      </trkpt>
      <trkpt lat="48.04669" lon="6.86564">
        <ele>797.8</ele>
        <time>2022-05-27T12:36:15Z</time>
      </trkpt>
      <trkpt lat="48.0468" lon="6.86571">
        <ele>798</ele>
        <time>2022-05-27T12:36:18Z</time>
      </trkpt>
      <trkpt lat="48.04691" lon="6.86579">
        <ele>797.4</ele>
        <time>2022-05-27T12:36:21Z</time>
      </trkpt>
      <trkpt lat="48.04701" lon="6.8659">
        <ele>797.1</ele>
        <time>2022-05-27T12:36:24Z</time>
      </trkpt>
      <trkpt lat="48.04707" lon="6.86604">
        <ele>796</ele>
        <time>2022-05-27T12:36:27Z</time>
      </trkpt>
      <trkpt lat="48.04712" lon="6.86622">
        <ele>796.4</ele>
        <time>2022-05-27T12:36:30Z</time>
      </trkpt>
      <trkpt lat="48.04715" lon="6.86635">
        <ele>794.8</ele>
        <time>2022-05-27T12:36:32Z</time>
      </trkpt>
      <trkpt lat="48.04719" lon="6.86648">
        <ele>794</ele>
        <time>2022-05-27T12:36:35Z</time>
      </trkpt>
      <trkpt lat="48.04717" lon="6.86662">
        <ele>793.3</ele>
        <time>2022-05-27T12:36:39Z</time>
      </trkpt>
      <trkpt lat="48.04706" lon="6.8667">
        <ele>792.1</ele>
        <time>2022-05-27T12:36:42Z</time>
      </trkpt>
      <trkpt lat="48.04697" lon="6.86677">
        <ele>791.7</ele>
        <time>2022-05-27T12:36:44Z</time>
      </trkpt>
      <trkpt lat="48.04688" lon="6.86688">
        <ele>791.3</ele>
        <time>2022-05-27T12:36:46Z</time>
      </trkpt>
      <trkpt lat="48.04679" lon="6.867">
        <ele>790.3</ele>
        <time>2022-05-27T12:36:48Z</time>
      </trkpt>
      <trkpt lat="48.04668" lon="6.86711">
        <ele>789.1</ele>
        <time>2022-05-27T12:36:50Z</time>
      </trkpt>
      <trkpt lat="48.04656" lon="6.8672">
        <ele>788.8</ele>
        <time>2022-05-27T12:36:52Z</time>
      </trkpt>
      <trkpt lat="48.04641" lon="6.86722">
        <ele>787.8</ele>
        <time>2022-05-27T12:36:54Z</time>
      </trkpt>
      <trkpt lat="48.04625" lon="6.86721">
        <ele>786.4</ele>
        <time>2022-05-27T12:36:56Z</time>
      </trkpt>
      <trkpt lat="48.04608" lon="6.86717">
        <ele>786</ele>
        <time>2022-05-27T12:36:58Z</time>
      </trkpt>
      <trkpt lat="48.04592" lon="6.86711">
        <ele>785.2</ele>
        <time>2022-05-27T12:37:00Z</time>
      </trkpt>
      <trkpt lat="48.04577" lon="6.86701">
        <ele>783.3</ele>
        <time>2022-05-27T12:37:02Z</time>
      </trkpt>
      <trkpt lat="48.04563" lon="6.86684">
        <ele>782.5</ele>
        <time>2022-05-27T12:37:04Z</time>
      </trkpt>
      <trkpt lat="48.04551" lon="6.86665">
        <ele>782</ele>
        <time>2022-05-27T12:37:06Z</time>
      </trkpt>
      <trkpt lat="48.04545" lon="6.86654">
        <ele>780.7</ele>
        <time>2022-05-27T12:37:07Z</time>
      </trkpt>
      <trkpt lat="48.0454" lon="6.86644">
        <ele>779.8</ele>
        <time>2022-05-27T12:37:08Z</time>
      </trkpt>
      <trkpt lat="48.04534" lon="6.86633">
        <ele>779</ele>
        <time>2022-05-27T12:37:09Z</time>
      </trkpt>
      <trkpt lat="48.04528" lon="6.86622">
        <ele>778.2</ele>
        <time>2022-05-27T12:37:10Z</time>
      </trkpt>
      <trkpt lat="48.04522" lon="6.86611">
        <ele>777.6</ele>
        <time>2022-05-27T12:37:11Z</time>
      </trkpt>
      <trkpt lat="48.04516" lon="6.866">
        <ele>776.8</ele>
        <time>2022-05-27T12:37:12Z</time>
      </trkpt>
      <trkpt lat="48.0451" lon="6.86589">
        <ele>775.9</ele>
        <time>2022-05-27T12:37:13Z</time>
      </trkpt>
      <trkpt lat="48.04504" lon="6.86578">
        <ele>775.6</ele>
        <time>2022-05-27T12:37:14Z</time>
      </trkpt>
      <trkpt lat="48.04495" lon="6.8656">
        <ele>776.5</ele>
        <time>2022-05-27T12:37:16Z</time>
      </trkpt>
      <trkpt lat="48.04487" lon="6.86549">
        <ele>776.1</ele>
        <time>2022-05-27T12:37:18Z</time>
      </trkpt>
      <trkpt lat="48.04477" lon="6.86541">
        <ele>774.5</ele>
        <time>2022-05-27T12:37:21Z</time>
      </trkpt>
      <trkpt lat="48.04467" lon="6.86551">
        <ele>774.5</ele>
        <time>2022-05-27T12:37:24Z</time>
      </trkpt>
      <trkpt lat="48.04465" lon="6.86572">
        <ele>773.8</ele>
        <time>2022-05-27T12:37:27Z</time>
      </trkpt>
      <trkpt lat="48.04466" lon="6.86587">
        <ele>773.2</ele>
        <time>2022-05-27T12:37:29Z</time>
      </trkpt>
      <trkpt lat="48.04468" lon="6.86606">
        <ele>772.4</ele>
        <time>2022-05-27T12:37:31Z</time>
      </trkpt>
      <trkpt lat="48.04469" lon="6.86626">
        <ele>770.7</ele>
        <time>2022-05-27T12:37:33Z</time>
      </trkpt>
      <trkpt lat="48.04468" lon="6.86648">
        <ele>770.3</ele>
        <time>2022-05-27T12:37:35Z</time>
      </trkpt>
      <trkpt lat="48.04464" lon="6.8667">
        <ele>769.6</ele>
        <time>2022-05-27T12:37:37Z</time>
      </trkpt>
      <trkpt lat="48.0446" lon="6.86692">
        <ele>768.4</ele>
        <time>2022-05-27T12:37:39Z</time>
      </trkpt>
      <trkpt lat="48.04456" lon="6.86713">
        <ele>768.2</ele>
        <time>2022-05-27T12:37:41Z</time>
      </trkpt>
      <trkpt lat="48.04452" lon="6.86732">
        <ele>768.3</ele>
        <time>2022-05-27T12:37:43Z</time>
      </trkpt>
      <trkpt lat="48.04449" lon="6.8675">
        <ele>769.2</ele>
        <time>2022-05-27T12:37:45Z</time>
      </trkpt>
      <trkpt lat="48.04445" lon="6.86767">
        <ele>769.7</ele>
        <time>2022-05-27T12:37:47Z</time>
      </trkpt>
      <trkpt lat="48.04442" lon="6.86783">
        <ele>770.2</ele>
        <time>2022-05-27T12:37:49Z</time>
      </trkpt>
      <trkpt lat="48.04438" lon="6.86799">
        <ele>770.8</ele>
        <time>2022-05-27T12:37:51Z</time>
      </trkpt>
      <trkpt lat="48.04435" lon="6.86812">
        <ele>771.8</ele>
        <time>2022-05-27T12:37:53Z</time>
      </trkpt>
      <trkpt lat="48.04429" lon="6.86828">
        <ele>772.6</ele>
        <time>2022-05-27T12:37:56Z</time>
      </trkpt>
      <trkpt lat="48.04421" lon="6.86837">
        <ele>772.3</ele>
        <time>2022-05-27T12:37:59Z</time>
      </trkpt>
      <trkpt lat="48.04411" lon="6.8684">
        <ele>773.2</ele>
        <time>2022-05-27T12:38:02Z</time>
      </trkpt>
      <trkpt lat="48.04402" lon="6.86839">
        <ele>773.3</ele>
        <time>2022-05-27T12:38:05Z</time>
      </trkpt>
      <trkpt lat="48.04391" lon="6.86832">
        <ele>774.6</ele>
        <time>2022-05-27T12:38:09Z</time>
      </trkpt>
      <trkpt lat="48.04382" lon="6.86824">
        <ele>775.7</ele>
        <time>2022-05-27T12:38:13Z</time>
      </trkpt>
      <trkpt lat="48.04374" lon="6.86816">
        <ele>776.7</ele>
        <time>2022-05-27T12:38:17Z</time>
      </trkpt>
      <trkpt lat="48.04366" lon="6.86808">
        <ele>777.4</ele>
        <time>2022-05-27T12:38:21Z</time>
      </trkpt>
      <trkpt lat="48.04358" lon="6.868">
        <ele>778.3</ele>
        <time>2022-05-27T12:38:25Z</time>
      </trkpt>
      <trkpt lat="48.0435" lon="6.86793">
        <ele>778.8</ele>
        <time>2022-05-27T12:38:29Z</time>
      </trkpt>
      <trkpt lat="48.04342" lon="6.86786">
        <ele>780</ele>
        <time>2022-05-27T12:38:33Z</time>
      </trkpt>
      <trkpt lat="48.04332" lon="6.86777">
        <ele>780.4</ele>
        <time>2022-05-27T12:38:38Z</time>
      </trkpt>
      <trkpt lat="48.04322" lon="6.86771">
        <ele>781.4</ele>
        <time>2022-05-27T12:38:43Z</time>
      </trkpt>
      <trkpt lat="48.04313" lon="6.86767">
        <ele>782.3</ele>
        <time>2022-05-27T12:38:47Z</time>
      </trkpt>
      <trkpt lat="48.04303" lon="6.86765">
        <ele>783.2</ele>
        <time>2022-05-27T12:38:52Z</time>
      </trkpt>
      <trkpt lat="48.04292" lon="6.86766">
        <ele>784.1</ele>
        <time>2022-05-27T12:38:57Z</time>
      </trkpt>
      <trkpt lat="48.04282" lon="6.86768">
        <ele>785.1</ele>
        <time>2022-05-27T12:39:02Z</time>
      </trkpt>
      <trkpt lat="48.04271" lon="6.86771">
        <ele>785.4</ele>
        <time>2022-05-27T12:39:07Z</time>
      </trkpt>
      <trkpt lat="48.04262" lon="6.86771">
        <ele>785.1</ele>
        <time>2022-05-27T12:39:11Z</time>
      </trkpt>
      <trkpt lat="48.04252" lon="6.86768">
        <ele>784.6</ele>
        <time>2022-05-27T12:39:15Z</time>
      </trkpt>
      <trkpt lat="48.04242" lon="6.86761">
        <ele>783.8</ele>
        <time>2022-05-27T12:39:19Z</time>
      </trkpt>
      <trkpt lat="48.04234" lon="6.86752">
        <ele>783.8</ele>
        <time>2022-05-27T12:39:22Z</time>
      </trkpt>
      <trkpt lat="48.04227" lon="6.86744">
        <ele>783.9</ele>
        <time>2022-05-27T12:39:25Z</time>
      </trkpt>
      <trkpt lat="48.04219" lon="6.86732">
        <ele>783.7</ele>
        <time>2022-05-27T12:39:29Z</time>
      </trkpt>
      <trkpt lat="48.04214" lon="6.86717">
        <ele>784.5</ele>
        <time>2022-05-27T12:39:33Z</time>
      </trkpt>
      <trkpt lat="48.04209" lon="6.86701">
        <ele>782.5</ele>
        <time>2022-05-27T12:39:37Z</time>
      </trkpt>
      <trkpt lat="48.04205" lon="6.86686">
        <ele>782.1</ele>
        <time>2022-05-27T12:39:41Z</time>
      </trkpt>
      <trkpt lat="48.04202" lon="6.86672">
        <ele>780.4</ele>
        <time>2022-05-27T12:39:44Z</time>
      </trkpt>
      <trkpt lat="48.04197" lon="6.86658">
        <ele>782.8</ele>
        <time>2022-05-27T12:39:47Z</time>
      </trkpt>
      <trkpt lat="48.04189" lon="6.86643">
        <ele>782.2</ele>
        <time>2022-05-27T12:39:50Z</time>
      </trkpt>
      <trkpt lat="48.04181" lon="6.86636">
        <ele>777.8</ele>
        <time>2022-05-27T12:39:52Z</time>
      </trkpt>
      <trkpt lat="48.04172" lon="6.86629">
        <ele>777</ele>
        <time>2022-05-27T12:39:54Z</time>
      </trkpt>
      <trkpt lat="48.04163" lon="6.86619">
        <ele>778.4</ele>
        <time>2022-05-27T12:39:56Z</time>
      </trkpt>
      <trkpt lat="48.04155" lon="6.86605">
        <ele>777</ele>
        <time>2022-05-27T12:39:58Z</time>
      </trkpt>
      <trkpt lat="48.0415" lon="6.86587">
        <ele>777.9</ele>
        <time>2022-05-27T12:40:00Z</time>
      </trkpt>
      <trkpt lat="48.04148" lon="6.86567">
        <ele>776.9</ele>
        <time>2022-05-27T12:40:02Z</time>
      </trkpt>
      <trkpt lat="48.04147" lon="6.86547">
        <ele>777</ele>
        <time>2022-05-27T12:40:04Z</time>
      </trkpt>
      <trkpt lat="48.04146" lon="6.8653">
        <ele>777.6</ele>
        <time>2022-05-27T12:40:06Z</time>
      </trkpt>
      <trkpt lat="48.04144" lon="6.86516">
        <ele>777.6</ele>
        <time>2022-05-27T12:40:08Z</time>
      </trkpt>
      <trkpt lat="48.0414" lon="6.86503">
        <ele>778.7</ele>
        <time>2022-05-27T12:40:10Z</time>
      </trkpt>
      <trkpt lat="48.04134" lon="6.86485">
        <ele>779.2</ele>
        <time>2022-05-27T12:40:13Z</time>
      </trkpt>
      <trkpt lat="48.04127" lon="6.8647">
        <ele>778.3</ele>
        <time>2022-05-27T12:40:16Z</time>
      </trkpt>
      <trkpt lat="48.04118" lon="6.86458">
        <ele>776.4</ele>
        <time>2022-05-27T12:40:19Z</time>
      </trkpt>
      <trkpt lat="48.0411" lon="6.86449">
        <ele>776.7</ele>
        <time>2022-05-27T12:40:22Z</time>
      </trkpt>
      <trkpt lat="48.041" lon="6.86434">
        <ele>776.9</ele>
        <time>2022-05-27T12:40:25Z</time>
      </trkpt>
      <trkpt lat="48.04093" lon="6.86422">
        <ele>776.4</ele>
        <time>2022-05-27T12:40:27Z</time>
      </trkpt>
      <trkpt lat="48.04086" lon="6.86408">
        <ele>776.8</ele>
        <time>2022-05-27T12:40:29Z</time>
      </trkpt>
      <trkpt lat="48.04078" lon="6.86396">
        <ele>775.6</ele>
        <time>2022-05-27T12:40:31Z</time>
      </trkpt>
      <trkpt lat="48.04071" lon="6.86387">
        <ele>777.3</ele>
        <time>2022-05-27T12:40:33Z</time>
      </trkpt>
      <trkpt lat="48.0406" lon="6.86376">
        <ele>777.7</ele>
        <time>2022-05-27T12:40:36Z</time>
      </trkpt>
      <trkpt lat="48.04051" lon="6.86367">
        <ele>778.6</ele>
        <time>2022-05-27T12:40:39Z</time>
      </trkpt>
      <trkpt lat="48.04044" lon="6.86358">
        <ele>778.7</ele>
        <time>2022-05-27T12:40:42Z</time>
      </trkpt>
      <trkpt lat="48.04036" lon="6.86351">
        <ele>781.1</ele>
        <time>2022-05-27T12:40:46Z</time>
      </trkpt>
      <trkpt lat="48.04027" lon="6.86343">
        <ele>780.8</ele>
        <time>2022-05-27T12:40:51Z</time>
      </trkpt>
      <trkpt lat="48.04018" lon="6.86335">
        <ele>782.2</ele>
        <time>2022-05-27T12:40:55Z</time>
      </trkpt>
      <trkpt lat="48.04009" lon="6.86328">
        <ele>783.3</ele>
        <time>2022-05-27T12:40:59Z</time>
      </trkpt>
      <trkpt lat="48.03999" lon="6.8632">
        <ele>783.1</ele>
        <time>2022-05-27T12:41:04Z</time>
      </trkpt>
      <trkpt lat="48.0399" lon="6.86314">
        <ele>784.1</ele>
        <time>2022-05-27T12:41:08Z</time>
      </trkpt>
      <trkpt lat="48.03981" lon="6.86308">
        <ele>783.9</ele>
        <time>2022-05-27T12:41:11Z</time>
      </trkpt>
      <trkpt lat="48.03972" lon="6.86304">
        <ele>784.2</ele>
        <time>2022-05-27T12:41:14Z</time>
      </trkpt>
      <trkpt lat="48.03963" lon="6.863">
        <ele>785.6</ele>
        <time>2022-05-27T12:41:17Z</time>
      </trkpt>
      <trkpt lat="48.03953" lon="6.86295">
        <ele>783.6</ele>
        <time>2022-05-27T12:41:21Z</time>
      </trkpt>
      <trkpt lat="48.03942" lon="6.86289">
        <ele>786.5</ele>
        <time>2022-05-27T12:41:25Z</time>
      </trkpt>
      <trkpt lat="48.03933" lon="6.86284">
        <ele>787</ele>
        <time>2022-05-27T12:41:28Z</time>
      </trkpt>
      <trkpt lat="48.03926" lon="6.86277">
        <ele>786.5</ele>
        <time>2022-05-27T12:41:31Z</time>
      </trkpt>
      <trkpt lat="48.03916" lon="6.86266">
        <ele>787.1</ele>
        <time>2022-05-27T12:41:35Z</time>
      </trkpt>
      <trkpt lat="48.03908" lon="6.86256">
        <ele>788.5</ele>
        <time>2022-05-27T12:41:39Z</time>
      </trkpt>
      <trkpt lat="48.03898" lon="6.86244">
        <ele>788.3</ele>
        <time>2022-05-27T12:41:44Z</time>
      </trkpt>
      <trkpt lat="48.03887" lon="6.86233">
        <ele>788.7</ele>
        <time>2022-05-27T12:41:47Z</time>
      </trkpt>
      <trkpt lat="48.03879" lon="6.86226">
        <ele>787.7</ele>
        <time>2022-05-27T12:41:49Z</time>
      </trkpt>
      <trkpt lat="48.0387" lon="6.8622">
        <ele>786.9</ele>
        <time>2022-05-27T12:41:51Z</time>
      </trkpt>
      <trkpt lat="48.03858" lon="6.86215">
        <ele>787.7</ele>
        <time>2022-05-27T12:41:54Z</time>
      </trkpt>
      <trkpt lat="48.03847" lon="6.8621">
        <ele>787.1</ele>
        <time>2022-05-27T12:41:57Z</time>
      </trkpt>
      <trkpt lat="48.03836" lon="6.86205">
        <ele>787.8</ele>
        <time>2022-05-27T12:42:00Z</time>
      </trkpt>
      <trkpt lat="48.03825" lon="6.86197">
        <ele>787.4</ele>
        <time>2022-05-27T12:42:03Z</time>
      </trkpt>
      <trkpt lat="48.03816" lon="6.86185">
        <ele>787.6</ele>
        <time>2022-05-27T12:42:06Z</time>
      </trkpt>
      <trkpt lat="48.03807" lon="6.86171">
        <ele>788.8</ele>
        <time>2022-05-27T12:42:09Z</time>
      </trkpt>
      <trkpt lat="48.03801" lon="6.86156">
        <ele>789</ele>
        <time>2022-05-27T12:42:12Z</time>
      </trkpt>
      <trkpt lat="48.03795" lon="6.86145">
        <ele>788.7</ele>
        <time>2022-05-27T12:42:15Z</time>
      </trkpt>
      <trkpt lat="48.03787" lon="6.86134">
        <ele>791.1</ele>
        <time>2022-05-27T12:42:19Z</time>
      </trkpt>
      <trkpt lat="48.03778" lon="6.86128">
        <ele>790.6</ele>
        <time>2022-05-27T12:42:23Z</time>
      </trkpt>
      <trkpt lat="48.03768" lon="6.86124">
        <ele>791.5</ele>
        <time>2022-05-27T12:42:27Z</time>
      </trkpt>
      <trkpt lat="48.03757" lon="6.8612">
        <ele>793.3</ele>
        <time>2022-05-27T12:42:31Z</time>
      </trkpt>
      <trkpt lat="48.03748" lon="6.86114">
        <ele>793.1</ele>
        <time>2022-05-27T12:42:35Z</time>
      </trkpt>
      <trkpt lat="48.0374" lon="6.86109">
        <ele>793.3</ele>
        <time>2022-05-27T12:42:38Z</time>
      </trkpt>
      <trkpt lat="48.03731" lon="6.86105">
        <ele>793.1</ele>
        <time>2022-05-27T12:42:41Z</time>
      </trkpt>
      <trkpt lat="48.0372" lon="6.86102">
        <ele>794.2</ele>
        <time>2022-05-27T12:42:45Z</time>
      </trkpt>
      <trkpt lat="48.03708" lon="6.861">
        <ele>794.8</ele>
        <time>2022-05-27T12:42:49Z</time>
      </trkpt>
      <trkpt lat="48.037" lon="6.86095">
        <ele>796.5</ele>
        <time>2022-05-27T12:42:52Z</time>
      </trkpt>
      <trkpt lat="48.03689" lon="6.86087">
        <ele>797</ele>
        <time>2022-05-27T12:42:56Z</time>
      </trkpt>
      <trkpt lat="48.03681" lon="6.8608">
        <ele>796.4</ele>
        <time>2022-05-27T12:42:59Z</time>
      </trkpt>
      <trkpt lat="48.03671" lon="6.8607">
        <ele>797.5</ele>
        <time>2022-05-27T12:43:03Z</time>
      </trkpt>
      <trkpt lat="48.03664" lon="6.86061">
        <ele>797.9</ele>
        <time>2022-05-27T12:43:06Z</time>
      </trkpt>
      <trkpt lat="48.03654" lon="6.86058">
        <ele>799.2</ele>
        <time>2022-05-27T12:43:10Z</time>
      </trkpt>
      <trkpt lat="48.03644" lon="6.86055">
        <ele>800.8</ele>
        <time>2022-05-27T12:43:14Z</time>
      </trkpt>
      <trkpt lat="48.03633" lon="6.8605">
        <ele>800.3</ele>
        <time>2022-05-27T12:43:18Z</time>
      </trkpt>
      <trkpt lat="48.03624" lon="6.86047">
        <ele>801.1</ele>
        <time>2022-05-27T12:43:21Z</time>
      </trkpt>
      <trkpt lat="48.03613" lon="6.86043">
        <ele>799.5</ele>
        <time>2022-05-27T12:43:24Z</time>
      </trkpt>
      <trkpt lat="48.03604" lon="6.86041">
        <ele>800</ele>
        <time>2022-05-27T12:43:26Z</time>
      </trkpt>
      <trkpt lat="48.03595" lon="6.86039">
        <ele>799.2</ele>
        <time>2022-05-27T12:43:28Z</time>
      </trkpt>
      <trkpt lat="48.03584" lon="6.86034">
        <ele>798.6</ele>
        <time>2022-05-27T12:43:30Z</time>
      </trkpt>
      <trkpt lat="48.03572" lon="6.8603">
        <ele>799.8</ele>
        <time>2022-05-27T12:43:32Z</time>
      </trkpt>
      <trkpt lat="48.03561" lon="6.86028">
        <ele>800.9</ele>
        <time>2022-05-27T12:43:34Z</time>
      </trkpt>
      <trkpt lat="48.03549" lon="6.86028">
        <ele>796.5</ele>
        <time>2022-05-27T12:43:36Z</time>
      </trkpt>
      <trkpt lat="48.03536" lon="6.86031">
        <ele>796.8</ele>
        <time>2022-05-27T12:43:38Z</time>
      </trkpt>
      <trkpt lat="48.03524" lon="6.86034">
        <ele>796.4</ele>
        <time>2022-05-27T12:43:40Z</time>
      </trkpt>
      <trkpt lat="48.03513" lon="6.86036">
        <ele>795.9</ele>
        <time>2022-05-27T12:43:42Z</time>
      </trkpt>
      <trkpt lat="48.03503" lon="6.86042">
        <ele>796.4</ele>
        <time>2022-05-27T12:43:44Z</time>
      </trkpt>
      <trkpt lat="48.03493" lon="6.86049">
        <ele>795.1</ele>
        <time>2022-05-27T12:43:46Z</time>
      </trkpt>
      <trkpt lat="48.03483" lon="6.86055">
        <ele>796.3</ele>
        <time>2022-05-27T12:43:48Z</time>
      </trkpt>
      <trkpt lat="48.03472" lon="6.86062">
        <ele>798.4</ele>
        <time>2022-05-27T12:43:50Z</time>
      </trkpt>
      <trkpt lat="48.03463" lon="6.8607">
        <ele>795.3</ele>
        <time>2022-05-27T12:43:52Z</time>
      </trkpt>
      <trkpt lat="48.03455" lon="6.86079">
        <ele>797</ele>
        <time>2022-05-27T12:43:54Z</time>
      </trkpt>
      <trkpt lat="48.03449" lon="6.8609">
        <ele>797.8</ele>
        <time>2022-05-27T12:43:56Z</time>
      </trkpt>
      <trkpt lat="48.03441" lon="6.86105">
        <ele>798.9</ele>
        <time>2022-05-27T12:43:59Z</time>
      </trkpt>
      <trkpt lat="48.03432" lon="6.86118">
        <ele>798.5</ele>
        <time>2022-05-27T12:44:02Z</time>
      </trkpt>
      <trkpt lat="48.03423" lon="6.86131">
        <ele>798.2</ele>
        <time>2022-05-27T12:44:05Z</time>
      </trkpt>
      <trkpt lat="48.03416" lon="6.86139">
        <ele>799</ele>
        <time>2022-05-27T12:44:07Z</time>
      </trkpt>
      <trkpt lat="48.03407" lon="6.86144">
        <ele>798.7</ele>
        <time>2022-05-27T12:44:09Z</time>
      </trkpt>
      <trkpt lat="48.03399" lon="6.86149">
        <ele>799.9</ele>
        <time>2022-05-27T12:44:11Z</time>
      </trkpt>
      <trkpt lat="48.03388" lon="6.86155">
        <ele>799</ele>
        <time>2022-05-27T12:44:14Z</time>
      </trkpt>
      <trkpt lat="48.03379" lon="6.86159">
        <ele>799.1</ele>
        <time>2022-05-27T12:44:16Z</time>
      </trkpt>
      <trkpt lat="48.0337" lon="6.86163">
        <ele>798.6</ele>
        <time>2022-05-27T12:44:18Z</time>
      </trkpt>
      <trkpt lat="48.03361" lon="6.8617">
        <ele>797.7</ele>
        <time>2022-05-27T12:44:20Z</time>
      </trkpt>
      <trkpt lat="48.03352" lon="6.86176">
        <ele>797.6</ele>
        <time>2022-05-27T12:44:22Z</time>
      </trkpt>
      <trkpt lat="48.03344" lon="6.86183">
        <ele>797.4</ele>
        <time>2022-05-27T12:44:24Z</time>
      </trkpt>
      <trkpt lat="48.03334" lon="6.86192">
        <ele>799.6</ele>
        <time>2022-05-27T12:44:27Z</time>
      </trkpt>
      <trkpt lat="48.03324" lon="6.862">
        <ele>801.1</ele>
        <time>2022-05-27T12:44:31Z</time>
      </trkpt>
      <trkpt lat="48.03313" lon="6.86205">
        <ele>803.2</ele>
        <time>2022-05-27T12:44:35Z</time>
      </trkpt>
      <trkpt lat="48.03304" lon="6.86207">
        <ele>802.8</ele>
        <time>2022-05-27T12:44:38Z</time>
      </trkpt>
      <trkpt lat="48.03294" lon="6.86211">
        <ele>803.5</ele>
        <time>2022-05-27T12:44:41Z</time>
      </trkpt>
      <trkpt lat="48.03284" lon="6.86214">
        <ele>803.9</ele>
        <time>2022-05-27T12:44:44Z</time>
      </trkpt>
      <trkpt lat="48.03275" lon="6.86218">
        <ele>804.4</ele>
        <time>2022-05-27T12:44:47Z</time>
      </trkpt>
      <trkpt lat="48.03265" lon="6.86223">
        <ele>803.3</ele>
        <time>2022-05-27T12:44:50Z</time>
      </trkpt>
      <trkpt lat="48.03257" lon="6.8623">
        <ele>804.4</ele>
        <time>2022-05-27T12:44:52Z</time>
      </trkpt>
      <trkpt lat="48.03249" lon="6.86238">
        <ele>802.5</ele>
        <time>2022-05-27T12:44:54Z</time>
      </trkpt>
      <trkpt lat="48.03239" lon="6.86245">
        <ele>802.2</ele>
        <time>2022-05-27T12:44:56Z</time>
      </trkpt>
      <trkpt lat="48.03228" lon="6.86248">
        <ele>800.9</ele>
        <time>2022-05-27T12:44:58Z</time>
      </trkpt>
      <trkpt lat="48.03219" lon="6.8625">
        <ele>804.2</ele>
        <time>2022-05-27T12:45:00Z</time>
      </trkpt>
      <trkpt lat="48.03208" lon="6.86255">
        <ele>802.8</ele>
        <time>2022-05-27T12:45:03Z</time>
      </trkpt>
      <trkpt lat="48.032" lon="6.86261">
        <ele>804.7</ele>
        <time>2022-05-27T12:45:06Z</time>
      </trkpt>
      <trkpt lat="48.03189" lon="6.86269">
        <ele>803.8</ele>
        <time>2022-05-27T12:45:10Z</time>
      </trkpt>
      <trkpt lat="48.03179" lon="6.86273">
        <ele>803.4</ele>
        <time>2022-05-27T12:45:14Z</time>
      </trkpt>
      <trkpt lat="48.0317" lon="6.86281">
        <ele>806.8</ele>
        <time>2022-05-27T12:45:19Z</time>
      </trkpt>
      <trkpt lat="48.03168" lon="6.86296">
        <ele>808.7</ele>
        <time>2022-05-27T12:45:25Z</time>
      </trkpt>
      <trkpt lat="48.03167" lon="6.8631">
        <ele>809.4</ele>
        <time>2022-05-27T12:45:30Z</time>
      </trkpt>
      <trkpt lat="48.03165" lon="6.86323">
        <ele>810.3</ele>
        <time>2022-05-27T12:45:35Z</time>
      </trkpt>
      <trkpt lat="48.03161" lon="6.86337">
        <ele>810.5</ele>
        <time>2022-05-27T12:45:40Z</time>
      </trkpt>
      <trkpt lat="48.03155" lon="6.8635">
        <ele>811.8</ele>
        <time>2022-05-27T12:45:45Z</time>
      </trkpt>
      <trkpt lat="48.0315" lon="6.86364">
        <ele>813.3</ele>
        <time>2022-05-27T12:45:50Z</time>
      </trkpt>
      <trkpt lat="48.03146" lon="6.86377">
        <ele>814.7</ele>
        <time>2022-05-27T12:45:55Z</time>
      </trkpt>
      <trkpt lat="48.03139" lon="6.86389">
        <ele>814.9</ele>
        <time>2022-05-27T12:46:00Z</time>
      </trkpt>
      <trkpt lat="48.03134" lon="6.86401">
        <ele>815.2</ele>
        <time>2022-05-27T12:46:04Z</time>
      </trkpt>
      <trkpt lat="48.03127" lon="6.86413">
        <ele>815.4</ele>
        <time>2022-05-27T12:46:08Z</time>
      </trkpt>
      <trkpt lat="48.03122" lon="6.86426">
        <ele>815.3</ele>
        <time>2022-05-27T12:46:11Z</time>
      </trkpt>
      <trkpt lat="48.03118" lon="6.86441">
        <ele>816.5</ele>
        <time>2022-05-27T12:46:15Z</time>
      </trkpt>
      <trkpt lat="48.03113" lon="6.86453">
        <ele>816.9</ele>
        <time>2022-05-27T12:46:19Z</time>
      </trkpt>
      <trkpt lat="48.03108" lon="6.86467">
        <ele>817.6</ele>
        <time>2022-05-27T12:46:24Z</time>
      </trkpt>
      <trkpt lat="48.03103" lon="6.8648">
        <ele>819.7</ele>
        <time>2022-05-27T12:46:29Z</time>
      </trkpt>
      <trkpt lat="48.03099" lon="6.86495">
        <ele>821.1</ele>
        <time>2022-05-27T12:46:34Z</time>
      </trkpt>
      <trkpt lat="48.03093" lon="6.86508">
        <ele>822.3</ele>
        <time>2022-05-27T12:46:39Z</time>
      </trkpt>
      <trkpt lat="48.03088" lon="6.86521">
        <ele>823.8</ele>
        <time>2022-05-27T12:46:44Z</time>
      </trkpt>
      <trkpt lat="48.03082" lon="6.86534">
        <ele>824.9</ele>
        <time>2022-05-27T12:46:49Z</time>
      </trkpt>
      <trkpt lat="48.03077" lon="6.86549">
        <ele>825.9</ele>
        <time>2022-05-27T12:46:54Z</time>
      </trkpt>
      <trkpt lat="48.03071" lon="6.86561">
        <ele>826.8</ele>
        <time>2022-05-27T12:46:59Z</time>
      </trkpt>
      <trkpt lat="48.03066" lon="6.86573">
        <ele>828.5</ele>
        <time>2022-05-27T12:47:04Z</time>
      </trkpt>
      <trkpt lat="48.03063" lon="6.86586">
        <ele>829</ele>
        <time>2022-05-27T12:47:08Z</time>
      </trkpt>
      <trkpt lat="48.03058" lon="6.86598">
        <ele>829.3</ele>
        <time>2022-05-27T12:47:12Z</time>
      </trkpt>
      <trkpt lat="48.03055" lon="6.8661">
        <ele>829.7</ele>
        <time>2022-05-27T12:47:16Z</time>
      </trkpt>
      <trkpt lat="48.03052" lon="6.86624">
        <ele>831.4</ele>
        <time>2022-05-27T12:47:20Z</time>
      </trkpt>
      <trkpt lat="48.03047" lon="6.86637">
        <ele>832.8</ele>
        <time>2022-05-27T12:47:26Z</time>
      </trkpt>
      <trkpt lat="48.03042" lon="6.8665">
        <ele>834.2</ele>
        <time>2022-05-27T12:47:32Z</time>
      </trkpt>
      <trkpt lat="48.03035" lon="6.86662">
        <ele>836.2</ele>
        <time>2022-05-27T12:47:38Z</time>
      </trkpt>
      <trkpt lat="48.03026" lon="6.86674">
        <ele>835.3</ele>
        <time>2022-05-27T12:47:42Z</time>
      </trkpt>
      <trkpt lat="48.03019" lon="6.86684">
        <ele>833.9</ele>
        <time>2022-05-27T12:47:45Z</time>
      </trkpt>
      <trkpt lat="48.03015" lon="6.86698">
        <ele>835.5</ele>
        <time>2022-05-27T12:47:48Z</time>
      </trkpt>
      <trkpt lat="48.03012" lon="6.86712">
        <ele>837</ele>
        <time>2022-05-27T12:47:51Z</time>
      </trkpt>
      <trkpt lat="48.03008" lon="6.86726">
        <ele>837</ele>
        <time>2022-05-27T12:47:55Z</time>
      </trkpt>
      <trkpt lat="48.03005" lon="6.86739">
        <ele>839.1</ele>
        <time>2022-05-27T12:48:00Z</time>
      </trkpt>
      <trkpt lat="48.03002" lon="6.86755">
        <ele>840.3</ele>
        <time>2022-05-27T12:48:06Z</time>
      </trkpt>
      <trkpt lat="48.02998" lon="6.8677">
        <ele>841.5</ele>
        <time>2022-05-27T12:48:11Z</time>
      </trkpt>
      <trkpt lat="48.02994" lon="6.86785">
        <ele>842.6</ele>
        <time>2022-05-27T12:48:15Z</time>
      </trkpt>
      <trkpt lat="48.0299" lon="6.86802">
        <ele>842.3</ele>
        <time>2022-05-27T12:48:19Z</time>
      </trkpt>
      <trkpt lat="48.02986" lon="6.86815">
        <ele>843.5</ele>
        <time>2022-05-27T12:48:23Z</time>
      </trkpt>
      <trkpt lat="48.02982" lon="6.86827">
        <ele>844.7</ele>
        <time>2022-05-27T12:48:27Z</time>
      </trkpt>
      <trkpt lat="48.02977" lon="6.8684">
        <ele>844.9</ele>
        <time>2022-05-27T12:48:31Z</time>
      </trkpt>
      <trkpt lat="48.02972" lon="6.86854">
        <ele>845</ele>
        <time>2022-05-27T12:48:35Z</time>
      </trkpt>
      <trkpt lat="48.02967" lon="6.86866">
        <ele>845</ele>
        <time>2022-05-27T12:48:39Z</time>
      </trkpt>
      <trkpt lat="48.02962" lon="6.8688">
        <ele>846.4</ele>
        <time>2022-05-27T12:48:44Z</time>
      </trkpt>
      <trkpt lat="48.02961" lon="6.86894">
        <ele>848.6</ele>
        <time>2022-05-27T12:48:49Z</time>
      </trkpt>
      <trkpt lat="48.02962" lon="6.86907">
        <ele>850.1</ele>
        <time>2022-05-27T12:48:55Z</time>
      </trkpt>
      <trkpt lat="48.02972" lon="6.86909">
        <ele>851.6</ele>
        <time>2022-05-27T12:49:04Z</time>
      </trkpt>
      <trkpt lat="48.0298" lon="6.86902">
        <ele>852.9</ele>
        <time>2022-05-27T12:49:11Z</time>
      </trkpt>
      <trkpt lat="48.02987" lon="6.86894">
        <ele>854.3</ele>
        <time>2022-05-27T12:49:17Z</time>
      </trkpt>
      <trkpt lat="48.02994" lon="6.86884">
        <ele>855.7</ele>
        <time>2022-05-27T12:49:23Z</time>
      </trkpt>
      <trkpt lat="48.03" lon="6.86874">
        <ele>857.2</ele>
        <time>2022-05-27T12:49:29Z</time>
      </trkpt>
      <trkpt lat="48.03009" lon="6.86866">
        <ele>859.1</ele>
        <time>2022-05-27T12:49:36Z</time>
      </trkpt>
      <trkpt lat="48.03017" lon="6.86858">
        <ele>861</ele>
        <time>2022-05-27T12:49:43Z</time>
      </trkpt>
      <trkpt lat="48.03024" lon="6.86851">
        <ele>862.8</ele>
        <time>2022-05-27T12:49:49Z</time>
      </trkpt>
      <trkpt lat="48.03031" lon="6.86841">
        <ele>864.1</ele>
        <time>2022-05-27T12:49:56Z</time>
      </trkpt>
      <trkpt lat="48.03037" lon="6.8683">
        <ele>865.9</ele>
        <time>2022-05-27T12:50:04Z</time>
      </trkpt>
      <trkpt lat="48.03045" lon="6.86821">
        <ele>867.2</ele>
        <time>2022-05-27T12:50:11Z</time>
      </trkpt>
      <trkpt lat="48.03054" lon="6.86813">
        <ele>868.3</ele>
        <time>2022-05-27T12:50:18Z</time>
      </trkpt>
      <trkpt lat="48.03061" lon="6.86804">
        <ele>870</ele>
        <time>2022-05-27T12:50:24Z</time>
      </trkpt>
      <trkpt lat="48.03068" lon="6.86795">
        <ele>871.2</ele>
        <time>2022-05-27T12:50:30Z</time>
      </trkpt>
      <trkpt lat="48.03074" lon="6.86783">
        <ele>872.7</ele>
        <time>2022-05-27T12:50:36Z</time>
      </trkpt>
      <trkpt lat="48.03082" lon="6.86773">
        <ele>874.3</ele>
        <time>2022-05-27T12:50:42Z</time>
      </trkpt>
      <trkpt lat="48.03089" lon="6.86763">
        <ele>876.4</ele>
        <time>2022-05-27T12:50:48Z</time>
      </trkpt>
      <trkpt lat="48.03096" lon="6.86755">
        <ele>877.5</ele>
        <time>2022-05-27T12:50:54Z</time>
      </trkpt>
      <trkpt lat="48.03105" lon="6.86745">
        <ele>878.6</ele>
        <time>2022-05-27T12:51:00Z</time>
      </trkpt>
      <trkpt lat="48.03113" lon="6.86738">
        <ele>878.7</ele>
        <time>2022-05-27T12:51:05Z</time>
      </trkpt>
      <trkpt lat="48.03123" lon="6.86731">
        <ele>880.6</ele>
        <time>2022-05-27T12:51:11Z</time>
      </trkpt>
      <trkpt lat="48.03132" lon="6.86725">
        <ele>881.7</ele>
        <time>2022-05-27T12:51:17Z</time>
      </trkpt>
      <trkpt lat="48.03142" lon="6.86719">
        <ele>883.1</ele>
        <time>2022-05-27T12:51:23Z</time>
      </trkpt>
      <trkpt lat="48.03151" lon="6.86714">
        <ele>883.6</ele>
        <time>2022-05-27T12:51:28Z</time>
      </trkpt>
      <trkpt lat="48.03161" lon="6.86709">
        <ele>884.8</ele>
        <time>2022-05-27T12:51:34Z</time>
      </trkpt>
      <trkpt lat="48.03169" lon="6.86703">
        <ele>887</ele>
        <time>2022-05-27T12:51:39Z</time>
      </trkpt>
      <trkpt lat="48.03177" lon="6.86696">
        <ele>888</ele>
        <time>2022-05-27T12:51:44Z</time>
      </trkpt>
      <trkpt lat="48.03182" lon="6.86693">
        <ele>888.4</ele>
        <time>2022-05-27T12:51:49Z</time>
      </trkpt>
      <trkpt lat="48.03181" lon="6.86693">
        <ele>888.4</ele>
        <time>2022-05-27T12:51:51Z</time>
      </trkpt>
      <trkpt lat="48.0318" lon="6.86693">
        <ele>888.5</ele>
        <time>2022-05-27T12:52:04Z</time>
      </trkpt>
      <trkpt lat="48.0318" lon="6.86693">
        <ele>888.5</ele>
        <time>2022-05-27T12:52:50Z</time>
      </trkpt>
      <trkpt lat="48.03179" lon="6.86693">
        <ele>888</ele>
        <time>2022-05-27T12:52:59Z</time>
      </trkpt>
      <trkpt lat="48.03179" lon="6.86693">
        <ele>888</ele>
        <time>2022-05-27T12:53:43Z</time>
      </trkpt>
      <trkpt lat="48.03178" lon="6.86693">
        <ele>888.3</ele>
        <time>2022-05-27T12:56:07Z</time>
      </trkpt>
      <trkpt lat="48.03178" lon="6.86693">
        <ele>888.2</ele>
        <time>2022-05-27T12:56:39Z</time>
      </trkpt>
      <trkpt lat="48.03175" lon="6.86695">
        <ele>887.6</ele>
        <time>2022-05-27T12:56:47Z</time>
      </trkpt>
      <trkpt lat="48.03175" lon="6.86696">
        <ele>887.9</ele>
        <time>2022-05-27T12:58:23Z</time>
      </trkpt>
      <trkpt lat="48.03177" lon="6.86697">
        <ele>888.3</ele>
        <time>2022-05-27T12:58:30Z</time>
      </trkpt>
      <trkpt lat="48.03177" lon="6.86696">
        <ele>888.8</ele>
        <time>2022-05-27T12:59:21Z</time>
      </trkpt>
      <trkpt lat="48.03177" lon="6.86695">
        <ele>888.3</ele>
        <time>2022-05-27T12:59:25Z</time>
      </trkpt>
      <trkpt lat="48.03177" lon="6.86694">
        <ele>888.2</ele>
        <time>2022-05-27T12:59:30Z</time>
      </trkpt>
      <trkpt lat="48.03178" lon="6.86694">
        <ele>888.4</ele>
        <time>2022-05-27T12:59:32Z</time>
      </trkpt>
      <trkpt lat="48.03179" lon="6.86693">
        <ele>888</ele>
        <time>2022-05-27T12:59:46Z</time>
      </trkpt>
      <trkpt lat="48.03179" lon="6.86693">
        <ele>888.1</ele>
        <time>2022-05-27T12:59:48Z</time>
      </trkpt>
      <trkpt lat="48.03189" lon="6.86688">
        <ele>887.9</ele>
        <time>2022-05-27T12:59:53Z</time>
      </trkpt>
      <trkpt lat="48.03196" lon="6.86676">
        <ele>887.3</ele>
        <time>2022-05-27T12:59:56Z</time>
      </trkpt>
      <trkpt lat="48.03204" lon="6.8666">
        <ele>886.6</ele>
        <time>2022-05-27T12:59:59Z</time>
      </trkpt>
      <trkpt lat="48.03211" lon="6.86647">
        <ele>885.4</ele>
        <time>2022-05-27T13:00:01Z</time>
      </trkpt>
      <trkpt lat="48.03219" lon="6.86634">
        <ele>884.4</ele>
        <time>2022-05-27T13:00:03Z</time>
      </trkpt>
      <trkpt lat="48.03229" lon="6.86622">
        <ele>883.8</ele>
        <time>2022-05-27T13:00:05Z</time>
      </trkpt>
      <trkpt lat="48.03241" lon="6.8661">
        <ele>882.8</ele>
        <time>2022-05-27T13:00:07Z</time>
      </trkpt>
      <trkpt lat="48.03253" lon="6.86597">
        <ele>882.1</ele>
        <time>2022-05-27T13:00:09Z</time>
      </trkpt>
      <trkpt lat="48.03264" lon="6.86585">
        <ele>880.9</ele>
        <time>2022-05-27T13:00:11Z</time>
      </trkpt>
      <trkpt lat="48.03275" lon="6.86571">
        <ele>879.7</ele>
        <time>2022-05-27T13:00:13Z</time>
      </trkpt>
      <trkpt lat="48.03286" lon="6.86556">
        <ele>878.9</ele>
        <time>2022-05-27T13:00:15Z</time>
      </trkpt>
      <trkpt lat="48.03297" lon="6.86541">
        <ele>877.3</ele>
        <time>2022-05-27T13:00:17Z</time>
      </trkpt>
      <trkpt lat="48.03306" lon="6.8653">
        <ele>876.8</ele>
        <time>2022-05-27T13:00:19Z</time>
      </trkpt>
      <trkpt lat="48.03314" lon="6.86522">
        <ele>876.4</ele>
        <time>2022-05-27T13:00:21Z</time>
      </trkpt>
      <trkpt lat="48.03323" lon="6.86515">
        <ele>876.1</ele>
        <time>2022-05-27T13:00:25Z</time>
      </trkpt>
      <trkpt lat="48.03332" lon="6.86517">
        <ele>876.4</ele>
        <time>2022-05-27T13:00:33Z</time>
      </trkpt>
      <trkpt lat="48.0334" lon="6.86508">
        <ele>877.8</ele>
        <time>2022-05-27T13:00:39Z</time>
      </trkpt>
      <trkpt lat="48.03347" lon="6.86499">
        <ele>877.5</ele>
        <time>2022-05-27T13:00:44Z</time>
      </trkpt>
      <trkpt lat="48.03356" lon="6.8649">
        <ele>878.8</ele>
        <time>2022-05-27T13:00:50Z</time>
      </trkpt>
      <trkpt lat="48.03362" lon="6.86481">
        <ele>879.3</ele>
        <time>2022-05-27T13:00:55Z</time>
      </trkpt>
      <trkpt lat="48.03369" lon="6.8647">
        <ele>879.5</ele>
        <time>2022-05-27T13:01:00Z</time>
      </trkpt>
      <trkpt lat="48.03376" lon="6.86457">
        <ele>880.7</ele>
        <time>2022-05-27T13:01:05Z</time>
      </trkpt>
      <trkpt lat="48.03384" lon="6.86447">
        <ele>881.9</ele>
        <time>2022-05-27T13:01:10Z</time>
      </trkpt>
      <trkpt lat="48.03394" lon="6.86444">
        <ele>881.2</ele>
        <time>2022-05-27T13:01:16Z</time>
      </trkpt>
      <trkpt lat="48.03404" lon="6.86441">
        <ele>882.4</ele>
        <time>2022-05-27T13:01:21Z</time>
      </trkpt>
      <trkpt lat="48.03414" lon="6.8644">
        <ele>883.5</ele>
        <time>2022-05-27T13:01:27Z</time>
      </trkpt>
      <trkpt lat="48.03423" lon="6.86439">
        <ele>884.3</ele>
        <time>2022-05-27T13:01:32Z</time>
      </trkpt>
      <trkpt lat="48.03433" lon="6.86436">
        <ele>885.4</ele>
        <time>2022-05-27T13:01:39Z</time>
      </trkpt>
      <trkpt lat="48.03443" lon="6.86434">
        <ele>886.2</ele>
        <time>2022-05-27T13:01:44Z</time>
      </trkpt>
      <trkpt lat="48.03452" lon="6.86432">
        <ele>887.4</ele>
        <time>2022-05-27T13:01:51Z</time>
      </trkpt>
      <trkpt lat="48.03461" lon="6.86428">
        <ele>888.7</ele>
        <time>2022-05-27T13:01:59Z</time>
      </trkpt>
      <trkpt lat="48.03469" lon="6.8642">
        <ele>889.5</ele>
        <time>2022-05-27T13:02:05Z</time>
      </trkpt>
      <trkpt lat="48.03479" lon="6.86415">
        <ele>890.3</ele>
        <time>2022-05-27T13:02:10Z</time>
      </trkpt>
      <trkpt lat="48.03489" lon="6.86412">
        <ele>891</ele>
        <time>2022-05-27T13:02:16Z</time>
      </trkpt>
      <trkpt lat="48.03498" lon="6.86407">
        <ele>891.3</ele>
        <time>2022-05-27T13:02:21Z</time>
      </trkpt>
      <trkpt lat="48.03507" lon="6.86401">
        <ele>889.4</ele>
        <time>2022-05-27T13:02:26Z</time>
      </trkpt>
      <trkpt lat="48.03517" lon="6.86398">
        <ele>892.1</ele>
        <time>2022-05-27T13:02:32Z</time>
      </trkpt>
      <trkpt lat="48.03526" lon="6.86397">
        <ele>892.8</ele>
        <time>2022-05-27T13:02:37Z</time>
      </trkpt>
      <trkpt lat="48.03536" lon="6.86395">
        <ele>893.3</ele>
        <time>2022-05-27T13:02:45Z</time>
      </trkpt>
      <trkpt lat="48.03547" lon="6.86398">
        <ele>894.3</ele>
        <time>2022-05-27T13:02:50Z</time>
      </trkpt>
      <trkpt lat="48.03558" lon="6.86395">
        <ele>895.4</ele>
        <time>2022-05-27T13:02:54Z</time>
      </trkpt>
      <trkpt lat="48.03568" lon="6.86393">
        <ele>896.5</ele>
        <time>2022-05-27T13:03:01Z</time>
      </trkpt>
      <trkpt lat="48.03577" lon="6.86391">
        <ele>896.8</ele>
        <time>2022-05-27T13:03:08Z</time>
      </trkpt>
      <trkpt lat="48.03587" lon="6.86388">
        <ele>898</ele>
        <time>2022-05-27T13:03:14Z</time>
      </trkpt>
      <trkpt lat="48.03597" lon="6.86387">
        <ele>898.8</ele>
        <time>2022-05-27T13:03:20Z</time>
      </trkpt>
      <trkpt lat="48.03607" lon="6.86388">
        <ele>900.2</ele>
        <time>2022-05-27T13:03:25Z</time>
      </trkpt>
      <trkpt lat="48.03616" lon="6.86385">
        <ele>899.9</ele>
        <time>2022-05-27T13:03:31Z</time>
      </trkpt>
      <trkpt lat="48.03626" lon="6.86386">
        <ele>901.8</ele>
        <time>2022-05-27T13:03:38Z</time>
      </trkpt>
      <trkpt lat="48.03635" lon="6.86387">
        <ele>902.6</ele>
        <time>2022-05-27T13:03:45Z</time>
      </trkpt>
      <trkpt lat="48.03645" lon="6.86385">
        <ele>902.9</ele>
        <time>2022-05-27T13:03:51Z</time>
      </trkpt>
      <trkpt lat="48.03655" lon="6.86387">
        <ele>904</ele>
        <time>2022-05-27T13:03:57Z</time>
      </trkpt>
      <trkpt lat="48.03663" lon="6.86394">
        <ele>905.3</ele>
        <time>2022-05-27T13:04:02Z</time>
      </trkpt>
      <trkpt lat="48.03669" lon="6.86404">
        <ele>905.6</ele>
        <time>2022-05-27T13:04:09Z</time>
      </trkpt>
      <trkpt lat="48.0367" lon="6.86404">
        <ele>905.4</ele>
        <time>2022-05-27T13:04:14Z</time>
      </trkpt>
      <trkpt lat="48.0367" lon="6.86404">
        <ele>905.4</ele>
        <time>2022-05-27T13:04:15Z</time>
      </trkpt>
      <trkpt lat="48.03671" lon="6.86404">
        <ele>905.4</ele>
        <time>2022-05-27T13:04:23Z</time>
      </trkpt>
      <trkpt lat="48.03671" lon="6.86404">
        <ele>905.7</ele>
        <time>2022-05-27T13:04:26Z</time>
      </trkpt>
      <trkpt lat="48.03671" lon="6.86404">
        <ele>905.5</ele>
        <time>2022-05-27T13:04:59Z</time>
      </trkpt>
      <trkpt lat="48.03671" lon="6.86404">
        <ele>905.9</ele>
        <time>2022-05-27T13:05:42Z</time>
      </trkpt>
      <trkpt lat="48.03672" lon="6.86404">
        <ele>905.9</ele>
        <time>2022-05-27T13:05:45Z</time>
      </trkpt>
      <trkpt lat="48.03673" lon="6.86406">
        <ele>905.8</ele>
        <time>2022-05-27T13:05:54Z</time>
      </trkpt>
      <trkpt lat="48.03673" lon="6.86407">
        <ele>905.8</ele>
        <time>2022-05-27T13:05:58Z</time>
      </trkpt>
      <trkpt lat="48.03673" lon="6.86407">
        <ele>905.9</ele>
        <time>2022-05-27T13:06:11Z</time>
      </trkpt>
      <trkpt lat="48.03679" lon="6.86418">
        <ele>907.3</ele>
        <time>2022-05-27T13:06:19Z</time>
      </trkpt>
      <trkpt lat="48.03684" lon="6.86431">
        <ele>908.1</ele>
        <time>2022-05-27T13:06:25Z</time>
      </trkpt>
      <trkpt lat="48.03691" lon="6.86441">
        <ele>909</ele>
        <time>2022-05-27T13:06:31Z</time>
      </trkpt>
      <trkpt lat="48.03699" lon="6.86449">
        <ele>910.4</ele>
        <time>2022-05-27T13:06:37Z</time>
      </trkpt>
      <trkpt lat="48.03708" lon="6.86458">
        <ele>911.4</ele>
        <time>2022-05-27T13:06:45Z</time>
      </trkpt>
      <trkpt lat="48.03717" lon="6.86468">
        <ele>912.7</ele>
        <time>2022-05-27T13:06:50Z</time>
      </trkpt>
      <trkpt lat="48.03725" lon="6.86477">
        <ele>913.6</ele>
        <time>2022-05-27T13:06:56Z</time>
      </trkpt>
      <trkpt lat="48.03733" lon="6.86486">
        <ele>914.9</ele>
        <time>2022-05-27T13:07:02Z</time>
      </trkpt>
      <trkpt lat="48.0374" lon="6.86497">
        <ele>915.9</ele>
        <time>2022-05-27T13:07:08Z</time>
      </trkpt>
      <trkpt lat="48.03748" lon="6.86507">
        <ele>916.3</ele>
        <time>2022-05-27T13:07:14Z</time>
      </trkpt>
      <trkpt lat="48.03754" lon="6.86517">
        <ele>917.8</ele>
        <time>2022-05-27T13:07:19Z</time>
      </trkpt>
      <trkpt lat="48.03758" lon="6.86531">
        <ele>918.2</ele>
        <time>2022-05-27T13:07:25Z</time>
      </trkpt>
      <trkpt lat="48.03756" lon="6.86546">
        <ele>919.5</ele>
        <time>2022-05-27T13:07:30Z</time>
      </trkpt>
      <trkpt lat="48.03757" lon="6.86561">
        <ele>921.3</ele>
        <time>2022-05-27T13:07:35Z</time>
      </trkpt>
      <trkpt lat="48.03759" lon="6.86576">
        <ele>921.3</ele>
        <time>2022-05-27T13:07:39Z</time>
      </trkpt>
      <trkpt lat="48.03764" lon="6.86588">
        <ele>921.5</ele>
        <time>2022-05-27T13:07:43Z</time>
      </trkpt>
      <trkpt lat="48.03771" lon="6.86596">
        <ele>922.2</ele>
        <time>2022-05-27T13:07:47Z</time>
      </trkpt>
      <trkpt lat="48.03778" lon="6.86605">
        <ele>923.1</ele>
        <time>2022-05-27T13:07:51Z</time>
      </trkpt>
      <trkpt lat="48.03787" lon="6.86614">
        <ele>923.8</ele>
        <time>2022-05-27T13:07:55Z</time>
      </trkpt>
      <trkpt lat="48.03794" lon="6.86624">
        <ele>924.1</ele>
        <time>2022-05-27T13:07:59Z</time>
      </trkpt>
      <trkpt lat="48.038" lon="6.86636">
        <ele>925.7</ele>
        <time>2022-05-27T13:08:03Z</time>
      </trkpt>
      <trkpt lat="48.03801" lon="6.86653">
        <ele>926.5</ele>
        <time>2022-05-27T13:08:08Z</time>
      </trkpt>
      <trkpt lat="48.03797" lon="6.86669">
        <ele>926.5</ele>
        <time>2022-05-27T13:08:12Z</time>
      </trkpt>
      <trkpt lat="48.03793" lon="6.86683">
        <ele>927.9</ele>
        <time>2022-05-27T13:08:17Z</time>
      </trkpt>
      <trkpt lat="48.0379" lon="6.86699">
        <ele>928</ele>
        <time>2022-05-27T13:08:22Z</time>
      </trkpt>
      <trkpt lat="48.03793" lon="6.86712">
        <ele>929</ele>
        <time>2022-05-27T13:08:26Z</time>
      </trkpt>
      <trkpt lat="48.03796" lon="6.86725">
        <ele>929.5</ele>
        <time>2022-05-27T13:08:30Z</time>
      </trkpt>
      <trkpt lat="48.03797" lon="6.86741">
        <ele>931.1</ele>
        <time>2022-05-27T13:08:35Z</time>
      </trkpt>
      <trkpt lat="48.03797" lon="6.86757">
        <ele>931.5</ele>
        <time>2022-05-27T13:08:40Z</time>
      </trkpt>
      <trkpt lat="48.03792" lon="6.86771">
        <ele>932.2</ele>
        <time>2022-05-27T13:08:45Z</time>
      </trkpt>
      <trkpt lat="48.03783" lon="6.8678">
        <ele>933.3</ele>
        <time>2022-05-27T13:08:50Z</time>
      </trkpt>
      <trkpt lat="48.03774" lon="6.86788">
        <ele>933.8</ele>
        <time>2022-05-27T13:08:55Z</time>
      </trkpt>
      <trkpt lat="48.03764" lon="6.86796">
        <ele>934.5</ele>
        <time>2022-05-27T13:09:00Z</time>
      </trkpt>
      <trkpt lat="48.03756" lon="6.86802">
        <ele>934.9</ele>
        <time>2022-05-27T13:09:04Z</time>
      </trkpt>
      <trkpt lat="48.03749" lon="6.86811">
        <ele>935.1</ele>
        <time>2022-05-27T13:09:08Z</time>
      </trkpt>
      <trkpt lat="48.03742" lon="6.8682">
        <ele>937.1</ele>
        <time>2022-05-27T13:09:13Z</time>
      </trkpt>
      <trkpt lat="48.03733" lon="6.86827">
        <ele>937.6</ele>
        <time>2022-05-27T13:09:19Z</time>
      </trkpt>
      <trkpt lat="48.03725" lon="6.86836">
        <ele>938.1</ele>
        <time>2022-05-27T13:09:25Z</time>
      </trkpt>
      <trkpt lat="48.03726" lon="6.86835">
        <ele>938.5</ele>
        <time>2022-05-27T13:09:27Z</time>
      </trkpt>
      <trkpt lat="48.03725" lon="6.86836">
        <ele>938.7</ele>
        <time>2022-05-27T13:09:28Z</time>
      </trkpt>
      <trkpt lat="48.03721" lon="6.86849">
        <ele>938.9</ele>
        <time>2022-05-27T13:09:34Z</time>
      </trkpt>
      <trkpt lat="48.03718" lon="6.86864">
        <ele>940.7</ele>
        <time>2022-05-27T13:09:40Z</time>
      </trkpt>
      <trkpt lat="48.03712" lon="6.86878">
        <ele>940.2</ele>
        <time>2022-05-27T13:09:46Z</time>
      </trkpt>
      <trkpt lat="48.03707" lon="6.8689">
        <ele>940.8</ele>
        <time>2022-05-27T13:09:52Z</time>
      </trkpt>
      <trkpt lat="48.03699" lon="6.86899">
        <ele>941.7</ele>
        <time>2022-05-27T13:09:58Z</time>
      </trkpt>
      <trkpt lat="48.0369" lon="6.86904">
        <ele>943</ele>
        <time>2022-05-27T13:10:04Z</time>
      </trkpt>
      <trkpt lat="48.0368" lon="6.86909">
        <ele>943.4</ele>
        <time>2022-05-27T13:10:11Z</time>
      </trkpt>
      <trkpt lat="48.03672" lon="6.86915">
        <ele>944.5</ele>
        <time>2022-05-27T13:10:17Z</time>
      </trkpt>
      <trkpt lat="48.03663" lon="6.86922">
        <ele>945</ele>
        <time>2022-05-27T13:10:23Z</time>
      </trkpt>
      <trkpt lat="48.03656" lon="6.8693">
        <ele>946</ele>
        <time>2022-05-27T13:10:28Z</time>
      </trkpt>
      <trkpt lat="48.03648" lon="6.8694">
        <ele>947.3</ele>
        <time>2022-05-27T13:10:35Z</time>
      </trkpt>
      <trkpt lat="48.03641" lon="6.86952">
        <ele>947.3</ele>
        <time>2022-05-27T13:10:41Z</time>
      </trkpt>
      <trkpt lat="48.03637" lon="6.86964">
        <ele>947.7</ele>
        <time>2022-05-27T13:10:46Z</time>
      </trkpt>
      <trkpt lat="48.03635" lon="6.86977">
        <ele>948.3</ele>
        <time>2022-05-27T13:10:52Z</time>
      </trkpt>
      <trkpt lat="48.03636" lon="6.86992">
        <ele>949.6</ele>
        <time>2022-05-27T13:11:00Z</time>
      </trkpt>
      <trkpt lat="48.03638" lon="6.87006">
        <ele>949.6</ele>
        <time>2022-05-27T13:11:06Z</time>
      </trkpt>
      <trkpt lat="48.03641" lon="6.87021">
        <ele>950.9</ele>
        <time>2022-05-27T13:11:12Z</time>
      </trkpt>
      <trkpt lat="48.0364" lon="6.87035">
        <ele>951.2</ele>
        <time>2022-05-27T13:11:17Z</time>
      </trkpt>
      <trkpt lat="48.03636" lon="6.87048">
        <ele>951.5</ele>
        <time>2022-05-27T13:11:24Z</time>
      </trkpt>
      <trkpt lat="48.03629" lon="6.87058">
        <ele>952.2</ele>
        <time>2022-05-27T13:11:31Z</time>
      </trkpt>
      <trkpt lat="48.03625" lon="6.87072">
        <ele>953.3</ele>
        <time>2022-05-27T13:11:37Z</time>
      </trkpt>
      <trkpt lat="48.03622" lon="6.87085">
        <ele>954.1</ele>
        <time>2022-05-27T13:11:43Z</time>
      </trkpt>
      <trkpt lat="48.03624" lon="6.871">
        <ele>954.3</ele>
        <time>2022-05-27T13:11:49Z</time>
      </trkpt>
      <trkpt lat="48.03627" lon="6.87114">
        <ele>955.4</ele>
        <time>2022-05-27T13:11:57Z</time>
      </trkpt>
      <trkpt lat="48.03629" lon="6.87129">
        <ele>956.2</ele>
        <time>2022-05-27T13:12:04Z</time>
      </trkpt>
      <trkpt lat="48.03628" lon="6.87143">
        <ele>958.1</ele>
        <time>2022-05-27T13:12:10Z</time>
      </trkpt>
      <trkpt lat="48.03631" lon="6.87157">
        <ele>957.8</ele>
        <time>2022-05-27T13:12:16Z</time>
      </trkpt>
      <trkpt lat="48.0363" lon="6.87171">
        <ele>959.1</ele>
        <time>2022-05-27T13:12:21Z</time>
      </trkpt>
      <trkpt lat="48.03634" lon="6.87186">
        <ele>959.4</ele>
        <time>2022-05-27T13:12:26Z</time>
      </trkpt>
      <trkpt lat="48.03638" lon="6.872">
        <ele>959.8</ele>
        <time>2022-05-27T13:12:32Z</time>
      </trkpt>
      <trkpt lat="48.03642" lon="6.87213">
        <ele>961.7</ele>
        <time>2022-05-27T13:12:39Z</time>
      </trkpt>
      <trkpt lat="48.03649" lon="6.87223">
        <ele>961.9</ele>
        <time>2022-05-27T13:12:44Z</time>
      </trkpt>
      <trkpt lat="48.03655" lon="6.87234">
        <ele>962.2</ele>
        <time>2022-05-27T13:12:49Z</time>
      </trkpt>
      <trkpt lat="48.03658" lon="6.87247">
        <ele>962.4</ele>
        <time>2022-05-27T13:12:55Z</time>
      </trkpt>
      <trkpt lat="48.03663" lon="6.87258">
        <ele>963.8</ele>
        <time>2022-05-27T13:13:01Z</time>
      </trkpt>
      <trkpt lat="48.03666" lon="6.87273">
        <ele>964.4</ele>
        <time>2022-05-27T13:13:08Z</time>
      </trkpt>
      <trkpt lat="48.03667" lon="6.87287">
        <ele>965.6</ele>
        <time>2022-05-27T13:13:14Z</time>
      </trkpt>
      <trkpt lat="48.03663" lon="6.87301">
        <ele>966.6</ele>
        <time>2022-05-27T13:13:20Z</time>
      </trkpt>
      <trkpt lat="48.0366" lon="6.87314">
        <ele>967.2</ele>
        <time>2022-05-27T13:13:26Z</time>
      </trkpt>
      <trkpt lat="48.03657" lon="6.87328">
        <ele>967.8</ele>
        <time>2022-05-27T13:13:31Z</time>
      </trkpt>
      <trkpt lat="48.03653" lon="6.87342">
        <ele>968.6</ele>
        <time>2022-05-27T13:13:37Z</time>
      </trkpt>
      <trkpt lat="48.03648" lon="6.87356">
        <ele>969.9</ele>
        <time>2022-05-27T13:13:43Z</time>
      </trkpt>
      <trkpt lat="48.03644" lon="6.87368">
        <ele>970.9</ele>
        <time>2022-05-27T13:13:49Z</time>
      </trkpt>
      <trkpt lat="48.03637" lon="6.87379">
        <ele>972</ele>
        <time>2022-05-27T13:13:56Z</time>
      </trkpt>
      <trkpt lat="48.03631" lon="6.8739">
        <ele>973.6</ele>
        <time>2022-05-27T13:14:03Z</time>
      </trkpt>
      <trkpt lat="48.03623" lon="6.87397">
        <ele>974.7</ele>
        <time>2022-05-27T13:14:10Z</time>
      </trkpt>
      <trkpt lat="48.03613" lon="6.87401">
        <ele>976.2</ele>
        <time>2022-05-27T13:14:17Z</time>
      </trkpt>
      <trkpt lat="48.03604" lon="6.87404">
        <ele>977.4</ele>
        <time>2022-05-27T13:14:24Z</time>
      </trkpt>
      <trkpt lat="48.03594" lon="6.87403">
        <ele>978.8</ele>
        <time>2022-05-27T13:14:32Z</time>
      </trkpt>
      <trkpt lat="48.03586" lon="6.874">
        <ele>979.8</ele>
        <time>2022-05-27T13:14:40Z</time>
      </trkpt>
      <trkpt lat="48.03575" lon="6.87399">
        <ele>980.5</ele>
        <time>2022-05-27T13:14:48Z</time>
      </trkpt>
      <trkpt lat="48.03566" lon="6.87398">
        <ele>982.3</ele>
        <time>2022-05-27T13:14:56Z</time>
      </trkpt>
      <trkpt lat="48.03557" lon="6.87399">
        <ele>983.3</ele>
        <time>2022-05-27T13:15:05Z</time>
      </trkpt>
      <trkpt lat="48.03547" lon="6.87404">
        <ele>984.7</ele>
        <time>2022-05-27T13:15:12Z</time>
      </trkpt>
      <trkpt lat="48.03537" lon="6.87406">
        <ele>986</ele>
        <time>2022-05-27T13:15:20Z</time>
      </trkpt>
      <trkpt lat="48.03526" lon="6.87409">
        <ele>988.8</ele>
        <time>2022-05-27T13:15:26Z</time>
      </trkpt>
      <trkpt lat="48.03517" lon="6.87412">
        <ele>990.5</ele>
        <time>2022-05-27T13:15:31Z</time>
      </trkpt>
      <trkpt lat="48.03522" lon="6.87402">
        <ele>990.2</ele>
        <time>2022-05-27T13:15:43Z</time>
      </trkpt>
      <trkpt lat="48.03521" lon="6.87401">
        <ele>990</ele>
        <time>2022-05-27T13:16:18Z</time>
      </trkpt>
      <trkpt lat="48.03521" lon="6.87401">
        <ele>989.5</ele>
        <time>2022-05-27T13:16:20Z</time>
      </trkpt>
      <trkpt lat="48.03521" lon="6.87402">
        <ele>990.1</ele>
        <time>2022-05-27T13:17:54Z</time>
      </trkpt>
      <trkpt lat="48.03521" lon="6.87402">
        <ele>990</ele>
        <time>2022-05-27T13:18:09Z</time>
      </trkpt>
      <trkpt lat="48.03521" lon="6.87403">
        <ele>989.6</ele>
        <time>2022-05-27T13:19:46Z</time>
      </trkpt>
      <trkpt lat="48.03521" lon="6.87403">
        <ele>990.6</ele>
        <time>2022-05-27T13:20:19Z</time>
      </trkpt>
      <trkpt lat="48.03521" lon="6.87403">
        <ele>990.7</ele>
        <time>2022-05-27T13:20:35Z</time>
      </trkpt>
      <trkpt lat="48.03522" lon="6.87399">
        <ele>989.7</ele>
        <time>2022-05-27T13:20:42Z</time>
      </trkpt>
      <trkpt lat="48.03522" lon="6.87398">
        <ele>989.7</ele>
        <time>2022-05-27T13:22:50Z</time>
      </trkpt>
      <trkpt lat="48.03522" lon="6.87398">
        <ele>990</ele>
        <time>2022-05-27T13:23:39Z</time>
      </trkpt>
      <trkpt lat="48.03516" lon="6.87408">
        <ele>990.7</ele>
        <time>2022-05-27T13:23:48Z</time>
      </trkpt>
      <trkpt lat="48.03515" lon="6.87409">
        <ele>991.2</ele>
        <time>2022-05-27T13:23:50Z</time>
      </trkpt>
      <trkpt lat="48.03514" lon="6.8741">
        <ele>991.4</ele>
        <time>2022-05-27T13:24:21Z</time>
      </trkpt>
      <trkpt lat="48.03513" lon="6.8741">
        <ele>991.2</ele>
        <time>2022-05-27T13:24:42Z</time>
      </trkpt>
      <trkpt lat="48.03509" lon="6.87423">
        <ele>991.5</ele>
        <time>2022-05-27T13:24:48Z</time>
      </trkpt>
      <trkpt lat="48.03504" lon="6.87436">
        <ele>991.8</ele>
        <time>2022-05-27T13:24:52Z</time>
      </trkpt>
      <trkpt lat="48.035" lon="6.87452">
        <ele>992.3</ele>
        <time>2022-05-27T13:24:56Z</time>
      </trkpt>
      <trkpt lat="48.03495" lon="6.87468">
        <ele>992.6</ele>
        <time>2022-05-27T13:25:00Z</time>
      </trkpt>
      <trkpt lat="48.03491" lon="6.87482">
        <ele>994.1</ele>
        <time>2022-05-27T13:25:03Z</time>
      </trkpt>
      <trkpt lat="48.03485" lon="6.87493">
        <ele>993.3</ele>
        <time>2022-05-27T13:25:06Z</time>
      </trkpt>
      <trkpt lat="48.03477" lon="6.87502">
        <ele>994</ele>
        <time>2022-05-27T13:25:09Z</time>
      </trkpt>
      <trkpt lat="48.03469" lon="6.87507">
        <ele>993.8</ele>
        <time>2022-05-27T13:25:12Z</time>
      </trkpt>
      <trkpt lat="48.03459" lon="6.87511">
        <ele>994.6</ele>
        <time>2022-05-27T13:25:15Z</time>
      </trkpt>
      <trkpt lat="48.03449" lon="6.87518">
        <ele>994.7</ele>
        <time>2022-05-27T13:25:19Z</time>
      </trkpt>
      <trkpt lat="48.03439" lon="6.87525">
        <ele>993.9</ele>
        <time>2022-05-27T13:25:23Z</time>
      </trkpt>
      <trkpt lat="48.0343" lon="6.87531">
        <ele>994.3</ele>
        <time>2022-05-27T13:25:26Z</time>
      </trkpt>
      <trkpt lat="48.03421" lon="6.87539">
        <ele>994.6</ele>
        <time>2022-05-27T13:25:30Z</time>
      </trkpt>
      <trkpt lat="48.03411" lon="6.87545">
        <ele>995.7</ele>
        <time>2022-05-27T13:25:34Z</time>
      </trkpt>
      <trkpt lat="48.03401" lon="6.87548">
        <ele>995.6</ele>
        <time>2022-05-27T13:25:37Z</time>
      </trkpt>
      <trkpt lat="48.03388" lon="6.8755">
        <ele>994.1</ele>
        <time>2022-05-27T13:25:40Z</time>
      </trkpt>
      <trkpt lat="48.03377" lon="6.87552">
        <ele>995.6</ele>
        <time>2022-05-27T13:25:43Z</time>
      </trkpt>
      <trkpt lat="48.03369" lon="6.87557">
        <ele>995.7</ele>
        <time>2022-05-27T13:25:46Z</time>
      </trkpt>
      <trkpt lat="48.03361" lon="6.87567">
        <ele>996.3</ele>
        <time>2022-05-27T13:25:49Z</time>
      </trkpt>
      <trkpt lat="48.03354" lon="6.8758">
        <ele>997.1</ele>
        <time>2022-05-27T13:25:52Z</time>
      </trkpt>
      <trkpt lat="48.03348" lon="6.8759">
        <ele>998.2</ele>
        <time>2022-05-27T13:25:55Z</time>
      </trkpt>
      <trkpt lat="48.03341" lon="6.87603">
        <ele>998.3</ele>
        <time>2022-05-27T13:25:59Z</time>
      </trkpt>
      <trkpt lat="48.03335" lon="6.87615">
        <ele>998.1</ele>
        <time>2022-05-27T13:26:02Z</time>
      </trkpt>
      <trkpt lat="48.03333" lon="6.87631">
        <ele>998.1</ele>
        <time>2022-05-27T13:26:05Z</time>
      </trkpt>
      <trkpt lat="48.03336" lon="6.87647">
        <ele>997.4</ele>
        <time>2022-05-27T13:26:08Z</time>
      </trkpt>
      <trkpt lat="48.03341" lon="6.87661">
        <ele>999.3</ele>
        <time>2022-05-27T13:26:11Z</time>
      </trkpt>
      <trkpt lat="48.03345" lon="6.87677">
        <ele>998.7</ele>
        <time>2022-05-27T13:26:15Z</time>
      </trkpt>
      <trkpt lat="48.03345" lon="6.87693">
        <ele>1000.2</ele>
        <time>2022-05-27T13:26:19Z</time>
      </trkpt>
      <trkpt lat="48.03341" lon="6.87707">
        <ele>999.6</ele>
        <time>2022-05-27T13:26:23Z</time>
      </trkpt>
      <trkpt lat="48.03338" lon="6.8772">
        <ele>1001.1</ele>
        <time>2022-05-27T13:26:27Z</time>
      </trkpt>
      <trkpt lat="48.03333" lon="6.87734">
        <ele>1002.5</ele>
        <time>2022-05-27T13:26:31Z</time>
      </trkpt>
      <trkpt lat="48.03327" lon="6.87749">
        <ele>1002</ele>
        <time>2022-05-27T13:26:35Z</time>
      </trkpt>
      <trkpt lat="48.03322" lon="6.87763">
        <ele>1004.3</ele>
        <time>2022-05-27T13:26:39Z</time>
      </trkpt>
      <trkpt lat="48.03318" lon="6.87778">
        <ele>1004.1</ele>
        <time>2022-05-27T13:26:43Z</time>
      </trkpt>
      <trkpt lat="48.03313" lon="6.87793">
        <ele>1004.6</ele>
        <time>2022-05-27T13:26:47Z</time>
      </trkpt>
      <trkpt lat="48.03306" lon="6.87806">
        <ele>1006.1</ele>
        <time>2022-05-27T13:26:51Z</time>
      </trkpt>
      <trkpt lat="48.03301" lon="6.87819">
        <ele>1006.6</ele>
        <time>2022-05-27T13:26:55Z</time>
      </trkpt>
      <trkpt lat="48.03297" lon="6.87834">
        <ele>1006.6</ele>
        <time>2022-05-27T13:26:59Z</time>
      </trkpt>
      <trkpt lat="48.0329" lon="6.87846">
        <ele>1007.6</ele>
        <time>2022-05-27T13:27:04Z</time>
      </trkpt>
      <trkpt lat="48.03282" lon="6.87854">
        <ele>1008.5</ele>
        <time>2022-05-27T13:27:08Z</time>
      </trkpt>
      <trkpt lat="48.03274" lon="6.87864">
        <ele>1007.6</ele>
        <time>2022-05-27T13:27:11Z</time>
      </trkpt>
      <trkpt lat="48.03268" lon="6.87879">
        <ele>1010.4</ele>
        <time>2022-05-27T13:27:15Z</time>
      </trkpt>
      <trkpt lat="48.03263" lon="6.87894">
        <ele>1009.2</ele>
        <time>2022-05-27T13:27:19Z</time>
      </trkpt>
      <trkpt lat="48.03256" lon="6.87907">
        <ele>1010.3</ele>
        <time>2022-05-27T13:27:23Z</time>
      </trkpt>
      <trkpt lat="48.0325" lon="6.87922">
        <ele>1012</ele>
        <time>2022-05-27T13:27:27Z</time>
      </trkpt>
      <trkpt lat="48.03245" lon="6.87937">
        <ele>1011.9</ele>
        <time>2022-05-27T13:27:31Z</time>
      </trkpt>
      <trkpt lat="48.03239" lon="6.87951">
        <ele>1012.7</ele>
        <time>2022-05-27T13:27:35Z</time>
      </trkpt>
      <trkpt lat="48.03234" lon="6.87964">
        <ele>1014.4</ele>
        <time>2022-05-27T13:27:39Z</time>
      </trkpt>
      <trkpt lat="48.03228" lon="6.87977">
        <ele>1013.5</ele>
        <time>2022-05-27T13:27:43Z</time>
      </trkpt>
      <trkpt lat="48.03224" lon="6.87991">
        <ele>1012.2</ele>
        <time>2022-05-27T13:27:46Z</time>
      </trkpt>
      <trkpt lat="48.03221" lon="6.88011">
        <ele>1013.7</ele>
        <time>2022-05-27T13:27:49Z</time>
      </trkpt>
      <trkpt lat="48.03221" lon="6.88027">
        <ele>1010.9</ele>
        <time>2022-05-27T13:27:51Z</time>
      </trkpt>
      <trkpt lat="48.03223" lon="6.88044">
        <ele>1011.4</ele>
        <time>2022-05-27T13:27:53Z</time>
      </trkpt>
      <trkpt lat="48.03227" lon="6.8806">
        <ele>1012</ele>
        <time>2022-05-27T13:27:55Z</time>
      </trkpt>
      <trkpt lat="48.03229" lon="6.88078">
        <ele>1014.3</ele>
        <time>2022-05-27T13:27:58Z</time>
      </trkpt>
      <trkpt lat="48.03228" lon="6.88097">
        <ele>1010</ele>
        <time>2022-05-27T13:28:01Z</time>
      </trkpt>
      <trkpt lat="48.03224" lon="6.88111">
        <ele>1006</ele>
        <time>2022-05-27T13:28:03Z</time>
      </trkpt>
      <trkpt lat="48.03219" lon="6.88124">
        <ele>1004.9</ele>
        <time>2022-05-27T13:28:05Z</time>
      </trkpt>
      <trkpt lat="48.03212" lon="6.88136">
        <ele>1006.5</ele>
        <time>2022-05-27T13:28:07Z</time>
      </trkpt>
      <trkpt lat="48.03205" lon="6.88146">
        <ele>1006.3</ele>
        <time>2022-05-27T13:28:09Z</time>
      </trkpt>
      <trkpt lat="48.03195" lon="6.88157">
        <ele>1005.6</ele>
        <time>2022-05-27T13:28:11Z</time>
      </trkpt>
      <trkpt lat="48.03185" lon="6.88169">
        <ele>1005.6</ele>
        <time>2022-05-27T13:28:13Z</time>
      </trkpt>
      <trkpt lat="48.03178" lon="6.88189">
        <ele>1004.5</ele>
        <time>2022-05-27T13:28:15Z</time>
      </trkpt>
      <trkpt lat="48.03175" lon="6.8821">
        <ele>1003.4</ele>
        <time>2022-05-27T13:28:17Z</time>
      </trkpt>
      <trkpt lat="48.03174" lon="6.88231">
        <ele>1005.5</ele>
        <time>2022-05-27T13:28:19Z</time>
      </trkpt>
      <trkpt lat="48.03172" lon="6.8825">
        <ele>1004</ele>
        <time>2022-05-27T13:28:21Z</time>
      </trkpt>
      <trkpt lat="48.03168" lon="6.88266">
        <ele>1003.3</ele>
        <time>2022-05-27T13:28:23Z</time>
      </trkpt>
      <trkpt lat="48.03166" lon="6.88282">
        <ele>1006.1</ele>
        <time>2022-05-27T13:28:25Z</time>
      </trkpt>
      <trkpt lat="48.03163" lon="6.88296">
        <ele>1006.1</ele>
        <time>2022-05-27T13:28:27Z</time>
      </trkpt>
      <trkpt lat="48.03163" lon="6.8831">
        <ele>1008.1</ele>
        <time>2022-05-27T13:28:29Z</time>
      </trkpt>
      <trkpt lat="48.03167" lon="6.88323">
        <ele>1008.2</ele>
        <time>2022-05-27T13:28:31Z</time>
      </trkpt>
      <trkpt lat="48.03173" lon="6.88341">
        <ele>1009.7</ele>
        <time>2022-05-27T13:28:34Z</time>
      </trkpt>
      <trkpt lat="48.03177" lon="6.88353">
        <ele>1010.3</ele>
        <time>2022-05-27T13:28:36Z</time>
      </trkpt>
      <trkpt lat="48.03184" lon="6.8837">
        <ele>1009</ele>
        <time>2022-05-27T13:28:39Z</time>
      </trkpt>
      <trkpt lat="48.03192" lon="6.88384">
        <ele>1011.4</ele>
        <time>2022-05-27T13:28:42Z</time>
      </trkpt>
      <trkpt lat="48.03201" lon="6.88393">
        <ele>1011.8</ele>
        <time>2022-05-27T13:28:45Z</time>
      </trkpt>
      <trkpt lat="48.03208" lon="6.88403">
        <ele>1011.6</ele>
        <time>2022-05-27T13:28:48Z</time>
      </trkpt>
      <trkpt lat="48.03214" lon="6.88416">
        <ele>1012</ele>
        <time>2022-05-27T13:28:51Z</time>
      </trkpt>
      <trkpt lat="48.03216" lon="6.88432">
        <ele>1012</ele>
        <time>2022-05-27T13:28:54Z</time>
      </trkpt>
      <trkpt lat="48.03215" lon="6.88449">
        <ele>1014</ele>
        <time>2022-05-27T13:28:57Z</time>
      </trkpt>
      <trkpt lat="48.03213" lon="6.88465">
        <ele>1011.3</ele>
        <time>2022-05-27T13:29:00Z</time>
      </trkpt>
      <trkpt lat="48.03209" lon="6.8848">
        <ele>1012.3</ele>
        <time>2022-05-27T13:29:03Z</time>
      </trkpt>
      <trkpt lat="48.03212" lon="6.88498">
        <ele>1012.1</ele>
        <time>2022-05-27T13:29:06Z</time>
      </trkpt>
      <trkpt lat="48.03219" lon="6.88514">
        <ele>1012</ele>
        <time>2022-05-27T13:29:09Z</time>
      </trkpt>
      <trkpt lat="48.03228" lon="6.88529">
        <ele>1013.4</ele>
        <time>2022-05-27T13:29:12Z</time>
      </trkpt>
      <trkpt lat="48.03236" lon="6.8854">
        <ele>1012.2</ele>
        <time>2022-05-27T13:29:15Z</time>
      </trkpt>
      <trkpt lat="48.03245" lon="6.88549">
        <ele>1014.6</ele>
        <time>2022-05-27T13:29:18Z</time>
      </trkpt>
      <trkpt lat="48.03258" lon="6.88556">
        <ele>1012.6</ele>
        <time>2022-05-27T13:29:21Z</time>
      </trkpt>
      <trkpt lat="48.03268" lon="6.88559">
        <ele>1013.8</ele>
        <time>2022-05-27T13:29:24Z</time>
      </trkpt>
      <trkpt lat="48.03279" lon="6.8856">
        <ele>1014.4</ele>
        <time>2022-05-27T13:29:28Z</time>
      </trkpt>
      <trkpt lat="48.03291" lon="6.88562">
        <ele>1016.1</ele>
        <time>2022-05-27T13:29:32Z</time>
      </trkpt>
      <trkpt lat="48.03301" lon="6.88567">
        <ele>1018.7</ele>
        <time>2022-05-27T13:29:35Z</time>
      </trkpt>
      <trkpt lat="48.03312" lon="6.88576">
        <ele>1017.8</ele>
        <time>2022-05-27T13:29:38Z</time>
      </trkpt>
      <trkpt lat="48.03319" lon="6.8859">
        <ele>1018</ele>
        <time>2022-05-27T13:29:41Z</time>
      </trkpt>
      <trkpt lat="48.03327" lon="6.88605">
        <ele>1019</ele>
        <time>2022-05-27T13:29:44Z</time>
      </trkpt>
      <trkpt lat="48.03336" lon="6.88617">
        <ele>1018.2</ele>
        <time>2022-05-27T13:29:47Z</time>
      </trkpt>
      <trkpt lat="48.03345" lon="6.88625">
        <ele>1020.4</ele>
        <time>2022-05-27T13:29:50Z</time>
      </trkpt>
      <trkpt lat="48.03353" lon="6.88635">
        <ele>1021.9</ele>
        <time>2022-05-27T13:29:53Z</time>
      </trkpt>
      <trkpt lat="48.0336" lon="6.88648">
        <ele>1020.8</ele>
        <time>2022-05-27T13:29:57Z</time>
      </trkpt>
      <trkpt lat="48.03366" lon="6.88663">
        <ele>1022</ele>
        <time>2022-05-27T13:30:01Z</time>
      </trkpt>
      <trkpt lat="48.03373" lon="6.88677">
        <ele>1021</ele>
        <time>2022-05-27T13:30:05Z</time>
      </trkpt>
      <trkpt lat="48.03377" lon="6.88689">
        <ele>1021.9</ele>
        <time>2022-05-27T13:30:08Z</time>
      </trkpt>
      <trkpt lat="48.03381" lon="6.88702">
        <ele>1023.2</ele>
        <time>2022-05-27T13:30:11Z</time>
      </trkpt>
      <trkpt lat="48.03384" lon="6.88719">
        <ele>1023.3</ele>
        <time>2022-05-27T13:30:15Z</time>
      </trkpt>
      <trkpt lat="48.03386" lon="6.88736">
        <ele>1024.3</ele>
        <time>2022-05-27T13:30:19Z</time>
      </trkpt>
      <trkpt lat="48.0339" lon="6.88748">
        <ele>1025.2</ele>
        <time>2022-05-27T13:30:22Z</time>
      </trkpt>
      <trkpt lat="48.03396" lon="6.88761">
        <ele>1025.9</ele>
        <time>2022-05-27T13:30:25Z</time>
      </trkpt>
      <trkpt lat="48.03405" lon="6.88772">
        <ele>1025.2</ele>
        <time>2022-05-27T13:30:28Z</time>
      </trkpt>
      <trkpt lat="48.03413" lon="6.88779">
        <ele>1025.3</ele>
        <time>2022-05-27T13:30:31Z</time>
      </trkpt>
      <trkpt lat="48.03422" lon="6.88783">
        <ele>1027.2</ele>
        <time>2022-05-27T13:30:34Z</time>
      </trkpt>
      <trkpt lat="48.03432" lon="6.88787">
        <ele>1025.9</ele>
        <time>2022-05-27T13:30:37Z</time>
      </trkpt>
      <trkpt lat="48.03442" lon="6.88792">
        <ele>1025.9</ele>
        <time>2022-05-27T13:30:40Z</time>
      </trkpt>
      <trkpt lat="48.03453" lon="6.88801">
        <ele>1028.1</ele>
        <time>2022-05-27T13:30:43Z</time>
      </trkpt>
      <trkpt lat="48.03465" lon="6.8881">
        <ele>1026.7</ele>
        <time>2022-05-27T13:30:46Z</time>
      </trkpt>
      <trkpt lat="48.03476" lon="6.88822">
        <ele>1027.2</ele>
        <time>2022-05-27T13:30:49Z</time>
      </trkpt>
      <trkpt lat="48.03487" lon="6.88832">
        <ele>1026.7</ele>
        <time>2022-05-27T13:30:52Z</time>
      </trkpt>
      <trkpt lat="48.03497" lon="6.88842">
        <ele>1026</ele>
        <time>2022-05-27T13:30:55Z</time>
      </trkpt>
      <trkpt lat="48.03507" lon="6.88852">
        <ele>1028.1</ele>
        <time>2022-05-27T13:30:58Z</time>
      </trkpt>
      <trkpt lat="48.03517" lon="6.88863">
        <ele>1027.5</ele>
        <time>2022-05-27T13:31:01Z</time>
      </trkpt>
      <trkpt lat="48.03528" lon="6.88872">
        <ele>1029.4</ele>
        <time>2022-05-27T13:31:04Z</time>
      </trkpt>
      <trkpt lat="48.0354" lon="6.88883">
        <ele>1029.1</ele>
        <time>2022-05-27T13:31:07Z</time>
      </trkpt>
      <trkpt lat="48.03546" lon="6.88892">
        <ele>1030.6</ele>
        <time>2022-05-27T13:31:09Z</time>
      </trkpt>
      <trkpt lat="48.03554" lon="6.88908">
        <ele>1030.4</ele>
        <time>2022-05-27T13:31:12Z</time>
      </trkpt>
      <trkpt lat="48.03557" lon="6.88926">
        <ele>1029.6</ele>
        <time>2022-05-27T13:31:15Z</time>
      </trkpt>
      <trkpt lat="48.03557" lon="6.88946">
        <ele>1029.5</ele>
        <time>2022-05-27T13:31:18Z</time>
      </trkpt>
      <trkpt lat="48.03552" lon="6.88962">
        <ele>1028.7</ele>
        <time>2022-05-27T13:31:21Z</time>
      </trkpt>
      <trkpt lat="48.03546" lon="6.88977">
        <ele>1031</ele>
        <time>2022-05-27T13:31:24Z</time>
      </trkpt>
      <trkpt lat="48.03538" lon="6.88992">
        <ele>1030.9</ele>
        <time>2022-05-27T13:31:27Z</time>
      </trkpt>
      <trkpt lat="48.03533" lon="6.89004">
        <ele>1030.4</ele>
        <time>2022-05-27T13:31:29Z</time>
      </trkpt>
      <trkpt lat="48.03526" lon="6.89016">
        <ele>1030.3</ele>
        <time>2022-05-27T13:31:31Z</time>
      </trkpt>
      <trkpt lat="48.03519" lon="6.89026">
        <ele>1031.2</ele>
        <time>2022-05-27T13:31:33Z</time>
      </trkpt>
      <trkpt lat="48.0351" lon="6.89039">
        <ele>1030.4</ele>
        <time>2022-05-27T13:31:36Z</time>
      </trkpt>
      <trkpt lat="48.03505" lon="6.89053">
        <ele>1030.1</ele>
        <time>2022-05-27T13:31:38Z</time>
      </trkpt>
      <trkpt lat="48.03503" lon="6.89069">
        <ele>1030.9</ele>
        <time>2022-05-27T13:31:40Z</time>
      </trkpt>
      <trkpt lat="48.035" lon="6.89084">
        <ele>1031.3</ele>
        <time>2022-05-27T13:31:42Z</time>
      </trkpt>
      <trkpt lat="48.03496" lon="6.89098">
        <ele>1032.9</ele>
        <time>2022-05-27T13:31:44Z</time>
      </trkpt>
      <trkpt lat="48.03495" lon="6.89113">
        <ele>1030.4</ele>
        <time>2022-05-27T13:31:46Z</time>
      </trkpt>
      <trkpt lat="48.03501" lon="6.8913">
        <ele>1034.3</ele>
        <time>2022-05-27T13:31:49Z</time>
      </trkpt>
      <trkpt lat="48.03511" lon="6.89143">
        <ele>1033.2</ele>
        <time>2022-05-27T13:31:52Z</time>
      </trkpt>
      <trkpt lat="48.0352" lon="6.89158">
        <ele>1035.7</ele>
        <time>2022-05-27T13:31:55Z</time>
      </trkpt>
      <trkpt lat="48.03524" lon="6.89172">
        <ele>1031.3</ele>
        <time>2022-05-27T13:31:57Z</time>
      </trkpt>
      <trkpt lat="48.03524" lon="6.89187">
        <ele>1031.8</ele>
        <time>2022-05-27T13:31:59Z</time>
      </trkpt>
      <trkpt lat="48.03524" lon="6.89201">
        <ele>1032</ele>
        <time>2022-05-27T13:32:01Z</time>
      </trkpt>
      <trkpt lat="48.03525" lon="6.89216">
        <ele>1031.9</ele>
        <time>2022-05-27T13:32:03Z</time>
      </trkpt>
      <trkpt lat="48.03522" lon="6.89232">
        <ele>1032.6</ele>
        <time>2022-05-27T13:32:05Z</time>
      </trkpt>
      <trkpt lat="48.03519" lon="6.89247">
        <ele>1031.5</ele>
        <time>2022-05-27T13:32:07Z</time>
      </trkpt>
      <trkpt lat="48.03519" lon="6.89263">
        <ele>1031.8</ele>
        <time>2022-05-27T13:32:09Z</time>
      </trkpt>
      <trkpt lat="48.0352" lon="6.89277">
        <ele>1033</ele>
        <time>2022-05-27T13:32:11Z</time>
      </trkpt>
      <trkpt lat="48.03519" lon="6.89291">
        <ele>1032.6</ele>
        <time>2022-05-27T13:32:13Z</time>
      </trkpt>
      <trkpt lat="48.03518" lon="6.89309">
        <ele>1034.4</ele>
        <time>2022-05-27T13:32:16Z</time>
      </trkpt>
      <trkpt lat="48.03525" lon="6.89319">
        <ele>1033.4</ele>
        <time>2022-05-27T13:32:19Z</time>
      </trkpt>
      <trkpt lat="48.03536" lon="6.89317">
        <ele>1032.2</ele>
        <time>2022-05-27T13:32:22Z</time>
      </trkpt>
      <trkpt lat="48.03546" lon="6.89314">
        <ele>1033.2</ele>
        <time>2022-05-27T13:32:24Z</time>
      </trkpt>
      <trkpt lat="48.03556" lon="6.89312">
        <ele>1035.5</ele>
        <time>2022-05-27T13:32:26Z</time>
      </trkpt>
      <trkpt lat="48.03565" lon="6.89311">
        <ele>1034.6</ele>
        <time>2022-05-27T13:32:28Z</time>
      </trkpt>
      <trkpt lat="48.03575" lon="6.89308">
        <ele>1032.7</ele>
        <time>2022-05-27T13:32:30Z</time>
      </trkpt>
      <trkpt lat="48.03583" lon="6.89303">
        <ele>1033</ele>
        <time>2022-05-27T13:32:32Z</time>
      </trkpt>
      <trkpt lat="48.03592" lon="6.89298">
        <ele>1034</ele>
        <time>2022-05-27T13:32:34Z</time>
      </trkpt>
      <trkpt lat="48.03602" lon="6.89294">
        <ele>1032.7</ele>
        <time>2022-05-27T13:32:36Z</time>
      </trkpt>
      <trkpt lat="48.03612" lon="6.8929">
        <ele>1034.3</ele>
        <time>2022-05-27T13:32:38Z</time>
      </trkpt>
      <trkpt lat="48.03622" lon="6.89286">
        <ele>1035.3</ele>
        <time>2022-05-27T13:32:40Z</time>
      </trkpt>
      <trkpt lat="48.03633" lon="6.89283">
        <ele>1033.2</ele>
        <time>2022-05-27T13:32:42Z</time>
      </trkpt>
      <trkpt lat="48.03647" lon="6.89283">
        <ele>1035.8</ele>
        <time>2022-05-27T13:32:44Z</time>
      </trkpt>
      <trkpt lat="48.03659" lon="6.89285">
        <ele>1035.3</ele>
        <time>2022-05-27T13:32:46Z</time>
      </trkpt>
      <trkpt lat="48.03672" lon="6.89292">
        <ele>1031.6</ele>
        <time>2022-05-27T13:32:48Z</time>
      </trkpt>
      <trkpt lat="48.03684" lon="6.89297">
        <ele>1031.6</ele>
        <time>2022-05-27T13:32:50Z</time>
      </trkpt>
      <trkpt lat="48.03695" lon="6.893">
        <ele>1032.3</ele>
        <time>2022-05-27T13:32:52Z</time>
      </trkpt>
      <trkpt lat="48.03707" lon="6.89302">
        <ele>1033.5</ele>
        <time>2022-05-27T13:32:54Z</time>
      </trkpt>
      <trkpt lat="48.03719" lon="6.89308">
        <ele>1033.6</ele>
        <time>2022-05-27T13:32:56Z</time>
      </trkpt>
      <trkpt lat="48.03731" lon="6.89317">
        <ele>1034.2</ele>
        <time>2022-05-27T13:32:58Z</time>
      </trkpt>
      <trkpt lat="48.03743" lon="6.89326">
        <ele>1038.3</ele>
        <time>2022-05-27T13:33:00Z</time>
      </trkpt>
      <trkpt lat="48.03755" lon="6.89334">
        <ele>1032.4</ele>
        <time>2022-05-27T13:33:02Z</time>
      </trkpt>
      <trkpt lat="48.03767" lon="6.89341">
        <ele>1031.3</ele>
        <time>2022-05-27T13:33:04Z</time>
      </trkpt>
      <trkpt lat="48.03781" lon="6.89347">
        <ele>1030.7</ele>
        <time>2022-05-27T13:33:06Z</time>
      </trkpt>
      <trkpt lat="48.03794" lon="6.89351">
        <ele>1030.3</ele>
        <time>2022-05-27T13:33:08Z</time>
      </trkpt>
      <trkpt lat="48.03806" lon="6.89355">
        <ele>1032.5</ele>
        <time>2022-05-27T13:33:10Z</time>
      </trkpt>
      <trkpt lat="48.03818" lon="6.89358">
        <ele>1032.3</ele>
        <time>2022-05-27T13:33:12Z</time>
      </trkpt>
      <trkpt lat="48.03829" lon="6.89367">
        <ele>1032.8</ele>
        <time>2022-05-27T13:33:14Z</time>
      </trkpt>
      <trkpt lat="48.03836" lon="6.8938">
        <ele>1034.7</ele>
        <time>2022-05-27T13:33:16Z</time>
      </trkpt>
      <trkpt lat="48.03836" lon="6.89397">
        <ele>1036</ele>
        <time>2022-05-27T13:33:18Z</time>
      </trkpt>
      <trkpt lat="48.0383" lon="6.89411">
        <ele>1035.2</ele>
        <time>2022-05-27T13:33:20Z</time>
      </trkpt>
      <trkpt lat="48.03822" lon="6.89424">
        <ele>1036</ele>
        <time>2022-05-27T13:33:22Z</time>
      </trkpt>
      <trkpt lat="48.03816" lon="6.89438">
        <ele>1036.2</ele>
        <time>2022-05-27T13:33:24Z</time>
      </trkpt>
      <trkpt lat="48.0381" lon="6.89452">
        <ele>1036.9</ele>
        <time>2022-05-27T13:33:26Z</time>
      </trkpt>
      <trkpt lat="48.03806" lon="6.89468">
        <ele>1037.2</ele>
        <time>2022-05-27T13:33:28Z</time>
      </trkpt>
      <trkpt lat="48.03801" lon="6.89484">
        <ele>1036.7</ele>
        <time>2022-05-27T13:33:30Z</time>
      </trkpt>
      <trkpt lat="48.03793" lon="6.89496">
        <ele>1036.8</ele>
        <time>2022-05-27T13:33:32Z</time>
      </trkpt>
      <trkpt lat="48.03785" lon="6.89506">
        <ele>1036.2</ele>
        <time>2022-05-27T13:33:34Z</time>
      </trkpt>
      <trkpt lat="48.03777" lon="6.89516">
        <ele>1036.6</ele>
        <time>2022-05-27T13:33:36Z</time>
      </trkpt>
      <trkpt lat="48.0377" lon="6.89527">
        <ele>1037.1</ele>
        <time>2022-05-27T13:33:38Z</time>
      </trkpt>
      <trkpt lat="48.03764" lon="6.89538">
        <ele>1039.7</ele>
        <time>2022-05-27T13:33:40Z</time>
      </trkpt>
      <trkpt lat="48.03759" lon="6.8955">
        <ele>1040.7</ele>
        <time>2022-05-27T13:33:42Z</time>
      </trkpt>
      <trkpt lat="48.03751" lon="6.89567">
        <ele>1038.6</ele>
        <time>2022-05-27T13:33:45Z</time>
      </trkpt>
      <trkpt lat="48.03746" lon="6.89579">
        <ele>1039.3</ele>
        <time>2022-05-27T13:33:47Z</time>
      </trkpt>
      <trkpt lat="48.03741" lon="6.89591">
        <ele>1040</ele>
        <time>2022-05-27T13:33:49Z</time>
      </trkpt>
      <trkpt lat="48.03735" lon="6.89602">
        <ele>1040.8</ele>
        <time>2022-05-27T13:33:51Z</time>
      </trkpt>
      <trkpt lat="48.0373" lon="6.89617">
        <ele>1038.6</ele>
        <time>2022-05-27T13:33:54Z</time>
      </trkpt>
      <trkpt lat="48.03725" lon="6.8963">
        <ele>1039.7</ele>
        <time>2022-05-27T13:33:57Z</time>
      </trkpt>
      <trkpt lat="48.0372" lon="6.89643">
        <ele>1038.5</ele>
        <time>2022-05-27T13:34:00Z</time>
      </trkpt>
      <trkpt lat="48.03716" lon="6.89655">
        <ele>1039.8</ele>
        <time>2022-05-27T13:34:03Z</time>
      </trkpt>
      <trkpt lat="48.03709" lon="6.89668">
        <ele>1040.7</ele>
        <time>2022-05-27T13:34:07Z</time>
      </trkpt>
      <trkpt lat="48.03702" lon="6.89679">
        <ele>1040.8</ele>
        <time>2022-05-27T13:34:11Z</time>
      </trkpt>
      <trkpt lat="48.03694" lon="6.89689">
        <ele>1041.5</ele>
        <time>2022-05-27T13:34:16Z</time>
      </trkpt>
      <trkpt lat="48.03692" lon="6.89704">
        <ele>1041.2</ele>
        <time>2022-05-27T13:34:22Z</time>
      </trkpt>
      <trkpt lat="48.03699" lon="6.89715">
        <ele>1041.7</ele>
        <time>2022-05-27T13:34:26Z</time>
      </trkpt>
      <trkpt lat="48.03703" lon="6.89716">
        <ele>1040.9</ele>
        <time>2022-05-27T13:34:31Z</time>
      </trkpt>
      <trkpt lat="48.03703" lon="6.89716">
        <ele>1041.8</ele>
        <time>2022-05-27T13:34:55Z</time>
      </trkpt>
      <trkpt lat="48.03702" lon="6.89715">
        <ele>1040.7</ele>
        <time>2022-05-27T13:34:58Z</time>
      </trkpt>
      <trkpt lat="48.03701" lon="6.89714">
        <ele>1041.7</ele>
        <time>2022-05-27T13:35:26Z</time>
      </trkpt>
      <trkpt lat="48.037" lon="6.89705">
        <ele>1041.3</ele>
        <time>2022-05-27T13:35:34Z</time>
      </trkpt>
      <trkpt lat="48.037" lon="6.89705">
        <ele>1041.9</ele>
        <time>2022-05-27T13:35:40Z</time>
      </trkpt>
      <trkpt lat="48.037" lon="6.89705">
        <ele>1041.6</ele>
        <time>2022-05-27T13:36:55Z</time>
      </trkpt>
      <trkpt lat="48.03701" lon="6.89713">
        <ele>1041.3</ele>
        <time>2022-05-27T13:37:06Z</time>
      </trkpt>
      <trkpt lat="48.03701" lon="6.89713">
        <ele>1041.7</ele>
        <time>2022-05-27T13:37:15Z</time>
      </trkpt>
      <trkpt lat="48.03696" lon="6.89714">
        <ele>1041.5</ele>
        <time>2022-05-27T13:37:26Z</time>
      </trkpt>
      <trkpt lat="48.03696" lon="6.89714">
        <ele>1041.3</ele>
        <time>2022-05-27T13:37:39Z</time>
      </trkpt>
      <trkpt lat="48.03697" lon="6.8971">
        <ele>1040.9</ele>
        <time>2022-05-27T13:37:45Z</time>
      </trkpt>
      <trkpt lat="48.03697" lon="6.89709">
        <ele>1041</ele>
        <time>2022-05-27T13:37:46Z</time>
      </trkpt>
      <trkpt lat="48.03698" lon="6.89709">
        <ele>1041.1</ele>
        <time>2022-05-27T13:37:52Z</time>
      </trkpt>
      <trkpt lat="48.03697" lon="6.89709">
        <ele>1041.1</ele>
        <time>2022-05-27T13:37:53Z</time>
      </trkpt>
      <trkpt lat="48.03696" lon="6.89709">
        <ele>1041.3</ele>
        <time>2022-05-27T13:37:56Z</time>
      </trkpt>
      <trkpt lat="48.03697" lon="6.89708">
        <ele>1041.2</ele>
        <time>2022-05-27T13:38:01Z</time>
      </trkpt>
      <trkpt lat="48.03697" lon="6.89706">
        <ele>1041</ele>
        <time>2022-05-27T13:38:03Z</time>
      </trkpt>
      <trkpt lat="48.03692" lon="6.89703">
        <ele>1040.9</ele>
        <time>2022-05-27T13:38:35Z</time>
      </trkpt>
      <trkpt lat="48.03692" lon="6.89704">
        <ele>1041</ele>
        <time>2022-05-27T13:38:36Z</time>
      </trkpt>
      <trkpt lat="48.03691" lon="6.89705">
        <ele>1041.1</ele>
        <time>2022-05-27T13:38:41Z</time>
      </trkpt>
      <trkpt lat="48.03692" lon="6.89706">
        <ele>1041</ele>
        <time>2022-05-27T13:38:44Z</time>
      </trkpt>
      <trkpt lat="48.03694" lon="6.89701">
        <ele>1041.1</ele>
        <time>2022-05-27T13:39:00Z</time>
      </trkpt>
      <trkpt lat="48.03695" lon="6.89699">
        <ele>1041.2</ele>
        <time>2022-05-27T13:39:07Z</time>
      </trkpt>
      <trkpt lat="48.03695" lon="6.89699">
        <ele>1041.2</ele>
        <time>2022-05-27T13:39:09Z</time>
      </trkpt>
      <trkpt lat="48.03694" lon="6.89697">
        <ele>1041</ele>
        <time>2022-05-27T13:39:11Z</time>
      </trkpt>
      <trkpt lat="48.03695" lon="6.89698">
        <ele>1041</ele>
        <time>2022-05-27T13:39:13Z</time>
      </trkpt>
      <trkpt lat="48.03695" lon="6.89699">
        <ele>1040.8</ele>
        <time>2022-05-27T13:39:28Z</time>
      </trkpt>
      <trkpt lat="48.03695" lon="6.89699">
        <ele>1040.9</ele>
        <time>2022-05-27T13:39:30Z</time>
      </trkpt>
      <trkpt lat="48.03695" lon="6.897">
        <ele>1040.7</ele>
        <time>2022-05-27T13:39:33Z</time>
      </trkpt>
      <trkpt lat="48.03695" lon="6.897">
        <ele>1040.4</ele>
        <time>2022-05-27T13:39:44Z</time>
      </trkpt>
      <trkpt lat="48.03695" lon="6.897">
        <ele>1040.3</ele>
        <time>2022-05-27T13:40:38Z</time>
      </trkpt>
      <trkpt lat="48.03695" lon="6.89701">
        <ele>1040.7</ele>
        <time>2022-05-27T13:40:44Z</time>
      </trkpt>
      <trkpt lat="48.03696" lon="6.89703">
        <ele>1040.6</ele>
        <time>2022-05-27T13:41:17Z</time>
      </trkpt>
      <trkpt lat="48.03696" lon="6.89704">
        <ele>1040.8</ele>
        <time>2022-05-27T13:41:30Z</time>
      </trkpt>
      <trkpt lat="48.03696" lon="6.89704">
        <ele>1040.9</ele>
        <time>2022-05-27T13:41:39Z</time>
      </trkpt>
      <trkpt lat="48.03697" lon="6.89704">
        <ele>1040.8</ele>
        <time>2022-05-27T13:41:43Z</time>
      </trkpt>
      <trkpt lat="48.03697" lon="6.89704">
        <ele>1040.9</ele>
        <time>2022-05-27T13:41:46Z</time>
      </trkpt>
      <trkpt lat="48.03697" lon="6.89704">
        <ele>1040.5</ele>
        <time>2022-05-27T13:44:44Z</time>
      </trkpt>
      <trkpt lat="48.03697" lon="6.89704">
        <ele>1040.8</ele>
        <time>2022-05-27T13:44:46Z</time>
      </trkpt>
      <trkpt lat="48.03698" lon="6.89705">
        <ele>1040.7</ele>
        <time>2022-05-27T13:44:49Z</time>
      </trkpt>
      <trkpt lat="48.03701" lon="6.89704">
        <ele>1040.5</ele>
        <time>2022-05-27T13:45:03Z</time>
      </trkpt>
      <trkpt lat="48.037" lon="6.89704">
        <ele>1040.3</ele>
        <time>2022-05-27T13:45:29Z</time>
      </trkpt>
      <trkpt lat="48.037" lon="6.89703">
        <ele>1040.7</ele>
        <time>2022-05-27T13:46:45Z</time>
      </trkpt>
      <trkpt lat="48.037" lon="6.897">
        <ele>1040.9</ele>
        <time>2022-05-27T13:46:50Z</time>
      </trkpt>
      <trkpt lat="48.03701" lon="6.897">
        <ele>1041.1</ele>
        <time>2022-05-27T13:46:53Z</time>
      </trkpt>
      <trkpt lat="48.037" lon="6.897">
        <ele>1041.1</ele>
        <time>2022-05-27T13:46:55Z</time>
      </trkpt>
      <trkpt lat="48.03701" lon="6.897">
        <ele>1041.4</ele>
        <time>2022-05-27T13:47:04Z</time>
      </trkpt>
      <trkpt lat="48.037" lon="6.897">
        <ele>1041.4</ele>
        <time>2022-05-27T13:47:09Z</time>
      </trkpt>
      <trkpt lat="48.03701" lon="6.897">
        <ele>1041.1</ele>
        <time>2022-05-27T13:47:12Z</time>
      </trkpt>
      <trkpt lat="48.03703" lon="6.89707">
        <ele>1041</ele>
        <time>2022-05-27T13:47:33Z</time>
      </trkpt>
      <trkpt lat="48.03703" lon="6.89707">
        <ele>1040.9</ele>
        <time>2022-05-27T13:48:21Z</time>
      </trkpt>
      <trkpt lat="48.03697" lon="6.8972">
        <ele>1040.7</ele>
        <time>2022-05-27T13:48:29Z</time>
      </trkpt>
      <trkpt lat="48.03688" lon="6.89727">
        <ele>1040.3</ele>
        <time>2022-05-27T13:48:33Z</time>
      </trkpt>
      <trkpt lat="48.0368" lon="6.89732">
        <ele>1041</ele>
        <time>2022-05-27T13:48:36Z</time>
      </trkpt>
      <trkpt lat="48.0367" lon="6.89738">
        <ele>1039.8</ele>
        <time>2022-05-27T13:48:39Z</time>
      </trkpt>
      <trkpt lat="48.03662" lon="6.89746">
        <ele>1040.2</ele>
        <time>2022-05-27T13:48:42Z</time>
      </trkpt>
      <trkpt lat="48.03653" lon="6.89754">
        <ele>1040.3</ele>
        <time>2022-05-27T13:48:45Z</time>
      </trkpt>
      <trkpt lat="48.03647" lon="6.89767">
        <ele>1040.6</ele>
        <time>2022-05-27T13:48:48Z</time>
      </trkpt>
      <trkpt lat="48.03639" lon="6.89777">
        <ele>1040.7</ele>
        <time>2022-05-27T13:48:51Z</time>
      </trkpt>
      <trkpt lat="48.03629" lon="6.89784">
        <ele>1043</ele>
        <time>2022-05-27T13:48:55Z</time>
      </trkpt>
      <trkpt lat="48.0362" lon="6.89788">
        <ele>1042.5</ele>
        <time>2022-05-27T13:48:59Z</time>
      </trkpt>
      <trkpt lat="48.03611" lon="6.89793">
        <ele>1044.1</ele>
        <time>2022-05-27T13:49:03Z</time>
      </trkpt>
      <trkpt lat="48.03601" lon="6.89796">
        <ele>1045</ele>
        <time>2022-05-27T13:49:07Z</time>
      </trkpt>
      <trkpt lat="48.03591" lon="6.89802">
        <ele>1045.3</ele>
        <time>2022-05-27T13:49:12Z</time>
      </trkpt>
      <trkpt lat="48.03584" lon="6.8981">
        <ele>1045.4</ele>
        <time>2022-05-27T13:49:16Z</time>
      </trkpt>
      <trkpt lat="48.03576" lon="6.89822">
        <ele>1046.2</ele>
        <time>2022-05-27T13:49:20Z</time>
      </trkpt>
      <trkpt lat="48.03569" lon="6.89832">
        <ele>1046.7</ele>
        <time>2022-05-27T13:49:24Z</time>
      </trkpt>
      <trkpt lat="48.03563" lon="6.89847">
        <ele>1046.1</ele>
        <time>2022-05-27T13:49:28Z</time>
      </trkpt>
      <trkpt lat="48.03559" lon="6.89864">
        <ele>1046.9</ele>
        <time>2022-05-27T13:49:32Z</time>
      </trkpt>
      <trkpt lat="48.03557" lon="6.8988">
        <ele>1047</ele>
        <time>2022-05-27T13:49:35Z</time>
      </trkpt>
      <trkpt lat="48.03555" lon="6.89897">
        <ele>1046.3</ele>
        <time>2022-05-27T13:49:38Z</time>
      </trkpt>
      <trkpt lat="48.03552" lon="6.89916">
        <ele>1046.5</ele>
        <time>2022-05-27T13:49:41Z</time>
      </trkpt>
      <trkpt lat="48.0355" lon="6.89932">
        <ele>1047.2</ele>
        <time>2022-05-27T13:49:44Z</time>
      </trkpt>
      <trkpt lat="48.03548" lon="6.89947">
        <ele>1048.5</ele>
        <time>2022-05-27T13:49:48Z</time>
      </trkpt>
      <trkpt lat="48.0354" lon="6.89955">
        <ele>1050.6</ele>
        <time>2022-05-27T13:49:54Z</time>
      </trkpt>
      <trkpt lat="48.03534" lon="6.89943">
        <ele>1051.2</ele>
        <time>2022-05-27T13:49:59Z</time>
      </trkpt>
      <trkpt lat="48.03529" lon="6.8993">
        <ele>1052.2</ele>
        <time>2022-05-27T13:50:03Z</time>
      </trkpt>
      <trkpt lat="48.03523" lon="6.89917">
        <ele>1052.9</ele>
        <time>2022-05-27T13:50:08Z</time>
      </trkpt>
      <trkpt lat="48.03519" lon="6.89903">
        <ele>1054.5</ele>
        <time>2022-05-27T13:50:13Z</time>
      </trkpt>
      <trkpt lat="48.03517" lon="6.8989">
        <ele>1055.5</ele>
        <time>2022-05-27T13:50:18Z</time>
      </trkpt>
      <trkpt lat="48.03513" lon="6.89877">
        <ele>1056.3</ele>
        <time>2022-05-27T13:50:23Z</time>
      </trkpt>
      <trkpt lat="48.03505" lon="6.89866">
        <ele>1057.2</ele>
        <time>2022-05-27T13:50:28Z</time>
      </trkpt>
      <trkpt lat="48.03496" lon="6.89872">
        <ele>1058.6</ele>
        <time>2022-05-27T13:50:34Z</time>
      </trkpt>
      <trkpt lat="48.03495" lon="6.89885">
        <ele>1059</ele>
        <time>2022-05-27T13:50:39Z</time>
      </trkpt>
      <trkpt lat="48.03491" lon="6.89899">
        <ele>1059.9</ele>
        <time>2022-05-27T13:50:44Z</time>
      </trkpt>
      <trkpt lat="48.03487" lon="6.89913">
        <ele>1060.6</ele>
        <time>2022-05-27T13:50:50Z</time>
      </trkpt>
      <trkpt lat="48.03483" lon="6.89927">
        <ele>1061.5</ele>
        <time>2022-05-27T13:50:55Z</time>
      </trkpt>
      <trkpt lat="48.03478" lon="6.89941">
        <ele>1062</ele>
        <time>2022-05-27T13:51:00Z</time>
      </trkpt>
      <trkpt lat="48.03471" lon="6.89952">
        <ele>1063.5</ele>
        <time>2022-05-27T13:51:05Z</time>
      </trkpt>
      <trkpt lat="48.03465" lon="6.89964">
        <ele>1064.1</ele>
        <time>2022-05-27T13:51:10Z</time>
      </trkpt>
      <trkpt lat="48.03459" lon="6.89976">
        <ele>1064.9</ele>
        <time>2022-05-27T13:51:15Z</time>
      </trkpt>
      <trkpt lat="48.03457" lon="6.89992">
        <ele>1066.2</ele>
        <time>2022-05-27T13:51:20Z</time>
      </trkpt>
      <trkpt lat="48.03455" lon="6.90007">
        <ele>1066.5</ele>
        <time>2022-05-27T13:51:25Z</time>
      </trkpt>
      <trkpt lat="48.03454" lon="6.90022">
        <ele>1067.6</ele>
        <time>2022-05-27T13:51:30Z</time>
      </trkpt>
      <trkpt lat="48.03452" lon="6.90037">
        <ele>1069.5</ele>
        <time>2022-05-27T13:51:35Z</time>
      </trkpt>
      <trkpt lat="48.03448" lon="6.90049">
        <ele>1069</ele>
        <time>2022-05-27T13:51:39Z</time>
      </trkpt>
      <trkpt lat="48.03444" lon="6.90064">
        <ele>1069.2</ele>
        <time>2022-05-27T13:51:44Z</time>
      </trkpt>
      <trkpt lat="48.03442" lon="6.90077">
        <ele>1069.4</ele>
        <time>2022-05-27T13:51:48Z</time>
      </trkpt>
      <trkpt lat="48.03439" lon="6.9009">
        <ele>1070.8</ele>
        <time>2022-05-27T13:51:52Z</time>
      </trkpt>
      <trkpt lat="48.03437" lon="6.90105">
        <ele>1071.8</ele>
        <time>2022-05-27T13:51:57Z</time>
      </trkpt>
      <trkpt lat="48.03434" lon="6.90119">
        <ele>1074.5</ele>
        <time>2022-05-27T13:52:02Z</time>
      </trkpt>
      <trkpt lat="48.03431" lon="6.90133">
        <ele>1076.7</ele>
        <time>2022-05-27T13:52:09Z</time>
      </trkpt>
      <trkpt lat="48.03429" lon="6.90147">
        <ele>1077.8</ele>
        <time>2022-05-27T13:52:16Z</time>
      </trkpt>
      <trkpt lat="48.03425" lon="6.90162">
        <ele>1080</ele>
        <time>2022-05-27T13:52:22Z</time>
      </trkpt>
      <trkpt lat="48.0342" lon="6.90176">
        <ele>1080.3</ele>
        <time>2022-05-27T13:52:28Z</time>
      </trkpt>
      <trkpt lat="48.03414" lon="6.9019">
        <ele>1080.6</ele>
        <time>2022-05-27T13:52:33Z</time>
      </trkpt>
      <trkpt lat="48.03406" lon="6.902">
        <ele>1081.7</ele>
        <time>2022-05-27T13:52:37Z</time>
      </trkpt>
      <trkpt lat="48.03396" lon="6.90205">
        <ele>1081.8</ele>
        <time>2022-05-27T13:52:41Z</time>
      </trkpt>
      <trkpt lat="48.03388" lon="6.90211">
        <ele>1081.3</ele>
        <time>2022-05-27T13:52:45Z</time>
      </trkpt>
      <trkpt lat="48.03384" lon="6.90225">
        <ele>1082.5</ele>
        <time>2022-05-27T13:52:49Z</time>
      </trkpt>
      <trkpt lat="48.03387" lon="6.90238">
        <ele>1082.9</ele>
        <time>2022-05-27T13:52:54Z</time>
      </trkpt>
      <trkpt lat="48.03388" lon="6.90252">
        <ele>1085</ele>
        <time>2022-05-27T13:53:00Z</time>
      </trkpt>
      <trkpt lat="48.03383" lon="6.90265">
        <ele>1087</ele>
        <time>2022-05-27T13:53:05Z</time>
      </trkpt>
      <trkpt lat="48.03381" lon="6.90278">
        <ele>1088.6</ele>
        <time>2022-05-27T13:53:10Z</time>
      </trkpt>
      <trkpt lat="48.0338" lon="6.90294">
        <ele>1090</ele>
        <time>2022-05-27T13:53:16Z</time>
      </trkpt>
      <trkpt lat="48.03378" lon="6.90307">
        <ele>1090.7</ele>
        <time>2022-05-27T13:53:23Z</time>
      </trkpt>
      <trkpt lat="48.03376" lon="6.90318">
        <ele>1090</ele>
        <time>2022-05-27T13:53:29Z</time>
      </trkpt>
      <trkpt lat="48.03376" lon="6.90317">
        <ele>1090.6</ele>
        <time>2022-05-27T13:53:59Z</time>
      </trkpt>
      <trkpt lat="48.03376" lon="6.90317">
        <ele>1090.4</ele>
        <time>2022-05-27T13:54:10Z</time>
      </trkpt>
      <trkpt lat="48.03376" lon="6.90318">
        <ele>1090.4</ele>
        <time>2022-05-27T13:54:12Z</time>
      </trkpt>
      <trkpt lat="48.03375" lon="6.90318">
        <ele>1090.2</ele>
        <time>2022-05-27T13:54:20Z</time>
      </trkpt>
      <trkpt lat="48.03375" lon="6.90318">
        <ele>1090.4</ele>
        <time>2022-05-27T13:54:54Z</time>
      </trkpt>
      <trkpt lat="48.03375" lon="6.9032">
        <ele>1090.2</ele>
        <time>2022-05-27T13:54:57Z</time>
      </trkpt>
      <trkpt lat="48.03375" lon="6.90321">
        <ele>1091</ele>
        <time>2022-05-27T13:55:08Z</time>
      </trkpt>
      <trkpt lat="48.03372" lon="6.90335">
        <ele>1090</ele>
        <time>2022-05-27T13:55:14Z</time>
      </trkpt>
      <trkpt lat="48.0337" lon="6.90352">
        <ele>1089.6</ele>
        <time>2022-05-27T13:55:18Z</time>
      </trkpt>
      <trkpt lat="48.03369" lon="6.90366">
        <ele>1089.7</ele>
        <time>2022-05-27T13:55:21Z</time>
      </trkpt>
      <trkpt lat="48.03369" lon="6.90382">
        <ele>1089.4</ele>
        <time>2022-05-27T13:55:24Z</time>
      </trkpt>
      <trkpt lat="48.03371" lon="6.904">
        <ele>1089.2</ele>
        <time>2022-05-27T13:55:27Z</time>
      </trkpt>
      <trkpt lat="48.03374" lon="6.90417">
        <ele>1089.5</ele>
        <time>2022-05-27T13:55:30Z</time>
      </trkpt>
      <trkpt lat="48.03376" lon="6.90435">
        <ele>1089</ele>
        <time>2022-05-27T13:55:33Z</time>
      </trkpt>
      <trkpt lat="48.03378" lon="6.90454">
        <ele>1088.7</ele>
        <time>2022-05-27T13:55:36Z</time>
      </trkpt>
      <trkpt lat="48.03377" lon="6.90471">
        <ele>1088.7</ele>
        <time>2022-05-27T13:55:39Z</time>
      </trkpt>
      <trkpt lat="48.03374" lon="6.90488">
        <ele>1087.5</ele>
        <time>2022-05-27T13:55:43Z</time>
      </trkpt>
      <trkpt lat="48.03372" lon="6.90504">
        <ele>1086.7</ele>
        <time>2022-05-27T13:55:48Z</time>
      </trkpt>
      <trkpt lat="48.03368" lon="6.9052">
        <ele>1087.3</ele>
        <time>2022-05-27T13:55:52Z</time>
      </trkpt>
      <trkpt lat="48.03365" lon="6.90532">
        <ele>1082.5</ele>
        <time>2022-05-27T13:55:54Z</time>
      </trkpt>
      <trkpt lat="48.03362" lon="6.90547">
        <ele>1080.2</ele>
        <time>2022-05-27T13:55:56Z</time>
      </trkpt>
      <trkpt lat="48.03361" lon="6.90562">
        <ele>1080.1</ele>
        <time>2022-05-27T13:55:58Z</time>
      </trkpt>
      <trkpt lat="48.03358" lon="6.90577">
        <ele>1078.9</ele>
        <time>2022-05-27T13:56:00Z</time>
      </trkpt>
      <trkpt lat="48.03355" lon="6.90594">
        <ele>1079.2</ele>
        <time>2022-05-27T13:56:02Z</time>
      </trkpt>
      <trkpt lat="48.03354" lon="6.90609">
        <ele>1078.3</ele>
        <time>2022-05-27T13:56:04Z</time>
      </trkpt>
      <trkpt lat="48.03353" lon="6.90628">
        <ele>1075.4</ele>
        <time>2022-05-27T13:56:07Z</time>
      </trkpt>
      <trkpt lat="48.03357" lon="6.90646">
        <ele>1071.7</ele>
        <time>2022-05-27T13:56:10Z</time>
      </trkpt>
      <trkpt lat="48.03361" lon="6.90665">
        <ele>1071.6</ele>
        <time>2022-05-27T13:56:13Z</time>
      </trkpt>
      <trkpt lat="48.03364" lon="6.90678">
        <ele>1073.1</ele>
        <time>2022-05-27T13:56:15Z</time>
      </trkpt>
      <trkpt lat="48.03367" lon="6.90693">
        <ele>1070</ele>
        <time>2022-05-27T13:56:17Z</time>
      </trkpt>
      <trkpt lat="48.0337" lon="6.90708">
        <ele>1069</ele>
        <time>2022-05-27T13:56:19Z</time>
      </trkpt>
      <trkpt lat="48.03372" lon="6.90722">
        <ele>1063.4</ele>
        <time>2022-05-27T13:56:21Z</time>
      </trkpt>
      <trkpt lat="48.03372" lon="6.90739">
        <ele>1064.7</ele>
        <time>2022-05-27T13:56:24Z</time>
      </trkpt>
      <trkpt lat="48.03374" lon="6.90755">
        <ele>1064</ele>
        <time>2022-05-27T13:56:27Z</time>
      </trkpt>
      <trkpt lat="48.03378" lon="6.90774">
        <ele>1063.3</ele>
        <time>2022-05-27T13:56:30Z</time>
      </trkpt>
      <trkpt lat="48.03378" lon="6.90789">
        <ele>1063.1</ele>
        <time>2022-05-27T13:56:32Z</time>
      </trkpt>
      <trkpt lat="48.03379" lon="6.90803">
        <ele>1061.4</ele>
        <time>2022-05-27T13:56:34Z</time>
      </trkpt>
      <trkpt lat="48.03381" lon="6.90818">
        <ele>1062.3</ele>
        <time>2022-05-27T13:56:36Z</time>
      </trkpt>
      <trkpt lat="48.03384" lon="6.90835">
        <ele>1060.9</ele>
        <time>2022-05-27T13:56:38Z</time>
      </trkpt>
      <trkpt lat="48.03388" lon="6.90853">
        <ele>1060.7</ele>
        <time>2022-05-27T13:56:40Z</time>
      </trkpt>
      <trkpt lat="48.03394" lon="6.9087">
        <ele>1059.6</ele>
        <time>2022-05-27T13:56:42Z</time>
      </trkpt>
      <trkpt lat="48.03398" lon="6.90886">
        <ele>1061.5</ele>
        <time>2022-05-27T13:56:44Z</time>
      </trkpt>
      <trkpt lat="48.03402" lon="6.90899">
        <ele>1062</ele>
        <time>2022-05-27T13:56:46Z</time>
      </trkpt>
      <trkpt lat="48.03408" lon="6.90915">
        <ele>1061.8</ele>
        <time>2022-05-27T13:56:49Z</time>
      </trkpt>
      <trkpt lat="48.03412" lon="6.90935">
        <ele>1061.3</ele>
        <time>2022-05-27T13:56:52Z</time>
      </trkpt>
      <trkpt lat="48.03415" lon="6.90951">
        <ele>1061.2</ele>
        <time>2022-05-27T13:56:54Z</time>
      </trkpt>
      <trkpt lat="48.03417" lon="6.90966">
        <ele>1061.5</ele>
        <time>2022-05-27T13:56:56Z</time>
      </trkpt>
      <trkpt lat="48.03421" lon="6.90979">
        <ele>1065.6</ele>
        <time>2022-05-27T13:56:58Z</time>
      </trkpt>
      <trkpt lat="48.03425" lon="6.90992">
        <ele>1062.9</ele>
        <time>2022-05-27T13:57:00Z</time>
      </trkpt>
      <trkpt lat="48.0343" lon="6.91005">
        <ele>1063</ele>
        <time>2022-05-27T13:57:02Z</time>
      </trkpt>
      <trkpt lat="48.03435" lon="6.91016">
        <ele>1063.9</ele>
        <time>2022-05-27T13:57:04Z</time>
      </trkpt>
      <trkpt lat="48.03442" lon="6.91026">
        <ele>1063.3</ele>
        <time>2022-05-27T13:57:06Z</time>
      </trkpt>
      <trkpt lat="48.0345" lon="6.91037">
        <ele>1061.8</ele>
        <time>2022-05-27T13:57:08Z</time>
      </trkpt>
      <trkpt lat="48.03459" lon="6.91048">
        <ele>1060.2</ele>
        <time>2022-05-27T13:57:10Z</time>
      </trkpt>
      <trkpt lat="48.03467" lon="6.91059">
        <ele>1060.5</ele>
        <time>2022-05-27T13:57:12Z</time>
      </trkpt>
      <trkpt lat="48.03474" lon="6.9107">
        <ele>1059.9</ele>
        <time>2022-05-27T13:57:14Z</time>
      </trkpt>
      <trkpt lat="48.03482" lon="6.91081">
        <ele>1061.7</ele>
        <time>2022-05-27T13:57:16Z</time>
      </trkpt>
      <trkpt lat="48.03491" lon="6.91094">
        <ele>1063.9</ele>
        <time>2022-05-27T13:57:19Z</time>
      </trkpt>
      <trkpt lat="48.03499" lon="6.91103">
        <ele>1065.4</ele>
        <time>2022-05-27T13:57:22Z</time>
      </trkpt>
      <trkpt lat="48.03507" lon="6.91112">
        <ele>1065.7</ele>
        <time>2022-05-27T13:57:25Z</time>
      </trkpt>
      <trkpt lat="48.03515" lon="6.91121">
        <ele>1065.5</ele>
        <time>2022-05-27T13:57:28Z</time>
      </trkpt>
      <trkpt lat="48.03525" lon="6.91128">
        <ele>1064.9</ele>
        <time>2022-05-27T13:57:31Z</time>
      </trkpt>
      <trkpt lat="48.03535" lon="6.91135">
        <ele>1065.6</ele>
        <time>2022-05-27T13:57:34Z</time>
      </trkpt>
      <trkpt lat="48.03544" lon="6.91145">
        <ele>1067.4</ele>
        <time>2022-05-27T13:57:38Z</time>
      </trkpt>
      <trkpt lat="48.03554" lon="6.91155">
        <ele>1068</ele>
        <time>2022-05-27T13:57:42Z</time>
      </trkpt>
      <trkpt lat="48.03563" lon="6.91164">
        <ele>1069.6</ele>
        <time>2022-05-27T13:57:46Z</time>
      </trkpt>
      <trkpt lat="48.03571" lon="6.91171">
        <ele>1069.8</ele>
        <time>2022-05-27T13:57:49Z</time>
      </trkpt>
      <trkpt lat="48.03582" lon="6.91179">
        <ele>1070.4</ele>
        <time>2022-05-27T13:57:53Z</time>
      </trkpt>
      <trkpt lat="48.03592" lon="6.91185">
        <ele>1070.4</ele>
        <time>2022-05-27T13:57:57Z</time>
      </trkpt>
      <trkpt lat="48.03601" lon="6.9119">
        <ele>1070.7</ele>
        <time>2022-05-27T13:58:00Z</time>
      </trkpt>
      <trkpt lat="48.03612" lon="6.91198">
        <ele>1069.7</ele>
        <time>2022-05-27T13:58:03Z</time>
      </trkpt>
      <trkpt lat="48.03623" lon="6.91204">
        <ele>1069.6</ele>
        <time>2022-05-27T13:58:06Z</time>
      </trkpt>
      <trkpt lat="48.03635" lon="6.91209">
        <ele>1069.1</ele>
        <time>2022-05-27T13:58:09Z</time>
      </trkpt>
      <trkpt lat="48.03646" lon="6.91213">
        <ele>1069.8</ele>
        <time>2022-05-27T13:58:12Z</time>
      </trkpt>
      <trkpt lat="48.03657" lon="6.91218">
        <ele>1069</ele>
        <time>2022-05-27T13:58:15Z</time>
      </trkpt>
      <trkpt lat="48.03669" lon="6.91223">
        <ele>1069.7</ele>
        <time>2022-05-27T13:58:18Z</time>
      </trkpt>
      <trkpt lat="48.03681" lon="6.91231">
        <ele>1067.5</ele>
        <time>2022-05-27T13:58:21Z</time>
      </trkpt>
      <trkpt lat="48.03692" lon="6.91241">
        <ele>1067.5</ele>
        <time>2022-05-27T13:58:24Z</time>
      </trkpt>
      <trkpt lat="48.03703" lon="6.91253">
        <ele>1067</ele>
        <time>2022-05-27T13:58:27Z</time>
      </trkpt>
      <trkpt lat="48.03711" lon="6.91262">
        <ele>1065.9</ele>
        <time>2022-05-27T13:58:29Z</time>
      </trkpt>
      <trkpt lat="48.03719" lon="6.91274">
        <ele>1064.1</ele>
        <time>2022-05-27T13:58:31Z</time>
      </trkpt>
      <trkpt lat="48.03728" lon="6.91288">
        <ele>1065.3</ele>
        <time>2022-05-27T13:58:33Z</time>
      </trkpt>
      <trkpt lat="48.03736" lon="6.91302">
        <ele>1064.8</ele>
        <time>2022-05-27T13:58:35Z</time>
      </trkpt>
      <trkpt lat="48.03744" lon="6.91314">
        <ele>1064.7</ele>
        <time>2022-05-27T13:58:37Z</time>
      </trkpt>
      <trkpt lat="48.03752" lon="6.91325">
        <ele>1065.3</ele>
        <time>2022-05-27T13:58:39Z</time>
      </trkpt>
      <trkpt lat="48.03759" lon="6.91337">
        <ele>1065.9</ele>
        <time>2022-05-27T13:58:41Z</time>
      </trkpt>
      <trkpt lat="48.03765" lon="6.91348">
        <ele>1067.7</ele>
        <time>2022-05-27T13:58:43Z</time>
      </trkpt>
      <trkpt lat="48.03773" lon="6.91362">
        <ele>1067.1</ele>
        <time>2022-05-27T13:58:46Z</time>
      </trkpt>
      <trkpt lat="48.03783" lon="6.91372">
        <ele>1067.2</ele>
        <time>2022-05-27T13:58:49Z</time>
      </trkpt>
      <trkpt lat="48.0379" lon="6.9138">
        <ele>1067</ele>
        <time>2022-05-27T13:58:51Z</time>
      </trkpt>
      <trkpt lat="48.03797" lon="6.91389">
        <ele>1067.7</ele>
        <time>2022-05-27T13:58:53Z</time>
      </trkpt>
      <trkpt lat="48.03808" lon="6.91399">
        <ele>1069.8</ele>
        <time>2022-05-27T13:58:56Z</time>
      </trkpt>
      <trkpt lat="48.03816" lon="6.9141">
        <ele>1070.9</ele>
        <time>2022-05-27T13:58:59Z</time>
      </trkpt>
      <trkpt lat="48.03822" lon="6.91425">
        <ele>1071.5</ele>
        <time>2022-05-27T13:59:02Z</time>
      </trkpt>
      <trkpt lat="48.03826" lon="6.91442">
        <ele>1070.6</ele>
        <time>2022-05-27T13:59:05Z</time>
      </trkpt>
      <trkpt lat="48.03829" lon="6.9146">
        <ele>1070.4</ele>
        <time>2022-05-27T13:59:08Z</time>
      </trkpt>
      <trkpt lat="48.03831" lon="6.91473">
        <ele>1069.5</ele>
        <time>2022-05-27T13:59:10Z</time>
      </trkpt>
      <trkpt lat="48.03835" lon="6.91488">
        <ele>1067.7</ele>
        <time>2022-05-27T13:59:12Z</time>
      </trkpt>
      <trkpt lat="48.0384" lon="6.91503">
        <ele>1068.5</ele>
        <time>2022-05-27T13:59:14Z</time>
      </trkpt>
      <trkpt lat="48.03847" lon="6.91516">
        <ele>1067.3</ele>
        <time>2022-05-27T13:59:16Z</time>
      </trkpt>
      <trkpt lat="48.03854" lon="6.91529">
        <ele>1067.3</ele>
        <time>2022-05-27T13:59:18Z</time>
      </trkpt>
      <trkpt lat="48.03861" lon="6.9154">
        <ele>1068.3</ele>
        <time>2022-05-27T13:59:20Z</time>
      </trkpt>
      <trkpt lat="48.03869" lon="6.91549">
        <ele>1068</ele>
        <time>2022-05-27T13:59:22Z</time>
      </trkpt>
      <trkpt lat="48.03876" lon="6.91559">
        <ele>1068.7</ele>
        <time>2022-05-27T13:59:24Z</time>
      </trkpt>
      <trkpt lat="48.03883" lon="6.91567">
        <ele>1069.3</ele>
        <time>2022-05-27T13:59:26Z</time>
      </trkpt>
      <trkpt lat="48.03892" lon="6.91573">
        <ele>1068.8</ele>
        <time>2022-05-27T13:59:28Z</time>
      </trkpt>
      <trkpt lat="48.039" lon="6.91579">
        <ele>1068</ele>
        <time>2022-05-27T13:59:30Z</time>
      </trkpt>
      <trkpt lat="48.03909" lon="6.91583">
        <ele>1068.9</ele>
        <time>2022-05-27T13:59:32Z</time>
      </trkpt>
      <trkpt lat="48.03922" lon="6.91586">
        <ele>1070.2</ele>
        <time>2022-05-27T13:59:35Z</time>
      </trkpt>
      <trkpt lat="48.03936" lon="6.91588">
        <ele>1069.4</ele>
        <time>2022-05-27T13:59:38Z</time>
      </trkpt>
      <trkpt lat="48.03947" lon="6.91589">
        <ele>1068.6</ele>
        <time>2022-05-27T13:59:41Z</time>
      </trkpt>
      <trkpt lat="48.03956" lon="6.91593">
        <ele>1071.2</ele>
        <time>2022-05-27T13:59:45Z</time>
      </trkpt>
      <trkpt lat="48.03959" lon="6.91596">
        <ele>1071.1</ele>
        <time>2022-05-27T13:59:49Z</time>
      </trkpt>
      <trkpt lat="48.03959" lon="6.91597">
        <ele>1071.5</ele>
        <time>2022-05-27T13:59:54Z</time>
      </trkpt>
      <trkpt lat="48.03959" lon="6.91597">
        <ele>1071.1</ele>
        <time>2022-05-27T14:02:36Z</time>
      </trkpt>
      <trkpt lat="48.03967" lon="6.9161">
        <ele>1070.9</ele>
        <time>2022-05-27T14:02:41Z</time>
      </trkpt>
      <trkpt lat="48.03974" lon="6.91619">
        <ele>1069.1</ele>
        <time>2022-05-27T14:02:43Z</time>
      </trkpt>
      <trkpt lat="48.03984" lon="6.91631">
        <ele>1069.2</ele>
        <time>2022-05-27T14:02:46Z</time>
      </trkpt>
      <trkpt lat="48.03992" lon="6.91642">
        <ele>1069</ele>
        <time>2022-05-27T14:02:49Z</time>
      </trkpt>
      <trkpt lat="48.03999" lon="6.91652">
        <ele>1072.7</ele>
        <time>2022-05-27T14:02:54Z</time>
      </trkpt>
      <trkpt lat="48.04007" lon="6.91665">
        <ele>1072.3</ele>
        <time>2022-05-27T14:02:59Z</time>
      </trkpt>
      <trkpt lat="48.04015" lon="6.91675">
        <ele>1074.3</ele>
        <time>2022-05-27T14:03:03Z</time>
      </trkpt>
      <trkpt lat="48.04023" lon="6.91687">
        <ele>1073.6</ele>
        <time>2022-05-27T14:03:07Z</time>
      </trkpt>
      <trkpt lat="48.0403" lon="6.91697">
        <ele>1073.8</ele>
        <time>2022-05-27T14:03:10Z</time>
      </trkpt>
      <trkpt lat="48.04037" lon="6.91707">
        <ele>1073.5</ele>
        <time>2022-05-27T14:03:13Z</time>
      </trkpt>
      <trkpt lat="48.04043" lon="6.91719">
        <ele>1073.5</ele>
        <time>2022-05-27T14:03:16Z</time>
      </trkpt>
      <trkpt lat="48.04051" lon="6.91731">
        <ele>1074.5</ele>
        <time>2022-05-27T14:03:19Z</time>
      </trkpt>
      <trkpt lat="48.04057" lon="6.91744">
        <ele>1072.3</ele>
        <time>2022-05-27T14:03:22Z</time>
      </trkpt>
      <trkpt lat="48.04062" lon="6.91758">
        <ele>1073.7</ele>
        <time>2022-05-27T14:03:25Z</time>
      </trkpt>
      <trkpt lat="48.04066" lon="6.91774">
        <ele>1072.9</ele>
        <time>2022-05-27T14:03:28Z</time>
      </trkpt>
      <trkpt lat="48.04071" lon="6.9179">
        <ele>1071</ele>
        <time>2022-05-27T14:03:31Z</time>
      </trkpt>
      <trkpt lat="48.04077" lon="6.91806">
        <ele>1071.2</ele>
        <time>2022-05-27T14:03:34Z</time>
      </trkpt>
      <trkpt lat="48.04085" lon="6.91822">
        <ele>1072</ele>
        <time>2022-05-27T14:03:37Z</time>
      </trkpt>
      <trkpt lat="48.04091" lon="6.91833">
        <ele>1070.4</ele>
        <time>2022-05-27T14:03:39Z</time>
      </trkpt>
      <trkpt lat="48.04096" lon="6.91845">
        <ele>1069.2</ele>
        <time>2022-05-27T14:03:41Z</time>
      </trkpt>
      <trkpt lat="48.04103" lon="6.91857">
        <ele>1066.6</ele>
        <time>2022-05-27T14:03:43Z</time>
      </trkpt>
      <trkpt lat="48.04112" lon="6.91865">
        <ele>1066.4</ele>
        <time>2022-05-27T14:03:45Z</time>
      </trkpt>
      <trkpt lat="48.04123" lon="6.91871">
        <ele>1064.4</ele>
        <time>2022-05-27T14:03:47Z</time>
      </trkpt>
      <trkpt lat="48.04134" lon="6.9188">
        <ele>1065.4</ele>
        <time>2022-05-27T14:03:49Z</time>
      </trkpt>
      <trkpt lat="48.04145" lon="6.9189">
        <ele>1063.2</ele>
        <time>2022-05-27T14:03:51Z</time>
      </trkpt>
      <trkpt lat="48.04157" lon="6.91899">
        <ele>1064.9</ele>
        <time>2022-05-27T14:03:53Z</time>
      </trkpt>
      <trkpt lat="48.04168" lon="6.91906">
        <ele>1065.8</ele>
        <time>2022-05-27T14:03:55Z</time>
      </trkpt>
      <trkpt lat="48.04178" lon="6.91911">
        <ele>1066.7</ele>
        <time>2022-05-27T14:03:57Z</time>
      </trkpt>
      <trkpt lat="48.04188" lon="6.91919">
        <ele>1068.8</ele>
        <time>2022-05-27T14:03:59Z</time>
      </trkpt>
      <trkpt lat="48.04195" lon="6.91927">
        <ele>1066.9</ele>
        <time>2022-05-27T14:04:01Z</time>
      </trkpt>
      <trkpt lat="48.04203" lon="6.91934">
        <ele>1068.2</ele>
        <time>2022-05-27T14:04:03Z</time>
      </trkpt>
      <trkpt lat="48.04215" lon="6.91942">
        <ele>1067.7</ele>
        <time>2022-05-27T14:04:06Z</time>
      </trkpt>
      <trkpt lat="48.04223" lon="6.91952">
        <ele>1068.4</ele>
        <time>2022-05-27T14:04:09Z</time>
      </trkpt>
      <trkpt lat="48.0423" lon="6.91962">
        <ele>1068.1</ele>
        <time>2022-05-27T14:04:12Z</time>
      </trkpt>
      <trkpt lat="48.04238" lon="6.91971">
        <ele>1070</ele>
        <time>2022-05-27T14:04:15Z</time>
      </trkpt>
      <trkpt lat="48.04246" lon="6.91977">
        <ele>1070.3</ele>
        <time>2022-05-27T14:04:18Z</time>
      </trkpt>
      <trkpt lat="48.04255" lon="6.91983">
        <ele>1073.3</ele>
        <time>2022-05-27T14:04:21Z</time>
      </trkpt>
      <trkpt lat="48.04264" lon="6.9199">
        <ele>1073</ele>
        <time>2022-05-27T14:04:25Z</time>
      </trkpt>
      <trkpt lat="48.04274" lon="6.91997">
        <ele>1074</ele>
        <time>2022-05-27T14:04:29Z</time>
      </trkpt>
      <trkpt lat="48.04283" lon="6.92004">
        <ele>1075.3</ele>
        <time>2022-05-27T14:04:33Z</time>
      </trkpt>
      <trkpt lat="48.04291" lon="6.92012">
        <ele>1075.9</ele>
        <time>2022-05-27T14:04:37Z</time>
      </trkpt>
      <trkpt lat="48.04299" lon="6.9202">
        <ele>1077.8</ele>
        <time>2022-05-27T14:04:42Z</time>
      </trkpt>
      <trkpt lat="48.04309" lon="6.92025">
        <ele>1079</ele>
        <time>2022-05-27T14:04:48Z</time>
      </trkpt>
      <trkpt lat="48.04319" lon="6.92029">
        <ele>1079.5</ele>
        <time>2022-05-27T14:04:52Z</time>
      </trkpt>
      <trkpt lat="48.04327" lon="6.9204">
        <ele>1079.8</ele>
        <time>2022-05-27T14:04:56Z</time>
      </trkpt>
      <trkpt lat="48.04336" lon="6.92056">
        <ele>1076.6</ele>
        <time>2022-05-27T14:04:59Z</time>
      </trkpt>
      <trkpt lat="48.04343" lon="6.92068">
        <ele>1076.4</ele>
        <time>2022-05-27T14:05:01Z</time>
      </trkpt>
      <trkpt lat="48.0435" lon="6.92081">
        <ele>1075.2</ele>
        <time>2022-05-27T14:05:03Z</time>
      </trkpt>
      <trkpt lat="48.04356" lon="6.92093">
        <ele>1075.9</ele>
        <time>2022-05-27T14:05:05Z</time>
      </trkpt>
      <trkpt lat="48.04361" lon="6.92105">
        <ele>1075.1</ele>
        <time>2022-05-27T14:05:07Z</time>
      </trkpt>
      <trkpt lat="48.04367" lon="6.92116">
        <ele>1074.1</ele>
        <time>2022-05-27T14:05:09Z</time>
      </trkpt>
      <trkpt lat="48.04374" lon="6.92127">
        <ele>1073.3</ele>
        <time>2022-05-27T14:05:11Z</time>
      </trkpt>
      <trkpt lat="48.0438" lon="6.92138">
        <ele>1073.1</ele>
        <time>2022-05-27T14:05:13Z</time>
      </trkpt>
      <trkpt lat="48.04389" lon="6.92146">
        <ele>1074.3</ele>
        <time>2022-05-27T14:05:16Z</time>
      </trkpt>
      <trkpt lat="48.04397" lon="6.92157">
        <ele>1072.3</ele>
        <time>2022-05-27T14:05:20Z</time>
      </trkpt>
      <trkpt lat="48.04404" lon="6.9217">
        <ele>1070.5</ele>
        <time>2022-05-27T14:05:23Z</time>
      </trkpt>
      <trkpt lat="48.04401" lon="6.92187">
        <ele>1067.9</ele>
        <time>2022-05-27T14:05:26Z</time>
      </trkpt>
      <trkpt lat="48.04396" lon="6.92198">
        <ele>1066.2</ele>
        <time>2022-05-27T14:05:28Z</time>
      </trkpt>
      <trkpt lat="48.04391" lon="6.92208">
        <ele>1064.1</ele>
        <time>2022-05-27T14:05:30Z</time>
      </trkpt>
      <trkpt lat="48.04384" lon="6.92217">
        <ele>1066.2</ele>
        <time>2022-05-27T14:05:32Z</time>
      </trkpt>
      <trkpt lat="48.04374" lon="6.92222">
        <ele>1066.2</ele>
        <time>2022-05-27T14:05:35Z</time>
      </trkpt>
      <trkpt lat="48.04362" lon="6.92221">
        <ele>1066.6</ele>
        <time>2022-05-27T14:05:38Z</time>
      </trkpt>
      <trkpt lat="48.0435" lon="6.92215">
        <ele>1061.8</ele>
        <time>2022-05-27T14:05:41Z</time>
      </trkpt>
      <trkpt lat="48.0434" lon="6.92209">
        <ele>1062.5</ele>
        <time>2022-05-27T14:05:43Z</time>
      </trkpt>
      <trkpt lat="48.0433" lon="6.92201">
        <ele>1060.4</ele>
        <time>2022-05-27T14:05:45Z</time>
      </trkpt>
      <trkpt lat="48.04319" lon="6.92188">
        <ele>1058.4</ele>
        <time>2022-05-27T14:05:48Z</time>
      </trkpt>
      <trkpt lat="48.04309" lon="6.92179">
        <ele>1052.7</ele>
        <time>2022-05-27T14:05:50Z</time>
      </trkpt>
      <trkpt lat="48.04299" lon="6.92167">
        <ele>1053.6</ele>
        <time>2022-05-27T14:05:52Z</time>
      </trkpt>
      <trkpt lat="48.04289" lon="6.92152">
        <ele>1053.2</ele>
        <time>2022-05-27T14:05:54Z</time>
      </trkpt>
      <trkpt lat="48.04282" lon="6.92134">
        <ele>1053.5</ele>
        <time>2022-05-27T14:05:56Z</time>
      </trkpt>
      <trkpt lat="48.04275" lon="6.92119">
        <ele>1051.2</ele>
        <time>2022-05-27T14:05:58Z</time>
      </trkpt>
      <trkpt lat="48.04266" lon="6.9211">
        <ele>1052</ele>
        <time>2022-05-27T14:06:00Z</time>
      </trkpt>
      <trkpt lat="48.04257" lon="6.92098">
        <ele>1053.4</ele>
        <time>2022-05-27T14:06:02Z</time>
      </trkpt>
      <trkpt lat="48.04246" lon="6.92087">
        <ele>1052.2</ele>
        <time>2022-05-27T14:06:04Z</time>
      </trkpt>
      <trkpt lat="48.04237" lon="6.92076">
        <ele>1051.2</ele>
        <time>2022-05-27T14:06:06Z</time>
      </trkpt>
      <trkpt lat="48.04233" lon="6.92062">
        <ele>1049.7</ele>
        <time>2022-05-27T14:06:08Z</time>
      </trkpt>
      <trkpt lat="48.04229" lon="6.92047">
        <ele>1048</ele>
        <time>2022-05-27T14:06:10Z</time>
      </trkpt>
      <trkpt lat="48.04219" lon="6.92041">
        <ele>1046.5</ele>
        <time>2022-05-27T14:06:12Z</time>
      </trkpt>
      <trkpt lat="48.04207" lon="6.92036">
        <ele>1045.6</ele>
        <time>2022-05-27T14:06:14Z</time>
      </trkpt>
      <trkpt lat="48.04198" lon="6.92032">
        <ele>1047.7</ele>
        <time>2022-05-27T14:06:16Z</time>
      </trkpt>
      <trkpt lat="48.04204" lon="6.92044">
        <ele>1045.2</ele>
        <time>2022-05-27T14:06:23Z</time>
      </trkpt>
      <trkpt lat="48.04211" lon="6.92054">
        <ele>1044.4</ele>
        <time>2022-05-27T14:06:27Z</time>
      </trkpt>
      <trkpt lat="48.04217" lon="6.92063">
        <ele>1044.4</ele>
        <time>2022-05-27T14:06:33Z</time>
      </trkpt>
      <trkpt lat="48.04217" lon="6.92064">
        <ele>1044.3</ele>
        <time>2022-05-27T14:06:36Z</time>
      </trkpt>
      <trkpt lat="48.04217" lon="6.92061">
        <ele>1044.1</ele>
        <time>2022-05-27T14:06:44Z</time>
      </trkpt>
      <trkpt lat="48.04216" lon="6.92061">
        <ele>1044.5</ele>
        <time>2022-05-27T14:06:55Z</time>
      </trkpt>
      <trkpt lat="48.04216" lon="6.92061">
        <ele>1044.7</ele>
        <time>2022-05-27T14:06:57Z</time>
      </trkpt>
      <trkpt lat="48.04221" lon="6.92074">
        <ele>1042.2</ele>
        <time>2022-05-27T14:07:04Z</time>
      </trkpt>
      <trkpt lat="48.04227" lon="6.92089">
        <ele>1043</ele>
        <time>2022-05-27T14:07:08Z</time>
      </trkpt>
      <trkpt lat="48.04233" lon="6.92101">
        <ele>1043.5</ele>
        <time>2022-05-27T14:07:11Z</time>
      </trkpt>
      <trkpt lat="48.04239" lon="6.92113">
        <ele>1044.2</ele>
        <time>2022-05-27T14:07:14Z</time>
      </trkpt>
      <trkpt lat="48.04245" lon="6.92123">
        <ele>1043.9</ele>
        <time>2022-05-27T14:07:17Z</time>
      </trkpt>
      <trkpt lat="48.04253" lon="6.92135">
        <ele>1043.9</ele>
        <time>2022-05-27T14:07:20Z</time>
      </trkpt>
      <trkpt lat="48.04259" lon="6.92148">
        <ele>1044.5</ele>
        <time>2022-05-27T14:07:23Z</time>
      </trkpt>
      <trkpt lat="48.04264" lon="6.92164">
        <ele>1043</ele>
        <time>2022-05-27T14:07:26Z</time>
      </trkpt>
      <trkpt lat="48.04267" lon="6.92179">
        <ele>1045.4</ele>
        <time>2022-05-27T14:07:29Z</time>
      </trkpt>
      <trkpt lat="48.04268" lon="6.92197">
        <ele>1044.5</ele>
        <time>2022-05-27T14:07:32Z</time>
      </trkpt>
      <trkpt lat="48.04268" lon="6.92216">
        <ele>1044.2</ele>
        <time>2022-05-27T14:07:35Z</time>
      </trkpt>
      <trkpt lat="48.04267" lon="6.9223">
        <ele>1044.8</ele>
        <time>2022-05-27T14:07:37Z</time>
      </trkpt>
      <trkpt lat="48.04266" lon="6.92244">
        <ele>1044.8</ele>
        <time>2022-05-27T14:07:39Z</time>
      </trkpt>
      <trkpt lat="48.04265" lon="6.92264">
        <ele>1044.7</ele>
        <time>2022-05-27T14:07:42Z</time>
      </trkpt>
      <trkpt lat="48.04267" lon="6.92279">
        <ele>1043.9</ele>
        <time>2022-05-27T14:07:44Z</time>
      </trkpt>
      <trkpt lat="48.04269" lon="6.92294">
        <ele>1043.8</ele>
        <time>2022-05-27T14:07:46Z</time>
      </trkpt>
      <trkpt lat="48.04272" lon="6.92307">
        <ele>1045.2</ele>
        <time>2022-05-27T14:07:48Z</time>
      </trkpt>
      <trkpt lat="48.04277" lon="6.92326">
        <ele>1044.3</ele>
        <time>2022-05-27T14:07:51Z</time>
      </trkpt>
      <trkpt lat="48.0428" lon="6.9234">
        <ele>1043.8</ele>
        <time>2022-05-27T14:07:53Z</time>
      </trkpt>
      <trkpt lat="48.04284" lon="6.92354">
        <ele>1044</ele>
        <time>2022-05-27T14:07:55Z</time>
      </trkpt>
      <trkpt lat="48.04289" lon="6.92367">
        <ele>1042.8</ele>
        <time>2022-05-27T14:07:57Z</time>
      </trkpt>
      <trkpt lat="48.04295" lon="6.9238">
        <ele>1040.9</ele>
        <time>2022-05-27T14:07:59Z</time>
      </trkpt>
      <trkpt lat="48.04304" lon="6.9239">
        <ele>1041.4</ele>
        <time>2022-05-27T14:08:01Z</time>
      </trkpt>
      <trkpt lat="48.04315" lon="6.92393">
        <ele>1041.5</ele>
        <time>2022-05-27T14:08:03Z</time>
      </trkpt>
      <trkpt lat="48.04326" lon="6.92391">
        <ele>1040.8</ele>
        <time>2022-05-27T14:08:05Z</time>
      </trkpt>
      <trkpt lat="48.04335" lon="6.92387">
        <ele>1042.4</ele>
        <time>2022-05-27T14:08:07Z</time>
      </trkpt>
      <trkpt lat="48.04344" lon="6.9238">
        <ele>1042.6</ele>
        <time>2022-05-27T14:08:09Z</time>
      </trkpt>
      <trkpt lat="48.04354" lon="6.92372">
        <ele>1041.6</ele>
        <time>2022-05-27T14:08:11Z</time>
      </trkpt>
      <trkpt lat="48.04363" lon="6.92365">
        <ele>1041.4</ele>
        <time>2022-05-27T14:08:13Z</time>
      </trkpt>
      <trkpt lat="48.04372" lon="6.92357">
        <ele>1041.3</ele>
        <time>2022-05-27T14:08:15Z</time>
      </trkpt>
      <trkpt lat="48.04381" lon="6.92351">
        <ele>1043.3</ele>
        <time>2022-05-27T14:08:17Z</time>
      </trkpt>
      <trkpt lat="48.04392" lon="6.92342">
        <ele>1043.6</ele>
        <time>2022-05-27T14:08:20Z</time>
      </trkpt>
      <trkpt lat="48.04402" lon="6.92331">
        <ele>1044.9</ele>
        <time>2022-05-27T14:08:23Z</time>
      </trkpt>
      <trkpt lat="48.04411" lon="6.92319">
        <ele>1047.1</ele>
        <time>2022-05-27T14:08:26Z</time>
      </trkpt>
      <trkpt lat="48.0442" lon="6.92308">
        <ele>1047.1</ele>
        <time>2022-05-27T14:08:29Z</time>
      </trkpt>
      <trkpt lat="48.04429" lon="6.92296">
        <ele>1046.2</ele>
        <time>2022-05-27T14:08:32Z</time>
      </trkpt>
      <trkpt lat="48.04436" lon="6.92282">
        <ele>1046.9</ele>
        <time>2022-05-27T14:08:35Z</time>
      </trkpt>
      <trkpt lat="48.04444" lon="6.92268">
        <ele>1047.3</ele>
        <time>2022-05-27T14:08:38Z</time>
      </trkpt>
      <trkpt lat="48.04452" lon="6.92258">
        <ele>1048.5</ele>
        <time>2022-05-27T14:08:41Z</time>
      </trkpt>
      <trkpt lat="48.04462" lon="6.92253">
        <ele>1048.6</ele>
        <time>2022-05-27T14:08:44Z</time>
      </trkpt>
      <trkpt lat="48.04472" lon="6.9225">
        <ele>1048.9</ele>
        <time>2022-05-27T14:08:47Z</time>
      </trkpt>
      <trkpt lat="48.04482" lon="6.92248">
        <ele>1049.7</ele>
        <time>2022-05-27T14:08:50Z</time>
      </trkpt>
      <trkpt lat="48.04495" lon="6.92243">
        <ele>1048.1</ele>
        <time>2022-05-27T14:08:53Z</time>
      </trkpt>
      <trkpt lat="48.04505" lon="6.92238">
        <ele>1047.4</ele>
        <time>2022-05-27T14:08:55Z</time>
      </trkpt>
      <trkpt lat="48.04514" lon="6.92232">
        <ele>1047.9</ele>
        <time>2022-05-27T14:08:57Z</time>
      </trkpt>
      <trkpt lat="48.04521" lon="6.92221">
        <ele>1047.9</ele>
        <time>2022-05-27T14:08:59Z</time>
      </trkpt>
      <trkpt lat="48.04525" lon="6.92208">
        <ele>1046.3</ele>
        <time>2022-05-27T14:09:01Z</time>
      </trkpt>
      <trkpt lat="48.04528" lon="6.92189">
        <ele>1045.8</ele>
        <time>2022-05-27T14:09:04Z</time>
      </trkpt>
      <trkpt lat="48.04531" lon="6.92176">
        <ele>1046.5</ele>
        <time>2022-05-27T14:09:06Z</time>
      </trkpt>
      <trkpt lat="48.04536" lon="6.92162">
        <ele>1046.4</ele>
        <time>2022-05-27T14:09:08Z</time>
      </trkpt>
      <trkpt lat="48.04542" lon="6.9215">
        <ele>1047.1</ele>
        <time>2022-05-27T14:09:10Z</time>
      </trkpt>
      <trkpt lat="48.04549" lon="6.92139">
        <ele>1047.3</ele>
        <time>2022-05-27T14:09:12Z</time>
      </trkpt>
      <trkpt lat="48.04558" lon="6.9213">
        <ele>1046.8</ele>
        <time>2022-05-27T14:09:14Z</time>
      </trkpt>
      <trkpt lat="48.04567" lon="6.92122">
        <ele>1046.6</ele>
        <time>2022-05-27T14:09:16Z</time>
      </trkpt>
      <trkpt lat="48.04577" lon="6.92115">
        <ele>1046.5</ele>
        <time>2022-05-27T14:09:18Z</time>
      </trkpt>
      <trkpt lat="48.04585" lon="6.92109">
        <ele>1047.4</ele>
        <time>2022-05-27T14:09:20Z</time>
      </trkpt>
      <trkpt lat="48.04596" lon="6.921">
        <ele>1047.8</ele>
        <time>2022-05-27T14:09:23Z</time>
      </trkpt>
      <trkpt lat="48.04606" lon="6.92094">
        <ele>1047.4</ele>
        <time>2022-05-27T14:09:26Z</time>
      </trkpt>
      <trkpt lat="48.04616" lon="6.92087">
        <ele>1047.5</ele>
        <time>2022-05-27T14:09:28Z</time>
      </trkpt>
      <trkpt lat="48.04624" lon="6.92079">
        <ele>1048.5</ele>
        <time>2022-05-27T14:09:30Z</time>
      </trkpt>
      <trkpt lat="48.04634" lon="6.92073">
        <ele>1047.7</ele>
        <time>2022-05-27T14:09:32Z</time>
      </trkpt>
      <trkpt lat="48.04647" lon="6.92072">
        <ele>1047</ele>
        <time>2022-05-27T14:09:35Z</time>
      </trkpt>
      <trkpt lat="48.0466" lon="6.92069">
        <ele>1047.8</ele>
        <time>2022-05-27T14:09:38Z</time>
      </trkpt>
      <trkpt lat="48.04673" lon="6.92071">
        <ele>1051.2</ele>
        <time>2022-05-27T14:09:41Z</time>
      </trkpt>
      <trkpt lat="48.04686" lon="6.92074">
        <ele>1052.1</ele>
        <time>2022-05-27T14:09:44Z</time>
      </trkpt>
      <trkpt lat="48.04694" lon="6.92078">
        <ele>1052.9</ele>
        <time>2022-05-27T14:09:46Z</time>
      </trkpt>
      <trkpt lat="48.04705" lon="6.92085">
        <ele>1052.3</ele>
        <time>2022-05-27T14:09:49Z</time>
      </trkpt>
      <trkpt lat="48.04717" lon="6.92093">
        <ele>1049.6</ele>
        <time>2022-05-27T14:09:52Z</time>
      </trkpt>
      <trkpt lat="48.04729" lon="6.921">
        <ele>1052.8</ele>
        <time>2022-05-27T14:09:55Z</time>
      </trkpt>
      <trkpt lat="48.04739" lon="6.92108">
        <ele>1053.7</ele>
        <time>2022-05-27T14:09:58Z</time>
      </trkpt>
      <trkpt lat="48.04748" lon="6.92119">
        <ele>1053.9</ele>
        <time>2022-05-27T14:10:01Z</time>
      </trkpt>
      <trkpt lat="48.04756" lon="6.92131">
        <ele>1054</ele>
        <time>2022-05-27T14:10:04Z</time>
      </trkpt>
      <trkpt lat="48.04763" lon="6.92144">
        <ele>1055.6</ele>
        <time>2022-05-27T14:10:07Z</time>
      </trkpt>
      <trkpt lat="48.0477" lon="6.92155">
        <ele>1055.5</ele>
        <time>2022-05-27T14:10:10Z</time>
      </trkpt>
      <trkpt lat="48.04776" lon="6.92166">
        <ele>1056.5</ele>
        <time>2022-05-27T14:10:14Z</time>
      </trkpt>
      <trkpt lat="48.04776" lon="6.92168">
        <ele>1056.1</ele>
        <time>2022-05-27T14:10:17Z</time>
      </trkpt>
      <trkpt lat="48.04777" lon="6.92169">
        <ele>1056.3</ele>
        <time>2022-05-27T14:10:46Z</time>
      </trkpt>
      <trkpt lat="48.04775" lon="6.92182">
        <ele>1055.7</ele>
        <time>2022-05-27T14:10:52Z</time>
      </trkpt>
      <trkpt lat="48.04775" lon="6.92198">
        <ele>1052.9</ele>
        <time>2022-05-27T14:10:56Z</time>
      </trkpt>
      <trkpt lat="48.04779" lon="6.9221">
        <ele>1052.6</ele>
        <time>2022-05-27T14:10:59Z</time>
      </trkpt>
      <trkpt lat="48.04784" lon="6.92227">
        <ele>1050.6</ele>
        <time>2022-05-27T14:11:02Z</time>
      </trkpt>
      <trkpt lat="48.04783" lon="6.92245">
        <ele>1044.4</ele>
        <time>2022-05-27T14:11:05Z</time>
      </trkpt>
      <trkpt lat="48.04783" lon="6.9226">
        <ele>1050.1</ele>
        <time>2022-05-27T14:11:08Z</time>
      </trkpt>
      <trkpt lat="48.04784" lon="6.92276">
        <ele>1047.6</ele>
        <time>2022-05-27T14:11:13Z</time>
      </trkpt>
      <trkpt lat="48.04788" lon="6.92291">
        <ele>1046.7</ele>
        <time>2022-05-27T14:11:16Z</time>
      </trkpt>
      <trkpt lat="48.04789" lon="6.92307">
        <ele>1043.3</ele>
        <time>2022-05-27T14:11:19Z</time>
      </trkpt>
      <trkpt lat="48.0479" lon="6.92324">
        <ele>1042.3</ele>
        <time>2022-05-27T14:11:23Z</time>
      </trkpt>
      <trkpt lat="48.04795" lon="6.92339">
        <ele>1042.6</ele>
        <time>2022-05-27T14:11:26Z</time>
      </trkpt>
      <trkpt lat="48.04798" lon="6.92356">
        <ele>1041.5</ele>
        <time>2022-05-27T14:11:30Z</time>
      </trkpt>
      <trkpt lat="48.048" lon="6.9237">
        <ele>1037.1</ele>
        <time>2022-05-27T14:11:34Z</time>
      </trkpt>
      <trkpt lat="48.04803" lon="6.92384">
        <ele>1035.2</ele>
        <time>2022-05-27T14:11:37Z</time>
      </trkpt>
      <trkpt lat="48.04806" lon="6.92401">
        <ele>1032.6</ele>
        <time>2022-05-27T14:11:40Z</time>
      </trkpt>
      <trkpt lat="48.04806" lon="6.92415">
        <ele>1033.8</ele>
        <time>2022-05-27T14:11:43Z</time>
      </trkpt>
      <trkpt lat="48.04808" lon="6.9243">
        <ele>1031.9</ele>
        <time>2022-05-27T14:11:47Z</time>
      </trkpt>
      <trkpt lat="48.0481" lon="6.92444">
        <ele>1029.1</ele>
        <time>2022-05-27T14:11:51Z</time>
      </trkpt>
      <trkpt lat="48.04813" lon="6.92458">
        <ele>1025.7</ele>
        <time>2022-05-27T14:11:54Z</time>
      </trkpt>
      <trkpt lat="48.04815" lon="6.92472">
        <ele>1024</ele>
        <time>2022-05-27T14:11:57Z</time>
      </trkpt>
      <trkpt lat="48.04821" lon="6.92483">
        <ele>1024.8</ele>
        <time>2022-05-27T14:12:03Z</time>
      </trkpt>
      <trkpt lat="48.04827" lon="6.92494">
        <ele>1024.4</ele>
        <time>2022-05-27T14:12:07Z</time>
      </trkpt>
      <trkpt lat="48.04829" lon="6.92508">
        <ele>1020.4</ele>
        <time>2022-05-27T14:12:10Z</time>
      </trkpt>
      <trkpt lat="48.04825" lon="6.92528">
        <ele>1019.3</ele>
        <time>2022-05-27T14:12:13Z</time>
      </trkpt>
      <trkpt lat="48.04825" lon="6.92543">
        <ele>1020.2</ele>
        <time>2022-05-27T14:12:17Z</time>
      </trkpt>
      <trkpt lat="48.04823" lon="6.92556">
        <ele>1018.3</ele>
        <time>2022-05-27T14:12:21Z</time>
      </trkpt>
      <trkpt lat="48.04827" lon="6.92571">
        <ele>1016.6</ele>
        <time>2022-05-27T14:12:24Z</time>
      </trkpt>
      <trkpt lat="48.04832" lon="6.92586">
        <ele>1015.4</ele>
        <time>2022-05-27T14:12:27Z</time>
      </trkpt>
      <trkpt lat="48.04832" lon="6.92602">
        <ele>1013.4</ele>
        <time>2022-05-27T14:12:30Z</time>
      </trkpt>
      <trkpt lat="48.04833" lon="6.92619">
        <ele>1010.9</ele>
        <time>2022-05-27T14:12:34Z</time>
      </trkpt>
      <trkpt lat="48.04832" lon="6.92635">
        <ele>1006.7</ele>
        <time>2022-05-27T14:12:38Z</time>
      </trkpt>
      <trkpt lat="48.04838" lon="6.9265">
        <ele>1005.9</ele>
        <time>2022-05-27T14:12:41Z</time>
      </trkpt>
      <trkpt lat="48.04843" lon="6.92663">
        <ele>1008.6</ele>
        <time>2022-05-27T14:12:43Z</time>
      </trkpt>
      <trkpt lat="48.04847" lon="6.9268">
        <ele>1006.5</ele>
        <time>2022-05-27T14:12:46Z</time>
      </trkpt>
      <trkpt lat="48.04845" lon="6.92694">
        <ele>1005</ele>
        <time>2022-05-27T14:12:51Z</time>
      </trkpt>
      <trkpt lat="48.04837" lon="6.92687">
        <ele>1001.9</ele>
        <time>2022-05-27T14:12:56Z</time>
      </trkpt>
      <trkpt lat="48.04831" lon="6.92675">
        <ele>1001.1</ele>
        <time>2022-05-27T14:13:01Z</time>
      </trkpt>
      <trkpt lat="48.04822" lon="6.92669">
        <ele>999.6</ele>
        <time>2022-05-27T14:13:06Z</time>
      </trkpt>
      <trkpt lat="48.0482" lon="6.92682">
        <ele>998.6</ele>
        <time>2022-05-27T14:13:14Z</time>
      </trkpt>
      <trkpt lat="48.04824" lon="6.92696">
        <ele>997.5</ele>
        <time>2022-05-27T14:13:18Z</time>
      </trkpt>
      <trkpt lat="48.04827" lon="6.92709">
        <ele>997.2</ele>
        <time>2022-05-27T14:13:21Z</time>
      </trkpt>
      <trkpt lat="48.04835" lon="6.92721">
        <ele>995.5</ele>
        <time>2022-05-27T14:13:26Z</time>
      </trkpt>
      <trkpt lat="48.04838" lon="6.92724">
        <ele>994.7</ele>
        <time>2022-05-27T14:13:30Z</time>
      </trkpt>
      <trkpt lat="48.0484" lon="6.92728">
        <ele>994.1</ele>
        <time>2022-05-27T14:13:41Z</time>
      </trkpt>
      <trkpt lat="48.0484" lon="6.92729">
        <ele>993.5</ele>
        <time>2022-05-27T14:13:43Z</time>
      </trkpt>
      <trkpt lat="48.04839" lon="6.9273">
        <ele>993.2</ele>
        <time>2022-05-27T14:13:46Z</time>
      </trkpt>
      <trkpt lat="48.04836" lon="6.92731">
        <ele>992.5</ele>
        <time>2022-05-27T14:13:52Z</time>
      </trkpt>
      <trkpt lat="48.04836" lon="6.92731">
        <ele>992.3</ele>
        <time>2022-05-27T14:13:56Z</time>
      </trkpt>
      <trkpt lat="48.04827" lon="6.92737">
        <ele>988.6</ele>
        <time>2022-05-27T14:14:04Z</time>
      </trkpt>
      <trkpt lat="48.04818" lon="6.92743">
        <ele>986.2</ele>
        <time>2022-05-27T14:14:09Z</time>
      </trkpt>
      <trkpt lat="48.04809" lon="6.92739">
        <ele>984.8</ele>
        <time>2022-05-27T14:14:14Z</time>
      </trkpt>
      <trkpt lat="48.04798" lon="6.92745">
        <ele>983.3</ele>
        <time>2022-05-27T14:14:17Z</time>
      </trkpt>
      <trkpt lat="48.04802" lon="6.92752">
        <ele>982.5</ele>
        <time>2022-05-27T14:14:24Z</time>
      </trkpt>
      <trkpt lat="48.04803" lon="6.92752">
        <ele>983.2</ele>
        <time>2022-05-27T14:14:45Z</time>
      </trkpt>
      <trkpt lat="48.04803" lon="6.92752">
        <ele>983.4</ele>
        <time>2022-05-27T14:14:53Z</time>
      </trkpt>
      <trkpt lat="48.04805" lon="6.9275">
        <ele>983.2</ele>
        <time>2022-05-27T14:15:03Z</time>
      </trkpt>
      <trkpt lat="48.04806" lon="6.92749">
        <ele>983.7</ele>
        <time>2022-05-27T14:15:05Z</time>
      </trkpt>
      <trkpt lat="48.04806" lon="6.92749">
        <ele>983.4</ele>
        <time>2022-05-27T14:15:22Z</time>
      </trkpt>
      <trkpt lat="48.04806" lon="6.92746">
        <ele>983.3</ele>
        <time>2022-05-27T14:15:26Z</time>
      </trkpt>
      <trkpt lat="48.04806" lon="6.92747">
        <ele>983.9</ele>
        <time>2022-05-27T14:16:06Z</time>
      </trkpt>
      <trkpt lat="48.04806" lon="6.92747">
        <ele>984.1</ele>
        <time>2022-05-27T14:16:24Z</time>
      </trkpt>
      <trkpt lat="48.04807" lon="6.92747">
        <ele>984.1</ele>
        <time>2022-05-27T14:16:54Z</time>
      </trkpt>
      <trkpt lat="48.04807" lon="6.92746">
        <ele>984.5</ele>
        <time>2022-05-27T14:17:15Z</time>
      </trkpt>
      <trkpt lat="48.04806" lon="6.92745">
        <ele>984.4</ele>
        <time>2022-05-27T14:18:04Z</time>
      </trkpt>
      <trkpt lat="48.04802" lon="6.92731">
        <ele>984.9</ele>
        <time>2022-05-27T14:18:10Z</time>
      </trkpt>
      <trkpt lat="48.04798" lon="6.92717">
        <ele>984.9</ele>
        <time>2022-05-27T14:18:15Z</time>
      </trkpt>
      <trkpt lat="48.04793" lon="6.92705">
        <ele>985.5</ele>
        <time>2022-05-27T14:18:20Z</time>
      </trkpt>
      <trkpt lat="48.04788" lon="6.92693">
        <ele>986</ele>
        <time>2022-05-27T14:18:25Z</time>
      </trkpt>
      <trkpt lat="48.0478" lon="6.92679">
        <ele>986.6</ele>
        <time>2022-05-27T14:18:29Z</time>
      </trkpt>
      <trkpt lat="48.04775" lon="6.92665">
        <ele>986.1</ele>
        <time>2022-05-27T14:18:32Z</time>
      </trkpt>
      <trkpt lat="48.04771" lon="6.92651">
        <ele>986.3</ele>
        <time>2022-05-27T14:18:35Z</time>
      </trkpt>
      <trkpt lat="48.04768" lon="6.92635">
        <ele>986</ele>
        <time>2022-05-27T14:18:38Z</time>
      </trkpt>
      <trkpt lat="48.04763" lon="6.92618">
        <ele>985.4</ele>
        <time>2022-05-27T14:18:41Z</time>
      </trkpt>
      <trkpt lat="48.04757" lon="6.92602">
        <ele>985.4</ele>
        <time>2022-05-27T14:18:44Z</time>
      </trkpt>
      <trkpt lat="48.04751" lon="6.92586">
        <ele>986.6</ele>
        <time>2022-05-27T14:18:47Z</time>
      </trkpt>
      <trkpt lat="48.04747" lon="6.92573">
        <ele>986.1</ele>
        <time>2022-05-27T14:18:50Z</time>
      </trkpt>
      <trkpt lat="48.04742" lon="6.92557">
        <ele>986.3</ele>
        <time>2022-05-27T14:18:53Z</time>
      </trkpt>
      <trkpt lat="48.04738" lon="6.92545">
        <ele>986.3</ele>
        <time>2022-05-27T14:18:55Z</time>
      </trkpt>
      <trkpt lat="48.04732" lon="6.92534">
        <ele>985.2</ele>
        <time>2022-05-27T14:18:57Z</time>
      </trkpt>
      <trkpt lat="48.04725" lon="6.92524">
        <ele>986.3</ele>
        <time>2022-05-27T14:18:59Z</time>
      </trkpt>
      <trkpt lat="48.04714" lon="6.92516">
        <ele>985.3</ele>
        <time>2022-05-27T14:19:01Z</time>
      </trkpt>
      <trkpt lat="48.04705" lon="6.92506">
        <ele>981.4</ele>
        <time>2022-05-27T14:19:03Z</time>
      </trkpt>
      <trkpt lat="48.04694" lon="6.92494">
        <ele>982</ele>
        <time>2022-05-27T14:19:05Z</time>
      </trkpt>
      <trkpt lat="48.04683" lon="6.9248">
        <ele>982.7</ele>
        <time>2022-05-27T14:19:07Z</time>
      </trkpt>
      <trkpt lat="48.04671" lon="6.92464">
        <ele>980.7</ele>
        <time>2022-05-27T14:19:09Z</time>
      </trkpt>
      <trkpt lat="48.04658" lon="6.92446">
        <ele>977.5</ele>
        <time>2022-05-27T14:19:11Z</time>
      </trkpt>
      <trkpt lat="48.04646" lon="6.92431">
        <ele>979.7</ele>
        <time>2022-05-27T14:19:13Z</time>
      </trkpt>
      <trkpt lat="48.04637" lon="6.92417">
        <ele>978.1</ele>
        <time>2022-05-27T14:19:15Z</time>
      </trkpt>
      <trkpt lat="48.04625" lon="6.92407">
        <ele>977.1</ele>
        <time>2022-05-27T14:19:17Z</time>
      </trkpt>
      <trkpt lat="48.04613" lon="6.92406">
        <ele>978.3</ele>
        <time>2022-05-27T14:19:19Z</time>
      </trkpt>
      <trkpt lat="48.04603" lon="6.92409">
        <ele>981.2</ele>
        <time>2022-05-27T14:19:21Z</time>
      </trkpt>
      <trkpt lat="48.04591" lon="6.92415">
        <ele>979.6</ele>
        <time>2022-05-27T14:19:24Z</time>
      </trkpt>
      <trkpt lat="48.04581" lon="6.9242">
        <ele>981.3</ele>
        <time>2022-05-27T14:19:27Z</time>
      </trkpt>
      <trkpt lat="48.04569" lon="6.92428">
        <ele>980.7</ele>
        <time>2022-05-27T14:19:30Z</time>
      </trkpt>
      <trkpt lat="48.04556" lon="6.92438">
        <ele>981.6</ele>
        <time>2022-05-27T14:19:33Z</time>
      </trkpt>
      <trkpt lat="48.04549" lon="6.92445">
        <ele>979.9</ele>
        <time>2022-05-27T14:19:35Z</time>
      </trkpt>
      <trkpt lat="48.0454" lon="6.92452">
        <ele>981.3</ele>
        <time>2022-05-27T14:19:37Z</time>
      </trkpt>
      <trkpt lat="48.04529" lon="6.92459">
        <ele>981.7</ele>
        <time>2022-05-27T14:19:40Z</time>
      </trkpt>
      <trkpt lat="48.0452" lon="6.92468">
        <ele>984.1</ele>
        <time>2022-05-27T14:19:43Z</time>
      </trkpt>
      <trkpt lat="48.04512" lon="6.92476">
        <ele>984.8</ele>
        <time>2022-05-27T14:19:46Z</time>
      </trkpt>
      <trkpt lat="48.04504" lon="6.92482">
        <ele>987</ele>
        <time>2022-05-27T14:19:49Z</time>
      </trkpt>
      <trkpt lat="48.04495" lon="6.92491">
        <ele>986.3</ele>
        <time>2022-05-27T14:19:53Z</time>
      </trkpt>
      <trkpt lat="48.04486" lon="6.925">
        <ele>989</ele>
        <time>2022-05-27T14:19:57Z</time>
      </trkpt>
      <trkpt lat="48.04476" lon="6.92507">
        <ele>989.3</ele>
        <time>2022-05-27T14:20:01Z</time>
      </trkpt>
      <trkpt lat="48.04466" lon="6.92513">
        <ele>990.2</ele>
        <time>2022-05-27T14:20:05Z</time>
      </trkpt>
      <trkpt lat="48.04457" lon="6.92525">
        <ele>990.2</ele>
        <time>2022-05-27T14:20:09Z</time>
      </trkpt>
      <trkpt lat="48.04451" lon="6.92538">
        <ele>992.3</ele>
        <time>2022-05-27T14:20:12Z</time>
      </trkpt>
      <trkpt lat="48.04445" lon="6.9255">
        <ele>992.2</ele>
        <time>2022-05-27T14:20:14Z</time>
      </trkpt>
      <trkpt lat="48.04439" lon="6.92565">
        <ele>989.9</ele>
        <time>2022-05-27T14:20:16Z</time>
      </trkpt>
      <trkpt lat="48.04431" lon="6.92585">
        <ele>986.5</ele>
        <time>2022-05-27T14:20:18Z</time>
      </trkpt>
      <trkpt lat="48.0442" lon="6.92605">
        <ele>982.3</ele>
        <time>2022-05-27T14:20:20Z</time>
      </trkpt>
      <trkpt lat="48.04407" lon="6.9262">
        <ele>978.3</ele>
        <time>2022-05-27T14:20:22Z</time>
      </trkpt>
      <trkpt lat="48.04393" lon="6.92631">
        <ele>976.3</ele>
        <time>2022-05-27T14:20:24Z</time>
      </trkpt>
      <trkpt lat="48.04378" lon="6.92643">
        <ele>972.9</ele>
        <time>2022-05-27T14:20:26Z</time>
      </trkpt>
      <trkpt lat="48.04369" lon="6.92647">
        <ele>972.5</ele>
        <time>2022-05-27T14:20:27Z</time>
      </trkpt>
      <trkpt lat="48.0436" lon="6.9265">
        <ele>972.7</ele>
        <time>2022-05-27T14:20:28Z</time>
      </trkpt>
      <trkpt lat="48.0435" lon="6.9265">
        <ele>974.3</ele>
        <time>2022-05-27T14:20:29Z</time>
      </trkpt>
      <trkpt lat="48.04341" lon="6.9265">
        <ele>974.8</ele>
        <time>2022-05-27T14:20:30Z</time>
      </trkpt>
      <trkpt lat="48.04324" lon="6.92647">
        <ele>973.2</ele>
        <time>2022-05-27T14:20:32Z</time>
      </trkpt>
      <trkpt lat="48.04309" lon="6.92649">
        <ele>973.9</ele>
        <time>2022-05-27T14:20:34Z</time>
      </trkpt>
      <trkpt lat="48.04296" lon="6.92648">
        <ele>972.2</ele>
        <time>2022-05-27T14:20:36Z</time>
      </trkpt>
      <trkpt lat="48.04283" lon="6.92646">
        <ele>973.4</ele>
        <time>2022-05-27T14:20:38Z</time>
      </trkpt>
      <trkpt lat="48.04271" lon="6.92648">
        <ele>975.1</ele>
        <time>2022-05-27T14:20:40Z</time>
      </trkpt>
      <trkpt lat="48.0426" lon="6.92648">
        <ele>975.5</ele>
        <time>2022-05-27T14:20:42Z</time>
      </trkpt>
      <trkpt lat="48.04251" lon="6.92646">
        <ele>975.9</ele>
        <time>2022-05-27T14:20:44Z</time>
      </trkpt>
      <trkpt lat="48.04238" lon="6.92644">
        <ele>977.3</ele>
        <time>2022-05-27T14:20:47Z</time>
      </trkpt>
      <trkpt lat="48.04227" lon="6.92638">
        <ele>975.8</ele>
        <time>2022-05-27T14:20:50Z</time>
      </trkpt>
      <trkpt lat="48.04214" lon="6.9263">
        <ele>977.9</ele>
        <time>2022-05-27T14:20:53Z</time>
      </trkpt>
      <trkpt lat="48.04205" lon="6.92625">
        <ele>978.1</ele>
        <time>2022-05-27T14:20:55Z</time>
      </trkpt>
      <trkpt lat="48.04192" lon="6.92619">
        <ele>979</ele>
        <time>2022-05-27T14:20:58Z</time>
      </trkpt>
      <trkpt lat="48.04181" lon="6.92613">
        <ele>979.3</ele>
        <time>2022-05-27T14:21:00Z</time>
      </trkpt>
      <trkpt lat="48.04172" lon="6.92609">
        <ele>979.6</ele>
        <time>2022-05-27T14:21:02Z</time>
      </trkpt>
      <trkpt lat="48.04162" lon="6.92605">
        <ele>979.5</ele>
        <time>2022-05-27T14:21:04Z</time>
      </trkpt>
      <trkpt lat="48.04152" lon="6.92602">
        <ele>978.1</ele>
        <time>2022-05-27T14:21:06Z</time>
      </trkpt>
      <trkpt lat="48.04143" lon="6.92596">
        <ele>978.7</ele>
        <time>2022-05-27T14:21:08Z</time>
      </trkpt>
      <trkpt lat="48.04134" lon="6.9259">
        <ele>979.6</ele>
        <time>2022-05-27T14:21:10Z</time>
      </trkpt>
      <trkpt lat="48.04124" lon="6.9258">
        <ele>978.8</ele>
        <time>2022-05-27T14:21:13Z</time>
      </trkpt>
      <trkpt lat="48.04115" lon="6.92573">
        <ele>979.7</ele>
        <time>2022-05-27T14:21:16Z</time>
      </trkpt>
      <trkpt lat="48.04106" lon="6.92568">
        <ele>980</ele>
        <time>2022-05-27T14:21:20Z</time>
      </trkpt>
      <trkpt lat="48.04097" lon="6.92562">
        <ele>978.9</ele>
        <time>2022-05-27T14:21:23Z</time>
      </trkpt>
      <trkpt lat="48.04086" lon="6.92556">
        <ele>978.2</ele>
        <time>2022-05-27T14:21:26Z</time>
      </trkpt>
      <trkpt lat="48.04077" lon="6.92549">
        <ele>976.8</ele>
        <time>2022-05-27T14:21:29Z</time>
      </trkpt>
      <trkpt lat="48.04067" lon="6.92544">
        <ele>976</ele>
        <time>2022-05-27T14:21:32Z</time>
      </trkpt>
      <trkpt lat="48.04058" lon="6.92537">
        <ele>975.5</ele>
        <time>2022-05-27T14:21:34Z</time>
      </trkpt>
      <trkpt lat="48.04047" lon="6.92529">
        <ele>975.4</ele>
        <time>2022-05-27T14:21:36Z</time>
      </trkpt>
      <trkpt lat="48.04036" lon="6.92522">
        <ele>974.4</ele>
        <time>2022-05-27T14:21:38Z</time>
      </trkpt>
      <trkpt lat="48.04024" lon="6.92518">
        <ele>972.7</ele>
        <time>2022-05-27T14:21:40Z</time>
      </trkpt>
      <trkpt lat="48.04013" lon="6.92514">
        <ele>972.2</ele>
        <time>2022-05-27T14:21:42Z</time>
      </trkpt>
      <trkpt lat="48.04002" lon="6.9251">
        <ele>967.5</ele>
        <time>2022-05-27T14:21:44Z</time>
      </trkpt>
      <trkpt lat="48.0399" lon="6.92505">
        <ele>965.5</ele>
        <time>2022-05-27T14:21:46Z</time>
      </trkpt>
      <trkpt lat="48.03979" lon="6.92499">
        <ele>964.2</ele>
        <time>2022-05-27T14:21:48Z</time>
      </trkpt>
      <trkpt lat="48.03968" lon="6.92492">
        <ele>964.9</ele>
        <time>2022-05-27T14:21:50Z</time>
      </trkpt>
      <trkpt lat="48.03958" lon="6.92479">
        <ele>961.9</ele>
        <time>2022-05-27T14:21:53Z</time>
      </trkpt>
      <trkpt lat="48.03953" lon="6.92465">
        <ele>960</ele>
        <time>2022-05-27T14:21:55Z</time>
      </trkpt>
      <trkpt lat="48.03947" lon="6.92451">
        <ele>960.3</ele>
        <time>2022-05-27T14:21:57Z</time>
      </trkpt>
      <trkpt lat="48.03939" lon="6.92438">
        <ele>959.9</ele>
        <time>2022-05-27T14:21:59Z</time>
      </trkpt>
      <trkpt lat="48.03933" lon="6.92424">
        <ele>961.4</ele>
        <time>2022-05-27T14:22:01Z</time>
      </trkpt>
      <trkpt lat="48.03927" lon="6.9241">
        <ele>960.1</ele>
        <time>2022-05-27T14:22:04Z</time>
      </trkpt>
      <trkpt lat="48.03926" lon="6.92406">
        <ele>961.5</ele>
        <time>2022-05-27T14:22:08Z</time>
      </trkpt>
      <trkpt lat="48.03925" lon="6.92406">
        <ele>961.6</ele>
        <time>2022-05-27T14:22:14Z</time>
      </trkpt>
      <trkpt lat="48.03925" lon="6.92406">
        <ele>961.5</ele>
        <time>2022-05-27T14:22:25Z</time>
      </trkpt>
      <trkpt lat="48.0392" lon="6.92391">
        <ele>960.7</ele>
        <time>2022-05-27T14:22:31Z</time>
      </trkpt>
      <trkpt lat="48.03916" lon="6.92377">
        <ele>959.4</ele>
        <time>2022-05-27T14:22:34Z</time>
      </trkpt>
      <trkpt lat="48.03914" lon="6.92359">
        <ele>961</ele>
        <time>2022-05-27T14:22:37Z</time>
      </trkpt>
      <trkpt lat="48.03915" lon="6.9234">
        <ele>960</ele>
        <time>2022-05-27T14:22:40Z</time>
      </trkpt>
      <trkpt lat="48.03918" lon="6.92321">
        <ele>963</ele>
        <time>2022-05-27T14:22:43Z</time>
      </trkpt>
      <trkpt lat="48.03923" lon="6.92303">
        <ele>962.2</ele>
        <time>2022-05-27T14:22:46Z</time>
      </trkpt>
      <trkpt lat="48.03921" lon="6.92285">
        <ele>959.9</ele>
        <time>2022-05-27T14:22:49Z</time>
      </trkpt>
      <trkpt lat="48.03914" lon="6.92277">
        <ele>958.5</ele>
        <time>2022-05-27T14:22:51Z</time>
      </trkpt>
      <trkpt lat="48.03904" lon="6.92268">
        <ele>956.8</ele>
        <time>2022-05-27T14:22:53Z</time>
      </trkpt>
      <trkpt lat="48.03892" lon="6.92257">
        <ele>956.9</ele>
        <time>2022-05-27T14:22:55Z</time>
      </trkpt>
      <trkpt lat="48.03882" lon="6.92245">
        <ele>957.7</ele>
        <time>2022-05-27T14:22:57Z</time>
      </trkpt>
      <trkpt lat="48.03874" lon="6.92235">
        <ele>957.5</ele>
        <time>2022-05-27T14:22:59Z</time>
      </trkpt>
      <trkpt lat="48.03865" lon="6.92227">
        <ele>958.1</ele>
        <time>2022-05-27T14:23:01Z</time>
      </trkpt>
      <trkpt lat="48.03857" lon="6.92217">
        <ele>957.1</ele>
        <time>2022-05-27T14:23:03Z</time>
      </trkpt>
      <trkpt lat="48.03847" lon="6.92207">
        <ele>958.1</ele>
        <time>2022-05-27T14:23:05Z</time>
      </trkpt>
      <trkpt lat="48.03835" lon="6.92197">
        <ele>957.4</ele>
        <time>2022-05-27T14:23:07Z</time>
      </trkpt>
      <trkpt lat="48.03826" lon="6.92187">
        <ele>956.6</ele>
        <time>2022-05-27T14:23:09Z</time>
      </trkpt>
      <trkpt lat="48.03817" lon="6.92176">
        <ele>956</ele>
        <time>2022-05-27T14:23:11Z</time>
      </trkpt>
      <trkpt lat="48.03807" lon="6.92164">
        <ele>955</ele>
        <time>2022-05-27T14:23:13Z</time>
      </trkpt>
      <trkpt lat="48.03797" lon="6.92151">
        <ele>955.2</ele>
        <time>2022-05-27T14:23:15Z</time>
      </trkpt>
      <trkpt lat="48.03786" lon="6.92139">
        <ele>955.8</ele>
        <time>2022-05-27T14:23:17Z</time>
      </trkpt>
      <trkpt lat="48.03772" lon="6.92128">
        <ele>953.7</ele>
        <time>2022-05-27T14:23:19Z</time>
      </trkpt>
      <trkpt lat="48.03758" lon="6.92117">
        <ele>951.7</ele>
        <time>2022-05-27T14:23:21Z</time>
      </trkpt>
      <trkpt lat="48.03747" lon="6.92104">
        <ele>950.8</ele>
        <time>2022-05-27T14:23:23Z</time>
      </trkpt>
      <trkpt lat="48.03739" lon="6.92086">
        <ele>949.9</ele>
        <time>2022-05-27T14:23:25Z</time>
      </trkpt>
      <trkpt lat="48.03731" lon="6.92071">
        <ele>953.6</ele>
        <time>2022-05-27T14:23:27Z</time>
      </trkpt>
      <trkpt lat="48.03723" lon="6.92065">
        <ele>952.6</ele>
        <time>2022-05-27T14:23:30Z</time>
      </trkpt>
      <trkpt lat="48.03721" lon="6.92065">
        <ele>953.6</ele>
        <time>2022-05-27T14:23:33Z</time>
      </trkpt>
      <trkpt lat="48.03721" lon="6.92065">
        <ele>953.8</ele>
        <time>2022-05-27T14:24:08Z</time>
      </trkpt>
      <trkpt lat="48.03722" lon="6.92081">
        <ele>952.7</ele>
        <time>2022-05-27T14:24:22Z</time>
      </trkpt>
      <trkpt lat="48.03729" lon="6.92097">
        <ele>953.5</ele>
        <time>2022-05-27T14:24:25Z</time>
      </trkpt>
      <trkpt lat="48.03737" lon="6.92109">
        <ele>947.8</ele>
        <time>2022-05-27T14:24:27Z</time>
      </trkpt>
      <trkpt lat="48.03745" lon="6.92123">
        <ele>947.7</ele>
        <time>2022-05-27T14:24:29Z</time>
      </trkpt>
      <trkpt lat="48.03755" lon="6.92136">
        <ele>948.3</ele>
        <time>2022-05-27T14:24:31Z</time>
      </trkpt>
      <trkpt lat="48.03764" lon="6.92148">
        <ele>948.1</ele>
        <time>2022-05-27T14:24:33Z</time>
      </trkpt>
      <trkpt lat="48.03772" lon="6.92162">
        <ele>946.7</ele>
        <time>2022-05-27T14:24:35Z</time>
      </trkpt>
      <trkpt lat="48.03778" lon="6.92178">
        <ele>946.3</ele>
        <time>2022-05-27T14:24:37Z</time>
      </trkpt>
      <trkpt lat="48.03783" lon="6.92195">
        <ele>945.2</ele>
        <time>2022-05-27T14:24:39Z</time>
      </trkpt>
      <trkpt lat="48.03788" lon="6.92214">
        <ele>943.1</ele>
        <time>2022-05-27T14:24:41Z</time>
      </trkpt>
      <trkpt lat="48.03792" lon="6.92233">
        <ele>943.3</ele>
        <time>2022-05-27T14:24:43Z</time>
      </trkpt>
      <trkpt lat="48.03794" lon="6.92254">
        <ele>939.5</ele>
        <time>2022-05-27T14:24:45Z</time>
      </trkpt>
      <trkpt lat="48.03798" lon="6.92275">
        <ele>937.4</ele>
        <time>2022-05-27T14:24:47Z</time>
      </trkpt>
      <trkpt lat="48.03804" lon="6.92292">
        <ele>935.1</ele>
        <time>2022-05-27T14:24:49Z</time>
      </trkpt>
      <trkpt lat="48.03811" lon="6.92305">
        <ele>934.4</ele>
        <time>2022-05-27T14:24:51Z</time>
      </trkpt>
      <trkpt lat="48.03821" lon="6.92312">
        <ele>934.7</ele>
        <time>2022-05-27T14:24:53Z</time>
      </trkpt>
      <trkpt lat="48.03832" lon="6.92321">
        <ele>935</ele>
        <time>2022-05-27T14:24:55Z</time>
      </trkpt>
      <trkpt lat="48.03839" lon="6.92334">
        <ele>934.1</ele>
        <time>2022-05-27T14:24:57Z</time>
      </trkpt>
      <trkpt lat="48.03841" lon="6.92347">
        <ele>934.7</ele>
        <time>2022-05-27T14:24:59Z</time>
      </trkpt>
      <trkpt lat="48.03834" lon="6.92363">
        <ele>933.4</ele>
        <time>2022-05-27T14:25:02Z</time>
      </trkpt>
      <trkpt lat="48.03828" lon="6.92377">
        <ele>931.5</ele>
        <time>2022-05-27T14:25:05Z</time>
      </trkpt>
      <trkpt lat="48.03822" lon="6.92391">
        <ele>928.9</ele>
        <time>2022-05-27T14:25:07Z</time>
      </trkpt>
      <trkpt lat="48.03818" lon="6.92405">
        <ele>927.4</ele>
        <time>2022-05-27T14:25:09Z</time>
      </trkpt>
      <trkpt lat="48.03813" lon="6.92421">
        <ele>925.1</ele>
        <time>2022-05-27T14:25:11Z</time>
      </trkpt>
      <trkpt lat="48.03806" lon="6.92435">
        <ele>925.5</ele>
        <time>2022-05-27T14:25:13Z</time>
      </trkpt>
      <trkpt lat="48.038" lon="6.92447">
        <ele>927.3</ele>
        <time>2022-05-27T14:25:16Z</time>
      </trkpt>
      <trkpt lat="48.03799" lon="6.92456">
        <ele>925.1</ele>
        <time>2022-05-27T14:25:23Z</time>
      </trkpt>
      <trkpt lat="48.038" lon="6.92456">
        <ele>925.1</ele>
        <time>2022-05-27T14:25:25Z</time>
      </trkpt>
      <trkpt lat="48.038" lon="6.92457">
        <ele>925</ele>
        <time>2022-05-27T14:25:29Z</time>
      </trkpt>
      <trkpt lat="48.03801" lon="6.9247">
        <ele>924.1</ele>
        <time>2022-05-27T14:25:35Z</time>
      </trkpt>
      <trkpt lat="48.03798" lon="6.92487">
        <ele>922.2</ele>
        <time>2022-05-27T14:25:42Z</time>
      </trkpt>
      <trkpt lat="48.03794" lon="6.92499">
        <ele>921.3</ele>
        <time>2022-05-27T14:25:46Z</time>
      </trkpt>
      <trkpt lat="48.0379" lon="6.92513">
        <ele>920.6</ele>
        <time>2022-05-27T14:25:54Z</time>
      </trkpt>
      <trkpt lat="48.0379" lon="6.92512">
        <ele>920.7</ele>
        <time>2022-05-27T14:25:56Z</time>
      </trkpt>
      <trkpt lat="48.0379" lon="6.9251">
        <ele>920.4</ele>
        <time>2022-05-27T14:26:00Z</time>
      </trkpt>
      <trkpt lat="48.03789" lon="6.92511">
        <ele>920.5</ele>
        <time>2022-05-27T14:26:30Z</time>
      </trkpt>
      <trkpt lat="48.03788" lon="6.92512">
        <ele>920.4</ele>
        <time>2022-05-27T14:26:33Z</time>
      </trkpt>
      <trkpt lat="48.03788" lon="6.92512">
        <ele>920.8</ele>
        <time>2022-05-27T14:26:59Z</time>
      </trkpt>
      <trkpt lat="48.03789" lon="6.92513">
        <ele>921.5</ele>
        <time>2022-05-27T14:27:28Z</time>
      </trkpt>
      <trkpt lat="48.03789" lon="6.92514">
        <ele>921.4</ele>
        <time>2022-05-27T14:27:30Z</time>
      </trkpt>
      <trkpt lat="48.03796" lon="6.92523">
        <ele>920.2</ele>
        <time>2022-05-27T14:27:46Z</time>
      </trkpt>
      <trkpt lat="48.03803" lon="6.92533">
        <ele>916.4</ele>
        <time>2022-05-27T14:27:49Z</time>
      </trkpt>
      <trkpt lat="48.03815" lon="6.92545">
        <ele>916.4</ele>
        <time>2022-05-27T14:27:52Z</time>
      </trkpt>
      <trkpt lat="48.03823" lon="6.92553">
        <ele>915.9</ele>
        <time>2022-05-27T14:27:54Z</time>
      </trkpt>
      <trkpt lat="48.03832" lon="6.92566">
        <ele>913.8</ele>
        <time>2022-05-27T14:27:57Z</time>
      </trkpt>
      <trkpt lat="48.03839" lon="6.92582">
        <ele>913.9</ele>
        <time>2022-05-27T14:28:00Z</time>
      </trkpt>
      <trkpt lat="48.03841" lon="6.926">
        <ele>911.7</ele>
        <time>2022-05-27T14:28:03Z</time>
      </trkpt>
      <trkpt lat="48.03843" lon="6.92617">
        <ele>910</ele>
        <time>2022-05-27T14:28:05Z</time>
      </trkpt>
      <trkpt lat="48.03849" lon="6.92633">
        <ele>906.2</ele>
        <time>2022-05-27T14:28:07Z</time>
      </trkpt>
      <trkpt lat="48.03855" lon="6.92651">
        <ele>904</ele>
        <time>2022-05-27T14:28:09Z</time>
      </trkpt>
      <trkpt lat="48.03857" lon="6.92673">
        <ele>905</ele>
        <time>2022-05-27T14:28:11Z</time>
      </trkpt>
      <trkpt lat="48.0386" lon="6.92689">
        <ele>905.8</ele>
        <time>2022-05-27T14:28:13Z</time>
      </trkpt>
      <trkpt lat="48.03868" lon="6.92702">
        <ele>901.7</ele>
        <time>2022-05-27T14:28:15Z</time>
      </trkpt>
      <trkpt lat="48.03878" lon="6.92713">
        <ele>899.9</ele>
        <time>2022-05-27T14:28:17Z</time>
      </trkpt>
      <trkpt lat="48.03889" lon="6.92727">
        <ele>896.5</ele>
        <time>2022-05-27T14:28:19Z</time>
      </trkpt>
      <trkpt lat="48.03897" lon="6.92741">
        <ele>901.6</ele>
        <time>2022-05-27T14:28:21Z</time>
      </trkpt>
      <trkpt lat="48.03907" lon="6.92754">
        <ele>898.3</ele>
        <time>2022-05-27T14:28:23Z</time>
      </trkpt>
      <trkpt lat="48.03918" lon="6.9277">
        <ele>893.7</ele>
        <time>2022-05-27T14:28:25Z</time>
      </trkpt>
      <trkpt lat="48.0393" lon="6.92788">
        <ele>893.3</ele>
        <time>2022-05-27T14:28:27Z</time>
      </trkpt>
      <trkpt lat="48.03941" lon="6.92805">
        <ele>891.4</ele>
        <time>2022-05-27T14:28:29Z</time>
      </trkpt>
      <trkpt lat="48.03951" lon="6.92822">
        <ele>887.7</ele>
        <time>2022-05-27T14:28:31Z</time>
      </trkpt>
      <trkpt lat="48.0396" lon="6.92845">
        <ele>884.5</ele>
        <time>2022-05-27T14:28:33Z</time>
      </trkpt>
      <trkpt lat="48.03964" lon="6.92869">
        <ele>883.3</ele>
        <time>2022-05-27T14:28:35Z</time>
      </trkpt>
      <trkpt lat="48.03967" lon="6.92887">
        <ele>884</ele>
        <time>2022-05-27T14:28:37Z</time>
      </trkpt>
      <trkpt lat="48.03961" lon="6.929">
        <ele>884.4</ele>
        <time>2022-05-27T14:28:40Z</time>
      </trkpt>
      <trkpt lat="48.03953" lon="6.92891">
        <ele>883.2</ele>
        <time>2022-05-27T14:28:44Z</time>
      </trkpt>
      <trkpt lat="48.03947" lon="6.92876">
        <ele>882.1</ele>
        <time>2022-05-27T14:28:49Z</time>
      </trkpt>
      <trkpt lat="48.03943" lon="6.92864">
        <ele>882.9</ele>
        <time>2022-05-27T14:28:55Z</time>
      </trkpt>
      <trkpt lat="48.03936" lon="6.92854">
        <ele>881.4</ele>
        <time>2022-05-27T14:29:00Z</time>
      </trkpt>
      <trkpt lat="48.03928" lon="6.92846">
        <ele>878.2</ele>
        <time>2022-05-27T14:29:03Z</time>
      </trkpt>
      <trkpt lat="48.03918" lon="6.9284">
        <ele>878.8</ele>
        <time>2022-05-27T14:29:05Z</time>
      </trkpt>
      <trkpt lat="48.03908" lon="6.92833">
        <ele>877.3</ele>
        <time>2022-05-27T14:29:07Z</time>
      </trkpt>
      <trkpt lat="48.03897" lon="6.92826">
        <ele>877.6</ele>
        <time>2022-05-27T14:29:09Z</time>
      </trkpt>
      <trkpt lat="48.03883" lon="6.9282">
        <ele>877.7</ele>
        <time>2022-05-27T14:29:11Z</time>
      </trkpt>
      <trkpt lat="48.03869" lon="6.92811">
        <ele>875.3</ele>
        <time>2022-05-27T14:29:13Z</time>
      </trkpt>
      <trkpt lat="48.03854" lon="6.92801">
        <ele>873.4</ele>
        <time>2022-05-27T14:29:15Z</time>
      </trkpt>
      <trkpt lat="48.03844" lon="6.92797">
        <ele>871.3</ele>
        <time>2022-05-27T14:29:16Z</time>
      </trkpt>
      <trkpt lat="48.03829" lon="6.92786">
        <ele>872.6</ele>
        <time>2022-05-27T14:29:18Z</time>
      </trkpt>
      <trkpt lat="48.03815" lon="6.9277">
        <ele>872.8</ele>
        <time>2022-05-27T14:29:20Z</time>
      </trkpt>
      <trkpt lat="48.03803" lon="6.92753">
        <ele>871.6</ele>
        <time>2022-05-27T14:29:22Z</time>
      </trkpt>
      <trkpt lat="48.0379" lon="6.92736">
        <ele>870</ele>
        <time>2022-05-27T14:29:24Z</time>
      </trkpt>
      <trkpt lat="48.03777" lon="6.9272">
        <ele>870.6</ele>
        <time>2022-05-27T14:29:26Z</time>
      </trkpt>
      <trkpt lat="48.03765" lon="6.92705">
        <ele>870.1</ele>
        <time>2022-05-27T14:29:28Z</time>
      </trkpt>
      <trkpt lat="48.03751" lon="6.92689">
        <ele>867</ele>
        <time>2022-05-27T14:29:30Z</time>
      </trkpt>
      <trkpt lat="48.03738" lon="6.92674">
        <ele>866.1</ele>
        <time>2022-05-27T14:29:32Z</time>
      </trkpt>
      <trkpt lat="48.03722" lon="6.92665">
        <ele>865.3</ele>
        <time>2022-05-27T14:29:34Z</time>
      </trkpt>
      <trkpt lat="48.03713" lon="6.92662">
        <ele>865.5</ele>
        <time>2022-05-27T14:29:35Z</time>
      </trkpt>
      <trkpt lat="48.03697" lon="6.92662">
        <ele>865.3</ele>
        <time>2022-05-27T14:29:37Z</time>
      </trkpt>
      <trkpt lat="48.03682" lon="6.92663">
        <ele>863.9</ele>
        <time>2022-05-27T14:29:39Z</time>
      </trkpt>
      <trkpt lat="48.03669" lon="6.9266">
        <ele>865.5</ele>
        <time>2022-05-27T14:29:41Z</time>
      </trkpt>
      <trkpt lat="48.03659" lon="6.92648">
        <ele>863.6</ele>
        <time>2022-05-27T14:29:43Z</time>
      </trkpt>
      <trkpt lat="48.03652" lon="6.92631">
        <ele>861.4</ele>
        <time>2022-05-27T14:29:45Z</time>
      </trkpt>
      <trkpt lat="48.03647" lon="6.92608">
        <ele>860</ele>
        <time>2022-05-27T14:29:47Z</time>
      </trkpt>
      <trkpt lat="48.03645" lon="6.92584">
        <ele>860.3</ele>
        <time>2022-05-27T14:29:49Z</time>
      </trkpt>
      <trkpt lat="48.03639" lon="6.92563">
        <ele>861.2</ele>
        <time>2022-05-27T14:29:51Z</time>
      </trkpt>
      <trkpt lat="48.0363" lon="6.92546">
        <ele>859.8</ele>
        <time>2022-05-27T14:29:53Z</time>
      </trkpt>
      <trkpt lat="48.03619" lon="6.92531">
        <ele>859.4</ele>
        <time>2022-05-27T14:29:55Z</time>
      </trkpt>
      <trkpt lat="48.0361" lon="6.92518">
        <ele>860.5</ele>
        <time>2022-05-27T14:29:57Z</time>
      </trkpt>
      <trkpt lat="48.03603" lon="6.92506">
        <ele>861.5</ele>
        <time>2022-05-27T14:29:59Z</time>
      </trkpt>
      <trkpt lat="48.03604" lon="6.92489">
        <ele>863.8</ele>
        <time>2022-05-27T14:30:02Z</time>
      </trkpt>
      <trkpt lat="48.03608" lon="6.92476">
        <ele>865.3</ele>
        <time>2022-05-27T14:30:05Z</time>
      </trkpt>
      <trkpt lat="48.0361" lon="6.92461">
        <ele>866.6</ele>
        <time>2022-05-27T14:30:10Z</time>
      </trkpt>
      <trkpt lat="48.03609" lon="6.92459">
        <ele>866.8</ele>
        <time>2022-05-27T14:30:29Z</time>
      </trkpt>
      <trkpt lat="48.03609" lon="6.92459">
        <ele>867.5</ele>
        <time>2022-05-27T14:30:57Z</time>
      </trkpt>
      <trkpt lat="48.03608" lon="6.92459">
        <ele>867.1</ele>
        <time>2022-05-27T14:31:03Z</time>
      </trkpt>
      <trkpt lat="48.03608" lon="6.92459">
        <ele>867.3</ele>
        <time>2022-05-27T14:31:10Z</time>
      </trkpt>
    </trkseg>
  </trk>
  <trk>
    <name><![CDATA[28/05 Trace Vosgienne]]></name>
    <extensions>
      <line xmlns="http://www.topografix.com/GPX/gpx_style/0/2">
        <color>FF0000</color>
        <width>4</width>
      </line>
    </extensions>
    <trkseg>
      <trkpt lat="48.03601" lon="6.9249">
        <ele>848.729309</ele>
        <time>2022-05-28T06:39:09Z</time>
      </trkpt>
      <trkpt lat="48.03602" lon="6.9249">
        <ele>848.478394</ele>
        <time>2022-05-28T06:39:26Z</time>
      </trkpt>
      <trkpt lat="48.03602" lon="6.9249">
        <ele>848.5</ele>
        <time>2022-05-28T06:39:29Z</time>
      </trkpt>
      <trkpt lat="48.03605" lon="6.92503">
        <ele>846.9</ele>
        <time>2022-05-28T06:39:58Z</time>
      </trkpt>
      <trkpt lat="48.03611" lon="6.92514">
        <ele>846</ele>
        <time>2022-05-28T06:40:01Z</time>
      </trkpt>
      <trkpt lat="48.03619" lon="6.92528">
        <ele>845.2</ele>
        <time>2022-05-28T06:40:04Z</time>
      </trkpt>
      <trkpt lat="48.03625" lon="6.9254">
        <ele>845</ele>
        <time>2022-05-28T06:40:06Z</time>
      </trkpt>
      <trkpt lat="48.03632" lon="6.92551">
        <ele>845.3</ele>
        <time>2022-05-28T06:40:08Z</time>
      </trkpt>
      <trkpt lat="48.03638" lon="6.92561">
        <ele>845.9</ele>
        <time>2022-05-28T06:40:10Z</time>
      </trkpt>
      <trkpt lat="48.03646" lon="6.92573">
        <ele>846.2</ele>
        <time>2022-05-28T06:40:13Z</time>
      </trkpt>
      <trkpt lat="48.03649" lon="6.92587">
        <ele>846.3</ele>
        <time>2022-05-28T06:40:16Z</time>
      </trkpt>
      <trkpt lat="48.03651" lon="6.92603">
        <ele>845.2</ele>
        <time>2022-05-28T06:40:19Z</time>
      </trkpt>
      <trkpt lat="48.03653" lon="6.92618">
        <ele>845.2</ele>
        <time>2022-05-28T06:40:22Z</time>
      </trkpt>
      <trkpt lat="48.03659" lon="6.92633">
        <ele>847</ele>
        <time>2022-05-28T06:40:26Z</time>
      </trkpt>
      <trkpt lat="48.03664" lon="6.92643">
        <ele>848.1</ele>
        <time>2022-05-28T06:40:30Z</time>
      </trkpt>
      <trkpt lat="48.0367" lon="6.92654">
        <ele>849.1</ele>
        <time>2022-05-28T06:40:34Z</time>
      </trkpt>
      <trkpt lat="48.03678" lon="6.92661">
        <ele>850.4</ele>
        <time>2022-05-28T06:40:38Z</time>
      </trkpt>
      <trkpt lat="48.03688" lon="6.92663">
        <ele>850.3</ele>
        <time>2022-05-28T06:40:42Z</time>
      </trkpt>
      <trkpt lat="48.03698" lon="6.92661">
        <ele>851.5</ele>
        <time>2022-05-28T06:40:47Z</time>
      </trkpt>
      <trkpt lat="48.03707" lon="6.9266">
        <ele>851.6</ele>
        <time>2022-05-28T06:40:52Z</time>
      </trkpt>
      <trkpt lat="48.03717" lon="6.92657">
        <ele>852.3</ele>
        <time>2022-05-28T06:40:57Z</time>
      </trkpt>
      <trkpt lat="48.03728" lon="6.92657">
        <ele>852.4</ele>
        <time>2022-05-28T06:41:02Z</time>
      </trkpt>
      <trkpt lat="48.03738" lon="6.92663">
        <ele>853.5</ele>
        <time>2022-05-28T06:41:07Z</time>
      </trkpt>
      <trkpt lat="48.03747" lon="6.92671">
        <ele>853.3</ele>
        <time>2022-05-28T06:41:12Z</time>
      </trkpt>
      <trkpt lat="48.03756" lon="6.92681">
        <ele>854.8</ele>
        <time>2022-05-28T06:41:17Z</time>
      </trkpt>
      <trkpt lat="48.03764" lon="6.9269">
        <ele>855.1</ele>
        <time>2022-05-28T06:41:21Z</time>
      </trkpt>
      <trkpt lat="48.03772" lon="6.927">
        <ele>855.4</ele>
        <time>2022-05-28T06:41:26Z</time>
      </trkpt>
      <trkpt lat="48.03778" lon="6.92709">
        <ele>855.5</ele>
        <time>2022-05-28T06:41:31Z</time>
      </trkpt>
      <trkpt lat="48.03786" lon="6.92717">
        <ele>855</ele>
        <time>2022-05-28T06:41:35Z</time>
      </trkpt>
      <trkpt lat="48.03793" lon="6.92728">
        <ele>856.9</ele>
        <time>2022-05-28T06:41:39Z</time>
      </trkpt>
      <trkpt lat="48.038" lon="6.92738">
        <ele>856.6</ele>
        <time>2022-05-28T06:41:42Z</time>
      </trkpt>
      <trkpt lat="48.03808" lon="6.92747">
        <ele>856.8</ele>
        <time>2022-05-28T06:41:45Z</time>
      </trkpt>
      <trkpt lat="48.03815" lon="6.92755">
        <ele>857.6</ele>
        <time>2022-05-28T06:41:48Z</time>
      </trkpt>
      <trkpt lat="48.03824" lon="6.92766">
        <ele>857.8</ele>
        <time>2022-05-28T06:41:52Z</time>
      </trkpt>
      <trkpt lat="48.03831" lon="6.92776">
        <ele>858.9</ele>
        <time>2022-05-28T06:41:56Z</time>
      </trkpt>
      <trkpt lat="48.0384" lon="6.92785">
        <ele>859.9</ele>
        <time>2022-05-28T06:42:01Z</time>
      </trkpt>
      <trkpt lat="48.03849" lon="6.9279">
        <ele>860.4</ele>
        <time>2022-05-28T06:42:05Z</time>
      </trkpt>
      <trkpt lat="48.03857" lon="6.92795">
        <ele>860.4</ele>
        <time>2022-05-28T06:42:08Z</time>
      </trkpt>
      <trkpt lat="48.03867" lon="6.928">
        <ele>861.7</ele>
        <time>2022-05-28T06:42:12Z</time>
      </trkpt>
      <trkpt lat="48.03877" lon="6.92806">
        <ele>861.9</ele>
        <time>2022-05-28T06:42:17Z</time>
      </trkpt>
      <trkpt lat="48.03887" lon="6.92812">
        <ele>862.7</ele>
        <time>2022-05-28T06:42:22Z</time>
      </trkpt>
      <trkpt lat="48.03895" lon="6.92819">
        <ele>863.4</ele>
        <time>2022-05-28T06:42:26Z</time>
      </trkpt>
      <trkpt lat="48.03905" lon="6.92825">
        <ele>864.4</ele>
        <time>2022-05-28T06:42:31Z</time>
      </trkpt>
      <trkpt lat="48.03916" lon="6.92832">
        <ele>865.1</ele>
        <time>2022-05-28T06:42:35Z</time>
      </trkpt>
      <trkpt lat="48.03924" lon="6.92837">
        <ele>865.7</ele>
        <time>2022-05-28T06:42:38Z</time>
      </trkpt>
      <trkpt lat="48.03933" lon="6.92846">
        <ele>866.3</ele>
        <time>2022-05-28T06:42:42Z</time>
      </trkpt>
      <trkpt lat="48.0394" lon="6.92856">
        <ele>866.8</ele>
        <time>2022-05-28T06:42:46Z</time>
      </trkpt>
      <trkpt lat="48.03946" lon="6.92867">
        <ele>867.7</ele>
        <time>2022-05-28T06:42:50Z</time>
      </trkpt>
      <trkpt lat="48.03951" lon="6.92879">
        <ele>868.5</ele>
        <time>2022-05-28T06:42:54Z</time>
      </trkpt>
      <trkpt lat="48.03958" lon="6.92891">
        <ele>868.8</ele>
        <time>2022-05-28T06:42:58Z</time>
      </trkpt>
      <trkpt lat="48.03965" lon="6.929">
        <ele>870</ele>
        <time>2022-05-28T06:43:03Z</time>
      </trkpt>
      <trkpt lat="48.03975" lon="6.92902">
        <ele>871.6</ele>
        <time>2022-05-28T06:43:10Z</time>
      </trkpt>
      <trkpt lat="48.03984" lon="6.92898">
        <ele>873</ele>
        <time>2022-05-28T06:43:18Z</time>
      </trkpt>
      <trkpt lat="48.03993" lon="6.92894">
        <ele>875.3</ele>
        <time>2022-05-28T06:43:25Z</time>
      </trkpt>
      <trkpt lat="48.04002" lon="6.92892">
        <ele>876.7</ele>
        <time>2022-05-28T06:43:31Z</time>
      </trkpt>
      <trkpt lat="48.04013" lon="6.92892">
        <ele>877.5</ele>
        <time>2022-05-28T06:43:38Z</time>
      </trkpt>
      <trkpt lat="48.04022" lon="6.92892">
        <ele>878.6</ele>
        <time>2022-05-28T06:43:44Z</time>
      </trkpt>
      <trkpt lat="48.04032" lon="6.92895">
        <ele>879.7</ele>
        <time>2022-05-28T06:43:52Z</time>
      </trkpt>
      <trkpt lat="48.04038" lon="6.92896">
        <ele>881.5</ele>
        <time>2022-05-28T06:43:59Z</time>
      </trkpt>
      <trkpt lat="48.04049" lon="6.92891">
        <ele>881.7</ele>
        <time>2022-05-28T06:44:06Z</time>
      </trkpt>
      <trkpt lat="48.0406" lon="6.92887">
        <ele>882.8</ele>
        <time>2022-05-28T06:44:10Z</time>
      </trkpt>
      <trkpt lat="48.04069" lon="6.92884">
        <ele>883.5</ele>
        <time>2022-05-28T06:44:14Z</time>
      </trkpt>
      <trkpt lat="48.04078" lon="6.92882">
        <ele>884.2</ele>
        <time>2022-05-28T06:44:18Z</time>
      </trkpt>
      <trkpt lat="48.04088" lon="6.92879">
        <ele>885.1</ele>
        <time>2022-05-28T06:44:23Z</time>
      </trkpt>
      <trkpt lat="48.04098" lon="6.92874">
        <ele>886.1</ele>
        <time>2022-05-28T06:44:29Z</time>
      </trkpt>
      <trkpt lat="48.04108" lon="6.9287">
        <ele>887.4</ele>
        <time>2022-05-28T06:44:35Z</time>
      </trkpt>
      <trkpt lat="48.04118" lon="6.92866">
        <ele>887.9</ele>
        <time>2022-05-28T06:44:41Z</time>
      </trkpt>
      <trkpt lat="48.04127" lon="6.92862">
        <ele>889.5</ele>
        <time>2022-05-28T06:44:47Z</time>
      </trkpt>
      <trkpt lat="48.04136" lon="6.92856">
        <ele>891.1</ele>
        <time>2022-05-28T06:44:54Z</time>
      </trkpt>
      <trkpt lat="48.04146" lon="6.92851">
        <ele>891.4</ele>
        <time>2022-05-28T06:45:00Z</time>
      </trkpt>
      <trkpt lat="48.04156" lon="6.92847">
        <ele>893</ele>
        <time>2022-05-28T06:45:06Z</time>
      </trkpt>
      <trkpt lat="48.04165" lon="6.92843">
        <ele>894</ele>
        <time>2022-05-28T06:45:12Z</time>
      </trkpt>
      <trkpt lat="48.04174" lon="6.92838">
        <ele>895.4</ele>
        <time>2022-05-28T06:45:18Z</time>
      </trkpt>
      <trkpt lat="48.04184" lon="6.92831">
        <ele>897.1</ele>
        <time>2022-05-28T06:45:24Z</time>
      </trkpt>
      <trkpt lat="48.04191" lon="6.92822">
        <ele>898.6</ele>
        <time>2022-05-28T06:45:30Z</time>
      </trkpt>
      <trkpt lat="48.042" lon="6.92817">
        <ele>899</ele>
        <time>2022-05-28T06:45:35Z</time>
      </trkpt>
      <trkpt lat="48.0421" lon="6.92816">
        <ele>899.8</ele>
        <time>2022-05-28T06:45:40Z</time>
      </trkpt>
      <trkpt lat="48.04221" lon="6.92816">
        <ele>900.2</ele>
        <time>2022-05-28T06:45:45Z</time>
      </trkpt>
      <trkpt lat="48.0423" lon="6.92816">
        <ele>900.5</ele>
        <time>2022-05-28T06:45:49Z</time>
      </trkpt>
      <trkpt lat="48.04241" lon="6.92815">
        <ele>900.8</ele>
        <time>2022-05-28T06:45:54Z</time>
      </trkpt>
      <trkpt lat="48.04251" lon="6.92813">
        <ele>900.4</ele>
        <time>2022-05-28T06:45:59Z</time>
      </trkpt>
      <trkpt lat="48.04262" lon="6.92812">
        <ele>901.2</ele>
        <time>2022-05-28T06:46:05Z</time>
      </trkpt>
      <trkpt lat="48.04272" lon="6.92807">
        <ele>901.9</ele>
        <time>2022-05-28T06:46:11Z</time>
      </trkpt>
      <trkpt lat="48.04281" lon="6.92802">
        <ele>903.2</ele>
        <time>2022-05-28T06:46:15Z</time>
      </trkpt>
      <trkpt lat="48.0429" lon="6.92797">
        <ele>903.2</ele>
        <time>2022-05-28T06:46:19Z</time>
      </trkpt>
      <trkpt lat="48.043" lon="6.9279">
        <ele>903.3</ele>
        <time>2022-05-28T06:46:23Z</time>
      </trkpt>
      <trkpt lat="48.0431" lon="6.92782">
        <ele>904.2</ele>
        <time>2022-05-28T06:46:28Z</time>
      </trkpt>
      <trkpt lat="48.04319" lon="6.92776">
        <ele>905.6</ele>
        <time>2022-05-28T06:46:33Z</time>
      </trkpt>
      <trkpt lat="48.04328" lon="6.92771">
        <ele>906.4</ele>
        <time>2022-05-28T06:46:37Z</time>
      </trkpt>
      <trkpt lat="48.04339" lon="6.92767">
        <ele>907.2</ele>
        <time>2022-05-28T06:46:42Z</time>
      </trkpt>
      <trkpt lat="48.04348" lon="6.92766">
        <ele>907.7</ele>
        <time>2022-05-28T06:46:48Z</time>
      </trkpt>
      <trkpt lat="48.04358" lon="6.92767">
        <ele>909.6</ele>
        <time>2022-05-28T06:46:53Z</time>
      </trkpt>
      <trkpt lat="48.04368" lon="6.92769">
        <ele>911.1</ele>
        <time>2022-05-28T06:46:58Z</time>
      </trkpt>
      <trkpt lat="48.04378" lon="6.9277">
        <ele>911.4</ele>
        <time>2022-05-28T06:47:03Z</time>
      </trkpt>
      <trkpt lat="48.04388" lon="6.9277">
        <ele>911.8</ele>
        <time>2022-05-28T06:47:07Z</time>
      </trkpt>
      <trkpt lat="48.04392" lon="6.92772">
        <ele>911.6</ele>
        <time>2022-05-28T06:47:14Z</time>
      </trkpt>
      <trkpt lat="48.04392" lon="6.92772">
        <ele>911.9</ele>
        <time>2022-05-28T06:47:29Z</time>
      </trkpt>
      <trkpt lat="48.04392" lon="6.92773">
        <ele>911.5</ele>
        <time>2022-05-28T06:47:31Z</time>
      </trkpt>
      <trkpt lat="48.04391" lon="6.92773">
        <ele>911.6</ele>
        <time>2022-05-28T06:48:33Z</time>
      </trkpt>
      <trkpt lat="48.04392" lon="6.92774">
        <ele>912</ele>
        <time>2022-05-28T06:48:40Z</time>
      </trkpt>
      <trkpt lat="48.04392" lon="6.92775">
        <ele>911.9</ele>
        <time>2022-05-28T06:48:46Z</time>
      </trkpt>
      <trkpt lat="48.04401" lon="6.9278">
        <ele>911</ele>
        <time>2022-05-28T06:49:00Z</time>
      </trkpt>
      <trkpt lat="48.0441" lon="6.9278">
        <ele>910.3</ele>
        <time>2022-05-28T06:49:04Z</time>
      </trkpt>
      <trkpt lat="48.04422" lon="6.92782">
        <ele>908.3</ele>
        <time>2022-05-28T06:49:08Z</time>
      </trkpt>
      <trkpt lat="48.04432" lon="6.9278">
        <ele>907.3</ele>
        <time>2022-05-28T06:49:11Z</time>
      </trkpt>
      <trkpt lat="48.04441" lon="6.92775">
        <ele>905.5</ele>
        <time>2022-05-28T06:49:13Z</time>
      </trkpt>
      <trkpt lat="48.04452" lon="6.92772">
        <ele>903.9</ele>
        <time>2022-05-28T06:49:15Z</time>
      </trkpt>
      <trkpt lat="48.04463" lon="6.92776">
        <ele>902.5</ele>
        <time>2022-05-28T06:49:17Z</time>
      </trkpt>
      <trkpt lat="48.0447" lon="6.92787">
        <ele>899.8</ele>
        <time>2022-05-28T06:49:19Z</time>
      </trkpt>
      <trkpt lat="48.04474" lon="6.92801">
        <ele>898.7</ele>
        <time>2022-05-28T06:49:21Z</time>
      </trkpt>
      <trkpt lat="48.04478" lon="6.92819">
        <ele>899.5</ele>
        <time>2022-05-28T06:49:23Z</time>
      </trkpt>
      <trkpt lat="48.0448" lon="6.92839">
        <ele>896.5</ele>
        <time>2022-05-28T06:49:25Z</time>
      </trkpt>
      <trkpt lat="48.04483" lon="6.92857">
        <ele>894.4</ele>
        <time>2022-05-28T06:49:27Z</time>
      </trkpt>
      <trkpt lat="48.04482" lon="6.92875">
        <ele>890.2</ele>
        <time>2022-05-28T06:49:29Z</time>
      </trkpt>
      <trkpt lat="48.04478" lon="6.92895">
        <ele>887.1</ele>
        <time>2022-05-28T06:49:31Z</time>
      </trkpt>
      <trkpt lat="48.04474" lon="6.92919">
        <ele>886.1</ele>
        <time>2022-05-28T06:49:33Z</time>
      </trkpt>
      <trkpt lat="48.04476" lon="6.92942">
        <ele>881.3</ele>
        <time>2022-05-28T06:49:35Z</time>
      </trkpt>
      <trkpt lat="48.04482" lon="6.92962">
        <ele>885.2</ele>
        <time>2022-05-28T06:49:37Z</time>
      </trkpt>
      <trkpt lat="48.04491" lon="6.9298">
        <ele>885.7</ele>
        <time>2022-05-28T06:49:39Z</time>
      </trkpt>
      <trkpt lat="48.045" lon="6.92999">
        <ele>883.7</ele>
        <time>2022-05-28T06:49:41Z</time>
      </trkpt>
      <trkpt lat="48.0451" lon="6.93015">
        <ele>883.8</ele>
        <time>2022-05-28T06:49:43Z</time>
      </trkpt>
      <trkpt lat="48.04519" lon="6.93026">
        <ele>884.3</ele>
        <time>2022-05-28T06:49:45Z</time>
      </trkpt>
      <trkpt lat="48.0453" lon="6.93035">
        <ele>883.6</ele>
        <time>2022-05-28T06:49:48Z</time>
      </trkpt>
      <trkpt lat="48.04539" lon="6.93044">
        <ele>885.1</ele>
        <time>2022-05-28T06:49:51Z</time>
      </trkpt>
      <trkpt lat="48.04544" lon="6.93059">
        <ele>884.1</ele>
        <time>2022-05-28T06:49:54Z</time>
      </trkpt>
      <trkpt lat="48.04549" lon="6.93073">
        <ele>885</ele>
        <time>2022-05-28T06:49:57Z</time>
      </trkpt>
      <trkpt lat="48.04556" lon="6.93085">
        <ele>886.2</ele>
        <time>2022-05-28T06:50:00Z</time>
      </trkpt>
      <trkpt lat="48.04562" lon="6.93097">
        <ele>886.1</ele>
        <time>2022-05-28T06:50:04Z</time>
      </trkpt>
      <trkpt lat="48.04575" lon="6.93097">
        <ele>885.2</ele>
        <time>2022-05-28T06:50:08Z</time>
      </trkpt>
      <trkpt lat="48.04585" lon="6.93092">
        <ele>888.2</ele>
        <time>2022-05-28T06:50:12Z</time>
      </trkpt>
      <trkpt lat="48.04596" lon="6.93089">
        <ele>889.3</ele>
        <time>2022-05-28T06:50:16Z</time>
      </trkpt>
      <trkpt lat="48.04605" lon="6.93087">
        <ele>891.2</ele>
        <time>2022-05-28T06:50:20Z</time>
      </trkpt>
      <trkpt lat="48.04615" lon="6.93081">
        <ele>893.7</ele>
        <time>2022-05-28T06:50:25Z</time>
      </trkpt>
      <trkpt lat="48.04624" lon="6.93084">
        <ele>894.5</ele>
        <time>2022-05-28T06:50:30Z</time>
      </trkpt>
      <trkpt lat="48.04623" lon="6.931">
        <ele>894.4</ele>
        <time>2022-05-28T06:50:37Z</time>
      </trkpt>
      <trkpt lat="48.04619" lon="6.93115">
        <ele>892.9</ele>
        <time>2022-05-28T06:50:43Z</time>
      </trkpt>
      <trkpt lat="48.04612" lon="6.9313">
        <ele>889.8</ele>
        <time>2022-05-28T06:50:47Z</time>
      </trkpt>
      <trkpt lat="48.04607" lon="6.93142">
        <ele>889.2</ele>
        <time>2022-05-28T06:50:49Z</time>
      </trkpt>
      <trkpt lat="48.04603" lon="6.93155">
        <ele>890.2</ele>
        <time>2022-05-28T06:50:51Z</time>
      </trkpt>
      <trkpt lat="48.04596" lon="6.93169">
        <ele>886</ele>
        <time>2022-05-28T06:50:53Z</time>
      </trkpt>
      <trkpt lat="48.04588" lon="6.93185">
        <ele>881.3</ele>
        <time>2022-05-28T06:50:55Z</time>
      </trkpt>
      <trkpt lat="48.04578" lon="6.93199">
        <ele>883.5</ele>
        <time>2022-05-28T06:50:57Z</time>
      </trkpt>
      <trkpt lat="48.04566" lon="6.93212">
        <ele>880.4</ele>
        <time>2022-05-28T06:50:59Z</time>
      </trkpt>
      <trkpt lat="48.04555" lon="6.93222">
        <ele>879.9</ele>
        <time>2022-05-28T06:51:01Z</time>
      </trkpt>
      <trkpt lat="48.04547" lon="6.93229">
        <ele>880.3</ele>
        <time>2022-05-28T06:51:03Z</time>
      </trkpt>
      <trkpt lat="48.04536" lon="6.93236">
        <ele>878.3</ele>
        <time>2022-05-28T06:51:06Z</time>
      </trkpt>
      <trkpt lat="48.04527" lon="6.93237">
        <ele>879.4</ele>
        <time>2022-05-28T06:51:08Z</time>
      </trkpt>
      <trkpt lat="48.04518" lon="6.93242">
        <ele>879.1</ele>
        <time>2022-05-28T06:51:10Z</time>
      </trkpt>
      <trkpt lat="48.04512" lon="6.93252">
        <ele>877.4</ele>
        <time>2022-05-28T06:51:12Z</time>
      </trkpt>
      <trkpt lat="48.04506" lon="6.93264">
        <ele>875.5</ele>
        <time>2022-05-28T06:51:14Z</time>
      </trkpt>
      <trkpt lat="48.04497" lon="6.93277">
        <ele>876.1</ele>
        <time>2022-05-28T06:51:16Z</time>
      </trkpt>
      <trkpt lat="48.04488" lon="6.9329">
        <ele>871.3</ele>
        <time>2022-05-28T06:51:18Z</time>
      </trkpt>
      <trkpt lat="48.0448" lon="6.93303">
        <ele>873</ele>
        <time>2022-05-28T06:51:20Z</time>
      </trkpt>
      <trkpt lat="48.04473" lon="6.93314">
        <ele>873.3</ele>
        <time>2022-05-28T06:51:23Z</time>
      </trkpt>
      <trkpt lat="48.04465" lon="6.93323">
        <ele>872.3</ele>
        <time>2022-05-28T06:51:43Z</time>
      </trkpt>
      <trkpt lat="48.04474" lon="6.9332">
        <ele>872.7</ele>
        <time>2022-05-28T06:51:49Z</time>
      </trkpt>
      <trkpt lat="48.04483" lon="6.93314">
        <ele>873.4</ele>
        <time>2022-05-28T06:51:54Z</time>
      </trkpt>
      <trkpt lat="48.04492" lon="6.93307">
        <ele>875.1</ele>
        <time>2022-05-28T06:52:00Z</time>
      </trkpt>
      <trkpt lat="48.04483" lon="6.93311">
        <ele>874.5</ele>
        <time>2022-05-28T06:52:08Z</time>
      </trkpt>
      <trkpt lat="48.04472" lon="6.93317">
        <ele>873.4</ele>
        <time>2022-05-28T06:52:13Z</time>
      </trkpt>
      <trkpt lat="48.04469" lon="6.93315">
        <ele>873.5</ele>
        <time>2022-05-28T06:52:18Z</time>
      </trkpt>
      <trkpt lat="48.0447" lon="6.93314">
        <ele>873.3</ele>
        <time>2022-05-28T06:54:13Z</time>
      </trkpt>
      <trkpt lat="48.04469" lon="6.93314">
        <ele>873.7</ele>
        <time>2022-05-28T06:54:37Z</time>
      </trkpt>
      <trkpt lat="48.04478" lon="6.93308">
        <ele>873.8</ele>
        <time>2022-05-28T06:54:53Z</time>
      </trkpt>
      <trkpt lat="48.04484" lon="6.93294">
        <ele>873.9</ele>
        <time>2022-05-28T06:54:58Z</time>
      </trkpt>
      <trkpt lat="48.04491" lon="6.93285">
        <ele>875</ele>
        <time>2022-05-28T06:55:02Z</time>
      </trkpt>
      <trkpt lat="48.04498" lon="6.93274">
        <ele>875.4</ele>
        <time>2022-05-28T06:55:06Z</time>
      </trkpt>
      <trkpt lat="48.04505" lon="6.93263">
        <ele>876.7</ele>
        <time>2022-05-28T06:55:10Z</time>
      </trkpt>
      <trkpt lat="48.0451" lon="6.93252">
        <ele>877.2</ele>
        <time>2022-05-28T06:55:14Z</time>
      </trkpt>
      <trkpt lat="48.04517" lon="6.93242">
        <ele>878.4</ele>
        <time>2022-05-28T06:55:18Z</time>
      </trkpt>
      <trkpt lat="48.04526" lon="6.93235">
        <ele>878.8</ele>
        <time>2022-05-28T06:55:23Z</time>
      </trkpt>
      <trkpt lat="48.04537" lon="6.93231">
        <ele>879.8</ele>
        <time>2022-05-28T06:55:29Z</time>
      </trkpt>
      <trkpt lat="48.04545" lon="6.93227">
        <ele>879.3</ele>
        <time>2022-05-28T06:55:33Z</time>
      </trkpt>
      <trkpt lat="48.04553" lon="6.93221">
        <ele>880.4</ele>
        <time>2022-05-28T06:55:37Z</time>
      </trkpt>
      <trkpt lat="48.04561" lon="6.93213">
        <ele>881.9</ele>
        <time>2022-05-28T06:55:42Z</time>
      </trkpt>
      <trkpt lat="48.04569" lon="6.93206">
        <ele>883.3</ele>
        <time>2022-05-28T06:55:47Z</time>
      </trkpt>
      <trkpt lat="48.04578" lon="6.93197">
        <ele>884</ele>
        <time>2022-05-28T06:55:52Z</time>
      </trkpt>
      <trkpt lat="48.04585" lon="6.93186">
        <ele>884.6</ele>
        <time>2022-05-28T06:55:57Z</time>
      </trkpt>
      <trkpt lat="48.04592" lon="6.93175">
        <ele>886.7</ele>
        <time>2022-05-28T06:56:03Z</time>
      </trkpt>
      <trkpt lat="48.04599" lon="6.93164">
        <ele>888</ele>
        <time>2022-05-28T06:56:09Z</time>
      </trkpt>
      <trkpt lat="48.04605" lon="6.93152">
        <ele>889.7</ele>
        <time>2022-05-28T06:56:14Z</time>
      </trkpt>
      <trkpt lat="48.04608" lon="6.9314">
        <ele>890.3</ele>
        <time>2022-05-28T06:56:19Z</time>
      </trkpt>
      <trkpt lat="48.04613" lon="6.93128">
        <ele>891.5</ele>
        <time>2022-05-28T06:56:24Z</time>
      </trkpt>
      <trkpt lat="48.04617" lon="6.93113">
        <ele>893.9</ele>
        <time>2022-05-28T06:56:30Z</time>
      </trkpt>
      <trkpt lat="48.0462" lon="6.93098">
        <ele>894.4</ele>
        <time>2022-05-28T06:56:36Z</time>
      </trkpt>
      <trkpt lat="48.04621" lon="6.93084">
        <ele>895</ele>
        <time>2022-05-28T06:56:42Z</time>
      </trkpt>
      <trkpt lat="48.04612" lon="6.93077">
        <ele>893.6</ele>
        <time>2022-05-28T06:56:50Z</time>
      </trkpt>
      <trkpt lat="48.04604" lon="6.93081">
        <ele>891.5</ele>
        <time>2022-05-28T06:56:53Z</time>
      </trkpt>
      <trkpt lat="48.04593" lon="6.93084">
        <ele>889.8</ele>
        <time>2022-05-28T06:56:56Z</time>
      </trkpt>
      <trkpt lat="48.04581" lon="6.93087">
        <ele>887.7</ele>
        <time>2022-05-28T06:57:00Z</time>
      </trkpt>
      <trkpt lat="48.04574" lon="6.93093">
        <ele>886.7</ele>
        <time>2022-05-28T06:57:06Z</time>
      </trkpt>
      <trkpt lat="48.04575" lon="6.93093">
        <ele>886.8</ele>
        <time>2022-05-28T06:57:11Z</time>
      </trkpt>
      <trkpt lat="48.04574" lon="6.93094">
        <ele>887.1</ele>
        <time>2022-05-28T06:58:01Z</time>
      </trkpt>
      <trkpt lat="48.04574" lon="6.93094">
        <ele>887</ele>
        <time>2022-05-28T06:58:02Z</time>
      </trkpt>
      <trkpt lat="48.04566" lon="6.93104">
        <ele>886</ele>
        <time>2022-05-28T06:58:12Z</time>
      </trkpt>
      <trkpt lat="48.0456" lon="6.93118">
        <ele>883.4</ele>
        <time>2022-05-28T06:58:15Z</time>
      </trkpt>
      <trkpt lat="48.04554" lon="6.93129">
        <ele>881.5</ele>
        <time>2022-05-28T06:58:17Z</time>
      </trkpt>
      <trkpt lat="48.04549" lon="6.93146">
        <ele>882</ele>
        <time>2022-05-28T06:58:19Z</time>
      </trkpt>
      <trkpt lat="48.04543" lon="6.93165">
        <ele>880.1</ele>
        <time>2022-05-28T06:58:21Z</time>
      </trkpt>
      <trkpt lat="48.04539" lon="6.93183">
        <ele>878.9</ele>
        <time>2022-05-28T06:58:23Z</time>
      </trkpt>
      <trkpt lat="48.04536" lon="6.93198">
        <ele>878.9</ele>
        <time>2022-05-28T06:58:25Z</time>
      </trkpt>
      <trkpt lat="48.04534" lon="6.93213">
        <ele>877.9</ele>
        <time>2022-05-28T06:58:27Z</time>
      </trkpt>
      <trkpt lat="48.04529" lon="6.93227">
        <ele>880.7</ele>
        <time>2022-05-28T06:58:29Z</time>
      </trkpt>
      <trkpt lat="48.04522" lon="6.93236">
        <ele>879.4</ele>
        <time>2022-05-28T06:58:31Z</time>
      </trkpt>
      <trkpt lat="48.04515" lon="6.93243">
        <ele>878.7</ele>
        <time>2022-05-28T06:58:33Z</time>
      </trkpt>
      <trkpt lat="48.04508" lon="6.93255">
        <ele>878</ele>
        <time>2022-05-28T06:58:35Z</time>
      </trkpt>
      <trkpt lat="48.04501" lon="6.93266">
        <ele>875.7</ele>
        <time>2022-05-28T06:58:37Z</time>
      </trkpt>
      <trkpt lat="48.04494" lon="6.93278">
        <ele>875.6</ele>
        <time>2022-05-28T06:58:40Z</time>
      </trkpt>
      <trkpt lat="48.04488" lon="6.93288">
        <ele>875.4</ele>
        <time>2022-05-28T06:58:47Z</time>
      </trkpt>
      <trkpt lat="48.04482" lon="6.93299">
        <ele>874.4</ele>
        <time>2022-05-28T06:58:54Z</time>
      </trkpt>
      <trkpt lat="48.04473" lon="6.93312">
        <ele>872.6</ele>
        <time>2022-05-28T06:58:58Z</time>
      </trkpt>
      <trkpt lat="48.04467" lon="6.93324">
        <ele>873.1</ele>
        <time>2022-05-28T06:59:01Z</time>
      </trkpt>
      <trkpt lat="48.04469" lon="6.93339">
        <ele>871.8</ele>
        <time>2022-05-28T06:59:05Z</time>
      </trkpt>
      <trkpt lat="48.0448" lon="6.93339">
        <ele>872.5</ele>
        <time>2022-05-28T06:59:09Z</time>
      </trkpt>
      <trkpt lat="48.04491" lon="6.9334">
        <ele>872.5</ele>
        <time>2022-05-28T06:59:13Z</time>
      </trkpt>
      <trkpt lat="48.045" lon="6.93341">
        <ele>873.1</ele>
        <time>2022-05-28T06:59:16Z</time>
      </trkpt>
      <trkpt lat="48.0451" lon="6.93342">
        <ele>873.1</ele>
        <time>2022-05-28T06:59:19Z</time>
      </trkpt>
      <trkpt lat="48.0452" lon="6.93343">
        <ele>872.9</ele>
        <time>2022-05-28T06:59:22Z</time>
      </trkpt>
      <trkpt lat="48.0453" lon="6.93345">
        <ele>873.3</ele>
        <time>2022-05-28T06:59:25Z</time>
      </trkpt>
      <trkpt lat="48.0454" lon="6.93346">
        <ele>873.6</ele>
        <time>2022-05-28T06:59:28Z</time>
      </trkpt>
      <trkpt lat="48.04551" lon="6.93347">
        <ele>874</ele>
        <time>2022-05-28T06:59:31Z</time>
      </trkpt>
      <trkpt lat="48.04561" lon="6.93345">
        <ele>873.9</ele>
        <time>2022-05-28T06:59:34Z</time>
      </trkpt>
      <trkpt lat="48.04572" lon="6.93341">
        <ele>873.8</ele>
        <time>2022-05-28T06:59:37Z</time>
      </trkpt>
      <trkpt lat="48.04582" lon="6.93332">
        <ele>874.1</ele>
        <time>2022-05-28T06:59:40Z</time>
      </trkpt>
      <trkpt lat="48.04592" lon="6.93324">
        <ele>874.1</ele>
        <time>2022-05-28T06:59:43Z</time>
      </trkpt>
      <trkpt lat="48.04602" lon="6.93315">
        <ele>873.9</ele>
        <time>2022-05-28T06:59:46Z</time>
      </trkpt>
      <trkpt lat="48.04612" lon="6.93307">
        <ele>873.7</ele>
        <time>2022-05-28T06:59:49Z</time>
      </trkpt>
      <trkpt lat="48.04623" lon="6.93299">
        <ele>873.4</ele>
        <time>2022-05-28T06:59:52Z</time>
      </trkpt>
      <trkpt lat="48.04635" lon="6.93292">
        <ele>873.7</ele>
        <time>2022-05-28T06:59:55Z</time>
      </trkpt>
      <trkpt lat="48.04646" lon="6.93289">
        <ele>873.9</ele>
        <time>2022-05-28T06:59:58Z</time>
      </trkpt>
      <trkpt lat="48.04657" lon="6.93295">
        <ele>873.9</ele>
        <time>2022-05-28T07:00:01Z</time>
      </trkpt>
      <trkpt lat="48.04665" lon="6.93308">
        <ele>873.8</ele>
        <time>2022-05-28T07:00:04Z</time>
      </trkpt>
      <trkpt lat="48.0467" lon="6.93323">
        <ele>874.4</ele>
        <time>2022-05-28T07:00:07Z</time>
      </trkpt>
      <trkpt lat="48.04675" lon="6.93339">
        <ele>875.2</ele>
        <time>2022-05-28T07:00:10Z</time>
      </trkpt>
      <trkpt lat="48.04681" lon="6.93354">
        <ele>874.7</ele>
        <time>2022-05-28T07:00:13Z</time>
      </trkpt>
      <trkpt lat="48.04688" lon="6.93368">
        <ele>875.3</ele>
        <time>2022-05-28T07:00:16Z</time>
      </trkpt>
      <trkpt lat="48.04695" lon="6.93381">
        <ele>876.1</ele>
        <time>2022-05-28T07:00:19Z</time>
      </trkpt>
      <trkpt lat="48.04704" lon="6.9339">
        <ele>875</ele>
        <time>2022-05-28T07:00:22Z</time>
      </trkpt>
      <trkpt lat="48.04715" lon="6.93395">
        <ele>874.9</ele>
        <time>2022-05-28T07:00:25Z</time>
      </trkpt>
      <trkpt lat="48.04725" lon="6.93391">
        <ele>875.2</ele>
        <time>2022-05-28T07:00:28Z</time>
      </trkpt>
      <trkpt lat="48.04735" lon="6.93384">
        <ele>876.8</ele>
        <time>2022-05-28T07:00:31Z</time>
      </trkpt>
      <trkpt lat="48.04745" lon="6.93377">
        <ele>876.2</ele>
        <time>2022-05-28T07:00:34Z</time>
      </trkpt>
      <trkpt lat="48.04756" lon="6.93374">
        <ele>877.2</ele>
        <time>2022-05-28T07:00:37Z</time>
      </trkpt>
      <trkpt lat="48.04767" lon="6.93377">
        <ele>876.7</ele>
        <time>2022-05-28T07:00:40Z</time>
      </trkpt>
      <trkpt lat="48.04777" lon="6.93381">
        <ele>877.6</ele>
        <time>2022-05-28T07:00:43Z</time>
      </trkpt>
      <trkpt lat="48.04786" lon="6.93387">
        <ele>877.3</ele>
        <time>2022-05-28T07:00:46Z</time>
      </trkpt>
      <trkpt lat="48.04794" lon="6.93394">
        <ele>878.6</ele>
        <time>2022-05-28T07:00:49Z</time>
      </trkpt>
      <trkpt lat="48.04802" lon="6.93402">
        <ele>878.7</ele>
        <time>2022-05-28T07:00:52Z</time>
      </trkpt>
      <trkpt lat="48.04809" lon="6.9341">
        <ele>878.7</ele>
        <time>2022-05-28T07:00:55Z</time>
      </trkpt>
      <trkpt lat="48.04819" lon="6.93418">
        <ele>880.6</ele>
        <time>2022-05-28T07:00:59Z</time>
      </trkpt>
      <trkpt lat="48.04827" lon="6.93426">
        <ele>881.8</ele>
        <time>2022-05-28T07:01:03Z</time>
      </trkpt>
      <trkpt lat="48.04836" lon="6.93434">
        <ele>882</ele>
        <time>2022-05-28T07:01:07Z</time>
      </trkpt>
      <trkpt lat="48.04845" lon="6.93441">
        <ele>882.6</ele>
        <time>2022-05-28T07:01:11Z</time>
      </trkpt>
      <trkpt lat="48.04853" lon="6.93448">
        <ele>883</ele>
        <time>2022-05-28T07:01:15Z</time>
      </trkpt>
      <trkpt lat="48.04861" lon="6.93454">
        <ele>884.1</ele>
        <time>2022-05-28T07:01:19Z</time>
      </trkpt>
      <trkpt lat="48.0487" lon="6.93461">
        <ele>884.9</ele>
        <time>2022-05-28T07:01:25Z</time>
      </trkpt>
      <trkpt lat="48.04878" lon="6.93466">
        <ele>885.5</ele>
        <time>2022-05-28T07:01:30Z</time>
      </trkpt>
      <trkpt lat="48.04887" lon="6.93468">
        <ele>887.4</ele>
        <time>2022-05-28T07:01:34Z</time>
      </trkpt>
      <trkpt lat="48.04897" lon="6.93472">
        <ele>887.4</ele>
        <time>2022-05-28T07:01:40Z</time>
      </trkpt>
      <trkpt lat="48.04907" lon="6.93477">
        <ele>888.3</ele>
        <time>2022-05-28T07:01:44Z</time>
      </trkpt>
      <trkpt lat="48.04917" lon="6.93479">
        <ele>888.7</ele>
        <time>2022-05-28T07:01:48Z</time>
      </trkpt>
      <trkpt lat="48.04927" lon="6.93484">
        <ele>889.5</ele>
        <time>2022-05-28T07:01:51Z</time>
      </trkpt>
      <trkpt lat="48.04936" lon="6.93492">
        <ele>889.8</ele>
        <time>2022-05-28T07:01:56Z</time>
      </trkpt>
      <trkpt lat="48.04945" lon="6.93501">
        <ele>891.6</ele>
        <time>2022-05-28T07:02:01Z</time>
      </trkpt>
      <trkpt lat="48.04953" lon="6.93512">
        <ele>892.8</ele>
        <time>2022-05-28T07:02:06Z</time>
      </trkpt>
      <trkpt lat="48.0496" lon="6.93521">
        <ele>893</ele>
        <time>2022-05-28T07:02:10Z</time>
      </trkpt>
      <trkpt lat="48.04967" lon="6.93532">
        <ele>894.4</ele>
        <time>2022-05-28T07:02:15Z</time>
      </trkpt>
      <trkpt lat="48.04973" lon="6.93544">
        <ele>894.9</ele>
        <time>2022-05-28T07:02:20Z</time>
      </trkpt>
      <trkpt lat="48.04979" lon="6.93556">
        <ele>895.4</ele>
        <time>2022-05-28T07:02:25Z</time>
      </trkpt>
      <trkpt lat="48.04987" lon="6.93563">
        <ele>895.9</ele>
        <time>2022-05-28T07:02:29Z</time>
      </trkpt>
      <trkpt lat="48.04995" lon="6.9357">
        <ele>896.4</ele>
        <time>2022-05-28T07:02:33Z</time>
      </trkpt>
      <trkpt lat="48.05003" lon="6.93579">
        <ele>897.4</ele>
        <time>2022-05-28T07:02:37Z</time>
      </trkpt>
      <trkpt lat="48.05012" lon="6.93588">
        <ele>898.9</ele>
        <time>2022-05-28T07:02:42Z</time>
      </trkpt>
      <trkpt lat="48.05019" lon="6.93597">
        <ele>899.3</ele>
        <time>2022-05-28T07:02:46Z</time>
      </trkpt>
      <trkpt lat="48.05026" lon="6.93608">
        <ele>900</ele>
        <time>2022-05-28T07:02:51Z</time>
      </trkpt>
      <trkpt lat="48.05031" lon="6.93619">
        <ele>902</ele>
        <time>2022-05-28T07:02:55Z</time>
      </trkpt>
      <trkpt lat="48.05036" lon="6.93633">
        <ele>902.4</ele>
        <time>2022-05-28T07:03:00Z</time>
      </trkpt>
      <trkpt lat="48.05043" lon="6.93646">
        <ele>903.7</ele>
        <time>2022-05-28T07:03:05Z</time>
      </trkpt>
      <trkpt lat="48.05049" lon="6.93658">
        <ele>904.8</ele>
        <time>2022-05-28T07:03:10Z</time>
      </trkpt>
      <trkpt lat="48.05056" lon="6.93668">
        <ele>905</ele>
        <time>2022-05-28T07:03:15Z</time>
      </trkpt>
      <trkpt lat="48.05064" lon="6.93679">
        <ele>906.5</ele>
        <time>2022-05-28T07:03:20Z</time>
      </trkpt>
      <trkpt lat="48.05073" lon="6.9369">
        <ele>907</ele>
        <time>2022-05-28T07:03:25Z</time>
      </trkpt>
      <trkpt lat="48.05079" lon="6.937">
        <ele>908.9</ele>
        <time>2022-05-28T07:03:30Z</time>
      </trkpt>
      <trkpt lat="48.05087" lon="6.93712">
        <ele>909.8</ele>
        <time>2022-05-28T07:03:35Z</time>
      </trkpt>
      <trkpt lat="48.05094" lon="6.93725">
        <ele>910.3</ele>
        <time>2022-05-28T07:03:40Z</time>
      </trkpt>
      <trkpt lat="48.05099" lon="6.93736">
        <ele>910.7</ele>
        <time>2022-05-28T07:03:44Z</time>
      </trkpt>
      <trkpt lat="48.05104" lon="6.93747">
        <ele>911.6</ele>
        <time>2022-05-28T07:03:48Z</time>
      </trkpt>
      <trkpt lat="48.05108" lon="6.93761">
        <ele>913</ele>
        <time>2022-05-28T07:03:53Z</time>
      </trkpt>
      <trkpt lat="48.05112" lon="6.93775">
        <ele>913.1</ele>
        <time>2022-05-28T07:03:58Z</time>
      </trkpt>
      <trkpt lat="48.05115" lon="6.93789">
        <ele>914.6</ele>
        <time>2022-05-28T07:04:03Z</time>
      </trkpt>
      <trkpt lat="48.05118" lon="6.93803">
        <ele>915.2</ele>
        <time>2022-05-28T07:04:08Z</time>
      </trkpt>
      <trkpt lat="48.05121" lon="6.93819">
        <ele>915</ele>
        <time>2022-05-28T07:04:13Z</time>
      </trkpt>
      <trkpt lat="48.05124" lon="6.93835">
        <ele>916.5</ele>
        <time>2022-05-28T07:04:18Z</time>
      </trkpt>
      <trkpt lat="48.05128" lon="6.93848">
        <ele>917.7</ele>
        <time>2022-05-28T07:04:22Z</time>
      </trkpt>
      <trkpt lat="48.05135" lon="6.93858">
        <ele>917.4</ele>
        <time>2022-05-28T07:04:26Z</time>
      </trkpt>
      <trkpt lat="48.05144" lon="6.93869">
        <ele>918.8</ele>
        <time>2022-05-28T07:04:31Z</time>
      </trkpt>
      <trkpt lat="48.05153" lon="6.93878">
        <ele>919.4</ele>
        <time>2022-05-28T07:04:35Z</time>
      </trkpt>
      <trkpt lat="48.05163" lon="6.93886">
        <ele>920.4</ele>
        <time>2022-05-28T07:04:39Z</time>
      </trkpt>
      <trkpt lat="48.05171" lon="6.93892">
        <ele>921</ele>
        <time>2022-05-28T07:04:42Z</time>
      </trkpt>
      <trkpt lat="48.0518" lon="6.939">
        <ele>921</ele>
        <time>2022-05-28T07:04:46Z</time>
      </trkpt>
      <trkpt lat="48.05189" lon="6.93906">
        <ele>921.6</ele>
        <time>2022-05-28T07:04:50Z</time>
      </trkpt>
      <trkpt lat="48.05198" lon="6.93915">
        <ele>921.9</ele>
        <time>2022-05-28T07:04:54Z</time>
      </trkpt>
      <trkpt lat="48.05207" lon="6.93924">
        <ele>922.5</ele>
        <time>2022-05-28T07:04:58Z</time>
      </trkpt>
      <trkpt lat="48.05216" lon="6.93932">
        <ele>924.2</ele>
        <time>2022-05-28T07:05:02Z</time>
      </trkpt>
      <trkpt lat="48.05224" lon="6.9394">
        <ele>923.6</ele>
        <time>2022-05-28T07:05:06Z</time>
      </trkpt>
      <trkpt lat="48.05233" lon="6.93949">
        <ele>925</ele>
        <time>2022-05-28T07:05:10Z</time>
      </trkpt>
      <trkpt lat="48.0524" lon="6.93958">
        <ele>926.3</ele>
        <time>2022-05-28T07:05:14Z</time>
      </trkpt>
      <trkpt lat="48.05248" lon="6.93968">
        <ele>927.2</ele>
        <time>2022-05-28T07:05:19Z</time>
      </trkpt>
      <trkpt lat="48.05255" lon="6.93976">
        <ele>928.2</ele>
        <time>2022-05-28T07:05:23Z</time>
      </trkpt>
      <trkpt lat="48.05265" lon="6.93984">
        <ele>929.1</ele>
        <time>2022-05-28T07:05:27Z</time>
      </trkpt>
      <trkpt lat="48.05273" lon="6.93989">
        <ele>929.4</ele>
        <time>2022-05-28T07:05:31Z</time>
      </trkpt>
      <trkpt lat="48.05281" lon="6.93996">
        <ele>929.8</ele>
        <time>2022-05-28T07:05:35Z</time>
      </trkpt>
      <trkpt lat="48.05291" lon="6.94003">
        <ele>930.4</ele>
        <time>2022-05-28T07:05:40Z</time>
      </trkpt>
      <trkpt lat="48.053" lon="6.94009">
        <ele>931</ele>
        <time>2022-05-28T07:05:45Z</time>
      </trkpt>
      <trkpt lat="48.05308" lon="6.94015">
        <ele>931.2</ele>
        <time>2022-05-28T07:05:50Z</time>
      </trkpt>
      <trkpt lat="48.05317" lon="6.94022">
        <ele>932.8</ele>
        <time>2022-05-28T07:05:55Z</time>
      </trkpt>
      <trkpt lat="48.05327" lon="6.94028">
        <ele>934.5</ele>
        <time>2022-05-28T07:05:59Z</time>
      </trkpt>
      <trkpt lat="48.05338" lon="6.94036">
        <ele>933.9</ele>
        <time>2022-05-28T07:06:03Z</time>
      </trkpt>
      <trkpt lat="48.05346" lon="6.94041">
        <ele>935</ele>
        <time>2022-05-28T07:06:06Z</time>
      </trkpt>
      <trkpt lat="48.05356" lon="6.94046">
        <ele>934.9</ele>
        <time>2022-05-28T07:06:10Z</time>
      </trkpt>
      <trkpt lat="48.05365" lon="6.94052">
        <ele>935.9</ele>
        <time>2022-05-28T07:06:14Z</time>
      </trkpt>
      <trkpt lat="48.05374" lon="6.94059">
        <ele>936.3</ele>
        <time>2022-05-28T07:06:18Z</time>
      </trkpt>
      <trkpt lat="48.05385" lon="6.94066">
        <ele>937.2</ele>
        <time>2022-05-28T07:06:22Z</time>
      </trkpt>
      <trkpt lat="48.05394" lon="6.94073">
        <ele>935.8</ele>
        <time>2022-05-28T07:06:26Z</time>
      </trkpt>
      <trkpt lat="48.05402" lon="6.94079">
        <ele>937.1</ele>
        <time>2022-05-28T07:06:29Z</time>
      </trkpt>
      <trkpt lat="48.05413" lon="6.94086">
        <ele>937.9</ele>
        <time>2022-05-28T07:06:33Z</time>
      </trkpt>
      <trkpt lat="48.05423" lon="6.94094">
        <ele>938.8</ele>
        <time>2022-05-28T07:06:37Z</time>
      </trkpt>
      <trkpt lat="48.05433" lon="6.94102">
        <ele>938.9</ele>
        <time>2022-05-28T07:06:41Z</time>
      </trkpt>
      <trkpt lat="48.05442" lon="6.94112">
        <ele>940.1</ele>
        <time>2022-05-28T07:06:45Z</time>
      </trkpt>
      <trkpt lat="48.05451" lon="6.9412">
        <ele>939.9</ele>
        <time>2022-05-28T07:06:49Z</time>
      </trkpt>
      <trkpt lat="48.0546" lon="6.94129">
        <ele>939.4</ele>
        <time>2022-05-28T07:06:53Z</time>
      </trkpt>
      <trkpt lat="48.05469" lon="6.94139">
        <ele>940.3</ele>
        <time>2022-05-28T07:06:57Z</time>
      </trkpt>
      <trkpt lat="48.05477" lon="6.94146">
        <ele>941.1</ele>
        <time>2022-05-28T07:07:01Z</time>
      </trkpt>
      <trkpt lat="48.05485" lon="6.94151">
        <ele>940.7</ele>
        <time>2022-05-28T07:07:05Z</time>
      </trkpt>
      <trkpt lat="48.05495" lon="6.9416">
        <ele>942.1</ele>
        <time>2022-05-28T07:07:11Z</time>
      </trkpt>
      <trkpt lat="48.05506" lon="6.94165">
        <ele>942.1</ele>
        <time>2022-05-28T07:07:15Z</time>
      </trkpt>
      <trkpt lat="48.05516" lon="6.94169">
        <ele>941</ele>
        <time>2022-05-28T07:07:18Z</time>
      </trkpt>
      <trkpt lat="48.05526" lon="6.94175">
        <ele>941.4</ele>
        <time>2022-05-28T07:07:21Z</time>
      </trkpt>
      <trkpt lat="48.05536" lon="6.9418">
        <ele>943.5</ele>
        <time>2022-05-28T07:07:24Z</time>
      </trkpt>
      <trkpt lat="48.05546" lon="6.94187">
        <ele>942.8</ele>
        <time>2022-05-28T07:07:27Z</time>
      </trkpt>
      <trkpt lat="48.05557" lon="6.94193">
        <ele>943.3</ele>
        <time>2022-05-28T07:07:30Z</time>
      </trkpt>
      <trkpt lat="48.05568" lon="6.942">
        <ele>945</ele>
        <time>2022-05-28T07:07:33Z</time>
      </trkpt>
      <trkpt lat="48.05578" lon="6.94206">
        <ele>944.5</ele>
        <time>2022-05-28T07:07:36Z</time>
      </trkpt>
      <trkpt lat="48.05588" lon="6.94212">
        <ele>943.6</ele>
        <time>2022-05-28T07:07:39Z</time>
      </trkpt>
      <trkpt lat="48.05596" lon="6.94219">
        <ele>945.1</ele>
        <time>2022-05-28T07:07:42Z</time>
      </trkpt>
      <trkpt lat="48.05605" lon="6.94227">
        <ele>944.8</ele>
        <time>2022-05-28T07:07:45Z</time>
      </trkpt>
      <trkpt lat="48.05614" lon="6.94235">
        <ele>944.6</ele>
        <time>2022-05-28T07:07:50Z</time>
      </trkpt>
      <trkpt lat="48.0561" lon="6.94222">
        <ele>946.4</ele>
        <time>2022-05-28T07:08:00Z</time>
      </trkpt>
      <trkpt lat="48.05601" lon="6.94214">
        <ele>948.8</ele>
        <time>2022-05-28T07:08:06Z</time>
      </trkpt>
      <trkpt lat="48.05594" lon="6.94205">
        <ele>950.1</ele>
        <time>2022-05-28T07:08:12Z</time>
      </trkpt>
      <trkpt lat="48.05587" lon="6.94192">
        <ele>951.2</ele>
        <time>2022-05-28T07:08:19Z</time>
      </trkpt>
      <trkpt lat="48.0558" lon="6.94183">
        <ele>951.2</ele>
        <time>2022-05-28T07:08:24Z</time>
      </trkpt>
      <trkpt lat="48.05573" lon="6.94173">
        <ele>951.3</ele>
        <time>2022-05-28T07:08:29Z</time>
      </trkpt>
      <trkpt lat="48.05565" lon="6.94163">
        <ele>952.8</ele>
        <time>2022-05-28T07:08:34Z</time>
      </trkpt>
      <trkpt lat="48.05558" lon="6.94153">
        <ele>953.6</ele>
        <time>2022-05-28T07:08:39Z</time>
      </trkpt>
      <trkpt lat="48.0555" lon="6.94143">
        <ele>953.9</ele>
        <time>2022-05-28T07:08:44Z</time>
      </trkpt>
      <trkpt lat="48.05543" lon="6.94133">
        <ele>954.3</ele>
        <time>2022-05-28T07:08:48Z</time>
      </trkpt>
      <trkpt lat="48.05535" lon="6.94124">
        <ele>955</ele>
        <time>2022-05-28T07:08:53Z</time>
      </trkpt>
      <trkpt lat="48.05528" lon="6.94115">
        <ele>955.8</ele>
        <time>2022-05-28T07:08:58Z</time>
      </trkpt>
      <trkpt lat="48.05523" lon="6.94103">
        <ele>956.3</ele>
        <time>2022-05-28T07:09:03Z</time>
      </trkpt>
      <trkpt lat="48.05517" lon="6.9409">
        <ele>957.1</ele>
        <time>2022-05-28T07:09:08Z</time>
      </trkpt>
      <trkpt lat="48.05513" lon="6.94075">
        <ele>958.5</ele>
        <time>2022-05-28T07:09:12Z</time>
      </trkpt>
      <trkpt lat="48.05509" lon="6.94063">
        <ele>959</ele>
        <time>2022-05-28T07:09:16Z</time>
      </trkpt>
      <trkpt lat="48.05501" lon="6.94052">
        <ele>958.8</ele>
        <time>2022-05-28T07:09:20Z</time>
      </trkpt>
      <trkpt lat="48.05491" lon="6.94047">
        <ele>959.5</ele>
        <time>2022-05-28T07:09:24Z</time>
      </trkpt>
      <trkpt lat="48.05482" lon="6.94043">
        <ele>961.2</ele>
        <time>2022-05-28T07:09:28Z</time>
      </trkpt>
      <trkpt lat="48.05475" lon="6.94031">
        <ele>960.2</ele>
        <time>2022-05-28T07:09:32Z</time>
      </trkpt>
      <trkpt lat="48.05469" lon="6.9402">
        <ele>961.3</ele>
        <time>2022-05-28T07:09:35Z</time>
      </trkpt>
      <trkpt lat="48.05461" lon="6.94006">
        <ele>961.1</ele>
        <time>2022-05-28T07:09:39Z</time>
      </trkpt>
      <trkpt lat="48.05454" lon="6.93997">
        <ele>961.1</ele>
        <time>2022-05-28T07:09:42Z</time>
      </trkpt>
      <trkpt lat="48.05445" lon="6.93986">
        <ele>961</ele>
        <time>2022-05-28T07:09:46Z</time>
      </trkpt>
      <trkpt lat="48.05438" lon="6.93974">
        <ele>959.8</ele>
        <time>2022-05-28T07:09:49Z</time>
      </trkpt>
      <trkpt lat="48.0543" lon="6.93962">
        <ele>960.2</ele>
        <time>2022-05-28T07:09:53Z</time>
      </trkpt>
      <trkpt lat="48.05424" lon="6.9395">
        <ele>960.1</ele>
        <time>2022-05-28T07:09:56Z</time>
      </trkpt>
      <trkpt lat="48.05417" lon="6.93938">
        <ele>959</ele>
        <time>2022-05-28T07:09:59Z</time>
      </trkpt>
      <trkpt lat="48.05407" lon="6.93923">
        <ele>959.6</ele>
        <time>2022-05-28T07:10:02Z</time>
      </trkpt>
      <trkpt lat="48.054" lon="6.93914">
        <ele>958.5</ele>
        <time>2022-05-28T07:10:04Z</time>
      </trkpt>
      <trkpt lat="48.05392" lon="6.93904">
        <ele>958.2</ele>
        <time>2022-05-28T07:10:06Z</time>
      </trkpt>
      <trkpt lat="48.05381" lon="6.93897">
        <ele>953.9</ele>
        <time>2022-05-28T07:10:08Z</time>
      </trkpt>
      <trkpt lat="48.05368" lon="6.93888">
        <ele>950.1</ele>
        <time>2022-05-28T07:10:10Z</time>
      </trkpt>
      <trkpt lat="48.05356" lon="6.93875">
        <ele>951</ele>
        <time>2022-05-28T07:10:12Z</time>
      </trkpt>
      <trkpt lat="48.05349" lon="6.93866">
        <ele>950.2</ele>
        <time>2022-05-28T07:10:13Z</time>
      </trkpt>
      <trkpt lat="48.05337" lon="6.93846">
        <ele>948.6</ele>
        <time>2022-05-28T07:10:15Z</time>
      </trkpt>
      <trkpt lat="48.05331" lon="6.93836">
        <ele>947.6</ele>
        <time>2022-05-28T07:10:16Z</time>
      </trkpt>
      <trkpt lat="48.05319" lon="6.93817">
        <ele>946.8</ele>
        <time>2022-05-28T07:10:18Z</time>
      </trkpt>
      <trkpt lat="48.05312" lon="6.93799">
        <ele>949.1</ele>
        <time>2022-05-28T07:10:20Z</time>
      </trkpt>
      <trkpt lat="48.05309" lon="6.93784">
        <ele>952.5</ele>
        <time>2022-05-28T07:10:22Z</time>
      </trkpt>
      <trkpt lat="48.05304" lon="6.93768">
        <ele>951.8</ele>
        <time>2022-05-28T07:10:25Z</time>
      </trkpt>
      <trkpt lat="48.053" lon="6.93754">
        <ele>954.6</ele>
        <time>2022-05-28T07:10:28Z</time>
      </trkpt>
      <trkpt lat="48.05298" lon="6.93738">
        <ele>955.4</ele>
        <time>2022-05-28T07:10:32Z</time>
      </trkpt>
      <trkpt lat="48.05297" lon="6.93724">
        <ele>956</ele>
        <time>2022-05-28T07:10:36Z</time>
      </trkpt>
      <trkpt lat="48.05293" lon="6.9371">
        <ele>956.7</ele>
        <time>2022-05-28T07:10:41Z</time>
      </trkpt>
      <trkpt lat="48.05288" lon="6.93698">
        <ele>957.6</ele>
        <time>2022-05-28T07:10:45Z</time>
      </trkpt>
      <trkpt lat="48.05284" lon="6.93685">
        <ele>958.3</ele>
        <time>2022-05-28T07:10:49Z</time>
      </trkpt>
      <trkpt lat="48.05278" lon="6.93673">
        <ele>958.5</ele>
        <time>2022-05-28T07:10:53Z</time>
      </trkpt>
      <trkpt lat="48.05269" lon="6.93665">
        <ele>959.5</ele>
        <time>2022-05-28T07:10:58Z</time>
      </trkpt>
      <trkpt lat="48.05261" lon="6.93657">
        <ele>960.1</ele>
        <time>2022-05-28T07:11:03Z</time>
      </trkpt>
      <trkpt lat="48.05253" lon="6.93646">
        <ele>961.4</ele>
        <time>2022-05-28T07:11:08Z</time>
      </trkpt>
      <trkpt lat="48.05249" lon="6.93631">
        <ele>962.2</ele>
        <time>2022-05-28T07:11:13Z</time>
      </trkpt>
      <trkpt lat="48.05245" lon="6.93618">
        <ele>962.9</ele>
        <time>2022-05-28T07:11:17Z</time>
      </trkpt>
      <trkpt lat="48.05241" lon="6.93605">
        <ele>962.6</ele>
        <time>2022-05-28T07:11:21Z</time>
      </trkpt>
      <trkpt lat="48.05237" lon="6.93591">
        <ele>964.6</ele>
        <time>2022-05-28T07:11:25Z</time>
      </trkpt>
      <trkpt lat="48.05237" lon="6.93577">
        <ele>965.4</ele>
        <time>2022-05-28T07:11:29Z</time>
      </trkpt>
      <trkpt lat="48.05237" lon="6.93562">
        <ele>965.7</ele>
        <time>2022-05-28T07:11:34Z</time>
      </trkpt>
      <trkpt lat="48.05237" lon="6.93548">
        <ele>966</ele>
        <time>2022-05-28T07:11:39Z</time>
      </trkpt>
      <trkpt lat="48.05234" lon="6.93543">
        <ele>966.5</ele>
        <time>2022-05-28T07:11:46Z</time>
      </trkpt>
      <trkpt lat="48.05234" lon="6.93544">
        <ele>966.1</ele>
        <time>2022-05-28T07:11:50Z</time>
      </trkpt>
      <trkpt lat="48.05234" lon="6.93545">
        <ele>965.8</ele>
        <time>2022-05-28T07:12:42Z</time>
      </trkpt>
      <trkpt lat="48.05234" lon="6.93546">
        <ele>966</ele>
        <time>2022-05-28T07:12:44Z</time>
      </trkpt>
      <trkpt lat="48.05233" lon="6.93546">
        <ele>965.6</ele>
        <time>2022-05-28T07:14:05Z</time>
      </trkpt>
      <trkpt lat="48.05234" lon="6.93546">
        <ele>965.7</ele>
        <time>2022-05-28T07:14:23Z</time>
      </trkpt>
      <trkpt lat="48.05234" lon="6.93545">
        <ele>965.5</ele>
        <time>2022-05-28T07:14:25Z</time>
      </trkpt>
      <trkpt lat="48.05234" lon="6.93544">
        <ele>965.4</ele>
        <time>2022-05-28T07:14:32Z</time>
      </trkpt>
      <trkpt lat="48.05233" lon="6.93544">
        <ele>965.2</ele>
        <time>2022-05-28T07:14:35Z</time>
      </trkpt>
      <trkpt lat="48.05234" lon="6.93544">
        <ele>965.2</ele>
        <time>2022-05-28T07:15:11Z</time>
      </trkpt>
      <trkpt lat="48.05235" lon="6.93544">
        <ele>965.1</ele>
        <time>2022-05-28T07:15:30Z</time>
      </trkpt>
      <trkpt lat="48.05235" lon="6.93544">
        <ele>965.1</ele>
        <time>2022-05-28T07:15:31Z</time>
      </trkpt>
      <trkpt lat="48.05235" lon="6.93545">
        <ele>965</ele>
        <time>2022-05-28T07:15:34Z</time>
      </trkpt>
      <trkpt lat="48.05235" lon="6.93559">
        <ele>965.5</ele>
        <time>2022-05-28T07:17:16Z</time>
      </trkpt>
      <trkpt lat="48.05235" lon="6.93575">
        <ele>964.5</ele>
        <time>2022-05-28T07:17:20Z</time>
      </trkpt>
      <trkpt lat="48.05236" lon="6.93589">
        <ele>964.6</ele>
        <time>2022-05-28T07:17:23Z</time>
      </trkpt>
      <trkpt lat="48.05238" lon="6.93608">
        <ele>962.7</ele>
        <time>2022-05-28T07:17:26Z</time>
      </trkpt>
      <trkpt lat="48.05243" lon="6.93622">
        <ele>959</ele>
        <time>2022-05-28T07:17:28Z</time>
      </trkpt>
      <trkpt lat="48.05246" lon="6.93636">
        <ele>961.9</ele>
        <time>2022-05-28T07:17:30Z</time>
      </trkpt>
      <trkpt lat="48.05252" lon="6.93655">
        <ele>959.9</ele>
        <time>2022-05-28T07:17:33Z</time>
      </trkpt>
      <trkpt lat="48.05262" lon="6.93668">
        <ele>957.5</ele>
        <time>2022-05-28T07:17:35Z</time>
      </trkpt>
      <trkpt lat="48.05274" lon="6.9368">
        <ele>957.3</ele>
        <time>2022-05-28T07:17:37Z</time>
      </trkpt>
      <trkpt lat="48.05282" lon="6.93691">
        <ele>955.9</ele>
        <time>2022-05-28T07:17:39Z</time>
      </trkpt>
      <trkpt lat="48.0529" lon="6.93707">
        <ele>957.5</ele>
        <time>2022-05-28T07:17:41Z</time>
      </trkpt>
      <trkpt lat="48.05295" lon="6.93725">
        <ele>955.8</ele>
        <time>2022-05-28T07:17:43Z</time>
      </trkpt>
      <trkpt lat="48.053" lon="6.93744">
        <ele>954.5</ele>
        <time>2022-05-28T07:17:45Z</time>
      </trkpt>
      <trkpt lat="48.05306" lon="6.93763">
        <ele>952.3</ele>
        <time>2022-05-28T07:17:47Z</time>
      </trkpt>
      <trkpt lat="48.05312" lon="6.93782">
        <ele>953</ele>
        <time>2022-05-28T07:17:49Z</time>
      </trkpt>
      <trkpt lat="48.05318" lon="6.93799">
        <ele>953.1</ele>
        <time>2022-05-28T07:17:51Z</time>
      </trkpt>
      <trkpt lat="48.05328" lon="6.93814">
        <ele>948.6</ele>
        <time>2022-05-28T07:17:53Z</time>
      </trkpt>
      <trkpt lat="48.05338" lon="6.9383">
        <ele>946.5</ele>
        <time>2022-05-28T07:17:55Z</time>
      </trkpt>
      <trkpt lat="48.05347" lon="6.93843">
        <ele>947.1</ele>
        <time>2022-05-28T07:17:57Z</time>
      </trkpt>
      <trkpt lat="48.05353" lon="6.93854">
        <ele>949.6</ele>
        <time>2022-05-28T07:17:59Z</time>
      </trkpt>
      <trkpt lat="48.05361" lon="6.93867">
        <ele>953.2</ele>
        <time>2022-05-28T07:18:02Z</time>
      </trkpt>
      <trkpt lat="48.05371" lon="6.93877">
        <ele>954.2</ele>
        <time>2022-05-28T07:18:05Z</time>
      </trkpt>
      <trkpt lat="48.05379" lon="6.93885">
        <ele>953.6</ele>
        <time>2022-05-28T07:18:09Z</time>
      </trkpt>
      <trkpt lat="48.05388" lon="6.9389">
        <ele>956.1</ele>
        <time>2022-05-28T07:18:13Z</time>
      </trkpt>
      <trkpt lat="48.05396" lon="6.93896">
        <ele>957.7</ele>
        <time>2022-05-28T07:18:17Z</time>
      </trkpt>
      <trkpt lat="48.05404" lon="6.93906">
        <ele>959.1</ele>
        <time>2022-05-28T07:18:22Z</time>
      </trkpt>
      <trkpt lat="48.0541" lon="6.93919">
        <ele>958.7</ele>
        <time>2022-05-28T07:18:27Z</time>
      </trkpt>
      <trkpt lat="48.05416" lon="6.93934">
        <ele>959.4</ele>
        <time>2022-05-28T07:18:31Z</time>
      </trkpt>
      <trkpt lat="48.05423" lon="6.93947">
        <ele>959.2</ele>
        <time>2022-05-28T07:18:35Z</time>
      </trkpt>
      <trkpt lat="48.05427" lon="6.93959">
        <ele>959.9</ele>
        <time>2022-05-28T07:18:38Z</time>
      </trkpt>
      <trkpt lat="48.05436" lon="6.93971">
        <ele>959.7</ele>
        <time>2022-05-28T07:18:42Z</time>
      </trkpt>
      <trkpt lat="48.05443" lon="6.93983">
        <ele>960.2</ele>
        <time>2022-05-28T07:18:46Z</time>
      </trkpt>
      <trkpt lat="48.0545" lon="6.93998">
        <ele>959.2</ele>
        <time>2022-05-28T07:18:50Z</time>
      </trkpt>
      <trkpt lat="48.05457" lon="6.94013">
        <ele>961.7</ele>
        <time>2022-05-28T07:18:53Z</time>
      </trkpt>
      <trkpt lat="48.05464" lon="6.94028">
        <ele>960.2</ele>
        <time>2022-05-28T07:18:56Z</time>
      </trkpt>
      <trkpt lat="48.05472" lon="6.94042">
        <ele>958.8</ele>
        <time>2022-05-28T07:18:59Z</time>
      </trkpt>
      <trkpt lat="48.0548" lon="6.9405">
        <ele>960</ele>
        <time>2022-05-28T07:19:01Z</time>
      </trkpt>
      <trkpt lat="48.0549" lon="6.94058">
        <ele>959.8</ele>
        <time>2022-05-28T07:19:03Z</time>
      </trkpt>
      <trkpt lat="48.05499" lon="6.94065">
        <ele>958.8</ele>
        <time>2022-05-28T07:19:07Z</time>
      </trkpt>
      <trkpt lat="48.05496" lon="6.94052">
        <ele>958.8</ele>
        <time>2022-05-28T07:19:16Z</time>
      </trkpt>
      <trkpt lat="48.05486" lon="6.94045">
        <ele>958.6</ele>
        <time>2022-05-28T07:19:22Z</time>
      </trkpt>
      <trkpt lat="48.05477" lon="6.94037">
        <ele>961</ele>
        <time>2022-05-28T07:19:27Z</time>
      </trkpt>
      <trkpt lat="48.05469" lon="6.94027">
        <ele>960.4</ele>
        <time>2022-05-28T07:19:32Z</time>
      </trkpt>
      <trkpt lat="48.05463" lon="6.94018">
        <ele>960.7</ele>
        <time>2022-05-28T07:19:37Z</time>
      </trkpt>
      <trkpt lat="48.05455" lon="6.94009">
        <ele>960.9</ele>
        <time>2022-05-28T07:19:42Z</time>
      </trkpt>
      <trkpt lat="48.05448" lon="6.93998">
        <ele>960.7</ele>
        <time>2022-05-28T07:19:48Z</time>
      </trkpt>
      <trkpt lat="48.05441" lon="6.93988">
        <ele>960.6</ele>
        <time>2022-05-28T07:19:52Z</time>
      </trkpt>
      <trkpt lat="48.05434" lon="6.93975">
        <ele>961.8</ele>
        <time>2022-05-28T07:19:56Z</time>
      </trkpt>
      <trkpt lat="48.05426" lon="6.93964">
        <ele>960.2</ele>
        <time>2022-05-28T07:20:00Z</time>
      </trkpt>
      <trkpt lat="48.0542" lon="6.93951">
        <ele>960.4</ele>
        <time>2022-05-28T07:20:03Z</time>
      </trkpt>
      <trkpt lat="48.05414" lon="6.93937">
        <ele>960.9</ele>
        <time>2022-05-28T07:20:06Z</time>
      </trkpt>
      <trkpt lat="48.05408" lon="6.93924">
        <ele>959.9</ele>
        <time>2022-05-28T07:20:09Z</time>
      </trkpt>
      <trkpt lat="48.054" lon="6.93913">
        <ele>959.1</ele>
        <time>2022-05-28T07:20:12Z</time>
      </trkpt>
      <trkpt lat="48.05392" lon="6.93904">
        <ele>958.5</ele>
        <time>2022-05-28T07:20:15Z</time>
      </trkpt>
      <trkpt lat="48.05382" lon="6.93897">
        <ele>957.5</ele>
        <time>2022-05-28T07:20:18Z</time>
      </trkpt>
      <trkpt lat="48.05373" lon="6.93891">
        <ele>956.4</ele>
        <time>2022-05-28T07:20:20Z</time>
      </trkpt>
      <trkpt lat="48.05364" lon="6.93883">
        <ele>953.3</ele>
        <time>2022-05-28T07:20:22Z</time>
      </trkpt>
      <trkpt lat="48.05353" lon="6.93873">
        <ele>953.6</ele>
        <time>2022-05-28T07:20:24Z</time>
      </trkpt>
      <trkpt lat="48.05343" lon="6.93856">
        <ele>952.4</ele>
        <time>2022-05-28T07:20:26Z</time>
      </trkpt>
      <trkpt lat="48.05333" lon="6.93837">
        <ele>947.2</ele>
        <time>2022-05-28T07:20:28Z</time>
      </trkpt>
      <trkpt lat="48.05322" lon="6.93818">
        <ele>948</ele>
        <time>2022-05-28T07:20:30Z</time>
      </trkpt>
      <trkpt lat="48.05315" lon="6.938">
        <ele>949.1</ele>
        <time>2022-05-28T07:20:32Z</time>
      </trkpt>
      <trkpt lat="48.05311" lon="6.93786">
        <ele>951</ele>
        <time>2022-05-28T07:20:34Z</time>
      </trkpt>
      <trkpt lat="48.05307" lon="6.93772">
        <ele>953</ele>
        <time>2022-05-28T07:20:37Z</time>
      </trkpt>
      <trkpt lat="48.05304" lon="6.93758">
        <ele>955.4</ele>
        <time>2022-05-28T07:20:40Z</time>
      </trkpt>
      <trkpt lat="48.053" lon="6.93742">
        <ele>955</ele>
        <time>2022-05-28T07:20:44Z</time>
      </trkpt>
      <trkpt lat="48.05297" lon="6.93726">
        <ele>955.5</ele>
        <time>2022-05-28T07:20:48Z</time>
      </trkpt>
      <trkpt lat="48.05293" lon="6.93711">
        <ele>957.3</ele>
        <time>2022-05-28T07:20:52Z</time>
      </trkpt>
      <trkpt lat="48.05288" lon="6.93697">
        <ele>958.2</ele>
        <time>2022-05-28T07:20:56Z</time>
      </trkpt>
      <trkpt lat="48.05283" lon="6.93684">
        <ele>957.7</ele>
        <time>2022-05-28T07:21:00Z</time>
      </trkpt>
      <trkpt lat="48.05276" lon="6.93673">
        <ele>960.1</ele>
        <time>2022-05-28T07:21:04Z</time>
      </trkpt>
      <trkpt lat="48.05266" lon="6.93664">
        <ele>960.2</ele>
        <time>2022-05-28T07:21:08Z</time>
      </trkpt>
      <trkpt lat="48.05259" lon="6.93655">
        <ele>960.1</ele>
        <time>2022-05-28T07:21:12Z</time>
      </trkpt>
      <trkpt lat="48.05253" lon="6.93643">
        <ele>962.2</ele>
        <time>2022-05-28T07:21:17Z</time>
      </trkpt>
      <trkpt lat="48.05248" lon="6.93629">
        <ele>962.7</ele>
        <time>2022-05-28T07:21:22Z</time>
      </trkpt>
      <trkpt lat="48.05245" lon="6.93614">
        <ele>963.6</ele>
        <time>2022-05-28T07:21:27Z</time>
      </trkpt>
      <trkpt lat="48.05241" lon="6.93599">
        <ele>964.8</ele>
        <time>2022-05-28T07:21:32Z</time>
      </trkpt>
      <trkpt lat="48.05238" lon="6.93586">
        <ele>965.2</ele>
        <time>2022-05-28T07:21:37Z</time>
      </trkpt>
      <trkpt lat="48.05236" lon="6.9357">
        <ele>966.2</ele>
        <time>2022-05-28T07:21:42Z</time>
      </trkpt>
      <trkpt lat="48.05234" lon="6.93554">
        <ele>966.4</ele>
        <time>2022-05-28T07:21:46Z</time>
      </trkpt>
      <trkpt lat="48.05231" lon="6.93541">
        <ele>966.2</ele>
        <time>2022-05-28T07:21:50Z</time>
      </trkpt>
      <trkpt lat="48.05224" lon="6.93527">
        <ele>966.6</ele>
        <time>2022-05-28T07:21:54Z</time>
      </trkpt>
      <trkpt lat="48.0522" lon="6.93515">
        <ele>968.2</ele>
        <time>2022-05-28T07:21:57Z</time>
      </trkpt>
      <trkpt lat="48.05216" lon="6.93502">
        <ele>966.7</ele>
        <time>2022-05-28T07:22:00Z</time>
      </trkpt>
      <trkpt lat="48.05213" lon="6.93488">
        <ele>967.3</ele>
        <time>2022-05-28T07:22:03Z</time>
      </trkpt>
      <trkpt lat="48.05208" lon="6.93475">
        <ele>965.7</ele>
        <time>2022-05-28T07:22:06Z</time>
      </trkpt>
      <trkpt lat="48.05207" lon="6.9346">
        <ele>964.5</ele>
        <time>2022-05-28T07:22:09Z</time>
      </trkpt>
      <trkpt lat="48.05207" lon="6.93445">
        <ele>967.2</ele>
        <time>2022-05-28T07:22:12Z</time>
      </trkpt>
      <trkpt lat="48.05208" lon="6.93431">
        <ele>966.1</ele>
        <time>2022-05-28T07:22:15Z</time>
      </trkpt>
      <trkpt lat="48.05204" lon="6.93413">
        <ele>966.9</ele>
        <time>2022-05-28T07:22:18Z</time>
      </trkpt>
      <trkpt lat="48.05202" lon="6.93399">
        <ele>965.9</ele>
        <time>2022-05-28T07:22:20Z</time>
      </trkpt>
      <trkpt lat="48.05202" lon="6.93379">
        <ele>966.2</ele>
        <time>2022-05-28T07:22:23Z</time>
      </trkpt>
      <trkpt lat="48.05201" lon="6.93362">
        <ele>965.4</ele>
        <time>2022-05-28T07:22:26Z</time>
      </trkpt>
      <trkpt lat="48.05201" lon="6.93346">
        <ele>965.9</ele>
        <time>2022-05-28T07:22:29Z</time>
      </trkpt>
      <trkpt lat="48.05199" lon="6.93328">
        <ele>966.5</ele>
        <time>2022-05-28T07:22:33Z</time>
      </trkpt>
      <trkpt lat="48.05196" lon="6.93314">
        <ele>967.6</ele>
        <time>2022-05-28T07:22:36Z</time>
      </trkpt>
      <trkpt lat="48.05195" lon="6.93299">
        <ele>967.4</ele>
        <time>2022-05-28T07:22:39Z</time>
      </trkpt>
      <trkpt lat="48.05192" lon="6.93282">
        <ele>966.7</ele>
        <time>2022-05-28T07:22:42Z</time>
      </trkpt>
      <trkpt lat="48.05191" lon="6.93268">
        <ele>967.5</ele>
        <time>2022-05-28T07:22:44Z</time>
      </trkpt>
      <trkpt lat="48.05192" lon="6.9325">
        <ele>963.6</ele>
        <time>2022-05-28T07:22:46Z</time>
      </trkpt>
      <trkpt lat="48.05195" lon="6.93229">
        <ele>964.6</ele>
        <time>2022-05-28T07:22:48Z</time>
      </trkpt>
      <trkpt lat="48.05196" lon="6.93206">
        <ele>958.2</ele>
        <time>2022-05-28T07:22:50Z</time>
      </trkpt>
      <trkpt lat="48.05192" lon="6.93183">
        <ele>958</ele>
        <time>2022-05-28T07:22:52Z</time>
      </trkpt>
      <trkpt lat="48.05186" lon="6.93165">
        <ele>955.7</ele>
        <time>2022-05-28T07:22:54Z</time>
      </trkpt>
      <trkpt lat="48.05177" lon="6.93148">
        <ele>953.2</ele>
        <time>2022-05-28T07:22:56Z</time>
      </trkpt>
      <trkpt lat="48.05169" lon="6.9313">
        <ele>954.3</ele>
        <time>2022-05-28T07:22:58Z</time>
      </trkpt>
      <trkpt lat="48.0516" lon="6.93113">
        <ele>953.8</ele>
        <time>2022-05-28T07:23:00Z</time>
      </trkpt>
      <trkpt lat="48.05152" lon="6.93099">
        <ele>956.9</ele>
        <time>2022-05-28T07:23:02Z</time>
      </trkpt>
      <trkpt lat="48.05145" lon="6.93084">
        <ele>958</ele>
        <time>2022-05-28T07:23:05Z</time>
      </trkpt>
      <trkpt lat="48.05137" lon="6.93068">
        <ele>958.3</ele>
        <time>2022-05-28T07:23:08Z</time>
      </trkpt>
      <trkpt lat="48.05132" lon="6.93057">
        <ele>959.2</ele>
        <time>2022-05-28T07:23:10Z</time>
      </trkpt>
      <trkpt lat="48.05124" lon="6.93042">
        <ele>956.6</ele>
        <time>2022-05-28T07:23:13Z</time>
      </trkpt>
      <trkpt lat="48.05116" lon="6.93032">
        <ele>955.9</ele>
        <time>2022-05-28T07:23:15Z</time>
      </trkpt>
      <trkpt lat="48.05108" lon="6.93024">
        <ele>956.2</ele>
        <time>2022-05-28T07:23:17Z</time>
      </trkpt>
      <trkpt lat="48.05098" lon="6.93013">
        <ele>955.5</ele>
        <time>2022-05-28T07:23:20Z</time>
      </trkpt>
      <trkpt lat="48.05088" lon="6.93">
        <ele>956.4</ele>
        <time>2022-05-28T07:23:23Z</time>
      </trkpt>
      <trkpt lat="48.05082" lon="6.9299">
        <ele>956.3</ele>
        <time>2022-05-28T07:23:25Z</time>
      </trkpt>
      <trkpt lat="48.05075" lon="6.92975">
        <ele>957.2</ele>
        <time>2022-05-28T07:23:27Z</time>
      </trkpt>
      <trkpt lat="48.05068" lon="6.92964">
        <ele>955.7</ele>
        <time>2022-05-28T07:23:29Z</time>
      </trkpt>
      <trkpt lat="48.05059" lon="6.92952">
        <ele>956.3</ele>
        <time>2022-05-28T07:23:32Z</time>
      </trkpt>
      <trkpt lat="48.05052" lon="6.9294">
        <ele>957.5</ele>
        <time>2022-05-28T07:23:35Z</time>
      </trkpt>
      <trkpt lat="48.05044" lon="6.92929">
        <ele>958.4</ele>
        <time>2022-05-28T07:23:38Z</time>
      </trkpt>
      <trkpt lat="48.05037" lon="6.92919">
        <ele>956.4</ele>
        <time>2022-05-28T07:23:41Z</time>
      </trkpt>
      <trkpt lat="48.0503" lon="6.92909">
        <ele>957.8</ele>
        <time>2022-05-28T07:23:44Z</time>
      </trkpt>
      <trkpt lat="48.05021" lon="6.92898">
        <ele>958.7</ele>
        <time>2022-05-28T07:23:48Z</time>
      </trkpt>
      <trkpt lat="48.05011" lon="6.9289">
        <ele>958.9</ele>
        <time>2022-05-28T07:23:52Z</time>
      </trkpt>
      <trkpt lat="48.05003" lon="6.9288">
        <ele>960.3</ele>
        <time>2022-05-28T07:23:56Z</time>
      </trkpt>
      <trkpt lat="48.04996" lon="6.9287">
        <ele>961.2</ele>
        <time>2022-05-28T07:24:00Z</time>
      </trkpt>
      <trkpt lat="48.04988" lon="6.92862">
        <ele>963.7</ele>
        <time>2022-05-28T07:24:04Z</time>
      </trkpt>
      <trkpt lat="48.04981" lon="6.92849">
        <ele>964.7</ele>
        <time>2022-05-28T07:24:08Z</time>
      </trkpt>
      <trkpt lat="48.04973" lon="6.92841">
        <ele>963.9</ele>
        <time>2022-05-28T07:24:12Z</time>
      </trkpt>
      <trkpt lat="48.04964" lon="6.92834">
        <ele>965.9</ele>
        <time>2022-05-28T07:24:16Z</time>
      </trkpt>
      <trkpt lat="48.04955" lon="6.92829">
        <ele>965.6</ele>
        <time>2022-05-28T07:24:20Z</time>
      </trkpt>
      <trkpt lat="48.04946" lon="6.92825">
        <ele>966.9</ele>
        <time>2022-05-28T07:24:24Z</time>
      </trkpt>
      <trkpt lat="48.04936" lon="6.9282">
        <ele>968</ele>
        <time>2022-05-28T07:24:29Z</time>
      </trkpt>
      <trkpt lat="48.04926" lon="6.92812">
        <ele>969.1</ele>
        <time>2022-05-28T07:24:34Z</time>
      </trkpt>
      <trkpt lat="48.04917" lon="6.92804">
        <ele>969.4</ele>
        <time>2022-05-28T07:24:39Z</time>
      </trkpt>
      <trkpt lat="48.04908" lon="6.92799">
        <ele>970.3</ele>
        <time>2022-05-28T07:24:43Z</time>
      </trkpt>
      <trkpt lat="48.049" lon="6.92792">
        <ele>971</ele>
        <time>2022-05-28T07:24:47Z</time>
      </trkpt>
      <trkpt lat="48.04891" lon="6.92787">
        <ele>971.2</ele>
        <time>2022-05-28T07:24:51Z</time>
      </trkpt>
      <trkpt lat="48.04881" lon="6.92781">
        <ele>972</ele>
        <time>2022-05-28T07:24:55Z</time>
      </trkpt>
      <trkpt lat="48.04872" lon="6.92773">
        <ele>971.8</ele>
        <time>2022-05-28T07:24:59Z</time>
      </trkpt>
      <trkpt lat="48.04862" lon="6.92765">
        <ele>972</ele>
        <time>2022-05-28T07:25:03Z</time>
      </trkpt>
      <trkpt lat="48.04853" lon="6.9276">
        <ele>973</ele>
        <time>2022-05-28T07:25:07Z</time>
      </trkpt>
      <trkpt lat="48.04844" lon="6.92756">
        <ele>974.1</ele>
        <time>2022-05-28T07:25:11Z</time>
      </trkpt>
      <trkpt lat="48.04833" lon="6.92754">
        <ele>974.9</ele>
        <time>2022-05-28T07:25:16Z</time>
      </trkpt>
      <trkpt lat="48.04822" lon="6.92755">
        <ele>974.4</ele>
        <time>2022-05-28T07:25:21Z</time>
      </trkpt>
      <trkpt lat="48.04812" lon="6.92755">
        <ele>975.1</ele>
        <time>2022-05-28T07:25:26Z</time>
      </trkpt>
      <trkpt lat="48.04804" lon="6.92747">
        <ele>976.6</ele>
        <time>2022-05-28T07:25:32Z</time>
      </trkpt>
      <trkpt lat="48.04803" lon="6.92733">
        <ele>978</ele>
        <time>2022-05-28T07:25:42Z</time>
      </trkpt>
      <trkpt lat="48.04813" lon="6.92732">
        <ele>981.5</ele>
        <time>2022-05-28T07:25:49Z</time>
      </trkpt>
      <trkpt lat="48.04816" lon="6.92719">
        <ele>983.9</ele>
        <time>2022-05-28T07:25:55Z</time>
      </trkpt>
      <trkpt lat="48.04816" lon="6.92703">
        <ele>986</ele>
        <time>2022-05-28T07:26:02Z</time>
      </trkpt>
      <trkpt lat="48.04816" lon="6.92689">
        <ele>988.7</ele>
        <time>2022-05-28T07:26:08Z</time>
      </trkpt>
      <trkpt lat="48.04813" lon="6.92675">
        <ele>991.2</ele>
        <time>2022-05-28T07:26:17Z</time>
      </trkpt>
      <trkpt lat="48.04814" lon="6.92661">
        <ele>993.2</ele>
        <time>2022-05-28T07:26:27Z</time>
      </trkpt>
      <trkpt lat="48.04815" lon="6.92652">
        <ele>995</ele>
        <time>2022-05-28T07:26:35Z</time>
      </trkpt>
      <trkpt lat="48.04815" lon="6.9265">
        <ele>995.7</ele>
        <time>2022-05-28T07:26:37Z</time>
      </trkpt>
      <trkpt lat="48.04815" lon="6.92646">
        <ele>995.5</ele>
        <time>2022-05-28T07:26:44Z</time>
      </trkpt>
      <trkpt lat="48.04816" lon="6.92646">
        <ele>995.6</ele>
        <time>2022-05-28T07:26:51Z</time>
      </trkpt>
      <trkpt lat="48.04822" lon="6.92635">
        <ele>998.2</ele>
        <time>2022-05-28T07:27:03Z</time>
      </trkpt>
      <trkpt lat="48.04822" lon="6.92633">
        <ele>999</ele>
        <time>2022-05-28T07:27:06Z</time>
      </trkpt>
      <trkpt lat="48.04824" lon="6.9262">
        <ele>1000.6</ele>
        <time>2022-05-28T07:27:19Z</time>
      </trkpt>
      <trkpt lat="48.04824" lon="6.92606">
        <ele>1002.1</ele>
        <time>2022-05-28T07:27:27Z</time>
      </trkpt>
      <trkpt lat="48.04825" lon="6.92591">
        <ele>1004.1</ele>
        <time>2022-05-28T07:27:35Z</time>
      </trkpt>
      <trkpt lat="48.04824" lon="6.92576">
        <ele>1006.8</ele>
        <time>2022-05-28T07:27:42Z</time>
      </trkpt>
      <trkpt lat="48.04821" lon="6.92562">
        <ele>1009.2</ele>
        <time>2022-05-28T07:27:49Z</time>
      </trkpt>
      <trkpt lat="48.04823" lon="6.92548">
        <ele>1011.3</ele>
        <time>2022-05-28T07:27:56Z</time>
      </trkpt>
      <trkpt lat="48.04822" lon="6.92534">
        <ele>1011.9</ele>
        <time>2022-05-28T07:28:03Z</time>
      </trkpt>
      <trkpt lat="48.04819" lon="6.92529">
        <ele>1011.7</ele>
        <time>2022-05-28T07:28:10Z</time>
      </trkpt>
      <trkpt lat="48.04819" lon="6.92528">
        <ele>1011.8</ele>
        <time>2022-05-28T07:28:13Z</time>
      </trkpt>
      <trkpt lat="48.04815" lon="6.92514">
        <ele>1012.9</ele>
        <time>2022-05-28T07:28:20Z</time>
      </trkpt>
      <trkpt lat="48.0481" lon="6.92501">
        <ele>1014.1</ele>
        <time>2022-05-28T07:28:26Z</time>
      </trkpt>
      <trkpt lat="48.04807" lon="6.92488">
        <ele>1014.8</ele>
        <time>2022-05-28T07:28:31Z</time>
      </trkpt>
      <trkpt lat="48.04805" lon="6.92473">
        <ele>1015.1</ele>
        <time>2022-05-28T07:28:37Z</time>
      </trkpt>
      <trkpt lat="48.04801" lon="6.92459">
        <ele>1016.5</ele>
        <time>2022-05-28T07:28:44Z</time>
      </trkpt>
      <trkpt lat="48.04798" lon="6.92445">
        <ele>1019.4</ele>
        <time>2022-05-28T07:28:53Z</time>
      </trkpt>
      <trkpt lat="48.04795" lon="6.92432">
        <ele>1020</ele>
        <time>2022-05-28T07:29:00Z</time>
      </trkpt>
      <trkpt lat="48.04793" lon="6.92418">
        <ele>1021.3</ele>
        <time>2022-05-28T07:29:07Z</time>
      </trkpt>
      <trkpt lat="48.04791" lon="6.92404">
        <ele>1022.7</ele>
        <time>2022-05-28T07:29:14Z</time>
      </trkpt>
      <trkpt lat="48.0479" lon="6.92391">
        <ele>1024.6</ele>
        <time>2022-05-28T07:29:20Z</time>
      </trkpt>
      <trkpt lat="48.04786" lon="6.92376">
        <ele>1026.6</ele>
        <time>2022-05-28T07:29:27Z</time>
      </trkpt>
      <trkpt lat="48.04784" lon="6.92361">
        <ele>1029.1</ele>
        <time>2022-05-28T07:29:35Z</time>
      </trkpt>
      <trkpt lat="48.04779" lon="6.92349">
        <ele>1031.1</ele>
        <time>2022-05-28T07:29:42Z</time>
      </trkpt>
      <trkpt lat="48.04776" lon="6.92335">
        <ele>1033.1</ele>
        <time>2022-05-28T07:29:50Z</time>
      </trkpt>
      <trkpt lat="48.04776" lon="6.92321">
        <ele>1034.7</ele>
        <time>2022-05-28T07:29:59Z</time>
      </trkpt>
      <trkpt lat="48.04777" lon="6.92305">
        <ele>1035.8</ele>
        <time>2022-05-28T07:30:09Z</time>
      </trkpt>
      <trkpt lat="48.04772" lon="6.92292">
        <ele>1037</ele>
        <time>2022-05-28T07:30:16Z</time>
      </trkpt>
      <trkpt lat="48.0477" lon="6.92278">
        <ele>1039.5</ele>
        <time>2022-05-28T07:30:22Z</time>
      </trkpt>
      <trkpt lat="48.04771" lon="6.92263">
        <ele>1041.3</ele>
        <time>2022-05-28T07:30:30Z</time>
      </trkpt>
      <trkpt lat="48.0477" lon="6.9225">
        <ele>1043.3</ele>
        <time>2022-05-28T07:30:37Z</time>
      </trkpt>
      <trkpt lat="48.04772" lon="6.92235">
        <ele>1044.8</ele>
        <time>2022-05-28T07:30:45Z</time>
      </trkpt>
      <trkpt lat="48.0477" lon="6.92222">
        <ele>1046.1</ele>
        <time>2022-05-28T07:30:52Z</time>
      </trkpt>
      <trkpt lat="48.04767" lon="6.92208">
        <ele>1048</ele>
        <time>2022-05-28T07:31:00Z</time>
      </trkpt>
      <trkpt lat="48.04767" lon="6.92193">
        <ele>1049.6</ele>
        <time>2022-05-28T07:31:08Z</time>
      </trkpt>
      <trkpt lat="48.04768" lon="6.92178">
        <ele>1050.6</ele>
        <time>2022-05-28T07:31:15Z</time>
      </trkpt>
      <trkpt lat="48.04773" lon="6.92165">
        <ele>1052.9</ele>
        <time>2022-05-28T07:31:22Z</time>
      </trkpt>
      <trkpt lat="48.04781" lon="6.92172">
        <ele>1054</ele>
        <time>2022-05-28T07:31:34Z</time>
      </trkpt>
      <trkpt lat="48.04773" lon="6.92164">
        <ele>1053.4</ele>
        <time>2022-05-28T07:31:45Z</time>
      </trkpt>
      <trkpt lat="48.04777" lon="6.92172">
        <ele>1053.6</ele>
        <time>2022-05-28T07:31:56Z</time>
      </trkpt>
      <trkpt lat="48.04778" lon="6.92172">
        <ele>1053.7</ele>
        <time>2022-05-28T07:31:57Z</time>
      </trkpt>
      <trkpt lat="48.04778" lon="6.92171">
        <ele>1054</ele>
        <time>2022-05-28T07:31:58Z</time>
      </trkpt>
      <trkpt lat="48.04777" lon="6.92171">
        <ele>1054</ele>
        <time>2022-05-28T07:31:59Z</time>
      </trkpt>
      <trkpt lat="48.04777" lon="6.92172">
        <ele>1053.9</ele>
        <time>2022-05-28T07:32:14Z</time>
      </trkpt>
      <trkpt lat="48.04777" lon="6.92173">
        <ele>1053.7</ele>
        <time>2022-05-28T07:32:18Z</time>
      </trkpt>
      <trkpt lat="48.04777" lon="6.92171">
        <ele>1053.7</ele>
        <time>2022-05-28T07:32:50Z</time>
      </trkpt>
      <trkpt lat="48.04777" lon="6.9217">
        <ele>1053.8</ele>
        <time>2022-05-28T07:32:53Z</time>
      </trkpt>
      <trkpt lat="48.04777" lon="6.9217">
        <ele>1053.5</ele>
        <time>2022-05-28T07:34:14Z</time>
      </trkpt>
      <trkpt lat="48.04778" lon="6.92174">
        <ele>1053.3</ele>
        <time>2022-05-28T07:34:21Z</time>
      </trkpt>
      <trkpt lat="48.04779" lon="6.92175">
        <ele>1053.6</ele>
        <time>2022-05-28T07:34:25Z</time>
      </trkpt>
      <trkpt lat="48.04779" lon="6.92176">
        <ele>1053.5</ele>
        <time>2022-05-28T07:34:30Z</time>
      </trkpt>
      <trkpt lat="48.04778" lon="6.92171">
        <ele>1052.8</ele>
        <time>2022-05-28T07:35:12Z</time>
      </trkpt>
      <trkpt lat="48.04779" lon="6.92176">
        <ele>1053.1</ele>
        <time>2022-05-28T07:35:53Z</time>
      </trkpt>
      <trkpt lat="48.04779" lon="6.92176">
        <ele>1052.6</ele>
        <time>2022-05-28T07:37:47Z</time>
      </trkpt>
      <trkpt lat="48.0478" lon="6.92176">
        <ele>1052.2</ele>
        <time>2022-05-28T07:40:07Z</time>
      </trkpt>
      <trkpt lat="48.0478" lon="6.92175">
        <ele>1053</ele>
        <time>2022-05-28T07:42:12Z</time>
      </trkpt>
      <trkpt lat="48.04781" lon="6.92175">
        <ele>1053.3</ele>
        <time>2022-05-28T07:42:50Z</time>
      </trkpt>
      <trkpt lat="48.04782" lon="6.92177">
        <ele>1053</ele>
        <time>2022-05-28T07:42:56Z</time>
      </trkpt>
      <trkpt lat="48.04789" lon="6.92189">
        <ele>1053.2</ele>
        <time>2022-05-28T07:43:07Z</time>
      </trkpt>
      <trkpt lat="48.04794" lon="6.92199">
        <ele>1053.5</ele>
        <time>2022-05-28T07:43:12Z</time>
      </trkpt>
      <trkpt lat="48.04802" lon="6.9221">
        <ele>1054.1</ele>
        <time>2022-05-28T07:43:17Z</time>
      </trkpt>
      <trkpt lat="48.04811" lon="6.9222">
        <ele>1054.6</ele>
        <time>2022-05-28T07:43:22Z</time>
      </trkpt>
      <trkpt lat="48.04818" lon="6.92229">
        <ele>1055.3</ele>
        <time>2022-05-28T07:43:26Z</time>
      </trkpt>
      <trkpt lat="48.04826" lon="6.92236">
        <ele>1055.3</ele>
        <time>2022-05-28T07:43:30Z</time>
      </trkpt>
      <trkpt lat="48.04832" lon="6.92247">
        <ele>1055.8</ele>
        <time>2022-05-28T07:43:34Z</time>
      </trkpt>
      <trkpt lat="48.04839" lon="6.9226">
        <ele>1056.4</ele>
        <time>2022-05-28T07:43:39Z</time>
      </trkpt>
      <trkpt lat="48.04844" lon="6.92272">
        <ele>1056.6</ele>
        <time>2022-05-28T07:43:43Z</time>
      </trkpt>
      <trkpt lat="48.0485" lon="6.92284">
        <ele>1056.7</ele>
        <time>2022-05-28T07:43:47Z</time>
      </trkpt>
      <trkpt lat="48.04856" lon="6.92297">
        <ele>1057.3</ele>
        <time>2022-05-28T07:43:51Z</time>
      </trkpt>
      <trkpt lat="48.04861" lon="6.92311">
        <ele>1057.9</ele>
        <time>2022-05-28T07:43:55Z</time>
      </trkpt>
      <trkpt lat="48.04867" lon="6.92323">
        <ele>1058</ele>
        <time>2022-05-28T07:43:59Z</time>
      </trkpt>
      <trkpt lat="48.04873" lon="6.92335">
        <ele>1059.5</ele>
        <time>2022-05-28T07:44:03Z</time>
      </trkpt>
      <trkpt lat="48.04881" lon="6.92348">
        <ele>1059</ele>
        <time>2022-05-28T07:44:07Z</time>
      </trkpt>
      <trkpt lat="48.04888" lon="6.92357">
        <ele>1059.7</ele>
        <time>2022-05-28T07:44:10Z</time>
      </trkpt>
      <trkpt lat="48.04897" lon="6.92368">
        <ele>1059.3</ele>
        <time>2022-05-28T07:44:14Z</time>
      </trkpt>
      <trkpt lat="48.04904" lon="6.92376">
        <ele>1059.2</ele>
        <time>2022-05-28T07:44:17Z</time>
      </trkpt>
      <trkpt lat="48.04914" lon="6.92386">
        <ele>1060</ele>
        <time>2022-05-28T07:44:21Z</time>
      </trkpt>
      <trkpt lat="48.04921" lon="6.92396">
        <ele>1059.7</ele>
        <time>2022-05-28T07:44:24Z</time>
      </trkpt>
      <trkpt lat="48.04928" lon="6.92407">
        <ele>1058.8</ele>
        <time>2022-05-28T07:44:27Z</time>
      </trkpt>
      <trkpt lat="48.04933" lon="6.92418">
        <ele>1060.7</ele>
        <time>2022-05-28T07:44:30Z</time>
      </trkpt>
      <trkpt lat="48.04938" lon="6.9243">
        <ele>1061.4</ele>
        <time>2022-05-28T07:44:33Z</time>
      </trkpt>
      <trkpt lat="48.04942" lon="6.92442">
        <ele>1061.3</ele>
        <time>2022-05-28T07:44:36Z</time>
      </trkpt>
      <trkpt lat="48.04947" lon="6.92454">
        <ele>1061</ele>
        <time>2022-05-28T07:44:39Z</time>
      </trkpt>
      <trkpt lat="48.04954" lon="6.92465">
        <ele>1061.6</ele>
        <time>2022-05-28T07:44:42Z</time>
      </trkpt>
      <trkpt lat="48.04961" lon="6.92477">
        <ele>1059.9</ele>
        <time>2022-05-28T07:44:45Z</time>
      </trkpt>
      <trkpt lat="48.04968" lon="6.92488">
        <ele>1062</ele>
        <time>2022-05-28T07:44:48Z</time>
      </trkpt>
      <trkpt lat="48.04975" lon="6.92501">
        <ele>1061.2</ele>
        <time>2022-05-28T07:44:51Z</time>
      </trkpt>
      <trkpt lat="48.04984" lon="6.92512">
        <ele>1059.2</ele>
        <time>2022-05-28T07:44:54Z</time>
      </trkpt>
      <trkpt lat="48.04996" lon="6.92518">
        <ele>1058.3</ele>
        <time>2022-05-28T07:44:57Z</time>
      </trkpt>
      <trkpt lat="48.05006" lon="6.92521">
        <ele>1056.1</ele>
        <time>2022-05-28T07:44:59Z</time>
      </trkpt>
      <trkpt lat="48.05017" lon="6.92524">
        <ele>1055</ele>
        <time>2022-05-28T07:45:01Z</time>
      </trkpt>
      <trkpt lat="48.0503" lon="6.92529">
        <ele>1054.8</ele>
        <time>2022-05-28T07:45:03Z</time>
      </trkpt>
      <trkpt lat="48.05044" lon="6.92533">
        <ele>1052.8</ele>
        <time>2022-05-28T07:45:05Z</time>
      </trkpt>
      <trkpt lat="48.05058" lon="6.9254">
        <ele>1052.3</ele>
        <time>2022-05-28T07:45:07Z</time>
      </trkpt>
      <trkpt lat="48.05072" lon="6.92549">
        <ele>1052</ele>
        <time>2022-05-28T07:45:09Z</time>
      </trkpt>
      <trkpt lat="48.05085" lon="6.92558">
        <ele>1051.6</ele>
        <time>2022-05-28T07:45:11Z</time>
      </trkpt>
      <trkpt lat="48.05099" lon="6.92566">
        <ele>1051.4</ele>
        <time>2022-05-28T07:45:13Z</time>
      </trkpt>
      <trkpt lat="48.05112" lon="6.92574">
        <ele>1051.3</ele>
        <time>2022-05-28T07:45:15Z</time>
      </trkpt>
      <trkpt lat="48.05122" lon="6.92585">
        <ele>1051.4</ele>
        <time>2022-05-28T07:45:17Z</time>
      </trkpt>
      <trkpt lat="48.05131" lon="6.92592">
        <ele>1053.6</ele>
        <time>2022-05-28T07:45:19Z</time>
      </trkpt>
      <trkpt lat="48.05142" lon="6.92599">
        <ele>1054</ele>
        <time>2022-05-28T07:45:22Z</time>
      </trkpt>
      <trkpt lat="48.05152" lon="6.92605">
        <ele>1053.3</ele>
        <time>2022-05-28T07:45:25Z</time>
      </trkpt>
      <trkpt lat="48.05163" lon="6.92617">
        <ele>1053.2</ele>
        <time>2022-05-28T07:45:28Z</time>
      </trkpt>
      <trkpt lat="48.05173" lon="6.92625">
        <ele>1053.8</ele>
        <time>2022-05-28T07:45:31Z</time>
      </trkpt>
      <trkpt lat="48.05183" lon="6.92634">
        <ele>1053.3</ele>
        <time>2022-05-28T07:45:34Z</time>
      </trkpt>
      <trkpt lat="48.05193" lon="6.92645">
        <ele>1053.3</ele>
        <time>2022-05-28T07:45:37Z</time>
      </trkpt>
      <trkpt lat="48.05202" lon="6.92655">
        <ele>1054.2</ele>
        <time>2022-05-28T07:45:40Z</time>
      </trkpt>
      <trkpt lat="48.05211" lon="6.92667">
        <ele>1055.4</ele>
        <time>2022-05-28T07:45:43Z</time>
      </trkpt>
      <trkpt lat="48.05218" lon="6.92679">
        <ele>1054.6</ele>
        <time>2022-05-28T07:45:46Z</time>
      </trkpt>
      <trkpt lat="48.05224" lon="6.9269">
        <ele>1055.8</ele>
        <time>2022-05-28T07:45:49Z</time>
      </trkpt>
      <trkpt lat="48.0523" lon="6.927">
        <ele>1056.7</ele>
        <time>2022-05-28T07:45:52Z</time>
      </trkpt>
      <trkpt lat="48.05237" lon="6.92711">
        <ele>1057</ele>
        <time>2022-05-28T07:45:55Z</time>
      </trkpt>
      <trkpt lat="48.05245" lon="6.9272">
        <ele>1056.6</ele>
        <time>2022-05-28T07:45:58Z</time>
      </trkpt>
      <trkpt lat="48.05256" lon="6.92725">
        <ele>1056.6</ele>
        <time>2022-05-28T07:46:01Z</time>
      </trkpt>
      <trkpt lat="48.05269" lon="6.92731">
        <ele>1056.1</ele>
        <time>2022-05-28T07:46:04Z</time>
      </trkpt>
      <trkpt lat="48.05281" lon="6.92737">
        <ele>1055.1</ele>
        <time>2022-05-28T07:46:07Z</time>
      </trkpt>
      <trkpt lat="48.05294" lon="6.9274">
        <ele>1054.1</ele>
        <time>2022-05-28T07:46:10Z</time>
      </trkpt>
      <trkpt lat="48.05308" lon="6.92742">
        <ele>1055.4</ele>
        <time>2022-05-28T07:46:13Z</time>
      </trkpt>
      <trkpt lat="48.05317" lon="6.92744">
        <ele>1055.1</ele>
        <time>2022-05-28T07:46:15Z</time>
      </trkpt>
      <trkpt lat="48.05326" lon="6.92749">
        <ele>1055.2</ele>
        <time>2022-05-28T07:46:17Z</time>
      </trkpt>
      <trkpt lat="48.05335" lon="6.92759">
        <ele>1057.2</ele>
        <time>2022-05-28T07:46:20Z</time>
      </trkpt>
      <trkpt lat="48.05341" lon="6.92774">
        <ele>1059.4</ele>
        <time>2022-05-28T07:46:24Z</time>
      </trkpt>
      <trkpt lat="48.05342" lon="6.92791">
        <ele>1058.8</ele>
        <time>2022-05-28T07:46:28Z</time>
      </trkpt>
      <trkpt lat="48.05343" lon="6.92807">
        <ele>1061.4</ele>
        <time>2022-05-28T07:46:32Z</time>
      </trkpt>
      <trkpt lat="48.05342" lon="6.92822">
        <ele>1060.9</ele>
        <time>2022-05-28T07:46:36Z</time>
      </trkpt>
      <trkpt lat="48.05344" lon="6.92838">
        <ele>1062.4</ele>
        <time>2022-05-28T07:46:41Z</time>
      </trkpt>
      <trkpt lat="48.05351" lon="6.92847">
        <ele>1062.7</ele>
        <time>2022-05-28T07:46:45Z</time>
      </trkpt>
      <trkpt lat="48.05361" lon="6.92855">
        <ele>1063.9</ele>
        <time>2022-05-28T07:46:50Z</time>
      </trkpt>
      <trkpt lat="48.05368" lon="6.92863">
        <ele>1064.3</ele>
        <time>2022-05-28T07:46:55Z</time>
      </trkpt>
      <trkpt lat="48.05373" lon="6.92877">
        <ele>1064.5</ele>
        <time>2022-05-28T07:47:02Z</time>
      </trkpt>
      <trkpt lat="48.05379" lon="6.9289">
        <ele>1064.4</ele>
        <time>2022-05-28T07:47:11Z</time>
      </trkpt>
      <trkpt lat="48.05386" lon="6.92903">
        <ele>1065</ele>
        <time>2022-05-28T07:47:16Z</time>
      </trkpt>
      <trkpt lat="48.05392" lon="6.92917">
        <ele>1065.5</ele>
        <time>2022-05-28T07:47:20Z</time>
      </trkpt>
      <trkpt lat="48.05397" lon="6.92931">
        <ele>1066.1</ele>
        <time>2022-05-28T07:47:24Z</time>
      </trkpt>
      <trkpt lat="48.05403" lon="6.92942">
        <ele>1066.4</ele>
        <time>2022-05-28T07:47:29Z</time>
      </trkpt>
      <trkpt lat="48.0541" lon="6.92954">
        <ele>1067.5</ele>
        <time>2022-05-28T07:47:33Z</time>
      </trkpt>
      <trkpt lat="48.05418" lon="6.92966">
        <ele>1069.5</ele>
        <time>2022-05-28T07:47:37Z</time>
      </trkpt>
      <trkpt lat="48.05421" lon="6.92979">
        <ele>1070.7</ele>
        <time>2022-05-28T07:47:41Z</time>
      </trkpt>
      <trkpt lat="48.05426" lon="6.92992">
        <ele>1070.8</ele>
        <time>2022-05-28T07:47:45Z</time>
      </trkpt>
      <trkpt lat="48.05431" lon="6.93003">
        <ele>1071.5</ele>
        <time>2022-05-28T07:47:49Z</time>
      </trkpt>
      <trkpt lat="48.05439" lon="6.93013">
        <ele>1073.1</ele>
        <time>2022-05-28T07:47:54Z</time>
      </trkpt>
      <trkpt lat="48.05447" lon="6.93009">
        <ele>1074.4</ele>
        <time>2022-05-28T07:47:58Z</time>
      </trkpt>
      <trkpt lat="48.0545" lon="6.92995">
        <ele>1073.7</ele>
        <time>2022-05-28T07:48:04Z</time>
      </trkpt>
      <trkpt lat="48.0545" lon="6.92981">
        <ele>1074.3</ele>
        <time>2022-05-28T07:48:09Z</time>
      </trkpt>
      <trkpt lat="48.05453" lon="6.92968">
        <ele>1075.3</ele>
        <time>2022-05-28T07:48:14Z</time>
      </trkpt>
      <trkpt lat="48.05455" lon="6.92954">
        <ele>1074.7</ele>
        <time>2022-05-28T07:48:19Z</time>
      </trkpt>
      <trkpt lat="48.05459" lon="6.92942">
        <ele>1077.1</ele>
        <time>2022-05-28T07:48:24Z</time>
      </trkpt>
      <trkpt lat="48.05464" lon="6.92929">
        <ele>1077.8</ele>
        <time>2022-05-28T07:48:28Z</time>
      </trkpt>
      <trkpt lat="48.05471" lon="6.92919">
        <ele>1077.8</ele>
        <time>2022-05-28T07:48:31Z</time>
      </trkpt>
      <trkpt lat="48.05479" lon="6.92906">
        <ele>1077.7</ele>
        <time>2022-05-28T07:48:35Z</time>
      </trkpt>
      <trkpt lat="48.05482" lon="6.92892">
        <ele>1078.5</ele>
        <time>2022-05-28T07:48:38Z</time>
      </trkpt>
      <trkpt lat="48.05485" lon="6.92879">
        <ele>1078.7</ele>
        <time>2022-05-28T07:48:41Z</time>
      </trkpt>
      <trkpt lat="48.05491" lon="6.92866">
        <ele>1078.8</ele>
        <time>2022-05-28T07:48:45Z</time>
      </trkpt>
      <trkpt lat="48.05497" lon="6.92855">
        <ele>1079.7</ele>
        <time>2022-05-28T07:48:49Z</time>
      </trkpt>
      <trkpt lat="48.05505" lon="6.92846">
        <ele>1079.5</ele>
        <time>2022-05-28T07:48:52Z</time>
      </trkpt>
      <trkpt lat="48.05512" lon="6.92836">
        <ele>1079.2</ele>
        <time>2022-05-28T07:48:54Z</time>
      </trkpt>
      <trkpt lat="48.05517" lon="6.92824">
        <ele>1078.5</ele>
        <time>2022-05-28T07:48:56Z</time>
      </trkpt>
      <trkpt lat="48.05525" lon="6.92808">
        <ele>1078.4</ele>
        <time>2022-05-28T07:48:59Z</time>
      </trkpt>
      <trkpt lat="48.05531" lon="6.92794">
        <ele>1078.1</ele>
        <time>2022-05-28T07:49:02Z</time>
      </trkpt>
      <trkpt lat="48.05539" lon="6.9278">
        <ele>1077.8</ele>
        <time>2022-05-28T07:49:05Z</time>
      </trkpt>
      <trkpt lat="48.05546" lon="6.92769">
        <ele>1076.4</ele>
        <time>2022-05-28T07:49:07Z</time>
      </trkpt>
      <trkpt lat="48.05552" lon="6.92757">
        <ele>1077.5</ele>
        <time>2022-05-28T07:49:09Z</time>
      </trkpt>
      <trkpt lat="48.05559" lon="6.92741">
        <ele>1078</ele>
        <time>2022-05-28T07:49:12Z</time>
      </trkpt>
      <trkpt lat="48.05566" lon="6.92726">
        <ele>1079.4</ele>
        <time>2022-05-28T07:49:15Z</time>
      </trkpt>
      <trkpt lat="48.05573" lon="6.92713">
        <ele>1079</ele>
        <time>2022-05-28T07:49:18Z</time>
      </trkpt>
      <trkpt lat="48.05582" lon="6.92701">
        <ele>1079.1</ele>
        <time>2022-05-28T07:49:21Z</time>
      </trkpt>
      <trkpt lat="48.05588" lon="6.92691">
        <ele>1076.8</ele>
        <time>2022-05-28T07:49:23Z</time>
      </trkpt>
      <trkpt lat="48.05596" lon="6.92676">
        <ele>1075.4</ele>
        <time>2022-05-28T07:49:26Z</time>
      </trkpt>
      <trkpt lat="48.056" lon="6.9266">
        <ele>1078.7</ele>
        <time>2022-05-28T07:49:29Z</time>
      </trkpt>
      <trkpt lat="48.05605" lon="6.92648">
        <ele>1080.4</ele>
        <time>2022-05-28T07:49:32Z</time>
      </trkpt>
      <trkpt lat="48.05613" lon="6.92636">
        <ele>1080.5</ele>
        <time>2022-05-28T07:49:36Z</time>
      </trkpt>
      <trkpt lat="48.05619" lon="6.92626">
        <ele>1080.5</ele>
        <time>2022-05-28T07:49:39Z</time>
      </trkpt>
      <trkpt lat="48.05628" lon="6.92615">
        <ele>1080</ele>
        <time>2022-05-28T07:49:42Z</time>
      </trkpt>
      <trkpt lat="48.05638" lon="6.92602">
        <ele>1077.8</ele>
        <time>2022-05-28T07:49:45Z</time>
      </trkpt>
      <trkpt lat="48.05647" lon="6.92589">
        <ele>1077.4</ele>
        <time>2022-05-28T07:49:48Z</time>
      </trkpt>
      <trkpt lat="48.05657" lon="6.92577">
        <ele>1079.7</ele>
        <time>2022-05-28T07:49:51Z</time>
      </trkpt>
      <trkpt lat="48.05667" lon="6.92565">
        <ele>1079.4</ele>
        <time>2022-05-28T07:49:54Z</time>
      </trkpt>
      <trkpt lat="48.05677" lon="6.92553">
        <ele>1079.4</ele>
        <time>2022-05-28T07:49:57Z</time>
      </trkpt>
      <trkpt lat="48.05684" lon="6.92544">
        <ele>1077.9</ele>
        <time>2022-05-28T07:49:59Z</time>
      </trkpt>
      <trkpt lat="48.05692" lon="6.92535">
        <ele>1077.8</ele>
        <time>2022-05-28T07:50:01Z</time>
      </trkpt>
      <trkpt lat="48.05699" lon="6.92525">
        <ele>1077.8</ele>
        <time>2022-05-28T07:50:03Z</time>
      </trkpt>
      <trkpt lat="48.05706" lon="6.92515">
        <ele>1077.8</ele>
        <time>2022-05-28T07:50:05Z</time>
      </trkpt>
      <trkpt lat="48.05714" lon="6.92501">
        <ele>1078</ele>
        <time>2022-05-28T07:50:08Z</time>
      </trkpt>
      <trkpt lat="48.05721" lon="6.92485">
        <ele>1078.6</ele>
        <time>2022-05-28T07:50:11Z</time>
      </trkpt>
      <trkpt lat="48.05729" lon="6.92471">
        <ele>1078.1</ele>
        <time>2022-05-28T07:50:14Z</time>
      </trkpt>
      <trkpt lat="48.05735" lon="6.92458">
        <ele>1075.1</ele>
        <time>2022-05-28T07:50:16Z</time>
      </trkpt>
      <trkpt lat="48.05741" lon="6.92443">
        <ele>1073.7</ele>
        <time>2022-05-28T07:50:18Z</time>
      </trkpt>
      <trkpt lat="48.05745" lon="6.92425">
        <ele>1072.5</ele>
        <time>2022-05-28T07:50:20Z</time>
      </trkpt>
      <trkpt lat="48.0575" lon="6.92407">
        <ele>1071.7</ele>
        <time>2022-05-28T07:50:22Z</time>
      </trkpt>
      <trkpt lat="48.05756" lon="6.92388">
        <ele>1070</ele>
        <time>2022-05-28T07:50:24Z</time>
      </trkpt>
      <trkpt lat="48.05762" lon="6.92369">
        <ele>1070.9</ele>
        <time>2022-05-28T07:50:26Z</time>
      </trkpt>
      <trkpt lat="48.05768" lon="6.92351">
        <ele>1067.7</ele>
        <time>2022-05-28T07:50:28Z</time>
      </trkpt>
      <trkpt lat="48.05775" lon="6.9233">
        <ele>1066.5</ele>
        <time>2022-05-28T07:50:30Z</time>
      </trkpt>
      <trkpt lat="48.05781" lon="6.9231">
        <ele>1067</ele>
        <time>2022-05-28T07:50:32Z</time>
      </trkpt>
      <trkpt lat="48.05787" lon="6.92292">
        <ele>1067.1</ele>
        <time>2022-05-28T07:50:34Z</time>
      </trkpt>
      <trkpt lat="48.05795" lon="6.92274">
        <ele>1063.8</ele>
        <time>2022-05-28T07:50:36Z</time>
      </trkpt>
      <trkpt lat="48.05803" lon="6.92261">
        <ele>1064.2</ele>
        <time>2022-05-28T07:50:38Z</time>
      </trkpt>
      <trkpt lat="48.05812" lon="6.92254">
        <ele>1065.1</ele>
        <time>2022-05-28T07:50:40Z</time>
      </trkpt>
      <trkpt lat="48.05821" lon="6.92251">
        <ele>1064.9</ele>
        <time>2022-05-28T07:50:42Z</time>
      </trkpt>
      <trkpt lat="48.05831" lon="6.92251">
        <ele>1064.5</ele>
        <time>2022-05-28T07:50:44Z</time>
      </trkpt>
      <trkpt lat="48.0584" lon="6.92254">
        <ele>1065.2</ele>
        <time>2022-05-28T07:50:46Z</time>
      </trkpt>
      <trkpt lat="48.05851" lon="6.92257">
        <ele>1063.7</ele>
        <time>2022-05-28T07:50:48Z</time>
      </trkpt>
      <trkpt lat="48.05863" lon="6.92259">
        <ele>1062</ele>
        <time>2022-05-28T07:50:50Z</time>
      </trkpt>
      <trkpt lat="48.05875" lon="6.9226">
        <ele>1060.6</ele>
        <time>2022-05-28T07:50:52Z</time>
      </trkpt>
      <trkpt lat="48.05888" lon="6.92265">
        <ele>1056.6</ele>
        <time>2022-05-28T07:50:54Z</time>
      </trkpt>
      <trkpt lat="48.059" lon="6.92276">
        <ele>1056.1</ele>
        <time>2022-05-28T07:50:56Z</time>
      </trkpt>
      <trkpt lat="48.05911" lon="6.92289">
        <ele>1056.2</ele>
        <time>2022-05-28T07:50:58Z</time>
      </trkpt>
      <trkpt lat="48.05922" lon="6.923">
        <ele>1053.8</ele>
        <time>2022-05-28T07:51:00Z</time>
      </trkpt>
      <trkpt lat="48.05933" lon="6.92311">
        <ele>1053.2</ele>
        <time>2022-05-28T07:51:02Z</time>
      </trkpt>
      <trkpt lat="48.05943" lon="6.92324">
        <ele>1052.7</ele>
        <time>2022-05-28T07:51:04Z</time>
      </trkpt>
      <trkpt lat="48.05953" lon="6.92339">
        <ele>1053.1</ele>
        <time>2022-05-28T07:51:06Z</time>
      </trkpt>
      <trkpt lat="48.05964" lon="6.92353">
        <ele>1052.1</ele>
        <time>2022-05-28T07:51:08Z</time>
      </trkpt>
      <trkpt lat="48.05978" lon="6.92366">
        <ele>1048.6</ele>
        <time>2022-05-28T07:51:10Z</time>
      </trkpt>
      <trkpt lat="48.05991" lon="6.92377">
        <ele>1045.7</ele>
        <time>2022-05-28T07:51:12Z</time>
      </trkpt>
      <trkpt lat="48.06002" lon="6.92387">
        <ele>1048.5</ele>
        <time>2022-05-28T07:51:14Z</time>
      </trkpt>
      <trkpt lat="48.06009" lon="6.924">
        <ele>1051.3</ele>
        <time>2022-05-28T07:51:16Z</time>
      </trkpt>
      <trkpt lat="48.0601" lon="6.92415">
        <ele>1050.2</ele>
        <time>2022-05-28T07:51:18Z</time>
      </trkpt>
      <trkpt lat="48.06005" lon="6.92432">
        <ele>1049.6</ele>
        <time>2022-05-28T07:51:21Z</time>
      </trkpt>
      <trkpt lat="48.06" lon="6.92443">
        <ele>1050.9</ele>
        <time>2022-05-28T07:51:24Z</time>
      </trkpt>
      <trkpt lat="48.05994" lon="6.92455">
        <ele>1051.1</ele>
        <time>2022-05-28T07:51:28Z</time>
      </trkpt>
      <trkpt lat="48.05986" lon="6.92467">
        <ele>1050.9</ele>
        <time>2022-05-28T07:51:32Z</time>
      </trkpt>
      <trkpt lat="48.05976" lon="6.92475">
        <ele>1052.6</ele>
        <time>2022-05-28T07:51:36Z</time>
      </trkpt>
      <trkpt lat="48.05966" lon="6.92482">
        <ele>1053.6</ele>
        <time>2022-05-28T07:51:40Z</time>
      </trkpt>
      <trkpt lat="48.05958" lon="6.92489">
        <ele>1054.5</ele>
        <time>2022-05-28T07:51:44Z</time>
      </trkpt>
      <trkpt lat="48.05949" lon="6.92498">
        <ele>1055.6</ele>
        <time>2022-05-28T07:51:49Z</time>
      </trkpt>
      <trkpt lat="48.05941" lon="6.92509">
        <ele>1057.3</ele>
        <time>2022-05-28T07:51:54Z</time>
      </trkpt>
      <trkpt lat="48.05934" lon="6.92518">
        <ele>1056.9</ele>
        <time>2022-05-28T07:51:58Z</time>
      </trkpt>
      <trkpt lat="48.05928" lon="6.92528">
        <ele>1058.8</ele>
        <time>2022-05-28T07:52:02Z</time>
      </trkpt>
      <trkpt lat="48.05922" lon="6.9254">
        <ele>1059.2</ele>
        <time>2022-05-28T07:52:07Z</time>
      </trkpt>
      <trkpt lat="48.05916" lon="6.92551">
        <ele>1060.1</ele>
        <time>2022-05-28T07:52:11Z</time>
      </trkpt>
      <trkpt lat="48.05913" lon="6.92565">
        <ele>1060.7</ele>
        <time>2022-05-28T07:52:15Z</time>
      </trkpt>
      <trkpt lat="48.05911" lon="6.92578">
        <ele>1060.6</ele>
        <time>2022-05-28T07:52:19Z</time>
      </trkpt>
      <trkpt lat="48.0591" lon="6.92593">
        <ele>1061.4</ele>
        <time>2022-05-28T07:52:24Z</time>
      </trkpt>
      <trkpt lat="48.05907" lon="6.92607">
        <ele>1063.1</ele>
        <time>2022-05-28T07:52:30Z</time>
      </trkpt>
      <trkpt lat="48.05905" lon="6.92623">
        <ele>1064.7</ele>
        <time>2022-05-28T07:52:36Z</time>
      </trkpt>
      <trkpt lat="48.05904" lon="6.92637">
        <ele>1066.1</ele>
        <time>2022-05-28T07:52:42Z</time>
      </trkpt>
      <trkpt lat="48.05902" lon="6.92653">
        <ele>1067.4</ele>
        <time>2022-05-28T07:52:48Z</time>
      </trkpt>
      <trkpt lat="48.05899" lon="6.92666">
        <ele>1068.5</ele>
        <time>2022-05-28T07:52:53Z</time>
      </trkpt>
      <trkpt lat="48.05898" lon="6.92681">
        <ele>1069</ele>
        <time>2022-05-28T07:52:59Z</time>
      </trkpt>
      <trkpt lat="48.05897" lon="6.92696">
        <ele>1070</ele>
        <time>2022-05-28T07:53:04Z</time>
      </trkpt>
      <trkpt lat="48.05895" lon="6.9271">
        <ele>1071.1</ele>
        <time>2022-05-28T07:53:09Z</time>
      </trkpt>
      <trkpt lat="48.05896" lon="6.92726">
        <ele>1071.9</ele>
        <time>2022-05-28T07:53:14Z</time>
      </trkpt>
      <trkpt lat="48.05898" lon="6.92741">
        <ele>1072.7</ele>
        <time>2022-05-28T07:53:19Z</time>
      </trkpt>
      <trkpt lat="48.059" lon="6.92755">
        <ele>1073</ele>
        <time>2022-05-28T07:53:24Z</time>
      </trkpt>
      <trkpt lat="48.05902" lon="6.92769">
        <ele>1074.7</ele>
        <time>2022-05-28T07:53:29Z</time>
      </trkpt>
      <trkpt lat="48.05902" lon="6.92783">
        <ele>1075.9</ele>
        <time>2022-05-28T07:53:34Z</time>
      </trkpt>
      <trkpt lat="48.059" lon="6.92796">
        <ele>1076.8</ele>
        <time>2022-05-28T07:53:39Z</time>
      </trkpt>
      <trkpt lat="48.05899" lon="6.92811">
        <ele>1078.5</ele>
        <time>2022-05-28T07:53:44Z</time>
      </trkpt>
      <trkpt lat="48.05898" lon="6.92826">
        <ele>1078.8</ele>
        <time>2022-05-28T07:53:49Z</time>
      </trkpt>
      <trkpt lat="48.059" lon="6.92842">
        <ele>1079.6</ele>
        <time>2022-05-28T07:53:54Z</time>
      </trkpt>
      <trkpt lat="48.05902" lon="6.92857">
        <ele>1080.4</ele>
        <time>2022-05-28T07:53:59Z</time>
      </trkpt>
      <trkpt lat="48.05906" lon="6.9287">
        <ele>1081.7</ele>
        <time>2022-05-28T07:54:04Z</time>
      </trkpt>
      <trkpt lat="48.0591" lon="6.92884">
        <ele>1082.4</ele>
        <time>2022-05-28T07:54:09Z</time>
      </trkpt>
      <trkpt lat="48.05912" lon="6.92901">
        <ele>1082.6</ele>
        <time>2022-05-28T07:54:14Z</time>
      </trkpt>
      <trkpt lat="48.05913" lon="6.92915">
        <ele>1084</ele>
        <time>2022-05-28T07:54:18Z</time>
      </trkpt>
      <trkpt lat="48.05914" lon="6.92929">
        <ele>1084.2</ele>
        <time>2022-05-28T07:54:22Z</time>
      </trkpt>
      <trkpt lat="48.05915" lon="6.92944">
        <ele>1084.1</ele>
        <time>2022-05-28T07:54:26Z</time>
      </trkpt>
      <trkpt lat="48.05915" lon="6.92958">
        <ele>1084.7</ele>
        <time>2022-05-28T07:54:30Z</time>
      </trkpt>
      <trkpt lat="48.05915" lon="6.92971">
        <ele>1085.9</ele>
        <time>2022-05-28T07:54:34Z</time>
      </trkpt>
      <trkpt lat="48.05914" lon="6.92986">
        <ele>1086</ele>
        <time>2022-05-28T07:54:38Z</time>
      </trkpt>
      <trkpt lat="48.05913" lon="6.93003">
        <ele>1086.3</ele>
        <time>2022-05-28T07:54:42Z</time>
      </trkpt>
      <trkpt lat="48.05911" lon="6.93016">
        <ele>1085.5</ele>
        <time>2022-05-28T07:54:45Z</time>
      </trkpt>
      <trkpt lat="48.05909" lon="6.93029">
        <ele>1086.8</ele>
        <time>2022-05-28T07:54:48Z</time>
      </trkpt>
      <trkpt lat="48.05906" lon="6.93044">
        <ele>1087.7</ele>
        <time>2022-05-28T07:54:52Z</time>
      </trkpt>
      <trkpt lat="48.05902" lon="6.93058">
        <ele>1087.4</ele>
        <time>2022-05-28T07:54:56Z</time>
      </trkpt>
      <trkpt lat="48.059" lon="6.9307">
        <ele>1087.6</ele>
        <time>2022-05-28T07:55:05Z</time>
      </trkpt>
      <trkpt lat="48.059" lon="6.9307">
        <ele>1087.9</ele>
        <time>2022-05-28T07:58:02Z</time>
      </trkpt>
      <trkpt lat="48.05895" lon="6.93085">
        <ele>1087.2</ele>
        <time>2022-05-28T07:58:22Z</time>
      </trkpt>
      <trkpt lat="48.0589" lon="6.931">
        <ele>1087.7</ele>
        <time>2022-05-28T07:58:26Z</time>
      </trkpt>
      <trkpt lat="48.05887" lon="6.93113">
        <ele>1087.8</ele>
        <time>2022-05-28T07:58:29Z</time>
      </trkpt>
      <trkpt lat="48.05882" lon="6.93128">
        <ele>1086.6</ele>
        <time>2022-05-28T07:58:32Z</time>
      </trkpt>
      <trkpt lat="48.05879" lon="6.93147">
        <ele>1084.5</ele>
        <time>2022-05-28T07:58:35Z</time>
      </trkpt>
      <trkpt lat="48.05877" lon="6.93161">
        <ele>1085.8</ele>
        <time>2022-05-28T07:58:37Z</time>
      </trkpt>
      <trkpt lat="48.05875" lon="6.93174">
        <ele>1086.2</ele>
        <time>2022-05-28T07:58:39Z</time>
      </trkpt>
      <trkpt lat="48.05873" lon="6.93193">
        <ele>1085.1</ele>
        <time>2022-05-28T07:58:42Z</time>
      </trkpt>
      <trkpt lat="48.05871" lon="6.93209">
        <ele>1086.4</ele>
        <time>2022-05-28T07:58:45Z</time>
      </trkpt>
      <trkpt lat="48.05869" lon="6.93227">
        <ele>1084.9</ele>
        <time>2022-05-28T07:58:48Z</time>
      </trkpt>
      <trkpt lat="48.05866" lon="6.93247">
        <ele>1084.5</ele>
        <time>2022-05-28T07:58:51Z</time>
      </trkpt>
      <trkpt lat="48.05866" lon="6.93261">
        <ele>1084.7</ele>
        <time>2022-05-28T07:58:53Z</time>
      </trkpt>
      <trkpt lat="48.05865" lon="6.93281">
        <ele>1083.3</ele>
        <time>2022-05-28T07:58:56Z</time>
      </trkpt>
      <trkpt lat="48.05863" lon="6.933">
        <ele>1085.2</ele>
        <time>2022-05-28T07:58:59Z</time>
      </trkpt>
      <trkpt lat="48.05858" lon="6.93315">
        <ele>1085</ele>
        <time>2022-05-28T07:59:02Z</time>
      </trkpt>
      <trkpt lat="48.05854" lon="6.9333">
        <ele>1084.8</ele>
        <time>2022-05-28T07:59:05Z</time>
      </trkpt>
      <trkpt lat="48.0585" lon="6.93346">
        <ele>1084.9</ele>
        <time>2022-05-28T07:59:08Z</time>
      </trkpt>
      <trkpt lat="48.05844" lon="6.93361">
        <ele>1084.7</ele>
        <time>2022-05-28T07:59:11Z</time>
      </trkpt>
      <trkpt lat="48.05838" lon="6.93376">
        <ele>1085.8</ele>
        <time>2022-05-28T07:59:14Z</time>
      </trkpt>
      <trkpt lat="48.05833" lon="6.9339">
        <ele>1086.5</ele>
        <time>2022-05-28T07:59:17Z</time>
      </trkpt>
      <trkpt lat="48.05829" lon="6.93402">
        <ele>1086.8</ele>
        <time>2022-05-28T07:59:20Z</time>
      </trkpt>
      <trkpt lat="48.05823" lon="6.93418">
        <ele>1084.3</ele>
        <time>2022-05-28T07:59:23Z</time>
      </trkpt>
      <trkpt lat="48.05819" lon="6.93433">
        <ele>1083.4</ele>
        <time>2022-05-28T07:59:25Z</time>
      </trkpt>
      <trkpt lat="48.05817" lon="6.93447">
        <ele>1084.7</ele>
        <time>2022-05-28T07:59:27Z</time>
      </trkpt>
      <trkpt lat="48.05814" lon="6.9346">
        <ele>1084.1</ele>
        <time>2022-05-28T07:59:29Z</time>
      </trkpt>
      <trkpt lat="48.05808" lon="6.93477">
        <ele>1083.6</ele>
        <time>2022-05-28T07:59:31Z</time>
      </trkpt>
      <trkpt lat="48.05802" lon="6.93492">
        <ele>1083.6</ele>
        <time>2022-05-28T07:59:33Z</time>
      </trkpt>
      <trkpt lat="48.05796" lon="6.93506">
        <ele>1081.6</ele>
        <time>2022-05-28T07:59:35Z</time>
      </trkpt>
      <trkpt lat="48.05792" lon="6.9352">
        <ele>1081.8</ele>
        <time>2022-05-28T07:59:37Z</time>
      </trkpt>
      <trkpt lat="48.05787" lon="6.93534">
        <ele>1080.8</ele>
        <time>2022-05-28T07:59:39Z</time>
      </trkpt>
      <trkpt lat="48.05781" lon="6.93546">
        <ele>1080.6</ele>
        <time>2022-05-28T07:59:41Z</time>
      </trkpt>
      <trkpt lat="48.05772" lon="6.93557">
        <ele>1081.2</ele>
        <time>2022-05-28T07:59:43Z</time>
      </trkpt>
      <trkpt lat="48.05764" lon="6.9357">
        <ele>1079.9</ele>
        <time>2022-05-28T07:59:45Z</time>
      </trkpt>
      <trkpt lat="48.05759" lon="6.93591">
        <ele>1077.5</ele>
        <time>2022-05-28T07:59:47Z</time>
      </trkpt>
      <trkpt lat="48.05756" lon="6.93613">
        <ele>1077.7</ele>
        <time>2022-05-28T07:59:49Z</time>
      </trkpt>
      <trkpt lat="48.05754" lon="6.93633">
        <ele>1078.2</ele>
        <time>2022-05-28T07:59:51Z</time>
      </trkpt>
      <trkpt lat="48.05757" lon="6.9365">
        <ele>1078.3</ele>
        <time>2022-05-28T07:59:53Z</time>
      </trkpt>
      <trkpt lat="48.05759" lon="6.93664">
        <ele>1079</ele>
        <time>2022-05-28T07:59:55Z</time>
      </trkpt>
      <trkpt lat="48.05761" lon="6.93677">
        <ele>1078</ele>
        <time>2022-05-28T07:59:57Z</time>
      </trkpt>
      <trkpt lat="48.05765" lon="6.93695">
        <ele>1079</ele>
        <time>2022-05-28T08:00:00Z</time>
      </trkpt>
      <trkpt lat="48.05769" lon="6.93709">
        <ele>1080.5</ele>
        <time>2022-05-28T08:00:03Z</time>
      </trkpt>
      <trkpt lat="48.05772" lon="6.93727">
        <ele>1080</ele>
        <time>2022-05-28T08:00:06Z</time>
      </trkpt>
      <trkpt lat="48.05772" lon="6.93743">
        <ele>1078.2</ele>
        <time>2022-05-28T08:00:09Z</time>
      </trkpt>
      <trkpt lat="48.05773" lon="6.93761">
        <ele>1076.6</ele>
        <time>2022-05-28T08:00:12Z</time>
      </trkpt>
      <trkpt lat="48.05779" lon="6.93774">
        <ele>1071</ele>
        <time>2022-05-28T08:00:15Z</time>
      </trkpt>
      <trkpt lat="48.05789" lon="6.93785">
        <ele>1069.7</ele>
        <time>2022-05-28T08:00:18Z</time>
      </trkpt>
      <trkpt lat="48.05797" lon="6.93795">
        <ele>1067.5</ele>
        <time>2022-05-28T08:00:20Z</time>
      </trkpt>
      <trkpt lat="48.05805" lon="6.93807">
        <ele>1064.6</ele>
        <time>2022-05-28T08:00:22Z</time>
      </trkpt>
      <trkpt lat="48.05812" lon="6.93819">
        <ele>1065.8</ele>
        <time>2022-05-28T08:00:24Z</time>
      </trkpt>
      <trkpt lat="48.05817" lon="6.93834">
        <ele>1066.2</ele>
        <time>2022-05-28T08:00:27Z</time>
      </trkpt>
      <trkpt lat="48.05821" lon="6.93852">
        <ele>1062.4</ele>
        <time>2022-05-28T08:00:30Z</time>
      </trkpt>
      <trkpt lat="48.0583" lon="6.93857">
        <ele>1061.3</ele>
        <time>2022-05-28T08:00:33Z</time>
      </trkpt>
      <trkpt lat="48.05842" lon="6.93859">
        <ele>1060</ele>
        <time>2022-05-28T08:00:37Z</time>
      </trkpt>
      <trkpt lat="48.05854" lon="6.93863">
        <ele>1057.3</ele>
        <time>2022-05-28T08:00:40Z</time>
      </trkpt>
      <trkpt lat="48.05861" lon="6.93871">
        <ele>1055.6</ele>
        <time>2022-05-28T08:00:42Z</time>
      </trkpt>
      <trkpt lat="48.05872" lon="6.93878">
        <ele>1055.1</ele>
        <time>2022-05-28T08:00:45Z</time>
      </trkpt>
      <trkpt lat="48.05883" lon="6.93873">
        <ele>1053.6</ele>
        <time>2022-05-28T08:00:48Z</time>
      </trkpt>
      <trkpt lat="48.05894" lon="6.93875">
        <ele>1050.3</ele>
        <time>2022-05-28T08:00:51Z</time>
      </trkpt>
      <trkpt lat="48.05897" lon="6.93895">
        <ele>1046.9</ele>
        <time>2022-05-28T08:00:54Z</time>
      </trkpt>
      <trkpt lat="48.05898" lon="6.93914">
        <ele>1045.1</ele>
        <time>2022-05-28T08:00:56Z</time>
      </trkpt>
      <trkpt lat="48.059" lon="6.93934">
        <ele>1042.2</ele>
        <time>2022-05-28T08:00:58Z</time>
      </trkpt>
      <trkpt lat="48.05905" lon="6.93953">
        <ele>1041.4</ele>
        <time>2022-05-28T08:01:00Z</time>
      </trkpt>
      <trkpt lat="48.05908" lon="6.93969">
        <ele>1042.4</ele>
        <time>2022-05-28T08:01:02Z</time>
      </trkpt>
      <trkpt lat="48.05906" lon="6.93985">
        <ele>1040.5</ele>
        <time>2022-05-28T08:01:04Z</time>
      </trkpt>
      <trkpt lat="48.059" lon="6.94001">
        <ele>1038.8</ele>
        <time>2022-05-28T08:01:06Z</time>
      </trkpt>
      <trkpt lat="48.05894" lon="6.94014">
        <ele>1042.8</ele>
        <time>2022-05-28T08:01:09Z</time>
      </trkpt>
      <trkpt lat="48.05889" lon="6.94027">
        <ele>1043.2</ele>
        <time>2022-05-28T08:01:12Z</time>
      </trkpt>
      <trkpt lat="48.05884" lon="6.94045">
        <ele>1042</ele>
        <time>2022-05-28T08:01:15Z</time>
      </trkpt>
      <trkpt lat="48.05879" lon="6.94062">
        <ele>1038.8</ele>
        <time>2022-05-28T08:01:17Z</time>
      </trkpt>
      <trkpt lat="48.05874" lon="6.94076">
        <ele>1040.2</ele>
        <time>2022-05-28T08:01:19Z</time>
      </trkpt>
      <trkpt lat="48.05872" lon="6.9409">
        <ele>1037.8</ele>
        <time>2022-05-28T08:01:22Z</time>
      </trkpt>
      <trkpt lat="48.05883" lon="6.94084">
        <ele>1036.7</ele>
        <time>2022-05-28T08:01:26Z</time>
      </trkpt>
      <trkpt lat="48.0589" lon="6.94076">
        <ele>1035</ele>
        <time>2022-05-28T08:01:28Z</time>
      </trkpt>
      <trkpt lat="48.05901" lon="6.94066">
        <ele>1035.8</ele>
        <time>2022-05-28T08:01:31Z</time>
      </trkpt>
      <trkpt lat="48.05911" lon="6.9406">
        <ele>1033</ele>
        <time>2022-05-28T08:01:34Z</time>
      </trkpt>
      <trkpt lat="48.05925" lon="6.94052">
        <ele>1028.8</ele>
        <time>2022-05-28T08:01:37Z</time>
      </trkpt>
      <trkpt lat="48.05938" lon="6.94044">
        <ele>1029.2</ele>
        <time>2022-05-28T08:01:39Z</time>
      </trkpt>
      <trkpt lat="48.05951" lon="6.94035">
        <ele>1028.6</ele>
        <time>2022-05-28T08:01:41Z</time>
      </trkpt>
      <trkpt lat="48.05964" lon="6.94029">
        <ele>1027.5</ele>
        <time>2022-05-28T08:01:43Z</time>
      </trkpt>
      <trkpt lat="48.05979" lon="6.94021">
        <ele>1026.9</ele>
        <time>2022-05-28T08:01:45Z</time>
      </trkpt>
      <trkpt lat="48.05992" lon="6.94009">
        <ele>1025.9</ele>
        <time>2022-05-28T08:01:47Z</time>
      </trkpt>
      <trkpt lat="48.06" lon="6.93998">
        <ele>1026</ele>
        <time>2022-05-28T08:01:49Z</time>
      </trkpt>
      <trkpt lat="48.06004" lon="6.93986">
        <ele>1025.2</ele>
        <time>2022-05-28T08:01:51Z</time>
      </trkpt>
      <trkpt lat="48.06009" lon="6.9397">
        <ele>1024.1</ele>
        <time>2022-05-28T08:01:53Z</time>
      </trkpt>
      <trkpt lat="48.06013" lon="6.93953">
        <ele>1023.8</ele>
        <time>2022-05-28T08:01:55Z</time>
      </trkpt>
      <trkpt lat="48.06017" lon="6.93934">
        <ele>1021.8</ele>
        <time>2022-05-28T08:01:57Z</time>
      </trkpt>
      <trkpt lat="48.06019" lon="6.93912">
        <ele>1017.8</ele>
        <time>2022-05-28T08:01:59Z</time>
      </trkpt>
      <trkpt lat="48.06024" lon="6.93897">
        <ele>1018.4</ele>
        <time>2022-05-28T08:02:01Z</time>
      </trkpt>
      <trkpt lat="48.06033" lon="6.93891">
        <ele>1016.4</ele>
        <time>2022-05-28T08:02:03Z</time>
      </trkpt>
      <trkpt lat="48.06043" lon="6.93894">
        <ele>1014.9</ele>
        <time>2022-05-28T08:02:05Z</time>
      </trkpt>
      <trkpt lat="48.06056" lon="6.93899">
        <ele>1012.4</ele>
        <time>2022-05-28T08:02:07Z</time>
      </trkpt>
      <trkpt lat="48.06072" lon="6.93905">
        <ele>1011.8</ele>
        <time>2022-05-28T08:02:09Z</time>
      </trkpt>
      <trkpt lat="48.06088" lon="6.93909">
        <ele>1011.5</ele>
        <time>2022-05-28T08:02:11Z</time>
      </trkpt>
      <trkpt lat="48.06103" lon="6.93908">
        <ele>1009.6</ele>
        <time>2022-05-28T08:02:13Z</time>
      </trkpt>
      <trkpt lat="48.06113" lon="6.93896">
        <ele>1007.6</ele>
        <time>2022-05-28T08:02:15Z</time>
      </trkpt>
      <trkpt lat="48.06116" lon="6.93883">
        <ele>1005.9</ele>
        <time>2022-05-28T08:02:17Z</time>
      </trkpt>
      <trkpt lat="48.06111" lon="6.93871">
        <ele>1007.1</ele>
        <time>2022-05-28T08:02:19Z</time>
      </trkpt>
      <trkpt lat="48.06105" lon="6.9386">
        <ele>1007.4</ele>
        <time>2022-05-28T08:02:20Z</time>
      </trkpt>
      <trkpt lat="48.061" lon="6.93848">
        <ele>1008.5</ele>
        <time>2022-05-28T08:02:21Z</time>
      </trkpt>
      <trkpt lat="48.06097" lon="6.93835">
        <ele>1008.3</ele>
        <time>2022-05-28T08:02:22Z</time>
      </trkpt>
      <trkpt lat="48.06092" lon="6.93812">
        <ele>1003.7</ele>
        <time>2022-05-28T08:02:24Z</time>
      </trkpt>
      <trkpt lat="48.06089" lon="6.9379">
        <ele>1001.2</ele>
        <time>2022-05-28T08:02:26Z</time>
      </trkpt>
      <trkpt lat="48.06091" lon="6.93773">
        <ele>1002.4</ele>
        <time>2022-05-28T08:02:29Z</time>
      </trkpt>
      <trkpt lat="48.06102" lon="6.93772">
        <ele>999.1</ele>
        <time>2022-05-28T08:02:32Z</time>
      </trkpt>
      <trkpt lat="48.0611" lon="6.9378">
        <ele>995.9</ele>
        <time>2022-05-28T08:02:34Z</time>
      </trkpt>
      <trkpt lat="48.06119" lon="6.93791">
        <ele>996.3</ele>
        <time>2022-05-28T08:02:36Z</time>
      </trkpt>
      <trkpt lat="48.06128" lon="6.93805">
        <ele>997.9</ele>
        <time>2022-05-28T08:02:38Z</time>
      </trkpt>
      <trkpt lat="48.06136" lon="6.9382">
        <ele>998</ele>
        <time>2022-05-28T08:02:40Z</time>
      </trkpt>
      <trkpt lat="48.06146" lon="6.93835">
        <ele>993.6</ele>
        <time>2022-05-28T08:02:42Z</time>
      </trkpt>
      <trkpt lat="48.06157" lon="6.93846">
        <ele>991.7</ele>
        <time>2022-05-28T08:02:44Z</time>
      </trkpt>
      <trkpt lat="48.06166" lon="6.9385">
        <ele>991.4</ele>
        <time>2022-05-28T08:02:46Z</time>
      </trkpt>
      <trkpt lat="48.06174" lon="6.93833">
        <ele>991.5</ele>
        <time>2022-05-28T08:02:49Z</time>
      </trkpt>
      <trkpt lat="48.06173" lon="6.93814">
        <ele>991.4</ele>
        <time>2022-05-28T08:02:51Z</time>
      </trkpt>
      <trkpt lat="48.06168" lon="6.93795">
        <ele>986.3</ele>
        <time>2022-05-28T08:02:53Z</time>
      </trkpt>
      <trkpt lat="48.06166" lon="6.93775">
        <ele>985</ele>
        <time>2022-05-28T08:02:55Z</time>
      </trkpt>
      <trkpt lat="48.06165" lon="6.93755">
        <ele>986.3</ele>
        <time>2022-05-28T08:02:57Z</time>
      </trkpt>
      <trkpt lat="48.06163" lon="6.93731">
        <ele>985.8</ele>
        <time>2022-05-28T08:02:59Z</time>
      </trkpt>
      <trkpt lat="48.06159" lon="6.93708">
        <ele>980.7</ele>
        <time>2022-05-28T08:03:01Z</time>
      </trkpt>
      <trkpt lat="48.06153" lon="6.93686">
        <ele>976.8</ele>
        <time>2022-05-28T08:03:03Z</time>
      </trkpt>
      <trkpt lat="48.06144" lon="6.93664">
        <ele>981.5</ele>
        <time>2022-05-28T08:03:05Z</time>
      </trkpt>
      <trkpt lat="48.06135" lon="6.93639">
        <ele>977.7</ele>
        <time>2022-05-28T08:03:07Z</time>
      </trkpt>
      <trkpt lat="48.06131" lon="6.93626">
        <ele>975.7</ele>
        <time>2022-05-28T08:03:08Z</time>
      </trkpt>
      <trkpt lat="48.06128" lon="6.93612">
        <ele>975.3</ele>
        <time>2022-05-28T08:03:09Z</time>
      </trkpt>
      <trkpt lat="48.06125" lon="6.93599">
        <ele>975.3</ele>
        <time>2022-05-28T08:03:10Z</time>
      </trkpt>
      <trkpt lat="48.06121" lon="6.93578">
        <ele>976.6</ele>
        <time>2022-05-28T08:03:12Z</time>
      </trkpt>
      <trkpt lat="48.06123" lon="6.93559">
        <ele>974.4</ele>
        <time>2022-05-28T08:03:14Z</time>
      </trkpt>
      <trkpt lat="48.06134" lon="6.93545">
        <ele>976.4</ele>
        <time>2022-05-28T08:03:16Z</time>
      </trkpt>
      <trkpt lat="48.06147" lon="6.93532">
        <ele>969.1</ele>
        <time>2022-05-28T08:03:18Z</time>
      </trkpt>
      <trkpt lat="48.0616" lon="6.93521">
        <ele>965.6</ele>
        <time>2022-05-28T08:03:20Z</time>
      </trkpt>
      <trkpt lat="48.06174" lon="6.93514">
        <ele>964.1</ele>
        <time>2022-05-28T08:03:22Z</time>
      </trkpt>
      <trkpt lat="48.06189" lon="6.93509">
        <ele>965.5</ele>
        <time>2022-05-28T08:03:24Z</time>
      </trkpt>
      <trkpt lat="48.06204" lon="6.93504">
        <ele>966.3</ele>
        <time>2022-05-28T08:03:26Z</time>
      </trkpt>
      <trkpt lat="48.06218" lon="6.935">
        <ele>967.1</ele>
        <time>2022-05-28T08:03:28Z</time>
      </trkpt>
      <trkpt lat="48.06231" lon="6.93498">
        <ele>966.5</ele>
        <time>2022-05-28T08:03:30Z</time>
      </trkpt>
      <trkpt lat="48.06243" lon="6.93497">
        <ele>967.4</ele>
        <time>2022-05-28T08:03:32Z</time>
      </trkpt>
      <trkpt lat="48.06254" lon="6.93499">
        <ele>967.9</ele>
        <time>2022-05-28T08:03:34Z</time>
      </trkpt>
      <trkpt lat="48.06266" lon="6.935">
        <ele>968.1</ele>
        <time>2022-05-28T08:03:36Z</time>
      </trkpt>
      <trkpt lat="48.06277" lon="6.93502">
        <ele>965.9</ele>
        <time>2022-05-28T08:03:38Z</time>
      </trkpt>
      <trkpt lat="48.06289" lon="6.93506">
        <ele>965</ele>
        <time>2022-05-28T08:03:40Z</time>
      </trkpt>
      <trkpt lat="48.06301" lon="6.9351">
        <ele>966</ele>
        <time>2022-05-28T08:03:42Z</time>
      </trkpt>
      <trkpt lat="48.06313" lon="6.93512">
        <ele>965.7</ele>
        <time>2022-05-28T08:03:44Z</time>
      </trkpt>
      <trkpt lat="48.06325" lon="6.93515">
        <ele>964.4</ele>
        <time>2022-05-28T08:03:46Z</time>
      </trkpt>
      <trkpt lat="48.06337" lon="6.93519">
        <ele>964.3</ele>
        <time>2022-05-28T08:03:48Z</time>
      </trkpt>
      <trkpt lat="48.06349" lon="6.93523">
        <ele>965.7</ele>
        <time>2022-05-28T08:03:50Z</time>
      </trkpt>
      <trkpt lat="48.0636" lon="6.93526">
        <ele>966.2</ele>
        <time>2022-05-28T08:03:52Z</time>
      </trkpt>
      <trkpt lat="48.06372" lon="6.93529">
        <ele>965.7</ele>
        <time>2022-05-28T08:03:54Z</time>
      </trkpt>
      <trkpt lat="48.06383" lon="6.93532">
        <ele>965.6</ele>
        <time>2022-05-28T08:03:56Z</time>
      </trkpt>
      <trkpt lat="48.06395" lon="6.93534">
        <ele>964.8</ele>
        <time>2022-05-28T08:03:58Z</time>
      </trkpt>
      <trkpt lat="48.06407" lon="6.93538">
        <ele>964.1</ele>
        <time>2022-05-28T08:04:00Z</time>
      </trkpt>
      <trkpt lat="48.06419" lon="6.93541">
        <ele>964.2</ele>
        <time>2022-05-28T08:04:02Z</time>
      </trkpt>
      <trkpt lat="48.06431" lon="6.93544">
        <ele>960.2</ele>
        <time>2022-05-28T08:04:04Z</time>
      </trkpt>
      <trkpt lat="48.06443" lon="6.93547">
        <ele>963.5</ele>
        <time>2022-05-28T08:04:06Z</time>
      </trkpt>
      <trkpt lat="48.06456" lon="6.93548">
        <ele>961.1</ele>
        <time>2022-05-28T08:04:08Z</time>
      </trkpt>
      <trkpt lat="48.06469" lon="6.93551">
        <ele>960.3</ele>
        <time>2022-05-28T08:04:10Z</time>
      </trkpt>
      <trkpt lat="48.06482" lon="6.9355">
        <ele>958.1</ele>
        <time>2022-05-28T08:04:12Z</time>
      </trkpt>
      <trkpt lat="48.06495" lon="6.93547">
        <ele>959.9</ele>
        <time>2022-05-28T08:04:14Z</time>
      </trkpt>
      <trkpt lat="48.06506" lon="6.93544">
        <ele>960.1</ele>
        <time>2022-05-28T08:04:16Z</time>
      </trkpt>
      <trkpt lat="48.06515" lon="6.93541">
        <ele>959.1</ele>
        <time>2022-05-28T08:04:18Z</time>
      </trkpt>
      <trkpt lat="48.06526" lon="6.93537">
        <ele>960.9</ele>
        <time>2022-05-28T08:04:21Z</time>
      </trkpt>
      <trkpt lat="48.06532" lon="6.93532">
        <ele>961.6</ele>
        <time>2022-05-28T08:04:27Z</time>
      </trkpt>
      <trkpt lat="48.06532" lon="6.93531">
        <ele>961.9</ele>
        <time>2022-05-28T08:04:44Z</time>
      </trkpt>
      <trkpt lat="48.06533" lon="6.93531">
        <ele>961.5</ele>
        <time>2022-05-28T08:04:54Z</time>
      </trkpt>
      <trkpt lat="48.06533" lon="6.93531">
        <ele>961.8</ele>
        <time>2022-05-28T08:05:07Z</time>
      </trkpt>
      <trkpt lat="48.06534" lon="6.9353">
        <ele>961.8</ele>
        <time>2022-05-28T08:06:01Z</time>
      </trkpt>
      <trkpt lat="48.06534" lon="6.9353">
        <ele>961.4</ele>
        <time>2022-05-28T08:06:09Z</time>
      </trkpt>
      <trkpt lat="48.06534" lon="6.93529">
        <ele>961.5</ele>
        <time>2022-05-28T08:06:11Z</time>
      </trkpt>
      <trkpt lat="48.06533" lon="6.93529">
        <ele>961.6</ele>
        <time>2022-05-28T08:06:12Z</time>
      </trkpt>
      <trkpt lat="48.06534" lon="6.93528">
        <ele>961.6</ele>
        <time>2022-05-28T08:06:15Z</time>
      </trkpt>
      <trkpt lat="48.06533" lon="6.93528">
        <ele>961.5</ele>
        <time>2022-05-28T08:06:19Z</time>
      </trkpt>
      <trkpt lat="48.06533" lon="6.93526">
        <ele>961.7</ele>
        <time>2022-05-28T08:06:23Z</time>
      </trkpt>
      <trkpt lat="48.06532" lon="6.93527">
        <ele>961.5</ele>
        <time>2022-05-28T08:06:29Z</time>
      </trkpt>
      <trkpt lat="48.06532" lon="6.93527">
        <ele>961.6</ele>
        <time>2022-05-28T08:07:04Z</time>
      </trkpt>
      <trkpt lat="48.06531" lon="6.93528">
        <ele>961.4</ele>
        <time>2022-05-28T08:07:14Z</time>
      </trkpt>
      <trkpt lat="48.0653" lon="6.93528">
        <ele>961.3</ele>
        <time>2022-05-28T08:07:16Z</time>
      </trkpt>
      <trkpt lat="48.06531" lon="6.93528">
        <ele>961.4</ele>
        <time>2022-05-28T08:07:19Z</time>
      </trkpt>
      <trkpt lat="48.06532" lon="6.93528">
        <ele>961.1</ele>
        <time>2022-05-28T08:07:51Z</time>
      </trkpt>
      <trkpt lat="48.06541" lon="6.93533">
        <ele>958.8</ele>
        <time>2022-05-28T08:07:54Z</time>
      </trkpt>
      <trkpt lat="48.06553" lon="6.93536">
        <ele>955.7</ele>
        <time>2022-05-28T08:07:57Z</time>
      </trkpt>
      <trkpt lat="48.06565" lon="6.93541">
        <ele>958.5</ele>
        <time>2022-05-28T08:08:00Z</time>
      </trkpt>
      <trkpt lat="48.06576" lon="6.93544">
        <ele>954.1</ele>
        <time>2022-05-28T08:08:02Z</time>
      </trkpt>
      <trkpt lat="48.06587" lon="6.93546">
        <ele>953</ele>
        <time>2022-05-28T08:08:04Z</time>
      </trkpt>
      <trkpt lat="48.06598" lon="6.93542">
        <ele>952.3</ele>
        <time>2022-05-28T08:08:06Z</time>
      </trkpt>
      <trkpt lat="48.06607" lon="6.93542">
        <ele>949</ele>
        <time>2022-05-28T08:08:08Z</time>
      </trkpt>
      <trkpt lat="48.06616" lon="6.93539">
        <ele>945</ele>
        <time>2022-05-28T08:08:10Z</time>
      </trkpt>
      <trkpt lat="48.06625" lon="6.93536">
        <ele>945.5</ele>
        <time>2022-05-28T08:08:12Z</time>
      </trkpt>
      <trkpt lat="48.06635" lon="6.93533">
        <ele>948.5</ele>
        <time>2022-05-28T08:08:15Z</time>
      </trkpt>
      <trkpt lat="48.06636" lon="6.93546">
        <ele>947.9</ele>
        <time>2022-05-28T08:08:23Z</time>
      </trkpt>
      <trkpt lat="48.06627" lon="6.93554">
        <ele>948.2</ele>
        <time>2022-05-28T08:08:28Z</time>
      </trkpt>
      <trkpt lat="48.06619" lon="6.93562">
        <ele>947.1</ele>
        <time>2022-05-28T08:08:33Z</time>
      </trkpt>
      <trkpt lat="48.06611" lon="6.93576">
        <ele>946</ele>
        <time>2022-05-28T08:08:37Z</time>
      </trkpt>
      <trkpt lat="48.06613" lon="6.93593">
        <ele>943.7</ele>
        <time>2022-05-28T08:08:40Z</time>
      </trkpt>
      <trkpt lat="48.0662" lon="6.93608">
        <ele>941.4</ele>
        <time>2022-05-28T08:08:44Z</time>
      </trkpt>
      <trkpt lat="48.06628" lon="6.93624">
        <ele>939.4</ele>
        <time>2022-05-28T08:08:47Z</time>
      </trkpt>
      <trkpt lat="48.06636" lon="6.93634">
        <ele>935</ele>
        <time>2022-05-28T08:08:49Z</time>
      </trkpt>
      <trkpt lat="48.06648" lon="6.93642">
        <ele>935.7</ele>
        <time>2022-05-28T08:08:51Z</time>
      </trkpt>
      <trkpt lat="48.06657" lon="6.93648">
        <ele>933</ele>
        <time>2022-05-28T08:08:53Z</time>
      </trkpt>
      <trkpt lat="48.06665" lon="6.93657">
        <ele>933</ele>
        <time>2022-05-28T08:08:55Z</time>
      </trkpt>
      <trkpt lat="48.06674" lon="6.93664">
        <ele>931.4</ele>
        <time>2022-05-28T08:08:57Z</time>
      </trkpt>
      <trkpt lat="48.06683" lon="6.93672">
        <ele>928.9</ele>
        <time>2022-05-28T08:08:59Z</time>
      </trkpt>
      <trkpt lat="48.06694" lon="6.93679">
        <ele>927.6</ele>
        <time>2022-05-28T08:09:01Z</time>
      </trkpt>
      <trkpt lat="48.06703" lon="6.9369">
        <ele>924.7</ele>
        <time>2022-05-28T08:09:03Z</time>
      </trkpt>
      <trkpt lat="48.06714" lon="6.937">
        <ele>922.8</ele>
        <time>2022-05-28T08:09:06Z</time>
      </trkpt>
      <trkpt lat="48.06723" lon="6.93715">
        <ele>920.6</ele>
        <time>2022-05-28T08:09:09Z</time>
      </trkpt>
      <trkpt lat="48.0673" lon="6.93723">
        <ele>918.3</ele>
        <time>2022-05-28T08:09:11Z</time>
      </trkpt>
      <trkpt lat="48.0674" lon="6.93731">
        <ele>913.9</ele>
        <time>2022-05-28T08:09:14Z</time>
      </trkpt>
      <trkpt lat="48.0675" lon="6.93728">
        <ele>916.1</ele>
        <time>2022-05-28T08:09:17Z</time>
      </trkpt>
      <trkpt lat="48.06761" lon="6.93724">
        <ele>916.8</ele>
        <time>2022-05-28T08:09:21Z</time>
      </trkpt>
      <trkpt lat="48.06771" lon="6.93722">
        <ele>917.6</ele>
        <time>2022-05-28T08:09:25Z</time>
      </trkpt>
      <trkpt lat="48.06781" lon="6.93721">
        <ele>917.1</ele>
        <time>2022-05-28T08:09:28Z</time>
      </trkpt>
      <trkpt lat="48.06792" lon="6.93721">
        <ele>916.1</ele>
        <time>2022-05-28T08:09:32Z</time>
      </trkpt>
      <trkpt lat="48.06802" lon="6.93722">
        <ele>917.6</ele>
        <time>2022-05-28T08:09:35Z</time>
      </trkpt>
      <trkpt lat="48.06812" lon="6.93723">
        <ele>915.8</ele>
        <time>2022-05-28T08:09:38Z</time>
      </trkpt>
      <trkpt lat="48.06824" lon="6.93723">
        <ele>913.7</ele>
        <time>2022-05-28T08:09:41Z</time>
      </trkpt>
      <trkpt lat="48.06833" lon="6.93725">
        <ele>914</ele>
        <time>2022-05-28T08:09:43Z</time>
      </trkpt>
      <trkpt lat="48.06847" lon="6.93728">
        <ele>913.7</ele>
        <time>2022-05-28T08:09:46Z</time>
      </trkpt>
      <trkpt lat="48.06858" lon="6.9373">
        <ele>914.4</ele>
        <time>2022-05-28T08:09:49Z</time>
      </trkpt>
      <trkpt lat="48.0687" lon="6.9373">
        <ele>914.7</ele>
        <time>2022-05-28T08:09:52Z</time>
      </trkpt>
      <trkpt lat="48.0688" lon="6.93727">
        <ele>916.6</ele>
        <time>2022-05-28T08:09:55Z</time>
      </trkpt>
      <trkpt lat="48.0689" lon="6.93723">
        <ele>914.2</ele>
        <time>2022-05-28T08:09:58Z</time>
      </trkpt>
      <trkpt lat="48.06903" lon="6.9372">
        <ele>914.2</ele>
        <time>2022-05-28T08:10:01Z</time>
      </trkpt>
      <trkpt lat="48.06912" lon="6.93717">
        <ele>915.1</ele>
        <time>2022-05-28T08:10:04Z</time>
      </trkpt>
      <trkpt lat="48.06921" lon="6.93714">
        <ele>914.6</ele>
        <time>2022-05-28T08:10:08Z</time>
      </trkpt>
      <trkpt lat="48.06932" lon="6.93712">
        <ele>915.6</ele>
        <time>2022-05-28T08:10:14Z</time>
      </trkpt>
      <trkpt lat="48.06942" lon="6.93711">
        <ele>915.6</ele>
        <time>2022-05-28T08:10:17Z</time>
      </trkpt>
      <trkpt lat="48.0695" lon="6.93715">
        <ele>915.6</ele>
        <time>2022-05-28T08:10:21Z</time>
      </trkpt>
      <trkpt lat="48.06959" lon="6.93719">
        <ele>914.1</ele>
        <time>2022-05-28T08:10:25Z</time>
      </trkpt>
      <trkpt lat="48.06963" lon="6.93722">
        <ele>914.1</ele>
        <time>2022-05-28T08:10:32Z</time>
      </trkpt>
      <trkpt lat="48.06964" lon="6.93722">
        <ele>914.2</ele>
        <time>2022-05-28T08:10:33Z</time>
      </trkpt>
      <trkpt lat="48.06963" lon="6.93723">
        <ele>913.9</ele>
        <time>2022-05-28T08:10:40Z</time>
      </trkpt>
      <trkpt lat="48.06963" lon="6.93724">
        <ele>913.8</ele>
        <time>2022-05-28T08:11:02Z</time>
      </trkpt>
      <trkpt lat="48.06974" lon="6.9373">
        <ele>913</ele>
        <time>2022-05-28T08:11:07Z</time>
      </trkpt>
      <trkpt lat="48.06984" lon="6.93736">
        <ele>908.3</ele>
        <time>2022-05-28T08:11:10Z</time>
      </trkpt>
      <trkpt lat="48.06995" lon="6.9374">
        <ele>908.4</ele>
        <time>2022-05-28T08:11:13Z</time>
      </trkpt>
      <trkpt lat="48.07006" lon="6.93745">
        <ele>907.8</ele>
        <time>2022-05-28T08:11:16Z</time>
      </trkpt>
      <trkpt lat="48.07015" lon="6.9375">
        <ele>905.9</ele>
        <time>2022-05-28T08:11:19Z</time>
      </trkpt>
      <trkpt lat="48.07026" lon="6.93753">
        <ele>904.6</ele>
        <time>2022-05-28T08:11:22Z</time>
      </trkpt>
      <trkpt lat="48.07038" lon="6.93758">
        <ele>899.8</ele>
        <time>2022-05-28T08:11:25Z</time>
      </trkpt>
      <trkpt lat="48.07047" lon="6.93764">
        <ele>900.5</ele>
        <time>2022-05-28T08:11:27Z</time>
      </trkpt>
      <trkpt lat="48.07058" lon="6.93771">
        <ele>897.1</ele>
        <time>2022-05-28T08:11:29Z</time>
      </trkpt>
      <trkpt lat="48.07071" lon="6.93778">
        <ele>892.4</ele>
        <time>2022-05-28T08:11:31Z</time>
      </trkpt>
      <trkpt lat="48.07082" lon="6.93784">
        <ele>890.5</ele>
        <time>2022-05-28T08:11:33Z</time>
      </trkpt>
      <trkpt lat="48.07092" lon="6.93789">
        <ele>894.9</ele>
        <time>2022-05-28T08:11:35Z</time>
      </trkpt>
      <trkpt lat="48.07103" lon="6.9379">
        <ele>893.4</ele>
        <time>2022-05-28T08:11:37Z</time>
      </trkpt>
      <trkpt lat="48.07116" lon="6.93791">
        <ele>889.6</ele>
        <time>2022-05-28T08:11:39Z</time>
      </trkpt>
      <trkpt lat="48.07127" lon="6.93789">
        <ele>891.4</ele>
        <time>2022-05-28T08:11:41Z</time>
      </trkpt>
      <trkpt lat="48.0714" lon="6.93793">
        <ele>891</ele>
        <time>2022-05-28T08:11:43Z</time>
      </trkpt>
      <trkpt lat="48.07152" lon="6.93801">
        <ele>890.2</ele>
        <time>2022-05-28T08:11:45Z</time>
      </trkpt>
      <trkpt lat="48.07163" lon="6.93799">
        <ele>891.5</ele>
        <time>2022-05-28T08:11:48Z</time>
      </trkpt>
      <trkpt lat="48.07172" lon="6.93791">
        <ele>892.9</ele>
        <time>2022-05-28T08:11:52Z</time>
      </trkpt>
      <trkpt lat="48.07182" lon="6.93785">
        <ele>894.9</ele>
        <time>2022-05-28T08:11:56Z</time>
      </trkpt>
      <trkpt lat="48.07192" lon="6.93776">
        <ele>896.1</ele>
        <time>2022-05-28T08:12:00Z</time>
      </trkpt>
      <trkpt lat="48.07201" lon="6.93775">
        <ele>896.6</ele>
        <time>2022-05-28T08:12:05Z</time>
      </trkpt>
      <trkpt lat="48.07207" lon="6.93782">
        <ele>895.6</ele>
        <time>2022-05-28T08:12:16Z</time>
      </trkpt>
      <trkpt lat="48.07208" lon="6.93782">
        <ele>895.5</ele>
        <time>2022-05-28T08:12:25Z</time>
      </trkpt>
      <trkpt lat="48.07207" lon="6.93782">
        <ele>895.4</ele>
        <time>2022-05-28T08:12:49Z</time>
      </trkpt>
      <trkpt lat="48.07207" lon="6.93783">
        <ele>895.6</ele>
        <time>2022-05-28T08:13:09Z</time>
      </trkpt>
      <trkpt lat="48.07207" lon="6.93784">
        <ele>895.7</ele>
        <time>2022-05-28T08:13:14Z</time>
      </trkpt>
      <trkpt lat="48.07207" lon="6.93783">
        <ele>895.8</ele>
        <time>2022-05-28T08:13:15Z</time>
      </trkpt>
      <trkpt lat="48.07207" lon="6.93784">
        <ele>895.8</ele>
        <time>2022-05-28T08:13:16Z</time>
      </trkpt>
      <trkpt lat="48.07205" lon="6.93801">
        <ele>893.1</ele>
        <time>2022-05-28T08:13:22Z</time>
      </trkpt>
      <trkpt lat="48.07208" lon="6.93817">
        <ele>890.5</ele>
        <time>2022-05-28T08:13:24Z</time>
      </trkpt>
      <trkpt lat="48.07211" lon="6.93832">
        <ele>886.5</ele>
        <time>2022-05-28T08:13:26Z</time>
      </trkpt>
      <trkpt lat="48.07213" lon="6.93845">
        <ele>886.6</ele>
        <time>2022-05-28T08:13:28Z</time>
      </trkpt>
      <trkpt lat="48.07217" lon="6.93857">
        <ele>886.2</ele>
        <time>2022-05-28T08:13:30Z</time>
      </trkpt>
      <trkpt lat="48.07222" lon="6.93872">
        <ele>885.1</ele>
        <time>2022-05-28T08:13:32Z</time>
      </trkpt>
      <trkpt lat="48.07225" lon="6.93886">
        <ele>885.4</ele>
        <time>2022-05-28T08:13:34Z</time>
      </trkpt>
      <trkpt lat="48.07231" lon="6.939">
        <ele>884.4</ele>
        <time>2022-05-28T08:13:37Z</time>
      </trkpt>
      <trkpt lat="48.07239" lon="6.93908">
        <ele>883</ele>
        <time>2022-05-28T08:13:40Z</time>
      </trkpt>
      <trkpt lat="48.07249" lon="6.93922">
        <ele>880.1</ele>
        <time>2022-05-28T08:13:44Z</time>
      </trkpt>
      <trkpt lat="48.07255" lon="6.93934">
        <ele>879.7</ele>
        <time>2022-05-28T08:13:46Z</time>
      </trkpt>
      <trkpt lat="48.07265" lon="6.93942">
        <ele>879</ele>
        <time>2022-05-28T08:13:49Z</time>
      </trkpt>
      <trkpt lat="48.07276" lon="6.9394">
        <ele>879.3</ele>
        <time>2022-05-28T08:13:52Z</time>
      </trkpt>
      <trkpt lat="48.07286" lon="6.9394">
        <ele>878.7</ele>
        <time>2022-05-28T08:13:55Z</time>
      </trkpt>
      <trkpt lat="48.07295" lon="6.93941">
        <ele>879.2</ele>
        <time>2022-05-28T08:13:58Z</time>
      </trkpt>
      <trkpt lat="48.07304" lon="6.9394">
        <ele>878.4</ele>
        <time>2022-05-28T08:14:01Z</time>
      </trkpt>
      <trkpt lat="48.07314" lon="6.93941">
        <ele>879.1</ele>
        <time>2022-05-28T08:14:05Z</time>
      </trkpt>
      <trkpt lat="48.07324" lon="6.93947">
        <ele>877</ele>
        <time>2022-05-28T08:14:08Z</time>
      </trkpt>
      <trkpt lat="48.07333" lon="6.93949">
        <ele>879.2</ele>
        <time>2022-05-28T08:14:11Z</time>
      </trkpt>
      <trkpt lat="48.07343" lon="6.93951">
        <ele>879.2</ele>
        <time>2022-05-28T08:14:14Z</time>
      </trkpt>
      <trkpt lat="48.07352" lon="6.93955">
        <ele>878.7</ele>
        <time>2022-05-28T08:14:17Z</time>
      </trkpt>
      <trkpt lat="48.07361" lon="6.93961">
        <ele>879.6</ele>
        <time>2022-05-28T08:14:20Z</time>
      </trkpt>
      <trkpt lat="48.07368" lon="6.93963">
        <ele>877.3</ele>
        <time>2022-05-28T08:14:25Z</time>
      </trkpt>
      <trkpt lat="48.07366" lon="6.93963">
        <ele>877.2</ele>
        <time>2022-05-28T08:14:38Z</time>
      </trkpt>
      <trkpt lat="48.07357" lon="6.93958">
        <ele>878</ele>
        <time>2022-05-28T08:14:45Z</time>
      </trkpt>
      <trkpt lat="48.07356" lon="6.93957">
        <ele>878.1</ele>
        <time>2022-05-28T08:14:48Z</time>
      </trkpt>
      <trkpt lat="48.07355" lon="6.93957">
        <ele>878.4</ele>
        <time>2022-05-28T08:14:52Z</time>
      </trkpt>
      <trkpt lat="48.07354" lon="6.93955">
        <ele>878.2</ele>
        <time>2022-05-28T08:14:57Z</time>
      </trkpt>
      <trkpt lat="48.07353" lon="6.93955">
        <ele>878.7</ele>
        <time>2022-05-28T08:15:08Z</time>
      </trkpt>
      <trkpt lat="48.07354" lon="6.93954">
        <ele>878.2</ele>
        <time>2022-05-28T08:15:12Z</time>
      </trkpt>
      <trkpt lat="48.07362" lon="6.93961">
        <ele>876.5</ele>
        <time>2022-05-28T08:15:22Z</time>
      </trkpt>
      <trkpt lat="48.07373" lon="6.93968">
        <ele>873</ele>
        <time>2022-05-28T08:15:24Z</time>
      </trkpt>
      <trkpt lat="48.07386" lon="6.93976">
        <ele>871.8</ele>
        <time>2022-05-28T08:15:26Z</time>
      </trkpt>
      <trkpt lat="48.074" lon="6.93985">
        <ele>869.4</ele>
        <time>2022-05-28T08:15:28Z</time>
      </trkpt>
      <trkpt lat="48.07411" lon="6.93995">
        <ele>866.1</ele>
        <time>2022-05-28T08:15:30Z</time>
      </trkpt>
      <trkpt lat="48.07425" lon="6.94004">
        <ele>870.8</ele>
        <time>2022-05-28T08:15:32Z</time>
      </trkpt>
      <trkpt lat="48.07435" lon="6.94009">
        <ele>873.8</ele>
        <time>2022-05-28T08:15:34Z</time>
      </trkpt>
      <trkpt lat="48.07444" lon="6.94012">
        <ele>873.2</ele>
        <time>2022-05-28T08:15:36Z</time>
      </trkpt>
      <trkpt lat="48.07454" lon="6.94014">
        <ele>874</ele>
        <time>2022-05-28T08:15:39Z</time>
      </trkpt>
      <trkpt lat="48.07464" lon="6.94015">
        <ele>875.5</ele>
        <time>2022-05-28T08:15:42Z</time>
      </trkpt>
      <trkpt lat="48.07474" lon="6.94011">
        <ele>873.9</ele>
        <time>2022-05-28T08:15:45Z</time>
      </trkpt>
      <trkpt lat="48.07486" lon="6.94004">
        <ele>871.6</ele>
        <time>2022-05-28T08:15:49Z</time>
      </trkpt>
      <trkpt lat="48.07497" lon="6.94004">
        <ele>869.7</ele>
        <time>2022-05-28T08:15:53Z</time>
      </trkpt>
      <trkpt lat="48.07507" lon="6.94009">
        <ele>866.8</ele>
        <time>2022-05-28T08:15:56Z</time>
      </trkpt>
      <trkpt lat="48.07517" lon="6.94013">
        <ele>864.9</ele>
        <time>2022-05-28T08:15:59Z</time>
      </trkpt>
      <trkpt lat="48.07526" lon="6.94019">
        <ele>862.5</ele>
        <time>2022-05-28T08:16:03Z</time>
      </trkpt>
      <trkpt lat="48.07535" lon="6.94014">
        <ele>859</ele>
        <time>2022-05-28T08:16:08Z</time>
      </trkpt>
      <trkpt lat="48.0754" lon="6.94002">
        <ele>860.7</ele>
        <time>2022-05-28T08:16:12Z</time>
      </trkpt>
      <trkpt lat="48.07546" lon="6.9399">
        <ele>862.7</ele>
        <time>2022-05-28T08:16:19Z</time>
      </trkpt>
      <trkpt lat="48.07548" lon="6.93986">
        <ele>863.2</ele>
        <time>2022-05-28T08:16:25Z</time>
      </trkpt>
      <trkpt lat="48.07555" lon="6.93976">
        <ele>864.1</ele>
        <time>2022-05-28T08:16:36Z</time>
      </trkpt>
      <trkpt lat="48.07561" lon="6.93965">
        <ele>864.8</ele>
        <time>2022-05-28T08:16:42Z</time>
      </trkpt>
      <trkpt lat="48.07565" lon="6.93951">
        <ele>868.8</ele>
        <time>2022-05-28T08:16:54Z</time>
      </trkpt>
      <trkpt lat="48.07567" lon="6.93938">
        <ele>871.9</ele>
        <time>2022-05-28T08:17:10Z</time>
      </trkpt>
      <trkpt lat="48.0757" lon="6.93924">
        <ele>875.3</ele>
        <time>2022-05-28T08:17:27Z</time>
      </trkpt>
      <trkpt lat="48.07571" lon="6.9391">
        <ele>878</ele>
        <time>2022-05-28T08:17:41Z</time>
      </trkpt>
      <trkpt lat="48.07575" lon="6.93898">
        <ele>880.7</ele>
        <time>2022-05-28T08:17:56Z</time>
      </trkpt>
      <trkpt lat="48.07579" lon="6.93886">
        <ele>884.6</ele>
        <time>2022-05-28T08:18:15Z</time>
      </trkpt>
      <trkpt lat="48.07583" lon="6.93876">
        <ele>886.5</ele>
        <time>2022-05-28T08:18:28Z</time>
      </trkpt>
      <trkpt lat="48.07589" lon="6.93865">
        <ele>889.5</ele>
        <time>2022-05-28T08:18:43Z</time>
      </trkpt>
      <trkpt lat="48.07595" lon="6.93855">
        <ele>891.3</ele>
        <time>2022-05-28T08:18:57Z</time>
      </trkpt>
      <trkpt lat="48.07596" lon="6.93854">
        <ele>891.1</ele>
        <time>2022-05-28T08:19:01Z</time>
      </trkpt>
      <trkpt lat="48.07596" lon="6.93853">
        <ele>891.4</ele>
        <time>2022-05-28T08:19:17Z</time>
      </trkpt>
      <trkpt lat="48.07597" lon="6.93851">
        <ele>891.4</ele>
        <time>2022-05-28T08:19:24Z</time>
      </trkpt>
      <trkpt lat="48.07597" lon="6.93851">
        <ele>891.1</ele>
        <time>2022-05-28T08:19:37Z</time>
      </trkpt>
      <trkpt lat="48.07598" lon="6.93849">
        <ele>891.1</ele>
        <time>2022-05-28T08:19:41Z</time>
      </trkpt>
      <trkpt lat="48.07605" lon="6.93839">
        <ele>888.2</ele>
        <time>2022-05-28T08:19:51Z</time>
      </trkpt>
      <trkpt lat="48.07611" lon="6.93824">
        <ele>883.6</ele>
        <time>2022-05-28T08:19:55Z</time>
      </trkpt>
      <trkpt lat="48.07617" lon="6.93813">
        <ele>882</ele>
        <time>2022-05-28T08:19:57Z</time>
      </trkpt>
      <trkpt lat="48.07623" lon="6.938">
        <ele>879</ele>
        <time>2022-05-28T08:19:59Z</time>
      </trkpt>
      <trkpt lat="48.0763" lon="6.93784">
        <ele>877.8</ele>
        <time>2022-05-28T08:20:01Z</time>
      </trkpt>
      <trkpt lat="48.07636" lon="6.93767">
        <ele>877.3</ele>
        <time>2022-05-28T08:20:03Z</time>
      </trkpt>
      <trkpt lat="48.0764" lon="6.93752">
        <ele>880</ele>
        <time>2022-05-28T08:20:05Z</time>
      </trkpt>
      <trkpt lat="48.07643" lon="6.93735">
        <ele>876.6</ele>
        <time>2022-05-28T08:20:07Z</time>
      </trkpt>
      <trkpt lat="48.07642" lon="6.93719">
        <ele>876.1</ele>
        <time>2022-05-28T08:20:09Z</time>
      </trkpt>
      <trkpt lat="48.07641" lon="6.93706">
        <ele>875.1</ele>
        <time>2022-05-28T08:20:11Z</time>
      </trkpt>
      <trkpt lat="48.07641" lon="6.93689">
        <ele>873.5</ele>
        <time>2022-05-28T08:20:14Z</time>
      </trkpt>
      <trkpt lat="48.0764" lon="6.93675">
        <ele>872.3</ele>
        <time>2022-05-28T08:20:17Z</time>
      </trkpt>
      <trkpt lat="48.07642" lon="6.93659">
        <ele>870.9</ele>
        <time>2022-05-28T08:20:20Z</time>
      </trkpt>
      <trkpt lat="48.07647" lon="6.93644">
        <ele>869.1</ele>
        <time>2022-05-28T08:20:23Z</time>
      </trkpt>
      <trkpt lat="48.07656" lon="6.93634">
        <ele>868.1</ele>
        <time>2022-05-28T08:20:27Z</time>
      </trkpt>
      <trkpt lat="48.07665" lon="6.93625">
        <ele>867.4</ele>
        <time>2022-05-28T08:20:32Z</time>
      </trkpt>
      <trkpt lat="48.07674" lon="6.93613">
        <ele>867.4</ele>
        <time>2022-05-28T08:20:36Z</time>
      </trkpt>
      <trkpt lat="48.0768" lon="6.93602">
        <ele>868</ele>
        <time>2022-05-28T08:20:39Z</time>
      </trkpt>
      <trkpt lat="48.07685" lon="6.9359">
        <ele>866.5</ele>
        <time>2022-05-28T08:20:42Z</time>
      </trkpt>
      <trkpt lat="48.0769" lon="6.93578">
        <ele>866.6</ele>
        <time>2022-05-28T08:20:46Z</time>
      </trkpt>
      <trkpt lat="48.07698" lon="6.93565">
        <ele>865.6</ele>
        <time>2022-05-28T08:20:51Z</time>
      </trkpt>
      <trkpt lat="48.07698" lon="6.93563">
        <ele>865.9</ele>
        <time>2022-05-28T08:20:54Z</time>
      </trkpt>
      <trkpt lat="48.07698" lon="6.93562">
        <ele>865.8</ele>
        <time>2022-05-28T08:20:56Z</time>
      </trkpt>
      <trkpt lat="48.07705" lon="6.93551">
        <ele>864.7</ele>
        <time>2022-05-28T08:21:04Z</time>
      </trkpt>
      <trkpt lat="48.07705" lon="6.93547">
        <ele>864.7</ele>
        <time>2022-05-28T08:21:08Z</time>
      </trkpt>
      <trkpt lat="48.07705" lon="6.93546">
        <ele>864.8</ele>
        <time>2022-05-28T08:21:13Z</time>
      </trkpt>
      <trkpt lat="48.07705" lon="6.93545">
        <ele>865</ele>
        <time>2022-05-28T08:21:37Z</time>
      </trkpt>
      <trkpt lat="48.07704" lon="6.93545">
        <ele>864.5</ele>
        <time>2022-05-28T08:21:39Z</time>
      </trkpt>
      <trkpt lat="48.07704" lon="6.93546">
        <ele>864.6</ele>
        <time>2022-05-28T08:22:03Z</time>
      </trkpt>
      <trkpt lat="48.07703" lon="6.93546">
        <ele>864.7</ele>
        <time>2022-05-28T08:22:15Z</time>
      </trkpt>
      <trkpt lat="48.07703" lon="6.93547">
        <ele>864.8</ele>
        <time>2022-05-28T08:22:20Z</time>
      </trkpt>
      <trkpt lat="48.07713" lon="6.9354">
        <ele>863.5</ele>
        <time>2022-05-28T08:22:28Z</time>
      </trkpt>
      <trkpt lat="48.07719" lon="6.93529">
        <ele>862.7</ele>
        <time>2022-05-28T08:22:31Z</time>
      </trkpt>
      <trkpt lat="48.07726" lon="6.93518">
        <ele>862.2</ele>
        <time>2022-05-28T08:22:34Z</time>
      </trkpt>
      <trkpt lat="48.07729" lon="6.93503">
        <ele>860.5</ele>
        <time>2022-05-28T08:22:38Z</time>
      </trkpt>
      <trkpt lat="48.07723" lon="6.9349">
        <ele>858.4</ele>
        <time>2022-05-28T08:22:42Z</time>
      </trkpt>
      <trkpt lat="48.07713" lon="6.93482">
        <ele>858</ele>
        <time>2022-05-28T08:22:45Z</time>
      </trkpt>
      <trkpt lat="48.077" lon="6.93476">
        <ele>855.5</ele>
        <time>2022-05-28T08:22:48Z</time>
      </trkpt>
      <trkpt lat="48.07688" lon="6.93472">
        <ele>856</ele>
        <time>2022-05-28T08:22:51Z</time>
      </trkpt>
      <trkpt lat="48.07681" lon="6.93463">
        <ele>853.2</ele>
        <time>2022-05-28T08:22:54Z</time>
      </trkpt>
      <trkpt lat="48.07684" lon="6.93459">
        <ele>853</ele>
        <time>2022-05-28T08:22:59Z</time>
      </trkpt>
      <trkpt lat="48.07685" lon="6.93459">
        <ele>853.1</ele>
        <time>2022-05-28T08:23:00Z</time>
      </trkpt>
      <trkpt lat="48.07685" lon="6.9346">
        <ele>853</ele>
        <time>2022-05-28T08:23:08Z</time>
      </trkpt>
      <trkpt lat="48.07686" lon="6.93461">
        <ele>853.3</ele>
        <time>2022-05-28T08:23:14Z</time>
      </trkpt>
      <trkpt lat="48.07686" lon="6.9346">
        <ele>853.2</ele>
        <time>2022-05-28T08:23:24Z</time>
      </trkpt>
      <trkpt lat="48.07687" lon="6.9346">
        <ele>853.4</ele>
        <time>2022-05-28T08:23:26Z</time>
      </trkpt>
      <trkpt lat="48.07687" lon="6.9346">
        <ele>853</ele>
        <time>2022-05-28T08:23:58Z</time>
      </trkpt>
      <trkpt lat="48.07688" lon="6.93459">
        <ele>852.9</ele>
        <time>2022-05-28T08:24:03Z</time>
      </trkpt>
      <trkpt lat="48.07688" lon="6.93458">
        <ele>852.2</ele>
        <time>2022-05-28T08:24:16Z</time>
      </trkpt>
      <trkpt lat="48.07694" lon="6.93447">
        <ele>848.8</ele>
        <time>2022-05-28T08:24:21Z</time>
      </trkpt>
      <trkpt lat="48.07701" lon="6.9343">
        <ele>848.1</ele>
        <time>2022-05-28T08:24:25Z</time>
      </trkpt>
      <trkpt lat="48.07705" lon="6.93417">
        <ele>847</ele>
        <time>2022-05-28T08:24:27Z</time>
      </trkpt>
      <trkpt lat="48.07709" lon="6.93404">
        <ele>843.7</ele>
        <time>2022-05-28T08:24:29Z</time>
      </trkpt>
      <trkpt lat="48.07715" lon="6.93392">
        <ele>842.9</ele>
        <time>2022-05-28T08:24:31Z</time>
      </trkpt>
      <trkpt lat="48.0772" lon="6.93381">
        <ele>841.5</ele>
        <time>2022-05-28T08:24:33Z</time>
      </trkpt>
      <trkpt lat="48.0773" lon="6.93367">
        <ele>841.6</ele>
        <time>2022-05-28T08:24:36Z</time>
      </trkpt>
      <trkpt lat="48.0774" lon="6.93351">
        <ele>839.7</ele>
        <time>2022-05-28T08:24:38Z</time>
      </trkpt>
      <trkpt lat="48.0775" lon="6.93336">
        <ele>837.6</ele>
        <time>2022-05-28T08:24:40Z</time>
      </trkpt>
      <trkpt lat="48.07759" lon="6.9332">
        <ele>834.8</ele>
        <time>2022-05-28T08:24:42Z</time>
      </trkpt>
      <trkpt lat="48.07765" lon="6.93306">
        <ele>832</ele>
        <time>2022-05-28T08:24:44Z</time>
      </trkpt>
      <trkpt lat="48.07769" lon="6.93292">
        <ele>830.7</ele>
        <time>2022-05-28T08:24:46Z</time>
      </trkpt>
      <trkpt lat="48.07773" lon="6.93277">
        <ele>828.4</ele>
        <time>2022-05-28T08:24:49Z</time>
      </trkpt>
      <trkpt lat="48.0778" lon="6.93264">
        <ele>825.3</ele>
        <time>2022-05-28T08:24:52Z</time>
      </trkpt>
      <trkpt lat="48.07791" lon="6.93254">
        <ele>823.5</ele>
        <time>2022-05-28T08:24:55Z</time>
      </trkpt>
      <trkpt lat="48.07803" lon="6.93246">
        <ele>821.2</ele>
        <time>2022-05-28T08:24:58Z</time>
      </trkpt>
      <trkpt lat="48.07813" lon="6.93242">
        <ele>818.2</ele>
        <time>2022-05-28T08:25:00Z</time>
      </trkpt>
      <trkpt lat="48.07825" lon="6.93242">
        <ele>820.6</ele>
        <time>2022-05-28T08:25:02Z</time>
      </trkpt>
      <trkpt lat="48.07835" lon="6.93241">
        <ele>818.5</ele>
        <time>2022-05-28T08:25:04Z</time>
      </trkpt>
      <trkpt lat="48.07845" lon="6.93247">
        <ele>817.8</ele>
        <time>2022-05-28T08:25:07Z</time>
      </trkpt>
      <trkpt lat="48.07847" lon="6.93246">
        <ele>817</ele>
        <time>2022-05-28T08:25:12Z</time>
      </trkpt>
      <trkpt lat="48.07848" lon="6.93246">
        <ele>817</ele>
        <time>2022-05-28T08:25:13Z</time>
      </trkpt>
      <trkpt lat="48.07857" lon="6.93248">
        <ele>813.6</ele>
        <time>2022-05-28T08:25:18Z</time>
      </trkpt>
      <trkpt lat="48.07866" lon="6.93243">
        <ele>810.8</ele>
        <time>2022-05-28T08:25:21Z</time>
      </trkpt>
      <trkpt lat="48.07874" lon="6.9323">
        <ele>810</ele>
        <time>2022-05-28T08:25:24Z</time>
      </trkpt>
      <trkpt lat="48.07876" lon="6.93226">
        <ele>808.8</ele>
        <time>2022-05-28T08:25:29Z</time>
      </trkpt>
      <trkpt lat="48.07881" lon="6.93224">
        <ele>808.8</ele>
        <time>2022-05-28T08:26:32Z</time>
      </trkpt>
      <trkpt lat="48.07882" lon="6.93224">
        <ele>809</ele>
        <time>2022-05-28T08:26:33Z</time>
      </trkpt>
      <trkpt lat="48.07892" lon="6.93231">
        <ele>807.9</ele>
        <time>2022-05-28T08:26:38Z</time>
      </trkpt>
      <trkpt lat="48.07904" lon="6.93239">
        <ele>805.4</ele>
        <time>2022-05-28T08:26:41Z</time>
      </trkpt>
      <trkpt lat="48.07914" lon="6.93245">
        <ele>803.6</ele>
        <time>2022-05-28T08:26:43Z</time>
      </trkpt>
      <trkpt lat="48.07926" lon="6.93251">
        <ele>801.3</ele>
        <time>2022-05-28T08:26:45Z</time>
      </trkpt>
      <trkpt lat="48.0794" lon="6.93258">
        <ele>801.4</ele>
        <time>2022-05-28T08:26:47Z</time>
      </trkpt>
      <trkpt lat="48.07951" lon="6.93268">
        <ele>801.2</ele>
        <time>2022-05-28T08:26:49Z</time>
      </trkpt>
      <trkpt lat="48.0796" lon="6.93284">
        <ele>799.4</ele>
        <time>2022-05-28T08:26:51Z</time>
      </trkpt>
      <trkpt lat="48.07966" lon="6.93304">
        <ele>798.8</ele>
        <time>2022-05-28T08:26:53Z</time>
      </trkpt>
      <trkpt lat="48.07969" lon="6.93327">
        <ele>797</ele>
        <time>2022-05-28T08:26:55Z</time>
      </trkpt>
      <trkpt lat="48.07969" lon="6.93353">
        <ele>794.6</ele>
        <time>2022-05-28T08:26:57Z</time>
      </trkpt>
      <trkpt lat="48.07967" lon="6.93367">
        <ele>794.1</ele>
        <time>2022-05-28T08:26:58Z</time>
      </trkpt>
      <trkpt lat="48.07964" lon="6.93381">
        <ele>793.4</ele>
        <time>2022-05-28T08:26:59Z</time>
      </trkpt>
      <trkpt lat="48.07961" lon="6.93395">
        <ele>792.4</ele>
        <time>2022-05-28T08:27:00Z</time>
      </trkpt>
      <trkpt lat="48.07958" lon="6.93409">
        <ele>790.7</ele>
        <time>2022-05-28T08:27:01Z</time>
      </trkpt>
      <trkpt lat="48.07955" lon="6.93423">
        <ele>789.5</ele>
        <time>2022-05-28T08:27:02Z</time>
      </trkpt>
      <trkpt lat="48.07949" lon="6.93447">
        <ele>789.3</ele>
        <time>2022-05-28T08:27:04Z</time>
      </trkpt>
      <trkpt lat="48.07942" lon="6.9347">
        <ele>788.5</ele>
        <time>2022-05-28T08:27:06Z</time>
      </trkpt>
      <trkpt lat="48.07934" lon="6.93492">
        <ele>786</ele>
        <time>2022-05-28T08:27:08Z</time>
      </trkpt>
      <trkpt lat="48.07926" lon="6.93515">
        <ele>784.5</ele>
        <time>2022-05-28T08:27:10Z</time>
      </trkpt>
      <trkpt lat="48.07922" lon="6.93528">
        <ele>783</ele>
        <time>2022-05-28T08:27:11Z</time>
      </trkpt>
      <trkpt lat="48.07918" lon="6.9354">
        <ele>781</ele>
        <time>2022-05-28T08:27:12Z</time>
      </trkpt>
      <trkpt lat="48.07915" lon="6.93553">
        <ele>779.4</ele>
        <time>2022-05-28T08:27:13Z</time>
      </trkpt>
      <trkpt lat="48.07914" lon="6.9358">
        <ele>778.2</ele>
        <time>2022-05-28T08:27:15Z</time>
      </trkpt>
      <trkpt lat="48.07915" lon="6.93594">
        <ele>777.5</ele>
        <time>2022-05-28T08:27:16Z</time>
      </trkpt>
      <trkpt lat="48.07917" lon="6.93609">
        <ele>776.2</ele>
        <time>2022-05-28T08:27:17Z</time>
      </trkpt>
      <trkpt lat="48.07918" lon="6.93623">
        <ele>775</ele>
        <time>2022-05-28T08:27:18Z</time>
      </trkpt>
      <trkpt lat="48.07918" lon="6.93637">
        <ele>775.4</ele>
        <time>2022-05-28T08:27:19Z</time>
      </trkpt>
      <trkpt lat="48.07916" lon="6.93652">
        <ele>775.9</ele>
        <time>2022-05-28T08:27:20Z</time>
      </trkpt>
      <trkpt lat="48.07912" lon="6.93666">
        <ele>774.5</ele>
        <time>2022-05-28T08:27:21Z</time>
      </trkpt>
      <trkpt lat="48.07909" lon="6.93681">
        <ele>773.8</ele>
        <time>2022-05-28T08:27:22Z</time>
      </trkpt>
      <trkpt lat="48.07905" lon="6.93696">
        <ele>772</ele>
        <time>2022-05-28T08:27:23Z</time>
      </trkpt>
      <trkpt lat="48.07902" lon="6.93712">
        <ele>770</ele>
        <time>2022-05-28T08:27:24Z</time>
      </trkpt>
      <trkpt lat="48.07901" lon="6.93728">
        <ele>769.4</ele>
        <time>2022-05-28T08:27:25Z</time>
      </trkpt>
      <trkpt lat="48.07901" lon="6.93743">
        <ele>768.1</ele>
        <time>2022-05-28T08:27:26Z</time>
      </trkpt>
      <trkpt lat="48.07899" lon="6.93758">
        <ele>768.3</ele>
        <time>2022-05-28T08:27:27Z</time>
      </trkpt>
      <trkpt lat="48.07897" lon="6.93773">
        <ele>767.3</ele>
        <time>2022-05-28T08:27:28Z</time>
      </trkpt>
      <trkpt lat="48.07892" lon="6.93787">
        <ele>766.6</ele>
        <time>2022-05-28T08:27:29Z</time>
      </trkpt>
      <trkpt lat="48.07888" lon="6.93801">
        <ele>765.9</ele>
        <time>2022-05-28T08:27:30Z</time>
      </trkpt>
      <trkpt lat="48.07884" lon="6.93816">
        <ele>764.1</ele>
        <time>2022-05-28T08:27:31Z</time>
      </trkpt>
      <trkpt lat="48.07882" lon="6.9383">
        <ele>761.6</ele>
        <time>2022-05-28T08:27:32Z</time>
      </trkpt>
      <trkpt lat="48.07881" lon="6.93845">
        <ele>760.9</ele>
        <time>2022-05-28T08:27:33Z</time>
      </trkpt>
      <trkpt lat="48.07881" lon="6.93859">
        <ele>762</ele>
        <time>2022-05-28T08:27:34Z</time>
      </trkpt>
      <trkpt lat="48.07881" lon="6.93873">
        <ele>762</ele>
        <time>2022-05-28T08:27:35Z</time>
      </trkpt>
      <trkpt lat="48.07878" lon="6.93886">
        <ele>761.1</ele>
        <time>2022-05-28T08:27:36Z</time>
      </trkpt>
      <trkpt lat="48.07874" lon="6.93899">
        <ele>759.6</ele>
        <time>2022-05-28T08:27:37Z</time>
      </trkpt>
      <trkpt lat="48.07869" lon="6.93911">
        <ele>759.1</ele>
        <time>2022-05-28T08:27:38Z</time>
      </trkpt>
      <trkpt lat="48.07863" lon="6.93924">
        <ele>758</ele>
        <time>2022-05-28T08:27:39Z</time>
      </trkpt>
      <trkpt lat="48.07857" lon="6.93937">
        <ele>756.8</ele>
        <time>2022-05-28T08:27:40Z</time>
      </trkpt>
      <trkpt lat="48.0785" lon="6.93951">
        <ele>754.8</ele>
        <time>2022-05-28T08:27:41Z</time>
      </trkpt>
      <trkpt lat="48.07844" lon="6.93964">
        <ele>752.8</ele>
        <time>2022-05-28T08:27:42Z</time>
      </trkpt>
      <trkpt lat="48.07837" lon="6.93978">
        <ele>751.4</ele>
        <time>2022-05-28T08:27:43Z</time>
      </trkpt>
      <trkpt lat="48.07831" lon="6.93992">
        <ele>751</ele>
        <time>2022-05-28T08:27:44Z</time>
      </trkpt>
      <trkpt lat="48.07826" lon="6.94003">
        <ele>751.6</ele>
        <time>2022-05-28T08:27:45Z</time>
      </trkpt>
      <trkpt lat="48.07818" lon="6.9402">
        <ele>753</ele>
        <time>2022-05-28T08:27:47Z</time>
      </trkpt>
      <trkpt lat="48.07812" lon="6.94031">
        <ele>754.6</ele>
        <time>2022-05-28T08:27:51Z</time>
      </trkpt>
      <trkpt lat="48.07808" lon="6.94044">
        <ele>753.1</ele>
        <time>2022-05-28T08:27:58Z</time>
      </trkpt>
      <trkpt lat="48.07813" lon="6.94057">
        <ele>751.6</ele>
        <time>2022-05-28T08:28:03Z</time>
      </trkpt>
      <trkpt lat="48.07816" lon="6.9407">
        <ele>749.9</ele>
        <time>2022-05-28T08:28:06Z</time>
      </trkpt>
      <trkpt lat="48.0781" lon="6.94081">
        <ele>750.1</ele>
        <time>2022-05-28T08:28:09Z</time>
      </trkpt>
      <trkpt lat="48.07802" lon="6.9409">
        <ele>749.9</ele>
        <time>2022-05-28T08:28:13Z</time>
      </trkpt>
      <trkpt lat="48.078" lon="6.9409">
        <ele>750.4</ele>
        <time>2022-05-28T08:28:17Z</time>
      </trkpt>
      <trkpt lat="48.078" lon="6.94089">
        <ele>750.4</ele>
        <time>2022-05-28T08:28:25Z</time>
      </trkpt>
      <trkpt lat="48.07793" lon="6.94099">
        <ele>750</ele>
        <time>2022-05-28T08:28:33Z</time>
      </trkpt>
      <trkpt lat="48.07791" lon="6.94112">
        <ele>749.8</ele>
        <time>2022-05-28T08:28:36Z</time>
      </trkpt>
      <trkpt lat="48.07793" lon="6.94127">
        <ele>748.5</ele>
        <time>2022-05-28T08:28:39Z</time>
      </trkpt>
      <trkpt lat="48.07797" lon="6.94142">
        <ele>748.1</ele>
        <time>2022-05-28T08:28:42Z</time>
      </trkpt>
      <trkpt lat="48.078" lon="6.94157">
        <ele>748.3</ele>
        <time>2022-05-28T08:28:45Z</time>
      </trkpt>
      <trkpt lat="48.07803" lon="6.9417">
        <ele>748.2</ele>
        <time>2022-05-28T08:28:48Z</time>
      </trkpt>
      <trkpt lat="48.07807" lon="6.94182">
        <ele>749.1</ele>
        <time>2022-05-28T08:28:51Z</time>
      </trkpt>
      <trkpt lat="48.07811" lon="6.94196">
        <ele>748.9</ele>
        <time>2022-05-28T08:28:54Z</time>
      </trkpt>
      <trkpt lat="48.07813" lon="6.9421">
        <ele>748.9</ele>
        <time>2022-05-28T08:28:57Z</time>
      </trkpt>
      <trkpt lat="48.07816" lon="6.94226">
        <ele>748.4</ele>
        <time>2022-05-28T08:29:01Z</time>
      </trkpt>
      <trkpt lat="48.07823" lon="6.94237">
        <ele>749.4</ele>
        <time>2022-05-28T08:29:07Z</time>
      </trkpt>
      <trkpt lat="48.07825" lon="6.94236">
        <ele>750.2</ele>
        <time>2022-05-28T08:29:11Z</time>
      </trkpt>
      <trkpt lat="48.07825" lon="6.94235">
        <ele>749.7</ele>
        <time>2022-05-28T08:30:28Z</time>
      </trkpt>
      <trkpt lat="48.07825" lon="6.94235">
        <ele>749.5</ele>
        <time>2022-05-28T08:30:48Z</time>
      </trkpt>
      <trkpt lat="48.07825" lon="6.94234">
        <ele>749.3</ele>
        <time>2022-05-28T08:30:51Z</time>
      </trkpt>
      <trkpt lat="48.07825" lon="6.94234">
        <ele>748.3</ele>
        <time>2022-05-28T08:32:19Z</time>
      </trkpt>
      <trkpt lat="48.07824" lon="6.94234">
        <ele>748.6</ele>
        <time>2022-05-28T08:32:59Z</time>
      </trkpt>
      <trkpt lat="48.07825" lon="6.94237">
        <ele>748.2</ele>
        <time>2022-05-28T08:33:04Z</time>
      </trkpt>
      <trkpt lat="48.07825" lon="6.94238">
        <ele>748.3</ele>
        <time>2022-05-28T08:33:27Z</time>
      </trkpt>
      <trkpt lat="48.07826" lon="6.94238">
        <ele>748</ele>
        <time>2022-05-28T08:33:56Z</time>
      </trkpt>
      <trkpt lat="48.0782" lon="6.94227">
        <ele>747.3</ele>
        <time>2022-05-28T08:34:57Z</time>
      </trkpt>
      <trkpt lat="48.07816" lon="6.94212">
        <ele>746.9</ele>
        <time>2022-05-28T08:35:01Z</time>
      </trkpt>
      <trkpt lat="48.07811" lon="6.94197">
        <ele>747.2</ele>
        <time>2022-05-28T08:35:05Z</time>
      </trkpt>
      <trkpt lat="48.07806" lon="6.94186">
        <ele>747.1</ele>
        <time>2022-05-28T08:35:08Z</time>
      </trkpt>
      <trkpt lat="48.07799" lon="6.94175">
        <ele>747.4</ele>
        <time>2022-05-28T08:35:12Z</time>
      </trkpt>
      <trkpt lat="48.07794" lon="6.94171">
        <ele>746.7</ele>
        <time>2022-05-28T08:35:19Z</time>
      </trkpt>
      <trkpt lat="48.07786" lon="6.9418">
        <ele>746.5</ele>
        <time>2022-05-28T08:35:35Z</time>
      </trkpt>
      <trkpt lat="48.0778" lon="6.9419">
        <ele>746.7</ele>
        <time>2022-05-28T08:35:38Z</time>
      </trkpt>
      <trkpt lat="48.07774" lon="6.94201">
        <ele>747.1</ele>
        <time>2022-05-28T08:35:41Z</time>
      </trkpt>
      <trkpt lat="48.07769" lon="6.94212">
        <ele>745.4</ele>
        <time>2022-05-28T08:35:43Z</time>
      </trkpt>
      <trkpt lat="48.07764" lon="6.94225">
        <ele>744.5</ele>
        <time>2022-05-28T08:35:45Z</time>
      </trkpt>
      <trkpt lat="48.07759" lon="6.94237">
        <ele>744.7</ele>
        <time>2022-05-28T08:35:47Z</time>
      </trkpt>
      <trkpt lat="48.07755" lon="6.94256">
        <ele>746.1</ele>
        <time>2022-05-28T08:35:50Z</time>
      </trkpt>
      <trkpt lat="48.07754" lon="6.94272">
        <ele>746.9</ele>
        <time>2022-05-28T08:35:53Z</time>
      </trkpt>
      <trkpt lat="48.07749" lon="6.94286">
        <ele>747</ele>
        <time>2022-05-28T08:35:56Z</time>
      </trkpt>
      <trkpt lat="48.07741" lon="6.94299">
        <ele>746.5</ele>
        <time>2022-05-28T08:35:59Z</time>
      </trkpt>
      <trkpt lat="48.07732" lon="6.94313">
        <ele>746.2</ele>
        <time>2022-05-28T08:36:02Z</time>
      </trkpt>
      <trkpt lat="48.07729" lon="6.94327">
        <ele>746.9</ele>
        <time>2022-05-28T08:36:05Z</time>
      </trkpt>
      <trkpt lat="48.07731" lon="6.94343">
        <ele>748.5</ele>
        <time>2022-05-28T08:36:09Z</time>
      </trkpt>
      <trkpt lat="48.07734" lon="6.94358">
        <ele>748.1</ele>
        <time>2022-05-28T08:36:12Z</time>
      </trkpt>
      <trkpt lat="48.07738" lon="6.9437">
        <ele>748.9</ele>
        <time>2022-05-28T08:36:15Z</time>
      </trkpt>
      <trkpt lat="48.07741" lon="6.94384">
        <ele>747.8</ele>
        <time>2022-05-28T08:36:20Z</time>
      </trkpt>
      <trkpt lat="48.0774" lon="6.94397">
        <ele>746.4</ele>
        <time>2022-05-28T08:36:24Z</time>
      </trkpt>
      <trkpt lat="48.0774" lon="6.94415">
        <ele>745.4</ele>
        <time>2022-05-28T08:36:27Z</time>
      </trkpt>
      <trkpt lat="48.07737" lon="6.94428">
        <ele>745.4</ele>
        <time>2022-05-28T08:36:30Z</time>
      </trkpt>
      <trkpt lat="48.07731" lon="6.9444">
        <ele>745.7</ele>
        <time>2022-05-28T08:36:34Z</time>
      </trkpt>
      <trkpt lat="48.07722" lon="6.9445">
        <ele>745.2</ele>
        <time>2022-05-28T08:36:38Z</time>
      </trkpt>
      <trkpt lat="48.07714" lon="6.94461">
        <ele>745.1</ele>
        <time>2022-05-28T08:36:42Z</time>
      </trkpt>
      <trkpt lat="48.07708" lon="6.94471">
        <ele>745.4</ele>
        <time>2022-05-28T08:36:46Z</time>
      </trkpt>
      <trkpt lat="48.077" lon="6.94481">
        <ele>745.8</ele>
        <time>2022-05-28T08:36:50Z</time>
      </trkpt>
      <trkpt lat="48.07695" lon="6.94491">
        <ele>746</ele>
        <time>2022-05-28T08:36:53Z</time>
      </trkpt>
      <trkpt lat="48.07687" lon="6.94505">
        <ele>745.1</ele>
        <time>2022-05-28T08:36:56Z</time>
      </trkpt>
      <trkpt lat="48.07675" lon="6.94514">
        <ele>745.7</ele>
        <time>2022-05-28T08:36:59Z</time>
      </trkpt>
      <trkpt lat="48.07664" lon="6.94519">
        <ele>746.3</ele>
        <time>2022-05-28T08:37:02Z</time>
      </trkpt>
      <trkpt lat="48.07659" lon="6.94532">
        <ele>745.6</ele>
        <time>2022-05-28T08:37:06Z</time>
      </trkpt>
      <trkpt lat="48.07663" lon="6.94545">
        <ele>746.3</ele>
        <time>2022-05-28T08:37:11Z</time>
      </trkpt>
      <trkpt lat="48.07669" lon="6.94559">
        <ele>745.9</ele>
        <time>2022-05-28T08:37:16Z</time>
      </trkpt>
      <trkpt lat="48.07677" lon="6.94573">
        <ele>745.8</ele>
        <time>2022-05-28T08:37:20Z</time>
      </trkpt>
      <trkpt lat="48.07685" lon="6.94584">
        <ele>744.5</ele>
        <time>2022-05-28T08:37:23Z</time>
      </trkpt>
      <trkpt lat="48.07694" lon="6.94592">
        <ele>744.6</ele>
        <time>2022-05-28T08:37:26Z</time>
      </trkpt>
      <trkpt lat="48.07703" lon="6.94597">
        <ele>745.6</ele>
        <time>2022-05-28T08:37:29Z</time>
      </trkpt>
      <trkpt lat="48.07712" lon="6.94602">
        <ele>745.7</ele>
        <time>2022-05-28T08:37:32Z</time>
      </trkpt>
      <trkpt lat="48.07722" lon="6.94609">
        <ele>745.2</ele>
        <time>2022-05-28T08:37:35Z</time>
      </trkpt>
      <trkpt lat="48.07731" lon="6.94619">
        <ele>744.1</ele>
        <time>2022-05-28T08:37:38Z</time>
      </trkpt>
      <trkpt lat="48.07741" lon="6.94627">
        <ele>743.5</ele>
        <time>2022-05-28T08:37:41Z</time>
      </trkpt>
      <trkpt lat="48.07752" lon="6.94636">
        <ele>745.1</ele>
        <time>2022-05-28T08:37:44Z</time>
      </trkpt>
      <trkpt lat="48.07761" lon="6.94646">
        <ele>744.7</ele>
        <time>2022-05-28T08:37:47Z</time>
      </trkpt>
      <trkpt lat="48.0777" lon="6.94656">
        <ele>745</ele>
        <time>2022-05-28T08:37:50Z</time>
      </trkpt>
      <trkpt lat="48.07779" lon="6.94666">
        <ele>745</ele>
        <time>2022-05-28T08:37:53Z</time>
      </trkpt>
      <trkpt lat="48.07788" lon="6.94676">
        <ele>744</ele>
        <time>2022-05-28T08:37:56Z</time>
      </trkpt>
      <trkpt lat="48.07796" lon="6.94686">
        <ele>744.4</ele>
        <time>2022-05-28T08:37:59Z</time>
      </trkpt>
      <trkpt lat="48.07806" lon="6.94693">
        <ele>744.5</ele>
        <time>2022-05-28T08:38:03Z</time>
      </trkpt>
      <trkpt lat="48.07817" lon="6.94699">
        <ele>743.9</ele>
        <time>2022-05-28T08:38:07Z</time>
      </trkpt>
      <trkpt lat="48.07826" lon="6.94701">
        <ele>745.3</ele>
        <time>2022-05-28T08:38:12Z</time>
      </trkpt>
      <trkpt lat="48.07836" lon="6.94699">
        <ele>745</ele>
        <time>2022-05-28T08:38:19Z</time>
      </trkpt>
      <trkpt lat="48.07836" lon="6.94693">
        <ele>745.1</ele>
        <time>2022-05-28T08:38:26Z</time>
      </trkpt>
      <trkpt lat="48.07835" lon="6.94693">
        <ele>745.5</ele>
        <time>2022-05-28T08:39:34Z</time>
      </trkpt>
      <trkpt lat="48.07835" lon="6.94693">
        <ele>745.4</ele>
        <time>2022-05-28T08:41:49Z</time>
      </trkpt>
      <trkpt lat="48.07835" lon="6.94694">
        <ele>745.9</ele>
        <time>2022-05-28T08:41:55Z</time>
      </trkpt>
      <trkpt lat="48.07836" lon="6.94693">
        <ele>744.4</ele>
        <time>2022-05-28T08:42:53Z</time>
      </trkpt>
      <trkpt lat="48.07836" lon="6.94693">
        <ele>745</ele>
        <time>2022-05-28T08:43:18Z</time>
      </trkpt>
      <trkpt lat="48.07843" lon="6.94683">
        <ele>744</ele>
        <time>2022-05-28T08:43:43Z</time>
      </trkpt>
      <trkpt lat="48.07854" lon="6.94679">
        <ele>743.1</ele>
        <time>2022-05-28T08:43:47Z</time>
      </trkpt>
      <trkpt lat="48.07866" lon="6.94675">
        <ele>743.5</ele>
        <time>2022-05-28T08:43:51Z</time>
      </trkpt>
      <trkpt lat="48.07876" lon="6.94673">
        <ele>743.7</ele>
        <time>2022-05-28T08:43:54Z</time>
      </trkpt>
      <trkpt lat="48.07885" lon="6.94669">
        <ele>743.9</ele>
        <time>2022-05-28T08:43:57Z</time>
      </trkpt>
      <trkpt lat="48.0788" lon="6.94655">
        <ele>745.8</ele>
        <time>2022-05-28T08:44:03Z</time>
      </trkpt>
      <trkpt lat="48.07878" lon="6.94641">
        <ele>747</ele>
        <time>2022-05-28T08:44:08Z</time>
      </trkpt>
      <trkpt lat="48.0788" lon="6.94626">
        <ele>747.4</ele>
        <time>2022-05-28T08:44:12Z</time>
      </trkpt>
      <trkpt lat="48.0788" lon="6.94611">
        <ele>747.3</ele>
        <time>2022-05-28T08:44:16Z</time>
      </trkpt>
      <trkpt lat="48.07879" lon="6.94597">
        <ele>747.1</ele>
        <time>2022-05-28T08:44:20Z</time>
      </trkpt>
      <trkpt lat="48.07876" lon="6.94579">
        <ele>746.9</ele>
        <time>2022-05-28T08:44:24Z</time>
      </trkpt>
      <trkpt lat="48.07872" lon="6.94566">
        <ele>747.2</ele>
        <time>2022-05-28T08:44:27Z</time>
      </trkpt>
      <trkpt lat="48.07867" lon="6.94554">
        <ele>747.4</ele>
        <time>2022-05-28T08:44:30Z</time>
      </trkpt>
      <trkpt lat="48.07863" lon="6.94542">
        <ele>746.7</ele>
        <time>2022-05-28T08:44:33Z</time>
      </trkpt>
      <trkpt lat="48.07857" lon="6.94528">
        <ele>746.1</ele>
        <time>2022-05-28T08:44:37Z</time>
      </trkpt>
      <trkpt lat="48.07852" lon="6.94517">
        <ele>746.7</ele>
        <time>2022-05-28T08:44:40Z</time>
      </trkpt>
      <trkpt lat="48.07847" lon="6.94504">
        <ele>746.9</ele>
        <time>2022-05-28T08:44:43Z</time>
      </trkpt>
      <trkpt lat="48.07842" lon="6.9449">
        <ele>746.9</ele>
        <time>2022-05-28T08:44:46Z</time>
      </trkpt>
      <trkpt lat="48.07836" lon="6.94477">
        <ele>747.1</ele>
        <time>2022-05-28T08:44:49Z</time>
      </trkpt>
      <trkpt lat="48.0783" lon="6.94462">
        <ele>746.7</ele>
        <time>2022-05-28T08:44:52Z</time>
      </trkpt>
      <trkpt lat="48.07825" lon="6.94447">
        <ele>746.8</ele>
        <time>2022-05-28T08:44:55Z</time>
      </trkpt>
      <trkpt lat="48.07821" lon="6.9443">
        <ele>747.8</ele>
        <time>2022-05-28T08:44:58Z</time>
      </trkpt>
      <trkpt lat="48.07818" lon="6.94412">
        <ele>747.1</ele>
        <time>2022-05-28T08:45:01Z</time>
      </trkpt>
      <trkpt lat="48.07816" lon="6.94394">
        <ele>746.5</ele>
        <time>2022-05-28T08:45:04Z</time>
      </trkpt>
      <trkpt lat="48.07814" lon="6.94375">
        <ele>745.9</ele>
        <time>2022-05-28T08:45:07Z</time>
      </trkpt>
      <trkpt lat="48.07814" lon="6.94357">
        <ele>746.2</ele>
        <time>2022-05-28T08:45:10Z</time>
      </trkpt>
      <trkpt lat="48.07814" lon="6.94339">
        <ele>746.2</ele>
        <time>2022-05-28T08:45:13Z</time>
      </trkpt>
      <trkpt lat="48.07814" lon="6.94323">
        <ele>746.5</ele>
        <time>2022-05-28T08:45:16Z</time>
      </trkpt>
      <trkpt lat="48.07814" lon="6.94307">
        <ele>745.9</ele>
        <time>2022-05-28T08:45:19Z</time>
      </trkpt>
      <trkpt lat="48.07815" lon="6.9429">
        <ele>746.4</ele>
        <time>2022-05-28T08:45:22Z</time>
      </trkpt>
      <trkpt lat="48.0782" lon="6.94277">
        <ele>745.8</ele>
        <time>2022-05-28T08:45:26Z</time>
      </trkpt>
      <trkpt lat="48.07824" lon="6.94261">
        <ele>745.1</ele>
        <time>2022-05-28T08:45:31Z</time>
      </trkpt>
      <trkpt lat="48.07823" lon="6.94245">
        <ele>745</ele>
        <time>2022-05-28T08:45:35Z</time>
      </trkpt>
      <trkpt lat="48.0782" lon="6.94232">
        <ele>744.7</ele>
        <time>2022-05-28T08:45:38Z</time>
      </trkpt>
      <trkpt lat="48.07817" lon="6.94216">
        <ele>744.2</ele>
        <time>2022-05-28T08:45:41Z</time>
      </trkpt>
      <trkpt lat="48.07813" lon="6.942">
        <ele>744.3</ele>
        <time>2022-05-28T08:45:44Z</time>
      </trkpt>
      <trkpt lat="48.07809" lon="6.94183">
        <ele>744.9</ele>
        <time>2022-05-28T08:45:47Z</time>
      </trkpt>
      <trkpt lat="48.07805" lon="6.94166">
        <ele>744.9</ele>
        <time>2022-05-28T08:45:50Z</time>
      </trkpt>
      <trkpt lat="48.078" lon="6.9415">
        <ele>745.1</ele>
        <time>2022-05-28T08:45:53Z</time>
      </trkpt>
      <trkpt lat="48.07796" lon="6.94133">
        <ele>744.5</ele>
        <time>2022-05-28T08:45:56Z</time>
      </trkpt>
      <trkpt lat="48.07793" lon="6.94117">
        <ele>744.9</ele>
        <time>2022-05-28T08:45:59Z</time>
      </trkpt>
      <trkpt lat="48.07792" lon="6.94102">
        <ele>745.8</ele>
        <time>2022-05-28T08:46:03Z</time>
      </trkpt>
      <trkpt lat="48.07791" lon="6.94101">
        <ele>746.5</ele>
        <time>2022-05-28T08:46:05Z</time>
      </trkpt>
      <trkpt lat="48.07791" lon="6.941">
        <ele>746.8</ele>
        <time>2022-05-28T08:46:27Z</time>
      </trkpt>
      <trkpt lat="48.07792" lon="6.94099">
        <ele>746.4</ele>
        <time>2022-05-28T08:46:30Z</time>
      </trkpt>
      <trkpt lat="48.07799" lon="6.94087">
        <ele>745.5</ele>
        <time>2022-05-28T08:46:35Z</time>
      </trkpt>
      <trkpt lat="48.07807" lon="6.94078">
        <ele>745.6</ele>
        <time>2022-05-28T08:46:39Z</time>
      </trkpt>
      <trkpt lat="48.07815" lon="6.94068">
        <ele>745.5</ele>
        <time>2022-05-28T08:46:43Z</time>
      </trkpt>
      <trkpt lat="48.07818" lon="6.94054">
        <ele>744.7</ele>
        <time>2022-05-28T08:46:46Z</time>
      </trkpt>
      <trkpt lat="48.07814" lon="6.94039">
        <ele>747.5</ele>
        <time>2022-05-28T08:46:49Z</time>
      </trkpt>
      <trkpt lat="48.07808" lon="6.94027">
        <ele>749</ele>
        <time>2022-05-28T08:46:53Z</time>
      </trkpt>
      <trkpt lat="48.0781" lon="6.94013">
        <ele>750.5</ele>
        <time>2022-05-28T08:46:58Z</time>
      </trkpt>
      <trkpt lat="48.07815" lon="6.94">
        <ele>750.9</ele>
        <time>2022-05-28T08:47:03Z</time>
      </trkpt>
      <trkpt lat="48.07821" lon="6.93988">
        <ele>752.3</ele>
        <time>2022-05-28T08:47:08Z</time>
      </trkpt>
      <trkpt lat="48.07827" lon="6.93976">
        <ele>752.3</ele>
        <time>2022-05-28T08:47:13Z</time>
      </trkpt>
      <trkpt lat="48.07832" lon="6.93965">
        <ele>753.7</ele>
        <time>2022-05-28T08:47:18Z</time>
      </trkpt>
      <trkpt lat="48.07837" lon="6.93954">
        <ele>754.7</ele>
        <time>2022-05-28T08:47:23Z</time>
      </trkpt>
      <trkpt lat="48.07844" lon="6.93944">
        <ele>755.1</ele>
        <time>2022-05-28T08:47:28Z</time>
      </trkpt>
      <trkpt lat="48.0785" lon="6.93931">
        <ele>756.2</ele>
        <time>2022-05-28T08:47:35Z</time>
      </trkpt>
      <trkpt lat="48.07856" lon="6.9392">
        <ele>757.1</ele>
        <time>2022-05-28T08:47:43Z</time>
      </trkpt>
      <trkpt lat="48.0786" lon="6.93908">
        <ele>758.9</ele>
        <time>2022-05-28T08:47:51Z</time>
      </trkpt>
      <trkpt lat="48.07866" lon="6.93896">
        <ele>759.2</ele>
        <time>2022-05-28T08:47:56Z</time>
      </trkpt>
      <trkpt lat="48.0787" lon="6.93883">
        <ele>759.8</ele>
        <time>2022-05-28T08:48:01Z</time>
      </trkpt>
      <trkpt lat="48.07873" lon="6.9387">
        <ele>761</ele>
        <time>2022-05-28T08:48:06Z</time>
      </trkpt>
      <trkpt lat="48.07876" lon="6.93854">
        <ele>762</ele>
        <time>2022-05-28T08:48:11Z</time>
      </trkpt>
      <trkpt lat="48.07876" lon="6.93839">
        <ele>762.6</ele>
        <time>2022-05-28T08:48:16Z</time>
      </trkpt>
      <trkpt lat="48.07876" lon="6.93824">
        <ele>763.6</ele>
        <time>2022-05-28T08:48:21Z</time>
      </trkpt>
      <trkpt lat="48.07875" lon="6.9381">
        <ele>764.3</ele>
        <time>2022-05-28T08:48:26Z</time>
      </trkpt>
      <trkpt lat="48.07878" lon="6.93796">
        <ele>765.1</ele>
        <time>2022-05-28T08:48:31Z</time>
      </trkpt>
      <trkpt lat="48.07881" lon="6.93784">
        <ele>766.2</ele>
        <time>2022-05-28T08:48:36Z</time>
      </trkpt>
      <trkpt lat="48.07886" lon="6.9377">
        <ele>767.7</ele>
        <time>2022-05-28T08:48:42Z</time>
      </trkpt>
      <trkpt lat="48.07889" lon="6.93754">
        <ele>768.8</ele>
        <time>2022-05-28T08:48:47Z</time>
      </trkpt>
      <trkpt lat="48.07891" lon="6.93739">
        <ele>769.2</ele>
        <time>2022-05-28T08:48:52Z</time>
      </trkpt>
      <trkpt lat="48.07892" lon="6.93724">
        <ele>770.5</ele>
        <time>2022-05-28T08:48:57Z</time>
      </trkpt>
      <trkpt lat="48.07893" lon="6.9371">
        <ele>771.9</ele>
        <time>2022-05-28T08:49:02Z</time>
      </trkpt>
      <trkpt lat="48.07893" lon="6.93696">
        <ele>772</ele>
        <time>2022-05-28T08:49:07Z</time>
      </trkpt>
      <trkpt lat="48.07893" lon="6.93681">
        <ele>773.4</ele>
        <time>2022-05-28T08:49:12Z</time>
      </trkpt>
      <trkpt lat="48.07896" lon="6.93667">
        <ele>774.1</ele>
        <time>2022-05-28T08:49:17Z</time>
      </trkpt>
      <trkpt lat="48.07899" lon="6.93654">
        <ele>774.9</ele>
        <time>2022-05-28T08:49:22Z</time>
      </trkpt>
      <trkpt lat="48.07903" lon="6.93639">
        <ele>775.6</ele>
        <time>2022-05-28T08:49:27Z</time>
      </trkpt>
      <trkpt lat="48.07905" lon="6.93624">
        <ele>776.7</ele>
        <time>2022-05-28T08:49:32Z</time>
      </trkpt>
      <trkpt lat="48.07905" lon="6.9361">
        <ele>778</ele>
        <time>2022-05-28T08:49:37Z</time>
      </trkpt>
      <trkpt lat="48.07905" lon="6.93596">
        <ele>778.6</ele>
        <time>2022-05-28T08:49:42Z</time>
      </trkpt>
      <trkpt lat="48.07904" lon="6.93581">
        <ele>779.5</ele>
        <time>2022-05-28T08:49:47Z</time>
      </trkpt>
      <trkpt lat="48.07906" lon="6.93565">
        <ele>780.5</ele>
        <time>2022-05-28T08:49:52Z</time>
      </trkpt>
      <trkpt lat="48.07905" lon="6.93552">
        <ele>781</ele>
        <time>2022-05-28T08:49:57Z</time>
      </trkpt>
      <trkpt lat="48.07906" lon="6.93537">
        <ele>781.7</ele>
        <time>2022-05-28T08:50:02Z</time>
      </trkpt>
      <trkpt lat="48.07909" lon="6.93524">
        <ele>782.8</ele>
        <time>2022-05-28T08:50:07Z</time>
      </trkpt>
      <trkpt lat="48.07912" lon="6.93509">
        <ele>783.9</ele>
        <time>2022-05-28T08:50:12Z</time>
      </trkpt>
      <trkpt lat="48.07915" lon="6.93497">
        <ele>785.2</ele>
        <time>2022-05-28T08:50:17Z</time>
      </trkpt>
      <trkpt lat="48.0792" lon="6.93484">
        <ele>785.4</ele>
        <time>2022-05-28T08:50:22Z</time>
      </trkpt>
      <trkpt lat="48.07924" lon="6.93471">
        <ele>786.5</ele>
        <time>2022-05-28T08:50:27Z</time>
      </trkpt>
      <trkpt lat="48.07929" lon="6.93457">
        <ele>788.2</ele>
        <time>2022-05-28T08:50:32Z</time>
      </trkpt>
      <trkpt lat="48.07933" lon="6.93444">
        <ele>788.4</ele>
        <time>2022-05-28T08:50:37Z</time>
      </trkpt>
      <trkpt lat="48.07938" lon="6.93432">
        <ele>789.3</ele>
        <time>2022-05-28T08:50:42Z</time>
      </trkpt>
      <trkpt lat="48.07942" lon="6.93419">
        <ele>790.3</ele>
        <time>2022-05-28T08:50:47Z</time>
      </trkpt>
      <trkpt lat="48.07945" lon="6.93405">
        <ele>790.9</ele>
        <time>2022-05-28T08:50:52Z</time>
      </trkpt>
      <trkpt lat="48.07949" lon="6.93391">
        <ele>792.2</ele>
        <time>2022-05-28T08:50:57Z</time>
      </trkpt>
      <trkpt lat="48.07952" lon="6.93376">
        <ele>793</ele>
        <time>2022-05-28T08:51:02Z</time>
      </trkpt>
      <trkpt lat="48.07953" lon="6.93361">
        <ele>794.1</ele>
        <time>2022-05-28T08:51:08Z</time>
      </trkpt>
      <trkpt lat="48.07954" lon="6.93345">
        <ele>795.3</ele>
        <time>2022-05-28T08:51:13Z</time>
      </trkpt>
      <trkpt lat="48.07953" lon="6.93331">
        <ele>795.7</ele>
        <time>2022-05-28T08:51:17Z</time>
      </trkpt>
      <trkpt lat="48.07951" lon="6.93315">
        <ele>797.1</ele>
        <time>2022-05-28T08:51:22Z</time>
      </trkpt>
      <trkpt lat="48.07949" lon="6.93302">
        <ele>797.6</ele>
        <time>2022-05-28T08:51:27Z</time>
      </trkpt>
      <trkpt lat="48.07947" lon="6.93287">
        <ele>798.7</ele>
        <time>2022-05-28T08:51:32Z</time>
      </trkpt>
      <trkpt lat="48.07942" lon="6.93275">
        <ele>798.9</ele>
        <time>2022-05-28T08:51:37Z</time>
      </trkpt>
      <trkpt lat="48.07935" lon="6.93266">
        <ele>800.5</ele>
        <time>2022-05-28T08:51:42Z</time>
      </trkpt>
      <trkpt lat="48.07927" lon="6.93257">
        <ele>800.4</ele>
        <time>2022-05-28T08:51:48Z</time>
      </trkpt>
      <trkpt lat="48.07919" lon="6.93252">
        <ele>802.3</ele>
        <time>2022-05-28T08:51:52Z</time>
      </trkpt>
      <trkpt lat="48.0791" lon="6.93246">
        <ele>803.1</ele>
        <time>2022-05-28T08:51:57Z</time>
      </trkpt>
      <trkpt lat="48.07901" lon="6.93243">
        <ele>803.8</ele>
        <time>2022-05-28T08:52:02Z</time>
      </trkpt>
      <trkpt lat="48.07892" lon="6.93237">
        <ele>804.9</ele>
        <time>2022-05-28T08:52:06Z</time>
      </trkpt>
      <trkpt lat="48.07884" lon="6.9323">
        <ele>805.6</ele>
        <time>2022-05-28T08:52:11Z</time>
      </trkpt>
      <trkpt lat="48.07874" lon="6.93223">
        <ele>806.6</ele>
        <time>2022-05-28T08:52:16Z</time>
      </trkpt>
      <trkpt lat="48.07866" lon="6.93215">
        <ele>807.2</ele>
        <time>2022-05-28T08:52:21Z</time>
      </trkpt>
      <trkpt lat="48.07857" lon="6.93209">
        <ele>808.4</ele>
        <time>2022-05-28T08:52:26Z</time>
      </trkpt>
      <trkpt lat="48.07847" lon="6.93204">
        <ele>808.9</ele>
        <time>2022-05-28T08:52:31Z</time>
      </trkpt>
      <trkpt lat="48.07836" lon="6.93201">
        <ele>810.1</ele>
        <time>2022-05-28T08:52:36Z</time>
      </trkpt>
      <trkpt lat="48.07825" lon="6.93202">
        <ele>811</ele>
        <time>2022-05-28T08:52:41Z</time>
      </trkpt>
      <trkpt lat="48.07814" lon="6.93202">
        <ele>811.9</ele>
        <time>2022-05-28T08:52:46Z</time>
      </trkpt>
      <trkpt lat="48.07804" lon="6.93204">
        <ele>813</ele>
        <time>2022-05-28T08:52:51Z</time>
      </trkpt>
      <trkpt lat="48.07794" lon="6.93207">
        <ele>813.3</ele>
        <time>2022-05-28T08:52:56Z</time>
      </trkpt>
      <trkpt lat="48.07784" lon="6.93211">
        <ele>814.6</ele>
        <time>2022-05-28T08:53:01Z</time>
      </trkpt>
      <trkpt lat="48.07773" lon="6.93215">
        <ele>815.3</ele>
        <time>2022-05-28T08:53:06Z</time>
      </trkpt>
      <trkpt lat="48.07764" lon="6.9322">
        <ele>816.4</ele>
        <time>2022-05-28T08:53:11Z</time>
      </trkpt>
      <trkpt lat="48.07755" lon="6.93227">
        <ele>816.9</ele>
        <time>2022-05-28T08:53:16Z</time>
      </trkpt>
      <trkpt lat="48.07746" lon="6.93237">
        <ele>817.7</ele>
        <time>2022-05-28T08:53:21Z</time>
      </trkpt>
      <trkpt lat="48.07737" lon="6.93245">
        <ele>819.5</ele>
        <time>2022-05-28T08:53:26Z</time>
      </trkpt>
      <trkpt lat="48.07729" lon="6.93252">
        <ele>819.6</ele>
        <time>2022-05-28T08:53:30Z</time>
      </trkpt>
      <trkpt lat="48.07722" lon="6.93262">
        <ele>821.2</ele>
        <time>2022-05-28T08:53:35Z</time>
      </trkpt>
      <trkpt lat="48.07714" lon="6.9327">
        <ele>821.5</ele>
        <time>2022-05-28T08:53:39Z</time>
      </trkpt>
      <trkpt lat="48.07707" lon="6.93278">
        <ele>822.4</ele>
        <time>2022-05-28T08:53:43Z</time>
      </trkpt>
      <trkpt lat="48.07698" lon="6.93284">
        <ele>822.3</ele>
        <time>2022-05-28T08:53:47Z</time>
      </trkpt>
      <trkpt lat="48.0769" lon="6.93292">
        <ele>823.6</ele>
        <time>2022-05-28T08:53:51Z</time>
      </trkpt>
      <trkpt lat="48.07681" lon="6.93298">
        <ele>824.7</ele>
        <time>2022-05-28T08:53:55Z</time>
      </trkpt>
      <trkpt lat="48.07672" lon="6.93308">
        <ele>825.2</ele>
        <time>2022-05-28T08:54:00Z</time>
      </trkpt>
      <trkpt lat="48.07665" lon="6.93317">
        <ele>826</ele>
        <time>2022-05-28T08:54:04Z</time>
      </trkpt>
      <trkpt lat="48.07657" lon="6.93326">
        <ele>826.5</ele>
        <time>2022-05-28T08:54:08Z</time>
      </trkpt>
      <trkpt lat="48.07649" lon="6.93334">
        <ele>827.4</ele>
        <time>2022-05-28T08:54:12Z</time>
      </trkpt>
      <trkpt lat="48.07641" lon="6.9334">
        <ele>828.2</ele>
        <time>2022-05-28T08:54:16Z</time>
      </trkpt>
      <trkpt lat="48.07632" lon="6.9335">
        <ele>829</ele>
        <time>2022-05-28T08:54:21Z</time>
      </trkpt>
      <trkpt lat="48.07624" lon="6.93359">
        <ele>829.8</ele>
        <time>2022-05-28T08:54:26Z</time>
      </trkpt>
      <trkpt lat="48.07617" lon="6.93369">
        <ele>830.8</ele>
        <time>2022-05-28T08:54:31Z</time>
      </trkpt>
      <trkpt lat="48.07611" lon="6.9338">
        <ele>831.3</ele>
        <time>2022-05-28T08:54:36Z</time>
      </trkpt>
      <trkpt lat="48.07604" lon="6.93391">
        <ele>832.3</ele>
        <time>2022-05-28T08:54:42Z</time>
      </trkpt>
      <trkpt lat="48.07598" lon="6.93401">
        <ele>832.6</ele>
        <time>2022-05-28T08:54:48Z</time>
      </trkpt>
      <trkpt lat="48.07595" lon="6.93416">
        <ele>833.7</ele>
        <time>2022-05-28T08:54:54Z</time>
      </trkpt>
      <trkpt lat="48.0759" lon="6.93428">
        <ele>836.3</ele>
        <time>2022-05-28T08:54:59Z</time>
      </trkpt>
      <trkpt lat="48.07591" lon="6.93442">
        <ele>837.9</ele>
        <time>2022-05-28T08:55:06Z</time>
      </trkpt>
      <trkpt lat="48.07595" lon="6.93455">
        <ele>840.3</ele>
        <time>2022-05-28T08:55:15Z</time>
      </trkpt>
      <trkpt lat="48.07602" lon="6.93467">
        <ele>843.2</ele>
        <time>2022-05-28T08:55:25Z</time>
      </trkpt>
      <trkpt lat="48.07608" lon="6.93477">
        <ele>845.9</ele>
        <time>2022-05-28T08:55:33Z</time>
      </trkpt>
      <trkpt lat="48.07611" lon="6.9349">
        <ele>847.4</ele>
        <time>2022-05-28T08:55:42Z</time>
      </trkpt>
      <trkpt lat="48.07618" lon="6.93498">
        <ele>849.4</ele>
        <time>2022-05-28T08:55:51Z</time>
      </trkpt>
      <trkpt lat="48.07626" lon="6.93506">
        <ele>850.1</ele>
        <time>2022-05-28T08:55:59Z</time>
      </trkpt>
      <trkpt lat="48.07634" lon="6.93514">
        <ele>851.9</ele>
        <time>2022-05-28T08:56:08Z</time>
      </trkpt>
      <trkpt lat="48.07641" lon="6.93525">
        <ele>853.4</ele>
        <time>2022-05-28T08:56:20Z</time>
      </trkpt>
      <trkpt lat="48.07645" lon="6.93537">
        <ele>855.9</ele>
        <time>2022-05-28T08:56:31Z</time>
      </trkpt>
      <trkpt lat="48.07648" lon="6.93551">
        <ele>858</ele>
        <time>2022-05-28T08:56:46Z</time>
      </trkpt>
      <trkpt lat="48.07649" lon="6.9356">
        <ele>859.6</ele>
        <time>2022-05-28T08:56:53Z</time>
      </trkpt>
      <trkpt lat="48.07649" lon="6.93561">
        <ele>860</ele>
        <time>2022-05-28T08:56:59Z</time>
      </trkpt>
      <trkpt lat="48.0765" lon="6.93576">
        <ele>862.9</ele>
        <time>2022-05-28T08:57:10Z</time>
      </trkpt>
      <trkpt lat="48.0765" lon="6.93592">
        <ele>864.4</ele>
        <time>2022-05-28T08:57:18Z</time>
      </trkpt>
      <trkpt lat="48.07649" lon="6.93606">
        <ele>865.7</ele>
        <time>2022-05-28T08:57:25Z</time>
      </trkpt>
      <trkpt lat="48.07645" lon="6.9362">
        <ele>867.2</ele>
        <time>2022-05-28T08:57:32Z</time>
      </trkpt>
      <trkpt lat="48.07644" lon="6.93634">
        <ele>868.3</ele>
        <time>2022-05-28T08:57:37Z</time>
      </trkpt>
      <trkpt lat="48.07642" lon="6.93647">
        <ele>868.9</ele>
        <time>2022-05-28T08:57:45Z</time>
      </trkpt>
      <trkpt lat="48.07634" lon="6.93655">
        <ele>870.3</ele>
        <time>2022-05-28T08:57:56Z</time>
      </trkpt>
      <trkpt lat="48.07625" lon="6.93662">
        <ele>871.4</ele>
        <time>2022-05-28T08:58:03Z</time>
      </trkpt>
      <trkpt lat="48.07616" lon="6.93668">
        <ele>873.2</ele>
        <time>2022-05-28T08:58:11Z</time>
      </trkpt>
      <trkpt lat="48.07607" lon="6.93675">
        <ele>874.1</ele>
        <time>2022-05-28T08:58:20Z</time>
      </trkpt>
      <trkpt lat="48.07598" lon="6.93678">
        <ele>875.3</ele>
        <time>2022-05-28T08:58:27Z</time>
      </trkpt>
      <trkpt lat="48.07588" lon="6.93686">
        <ele>877.3</ele>
        <time>2022-05-28T08:58:34Z</time>
      </trkpt>
      <trkpt lat="48.07578" lon="6.93693">
        <ele>878.1</ele>
        <time>2022-05-28T08:58:39Z</time>
      </trkpt>
      <trkpt lat="48.07568" lon="6.93697">
        <ele>879.4</ele>
        <time>2022-05-28T08:58:45Z</time>
      </trkpt>
      <trkpt lat="48.07558" lon="6.93701">
        <ele>880.4</ele>
        <time>2022-05-28T08:58:51Z</time>
      </trkpt>
      <trkpt lat="48.07547" lon="6.93701">
        <ele>881.2</ele>
        <time>2022-05-28T08:58:57Z</time>
      </trkpt>
      <trkpt lat="48.07536" lon="6.93701">
        <ele>880.9</ele>
        <time>2022-05-28T08:59:02Z</time>
      </trkpt>
      <trkpt lat="48.07527" lon="6.93701">
        <ele>881.9</ele>
        <time>2022-05-28T08:59:06Z</time>
      </trkpt>
      <trkpt lat="48.07517" lon="6.93697">
        <ele>882.1</ele>
        <time>2022-05-28T08:59:10Z</time>
      </trkpt>
      <trkpt lat="48.07506" lon="6.93697">
        <ele>883</ele>
        <time>2022-05-28T08:59:14Z</time>
      </trkpt>
      <trkpt lat="48.07496" lon="6.93696">
        <ele>883.8</ele>
        <time>2022-05-28T08:59:18Z</time>
      </trkpt>
      <trkpt lat="48.07486" lon="6.93692">
        <ele>886.2</ele>
        <time>2022-05-28T08:59:23Z</time>
      </trkpt>
      <trkpt lat="48.07476" lon="6.93689">
        <ele>887.6</ele>
        <time>2022-05-28T08:59:28Z</time>
      </trkpt>
      <trkpt lat="48.07467" lon="6.93688">
        <ele>886.3</ele>
        <time>2022-05-28T08:59:32Z</time>
      </trkpt>
      <trkpt lat="48.07456" lon="6.93687">
        <ele>887</ele>
        <time>2022-05-28T08:59:35Z</time>
      </trkpt>
      <trkpt lat="48.07444" lon="6.93683">
        <ele>886.5</ele>
        <time>2022-05-28T08:59:38Z</time>
      </trkpt>
      <trkpt lat="48.07433" lon="6.9368">
        <ele>886.9</ele>
        <time>2022-05-28T08:59:41Z</time>
      </trkpt>
      <trkpt lat="48.07423" lon="6.93677">
        <ele>887.7</ele>
        <time>2022-05-28T08:59:44Z</time>
      </trkpt>
      <trkpt lat="48.07413" lon="6.93674">
        <ele>888.2</ele>
        <time>2022-05-28T08:59:48Z</time>
      </trkpt>
      <trkpt lat="48.07403" lon="6.93669">
        <ele>887.6</ele>
        <time>2022-05-28T08:59:52Z</time>
      </trkpt>
      <trkpt lat="48.07395" lon="6.93661">
        <ele>889.9</ele>
        <time>2022-05-28T08:59:56Z</time>
      </trkpt>
      <trkpt lat="48.07385" lon="6.93657">
        <ele>889.6</ele>
        <time>2022-05-28T09:00:00Z</time>
      </trkpt>
      <trkpt lat="48.07375" lon="6.93657">
        <ele>891.8</ele>
        <time>2022-05-28T09:00:04Z</time>
      </trkpt>
      <trkpt lat="48.07367" lon="6.93653">
        <ele>893.5</ele>
        <time>2022-05-28T09:00:09Z</time>
      </trkpt>
      <trkpt lat="48.07357" lon="6.93652">
        <ele>894.3</ele>
        <time>2022-05-28T09:00:17Z</time>
      </trkpt>
      <trkpt lat="48.07347" lon="6.9365">
        <ele>895</ele>
        <time>2022-05-28T09:00:22Z</time>
      </trkpt>
      <trkpt lat="48.07337" lon="6.93646">
        <ele>897.2</ele>
        <time>2022-05-28T09:00:28Z</time>
      </trkpt>
      <trkpt lat="48.07327" lon="6.93642">
        <ele>897.3</ele>
        <time>2022-05-28T09:00:33Z</time>
      </trkpt>
      <trkpt lat="48.07316" lon="6.93644">
        <ele>898.9</ele>
        <time>2022-05-28T09:00:39Z</time>
      </trkpt>
      <trkpt lat="48.07306" lon="6.93642">
        <ele>899.8</ele>
        <time>2022-05-28T09:00:45Z</time>
      </trkpt>
      <trkpt lat="48.07295" lon="6.93639">
        <ele>899.8</ele>
        <time>2022-05-28T09:00:49Z</time>
      </trkpt>
      <trkpt lat="48.07285" lon="6.93638">
        <ele>899.4</ele>
        <time>2022-05-28T09:00:53Z</time>
      </trkpt>
      <trkpt lat="48.07275" lon="6.93637">
        <ele>900.4</ele>
        <time>2022-05-28T09:00:56Z</time>
      </trkpt>
      <trkpt lat="48.07265" lon="6.93635">
        <ele>901.4</ele>
        <time>2022-05-28T09:00:59Z</time>
      </trkpt>
      <trkpt lat="48.07254" lon="6.93635">
        <ele>900.7</ele>
        <time>2022-05-28T09:01:03Z</time>
      </trkpt>
      <trkpt lat="48.07245" lon="6.93633">
        <ele>901.6</ele>
        <time>2022-05-28T09:01:07Z</time>
      </trkpt>
      <trkpt lat="48.07236" lon="6.93632">
        <ele>901.9</ele>
        <time>2022-05-28T09:01:11Z</time>
      </trkpt>
      <trkpt lat="48.07226" lon="6.93628">
        <ele>903.9</ele>
        <time>2022-05-28T09:01:16Z</time>
      </trkpt>
      <trkpt lat="48.07216" lon="6.93628">
        <ele>904</ele>
        <time>2022-05-28T09:01:20Z</time>
      </trkpt>
      <trkpt lat="48.07207" lon="6.93629">
        <ele>905.2</ele>
        <time>2022-05-28T09:01:25Z</time>
      </trkpt>
      <trkpt lat="48.07197" lon="6.93626">
        <ele>906.8</ele>
        <time>2022-05-28T09:01:32Z</time>
      </trkpt>
      <trkpt lat="48.07188" lon="6.93629">
        <ele>908.5</ele>
        <time>2022-05-28T09:01:39Z</time>
      </trkpt>
      <trkpt lat="48.07178" lon="6.93629">
        <ele>909.8</ele>
        <time>2022-05-28T09:01:47Z</time>
      </trkpt>
      <trkpt lat="48.07169" lon="6.93629">
        <ele>912.1</ele>
        <time>2022-05-28T09:01:55Z</time>
      </trkpt>
      <trkpt lat="48.0716" lon="6.93628">
        <ele>913</ele>
        <time>2022-05-28T09:02:02Z</time>
      </trkpt>
      <trkpt lat="48.07151" lon="6.93625">
        <ele>914.4</ele>
        <time>2022-05-28T09:02:10Z</time>
      </trkpt>
      <trkpt lat="48.07141" lon="6.93623">
        <ele>916.1</ele>
        <time>2022-05-28T09:02:16Z</time>
      </trkpt>
      <trkpt lat="48.07131" lon="6.9362">
        <ele>917.9</ele>
        <time>2022-05-28T09:02:24Z</time>
      </trkpt>
      <trkpt lat="48.07122" lon="6.93615">
        <ele>919</ele>
        <time>2022-05-28T09:02:32Z</time>
      </trkpt>
      <trkpt lat="48.07114" lon="6.93606">
        <ele>920.4</ele>
        <time>2022-05-28T09:02:40Z</time>
      </trkpt>
      <trkpt lat="48.07104" lon="6.93606">
        <ele>921.3</ele>
        <time>2022-05-28T09:02:48Z</time>
      </trkpt>
      <trkpt lat="48.07094" lon="6.93602">
        <ele>922.8</ele>
        <time>2022-05-28T09:02:57Z</time>
      </trkpt>
      <trkpt lat="48.07086" lon="6.93594">
        <ele>923.8</ele>
        <time>2022-05-28T09:03:05Z</time>
      </trkpt>
      <trkpt lat="48.07078" lon="6.93588">
        <ele>925.2</ele>
        <time>2022-05-28T09:03:19Z</time>
      </trkpt>
      <trkpt lat="48.07072" lon="6.93576">
        <ele>926.3</ele>
        <time>2022-05-28T09:03:28Z</time>
      </trkpt>
      <trkpt lat="48.07067" lon="6.93563">
        <ele>927.9</ele>
        <time>2022-05-28T09:03:35Z</time>
      </trkpt>
      <trkpt lat="48.07057" lon="6.93559">
        <ele>928.9</ele>
        <time>2022-05-28T09:03:42Z</time>
      </trkpt>
      <trkpt lat="48.07049" lon="6.93552">
        <ele>929.5</ele>
        <time>2022-05-28T09:03:48Z</time>
      </trkpt>
      <trkpt lat="48.0704" lon="6.93547">
        <ele>929.6</ele>
        <time>2022-05-28T09:03:52Z</time>
      </trkpt>
      <trkpt lat="48.07032" lon="6.93537">
        <ele>931</ele>
        <time>2022-05-28T09:03:57Z</time>
      </trkpt>
      <trkpt lat="48.07024" lon="6.93533">
        <ele>931.9</ele>
        <time>2022-05-28T09:04:01Z</time>
      </trkpt>
      <trkpt lat="48.07013" lon="6.93529">
        <ele>931.9</ele>
        <time>2022-05-28T09:04:07Z</time>
      </trkpt>
      <trkpt lat="48.07002" lon="6.93524">
        <ele>932.3</ele>
        <time>2022-05-28T09:04:12Z</time>
      </trkpt>
      <trkpt lat="48.06994" lon="6.93517">
        <ele>931.9</ele>
        <time>2022-05-28T09:04:17Z</time>
      </trkpt>
      <trkpt lat="48.06988" lon="6.93506">
        <ele>932.4</ele>
        <time>2022-05-28T09:04:23Z</time>
      </trkpt>
      <trkpt lat="48.06988" lon="6.93493">
        <ele>934.2</ele>
        <time>2022-05-28T09:04:31Z</time>
      </trkpt>
      <trkpt lat="48.06988" lon="6.93479">
        <ele>935.1</ele>
        <time>2022-05-28T09:04:37Z</time>
      </trkpt>
      <trkpt lat="48.06987" lon="6.93465">
        <ele>935.5</ele>
        <time>2022-05-28T09:04:44Z</time>
      </trkpt>
      <trkpt lat="48.06989" lon="6.93452">
        <ele>936</ele>
        <time>2022-05-28T09:04:51Z</time>
      </trkpt>
      <trkpt lat="48.06992" lon="6.93437">
        <ele>937</ele>
        <time>2022-05-28T09:04:57Z</time>
      </trkpt>
      <trkpt lat="48.0699" lon="6.93428">
        <ele>936.2</ele>
        <time>2022-05-28T09:05:05Z</time>
      </trkpt>
      <trkpt lat="48.0699" lon="6.93427">
        <ele>935.6</ele>
        <time>2022-05-28T09:05:43Z</time>
      </trkpt>
      <trkpt lat="48.06991" lon="6.93427">
        <ele>935.7</ele>
        <time>2022-05-28T09:06:14Z</time>
      </trkpt>
      <trkpt lat="48.06991" lon="6.93425">
        <ele>935.7</ele>
        <time>2022-05-28T09:06:28Z</time>
      </trkpt>
      <trkpt lat="48.06991" lon="6.93424">
        <ele>935.3</ele>
        <time>2022-05-28T09:06:36Z</time>
      </trkpt>
      <trkpt lat="48.0699" lon="6.93424">
        <ele>935.4</ele>
        <time>2022-05-28T09:06:37Z</time>
      </trkpt>
      <trkpt lat="48.06987" lon="6.93424">
        <ele>934.6</ele>
        <time>2022-05-28T09:06:41Z</time>
      </trkpt>
      <trkpt lat="48.06987" lon="6.93423">
        <ele>932.6</ele>
        <time>2022-05-28T09:08:02Z</time>
      </trkpt>
      <trkpt lat="48.06986" lon="6.93412">
        <ele>933.2</ele>
        <time>2022-05-28T09:08:14Z</time>
      </trkpt>
      <trkpt lat="48.06987" lon="6.93412">
        <ele>933.2</ele>
        <time>2022-05-28T09:08:15Z</time>
      </trkpt>
      <trkpt lat="48.06987" lon="6.93411">
        <ele>931.6</ele>
        <time>2022-05-28T09:09:54Z</time>
      </trkpt>
      <trkpt lat="48.06987" lon="6.9341">
        <ele>930.7</ele>
        <time>2022-05-28T09:10:44Z</time>
      </trkpt>
      <trkpt lat="48.06985" lon="6.93396">
        <ele>930.1</ele>
        <time>2022-05-28T09:10:58Z</time>
      </trkpt>
      <trkpt lat="48.06991" lon="6.93384">
        <ele>930</ele>
        <time>2022-05-28T09:11:06Z</time>
      </trkpt>
      <trkpt lat="48.06997" lon="6.93374">
        <ele>930.5</ele>
        <time>2022-05-28T09:11:11Z</time>
      </trkpt>
      <trkpt lat="48.07006" lon="6.93365">
        <ele>928.6</ele>
        <time>2022-05-28T09:11:16Z</time>
      </trkpt>
      <trkpt lat="48.07015" lon="6.93356">
        <ele>929.3</ele>
        <time>2022-05-28T09:11:21Z</time>
      </trkpt>
      <trkpt lat="48.07026" lon="6.9335">
        <ele>929.6</ele>
        <time>2022-05-28T09:11:25Z</time>
      </trkpt>
      <trkpt lat="48.07035" lon="6.9335">
        <ele>930.3</ele>
        <time>2022-05-28T09:11:29Z</time>
      </trkpt>
      <trkpt lat="48.07044" lon="6.93349">
        <ele>929.3</ele>
        <time>2022-05-28T09:11:32Z</time>
      </trkpt>
      <trkpt lat="48.07054" lon="6.93346">
        <ele>930.7</ele>
        <time>2022-05-28T09:11:36Z</time>
      </trkpt>
      <trkpt lat="48.07064" lon="6.93353">
        <ele>929.1</ele>
        <time>2022-05-28T09:11:40Z</time>
      </trkpt>
      <trkpt lat="48.07075" lon="6.93356">
        <ele>929.1</ele>
        <time>2022-05-28T09:11:44Z</time>
      </trkpt>
      <trkpt lat="48.07085" lon="6.93357">
        <ele>927</ele>
        <time>2022-05-28T09:11:47Z</time>
      </trkpt>
      <trkpt lat="48.07095" lon="6.9336">
        <ele>924.4</ele>
        <time>2022-05-28T09:11:50Z</time>
      </trkpt>
      <trkpt lat="48.07105" lon="6.93367">
        <ele>923.9</ele>
        <time>2022-05-28T09:11:53Z</time>
      </trkpt>
      <trkpt lat="48.07115" lon="6.93373">
        <ele>922.3</ele>
        <time>2022-05-28T09:11:56Z</time>
      </trkpt>
      <trkpt lat="48.07126" lon="6.93376">
        <ele>921.4</ele>
        <time>2022-05-28T09:11:58Z</time>
      </trkpt>
      <trkpt lat="48.07137" lon="6.93376">
        <ele>917.8</ele>
        <time>2022-05-28T09:12:00Z</time>
      </trkpt>
      <trkpt lat="48.0715" lon="6.93379">
        <ele>915.7</ele>
        <time>2022-05-28T09:12:02Z</time>
      </trkpt>
      <trkpt lat="48.07164" lon="6.93375">
        <ele>915.7</ele>
        <time>2022-05-28T09:12:04Z</time>
      </trkpt>
      <trkpt lat="48.07176" lon="6.93367">
        <ele>915.7</ele>
        <time>2022-05-28T09:12:06Z</time>
      </trkpt>
      <trkpt lat="48.07183" lon="6.93357">
        <ele>915.5</ele>
        <time>2022-05-28T09:12:08Z</time>
      </trkpt>
      <trkpt lat="48.07181" lon="6.93341">
        <ele>915.6</ele>
        <time>2022-05-28T09:12:12Z</time>
      </trkpt>
      <trkpt lat="48.07177" lon="6.93329">
        <ele>915.1</ele>
        <time>2022-05-28T09:12:15Z</time>
      </trkpt>
      <trkpt lat="48.07174" lon="6.93315">
        <ele>916.2</ele>
        <time>2022-05-28T09:12:18Z</time>
      </trkpt>
      <trkpt lat="48.0717" lon="6.93299">
        <ele>917.5</ele>
        <time>2022-05-28T09:12:22Z</time>
      </trkpt>
      <trkpt lat="48.07163" lon="6.9329">
        <ele>919.4</ele>
        <time>2022-05-28T09:12:26Z</time>
      </trkpt>
      <trkpt lat="48.07154" lon="6.93287">
        <ele>919</ele>
        <time>2022-05-28T09:12:34Z</time>
      </trkpt>
      <trkpt lat="48.07159" lon="6.93273">
        <ele>917</ele>
        <time>2022-05-28T09:12:40Z</time>
      </trkpt>
      <trkpt lat="48.07162" lon="6.93262">
        <ele>914.9</ele>
        <time>2022-05-28T09:12:48Z</time>
      </trkpt>
      <trkpt lat="48.07163" lon="6.93261">
        <ele>914.4</ele>
        <time>2022-05-28T09:13:18Z</time>
      </trkpt>
      <trkpt lat="48.07163" lon="6.9326">
        <ele>913.9</ele>
        <time>2022-05-28T09:13:35Z</time>
      </trkpt>
      <trkpt lat="48.07163" lon="6.93259">
        <ele>913.9</ele>
        <time>2022-05-28T09:13:45Z</time>
      </trkpt>
      <trkpt lat="48.07163" lon="6.93258">
        <ele>913.6</ele>
        <time>2022-05-28T09:13:58Z</time>
      </trkpt>
      <trkpt lat="48.07159" lon="6.93271">
        <ele>914.9</ele>
        <time>2022-05-28T09:14:09Z</time>
      </trkpt>
      <trkpt lat="48.07154" lon="6.93283">
        <ele>916.9</ele>
        <time>2022-05-28T09:14:21Z</time>
      </trkpt>
      <trkpt lat="48.07154" lon="6.93289">
        <ele>917.3</ele>
        <time>2022-05-28T09:14:27Z</time>
      </trkpt>
      <trkpt lat="48.07153" lon="6.93289">
        <ele>917.1</ele>
        <time>2022-05-28T09:14:40Z</time>
      </trkpt>
      <trkpt lat="48.07153" lon="6.93291">
        <ele>916.8</ele>
        <time>2022-05-28T09:14:44Z</time>
      </trkpt>
      <trkpt lat="48.07143" lon="6.93292">
        <ele>917.4</ele>
        <time>2022-05-28T09:15:06Z</time>
      </trkpt>
      <trkpt lat="48.07133" lon="6.93292">
        <ele>918</ele>
        <time>2022-05-28T09:15:11Z</time>
      </trkpt>
      <trkpt lat="48.07123" lon="6.93293">
        <ele>919.2</ele>
        <time>2022-05-28T09:15:16Z</time>
      </trkpt>
      <trkpt lat="48.07114" lon="6.93295">
        <ele>920.1</ele>
        <time>2022-05-28T09:15:22Z</time>
      </trkpt>
      <trkpt lat="48.07104" lon="6.93299">
        <ele>920.8</ele>
        <time>2022-05-28T09:15:28Z</time>
      </trkpt>
      <trkpt lat="48.07095" lon="6.93302">
        <ele>921.9</ele>
        <time>2022-05-28T09:15:33Z</time>
      </trkpt>
      <trkpt lat="48.07086" lon="6.93303">
        <ele>921.9</ele>
        <time>2022-05-28T09:15:38Z</time>
      </trkpt>
      <trkpt lat="48.07076" lon="6.93306">
        <ele>922.3</ele>
        <time>2022-05-28T09:15:43Z</time>
      </trkpt>
      <trkpt lat="48.07065" lon="6.93311">
        <ele>923.3</ele>
        <time>2022-05-28T09:15:48Z</time>
      </trkpt>
      <trkpt lat="48.07055" lon="6.93311">
        <ele>923.7</ele>
        <time>2022-05-28T09:15:53Z</time>
      </trkpt>
      <trkpt lat="48.07045" lon="6.93313">
        <ele>924.3</ele>
        <time>2022-05-28T09:15:57Z</time>
      </trkpt>
      <trkpt lat="48.07033" lon="6.93316">
        <ele>923.9</ele>
        <time>2022-05-28T09:16:01Z</time>
      </trkpt>
      <trkpt lat="48.07024" lon="6.93317">
        <ele>923.5</ele>
        <time>2022-05-28T09:16:04Z</time>
      </trkpt>
      <trkpt lat="48.07014" lon="6.93319">
        <ele>923</ele>
        <time>2022-05-28T09:16:07Z</time>
      </trkpt>
      <trkpt lat="48.07005" lon="6.9332">
        <ele>922.8</ele>
        <time>2022-05-28T09:16:10Z</time>
      </trkpt>
      <trkpt lat="48.06996" lon="6.93321">
        <ele>923.3</ele>
        <time>2022-05-28T09:16:13Z</time>
      </trkpt>
      <trkpt lat="48.06986" lon="6.93322">
        <ele>923.2</ele>
        <time>2022-05-28T09:16:16Z</time>
      </trkpt>
      <trkpt lat="48.06976" lon="6.93325">
        <ele>922.9</ele>
        <time>2022-05-28T09:16:19Z</time>
      </trkpt>
      <trkpt lat="48.06967" lon="6.93327">
        <ele>922.4</ele>
        <time>2022-05-28T09:16:22Z</time>
      </trkpt>
      <trkpt lat="48.06957" lon="6.93328">
        <ele>920.7</ele>
        <time>2022-05-28T09:16:25Z</time>
      </trkpt>
      <trkpt lat="48.06948" lon="6.93329">
        <ele>921.5</ele>
        <time>2022-05-28T09:16:28Z</time>
      </trkpt>
      <trkpt lat="48.06937" lon="6.93328">
        <ele>921.4</ele>
        <time>2022-05-28T09:16:32Z</time>
      </trkpt>
      <trkpt lat="48.06928" lon="6.93325">
        <ele>922.5</ele>
        <time>2022-05-28T09:16:35Z</time>
      </trkpt>
      <trkpt lat="48.06919" lon="6.93322">
        <ele>920.7</ele>
        <time>2022-05-28T09:16:38Z</time>
      </trkpt>
      <trkpt lat="48.06909" lon="6.93321">
        <ele>918.8</ele>
        <time>2022-05-28T09:16:41Z</time>
      </trkpt>
      <trkpt lat="48.06899" lon="6.93321">
        <ele>920.2</ele>
        <time>2022-05-28T09:16:44Z</time>
      </trkpt>
      <trkpt lat="48.06888" lon="6.93317">
        <ele>920.1</ele>
        <time>2022-05-28T09:16:47Z</time>
      </trkpt>
      <trkpt lat="48.06879" lon="6.93312">
        <ele>920.7</ele>
        <time>2022-05-28T09:16:49Z</time>
      </trkpt>
      <trkpt lat="48.0687" lon="6.93307">
        <ele>918.2</ele>
        <time>2022-05-28T09:16:51Z</time>
      </trkpt>
      <trkpt lat="48.06859" lon="6.933">
        <ele>917.3</ele>
        <time>2022-05-28T09:16:53Z</time>
      </trkpt>
      <trkpt lat="48.06848" lon="6.93296">
        <ele>916.1</ele>
        <time>2022-05-28T09:16:55Z</time>
      </trkpt>
      <trkpt lat="48.06836" lon="6.93294">
        <ele>914.7</ele>
        <time>2022-05-28T09:16:57Z</time>
      </trkpt>
      <trkpt lat="48.06824" lon="6.93291">
        <ele>913.1</ele>
        <time>2022-05-28T09:16:59Z</time>
      </trkpt>
      <trkpt lat="48.06812" lon="6.93287">
        <ele>909.1</ele>
        <time>2022-05-28T09:17:01Z</time>
      </trkpt>
      <trkpt lat="48.06799" lon="6.93282">
        <ele>910.4</ele>
        <time>2022-05-28T09:17:03Z</time>
      </trkpt>
      <trkpt lat="48.06786" lon="6.93278">
        <ele>913.6</ele>
        <time>2022-05-28T09:17:05Z</time>
      </trkpt>
      <trkpt lat="48.06775" lon="6.93272">
        <ele>913.4</ele>
        <time>2022-05-28T09:17:07Z</time>
      </trkpt>
      <trkpt lat="48.06764" lon="6.93263">
        <ele>909.7</ele>
        <time>2022-05-28T09:17:09Z</time>
      </trkpt>
      <trkpt lat="48.06753" lon="6.9325">
        <ele>906.6</ele>
        <time>2022-05-28T09:17:11Z</time>
      </trkpt>
      <trkpt lat="48.06741" lon="6.93235">
        <ele>905.3</ele>
        <time>2022-05-28T09:17:13Z</time>
      </trkpt>
      <trkpt lat="48.06729" lon="6.93218">
        <ele>905.5</ele>
        <time>2022-05-28T09:17:15Z</time>
      </trkpt>
      <trkpt lat="48.06717" lon="6.932">
        <ele>904.9</ele>
        <time>2022-05-28T09:17:17Z</time>
      </trkpt>
      <trkpt lat="48.06708" lon="6.93181">
        <ele>901.4</ele>
        <time>2022-05-28T09:17:19Z</time>
      </trkpt>
      <trkpt lat="48.06697" lon="6.93161">
        <ele>898.7</ele>
        <time>2022-05-28T09:17:21Z</time>
      </trkpt>
      <trkpt lat="48.06687" lon="6.93144">
        <ele>898.4</ele>
        <time>2022-05-28T09:17:23Z</time>
      </trkpt>
      <trkpt lat="48.06678" lon="6.93132">
        <ele>902.3</ele>
        <time>2022-05-28T09:17:25Z</time>
      </trkpt>
      <trkpt lat="48.06671" lon="6.93118">
        <ele>901.9</ele>
        <time>2022-05-28T09:17:27Z</time>
      </trkpt>
      <trkpt lat="48.06665" lon="6.93103">
        <ele>900.9</ele>
        <time>2022-05-28T09:17:29Z</time>
      </trkpt>
      <trkpt lat="48.06658" lon="6.93088">
        <ele>899.7</ele>
        <time>2022-05-28T09:17:31Z</time>
      </trkpt>
      <trkpt lat="48.06652" lon="6.93069">
        <ele>897.3</ele>
        <time>2022-05-28T09:17:33Z</time>
      </trkpt>
      <trkpt lat="48.06647" lon="6.93051">
        <ele>895</ele>
        <time>2022-05-28T09:17:35Z</time>
      </trkpt>
      <trkpt lat="48.06647" lon="6.93032">
        <ele>895.7</ele>
        <time>2022-05-28T09:17:37Z</time>
      </trkpt>
      <trkpt lat="48.06651" lon="6.93019">
        <ele>894.9</ele>
        <time>2022-05-28T09:17:38Z</time>
      </trkpt>
      <trkpt lat="48.06654" lon="6.93007">
        <ele>891.2</ele>
        <time>2022-05-28T09:17:39Z</time>
      </trkpt>
      <trkpt lat="48.0666" lon="6.92982">
        <ele>889.9</ele>
        <time>2022-05-28T09:17:41Z</time>
      </trkpt>
      <trkpt lat="48.06663" lon="6.92969">
        <ele>886.1</ele>
        <time>2022-05-28T09:17:42Z</time>
      </trkpt>
      <trkpt lat="48.06669" lon="6.92944">
        <ele>887.3</ele>
        <time>2022-05-28T09:17:44Z</time>
      </trkpt>
      <trkpt lat="48.06672" lon="6.92924">
        <ele>887</ele>
        <time>2022-05-28T09:17:46Z</time>
      </trkpt>
      <trkpt lat="48.06678" lon="6.92906">
        <ele>882.1</ele>
        <time>2022-05-28T09:17:48Z</time>
      </trkpt>
      <trkpt lat="48.06694" lon="6.92897">
        <ele>882.8</ele>
        <time>2022-05-28T09:17:50Z</time>
      </trkpt>
      <trkpt lat="48.06709" lon="6.92885">
        <ele>881.4</ele>
        <time>2022-05-28T09:17:52Z</time>
      </trkpt>
      <trkpt lat="48.0672" lon="6.92867">
        <ele>878.5</ele>
        <time>2022-05-28T09:17:54Z</time>
      </trkpt>
      <trkpt lat="48.06732" lon="6.92849">
        <ele>877.5</ele>
        <time>2022-05-28T09:17:56Z</time>
      </trkpt>
      <trkpt lat="48.06741" lon="6.92828">
        <ele>876.2</ele>
        <time>2022-05-28T09:17:58Z</time>
      </trkpt>
      <trkpt lat="48.06748" lon="6.92812">
        <ele>879.4</ele>
        <time>2022-05-28T09:18:00Z</time>
      </trkpt>
      <trkpt lat="48.06753" lon="6.92796">
        <ele>879.8</ele>
        <time>2022-05-28T09:18:03Z</time>
      </trkpt>
      <trkpt lat="48.06751" lon="6.9278">
        <ele>878.4</ele>
        <time>2022-05-28T09:18:07Z</time>
      </trkpt>
      <trkpt lat="48.06748" lon="6.92763">
        <ele>876.8</ele>
        <time>2022-05-28T09:18:10Z</time>
      </trkpt>
      <trkpt lat="48.06744" lon="6.92748">
        <ele>875.3</ele>
        <time>2022-05-28T09:18:12Z</time>
      </trkpt>
      <trkpt lat="48.0674" lon="6.92733">
        <ele>875.9</ele>
        <time>2022-05-28T09:18:14Z</time>
      </trkpt>
      <trkpt lat="48.06732" lon="6.92718">
        <ele>877.5</ele>
        <time>2022-05-28T09:18:17Z</time>
      </trkpt>
      <trkpt lat="48.06723" lon="6.92708">
        <ele>877.7</ele>
        <time>2022-05-28T09:18:21Z</time>
      </trkpt>
      <trkpt lat="48.06714" lon="6.927">
        <ele>878.6</ele>
        <time>2022-05-28T09:18:25Z</time>
      </trkpt>
      <trkpt lat="48.06705" lon="6.92692">
        <ele>879.3</ele>
        <time>2022-05-28T09:18:29Z</time>
      </trkpt>
      <trkpt lat="48.06697" lon="6.92683">
        <ele>880</ele>
        <time>2022-05-28T09:18:34Z</time>
      </trkpt>
      <trkpt lat="48.06689" lon="6.92676">
        <ele>880.4</ele>
        <time>2022-05-28T09:18:39Z</time>
      </trkpt>
      <trkpt lat="48.0668" lon="6.9267">
        <ele>881.4</ele>
        <time>2022-05-28T09:18:43Z</time>
      </trkpt>
      <trkpt lat="48.06671" lon="6.92662">
        <ele>881.8</ele>
        <time>2022-05-28T09:18:47Z</time>
      </trkpt>
      <trkpt lat="48.06662" lon="6.92656">
        <ele>882.3</ele>
        <time>2022-05-28T09:18:51Z</time>
      </trkpt>
      <trkpt lat="48.06653" lon="6.92649">
        <ele>883.7</ele>
        <time>2022-05-28T09:18:56Z</time>
      </trkpt>
      <trkpt lat="48.06644" lon="6.92645">
        <ele>883.3</ele>
        <time>2022-05-28T09:19:00Z</time>
      </trkpt>
      <trkpt lat="48.06633" lon="6.92643">
        <ele>884.7</ele>
        <time>2022-05-28T09:19:06Z</time>
      </trkpt>
      <trkpt lat="48.06624" lon="6.92638">
        <ele>884.8</ele>
        <time>2022-05-28T09:19:11Z</time>
      </trkpt>
      <trkpt lat="48.06614" lon="6.92632">
        <ele>885.6</ele>
        <time>2022-05-28T09:19:14Z</time>
      </trkpt>
      <trkpt lat="48.06606" lon="6.92624">
        <ele>885.9</ele>
        <time>2022-05-28T09:19:17Z</time>
      </trkpt>
      <trkpt lat="48.06597" lon="6.92617">
        <ele>886.5</ele>
        <time>2022-05-28T09:19:20Z</time>
      </trkpt>
      <trkpt lat="48.06588" lon="6.92612">
        <ele>886.7</ele>
        <time>2022-05-28T09:19:24Z</time>
      </trkpt>
      <trkpt lat="48.06577" lon="6.92604">
        <ele>887.5</ele>
        <time>2022-05-28T09:19:29Z</time>
      </trkpt>
      <trkpt lat="48.06567" lon="6.92597">
        <ele>887.9</ele>
        <time>2022-05-28T09:19:33Z</time>
      </trkpt>
      <trkpt lat="48.06559" lon="6.9259">
        <ele>888.6</ele>
        <time>2022-05-28T09:19:37Z</time>
      </trkpt>
      <trkpt lat="48.0655" lon="6.92581">
        <ele>888.9</ele>
        <time>2022-05-28T09:19:41Z</time>
      </trkpt>
      <trkpt lat="48.0654" lon="6.92575">
        <ele>889.4</ele>
        <time>2022-05-28T09:19:45Z</time>
      </trkpt>
      <trkpt lat="48.0653" lon="6.92569">
        <ele>889.7</ele>
        <time>2022-05-28T09:19:49Z</time>
      </trkpt>
      <trkpt lat="48.06522" lon="6.92557">
        <ele>890.7</ele>
        <time>2022-05-28T09:19:53Z</time>
      </trkpt>
      <trkpt lat="48.06518" lon="6.92544">
        <ele>891.3</ele>
        <time>2022-05-28T09:19:57Z</time>
      </trkpt>
      <trkpt lat="48.06514" lon="6.92532">
        <ele>891.7</ele>
        <time>2022-05-28T09:20:01Z</time>
      </trkpt>
      <trkpt lat="48.06509" lon="6.9252">
        <ele>892.6</ele>
        <time>2022-05-28T09:20:05Z</time>
      </trkpt>
      <trkpt lat="48.06503" lon="6.92508">
        <ele>893.4</ele>
        <time>2022-05-28T09:20:09Z</time>
      </trkpt>
      <trkpt lat="48.06496" lon="6.92497">
        <ele>893.4</ele>
        <time>2022-05-28T09:20:13Z</time>
      </trkpt>
      <trkpt lat="48.06487" lon="6.92487">
        <ele>893.4</ele>
        <time>2022-05-28T09:20:17Z</time>
      </trkpt>
      <trkpt lat="48.06479" lon="6.92477">
        <ele>894.3</ele>
        <time>2022-05-28T09:20:21Z</time>
      </trkpt>
      <trkpt lat="48.06472" lon="6.92468">
        <ele>894.6</ele>
        <time>2022-05-28T09:20:25Z</time>
      </trkpt>
      <trkpt lat="48.06465" lon="6.92459">
        <ele>895.3</ele>
        <time>2022-05-28T09:20:29Z</time>
      </trkpt>
      <trkpt lat="48.06457" lon="6.92448">
        <ele>896</ele>
        <time>2022-05-28T09:20:34Z</time>
      </trkpt>
      <trkpt lat="48.0645" lon="6.92438">
        <ele>896.6</ele>
        <time>2022-05-28T09:20:38Z</time>
      </trkpt>
      <trkpt lat="48.06442" lon="6.92429">
        <ele>897.5</ele>
        <time>2022-05-28T09:20:42Z</time>
      </trkpt>
      <trkpt lat="48.06435" lon="6.92418">
        <ele>898.1</ele>
        <time>2022-05-28T09:20:46Z</time>
      </trkpt>
      <trkpt lat="48.06428" lon="6.92407">
        <ele>898.4</ele>
        <time>2022-05-28T09:20:50Z</time>
      </trkpt>
      <trkpt lat="48.06421" lon="6.92398">
        <ele>899</ele>
        <time>2022-05-28T09:20:54Z</time>
      </trkpt>
      <trkpt lat="48.06415" lon="6.92386">
        <ele>899.3</ele>
        <time>2022-05-28T09:20:58Z</time>
      </trkpt>
      <trkpt lat="48.06414" lon="6.92371">
        <ele>899.9</ele>
        <time>2022-05-28T09:21:02Z</time>
      </trkpt>
      <trkpt lat="48.0641" lon="6.92358">
        <ele>900.6</ele>
        <time>2022-05-28T09:21:06Z</time>
      </trkpt>
      <trkpt lat="48.06407" lon="6.92345">
        <ele>901</ele>
        <time>2022-05-28T09:21:11Z</time>
      </trkpt>
      <trkpt lat="48.06401" lon="6.92332">
        <ele>901.8</ele>
        <time>2022-05-28T09:21:15Z</time>
      </trkpt>
      <trkpt lat="48.06397" lon="6.92319">
        <ele>902.3</ele>
        <time>2022-05-28T09:21:19Z</time>
      </trkpt>
      <trkpt lat="48.06392" lon="6.92305">
        <ele>902.8</ele>
        <time>2022-05-28T09:21:23Z</time>
      </trkpt>
      <trkpt lat="48.06386" lon="6.92293">
        <ele>903.5</ele>
        <time>2022-05-28T09:21:27Z</time>
      </trkpt>
      <trkpt lat="48.06379" lon="6.92282">
        <ele>903.8</ele>
        <time>2022-05-28T09:21:31Z</time>
      </trkpt>
      <trkpt lat="48.06373" lon="6.92271">
        <ele>904.7</ele>
        <time>2022-05-28T09:21:35Z</time>
      </trkpt>
      <trkpt lat="48.06366" lon="6.92261">
        <ele>905.3</ele>
        <time>2022-05-28T09:21:39Z</time>
      </trkpt>
      <trkpt lat="48.06361" lon="6.92248">
        <ele>906</ele>
        <time>2022-05-28T09:21:43Z</time>
      </trkpt>
      <trkpt lat="48.06355" lon="6.92236">
        <ele>906.3</ele>
        <time>2022-05-28T09:21:47Z</time>
      </trkpt>
      <trkpt lat="48.06354" lon="6.9222">
        <ele>907.5</ele>
        <time>2022-05-28T09:21:51Z</time>
      </trkpt>
      <trkpt lat="48.06354" lon="6.92205">
        <ele>907.7</ele>
        <time>2022-05-28T09:21:55Z</time>
      </trkpt>
      <trkpt lat="48.06354" lon="6.92191">
        <ele>908.1</ele>
        <time>2022-05-28T09:21:59Z</time>
      </trkpt>
      <trkpt lat="48.06356" lon="6.92178">
        <ele>908.7</ele>
        <time>2022-05-28T09:22:03Z</time>
      </trkpt>
      <trkpt lat="48.06361" lon="6.92165">
        <ele>909.3</ele>
        <time>2022-05-28T09:22:07Z</time>
      </trkpt>
      <trkpt lat="48.06367" lon="6.92153">
        <ele>909.8</ele>
        <time>2022-05-28T09:22:11Z</time>
      </trkpt>
      <trkpt lat="48.06372" lon="6.92142">
        <ele>910.6</ele>
        <time>2022-05-28T09:22:15Z</time>
      </trkpt>
      <trkpt lat="48.06378" lon="6.9213">
        <ele>910.7</ele>
        <time>2022-05-28T09:22:19Z</time>
      </trkpt>
      <trkpt lat="48.06385" lon="6.9212">
        <ele>911.4</ele>
        <time>2022-05-28T09:22:23Z</time>
      </trkpt>
      <trkpt lat="48.06393" lon="6.92111">
        <ele>912.1</ele>
        <time>2022-05-28T09:22:27Z</time>
      </trkpt>
      <trkpt lat="48.06401" lon="6.92105">
        <ele>913</ele>
        <time>2022-05-28T09:22:31Z</time>
      </trkpt>
      <trkpt lat="48.06411" lon="6.92098">
        <ele>913.1</ele>
        <time>2022-05-28T09:22:35Z</time>
      </trkpt>
      <trkpt lat="48.06418" lon="6.92091">
        <ele>913.5</ele>
        <time>2022-05-28T09:22:39Z</time>
      </trkpt>
      <trkpt lat="48.06428" lon="6.92084">
        <ele>913.9</ele>
        <time>2022-05-28T09:22:43Z</time>
      </trkpt>
      <trkpt lat="48.06437" lon="6.92077">
        <ele>914.5</ele>
        <time>2022-05-28T09:22:47Z</time>
      </trkpt>
      <trkpt lat="48.06446" lon="6.92072">
        <ele>914.9</ele>
        <time>2022-05-28T09:22:51Z</time>
      </trkpt>
      <trkpt lat="48.06455" lon="6.92068">
        <ele>915.4</ele>
        <time>2022-05-28T09:22:55Z</time>
      </trkpt>
      <trkpt lat="48.06466" lon="6.92064">
        <ele>916.1</ele>
        <time>2022-05-28T09:23:00Z</time>
      </trkpt>
      <trkpt lat="48.06475" lon="6.92059">
        <ele>916.4</ele>
        <time>2022-05-28T09:23:04Z</time>
      </trkpt>
      <trkpt lat="48.06485" lon="6.92051">
        <ele>916.8</ele>
        <time>2022-05-28T09:23:08Z</time>
      </trkpt>
      <trkpt lat="48.06493" lon="6.9204">
        <ele>917.3</ele>
        <time>2022-05-28T09:23:12Z</time>
      </trkpt>
      <trkpt lat="48.065" lon="6.92029">
        <ele>917.6</ele>
        <time>2022-05-28T09:23:16Z</time>
      </trkpt>
      <trkpt lat="48.06508" lon="6.92017">
        <ele>918.3</ele>
        <time>2022-05-28T09:23:20Z</time>
      </trkpt>
      <trkpt lat="48.06515" lon="6.92005">
        <ele>918.6</ele>
        <time>2022-05-28T09:23:24Z</time>
      </trkpt>
      <trkpt lat="48.06522" lon="6.91997">
        <ele>919</ele>
        <time>2022-05-28T09:23:28Z</time>
      </trkpt>
      <trkpt lat="48.06532" lon="6.91992">
        <ele>919.9</ele>
        <time>2022-05-28T09:23:33Z</time>
      </trkpt>
      <trkpt lat="48.06541" lon="6.91988">
        <ele>920.4</ele>
        <time>2022-05-28T09:23:37Z</time>
      </trkpt>
      <trkpt lat="48.06551" lon="6.91984">
        <ele>920.7</ele>
        <time>2022-05-28T09:23:41Z</time>
      </trkpt>
      <trkpt lat="48.06561" lon="6.9198">
        <ele>921</ele>
        <time>2022-05-28T09:23:45Z</time>
      </trkpt>
      <trkpt lat="48.06571" lon="6.91974">
        <ele>921.5</ele>
        <time>2022-05-28T09:23:49Z</time>
      </trkpt>
      <trkpt lat="48.06581" lon="6.9197">
        <ele>922</ele>
        <time>2022-05-28T09:23:53Z</time>
      </trkpt>
      <trkpt lat="48.06591" lon="6.91965">
        <ele>922.4</ele>
        <time>2022-05-28T09:23:57Z</time>
      </trkpt>
      <trkpt lat="48.06601" lon="6.91959">
        <ele>923.1</ele>
        <time>2022-05-28T09:24:01Z</time>
      </trkpt>
      <trkpt lat="48.0661" lon="6.91952">
        <ele>923.3</ele>
        <time>2022-05-28T09:24:05Z</time>
      </trkpt>
      <trkpt lat="48.0662" lon="6.91944">
        <ele>924.1</ele>
        <time>2022-05-28T09:24:09Z</time>
      </trkpt>
      <trkpt lat="48.06627" lon="6.91936">
        <ele>924.7</ele>
        <time>2022-05-28T09:24:12Z</time>
      </trkpt>
      <trkpt lat="48.06636" lon="6.91929">
        <ele>924.9</ele>
        <time>2022-05-28T09:24:16Z</time>
      </trkpt>
      <trkpt lat="48.06645" lon="6.91923">
        <ele>925.5</ele>
        <time>2022-05-28T09:24:20Z</time>
      </trkpt>
      <trkpt lat="48.06654" lon="6.91917">
        <ele>925.6</ele>
        <time>2022-05-28T09:24:24Z</time>
      </trkpt>
      <trkpt lat="48.06664" lon="6.91913">
        <ele>925.6</ele>
        <time>2022-05-28T09:24:28Z</time>
      </trkpt>
      <trkpt lat="48.06674" lon="6.91909">
        <ele>926</ele>
        <time>2022-05-28T09:24:32Z</time>
      </trkpt>
      <trkpt lat="48.06683" lon="6.91905">
        <ele>926.8</ele>
        <time>2022-05-28T09:24:36Z</time>
      </trkpt>
      <trkpt lat="48.06694" lon="6.91903">
        <ele>927.7</ele>
        <time>2022-05-28T09:24:40Z</time>
      </trkpt>
      <trkpt lat="48.06703" lon="6.91901">
        <ele>928.1</ele>
        <time>2022-05-28T09:24:44Z</time>
      </trkpt>
      <trkpt lat="48.06714" lon="6.91897">
        <ele>928.1</ele>
        <time>2022-05-28T09:24:48Z</time>
      </trkpt>
      <trkpt lat="48.06724" lon="6.91892">
        <ele>928.9</ele>
        <time>2022-05-28T09:24:52Z</time>
      </trkpt>
      <trkpt lat="48.06734" lon="6.91889">
        <ele>929</ele>
        <time>2022-05-28T09:24:57Z</time>
      </trkpt>
      <trkpt lat="48.06743" lon="6.91885">
        <ele>929.8</ele>
        <time>2022-05-28T09:25:06Z</time>
      </trkpt>
      <trkpt lat="48.06744" lon="6.9188">
        <ele>929.8</ele>
        <time>2022-05-28T09:25:14Z</time>
      </trkpt>
      <trkpt lat="48.06744" lon="6.91879">
        <ele>929.5</ele>
        <time>2022-05-28T09:25:20Z</time>
      </trkpt>
      <trkpt lat="48.06745" lon="6.91878">
        <ele>929.5</ele>
        <time>2022-05-28T09:25:24Z</time>
      </trkpt>
      <trkpt lat="48.06745" lon="6.91878">
        <ele>929.6</ele>
        <time>2022-05-28T09:25:29Z</time>
      </trkpt>
      <trkpt lat="48.06746" lon="6.91877">
        <ele>929</ele>
        <time>2022-05-28T09:25:48Z</time>
      </trkpt>
      <trkpt lat="48.06747" lon="6.91875">
        <ele>929</ele>
        <time>2022-05-28T09:25:53Z</time>
      </trkpt>
      <trkpt lat="48.06747" lon="6.91876">
        <ele>928.7</ele>
        <time>2022-05-28T09:26:10Z</time>
      </trkpt>
      <trkpt lat="48.06747" lon="6.91876">
        <ele>928.9</ele>
        <time>2022-05-28T09:26:20Z</time>
      </trkpt>
      <trkpt lat="48.06748" lon="6.91876">
        <ele>928.8</ele>
        <time>2022-05-28T09:26:22Z</time>
      </trkpt>
      <trkpt lat="48.06748" lon="6.91878">
        <ele>928.2</ele>
        <time>2022-05-28T09:26:38Z</time>
      </trkpt>
      <trkpt lat="48.06748" lon="6.91879">
        <ele>928</ele>
        <time>2022-05-28T09:26:40Z</time>
      </trkpt>
      <trkpt lat="48.06747" lon="6.91879">
        <ele>927.7</ele>
        <time>2022-05-28T09:26:56Z</time>
      </trkpt>
      <trkpt lat="48.06746" lon="6.91879">
        <ele>927.3</ele>
        <time>2022-05-28T09:27:00Z</time>
      </trkpt>
      <trkpt lat="48.06746" lon="6.9188">
        <ele>926.7</ele>
        <time>2022-05-28T09:27:31Z</time>
      </trkpt>
      <trkpt lat="48.06743" lon="6.91883">
        <ele>926.2</ele>
        <time>2022-05-28T09:27:37Z</time>
      </trkpt>
      <trkpt lat="48.06746" lon="6.91883">
        <ele>925.5</ele>
        <time>2022-05-28T09:28:12Z</time>
      </trkpt>
      <trkpt lat="48.06746" lon="6.91883">
        <ele>926</ele>
        <time>2022-05-28T09:28:21Z</time>
      </trkpt>
      <trkpt lat="48.06746" lon="6.91884">
        <ele>925</ele>
        <time>2022-05-28T09:28:55Z</time>
      </trkpt>
      <trkpt lat="48.06747" lon="6.91884">
        <ele>924.6</ele>
        <time>2022-05-28T09:29:00Z</time>
      </trkpt>
      <trkpt lat="48.06747" lon="6.91885">
        <ele>922.1</ele>
        <time>2022-05-28T09:31:02Z</time>
      </trkpt>
      <trkpt lat="48.06747" lon="6.91885">
        <ele>921.9</ele>
        <time>2022-05-28T09:31:09Z</time>
      </trkpt>
      <trkpt lat="48.06756" lon="6.91893">
        <ele>919.6</ele>
        <time>2022-05-28T09:31:17Z</time>
      </trkpt>
      <trkpt lat="48.06766" lon="6.91893">
        <ele>917.1</ele>
        <time>2022-05-28T09:31:20Z</time>
      </trkpt>
      <trkpt lat="48.06777" lon="6.91892">
        <ele>916.4</ele>
        <time>2022-05-28T09:31:23Z</time>
      </trkpt>
      <trkpt lat="48.0679" lon="6.91889">
        <ele>914.2</ele>
        <time>2022-05-28T09:31:26Z</time>
      </trkpt>
      <trkpt lat="48.06799" lon="6.91885">
        <ele>913.6</ele>
        <time>2022-05-28T09:31:29Z</time>
      </trkpt>
      <trkpt lat="48.06811" lon="6.91878">
        <ele>911.9</ele>
        <time>2022-05-28T09:31:32Z</time>
      </trkpt>
      <trkpt lat="48.06819" lon="6.91872">
        <ele>909.4</ele>
        <time>2022-05-28T09:31:34Z</time>
      </trkpt>
      <trkpt lat="48.06828" lon="6.91864">
        <ele>907.4</ele>
        <time>2022-05-28T09:31:36Z</time>
      </trkpt>
      <trkpt lat="48.06838" lon="6.91855">
        <ele>905.5</ele>
        <time>2022-05-28T09:31:39Z</time>
      </trkpt>
      <trkpt lat="48.06851" lon="6.91847">
        <ele>905.9</ele>
        <time>2022-05-28T09:31:42Z</time>
      </trkpt>
      <trkpt lat="48.0686" lon="6.91842">
        <ele>899.5</ele>
        <time>2022-05-28T09:31:44Z</time>
      </trkpt>
      <trkpt lat="48.06872" lon="6.91833">
        <ele>899</ele>
        <time>2022-05-28T09:31:46Z</time>
      </trkpt>
      <trkpt lat="48.06885" lon="6.91822">
        <ele>902.1</ele>
        <time>2022-05-28T09:31:48Z</time>
      </trkpt>
      <trkpt lat="48.06899" lon="6.91812">
        <ele>898.2</ele>
        <time>2022-05-28T09:31:50Z</time>
      </trkpt>
      <trkpt lat="48.06912" lon="6.91803">
        <ele>898.2</ele>
        <time>2022-05-28T09:31:52Z</time>
      </trkpt>
      <trkpt lat="48.0692" lon="6.91795">
        <ele>897.7</ele>
        <time>2022-05-28T09:31:54Z</time>
      </trkpt>
      <trkpt lat="48.06928" lon="6.91784">
        <ele>898.4</ele>
        <time>2022-05-28T09:31:56Z</time>
      </trkpt>
      <trkpt lat="48.06936" lon="6.91777">
        <ele>899.7</ele>
        <time>2022-05-28T09:31:59Z</time>
      </trkpt>
      <trkpt lat="48.06943" lon="6.91765">
        <ele>898.7</ele>
        <time>2022-05-28T09:32:03Z</time>
      </trkpt>
      <trkpt lat="48.06946" lon="6.9175">
        <ele>901.8</ele>
        <time>2022-05-28T09:32:08Z</time>
      </trkpt>
      <trkpt lat="48.0695" lon="6.91735">
        <ele>901.3</ele>
        <time>2022-05-28T09:32:12Z</time>
      </trkpt>
      <trkpt lat="48.0695" lon="6.91722">
        <ele>902.5</ele>
        <time>2022-05-28T09:32:16Z</time>
      </trkpt>
      <trkpt lat="48.06953" lon="6.91706">
        <ele>902.2</ele>
        <time>2022-05-28T09:32:20Z</time>
      </trkpt>
      <trkpt lat="48.06956" lon="6.91688">
        <ele>903.8</ele>
        <time>2022-05-28T09:32:25Z</time>
      </trkpt>
      <trkpt lat="48.06961" lon="6.91678">
        <ele>903.6</ele>
        <time>2022-05-28T09:32:28Z</time>
      </trkpt>
      <trkpt lat="48.06966" lon="6.91664">
        <ele>904.7</ele>
        <time>2022-05-28T09:32:33Z</time>
      </trkpt>
      <trkpt lat="48.0697" lon="6.91648">
        <ele>904.5</ele>
        <time>2022-05-28T09:32:38Z</time>
      </trkpt>
      <trkpt lat="48.0697" lon="6.91632">
        <ele>905.8</ele>
        <time>2022-05-28T09:32:43Z</time>
      </trkpt>
      <trkpt lat="48.06976" lon="6.91617">
        <ele>905.4</ele>
        <time>2022-05-28T09:32:47Z</time>
      </trkpt>
      <trkpt lat="48.0698" lon="6.91604">
        <ele>905.7</ele>
        <time>2022-05-28T09:32:51Z</time>
      </trkpt>
      <trkpt lat="48.06984" lon="6.91591">
        <ele>905.3</ele>
        <time>2022-05-28T09:32:55Z</time>
      </trkpt>
      <trkpt lat="48.06986" lon="6.91575">
        <ele>906.5</ele>
        <time>2022-05-28T09:33:00Z</time>
      </trkpt>
      <trkpt lat="48.0699" lon="6.91561">
        <ele>906.2</ele>
        <time>2022-05-28T09:33:05Z</time>
      </trkpt>
      <trkpt lat="48.06991" lon="6.91545">
        <ele>908.7</ele>
        <time>2022-05-28T09:33:10Z</time>
      </trkpt>
      <trkpt lat="48.06994" lon="6.91532">
        <ele>909.5</ele>
        <time>2022-05-28T09:33:14Z</time>
      </trkpt>
      <trkpt lat="48.06997" lon="6.91517">
        <ele>910.2</ele>
        <time>2022-05-28T09:33:18Z</time>
      </trkpt>
      <trkpt lat="48.06999" lon="6.91504">
        <ele>911.6</ele>
        <time>2022-05-28T09:33:22Z</time>
      </trkpt>
      <trkpt lat="48.06999" lon="6.9149">
        <ele>912</ele>
        <time>2022-05-28T09:33:26Z</time>
      </trkpt>
      <trkpt lat="48.07004" lon="6.91476">
        <ele>912.5</ele>
        <time>2022-05-28T09:33:31Z</time>
      </trkpt>
      <trkpt lat="48.07008" lon="6.91463">
        <ele>912.7</ele>
        <time>2022-05-28T09:33:35Z</time>
      </trkpt>
      <trkpt lat="48.07011" lon="6.9145">
        <ele>914.6</ele>
        <time>2022-05-28T09:33:39Z</time>
      </trkpt>
      <trkpt lat="48.07015" lon="6.91435">
        <ele>915.1</ele>
        <time>2022-05-28T09:33:43Z</time>
      </trkpt>
      <trkpt lat="48.0702" lon="6.91421">
        <ele>916</ele>
        <time>2022-05-28T09:33:48Z</time>
      </trkpt>
      <trkpt lat="48.07021" lon="6.91407">
        <ele>917.3</ele>
        <time>2022-05-28T09:33:53Z</time>
      </trkpt>
      <trkpt lat="48.07025" lon="6.91391">
        <ele>917.6</ele>
        <time>2022-05-28T09:33:58Z</time>
      </trkpt>
      <trkpt lat="48.0703" lon="6.91379">
        <ele>918.2</ele>
        <time>2022-05-28T09:34:02Z</time>
      </trkpt>
      <trkpt lat="48.07033" lon="6.91366">
        <ele>919.6</ele>
        <time>2022-05-28T09:34:06Z</time>
      </trkpt>
      <trkpt lat="48.07037" lon="6.91352">
        <ele>919.1</ele>
        <time>2022-05-28T09:34:11Z</time>
      </trkpt>
      <trkpt lat="48.07041" lon="6.91339">
        <ele>918.3</ele>
        <time>2022-05-28T09:34:15Z</time>
      </trkpt>
      <trkpt lat="48.07049" lon="6.91326">
        <ele>917.1</ele>
        <time>2022-05-28T09:34:19Z</time>
      </trkpt>
      <trkpt lat="48.07056" lon="6.91314">
        <ele>917.8</ele>
        <time>2022-05-28T09:34:22Z</time>
      </trkpt>
      <trkpt lat="48.07063" lon="6.91303">
        <ele>917</ele>
        <time>2022-05-28T09:34:25Z</time>
      </trkpt>
      <trkpt lat="48.07067" lon="6.9129">
        <ele>919.7</ele>
        <time>2022-05-28T09:34:28Z</time>
      </trkpt>
      <trkpt lat="48.07069" lon="6.91276">
        <ele>923.2</ele>
        <time>2022-05-28T09:34:34Z</time>
      </trkpt>
      <trkpt lat="48.0707" lon="6.91261">
        <ele>923.8</ele>
        <time>2022-05-28T09:34:40Z</time>
      </trkpt>
      <trkpt lat="48.07076" lon="6.91254">
        <ele>922.6</ele>
        <time>2022-05-28T09:34:48Z</time>
      </trkpt>
      <trkpt lat="48.07077" lon="6.91254">
        <ele>922.5</ele>
        <time>2022-05-28T09:34:50Z</time>
      </trkpt>
      <trkpt lat="48.07077" lon="6.91253">
        <ele>922.9</ele>
        <time>2022-05-28T09:35:19Z</time>
      </trkpt>
      <trkpt lat="48.07078" lon="6.91252">
        <ele>922.8</ele>
        <time>2022-05-28T09:35:28Z</time>
      </trkpt>
      <trkpt lat="48.07078" lon="6.91252">
        <ele>923.4</ele>
        <time>2022-05-28T09:35:39Z</time>
      </trkpt>
      <trkpt lat="48.07084" lon="6.9124">
        <ele>922.6</ele>
        <time>2022-05-28T09:35:44Z</time>
      </trkpt>
      <trkpt lat="48.07092" lon="6.91227">
        <ele>919.6</ele>
        <time>2022-05-28T09:35:47Z</time>
      </trkpt>
      <trkpt lat="48.07099" lon="6.91217">
        <ele>919.1</ele>
        <time>2022-05-28T09:35:49Z</time>
      </trkpt>
      <trkpt lat="48.07109" lon="6.91203">
        <ele>918.7</ele>
        <time>2022-05-28T09:35:52Z</time>
      </trkpt>
      <trkpt lat="48.07116" lon="6.91196">
        <ele>915.8</ele>
        <time>2022-05-28T09:35:54Z</time>
      </trkpt>
      <trkpt lat="48.07125" lon="6.91186">
        <ele>916.1</ele>
        <time>2022-05-28T09:35:56Z</time>
      </trkpt>
      <trkpt lat="48.07133" lon="6.91176">
        <ele>918.1</ele>
        <time>2022-05-28T09:35:58Z</time>
      </trkpt>
      <trkpt lat="48.0714" lon="6.91165">
        <ele>917.7</ele>
        <time>2022-05-28T09:36:00Z</time>
      </trkpt>
      <trkpt lat="48.07146" lon="6.91152">
        <ele>913.3</ele>
        <time>2022-05-28T09:36:02Z</time>
      </trkpt>
      <trkpt lat="48.07152" lon="6.91134">
        <ele>914.8</ele>
        <time>2022-05-28T09:36:05Z</time>
      </trkpt>
      <trkpt lat="48.07155" lon="6.91117">
        <ele>914.2</ele>
        <time>2022-05-28T09:36:08Z</time>
      </trkpt>
      <trkpt lat="48.07155" lon="6.911">
        <ele>913.1</ele>
        <time>2022-05-28T09:36:11Z</time>
      </trkpt>
      <trkpt lat="48.07154" lon="6.91083">
        <ele>913.4</ele>
        <time>2022-05-28T09:36:14Z</time>
      </trkpt>
      <trkpt lat="48.07152" lon="6.91064">
        <ele>911.2</ele>
        <time>2022-05-28T09:36:17Z</time>
      </trkpt>
      <trkpt lat="48.07151" lon="6.9105">
        <ele>912.9</ele>
        <time>2022-05-28T09:36:20Z</time>
      </trkpt>
      <trkpt lat="48.07148" lon="6.91035">
        <ele>915</ele>
        <time>2022-05-28T09:36:24Z</time>
      </trkpt>
      <trkpt lat="48.07146" lon="6.91019">
        <ele>911.5</ele>
        <time>2022-05-28T09:36:28Z</time>
      </trkpt>
      <trkpt lat="48.07148" lon="6.91003">
        <ele>911.8</ele>
        <time>2022-05-28T09:36:31Z</time>
      </trkpt>
      <trkpt lat="48.07157" lon="6.90992">
        <ele>912.1</ele>
        <time>2022-05-28T09:36:36Z</time>
      </trkpt>
      <trkpt lat="48.07164" lon="6.90981">
        <ele>912.2</ele>
        <time>2022-05-28T09:36:39Z</time>
      </trkpt>
      <trkpt lat="48.07171" lon="6.90969">
        <ele>911.6</ele>
        <time>2022-05-28T09:36:43Z</time>
      </trkpt>
      <trkpt lat="48.07176" lon="6.90961">
        <ele>912.2</ele>
        <time>2022-05-28T09:36:49Z</time>
      </trkpt>
      <trkpt lat="48.07176" lon="6.90961">
        <ele>912.2</ele>
        <time>2022-05-28T09:38:25Z</time>
      </trkpt>
      <trkpt lat="48.07176" lon="6.9096">
        <ele>911.8</ele>
        <time>2022-05-28T09:38:51Z</time>
      </trkpt>
      <trkpt lat="48.07184" lon="6.9095">
        <ele>909.6</ele>
        <time>2022-05-28T09:38:56Z</time>
      </trkpt>
      <trkpt lat="48.07191" lon="6.90941">
        <ele>908.9</ele>
        <time>2022-05-28T09:38:59Z</time>
      </trkpt>
      <trkpt lat="48.07198" lon="6.90928">
        <ele>908.1</ele>
        <time>2022-05-28T09:39:02Z</time>
      </trkpt>
      <trkpt lat="48.07206" lon="6.90916">
        <ele>907.6</ele>
        <time>2022-05-28T09:39:05Z</time>
      </trkpt>
      <trkpt lat="48.07216" lon="6.90915">
        <ele>907</ele>
        <time>2022-05-28T09:39:07Z</time>
      </trkpt>
      <trkpt lat="48.07226" lon="6.90909">
        <ele>906.4</ele>
        <time>2022-05-28T09:39:09Z</time>
      </trkpt>
      <trkpt lat="48.07236" lon="6.90903">
        <ele>905.5</ele>
        <time>2022-05-28T09:39:11Z</time>
      </trkpt>
      <trkpt lat="48.07246" lon="6.90902">
        <ele>904</ele>
        <time>2022-05-28T09:39:13Z</time>
      </trkpt>
      <trkpt lat="48.07256" lon="6.90902">
        <ele>906.3</ele>
        <time>2022-05-28T09:39:15Z</time>
      </trkpt>
      <trkpt lat="48.07266" lon="6.90901">
        <ele>904</ele>
        <time>2022-05-28T09:39:17Z</time>
      </trkpt>
      <trkpt lat="48.07275" lon="6.90899">
        <ele>904.4</ele>
        <time>2022-05-28T09:39:19Z</time>
      </trkpt>
      <trkpt lat="48.07286" lon="6.90894">
        <ele>905.8</ele>
        <time>2022-05-28T09:39:22Z</time>
      </trkpt>
      <trkpt lat="48.07294" lon="6.90886">
        <ele>905.5</ele>
        <time>2022-05-28T09:39:25Z</time>
      </trkpt>
      <trkpt lat="48.07302" lon="6.90876">
        <ele>903.9</ele>
        <time>2022-05-28T09:39:30Z</time>
      </trkpt>
      <trkpt lat="48.07302" lon="6.90861">
        <ele>905.1</ele>
        <time>2022-05-28T09:39:36Z</time>
      </trkpt>
      <trkpt lat="48.07294" lon="6.9085">
        <ele>906.8</ele>
        <time>2022-05-28T09:39:42Z</time>
      </trkpt>
      <trkpt lat="48.07287" lon="6.90842">
        <ele>908.9</ele>
        <time>2022-05-28T09:39:49Z</time>
      </trkpt>
      <trkpt lat="48.07279" lon="6.90833">
        <ele>910.3</ele>
        <time>2022-05-28T09:39:56Z</time>
      </trkpt>
      <trkpt lat="48.0727" lon="6.90825">
        <ele>912.5</ele>
        <time>2022-05-28T09:40:04Z</time>
      </trkpt>
      <trkpt lat="48.07263" lon="6.90815">
        <ele>914.5</ele>
        <time>2022-05-28T09:40:12Z</time>
      </trkpt>
      <trkpt lat="48.07253" lon="6.90812">
        <ele>916.7</ele>
        <time>2022-05-28T09:40:23Z</time>
      </trkpt>
      <trkpt lat="48.07243" lon="6.90814">
        <ele>917.9</ele>
        <time>2022-05-28T09:40:32Z</time>
      </trkpt>
      <trkpt lat="48.07233" lon="6.90817">
        <ele>920.2</ele>
        <time>2022-05-28T09:40:39Z</time>
      </trkpt>
      <trkpt lat="48.07224" lon="6.9082">
        <ele>921.5</ele>
        <time>2022-05-28T09:40:47Z</time>
      </trkpt>
      <trkpt lat="48.07214" lon="6.90821">
        <ele>923.9</ele>
        <time>2022-05-28T09:40:57Z</time>
      </trkpt>
      <trkpt lat="48.07204" lon="6.90823">
        <ele>924.7</ele>
        <time>2022-05-28T09:41:05Z</time>
      </trkpt>
      <trkpt lat="48.07195" lon="6.9082">
        <ele>926.3</ele>
        <time>2022-05-28T09:41:13Z</time>
      </trkpt>
      <trkpt lat="48.07185" lon="6.90817">
        <ele>928.1</ele>
        <time>2022-05-28T09:41:21Z</time>
      </trkpt>
      <trkpt lat="48.07175" lon="6.90813">
        <ele>929.5</ele>
        <time>2022-05-28T09:41:28Z</time>
      </trkpt>
      <trkpt lat="48.07165" lon="6.90809">
        <ele>931.2</ele>
        <time>2022-05-28T09:41:35Z</time>
      </trkpt>
      <trkpt lat="48.07157" lon="6.90803">
        <ele>932.7</ele>
        <time>2022-05-28T09:41:42Z</time>
      </trkpt>
      <trkpt lat="48.07148" lon="6.90795">
        <ele>934.5</ele>
        <time>2022-05-28T09:41:48Z</time>
      </trkpt>
      <trkpt lat="48.0714" lon="6.90789">
        <ele>935.8</ele>
        <time>2022-05-28T09:41:54Z</time>
      </trkpt>
      <trkpt lat="48.07133" lon="6.9078">
        <ele>937.3</ele>
        <time>2022-05-28T09:42:01Z</time>
      </trkpt>
      <trkpt lat="48.07126" lon="6.90769">
        <ele>938.5</ele>
        <time>2022-05-28T09:42:09Z</time>
      </trkpt>
      <trkpt lat="48.07121" lon="6.90757">
        <ele>939.7</ele>
        <time>2022-05-28T09:42:17Z</time>
      </trkpt>
      <trkpt lat="48.07115" lon="6.90746">
        <ele>941.6</ele>
        <time>2022-05-28T09:42:24Z</time>
      </trkpt>
      <trkpt lat="48.07108" lon="6.90736">
        <ele>942.6</ele>
        <time>2022-05-28T09:42:31Z</time>
      </trkpt>
      <trkpt lat="48.07101" lon="6.90726">
        <ele>945.2</ele>
        <time>2022-05-28T09:42:40Z</time>
      </trkpt>
      <trkpt lat="48.07094" lon="6.90717">
        <ele>947.2</ele>
        <time>2022-05-28T09:42:49Z</time>
      </trkpt>
      <trkpt lat="48.07089" lon="6.90704">
        <ele>949.6</ele>
        <time>2022-05-28T09:42:56Z</time>
      </trkpt>
      <trkpt lat="48.07087" lon="6.90691">
        <ele>951.3</ele>
        <time>2022-05-28T09:43:05Z</time>
      </trkpt>
      <trkpt lat="48.07083" lon="6.90678">
        <ele>952.6</ele>
        <time>2022-05-28T09:43:12Z</time>
      </trkpt>
      <trkpt lat="48.07078" lon="6.90666">
        <ele>954.6</ele>
        <time>2022-05-28T09:43:22Z</time>
      </trkpt>
      <trkpt lat="48.07071" lon="6.90655">
        <ele>956.7</ele>
        <time>2022-05-28T09:43:30Z</time>
      </trkpt>
      <trkpt lat="48.0707" lon="6.90655">
        <ele>956.6</ele>
        <time>2022-05-28T09:43:33Z</time>
      </trkpt>
      <trkpt lat="48.0707" lon="6.90654">
        <ele>956.8</ele>
        <time>2022-05-28T09:43:37Z</time>
      </trkpt>
      <trkpt lat="48.07064" lon="6.90641">
        <ele>959.1</ele>
        <time>2022-05-28T09:43:49Z</time>
      </trkpt>
      <trkpt lat="48.07064" lon="6.90628">
        <ele>961</ele>
        <time>2022-05-28T09:44:05Z</time>
      </trkpt>
      <trkpt lat="48.07066" lon="6.90628">
        <ele>961.2</ele>
        <time>2022-05-28T09:44:10Z</time>
      </trkpt>
      <trkpt lat="48.07065" lon="6.90628">
        <ele>961.8</ele>
        <time>2022-05-28T09:44:29Z</time>
      </trkpt>
      <trkpt lat="48.07065" lon="6.90627">
        <ele>962</ele>
        <time>2022-05-28T09:45:11Z</time>
      </trkpt>
      <trkpt lat="48.07064" lon="6.90625">
        <ele>962</ele>
        <time>2022-05-28T09:45:14Z</time>
      </trkpt>
      <trkpt lat="48.07065" lon="6.90625">
        <ele>962.3</ele>
        <time>2022-05-28T09:45:37Z</time>
      </trkpt>
      <trkpt lat="48.07074" lon="6.90619">
        <ele>962.6</ele>
        <time>2022-05-28T09:45:45Z</time>
      </trkpt>
      <trkpt lat="48.07084" lon="6.90621">
        <ele>964.3</ele>
        <time>2022-05-28T09:45:52Z</time>
      </trkpt>
      <trkpt lat="48.07095" lon="6.90622">
        <ele>964.7</ele>
        <time>2022-05-28T09:45:57Z</time>
      </trkpt>
      <trkpt lat="48.07104" lon="6.90619">
        <ele>964.7</ele>
        <time>2022-05-28T09:46:03Z</time>
      </trkpt>
      <trkpt lat="48.07112" lon="6.90615">
        <ele>965.6</ele>
        <time>2022-05-28T09:46:07Z</time>
      </trkpt>
      <trkpt lat="48.07121" lon="6.90609">
        <ele>965.9</ele>
        <time>2022-05-28T09:46:11Z</time>
      </trkpt>
      <trkpt lat="48.07129" lon="6.90602">
        <ele>965.9</ele>
        <time>2022-05-28T09:46:15Z</time>
      </trkpt>
      <trkpt lat="48.07139" lon="6.90594">
        <ele>965.7</ele>
        <time>2022-05-28T09:46:19Z</time>
      </trkpt>
      <trkpt lat="48.07149" lon="6.90585">
        <ele>965.7</ele>
        <time>2022-05-28T09:46:23Z</time>
      </trkpt>
      <trkpt lat="48.07159" lon="6.90575">
        <ele>966.2</ele>
        <time>2022-05-28T09:46:27Z</time>
      </trkpt>
      <trkpt lat="48.07166" lon="6.90563">
        <ele>965.8</ele>
        <time>2022-05-28T09:46:30Z</time>
      </trkpt>
      <trkpt lat="48.07171" lon="6.90552">
        <ele>965.5</ele>
        <time>2022-05-28T09:46:33Z</time>
      </trkpt>
      <trkpt lat="48.07174" lon="6.90537">
        <ele>965</ele>
        <time>2022-05-28T09:46:36Z</time>
      </trkpt>
      <trkpt lat="48.07177" lon="6.90521">
        <ele>966.1</ele>
        <time>2022-05-28T09:46:39Z</time>
      </trkpt>
      <trkpt lat="48.0718" lon="6.90509">
        <ele>967.3</ele>
        <time>2022-05-28T09:46:41Z</time>
      </trkpt>
      <trkpt lat="48.07183" lon="6.9049">
        <ele>966.3</ele>
        <time>2022-05-28T09:46:44Z</time>
      </trkpt>
      <trkpt lat="48.07184" lon="6.9047">
        <ele>965.6</ele>
        <time>2022-05-28T09:46:47Z</time>
      </trkpt>
      <trkpt lat="48.07186" lon="6.90452">
        <ele>966.5</ele>
        <time>2022-05-28T09:46:50Z</time>
      </trkpt>
      <trkpt lat="48.07186" lon="6.90433">
        <ele>965.6</ele>
        <time>2022-05-28T09:46:53Z</time>
      </trkpt>
      <trkpt lat="48.07186" lon="6.90415">
        <ele>965.4</ele>
        <time>2022-05-28T09:46:56Z</time>
      </trkpt>
      <trkpt lat="48.07185" lon="6.90402">
        <ele>965.1</ele>
        <time>2022-05-28T09:46:58Z</time>
      </trkpt>
      <trkpt lat="48.07184" lon="6.90388">
        <ele>964.4</ele>
        <time>2022-05-28T09:47:00Z</time>
      </trkpt>
      <trkpt lat="48.07181" lon="6.90374">
        <ele>963.4</ele>
        <time>2022-05-28T09:47:02Z</time>
      </trkpt>
      <trkpt lat="48.07179" lon="6.90361">
        <ele>965.3</ele>
        <time>2022-05-28T09:47:04Z</time>
      </trkpt>
      <trkpt lat="48.07176" lon="6.90348">
        <ele>965</ele>
        <time>2022-05-28T09:47:06Z</time>
      </trkpt>
      <trkpt lat="48.07172" lon="6.90334">
        <ele>964.9</ele>
        <time>2022-05-28T09:47:08Z</time>
      </trkpt>
      <trkpt lat="48.07169" lon="6.90319">
        <ele>965.4</ele>
        <time>2022-05-28T09:47:10Z</time>
      </trkpt>
      <trkpt lat="48.07164" lon="6.90303">
        <ele>962.5</ele>
        <time>2022-05-28T09:47:12Z</time>
      </trkpt>
      <trkpt lat="48.0716" lon="6.90288">
        <ele>962.6</ele>
        <time>2022-05-28T09:47:14Z</time>
      </trkpt>
      <trkpt lat="48.07156" lon="6.90273">
        <ele>963.2</ele>
        <time>2022-05-28T09:47:16Z</time>
      </trkpt>
      <trkpt lat="48.07152" lon="6.9026">
        <ele>963.4</ele>
        <time>2022-05-28T09:47:18Z</time>
      </trkpt>
      <trkpt lat="48.07149" lon="6.90247">
        <ele>965.1</ele>
        <time>2022-05-28T09:47:20Z</time>
      </trkpt>
      <trkpt lat="48.07145" lon="6.90234">
        <ele>964</ele>
        <time>2022-05-28T09:47:22Z</time>
      </trkpt>
      <trkpt lat="48.07141" lon="6.90221">
        <ele>963.5</ele>
        <time>2022-05-28T09:47:24Z</time>
      </trkpt>
      <trkpt lat="48.07138" lon="6.90209">
        <ele>963.9</ele>
        <time>2022-05-28T09:47:26Z</time>
      </trkpt>
      <trkpt lat="48.07132" lon="6.90197">
        <ele>964.5</ele>
        <time>2022-05-28T09:47:28Z</time>
      </trkpt>
      <trkpt lat="48.07123" lon="6.90191">
        <ele>965.8</ele>
        <time>2022-05-28T09:47:30Z</time>
      </trkpt>
      <trkpt lat="48.07112" lon="6.90193">
        <ele>966.1</ele>
        <time>2022-05-28T09:47:33Z</time>
      </trkpt>
      <trkpt lat="48.07103" lon="6.90198">
        <ele>967.1</ele>
        <time>2022-05-28T09:47:36Z</time>
      </trkpt>
      <trkpt lat="48.07094" lon="6.90203">
        <ele>968.4</ele>
        <time>2022-05-28T09:47:40Z</time>
      </trkpt>
      <trkpt lat="48.07085" lon="6.90207">
        <ele>969.5</ele>
        <time>2022-05-28T09:47:44Z</time>
      </trkpt>
      <trkpt lat="48.07076" lon="6.90212">
        <ele>971</ele>
        <time>2022-05-28T09:47:48Z</time>
      </trkpt>
      <trkpt lat="48.07066" lon="6.90218">
        <ele>971.6</ele>
        <time>2022-05-28T09:47:52Z</time>
      </trkpt>
      <trkpt lat="48.07057" lon="6.90225">
        <ele>972.4</ele>
        <time>2022-05-28T09:47:56Z</time>
      </trkpt>
      <trkpt lat="48.07049" lon="6.9023">
        <ele>973.9</ele>
        <time>2022-05-28T09:48:00Z</time>
      </trkpt>
      <trkpt lat="48.0704" lon="6.90234">
        <ele>973.9</ele>
        <time>2022-05-28T09:48:04Z</time>
      </trkpt>
      <trkpt lat="48.0703" lon="6.90237">
        <ele>974.1</ele>
        <time>2022-05-28T09:48:08Z</time>
      </trkpt>
      <trkpt lat="48.07021" lon="6.9024">
        <ele>974.4</ele>
        <time>2022-05-28T09:48:12Z</time>
      </trkpt>
      <trkpt lat="48.07011" lon="6.90245">
        <ele>974.8</ele>
        <time>2022-05-28T09:48:16Z</time>
      </trkpt>
      <trkpt lat="48.07002" lon="6.90251">
        <ele>973.9</ele>
        <time>2022-05-28T09:48:19Z</time>
      </trkpt>
      <trkpt lat="48.06994" lon="6.90259">
        <ele>973.7</ele>
        <time>2022-05-28T09:48:22Z</time>
      </trkpt>
      <trkpt lat="48.06985" lon="6.90267">
        <ele>972.9</ele>
        <time>2022-05-28T09:48:25Z</time>
      </trkpt>
      <trkpt lat="48.06976" lon="6.90275">
        <ele>973.6</ele>
        <time>2022-05-28T09:48:28Z</time>
      </trkpt>
      <trkpt lat="48.06966" lon="6.90282">
        <ele>973.8</ele>
        <time>2022-05-28T09:48:32Z</time>
      </trkpt>
      <trkpt lat="48.06956" lon="6.90288">
        <ele>972.4</ele>
        <time>2022-05-28T09:48:35Z</time>
      </trkpt>
      <trkpt lat="48.06943" lon="6.90293">
        <ele>971</ele>
        <time>2022-05-28T09:48:38Z</time>
      </trkpt>
      <trkpt lat="48.06933" lon="6.903">
        <ele>970.3</ele>
        <time>2022-05-28T09:48:40Z</time>
      </trkpt>
      <trkpt lat="48.06922" lon="6.9031">
        <ele>970.7</ele>
        <time>2022-05-28T09:48:42Z</time>
      </trkpt>
      <trkpt lat="48.06913" lon="6.90328">
        <ele>967.6</ele>
        <time>2022-05-28T09:48:44Z</time>
      </trkpt>
      <trkpt lat="48.06905" lon="6.90346">
        <ele>967.9</ele>
        <time>2022-05-28T09:48:46Z</time>
      </trkpt>
      <trkpt lat="48.06899" lon="6.90361">
        <ele>968.2</ele>
        <time>2022-05-28T09:48:48Z</time>
      </trkpt>
      <trkpt lat="48.06893" lon="6.90376">
        <ele>969.1</ele>
        <time>2022-05-28T09:48:50Z</time>
      </trkpt>
      <trkpt lat="48.06888" lon="6.9039">
        <ele>970.1</ele>
        <time>2022-05-28T09:48:52Z</time>
      </trkpt>
      <trkpt lat="48.06885" lon="6.90404">
        <ele>969.3</ele>
        <time>2022-05-28T09:48:54Z</time>
      </trkpt>
      <trkpt lat="48.0688" lon="6.90417">
        <ele>968.8</ele>
        <time>2022-05-28T09:48:56Z</time>
      </trkpt>
      <trkpt lat="48.06877" lon="6.90431">
        <ele>968.5</ele>
        <time>2022-05-28T09:48:58Z</time>
      </trkpt>
      <trkpt lat="48.06873" lon="6.90446">
        <ele>969.2</ele>
        <time>2022-05-28T09:49:00Z</time>
      </trkpt>
      <trkpt lat="48.0687" lon="6.90459">
        <ele>970</ele>
        <time>2022-05-28T09:49:02Z</time>
      </trkpt>
      <trkpt lat="48.06866" lon="6.90477">
        <ele>969.4</ele>
        <time>2022-05-28T09:49:05Z</time>
      </trkpt>
      <trkpt lat="48.06866" lon="6.90494">
        <ele>970.8</ele>
        <time>2022-05-28T09:49:08Z</time>
      </trkpt>
      <trkpt lat="48.06871" lon="6.90507">
        <ele>970.7</ele>
        <time>2022-05-28T09:49:11Z</time>
      </trkpt>
      <trkpt lat="48.06879" lon="6.90518">
        <ele>970.4</ele>
        <time>2022-05-28T09:49:14Z</time>
      </trkpt>
      <trkpt lat="48.06888" lon="6.90529">
        <ele>970.8</ele>
        <time>2022-05-28T09:49:17Z</time>
      </trkpt>
      <trkpt lat="48.06896" lon="6.9054">
        <ele>970.6</ele>
        <time>2022-05-28T09:49:20Z</time>
      </trkpt>
      <trkpt lat="48.06904" lon="6.9055">
        <ele>971.2</ele>
        <time>2022-05-28T09:49:23Z</time>
      </trkpt>
      <trkpt lat="48.06912" lon="6.90559">
        <ele>971.3</ele>
        <time>2022-05-28T09:49:26Z</time>
      </trkpt>
      <trkpt lat="48.06916" lon="6.90573">
        <ele>971.1</ele>
        <time>2022-05-28T09:49:29Z</time>
      </trkpt>
      <trkpt lat="48.06921" lon="6.90586">
        <ele>971.7</ele>
        <time>2022-05-28T09:49:32Z</time>
      </trkpt>
      <trkpt lat="48.06927" lon="6.90598">
        <ele>972.6</ele>
        <time>2022-05-28T09:49:35Z</time>
      </trkpt>
      <trkpt lat="48.06932" lon="6.9061">
        <ele>972.8</ele>
        <time>2022-05-28T09:49:38Z</time>
      </trkpt>
      <trkpt lat="48.06937" lon="6.90625">
        <ele>974</ele>
        <time>2022-05-28T09:49:42Z</time>
      </trkpt>
      <trkpt lat="48.06944" lon="6.90637">
        <ele>976.2</ele>
        <time>2022-05-28T09:49:45Z</time>
      </trkpt>
      <trkpt lat="48.06951" lon="6.9065">
        <ele>974.9</ele>
        <time>2022-05-28T09:49:48Z</time>
      </trkpt>
      <trkpt lat="48.06955" lon="6.90668">
        <ele>974.9</ele>
        <time>2022-05-28T09:49:51Z</time>
      </trkpt>
      <trkpt lat="48.0696" lon="6.90683">
        <ele>974.9</ele>
        <time>2022-05-28T09:49:54Z</time>
      </trkpt>
      <trkpt lat="48.06965" lon="6.907">
        <ele>973.7</ele>
        <time>2022-05-28T09:49:57Z</time>
      </trkpt>
      <trkpt lat="48.0697" lon="6.90716">
        <ele>974.8</ele>
        <time>2022-05-28T09:50:00Z</time>
      </trkpt>
      <trkpt lat="48.06975" lon="6.90729">
        <ele>974.5</ele>
        <time>2022-05-28T09:50:03Z</time>
      </trkpt>
      <trkpt lat="48.06977" lon="6.90744">
        <ele>974.6</ele>
        <time>2022-05-28T09:50:06Z</time>
      </trkpt>
      <trkpt lat="48.0698" lon="6.90758">
        <ele>973.3</ele>
        <time>2022-05-28T09:50:09Z</time>
      </trkpt>
      <trkpt lat="48.06983" lon="6.90775">
        <ele>973.1</ele>
        <time>2022-05-28T09:50:12Z</time>
      </trkpt>
      <trkpt lat="48.06979" lon="6.90793">
        <ele>974.6</ele>
        <time>2022-05-28T09:50:15Z</time>
      </trkpt>
      <trkpt lat="48.06974" lon="6.9081">
        <ele>974.7</ele>
        <time>2022-05-28T09:50:18Z</time>
      </trkpt>
      <trkpt lat="48.0697" lon="6.90822">
        <ele>976.5</ele>
        <time>2022-05-28T09:50:20Z</time>
      </trkpt>
      <trkpt lat="48.06963" lon="6.90837">
        <ele>976.3</ele>
        <time>2022-05-28T09:50:23Z</time>
      </trkpt>
      <trkpt lat="48.06956" lon="6.90851">
        <ele>978</ele>
        <time>2022-05-28T09:50:26Z</time>
      </trkpt>
      <trkpt lat="48.06951" lon="6.90863">
        <ele>978.5</ele>
        <time>2022-05-28T09:50:29Z</time>
      </trkpt>
      <trkpt lat="48.06943" lon="6.90873">
        <ele>977.4</ele>
        <time>2022-05-28T09:50:32Z</time>
      </trkpt>
      <trkpt lat="48.06936" lon="6.90884">
        <ele>979</ele>
        <time>2022-05-28T09:50:35Z</time>
      </trkpt>
      <trkpt lat="48.06928" lon="6.90895">
        <ele>980.7</ele>
        <time>2022-05-28T09:50:39Z</time>
      </trkpt>
      <trkpt lat="48.06921" lon="6.90907">
        <ele>980.2</ele>
        <time>2022-05-28T09:50:43Z</time>
      </trkpt>
      <trkpt lat="48.06913" lon="6.90919">
        <ele>982.6</ele>
        <time>2022-05-28T09:50:47Z</time>
      </trkpt>
      <trkpt lat="48.06904" lon="6.90929">
        <ele>982.6</ele>
        <time>2022-05-28T09:50:51Z</time>
      </trkpt>
      <trkpt lat="48.06895" lon="6.90938">
        <ele>983.5</ele>
        <time>2022-05-28T09:50:55Z</time>
      </trkpt>
      <trkpt lat="48.06886" lon="6.90945">
        <ele>984.7</ele>
        <time>2022-05-28T09:51:00Z</time>
      </trkpt>
      <trkpt lat="48.06878" lon="6.90954">
        <ele>986.7</ele>
        <time>2022-05-28T09:51:05Z</time>
      </trkpt>
      <trkpt lat="48.06869" lon="6.90962">
        <ele>987.5</ele>
        <time>2022-05-28T09:51:10Z</time>
      </trkpt>
      <trkpt lat="48.0686" lon="6.90969">
        <ele>989.3</ele>
        <time>2022-05-28T09:51:15Z</time>
      </trkpt>
      <trkpt lat="48.06851" lon="6.90976">
        <ele>989.9</ele>
        <time>2022-05-28T09:51:20Z</time>
      </trkpt>
      <trkpt lat="48.06842" lon="6.90983">
        <ele>990.8</ele>
        <time>2022-05-28T09:51:25Z</time>
      </trkpt>
      <trkpt lat="48.06833" lon="6.90992">
        <ele>993.1</ele>
        <time>2022-05-28T09:51:30Z</time>
      </trkpt>
      <trkpt lat="48.06824" lon="6.91002">
        <ele>994.4</ele>
        <time>2022-05-28T09:51:35Z</time>
      </trkpt>
      <trkpt lat="48.06816" lon="6.9101">
        <ele>994.2</ele>
        <time>2022-05-28T09:51:40Z</time>
      </trkpt>
      <trkpt lat="48.06808" lon="6.91017">
        <ele>995.7</ele>
        <time>2022-05-28T09:51:45Z</time>
      </trkpt>
      <trkpt lat="48.068" lon="6.91024">
        <ele>997.3</ele>
        <time>2022-05-28T09:51:50Z</time>
      </trkpt>
      <trkpt lat="48.06791" lon="6.91031">
        <ele>998.2</ele>
        <time>2022-05-28T09:51:55Z</time>
      </trkpt>
      <trkpt lat="48.06783" lon="6.91039">
        <ele>999.4</ele>
        <time>2022-05-28T09:52:00Z</time>
      </trkpt>
      <trkpt lat="48.06774" lon="6.91048">
        <ele>999.6</ele>
        <time>2022-05-28T09:52:05Z</time>
      </trkpt>
      <trkpt lat="48.06765" lon="6.91056">
        <ele>1001.3</ele>
        <time>2022-05-28T09:52:10Z</time>
      </trkpt>
      <trkpt lat="48.06756" lon="6.91064">
        <ele>1002.1</ele>
        <time>2022-05-28T09:52:15Z</time>
      </trkpt>
      <trkpt lat="48.06747" lon="6.91072">
        <ele>1002.8</ele>
        <time>2022-05-28T09:52:20Z</time>
      </trkpt>
      <trkpt lat="48.06738" lon="6.91079">
        <ele>1003.7</ele>
        <time>2022-05-28T09:52:25Z</time>
      </trkpt>
      <trkpt lat="48.06728" lon="6.91085">
        <ele>1004.6</ele>
        <time>2022-05-28T09:52:30Z</time>
      </trkpt>
      <trkpt lat="48.06719" lon="6.91089">
        <ele>1005.5</ele>
        <time>2022-05-28T09:52:35Z</time>
      </trkpt>
      <trkpt lat="48.06709" lon="6.91087">
        <ele>1006.1</ele>
        <time>2022-05-28T09:52:41Z</time>
      </trkpt>
      <trkpt lat="48.067" lon="6.91082">
        <ele>1006.3</ele>
        <time>2022-05-28T09:52:46Z</time>
      </trkpt>
      <trkpt lat="48.06691" lon="6.91078">
        <ele>1006.6</ele>
        <time>2022-05-28T09:52:50Z</time>
      </trkpt>
      <trkpt lat="48.06682" lon="6.91076">
        <ele>1007.8</ele>
        <time>2022-05-28T09:52:54Z</time>
      </trkpt>
      <trkpt lat="48.06672" lon="6.91071">
        <ele>1007.9</ele>
        <time>2022-05-28T09:52:58Z</time>
      </trkpt>
      <trkpt lat="48.06662" lon="6.91068">
        <ele>1007.1</ele>
        <time>2022-05-28T09:53:02Z</time>
      </trkpt>
      <trkpt lat="48.06653" lon="6.91067">
        <ele>1007.6</ele>
        <time>2022-05-28T09:53:06Z</time>
      </trkpt>
      <trkpt lat="48.06644" lon="6.91063">
        <ele>1007.2</ele>
        <time>2022-05-28T09:53:10Z</time>
      </trkpt>
      <trkpt lat="48.06635" lon="6.9106">
        <ele>1006.8</ele>
        <time>2022-05-28T09:53:13Z</time>
      </trkpt>
      <trkpt lat="48.06625" lon="6.9106">
        <ele>1005.7</ele>
        <time>2022-05-28T09:53:16Z</time>
      </trkpt>
      <trkpt lat="48.06614" lon="6.91057">
        <ele>1004.7</ele>
        <time>2022-05-28T09:53:19Z</time>
      </trkpt>
      <trkpt lat="48.06603" lon="6.91057">
        <ele>1004.4</ele>
        <time>2022-05-28T09:53:22Z</time>
      </trkpt>
      <trkpt lat="48.06593" lon="6.91068">
        <ele>1002.8</ele>
        <time>2022-05-28T09:53:25Z</time>
      </trkpt>
      <trkpt lat="48.06589" lon="6.91082">
        <ele>1003.3</ele>
        <time>2022-05-28T09:53:28Z</time>
      </trkpt>
      <trkpt lat="48.06585" lon="6.91099">
        <ele>1004</ele>
        <time>2022-05-28T09:53:32Z</time>
      </trkpt>
      <trkpt lat="48.06582" lon="6.91113">
        <ele>1004.9</ele>
        <time>2022-05-28T09:53:35Z</time>
      </trkpt>
      <trkpt lat="48.06577" lon="6.91128">
        <ele>1005.2</ele>
        <time>2022-05-28T09:53:38Z</time>
      </trkpt>
      <trkpt lat="48.06572" lon="6.91142">
        <ele>1006.4</ele>
        <time>2022-05-28T09:53:41Z</time>
      </trkpt>
      <trkpt lat="48.06567" lon="6.91156">
        <ele>1006.4</ele>
        <time>2022-05-28T09:53:44Z</time>
      </trkpt>
      <trkpt lat="48.06563" lon="6.91169">
        <ele>1006.9</ele>
        <time>2022-05-28T09:53:47Z</time>
      </trkpt>
      <trkpt lat="48.06558" lon="6.91182">
        <ele>1008.8</ele>
        <time>2022-05-28T09:53:50Z</time>
      </trkpt>
      <trkpt lat="48.06553" lon="6.91193">
        <ele>1007.8</ele>
        <time>2022-05-28T09:53:53Z</time>
      </trkpt>
      <trkpt lat="48.06546" lon="6.91203">
        <ele>1007.5</ele>
        <time>2022-05-28T09:53:56Z</time>
      </trkpt>
      <trkpt lat="48.0654" lon="6.91215">
        <ele>1008.3</ele>
        <time>2022-05-28T09:53:59Z</time>
      </trkpt>
      <trkpt lat="48.06531" lon="6.91226">
        <ele>1008</ele>
        <time>2022-05-28T09:54:02Z</time>
      </trkpt>
      <trkpt lat="48.06524" lon="6.91239">
        <ele>1007.3</ele>
        <time>2022-05-28T09:54:05Z</time>
      </trkpt>
      <trkpt lat="48.06518" lon="6.91252">
        <ele>1008.4</ele>
        <time>2022-05-28T09:54:08Z</time>
      </trkpt>
      <trkpt lat="48.06511" lon="6.91265">
        <ele>1008.5</ele>
        <time>2022-05-28T09:54:11Z</time>
      </trkpt>
      <trkpt lat="48.06506" lon="6.91279">
        <ele>1008.5</ele>
        <time>2022-05-28T09:54:14Z</time>
      </trkpt>
      <trkpt lat="48.065" lon="6.91293">
        <ele>1010.7</ele>
        <time>2022-05-28T09:54:17Z</time>
      </trkpt>
      <trkpt lat="48.06492" lon="6.91304">
        <ele>1009.2</ele>
        <time>2022-05-28T09:54:20Z</time>
      </trkpt>
      <trkpt lat="48.06484" lon="6.91315">
        <ele>1010.2</ele>
        <time>2022-05-28T09:54:23Z</time>
      </trkpt>
      <trkpt lat="48.06477" lon="6.91327">
        <ele>1011.7</ele>
        <time>2022-05-28T09:54:26Z</time>
      </trkpt>
      <trkpt lat="48.06471" lon="6.91341">
        <ele>1010.9</ele>
        <time>2022-05-28T09:54:29Z</time>
      </trkpt>
      <trkpt lat="48.06465" lon="6.91356">
        <ele>1011.6</ele>
        <time>2022-05-28T09:54:32Z</time>
      </trkpt>
      <trkpt lat="48.0646" lon="6.9137">
        <ele>1011.5</ele>
        <time>2022-05-28T09:54:35Z</time>
      </trkpt>
      <trkpt lat="48.06454" lon="6.91385">
        <ele>1011.6</ele>
        <time>2022-05-28T09:54:38Z</time>
      </trkpt>
      <trkpt lat="48.0645" lon="6.91401">
        <ele>1011.6</ele>
        <time>2022-05-28T09:54:41Z</time>
      </trkpt>
      <trkpt lat="48.06445" lon="6.91417">
        <ele>1012</ele>
        <time>2022-05-28T09:54:44Z</time>
      </trkpt>
      <trkpt lat="48.06443" lon="6.91435">
        <ele>1012.7</ele>
        <time>2022-05-28T09:54:47Z</time>
      </trkpt>
      <trkpt lat="48.06442" lon="6.91451">
        <ele>1013.1</ele>
        <time>2022-05-28T09:54:50Z</time>
      </trkpt>
      <trkpt lat="48.06441" lon="6.91469">
        <ele>1011.7</ele>
        <time>2022-05-28T09:54:53Z</time>
      </trkpt>
      <trkpt lat="48.06439" lon="6.91489">
        <ele>1011.9</ele>
        <time>2022-05-28T09:54:56Z</time>
      </trkpt>
      <trkpt lat="48.06438" lon="6.91502">
        <ele>1010.5</ele>
        <time>2022-05-28T09:54:58Z</time>
      </trkpt>
      <trkpt lat="48.06436" lon="6.91515">
        <ele>1011.1</ele>
        <time>2022-05-28T09:55:00Z</time>
      </trkpt>
      <trkpt lat="48.06433" lon="6.9153">
        <ele>1010.4</ele>
        <time>2022-05-28T09:55:02Z</time>
      </trkpt>
      <trkpt lat="48.06428" lon="6.91542">
        <ele>1009.8</ele>
        <time>2022-05-28T09:55:04Z</time>
      </trkpt>
      <trkpt lat="48.06423" lon="6.91555">
        <ele>1011.1</ele>
        <time>2022-05-28T09:55:06Z</time>
      </trkpt>
      <trkpt lat="48.06416" lon="6.91572">
        <ele>1009.7</ele>
        <time>2022-05-28T09:55:09Z</time>
      </trkpt>
      <trkpt lat="48.06409" lon="6.91588">
        <ele>1010.4</ele>
        <time>2022-05-28T09:55:12Z</time>
      </trkpt>
      <trkpt lat="48.06401" lon="6.91602">
        <ele>1010.4</ele>
        <time>2022-05-28T09:55:15Z</time>
      </trkpt>
      <trkpt lat="48.06391" lon="6.91613">
        <ele>1010.3</ele>
        <time>2022-05-28T09:55:18Z</time>
      </trkpt>
      <trkpt lat="48.06381" lon="6.91624">
        <ele>1011.3</ele>
        <time>2022-05-28T09:55:21Z</time>
      </trkpt>
      <trkpt lat="48.06371" lon="6.91637">
        <ele>1009</ele>
        <time>2022-05-28T09:55:24Z</time>
      </trkpt>
      <trkpt lat="48.06361" lon="6.91644">
        <ele>1009.5</ele>
        <time>2022-05-28T09:55:27Z</time>
      </trkpt>
      <trkpt lat="48.0635" lon="6.91641">
        <ele>1009.1</ele>
        <time>2022-05-28T09:55:30Z</time>
      </trkpt>
      <trkpt lat="48.06341" lon="6.91631">
        <ele>1006.5</ele>
        <time>2022-05-28T09:55:33Z</time>
      </trkpt>
      <trkpt lat="48.06334" lon="6.91622">
        <ele>1007.4</ele>
        <time>2022-05-28T09:55:35Z</time>
      </trkpt>
      <trkpt lat="48.06327" lon="6.91612">
        <ele>1008.1</ele>
        <time>2022-05-28T09:55:37Z</time>
      </trkpt>
      <trkpt lat="48.06321" lon="6.916">
        <ele>1007.6</ele>
        <time>2022-05-28T09:55:39Z</time>
      </trkpt>
      <trkpt lat="48.06318" lon="6.91585">
        <ele>1006.5</ele>
        <time>2022-05-28T09:55:41Z</time>
      </trkpt>
      <trkpt lat="48.06315" lon="6.91571">
        <ele>1005.6</ele>
        <time>2022-05-28T09:55:43Z</time>
      </trkpt>
      <trkpt lat="48.06314" lon="6.91557">
        <ele>1004.4</ele>
        <time>2022-05-28T09:55:45Z</time>
      </trkpt>
      <trkpt lat="48.06315" lon="6.91542">
        <ele>1002.4</ele>
        <time>2022-05-28T09:55:47Z</time>
      </trkpt>
      <trkpt lat="48.06313" lon="6.91523">
        <ele>1002.6</ele>
        <time>2022-05-28T09:55:50Z</time>
      </trkpt>
      <trkpt lat="48.06304" lon="6.91517">
        <ele>1002.4</ele>
        <time>2022-05-28T09:55:52Z</time>
      </trkpt>
      <trkpt lat="48.06295" lon="6.91525">
        <ele>1002.6</ele>
        <time>2022-05-28T09:55:55Z</time>
      </trkpt>
      <trkpt lat="48.06289" lon="6.91539">
        <ele>1003.9</ele>
        <time>2022-05-28T09:55:59Z</time>
      </trkpt>
      <trkpt lat="48.06286" lon="6.91557">
        <ele>1004.1</ele>
        <time>2022-05-28T09:56:03Z</time>
      </trkpt>
      <trkpt lat="48.06282" lon="6.91575">
        <ele>1003.4</ele>
        <time>2022-05-28T09:56:06Z</time>
      </trkpt>
      <trkpt lat="48.06279" lon="6.9159">
        <ele>1004.3</ele>
        <time>2022-05-28T09:56:09Z</time>
      </trkpt>
      <trkpt lat="48.06272" lon="6.91601">
        <ele>1004.5</ele>
        <time>2022-05-28T09:56:12Z</time>
      </trkpt>
      <trkpt lat="48.06265" lon="6.91614">
        <ele>1005.2</ele>
        <time>2022-05-28T09:56:15Z</time>
      </trkpt>
      <trkpt lat="48.06259" lon="6.91628">
        <ele>1004.9</ele>
        <time>2022-05-28T09:56:18Z</time>
      </trkpt>
      <trkpt lat="48.06252" lon="6.91638">
        <ele>1005.4</ele>
        <time>2022-05-28T09:56:21Z</time>
      </trkpt>
      <trkpt lat="48.06244" lon="6.91646">
        <ele>1006.4</ele>
        <time>2022-05-28T09:56:24Z</time>
      </trkpt>
      <trkpt lat="48.06236" lon="6.91653">
        <ele>1007</ele>
        <time>2022-05-28T09:56:27Z</time>
      </trkpt>
      <trkpt lat="48.06227" lon="6.91657">
        <ele>1007.5</ele>
        <time>2022-05-28T09:56:30Z</time>
      </trkpt>
      <trkpt lat="48.06217" lon="6.91663">
        <ele>1008.3</ele>
        <time>2022-05-28T09:56:34Z</time>
      </trkpt>
      <trkpt lat="48.06206" lon="6.91667">
        <ele>1009.3</ele>
        <time>2022-05-28T09:56:38Z</time>
      </trkpt>
      <trkpt lat="48.06194" lon="6.91672">
        <ele>1009.7</ele>
        <time>2022-05-28T09:56:42Z</time>
      </trkpt>
      <trkpt lat="48.06185" lon="6.91674">
        <ele>1010.6</ele>
        <time>2022-05-28T09:56:46Z</time>
      </trkpt>
      <trkpt lat="48.06175" lon="6.91679">
        <ele>1011.4</ele>
        <time>2022-05-28T09:56:50Z</time>
      </trkpt>
      <trkpt lat="48.06167" lon="6.91685">
        <ele>1012.9</ele>
        <time>2022-05-28T09:56:54Z</time>
      </trkpt>
      <trkpt lat="48.06156" lon="6.91689">
        <ele>1013.4</ele>
        <time>2022-05-28T09:56:58Z</time>
      </trkpt>
      <trkpt lat="48.06148" lon="6.91698">
        <ele>1014.2</ele>
        <time>2022-05-28T09:57:02Z</time>
      </trkpt>
      <trkpt lat="48.06142" lon="6.9171">
        <ele>1015.9</ele>
        <time>2022-05-28T09:57:06Z</time>
      </trkpt>
      <trkpt lat="48.06136" lon="6.91722">
        <ele>1015</ele>
        <time>2022-05-28T09:57:10Z</time>
      </trkpt>
      <trkpt lat="48.06128" lon="6.91733">
        <ele>1015.9</ele>
        <time>2022-05-28T09:57:14Z</time>
      </trkpt>
      <trkpt lat="48.06117" lon="6.91738">
        <ele>1015.7</ele>
        <time>2022-05-28T09:57:18Z</time>
      </trkpt>
      <trkpt lat="48.06107" lon="6.91741">
        <ele>1016.6</ele>
        <time>2022-05-28T09:57:22Z</time>
      </trkpt>
      <trkpt lat="48.06098" lon="6.91744">
        <ele>1017.5</ele>
        <time>2022-05-28T09:57:25Z</time>
      </trkpt>
      <trkpt lat="48.06088" lon="6.91748">
        <ele>1017.5</ele>
        <time>2022-05-28T09:57:28Z</time>
      </trkpt>
      <trkpt lat="48.06079" lon="6.91752">
        <ele>1018.2</ele>
        <time>2022-05-28T09:57:31Z</time>
      </trkpt>
      <trkpt lat="48.06068" lon="6.91754">
        <ele>1018.1</ele>
        <time>2022-05-28T09:57:35Z</time>
      </trkpt>
      <trkpt lat="48.06056" lon="6.91753">
        <ele>1019.6</ele>
        <time>2022-05-28T09:57:39Z</time>
      </trkpt>
      <trkpt lat="48.06047" lon="6.91752">
        <ele>1019.6</ele>
        <time>2022-05-28T09:57:42Z</time>
      </trkpt>
      <trkpt lat="48.06037" lon="6.91751">
        <ele>1020.2</ele>
        <time>2022-05-28T09:57:45Z</time>
      </trkpt>
      <trkpt lat="48.06027" lon="6.91752">
        <ele>1019.3</ele>
        <time>2022-05-28T09:57:48Z</time>
      </trkpt>
      <trkpt lat="48.06018" lon="6.91753">
        <ele>1019.5</ele>
        <time>2022-05-28T09:57:51Z</time>
      </trkpt>
      <trkpt lat="48.06008" lon="6.91754">
        <ele>1020</ele>
        <time>2022-05-28T09:57:54Z</time>
      </trkpt>
      <trkpt lat="48.05997" lon="6.91752">
        <ele>1020</ele>
        <time>2022-05-28T09:57:57Z</time>
      </trkpt>
      <trkpt lat="48.05986" lon="6.9175">
        <ele>1020.3</ele>
        <time>2022-05-28T09:58:00Z</time>
      </trkpt>
      <trkpt lat="48.05973" lon="6.91749">
        <ele>1019.2</ele>
        <time>2022-05-28T09:58:03Z</time>
      </trkpt>
      <trkpt lat="48.05964" lon="6.91748">
        <ele>1020</ele>
        <time>2022-05-28T09:58:05Z</time>
      </trkpt>
      <trkpt lat="48.05951" lon="6.91746">
        <ele>1019.7</ele>
        <time>2022-05-28T09:58:08Z</time>
      </trkpt>
      <trkpt lat="48.05939" lon="6.91746">
        <ele>1020.3</ele>
        <time>2022-05-28T09:58:11Z</time>
      </trkpt>
      <trkpt lat="48.05927" lon="6.91745">
        <ele>1021.5</ele>
        <time>2022-05-28T09:58:14Z</time>
      </trkpt>
      <trkpt lat="48.05916" lon="6.9174">
        <ele>1018.6</ele>
        <time>2022-05-28T09:58:17Z</time>
      </trkpt>
      <trkpt lat="48.05903" lon="6.91735">
        <ele>1019.9</ele>
        <time>2022-05-28T09:58:20Z</time>
      </trkpt>
      <trkpt lat="48.05894" lon="6.91732">
        <ele>1019.8</ele>
        <time>2022-05-28T09:58:22Z</time>
      </trkpt>
      <trkpt lat="48.05881" lon="6.91727">
        <ele>1020.1</ele>
        <time>2022-05-28T09:58:25Z</time>
      </trkpt>
      <trkpt lat="48.0587" lon="6.91723">
        <ele>1022</ele>
        <time>2022-05-28T09:58:28Z</time>
      </trkpt>
      <trkpt lat="48.0586" lon="6.91719">
        <ele>1023</ele>
        <time>2022-05-28T09:58:31Z</time>
      </trkpt>
      <trkpt lat="48.0585" lon="6.91715">
        <ele>1023.7</ele>
        <time>2022-05-28T09:58:34Z</time>
      </trkpt>
      <trkpt lat="48.05839" lon="6.9171">
        <ele>1022.3</ele>
        <time>2022-05-28T09:58:37Z</time>
      </trkpt>
      <trkpt lat="48.05827" lon="6.91702">
        <ele>1020.1</ele>
        <time>2022-05-28T09:58:40Z</time>
      </trkpt>
      <trkpt lat="48.05818" lon="6.91696">
        <ele>1021.7</ele>
        <time>2022-05-28T09:58:42Z</time>
      </trkpt>
      <trkpt lat="48.05806" lon="6.9169">
        <ele>1022.6</ele>
        <time>2022-05-28T09:58:45Z</time>
      </trkpt>
      <trkpt lat="48.05797" lon="6.91688">
        <ele>1023.2</ele>
        <time>2022-05-28T09:58:48Z</time>
      </trkpt>
      <trkpt lat="48.05787" lon="6.91686">
        <ele>1024.3</ele>
        <time>2022-05-28T09:58:51Z</time>
      </trkpt>
      <trkpt lat="48.05778" lon="6.91686">
        <ele>1026.2</ele>
        <time>2022-05-28T09:58:54Z</time>
      </trkpt>
      <trkpt lat="48.05768" lon="6.91686">
        <ele>1027</ele>
        <time>2022-05-28T09:58:57Z</time>
      </trkpt>
      <trkpt lat="48.05756" lon="6.91685">
        <ele>1027.7</ele>
        <time>2022-05-28T09:59:01Z</time>
      </trkpt>
      <trkpt lat="48.05747" lon="6.91681">
        <ele>1027.9</ele>
        <time>2022-05-28T09:59:05Z</time>
      </trkpt>
      <trkpt lat="48.05738" lon="6.9168">
        <ele>1029.4</ele>
        <time>2022-05-28T09:59:09Z</time>
      </trkpt>
      <trkpt lat="48.05727" lon="6.91677">
        <ele>1030.4</ele>
        <time>2022-05-28T09:59:13Z</time>
      </trkpt>
      <trkpt lat="48.05715" lon="6.91673">
        <ele>1031.3</ele>
        <time>2022-05-28T09:59:17Z</time>
      </trkpt>
      <trkpt lat="48.05705" lon="6.91677">
        <ele>1032.6</ele>
        <time>2022-05-28T09:59:21Z</time>
      </trkpt>
      <trkpt lat="48.05696" lon="6.91684">
        <ele>1032.6</ele>
        <time>2022-05-28T09:59:24Z</time>
      </trkpt>
      <trkpt lat="48.05687" lon="6.91682">
        <ele>1032.2</ele>
        <time>2022-05-28T09:59:34Z</time>
      </trkpt>
      <trkpt lat="48.05677" lon="6.91679">
        <ele>1030.2</ele>
        <time>2022-05-28T09:59:39Z</time>
      </trkpt>
      <trkpt lat="48.05666" lon="6.9168">
        <ele>1028.1</ele>
        <time>2022-05-28T09:59:44Z</time>
      </trkpt>
      <trkpt lat="48.05656" lon="6.91682">
        <ele>1026.7</ele>
        <time>2022-05-28T09:59:48Z</time>
      </trkpt>
      <trkpt lat="48.05647" lon="6.91686">
        <ele>1025</ele>
        <time>2022-05-28T09:59:51Z</time>
      </trkpt>
      <trkpt lat="48.05636" lon="6.91684">
        <ele>1024.5</ele>
        <time>2022-05-28T09:59:54Z</time>
      </trkpt>
      <trkpt lat="48.05624" lon="6.91677">
        <ele>1023.2</ele>
        <time>2022-05-28T09:59:57Z</time>
      </trkpt>
      <trkpt lat="48.05611" lon="6.91682">
        <ele>1021</ele>
        <time>2022-05-28T10:00:00Z</time>
      </trkpt>
      <trkpt lat="48.05605" lon="6.91692">
        <ele>1020.2</ele>
        <time>2022-05-28T10:00:02Z</time>
      </trkpt>
      <trkpt lat="48.05596" lon="6.91706">
        <ele>1018.6</ele>
        <time>2022-05-28T10:00:04Z</time>
      </trkpt>
      <trkpt lat="48.05589" lon="6.91722">
        <ele>1016.8</ele>
        <time>2022-05-28T10:00:06Z</time>
      </trkpt>
      <trkpt lat="48.05582" lon="6.91739">
        <ele>1016.5</ele>
        <time>2022-05-28T10:00:08Z</time>
      </trkpt>
      <trkpt lat="48.05577" lon="6.91757">
        <ele>1015.7</ele>
        <time>2022-05-28T10:00:10Z</time>
      </trkpt>
      <trkpt lat="48.05572" lon="6.91777">
        <ele>1015.1</ele>
        <time>2022-05-28T10:00:12Z</time>
      </trkpt>
      <trkpt lat="48.0557" lon="6.91793">
        <ele>1013</ele>
        <time>2022-05-28T10:00:14Z</time>
      </trkpt>
      <trkpt lat="48.05566" lon="6.91806">
        <ele>1013</ele>
        <time>2022-05-28T10:00:16Z</time>
      </trkpt>
      <trkpt lat="48.05561" lon="6.91822">
        <ele>1011.3</ele>
        <time>2022-05-28T10:00:18Z</time>
      </trkpt>
      <trkpt lat="48.05556" lon="6.91836">
        <ele>1013.2</ele>
        <time>2022-05-28T10:00:20Z</time>
      </trkpt>
      <trkpt lat="48.0555" lon="6.9185">
        <ele>1014.1</ele>
        <time>2022-05-28T10:00:23Z</time>
      </trkpt>
      <trkpt lat="48.05539" lon="6.91853">
        <ele>1008.9</ele>
        <time>2022-05-28T10:00:27Z</time>
      </trkpt>
      <trkpt lat="48.0553" lon="6.9185">
        <ele>1010.8</ele>
        <time>2022-05-28T10:00:30Z</time>
      </trkpt>
      <trkpt lat="48.05522" lon="6.91844">
        <ele>1008.9</ele>
        <time>2022-05-28T10:00:32Z</time>
      </trkpt>
      <trkpt lat="48.0551" lon="6.91838">
        <ele>1007.5</ele>
        <time>2022-05-28T10:00:35Z</time>
      </trkpt>
      <trkpt lat="48.055" lon="6.91843">
        <ele>1006.2</ele>
        <time>2022-05-28T10:00:39Z</time>
      </trkpt>
      <trkpt lat="48.05494" lon="6.91854">
        <ele>1006.2</ele>
        <time>2022-05-28T10:00:42Z</time>
      </trkpt>
      <trkpt lat="48.05485" lon="6.9186">
        <ele>1002.9</ele>
        <time>2022-05-28T10:00:45Z</time>
      </trkpt>
      <trkpt lat="48.05474" lon="6.91852">
        <ele>1000.5</ele>
        <time>2022-05-28T10:00:48Z</time>
      </trkpt>
      <trkpt lat="48.05467" lon="6.91835">
        <ele>999</ele>
        <time>2022-05-28T10:00:51Z</time>
      </trkpt>
      <trkpt lat="48.05462" lon="6.91819">
        <ele>998.3</ele>
        <time>2022-05-28T10:00:53Z</time>
      </trkpt>
      <trkpt lat="48.05453" lon="6.91804">
        <ele>994</ele>
        <time>2022-05-28T10:00:55Z</time>
      </trkpt>
      <trkpt lat="48.05441" lon="6.91792">
        <ele>991.7</ele>
        <time>2022-05-28T10:00:57Z</time>
      </trkpt>
      <trkpt lat="48.05432" lon="6.91785">
        <ele>990.9</ele>
        <time>2022-05-28T10:00:58Z</time>
      </trkpt>
      <trkpt lat="48.05423" lon="6.91779">
        <ele>987.7</ele>
        <time>2022-05-28T10:00:59Z</time>
      </trkpt>
      <trkpt lat="48.05413" lon="6.91772">
        <ele>984.6</ele>
        <time>2022-05-28T10:01:00Z</time>
      </trkpt>
      <trkpt lat="48.05398" lon="6.91761">
        <ele>987.7</ele>
        <time>2022-05-28T10:01:02Z</time>
      </trkpt>
      <trkpt lat="48.05388" lon="6.91749">
        <ele>987.9</ele>
        <time>2022-05-28T10:01:04Z</time>
      </trkpt>
      <trkpt lat="48.05385" lon="6.91736">
        <ele>987.1</ele>
        <time>2022-05-28T10:01:06Z</time>
      </trkpt>
      <trkpt lat="48.05389" lon="6.91721">
        <ele>986.4</ele>
        <time>2022-05-28T10:01:08Z</time>
      </trkpt>
      <trkpt lat="48.05396" lon="6.91703">
        <ele>986.7</ele>
        <time>2022-05-28T10:01:11Z</time>
      </trkpt>
      <trkpt lat="48.05402" lon="6.91689">
        <ele>982.6</ele>
        <time>2022-05-28T10:01:14Z</time>
      </trkpt>
      <trkpt lat="48.05406" lon="6.91671">
        <ele>985.6</ele>
        <time>2022-05-28T10:01:17Z</time>
      </trkpt>
      <trkpt lat="48.05408" lon="6.91655">
        <ele>983.4</ele>
        <time>2022-05-28T10:01:20Z</time>
      </trkpt>
      <trkpt lat="48.05413" lon="6.91634">
        <ele>981.5</ele>
        <time>2022-05-28T10:01:23Z</time>
      </trkpt>
      <trkpt lat="48.05414" lon="6.9162">
        <ele>980.5</ele>
        <time>2022-05-28T10:01:25Z</time>
      </trkpt>
      <trkpt lat="48.0542" lon="6.91603">
        <ele>978.2</ele>
        <time>2022-05-28T10:01:28Z</time>
      </trkpt>
      <trkpt lat="48.05424" lon="6.91586">
        <ele>980.4</ele>
        <time>2022-05-28T10:01:31Z</time>
      </trkpt>
      <trkpt lat="48.05426" lon="6.91573">
        <ele>977.1</ele>
        <time>2022-05-28T10:01:33Z</time>
      </trkpt>
      <trkpt lat="48.0543" lon="6.91556">
        <ele>976.7</ele>
        <time>2022-05-28T10:01:36Z</time>
      </trkpt>
      <trkpt lat="48.05433" lon="6.91539">
        <ele>975.7</ele>
        <time>2022-05-28T10:01:39Z</time>
      </trkpt>
      <trkpt lat="48.05438" lon="6.91524">
        <ele>977</ele>
        <time>2022-05-28T10:01:42Z</time>
      </trkpt>
      <trkpt lat="48.05442" lon="6.91506">
        <ele>973.9</ele>
        <time>2022-05-28T10:01:44Z</time>
      </trkpt>
      <trkpt lat="48.05448" lon="6.91484">
        <ele>973.9</ele>
        <time>2022-05-28T10:01:46Z</time>
      </trkpt>
      <trkpt lat="48.05455" lon="6.91465">
        <ele>971.6</ele>
        <time>2022-05-28T10:01:48Z</time>
      </trkpt>
      <trkpt lat="48.05463" lon="6.91447">
        <ele>969.3</ele>
        <time>2022-05-28T10:01:50Z</time>
      </trkpt>
      <trkpt lat="48.05472" lon="6.91431">
        <ele>967.3</ele>
        <time>2022-05-28T10:01:52Z</time>
      </trkpt>
      <trkpt lat="48.05481" lon="6.91418">
        <ele>972.2</ele>
        <time>2022-05-28T10:01:54Z</time>
      </trkpt>
      <trkpt lat="48.05488" lon="6.91407">
        <ele>972.4</ele>
        <time>2022-05-28T10:01:56Z</time>
      </trkpt>
      <trkpt lat="48.05497" lon="6.91399">
        <ele>968.2</ele>
        <time>2022-05-28T10:01:58Z</time>
      </trkpt>
      <trkpt lat="48.05506" lon="6.91387">
        <ele>969.8</ele>
        <time>2022-05-28T10:02:00Z</time>
      </trkpt>
      <trkpt lat="48.05518" lon="6.91377">
        <ele>964.8</ele>
        <time>2022-05-28T10:02:02Z</time>
      </trkpt>
      <trkpt lat="48.05531" lon="6.91367">
        <ele>967.2</ele>
        <time>2022-05-28T10:02:04Z</time>
      </trkpt>
      <trkpt lat="48.05542" lon="6.91356">
        <ele>966.5</ele>
        <time>2022-05-28T10:02:06Z</time>
      </trkpt>
      <trkpt lat="48.05553" lon="6.91343">
        <ele>963.8</ele>
        <time>2022-05-28T10:02:08Z</time>
      </trkpt>
      <trkpt lat="48.05565" lon="6.9133">
        <ele>964.7</ele>
        <time>2022-05-28T10:02:10Z</time>
      </trkpt>
      <trkpt lat="48.05577" lon="6.91318">
        <ele>965.5</ele>
        <time>2022-05-28T10:02:12Z</time>
      </trkpt>
      <trkpt lat="48.05584" lon="6.91308">
        <ele>964.8</ele>
        <time>2022-05-28T10:02:14Z</time>
      </trkpt>
      <trkpt lat="48.05589" lon="6.91298">
        <ele>962.7</ele>
        <time>2022-05-28T10:02:17Z</time>
      </trkpt>
      <trkpt lat="48.05587" lon="6.9129">
        <ele>962.7</ele>
        <time>2022-05-28T10:02:22Z</time>
      </trkpt>
      <trkpt lat="48.05586" lon="6.9129">
        <ele>963</ele>
        <time>2022-05-28T10:02:35Z</time>
      </trkpt>
      <trkpt lat="48.05587" lon="6.9129">
        <ele>963.2</ele>
        <time>2022-05-28T10:02:51Z</time>
      </trkpt>
      <trkpt lat="48.05596" lon="6.9128">
        <ele>960.9</ele>
        <time>2022-05-28T10:02:56Z</time>
      </trkpt>
      <trkpt lat="48.05603" lon="6.91273">
        <ele>961.9</ele>
        <time>2022-05-28T10:03:00Z</time>
      </trkpt>
      <trkpt lat="48.05612" lon="6.91264">
        <ele>959</ele>
        <time>2022-05-28T10:03:07Z</time>
      </trkpt>
      <trkpt lat="48.05621" lon="6.91257">
        <ele>959.7</ele>
        <time>2022-05-28T10:03:09Z</time>
      </trkpt>
      <trkpt lat="48.0563" lon="6.9125">
        <ele>956.1</ele>
        <time>2022-05-28T10:03:11Z</time>
      </trkpt>
      <trkpt lat="48.05639" lon="6.9124">
        <ele>953.3</ele>
        <time>2022-05-28T10:03:13Z</time>
      </trkpt>
      <trkpt lat="48.05647" lon="6.91228">
        <ele>952.1</ele>
        <time>2022-05-28T10:03:15Z</time>
      </trkpt>
      <trkpt lat="48.05655" lon="6.91218">
        <ele>954.3</ele>
        <time>2022-05-28T10:03:17Z</time>
      </trkpt>
      <trkpt lat="48.05662" lon="6.91209">
        <ele>952.4</ele>
        <time>2022-05-28T10:03:21Z</time>
      </trkpt>
      <trkpt lat="48.05653" lon="6.91203">
        <ele>950.1</ele>
        <time>2022-05-28T10:03:25Z</time>
      </trkpt>
      <trkpt lat="48.05642" lon="6.91206">
        <ele>950.5</ele>
        <time>2022-05-28T10:03:28Z</time>
      </trkpt>
      <trkpt lat="48.05631" lon="6.91203">
        <ele>947.9</ele>
        <time>2022-05-28T10:03:31Z</time>
      </trkpt>
      <trkpt lat="48.0562" lon="6.91196">
        <ele>946.4</ele>
        <time>2022-05-28T10:03:34Z</time>
      </trkpt>
      <trkpt lat="48.05611" lon="6.91191">
        <ele>946.7</ele>
        <time>2022-05-28T10:03:36Z</time>
      </trkpt>
      <trkpt lat="48.05602" lon="6.91185">
        <ele>946</ele>
        <time>2022-05-28T10:03:39Z</time>
      </trkpt>
      <trkpt lat="48.05608" lon="6.91173">
        <ele>945.8</ele>
        <time>2022-05-28T10:03:45Z</time>
      </trkpt>
      <trkpt lat="48.05602" lon="6.91161">
        <ele>943.7</ele>
        <time>2022-05-28T10:03:49Z</time>
      </trkpt>
      <trkpt lat="48.05597" lon="6.91148">
        <ele>941.6</ele>
        <time>2022-05-28T10:03:53Z</time>
      </trkpt>
      <trkpt lat="48.05591" lon="6.91133">
        <ele>942.4</ele>
        <time>2022-05-28T10:03:56Z</time>
      </trkpt>
      <trkpt lat="48.05581" lon="6.91125">
        <ele>941.4</ele>
        <time>2022-05-28T10:04:00Z</time>
      </trkpt>
      <trkpt lat="48.05574" lon="6.91116">
        <ele>942</ele>
        <time>2022-05-28T10:04:05Z</time>
      </trkpt>
      <trkpt lat="48.05567" lon="6.91106">
        <ele>943.6</ele>
        <time>2022-05-28T10:04:11Z</time>
      </trkpt>
      <trkpt lat="48.05565" lon="6.91092">
        <ele>944.2</ele>
        <time>2022-05-28T10:04:19Z</time>
      </trkpt>
      <trkpt lat="48.0556" lon="6.91098">
        <ele>944.6</ele>
        <time>2022-05-28T10:04:30Z</time>
      </trkpt>
      <trkpt lat="48.05561" lon="6.91098">
        <ele>944.8</ele>
        <time>2022-05-28T10:04:50Z</time>
      </trkpt>
      <trkpt lat="48.05562" lon="6.91099">
        <ele>945</ele>
        <time>2022-05-28T10:05:12Z</time>
      </trkpt>
      <trkpt lat="48.05562" lon="6.91099">
        <ele>945.1</ele>
        <time>2022-05-28T10:05:19Z</time>
      </trkpt>
      <trkpt lat="48.05562" lon="6.91099">
        <ele>946.3</ele>
        <time>2022-05-28T10:07:00Z</time>
      </trkpt>
      <trkpt lat="48.05562" lon="6.91098">
        <ele>947</ele>
        <time>2022-05-28T10:08:04Z</time>
      </trkpt>
      <trkpt lat="48.05563" lon="6.91097">
        <ele>947</ele>
        <time>2022-05-28T10:08:10Z</time>
      </trkpt>
      <trkpt lat="48.0557" lon="6.91089">
        <ele>946</ele>
        <time>2022-05-28T10:08:14Z</time>
      </trkpt>
      <trkpt lat="48.05579" lon="6.91079">
        <ele>943.5</ele>
        <time>2022-05-28T10:08:17Z</time>
      </trkpt>
      <trkpt lat="48.05587" lon="6.91071">
        <ele>943.3</ele>
        <time>2022-05-28T10:08:20Z</time>
      </trkpt>
      <trkpt lat="48.05594" lon="6.9106">
        <ele>942.8</ele>
        <time>2022-05-28T10:08:24Z</time>
      </trkpt>
      <trkpt lat="48.05597" lon="6.9104">
        <ele>940.8</ele>
        <time>2022-05-28T10:08:28Z</time>
      </trkpt>
      <trkpt lat="48.056" lon="6.91026">
        <ele>940.6</ele>
        <time>2022-05-28T10:08:30Z</time>
      </trkpt>
      <trkpt lat="48.05604" lon="6.9101">
        <ele>942.5</ele>
        <time>2022-05-28T10:08:33Z</time>
      </trkpt>
      <trkpt lat="48.05608" lon="6.90994">
        <ele>939.5</ele>
        <time>2022-05-28T10:08:36Z</time>
      </trkpt>
      <trkpt lat="48.05612" lon="6.90976">
        <ele>939.8</ele>
        <time>2022-05-28T10:08:39Z</time>
      </trkpt>
      <trkpt lat="48.05618" lon="6.90965">
        <ele>941.7</ele>
        <time>2022-05-28T10:08:41Z</time>
      </trkpt>
      <trkpt lat="48.05626" lon="6.90954">
        <ele>941.6</ele>
        <time>2022-05-28T10:08:43Z</time>
      </trkpt>
      <trkpt lat="48.05636" lon="6.90942">
        <ele>937.2</ele>
        <time>2022-05-28T10:08:45Z</time>
      </trkpt>
      <trkpt lat="48.05645" lon="6.90928">
        <ele>937.6</ele>
        <time>2022-05-28T10:08:47Z</time>
      </trkpt>
      <trkpt lat="48.05655" lon="6.90916">
        <ele>938.7</ele>
        <time>2022-05-28T10:08:49Z</time>
      </trkpt>
      <trkpt lat="48.05665" lon="6.90907">
        <ele>937.6</ele>
        <time>2022-05-28T10:08:51Z</time>
      </trkpt>
      <trkpt lat="48.05675" lon="6.90898">
        <ele>937.3</ele>
        <time>2022-05-28T10:08:53Z</time>
      </trkpt>
      <trkpt lat="48.05683" lon="6.90887">
        <ele>938.2</ele>
        <time>2022-05-28T10:08:55Z</time>
      </trkpt>
      <trkpt lat="48.05691" lon="6.9088">
        <ele>937.6</ele>
        <time>2022-05-28T10:08:57Z</time>
      </trkpt>
      <trkpt lat="48.05702" lon="6.9087">
        <ele>939.9</ele>
        <time>2022-05-28T10:09:00Z</time>
      </trkpt>
      <trkpt lat="48.05714" lon="6.90863">
        <ele>938.5</ele>
        <time>2022-05-28T10:09:03Z</time>
      </trkpt>
      <trkpt lat="48.05722" lon="6.90855">
        <ele>939.9</ele>
        <time>2022-05-28T10:09:05Z</time>
      </trkpt>
      <trkpt lat="48.05732" lon="6.90844">
        <ele>937.6</ele>
        <time>2022-05-28T10:09:07Z</time>
      </trkpt>
      <trkpt lat="48.05742" lon="6.90832">
        <ele>936.4</ele>
        <time>2022-05-28T10:09:09Z</time>
      </trkpt>
      <trkpt lat="48.05751" lon="6.90821">
        <ele>935.1</ele>
        <time>2022-05-28T10:09:11Z</time>
      </trkpt>
      <trkpt lat="48.0576" lon="6.90808">
        <ele>935.2</ele>
        <time>2022-05-28T10:09:13Z</time>
      </trkpt>
      <trkpt lat="48.05767" lon="6.90797">
        <ele>937</ele>
        <time>2022-05-28T10:09:15Z</time>
      </trkpt>
      <trkpt lat="48.05774" lon="6.90782">
        <ele>937.4</ele>
        <time>2022-05-28T10:09:18Z</time>
      </trkpt>
      <trkpt lat="48.0578" lon="6.90766">
        <ele>937.4</ele>
        <time>2022-05-28T10:09:21Z</time>
      </trkpt>
      <trkpt lat="48.05785" lon="6.90747">
        <ele>936.4</ele>
        <time>2022-05-28T10:09:24Z</time>
      </trkpt>
      <trkpt lat="48.05789" lon="6.90731">
        <ele>936.8</ele>
        <time>2022-05-28T10:09:26Z</time>
      </trkpt>
      <trkpt lat="48.05792" lon="6.90713">
        <ele>938.2</ele>
        <time>2022-05-28T10:09:28Z</time>
      </trkpt>
      <trkpt lat="48.05794" lon="6.90697">
        <ele>935.3</ele>
        <time>2022-05-28T10:09:30Z</time>
      </trkpt>
      <trkpt lat="48.05794" lon="6.90682">
        <ele>934.1</ele>
        <time>2022-05-28T10:09:32Z</time>
      </trkpt>
      <trkpt lat="48.05796" lon="6.90667">
        <ele>932</ele>
        <time>2022-05-28T10:09:34Z</time>
      </trkpt>
      <trkpt lat="48.05797" lon="6.90653">
        <ele>929.2</ele>
        <time>2022-05-28T10:09:36Z</time>
      </trkpt>
      <trkpt lat="48.05798" lon="6.90636">
        <ele>931.7</ele>
        <time>2022-05-28T10:09:40Z</time>
      </trkpt>
      <trkpt lat="48.05802" lon="6.90622">
        <ele>932.7</ele>
        <time>2022-05-28T10:09:44Z</time>
      </trkpt>
      <trkpt lat="48.05807" lon="6.90607">
        <ele>933.5</ele>
        <time>2022-05-28T10:09:48Z</time>
      </trkpt>
      <trkpt lat="48.0581" lon="6.90591">
        <ele>934.8</ele>
        <time>2022-05-28T10:09:52Z</time>
      </trkpt>
      <trkpt lat="48.0581" lon="6.90577">
        <ele>935.7</ele>
        <time>2022-05-28T10:09:56Z</time>
      </trkpt>
      <trkpt lat="48.05812" lon="6.90563">
        <ele>936.8</ele>
        <time>2022-05-28T10:10:00Z</time>
      </trkpt>
      <trkpt lat="48.05816" lon="6.90549">
        <ele>934.7</ele>
        <time>2022-05-28T10:10:03Z</time>
      </trkpt>
      <trkpt lat="48.05824" lon="6.90533">
        <ele>934</ele>
        <time>2022-05-28T10:10:06Z</time>
      </trkpt>
      <trkpt lat="48.0583" lon="6.90519">
        <ele>934.3</ele>
        <time>2022-05-28T10:10:09Z</time>
      </trkpt>
      <trkpt lat="48.05835" lon="6.90504">
        <ele>933.8</ele>
        <time>2022-05-28T10:10:12Z</time>
      </trkpt>
      <trkpt lat="48.05845" lon="6.9049">
        <ele>933.6</ele>
        <time>2022-05-28T10:10:15Z</time>
      </trkpt>
      <trkpt lat="48.05853" lon="6.90476">
        <ele>931.1</ele>
        <time>2022-05-28T10:10:17Z</time>
      </trkpt>
      <trkpt lat="48.0586" lon="6.90462">
        <ele>929.6</ele>
        <time>2022-05-28T10:10:19Z</time>
      </trkpt>
      <trkpt lat="48.05867" lon="6.90453">
        <ele>931.5</ele>
        <time>2022-05-28T10:10:22Z</time>
      </trkpt>
      <trkpt lat="48.0587" lon="6.90437">
        <ele>932.7</ele>
        <time>2022-05-28T10:10:25Z</time>
      </trkpt>
      <trkpt lat="48.05873" lon="6.90418">
        <ele>930.6</ele>
        <time>2022-05-28T10:10:28Z</time>
      </trkpt>
      <trkpt lat="48.05875" lon="6.90401">
        <ele>932.8</ele>
        <time>2022-05-28T10:10:31Z</time>
      </trkpt>
      <trkpt lat="48.05877" lon="6.90388">
        <ele>930.8</ele>
        <time>2022-05-28T10:10:34Z</time>
      </trkpt>
      <trkpt lat="48.05878" lon="6.90372">
        <ele>929.6</ele>
        <time>2022-05-28T10:10:40Z</time>
      </trkpt>
      <trkpt lat="48.05881" lon="6.90356">
        <ele>929.3</ele>
        <time>2022-05-28T10:10:43Z</time>
      </trkpt>
      <trkpt lat="48.05884" lon="6.90339">
        <ele>930.9</ele>
        <time>2022-05-28T10:10:46Z</time>
      </trkpt>
      <trkpt lat="48.05888" lon="6.90319">
        <ele>931.2</ele>
        <time>2022-05-28T10:10:49Z</time>
      </trkpt>
      <trkpt lat="48.05894" lon="6.90305">
        <ele>932.8</ele>
        <time>2022-05-28T10:10:52Z</time>
      </trkpt>
      <trkpt lat="48.05896" lon="6.903">
        <ele>932.2</ele>
        <time>2022-05-28T10:10:56Z</time>
      </trkpt>
      <trkpt lat="48.05895" lon="6.903">
        <ele>932.4</ele>
        <time>2022-05-28T10:11:11Z</time>
      </trkpt>
      <trkpt lat="48.05895" lon="6.90299">
        <ele>932.5</ele>
        <time>2022-05-28T10:11:13Z</time>
      </trkpt>
      <trkpt lat="48.05894" lon="6.90285">
        <ele>931.9</ele>
        <time>2022-05-28T10:11:17Z</time>
      </trkpt>
      <trkpt lat="48.05897" lon="6.90269">
        <ele>930.6</ele>
        <time>2022-05-28T10:11:20Z</time>
      </trkpt>
      <trkpt lat="48.059" lon="6.90252">
        <ele>929.9</ele>
        <time>2022-05-28T10:11:23Z</time>
      </trkpt>
      <trkpt lat="48.05901" lon="6.90238">
        <ele>928.1</ele>
        <time>2022-05-28T10:11:25Z</time>
      </trkpt>
      <trkpt lat="48.05902" lon="6.90224">
        <ele>926.6</ele>
        <time>2022-05-28T10:11:27Z</time>
      </trkpt>
      <trkpt lat="48.05903" lon="6.90209">
        <ele>926</ele>
        <time>2022-05-28T10:11:29Z</time>
      </trkpt>
      <trkpt lat="48.05907" lon="6.90192">
        <ele>923.5</ele>
        <time>2022-05-28T10:11:31Z</time>
      </trkpt>
      <trkpt lat="48.05908" lon="6.90167">
        <ele>919.8</ele>
        <time>2022-05-28T10:11:33Z</time>
      </trkpt>
      <trkpt lat="48.05908" lon="6.90144">
        <ele>918.3</ele>
        <time>2022-05-28T10:11:35Z</time>
      </trkpt>
      <trkpt lat="48.05907" lon="6.90124">
        <ele>919.9</ele>
        <time>2022-05-28T10:11:37Z</time>
      </trkpt>
      <trkpt lat="48.05904" lon="6.90105">
        <ele>914.6</ele>
        <time>2022-05-28T10:11:39Z</time>
      </trkpt>
      <trkpt lat="48.05901" lon="6.90084">
        <ele>914.1</ele>
        <time>2022-05-28T10:11:41Z</time>
      </trkpt>
      <trkpt lat="48.05896" lon="6.90057">
        <ele>912.2</ele>
        <time>2022-05-28T10:11:43Z</time>
      </trkpt>
      <trkpt lat="48.05894" lon="6.90043">
        <ele>911</ele>
        <time>2022-05-28T10:11:44Z</time>
      </trkpt>
      <trkpt lat="48.05891" lon="6.90018">
        <ele>910.2</ele>
        <time>2022-05-28T10:11:46Z</time>
      </trkpt>
      <trkpt lat="48.05886" lon="6.89996">
        <ele>910.7</ele>
        <time>2022-05-28T10:11:48Z</time>
      </trkpt>
      <trkpt lat="48.05879" lon="6.89983">
        <ele>909.5</ele>
        <time>2022-05-28T10:11:49Z</time>
      </trkpt>
      <trkpt lat="48.05872" lon="6.89959">
        <ele>906</ele>
        <time>2022-05-28T10:11:51Z</time>
      </trkpt>
      <trkpt lat="48.05867" lon="6.89937">
        <ele>903.9</ele>
        <time>2022-05-28T10:11:53Z</time>
      </trkpt>
      <trkpt lat="48.05863" lon="6.89914">
        <ele>899</ele>
        <time>2022-05-28T10:11:55Z</time>
      </trkpt>
      <trkpt lat="48.05857" lon="6.89896">
        <ele>898.3</ele>
        <time>2022-05-28T10:11:56Z</time>
      </trkpt>
      <trkpt lat="48.05849" lon="6.89874">
        <ele>898.7</ele>
        <time>2022-05-28T10:11:57Z</time>
      </trkpt>
      <trkpt lat="48.05843" lon="6.89855">
        <ele>898</ele>
        <time>2022-05-28T10:11:58Z</time>
      </trkpt>
      <trkpt lat="48.05833" lon="6.89835">
        <ele>897</ele>
        <time>2022-05-28T10:11:59Z</time>
      </trkpt>
      <trkpt lat="48.05825" lon="6.89818">
        <ele>896.9</ele>
        <time>2022-05-28T10:12:00Z</time>
      </trkpt>
      <trkpt lat="48.05818" lon="6.89803">
        <ele>897.1</ele>
        <time>2022-05-28T10:12:01Z</time>
      </trkpt>
      <trkpt lat="48.05811" lon="6.89789">
        <ele>897.5</ele>
        <time>2022-05-28T10:12:02Z</time>
      </trkpt>
      <trkpt lat="48.05803" lon="6.89778">
        <ele>898.1</ele>
        <time>2022-05-28T10:12:03Z</time>
      </trkpt>
      <trkpt lat="48.05796" lon="6.89768">
        <ele>897.8</ele>
        <time>2022-05-28T10:12:04Z</time>
      </trkpt>
      <trkpt lat="48.05788" lon="6.89758">
        <ele>895.8</ele>
        <time>2022-05-28T10:12:05Z</time>
      </trkpt>
      <trkpt lat="48.05779" lon="6.89747">
        <ele>895.4</ele>
        <time>2022-05-28T10:12:06Z</time>
      </trkpt>
      <trkpt lat="48.05771" lon="6.89736">
        <ele>891.7</ele>
        <time>2022-05-28T10:12:07Z</time>
      </trkpt>
      <trkpt lat="48.05764" lon="6.89725">
        <ele>889.4</ele>
        <time>2022-05-28T10:12:08Z</time>
      </trkpt>
      <trkpt lat="48.05759" lon="6.89713">
        <ele>887.8</ele>
        <time>2022-05-28T10:12:09Z</time>
      </trkpt>
      <trkpt lat="48.05756" lon="6.89689">
        <ele>889.8</ele>
        <time>2022-05-28T10:12:11Z</time>
      </trkpt>
      <trkpt lat="48.05755" lon="6.89665">
        <ele>890.3</ele>
        <time>2022-05-28T10:12:13Z</time>
      </trkpt>
      <trkpt lat="48.05753" lon="6.89638">
        <ele>887.7</ele>
        <time>2022-05-28T10:12:15Z</time>
      </trkpt>
      <trkpt lat="48.05751" lon="6.89613">
        <ele>883.3</ele>
        <time>2022-05-28T10:12:17Z</time>
      </trkpt>
      <trkpt lat="48.0575" lon="6.89588">
        <ele>881.1</ele>
        <time>2022-05-28T10:12:19Z</time>
      </trkpt>
      <trkpt lat="48.05753" lon="6.89566">
        <ele>879</ele>
        <time>2022-05-28T10:12:21Z</time>
      </trkpt>
      <trkpt lat="48.05761" lon="6.89542">
        <ele>880.2</ele>
        <time>2022-05-28T10:12:23Z</time>
      </trkpt>
      <trkpt lat="48.05767" lon="6.8953">
        <ele>877.2</ele>
        <time>2022-05-28T10:12:24Z</time>
      </trkpt>
      <trkpt lat="48.05773" lon="6.89518">
        <ele>874.8</ele>
        <time>2022-05-28T10:12:25Z</time>
      </trkpt>
      <trkpt lat="48.05781" lon="6.89506">
        <ele>871.7</ele>
        <time>2022-05-28T10:12:26Z</time>
      </trkpt>
      <trkpt lat="48.05788" lon="6.89494">
        <ele>870.4</ele>
        <time>2022-05-28T10:12:27Z</time>
      </trkpt>
      <trkpt lat="48.05796" lon="6.89482">
        <ele>870.1</ele>
        <time>2022-05-28T10:12:28Z</time>
      </trkpt>
      <trkpt lat="48.05804" lon="6.89471">
        <ele>869.3</ele>
        <time>2022-05-28T10:12:29Z</time>
      </trkpt>
      <trkpt lat="48.05812" lon="6.89461">
        <ele>869.1</ele>
        <time>2022-05-28T10:12:30Z</time>
      </trkpt>
      <trkpt lat="48.05821" lon="6.89452">
        <ele>869</ele>
        <time>2022-05-28T10:12:31Z</time>
      </trkpt>
      <trkpt lat="48.0583" lon="6.89444">
        <ele>869.5</ele>
        <time>2022-05-28T10:12:32Z</time>
      </trkpt>
      <trkpt lat="48.05838" lon="6.89437">
        <ele>868.5</ele>
        <time>2022-05-28T10:12:33Z</time>
      </trkpt>
      <trkpt lat="48.05847" lon="6.89429">
        <ele>869.1</ele>
        <time>2022-05-28T10:12:34Z</time>
      </trkpt>
      <trkpt lat="48.05855" lon="6.89421">
        <ele>869.1</ele>
        <time>2022-05-28T10:12:35Z</time>
      </trkpt>
      <trkpt lat="48.05862" lon="6.89414">
        <ele>868.4</ele>
        <time>2022-05-28T10:12:36Z</time>
      </trkpt>
      <trkpt lat="48.05874" lon="6.89394">
        <ele>865.6</ele>
        <time>2022-05-28T10:12:38Z</time>
      </trkpt>
      <trkpt lat="48.05879" lon="6.89383">
        <ele>865.5</ele>
        <time>2022-05-28T10:12:39Z</time>
      </trkpt>
      <trkpt lat="48.05889" lon="6.8936">
        <ele>863.9</ele>
        <time>2022-05-28T10:12:41Z</time>
      </trkpt>
      <trkpt lat="48.05898" lon="6.89339">
        <ele>864.1</ele>
        <time>2022-05-28T10:12:43Z</time>
      </trkpt>
      <trkpt lat="48.05907" lon="6.89319">
        <ele>867.4</ele>
        <time>2022-05-28T10:12:45Z</time>
      </trkpt>
      <trkpt lat="48.05912" lon="6.89299">
        <ele>867.2</ele>
        <time>2022-05-28T10:12:47Z</time>
      </trkpt>
      <trkpt lat="48.0591" lon="6.89281">
        <ele>866.4</ele>
        <time>2022-05-28T10:12:49Z</time>
      </trkpt>
      <trkpt lat="48.05905" lon="6.89266">
        <ele>866.9</ele>
        <time>2022-05-28T10:12:51Z</time>
      </trkpt>
      <trkpt lat="48.059" lon="6.89251">
        <ele>867.1</ele>
        <time>2022-05-28T10:12:53Z</time>
      </trkpt>
      <trkpt lat="48.05897" lon="6.89238">
        <ele>866.9</ele>
        <time>2022-05-28T10:12:55Z</time>
      </trkpt>
      <trkpt lat="48.05893" lon="6.89224">
        <ele>867.9</ele>
        <time>2022-05-28T10:12:57Z</time>
      </trkpt>
      <trkpt lat="48.05891" lon="6.89206">
        <ele>867</ele>
        <time>2022-05-28T10:13:00Z</time>
      </trkpt>
      <trkpt lat="48.05889" lon="6.89189">
        <ele>868.5</ele>
        <time>2022-05-28T10:13:03Z</time>
      </trkpt>
      <trkpt lat="48.05887" lon="6.89174">
        <ele>869.5</ele>
        <time>2022-05-28T10:13:07Z</time>
      </trkpt>
      <trkpt lat="48.05886" lon="6.89158">
        <ele>870.2</ele>
        <time>2022-05-28T10:13:12Z</time>
      </trkpt>
      <trkpt lat="48.05884" lon="6.89143">
        <ele>870</ele>
        <time>2022-05-28T10:13:17Z</time>
      </trkpt>
      <trkpt lat="48.05881" lon="6.89127">
        <ele>870.1</ele>
        <time>2022-05-28T10:13:22Z</time>
      </trkpt>
      <trkpt lat="48.05869" lon="6.89125">
        <ele>869.9</ele>
        <time>2022-05-28T10:13:27Z</time>
      </trkpt>
      <trkpt lat="48.0586" lon="6.89126">
        <ele>871.2</ele>
        <time>2022-05-28T10:13:31Z</time>
      </trkpt>
      <trkpt lat="48.05849" lon="6.89125">
        <ele>871.1</ele>
        <time>2022-05-28T10:13:35Z</time>
      </trkpt>
      <trkpt lat="48.0584" lon="6.89125">
        <ele>871.8</ele>
        <time>2022-05-28T10:13:39Z</time>
      </trkpt>
      <trkpt lat="48.05829" lon="6.89123">
        <ele>872.4</ele>
        <time>2022-05-28T10:13:44Z</time>
      </trkpt>
      <trkpt lat="48.05819" lon="6.89124">
        <ele>875.1</ele>
        <time>2022-05-28T10:13:50Z</time>
      </trkpt>
      <trkpt lat="48.05809" lon="6.89121">
        <ele>876.7</ele>
        <time>2022-05-28T10:13:56Z</time>
      </trkpt>
      <trkpt lat="48.05799" lon="6.89115">
        <ele>877.7</ele>
        <time>2022-05-28T10:14:02Z</time>
      </trkpt>
      <trkpt lat="48.0579" lon="6.89109">
        <ele>879.7</ele>
        <time>2022-05-28T10:14:09Z</time>
      </trkpt>
      <trkpt lat="48.05782" lon="6.891">
        <ele>881.3</ele>
        <time>2022-05-28T10:14:16Z</time>
      </trkpt>
      <trkpt lat="48.05776" lon="6.89088">
        <ele>882</ele>
        <time>2022-05-28T10:14:22Z</time>
      </trkpt>
      <trkpt lat="48.05771" lon="6.89076">
        <ele>882.4</ele>
        <time>2022-05-28T10:14:27Z</time>
      </trkpt>
      <trkpt lat="48.05767" lon="6.89063">
        <ele>882.7</ele>
        <time>2022-05-28T10:14:32Z</time>
      </trkpt>
      <trkpt lat="48.05764" lon="6.89049">
        <ele>882.8</ele>
        <time>2022-05-28T10:14:37Z</time>
      </trkpt>
      <trkpt lat="48.0576" lon="6.89034">
        <ele>882.9</ele>
        <time>2022-05-28T10:14:43Z</time>
      </trkpt>
      <trkpt lat="48.05756" lon="6.8902">
        <ele>884.1</ele>
        <time>2022-05-28T10:14:48Z</time>
      </trkpt>
      <trkpt lat="48.0575" lon="6.89007">
        <ele>884.8</ele>
        <time>2022-05-28T10:14:54Z</time>
      </trkpt>
      <trkpt lat="48.05744" lon="6.88997">
        <ele>886.4</ele>
        <time>2022-05-28T10:15:00Z</time>
      </trkpt>
      <trkpt lat="48.05737" lon="6.88986">
        <ele>888.6</ele>
        <time>2022-05-28T10:15:07Z</time>
      </trkpt>
      <trkpt lat="48.05732" lon="6.88973">
        <ele>889.4</ele>
        <time>2022-05-28T10:15:13Z</time>
      </trkpt>
      <trkpt lat="48.05725" lon="6.88962">
        <ele>890.9</ele>
        <time>2022-05-28T10:15:20Z</time>
      </trkpt>
      <trkpt lat="48.05718" lon="6.88951">
        <ele>891.6</ele>
        <time>2022-05-28T10:15:26Z</time>
      </trkpt>
      <trkpt lat="48.05711" lon="6.88941">
        <ele>892.3</ele>
        <time>2022-05-28T10:15:31Z</time>
      </trkpt>
      <trkpt lat="48.05706" lon="6.88928">
        <ele>893.8</ele>
        <time>2022-05-28T10:15:39Z</time>
      </trkpt>
      <trkpt lat="48.057" lon="6.88918">
        <ele>894.5</ele>
        <time>2022-05-28T10:15:43Z</time>
      </trkpt>
      <trkpt lat="48.05693" lon="6.88908">
        <ele>895.3</ele>
        <time>2022-05-28T10:15:47Z</time>
      </trkpt>
      <trkpt lat="48.05685" lon="6.88896">
        <ele>895.7</ele>
        <time>2022-05-28T10:15:52Z</time>
      </trkpt>
      <trkpt lat="48.05679" lon="6.88885">
        <ele>896.4</ele>
        <time>2022-05-28T10:15:56Z</time>
      </trkpt>
      <trkpt lat="48.05671" lon="6.88874">
        <ele>896.4</ele>
        <time>2022-05-28T10:16:01Z</time>
      </trkpt>
      <trkpt lat="48.05664" lon="6.88861">
        <ele>897.4</ele>
        <time>2022-05-28T10:16:06Z</time>
      </trkpt>
      <trkpt lat="48.05658" lon="6.8885">
        <ele>898.5</ele>
        <time>2022-05-28T10:16:11Z</time>
      </trkpt>
      <trkpt lat="48.05652" lon="6.88839">
        <ele>900.1</ele>
        <time>2022-05-28T10:16:16Z</time>
      </trkpt>
      <trkpt lat="48.05646" lon="6.88829">
        <ele>901.7</ele>
        <time>2022-05-28T10:16:21Z</time>
      </trkpt>
      <trkpt lat="48.05639" lon="6.88817">
        <ele>901.7</ele>
        <time>2022-05-28T10:16:27Z</time>
      </trkpt>
      <trkpt lat="48.05632" lon="6.88807">
        <ele>902.8</ele>
        <time>2022-05-28T10:16:32Z</time>
      </trkpt>
      <trkpt lat="48.05625" lon="6.88817">
        <ele>905.2</ele>
        <time>2022-05-28T10:16:40Z</time>
      </trkpt>
      <trkpt lat="48.05628" lon="6.88831">
        <ele>905.7</ele>
        <time>2022-05-28T10:16:47Z</time>
      </trkpt>
      <trkpt lat="48.05633" lon="6.88843">
        <ele>907.1</ele>
        <time>2022-05-28T10:16:53Z</time>
      </trkpt>
      <trkpt lat="48.05637" lon="6.88856">
        <ele>908.6</ele>
        <time>2022-05-28T10:16:59Z</time>
      </trkpt>
      <trkpt lat="48.05631" lon="6.88866">
        <ele>909.7</ele>
        <time>2022-05-28T10:17:07Z</time>
      </trkpt>
      <trkpt lat="48.05624" lon="6.88856">
        <ele>912.2</ele>
        <time>2022-05-28T10:17:14Z</time>
      </trkpt>
      <trkpt lat="48.05617" lon="6.88847">
        <ele>912.7</ele>
        <time>2022-05-28T10:17:21Z</time>
      </trkpt>
      <trkpt lat="48.05609" lon="6.88839">
        <ele>914.6</ele>
        <time>2022-05-28T10:17:29Z</time>
      </trkpt>
      <trkpt lat="48.05601" lon="6.88832">
        <ele>915.6</ele>
        <time>2022-05-28T10:17:36Z</time>
      </trkpt>
      <trkpt lat="48.05593" lon="6.88826">
        <ele>917.5</ele>
        <time>2022-05-28T10:17:43Z</time>
      </trkpt>
      <trkpt lat="48.05585" lon="6.88819">
        <ele>918.4</ele>
        <time>2022-05-28T10:17:50Z</time>
      </trkpt>
      <trkpt lat="48.05577" lon="6.88808">
        <ele>920.2</ele>
        <time>2022-05-28T10:17:57Z</time>
      </trkpt>
      <trkpt lat="48.05575" lon="6.88794">
        <ele>922.1</ele>
        <time>2022-05-28T10:18:04Z</time>
      </trkpt>
      <trkpt lat="48.05573" lon="6.88779">
        <ele>924</ele>
        <time>2022-05-28T10:18:12Z</time>
      </trkpt>
      <trkpt lat="48.05573" lon="6.88766">
        <ele>925.2</ele>
        <time>2022-05-28T10:18:19Z</time>
      </trkpt>
      <trkpt lat="48.05574" lon="6.88751">
        <ele>927.1</ele>
        <time>2022-05-28T10:18:27Z</time>
      </trkpt>
      <trkpt lat="48.05573" lon="6.88737">
        <ele>928.1</ele>
        <time>2022-05-28T10:18:34Z</time>
      </trkpt>
      <trkpt lat="48.05571" lon="6.88722">
        <ele>929.8</ele>
        <time>2022-05-28T10:18:41Z</time>
      </trkpt>
      <trkpt lat="48.0557" lon="6.88707">
        <ele>931.6</ele>
        <time>2022-05-28T10:18:48Z</time>
      </trkpt>
      <trkpt lat="48.05562" lon="6.88697">
        <ele>932.5</ele>
        <time>2022-05-28T10:18:54Z</time>
      </trkpt>
      <trkpt lat="48.05555" lon="6.88706">
        <ele>933.9</ele>
        <time>2022-05-28T10:19:02Z</time>
      </trkpt>
      <trkpt lat="48.05555" lon="6.88721">
        <ele>934.4</ele>
        <time>2022-05-28T10:19:08Z</time>
      </trkpt>
      <trkpt lat="48.05554" lon="6.88734">
        <ele>935.2</ele>
        <time>2022-05-28T10:19:14Z</time>
      </trkpt>
      <trkpt lat="48.05551" lon="6.88748">
        <ele>936.4</ele>
        <time>2022-05-28T10:19:20Z</time>
      </trkpt>
      <trkpt lat="48.05547" lon="6.88762">
        <ele>937</ele>
        <time>2022-05-28T10:19:25Z</time>
      </trkpt>
      <trkpt lat="48.05544" lon="6.88776">
        <ele>938</ele>
        <time>2022-05-28T10:19:30Z</time>
      </trkpt>
      <trkpt lat="48.0554" lon="6.8879">
        <ele>938.7</ele>
        <time>2022-05-28T10:19:35Z</time>
      </trkpt>
      <trkpt lat="48.05535" lon="6.88803">
        <ele>939.6</ele>
        <time>2022-05-28T10:19:39Z</time>
      </trkpt>
      <trkpt lat="48.05531" lon="6.88815">
        <ele>940.3</ele>
        <time>2022-05-28T10:19:43Z</time>
      </trkpt>
      <trkpt lat="48.05531" lon="6.88829">
        <ele>940.8</ele>
        <time>2022-05-28T10:19:47Z</time>
      </trkpt>
      <trkpt lat="48.05533" lon="6.88843">
        <ele>941.6</ele>
        <time>2022-05-28T10:19:51Z</time>
      </trkpt>
      <trkpt lat="48.05536" lon="6.88857">
        <ele>942.5</ele>
        <time>2022-05-28T10:19:55Z</time>
      </trkpt>
      <trkpt lat="48.05539" lon="6.88871">
        <ele>942.8</ele>
        <time>2022-05-28T10:19:59Z</time>
      </trkpt>
      <trkpt lat="48.05541" lon="6.88885">
        <ele>943.6</ele>
        <time>2022-05-28T10:20:03Z</time>
      </trkpt>
      <trkpt lat="48.05542" lon="6.889">
        <ele>945.1</ele>
        <time>2022-05-28T10:20:07Z</time>
      </trkpt>
      <trkpt lat="48.05546" lon="6.88914">
        <ele>945</ele>
        <time>2022-05-28T10:20:11Z</time>
      </trkpt>
      <trkpt lat="48.05549" lon="6.88928">
        <ele>945.5</ele>
        <time>2022-05-28T10:20:15Z</time>
      </trkpt>
      <trkpt lat="48.0555" lon="6.88943">
        <ele>946.4</ele>
        <time>2022-05-28T10:20:19Z</time>
      </trkpt>
      <trkpt lat="48.05552" lon="6.88957">
        <ele>947</ele>
        <time>2022-05-28T10:20:23Z</time>
      </trkpt>
      <trkpt lat="48.05553" lon="6.88974">
        <ele>948.4</ele>
        <time>2022-05-28T10:20:28Z</time>
      </trkpt>
      <trkpt lat="48.05553" lon="6.88988">
        <ele>948.9</ele>
        <time>2022-05-28T10:20:32Z</time>
      </trkpt>
      <trkpt lat="48.05552" lon="6.89002">
        <ele>949.5</ele>
        <time>2022-05-28T10:20:36Z</time>
      </trkpt>
      <trkpt lat="48.05552" lon="6.89015">
        <ele>950.5</ele>
        <time>2022-05-28T10:20:40Z</time>
      </trkpt>
      <trkpt lat="48.05553" lon="6.89031">
        <ele>950.9</ele>
        <time>2022-05-28T10:20:44Z</time>
      </trkpt>
      <trkpt lat="48.05552" lon="6.89046">
        <ele>951.5</ele>
        <time>2022-05-28T10:20:48Z</time>
      </trkpt>
      <trkpt lat="48.05551" lon="6.89062">
        <ele>952.8</ele>
        <time>2022-05-28T10:20:52Z</time>
      </trkpt>
      <trkpt lat="48.05552" lon="6.89079">
        <ele>953.4</ele>
        <time>2022-05-28T10:20:56Z</time>
      </trkpt>
      <trkpt lat="48.05555" lon="6.89095">
        <ele>954.7</ele>
        <time>2022-05-28T10:21:00Z</time>
      </trkpt>
      <trkpt lat="48.0556" lon="6.89111">
        <ele>955.9</ele>
        <time>2022-05-28T10:21:04Z</time>
      </trkpt>
      <trkpt lat="48.05564" lon="6.89127">
        <ele>956.7</ele>
        <time>2022-05-28T10:21:08Z</time>
      </trkpt>
      <trkpt lat="48.05569" lon="6.89142">
        <ele>957.8</ele>
        <time>2022-05-28T10:21:12Z</time>
      </trkpt>
      <trkpt lat="48.05573" lon="6.89157">
        <ele>957.7</ele>
        <time>2022-05-28T10:21:16Z</time>
      </trkpt>
      <trkpt lat="48.05576" lon="6.89172">
        <ele>958.8</ele>
        <time>2022-05-28T10:21:20Z</time>
      </trkpt>
      <trkpt lat="48.05579" lon="6.89186">
        <ele>958.9</ele>
        <time>2022-05-28T10:21:24Z</time>
      </trkpt>
      <trkpt lat="48.05583" lon="6.892">
        <ele>959.7</ele>
        <time>2022-05-28T10:21:28Z</time>
      </trkpt>
      <trkpt lat="48.05585" lon="6.89216">
        <ele>960.4</ele>
        <time>2022-05-28T10:21:32Z</time>
      </trkpt>
      <trkpt lat="48.05588" lon="6.89231">
        <ele>960.9</ele>
        <time>2022-05-28T10:21:36Z</time>
      </trkpt>
      <trkpt lat="48.05591" lon="6.89246">
        <ele>961.3</ele>
        <time>2022-05-28T10:21:40Z</time>
      </trkpt>
      <trkpt lat="48.05593" lon="6.89262">
        <ele>962.5</ele>
        <time>2022-05-28T10:21:44Z</time>
      </trkpt>
      <trkpt lat="48.05597" lon="6.89278">
        <ele>962.6</ele>
        <time>2022-05-28T10:21:48Z</time>
      </trkpt>
      <trkpt lat="48.05598" lon="6.89294">
        <ele>964</ele>
        <time>2022-05-28T10:21:52Z</time>
      </trkpt>
      <trkpt lat="48.05599" lon="6.89309">
        <ele>963.6</ele>
        <time>2022-05-28T10:21:56Z</time>
      </trkpt>
      <trkpt lat="48.05599" lon="6.89324">
        <ele>964.3</ele>
        <time>2022-05-28T10:22:00Z</time>
      </trkpt>
      <trkpt lat="48.05601" lon="6.89339">
        <ele>965.1</ele>
        <time>2022-05-28T10:22:04Z</time>
      </trkpt>
      <trkpt lat="48.05602" lon="6.89354">
        <ele>965.9</ele>
        <time>2022-05-28T10:22:08Z</time>
      </trkpt>
      <trkpt lat="48.05604" lon="6.89371">
        <ele>966.7</ele>
        <time>2022-05-28T10:22:12Z</time>
      </trkpt>
      <trkpt lat="48.05604" lon="6.89388">
        <ele>967.1</ele>
        <time>2022-05-28T10:22:16Z</time>
      </trkpt>
      <trkpt lat="48.05604" lon="6.89404">
        <ele>967.6</ele>
        <time>2022-05-28T10:22:20Z</time>
      </trkpt>
      <trkpt lat="48.05602" lon="6.89421">
        <ele>968.1</ele>
        <time>2022-05-28T10:22:24Z</time>
      </trkpt>
      <trkpt lat="48.05598" lon="6.89438">
        <ele>969.2</ele>
        <time>2022-05-28T10:22:28Z</time>
      </trkpt>
      <trkpt lat="48.05593" lon="6.89453">
        <ele>969.3</ele>
        <time>2022-05-28T10:22:32Z</time>
      </trkpt>
      <trkpt lat="48.05587" lon="6.89466">
        <ele>969.5</ele>
        <time>2022-05-28T10:22:36Z</time>
      </trkpt>
      <trkpt lat="48.0558" lon="6.8948">
        <ele>971.1</ele>
        <time>2022-05-28T10:22:40Z</time>
      </trkpt>
      <trkpt lat="48.05576" lon="6.89497">
        <ele>971.2</ele>
        <time>2022-05-28T10:22:44Z</time>
      </trkpt>
      <trkpt lat="48.05572" lon="6.89512">
        <ele>972.1</ele>
        <time>2022-05-28T10:22:48Z</time>
      </trkpt>
      <trkpt lat="48.05566" lon="6.89527">
        <ele>972.4</ele>
        <time>2022-05-28T10:22:52Z</time>
      </trkpt>
      <trkpt lat="48.05563" lon="6.8954">
        <ele>973.1</ele>
        <time>2022-05-28T10:22:55Z</time>
      </trkpt>
      <trkpt lat="48.05558" lon="6.89556">
        <ele>974.6</ele>
        <time>2022-05-28T10:22:59Z</time>
      </trkpt>
      <trkpt lat="48.05553" lon="6.89572">
        <ele>975.4</ele>
        <time>2022-05-28T10:23:03Z</time>
      </trkpt>
      <trkpt lat="48.0555" lon="6.89585">
        <ele>974.8</ele>
        <time>2022-05-28T10:23:06Z</time>
      </trkpt>
      <trkpt lat="48.05544" lon="6.896">
        <ele>976.8</ele>
        <time>2022-05-28T10:23:10Z</time>
      </trkpt>
      <trkpt lat="48.05541" lon="6.89614">
        <ele>976.9</ele>
        <time>2022-05-28T10:23:13Z</time>
      </trkpt>
      <trkpt lat="48.0554" lon="6.89628">
        <ele>977</ele>
        <time>2022-05-28T10:23:16Z</time>
      </trkpt>
      <trkpt lat="48.0554" lon="6.89643">
        <ele>978.3</ele>
        <time>2022-05-28T10:23:19Z</time>
      </trkpt>
      <trkpt lat="48.05539" lon="6.89656">
        <ele>978.8</ele>
        <time>2022-05-28T10:23:22Z</time>
      </trkpt>
      <trkpt lat="48.05539" lon="6.89674">
        <ele>979.4</ele>
        <time>2022-05-28T10:23:26Z</time>
      </trkpt>
      <trkpt lat="48.05537" lon="6.89687">
        <ele>979.5</ele>
        <time>2022-05-28T10:23:29Z</time>
      </trkpt>
      <trkpt lat="48.05535" lon="6.89705">
        <ele>980.3</ele>
        <time>2022-05-28T10:23:33Z</time>
      </trkpt>
      <trkpt lat="48.05532" lon="6.89722">
        <ele>981.1</ele>
        <time>2022-05-28T10:23:37Z</time>
      </trkpt>
      <trkpt lat="48.0553" lon="6.89736">
        <ele>982</ele>
        <time>2022-05-28T10:23:40Z</time>
      </trkpt>
      <trkpt lat="48.05528" lon="6.89749">
        <ele>982.5</ele>
        <time>2022-05-28T10:23:43Z</time>
      </trkpt>
      <trkpt lat="48.05526" lon="6.89762">
        <ele>982.9</ele>
        <time>2022-05-28T10:23:46Z</time>
      </trkpt>
      <trkpt lat="48.05525" lon="6.89776">
        <ele>982.9</ele>
        <time>2022-05-28T10:23:49Z</time>
      </trkpt>
      <trkpt lat="48.05523" lon="6.89793">
        <ele>983.4</ele>
        <time>2022-05-28T10:23:53Z</time>
      </trkpt>
      <trkpt lat="48.05522" lon="6.8981">
        <ele>984.9</ele>
        <time>2022-05-28T10:23:57Z</time>
      </trkpt>
      <trkpt lat="48.0552" lon="6.89824">
        <ele>984.8</ele>
        <time>2022-05-28T10:24:02Z</time>
      </trkpt>
      <trkpt lat="48.05526" lon="6.89811">
        <ele>984.6</ele>
        <time>2022-05-28T10:24:18Z</time>
      </trkpt>
      <trkpt lat="48.05528" lon="6.89817">
        <ele>985.1</ele>
        <time>2022-05-28T10:24:32Z</time>
      </trkpt>
      <trkpt lat="48.05529" lon="6.89817">
        <ele>985.2</ele>
        <time>2022-05-28T10:25:11Z</time>
      </trkpt>
      <trkpt lat="48.05529" lon="6.89817">
        <ele>985.1</ele>
        <time>2022-05-28T10:26:16Z</time>
      </trkpt>
      <trkpt lat="48.05529" lon="6.89818">
        <ele>985.2</ele>
        <time>2022-05-28T10:26:19Z</time>
      </trkpt>
      <trkpt lat="48.05529" lon="6.89817">
        <ele>985.3</ele>
        <time>2022-05-28T10:26:48Z</time>
      </trkpt>
      <trkpt lat="48.0553" lon="6.89818">
        <ele>985.7</ele>
        <time>2022-05-28T10:26:51Z</time>
      </trkpt>
      <trkpt lat="48.0553" lon="6.89817">
        <ele>985.7</ele>
        <time>2022-05-28T10:28:48Z</time>
      </trkpt>
      <trkpt lat="48.05529" lon="6.89819">
        <ele>985.9</ele>
        <time>2022-05-28T10:28:55Z</time>
      </trkpt>
      <trkpt lat="48.05529" lon="6.8982">
        <ele>985.5</ele>
        <time>2022-05-28T10:31:19Z</time>
      </trkpt>
      <trkpt lat="48.05525" lon="6.89833">
        <ele>986.6</ele>
        <time>2022-05-28T10:31:26Z</time>
      </trkpt>
      <trkpt lat="48.05525" lon="6.89847">
        <ele>986.3</ele>
        <time>2022-05-28T10:31:31Z</time>
      </trkpt>
      <trkpt lat="48.05523" lon="6.89863">
        <ele>986.7</ele>
        <time>2022-05-28T10:31:36Z</time>
      </trkpt>
      <trkpt lat="48.05526" lon="6.89876">
        <ele>987.9</ele>
        <time>2022-05-28T10:31:44Z</time>
      </trkpt>
      <trkpt lat="48.05527" lon="6.89876">
        <ele>988.2</ele>
        <time>2022-05-28T10:32:12Z</time>
      </trkpt>
      <trkpt lat="48.05528" lon="6.8989">
        <ele>988.4</ele>
        <time>2022-05-28T10:32:31Z</time>
      </trkpt>
      <trkpt lat="48.05528" lon="6.89904">
        <ele>988.9</ele>
        <time>2022-05-28T10:32:37Z</time>
      </trkpt>
      <trkpt lat="48.05529" lon="6.89919">
        <ele>989.3</ele>
        <time>2022-05-28T10:32:42Z</time>
      </trkpt>
      <trkpt lat="48.0553" lon="6.89935">
        <ele>989.6</ele>
        <time>2022-05-28T10:32:47Z</time>
      </trkpt>
      <trkpt lat="48.05536" lon="6.89947">
        <ele>990.1</ele>
        <time>2022-05-28T10:32:51Z</time>
      </trkpt>
      <trkpt lat="48.05542" lon="6.89957">
        <ele>990.7</ele>
        <time>2022-05-28T10:32:55Z</time>
      </trkpt>
      <trkpt lat="48.05549" lon="6.89968">
        <ele>991.6</ele>
        <time>2022-05-28T10:33:00Z</time>
      </trkpt>
      <trkpt lat="48.05557" lon="6.89979">
        <ele>991.8</ele>
        <time>2022-05-28T10:33:05Z</time>
      </trkpt>
      <trkpt lat="48.05564" lon="6.89989">
        <ele>992.5</ele>
        <time>2022-05-28T10:33:09Z</time>
      </trkpt>
      <trkpt lat="48.05569" lon="6.9">
        <ele>993.1</ele>
        <time>2022-05-28T10:33:13Z</time>
      </trkpt>
      <trkpt lat="48.05573" lon="6.90013">
        <ele>994.7</ele>
        <time>2022-05-28T10:33:17Z</time>
      </trkpt>
      <trkpt lat="48.05576" lon="6.90029">
        <ele>995.2</ele>
        <time>2022-05-28T10:33:22Z</time>
      </trkpt>
      <trkpt lat="48.05578" lon="6.90045">
        <ele>996.1</ele>
        <time>2022-05-28T10:33:27Z</time>
      </trkpt>
      <trkpt lat="48.0558" lon="6.90058">
        <ele>996.5</ele>
        <time>2022-05-28T10:33:31Z</time>
      </trkpt>
      <trkpt lat="48.05582" lon="6.90071">
        <ele>997.1</ele>
        <time>2022-05-28T10:33:35Z</time>
      </trkpt>
      <trkpt lat="48.05584" lon="6.90087">
        <ele>998.2</ele>
        <time>2022-05-28T10:33:40Z</time>
      </trkpt>
      <trkpt lat="48.05586" lon="6.90102">
        <ele>998.9</ele>
        <time>2022-05-28T10:33:45Z</time>
      </trkpt>
      <trkpt lat="48.05587" lon="6.90119">
        <ele>999.9</ele>
        <time>2022-05-28T10:33:50Z</time>
      </trkpt>
      <trkpt lat="48.05588" lon="6.90134">
        <ele>1000.8</ele>
        <time>2022-05-28T10:33:55Z</time>
      </trkpt>
      <trkpt lat="48.05585" lon="6.9015">
        <ele>1001.3</ele>
        <time>2022-05-28T10:34:00Z</time>
      </trkpt>
      <trkpt lat="48.05582" lon="6.90163">
        <ele>1001.6</ele>
        <time>2022-05-28T10:34:04Z</time>
      </trkpt>
      <trkpt lat="48.05578" lon="6.90176">
        <ele>1002.1</ele>
        <time>2022-05-28T10:34:08Z</time>
      </trkpt>
      <trkpt lat="48.05573" lon="6.90187">
        <ele>1003.4</ele>
        <time>2022-05-28T10:34:12Z</time>
      </trkpt>
      <trkpt lat="48.05567" lon="6.90198">
        <ele>1003.7</ele>
        <time>2022-05-28T10:34:16Z</time>
      </trkpt>
      <trkpt lat="48.05561" lon="6.90211">
        <ele>1004.3</ele>
        <time>2022-05-28T10:34:20Z</time>
      </trkpt>
      <trkpt lat="48.05556" lon="6.90225">
        <ele>1004.6</ele>
        <time>2022-05-28T10:34:24Z</time>
      </trkpt>
      <trkpt lat="48.05551" lon="6.90238">
        <ele>1005.2</ele>
        <time>2022-05-28T10:34:28Z</time>
      </trkpt>
      <trkpt lat="48.05547" lon="6.90251">
        <ele>1005.9</ele>
        <time>2022-05-28T10:34:32Z</time>
      </trkpt>
      <trkpt lat="48.05542" lon="6.90263">
        <ele>1006.1</ele>
        <time>2022-05-28T10:34:36Z</time>
      </trkpt>
      <trkpt lat="48.05536" lon="6.90277">
        <ele>1007.1</ele>
        <time>2022-05-28T10:34:40Z</time>
      </trkpt>
      <trkpt lat="48.05529" lon="6.9029">
        <ele>1008.2</ele>
        <time>2022-05-28T10:34:44Z</time>
      </trkpt>
      <trkpt lat="48.05524" lon="6.90303">
        <ele>1008.4</ele>
        <time>2022-05-28T10:34:48Z</time>
      </trkpt>
      <trkpt lat="48.05517" lon="6.90317">
        <ele>1008.8</ele>
        <time>2022-05-28T10:34:52Z</time>
      </trkpt>
      <trkpt lat="48.0551" lon="6.90331">
        <ele>1009.1</ele>
        <time>2022-05-28T10:34:56Z</time>
      </trkpt>
      <trkpt lat="48.05503" lon="6.90345">
        <ele>1010.5</ele>
        <time>2022-05-28T10:35:00Z</time>
      </trkpt>
      <trkpt lat="48.05495" lon="6.90358">
        <ele>1011.1</ele>
        <time>2022-05-28T10:35:04Z</time>
      </trkpt>
      <trkpt lat="48.05489" lon="6.90369">
        <ele>1011.6</ele>
        <time>2022-05-28T10:35:07Z</time>
      </trkpt>
      <trkpt lat="48.05482" lon="6.90381">
        <ele>1011.9</ele>
        <time>2022-05-28T10:35:10Z</time>
      </trkpt>
      <trkpt lat="48.05476" lon="6.9039">
        <ele>1012.5</ele>
        <time>2022-05-28T10:35:13Z</time>
      </trkpt>
      <trkpt lat="48.05469" lon="6.90402">
        <ele>1012.6</ele>
        <time>2022-05-28T10:35:16Z</time>
      </trkpt>
      <trkpt lat="48.05461" lon="6.90413">
        <ele>1014.4</ele>
        <time>2022-05-28T10:35:20Z</time>
      </trkpt>
      <trkpt lat="48.05454" lon="6.90425">
        <ele>1014.4</ele>
        <time>2022-05-28T10:35:24Z</time>
      </trkpt>
      <trkpt lat="48.05449" lon="6.90437">
        <ele>1014.8</ele>
        <time>2022-05-28T10:35:28Z</time>
      </trkpt>
      <trkpt lat="48.05443" lon="6.90449">
        <ele>1015.4</ele>
        <time>2022-05-28T10:35:33Z</time>
      </trkpt>
      <trkpt lat="48.05437" lon="6.9046">
        <ele>1016.6</ele>
        <time>2022-05-28T10:35:37Z</time>
      </trkpt>
      <trkpt lat="48.05431" lon="6.9047">
        <ele>1016.8</ele>
        <time>2022-05-28T10:35:41Z</time>
      </trkpt>
      <trkpt lat="48.05425" lon="6.90482">
        <ele>1017</ele>
        <time>2022-05-28T10:35:47Z</time>
      </trkpt>
      <trkpt lat="48.05419" lon="6.90494">
        <ele>1017.5</ele>
        <time>2022-05-28T10:35:52Z</time>
      </trkpt>
      <trkpt lat="48.05414" lon="6.90508">
        <ele>1017.9</ele>
        <time>2022-05-28T10:35:57Z</time>
      </trkpt>
      <trkpt lat="48.05408" lon="6.90519">
        <ele>1017.9</ele>
        <time>2022-05-28T10:36:01Z</time>
      </trkpt>
      <trkpt lat="48.05402" lon="6.9053">
        <ele>1018.2</ele>
        <time>2022-05-28T10:36:05Z</time>
      </trkpt>
      <trkpt lat="48.05396" lon="6.90541">
        <ele>1018.9</ele>
        <time>2022-05-28T10:36:09Z</time>
      </trkpt>
      <trkpt lat="48.05389" lon="6.90555">
        <ele>1019</ele>
        <time>2022-05-28T10:36:13Z</time>
      </trkpt>
      <trkpt lat="48.05381" lon="6.90567">
        <ele>1019.5</ele>
        <time>2022-05-28T10:36:17Z</time>
      </trkpt>
      <trkpt lat="48.05375" lon="6.90579">
        <ele>1020.4</ele>
        <time>2022-05-28T10:36:21Z</time>
      </trkpt>
      <trkpt lat="48.05369" lon="6.9059">
        <ele>1020.4</ele>
        <time>2022-05-28T10:36:25Z</time>
      </trkpt>
      <trkpt lat="48.05362" lon="6.906">
        <ele>1021.1</ele>
        <time>2022-05-28T10:36:30Z</time>
      </trkpt>
      <trkpt lat="48.05359" lon="6.90614">
        <ele>1021.4</ele>
        <time>2022-05-28T10:36:37Z</time>
      </trkpt>
      <trkpt lat="48.05352" lon="6.90625">
        <ele>1021.4</ele>
        <time>2022-05-28T10:36:42Z</time>
      </trkpt>
      <trkpt lat="48.05344" lon="6.90635">
        <ele>1021.7</ele>
        <time>2022-05-28T10:36:48Z</time>
      </trkpt>
      <trkpt lat="48.05337" lon="6.90644">
        <ele>1021.7</ele>
        <time>2022-05-28T10:36:51Z</time>
      </trkpt>
      <trkpt lat="48.05329" lon="6.90656">
        <ele>1022.2</ele>
        <time>2022-05-28T10:36:55Z</time>
      </trkpt>
      <trkpt lat="48.05321" lon="6.90663">
        <ele>1022.2</ele>
        <time>2022-05-28T10:36:59Z</time>
      </trkpt>
      <trkpt lat="48.05311" lon="6.90669">
        <ele>1021.8</ele>
        <time>2022-05-28T10:37:03Z</time>
      </trkpt>
      <trkpt lat="48.05301" lon="6.9068">
        <ele>1022.3</ele>
        <time>2022-05-28T10:37:07Z</time>
      </trkpt>
      <trkpt lat="48.05292" lon="6.9069">
        <ele>1022.3</ele>
        <time>2022-05-28T10:37:11Z</time>
      </trkpt>
      <trkpt lat="48.05283" lon="6.90695">
        <ele>1023</ele>
        <time>2022-05-28T10:37:15Z</time>
      </trkpt>
      <trkpt lat="48.05273" lon="6.90695">
        <ele>1025.2</ele>
        <time>2022-05-28T10:37:20Z</time>
      </trkpt>
      <trkpt lat="48.05263" lon="6.90695">
        <ele>1025.8</ele>
        <time>2022-05-28T10:37:26Z</time>
      </trkpt>
      <trkpt lat="48.05253" lon="6.90697">
        <ele>1026.4</ele>
        <time>2022-05-28T10:37:31Z</time>
      </trkpt>
      <trkpt lat="48.05242" lon="6.90702">
        <ele>1026.1</ele>
        <time>2022-05-28T10:37:36Z</time>
      </trkpt>
      <trkpt lat="48.05232" lon="6.90706">
        <ele>1028.1</ele>
        <time>2022-05-28T10:37:41Z</time>
      </trkpt>
      <trkpt lat="48.05222" lon="6.90708">
        <ele>1028.4</ele>
        <time>2022-05-28T10:37:46Z</time>
      </trkpt>
      <trkpt lat="48.05211" lon="6.90709">
        <ele>1029.2</ele>
        <time>2022-05-28T10:37:51Z</time>
      </trkpt>
      <trkpt lat="48.05202" lon="6.90711">
        <ele>1030</ele>
        <time>2022-05-28T10:37:55Z</time>
      </trkpt>
      <trkpt lat="48.05192" lon="6.90708">
        <ele>1030.6</ele>
        <time>2022-05-28T10:37:59Z</time>
      </trkpt>
      <trkpt lat="48.05181" lon="6.90707">
        <ele>1030.2</ele>
        <time>2022-05-28T10:38:03Z</time>
      </trkpt>
      <trkpt lat="48.05171" lon="6.90707">
        <ele>1031.1</ele>
        <time>2022-05-28T10:38:07Z</time>
      </trkpt>
      <trkpt lat="48.0516" lon="6.90706">
        <ele>1032.3</ele>
        <time>2022-05-28T10:38:12Z</time>
      </trkpt>
      <trkpt lat="48.0515" lon="6.90707">
        <ele>1032.5</ele>
        <time>2022-05-28T10:38:16Z</time>
      </trkpt>
      <trkpt lat="48.0514" lon="6.90711">
        <ele>1033</ele>
        <time>2022-05-28T10:38:21Z</time>
      </trkpt>
      <trkpt lat="48.05129" lon="6.90719">
        <ele>1035.1</ele>
        <time>2022-05-28T10:38:26Z</time>
      </trkpt>
      <trkpt lat="48.05121" lon="6.90726">
        <ele>1034.7</ele>
        <time>2022-05-28T10:38:30Z</time>
      </trkpt>
      <trkpt lat="48.05112" lon="6.90733">
        <ele>1034.6</ele>
        <time>2022-05-28T10:38:35Z</time>
      </trkpt>
      <trkpt lat="48.05101" lon="6.90741">
        <ele>1035.7</ele>
        <time>2022-05-28T10:38:40Z</time>
      </trkpt>
      <trkpt lat="48.05092" lon="6.90746">
        <ele>1034.3</ele>
        <time>2022-05-28T10:38:43Z</time>
      </trkpt>
      <trkpt lat="48.05082" lon="6.90752">
        <ele>1034.9</ele>
        <time>2022-05-28T10:38:46Z</time>
      </trkpt>
      <trkpt lat="48.05075" lon="6.90761">
        <ele>1034.7</ele>
        <time>2022-05-28T10:38:49Z</time>
      </trkpt>
      <trkpt lat="48.0507" lon="6.90775">
        <ele>1035.4</ele>
        <time>2022-05-28T10:38:52Z</time>
      </trkpt>
      <trkpt lat="48.05068" lon="6.9079">
        <ele>1034.9</ele>
        <time>2022-05-28T10:38:55Z</time>
      </trkpt>
      <trkpt lat="48.05069" lon="6.90806">
        <ele>1035.7</ele>
        <time>2022-05-28T10:38:58Z</time>
      </trkpt>
      <trkpt lat="48.0507" lon="6.90821">
        <ele>1035.3</ele>
        <time>2022-05-28T10:39:01Z</time>
      </trkpt>
      <trkpt lat="48.05071" lon="6.90837">
        <ele>1036</ele>
        <time>2022-05-28T10:39:04Z</time>
      </trkpt>
      <trkpt lat="48.05073" lon="6.90852">
        <ele>1035.2</ele>
        <time>2022-05-28T10:39:07Z</time>
      </trkpt>
      <trkpt lat="48.05077" lon="6.90869">
        <ele>1034.3</ele>
        <time>2022-05-28T10:39:10Z</time>
      </trkpt>
      <trkpt lat="48.0508" lon="6.90882">
        <ele>1034.4</ele>
        <time>2022-05-28T10:39:12Z</time>
      </trkpt>
      <trkpt lat="48.05083" lon="6.90897">
        <ele>1033.2</ele>
        <time>2022-05-28T10:39:14Z</time>
      </trkpt>
      <trkpt lat="48.05088" lon="6.90913">
        <ele>1031.6</ele>
        <time>2022-05-28T10:39:16Z</time>
      </trkpt>
      <trkpt lat="48.05093" lon="6.90931">
        <ele>1032.6</ele>
        <time>2022-05-28T10:39:18Z</time>
      </trkpt>
      <trkpt lat="48.05099" lon="6.90949">
        <ele>1030.7</ele>
        <time>2022-05-28T10:39:20Z</time>
      </trkpt>
      <trkpt lat="48.05104" lon="6.90964">
        <ele>1031.7</ele>
        <time>2022-05-28T10:39:22Z</time>
      </trkpt>
      <trkpt lat="48.05109" lon="6.9098">
        <ele>1032.6</ele>
        <time>2022-05-28T10:39:25Z</time>
      </trkpt>
      <trkpt lat="48.05112" lon="6.90996">
        <ele>1033.7</ele>
        <time>2022-05-28T10:39:29Z</time>
      </trkpt>
      <trkpt lat="48.05114" lon="6.91011">
        <ele>1035.5</ele>
        <time>2022-05-28T10:39:33Z</time>
      </trkpt>
      <trkpt lat="48.05114" lon="6.91026">
        <ele>1037</ele>
        <time>2022-05-28T10:39:37Z</time>
      </trkpt>
      <trkpt lat="48.05119" lon="6.91039">
        <ele>1039.3</ele>
        <time>2022-05-28T10:39:42Z</time>
      </trkpt>
      <trkpt lat="48.05124" lon="6.91052">
        <ele>1041</ele>
        <time>2022-05-28T10:39:48Z</time>
      </trkpt>
      <trkpt lat="48.05126" lon="6.91065">
        <ele>1042.1</ele>
        <time>2022-05-28T10:39:54Z</time>
      </trkpt>
      <trkpt lat="48.05129" lon="6.91079">
        <ele>1043.5</ele>
        <time>2022-05-28T10:40:00Z</time>
      </trkpt>
      <trkpt lat="48.05132" lon="6.91092">
        <ele>1044.4</ele>
        <time>2022-05-28T10:40:05Z</time>
      </trkpt>
      <trkpt lat="48.05134" lon="6.91108">
        <ele>1045</ele>
        <time>2022-05-28T10:40:11Z</time>
      </trkpt>
      <trkpt lat="48.05135" lon="6.91122">
        <ele>1046.3</ele>
        <time>2022-05-28T10:40:17Z</time>
      </trkpt>
      <trkpt lat="48.05136" lon="6.91137">
        <ele>1047.5</ele>
        <time>2022-05-28T10:40:23Z</time>
      </trkpt>
      <trkpt lat="48.05136" lon="6.91152">
        <ele>1048.5</ele>
        <time>2022-05-28T10:40:29Z</time>
      </trkpt>
      <trkpt lat="48.05136" lon="6.91168">
        <ele>1049.6</ele>
        <time>2022-05-28T10:40:35Z</time>
      </trkpt>
      <trkpt lat="48.05135" lon="6.91184">
        <ele>1050.1</ele>
        <time>2022-05-28T10:40:41Z</time>
      </trkpt>
      <trkpt lat="48.05134" lon="6.91197">
        <ele>1051.2</ele>
        <time>2022-05-28T10:40:47Z</time>
      </trkpt>
      <trkpt lat="48.05132" lon="6.91213">
        <ele>1052.2</ele>
        <time>2022-05-28T10:40:53Z</time>
      </trkpt>
      <trkpt lat="48.05131" lon="6.91229">
        <ele>1052.4</ele>
        <time>2022-05-28T10:40:58Z</time>
      </trkpt>
      <trkpt lat="48.05131" lon="6.91244">
        <ele>1053.8</ele>
        <time>2022-05-28T10:41:03Z</time>
      </trkpt>
      <trkpt lat="48.05129" lon="6.91259">
        <ele>1054.5</ele>
        <time>2022-05-28T10:41:07Z</time>
      </trkpt>
      <trkpt lat="48.05126" lon="6.91272">
        <ele>1055.1</ele>
        <time>2022-05-28T10:41:11Z</time>
      </trkpt>
      <trkpt lat="48.05123" lon="6.91288">
        <ele>1055.2</ele>
        <time>2022-05-28T10:41:16Z</time>
      </trkpt>
      <trkpt lat="48.0512" lon="6.91301">
        <ele>1056.7</ele>
        <time>2022-05-28T10:41:20Z</time>
      </trkpt>
      <trkpt lat="48.05116" lon="6.91316">
        <ele>1056.7</ele>
        <time>2022-05-28T10:41:24Z</time>
      </trkpt>
      <trkpt lat="48.05112" lon="6.9133">
        <ele>1057.9</ele>
        <time>2022-05-28T10:41:29Z</time>
      </trkpt>
      <trkpt lat="48.05108" lon="6.91346">
        <ele>1058.3</ele>
        <time>2022-05-28T10:41:34Z</time>
      </trkpt>
      <trkpt lat="48.05104" lon="6.9136">
        <ele>1059.4</ele>
        <time>2022-05-28T10:41:38Z</time>
      </trkpt>
      <trkpt lat="48.05098" lon="6.91374">
        <ele>1059.2</ele>
        <time>2022-05-28T10:41:42Z</time>
      </trkpt>
      <trkpt lat="48.05091" lon="6.91386">
        <ele>1061.7</ele>
        <time>2022-05-28T10:41:46Z</time>
      </trkpt>
      <trkpt lat="48.05083" lon="6.91395">
        <ele>1062.4</ele>
        <time>2022-05-28T10:41:51Z</time>
      </trkpt>
      <trkpt lat="48.05074" lon="6.91403">
        <ele>1064</ele>
        <time>2022-05-28T10:41:56Z</time>
      </trkpt>
      <trkpt lat="48.05065" lon="6.91408">
        <ele>1064.7</ele>
        <time>2022-05-28T10:42:00Z</time>
      </trkpt>
      <trkpt lat="48.05057" lon="6.91413">
        <ele>1064.4</ele>
        <time>2022-05-28T10:42:04Z</time>
      </trkpt>
      <trkpt lat="48.05048" lon="6.91418">
        <ele>1063.9</ele>
        <time>2022-05-28T10:42:08Z</time>
      </trkpt>
      <trkpt lat="48.0504" lon="6.91424">
        <ele>1063.3</ele>
        <time>2022-05-28T10:42:11Z</time>
      </trkpt>
      <trkpt lat="48.0503" lon="6.91434">
        <ele>1062.7</ele>
        <time>2022-05-28T10:42:14Z</time>
      </trkpt>
      <trkpt lat="48.05022" lon="6.91446">
        <ele>1061.6</ele>
        <time>2022-05-28T10:42:17Z</time>
      </trkpt>
      <trkpt lat="48.05013" lon="6.91456">
        <ele>1062.2</ele>
        <time>2022-05-28T10:42:20Z</time>
      </trkpt>
      <trkpt lat="48.05005" lon="6.91464">
        <ele>1062.5</ele>
        <time>2022-05-28T10:42:23Z</time>
      </trkpt>
      <trkpt lat="48.04997" lon="6.91473">
        <ele>1062.9</ele>
        <time>2022-05-28T10:42:26Z</time>
      </trkpt>
      <trkpt lat="48.04989" lon="6.91483">
        <ele>1063</ele>
        <time>2022-05-28T10:42:29Z</time>
      </trkpt>
      <trkpt lat="48.0498" lon="6.91493">
        <ele>1063.8</ele>
        <time>2022-05-28T10:42:32Z</time>
      </trkpt>
      <trkpt lat="48.04972" lon="6.91502">
        <ele>1063.7</ele>
        <time>2022-05-28T10:42:35Z</time>
      </trkpt>
      <trkpt lat="48.04964" lon="6.91509">
        <ele>1063.3</ele>
        <time>2022-05-28T10:42:38Z</time>
      </trkpt>
      <trkpt lat="48.04955" lon="6.91521">
        <ele>1061.5</ele>
        <time>2022-05-28T10:42:42Z</time>
      </trkpt>
      <trkpt lat="48.04947" lon="6.91533">
        <ele>1060.4</ele>
        <time>2022-05-28T10:42:45Z</time>
      </trkpt>
      <trkpt lat="48.04942" lon="6.91547">
        <ele>1062.2</ele>
        <time>2022-05-28T10:42:48Z</time>
      </trkpt>
      <trkpt lat="48.04936" lon="6.91563">
        <ele>1060.4</ele>
        <time>2022-05-28T10:42:51Z</time>
      </trkpt>
      <trkpt lat="48.04931" lon="6.91578">
        <ele>1060.9</ele>
        <time>2022-05-28T10:42:54Z</time>
      </trkpt>
      <trkpt lat="48.04926" lon="6.91591">
        <ele>1063.5</ele>
        <time>2022-05-28T10:42:57Z</time>
      </trkpt>
      <trkpt lat="48.04921" lon="6.91608">
        <ele>1065.1</ele>
        <time>2022-05-28T10:43:01Z</time>
      </trkpt>
      <trkpt lat="48.04918" lon="6.91622">
        <ele>1063.4</ele>
        <time>2022-05-28T10:43:04Z</time>
      </trkpt>
      <trkpt lat="48.04915" lon="6.91636">
        <ele>1062.6</ele>
        <time>2022-05-28T10:43:07Z</time>
      </trkpt>
      <trkpt lat="48.04913" lon="6.91651">
        <ele>1063.5</ele>
        <time>2022-05-28T10:43:10Z</time>
      </trkpt>
      <trkpt lat="48.04911" lon="6.91664">
        <ele>1063.9</ele>
        <time>2022-05-28T10:43:13Z</time>
      </trkpt>
      <trkpt lat="48.04908" lon="6.9168">
        <ele>1065</ele>
        <time>2022-05-28T10:43:17Z</time>
      </trkpt>
      <trkpt lat="48.04905" lon="6.91694">
        <ele>1065</ele>
        <time>2022-05-28T10:43:21Z</time>
      </trkpt>
      <trkpt lat="48.049" lon="6.91706">
        <ele>1064.7</ele>
        <time>2022-05-28T10:43:24Z</time>
      </trkpt>
      <trkpt lat="48.04897" lon="6.9172">
        <ele>1064.3</ele>
        <time>2022-05-28T10:43:27Z</time>
      </trkpt>
      <trkpt lat="48.04894" lon="6.91735">
        <ele>1064.7</ele>
        <time>2022-05-28T10:43:30Z</time>
      </trkpt>
      <trkpt lat="48.04891" lon="6.91748">
        <ele>1065.2</ele>
        <time>2022-05-28T10:43:33Z</time>
      </trkpt>
      <trkpt lat="48.04888" lon="6.91762">
        <ele>1066.1</ele>
        <time>2022-05-28T10:43:36Z</time>
      </trkpt>
      <trkpt lat="48.04885" lon="6.91777">
        <ele>1065.1</ele>
        <time>2022-05-28T10:43:40Z</time>
      </trkpt>
      <trkpt lat="48.04882" lon="6.91791">
        <ele>1063.8</ele>
        <time>2022-05-28T10:43:43Z</time>
      </trkpt>
      <trkpt lat="48.04878" lon="6.91806">
        <ele>1063.7</ele>
        <time>2022-05-28T10:43:46Z</time>
      </trkpt>
      <trkpt lat="48.04876" lon="6.9182">
        <ele>1061.8</ele>
        <time>2022-05-28T10:43:48Z</time>
      </trkpt>
      <trkpt lat="48.04874" lon="6.91837">
        <ele>1061.7</ele>
        <time>2022-05-28T10:43:50Z</time>
      </trkpt>
      <trkpt lat="48.04874" lon="6.91857">
        <ele>1060.4</ele>
        <time>2022-05-28T10:43:52Z</time>
      </trkpt>
      <trkpt lat="48.04876" lon="6.91879">
        <ele>1060.7</ele>
        <time>2022-05-28T10:43:54Z</time>
      </trkpt>
      <trkpt lat="48.04876" lon="6.919">
        <ele>1060.4</ele>
        <time>2022-05-28T10:43:56Z</time>
      </trkpt>
      <trkpt lat="48.04875" lon="6.91919">
        <ele>1058.7</ele>
        <time>2022-05-28T10:43:58Z</time>
      </trkpt>
      <trkpt lat="48.04877" lon="6.91934">
        <ele>1060.4</ele>
        <time>2022-05-28T10:44:00Z</time>
      </trkpt>
      <trkpt lat="48.04879" lon="6.91949">
        <ele>1060.8</ele>
        <time>2022-05-28T10:44:02Z</time>
      </trkpt>
      <trkpt lat="48.04878" lon="6.91965">
        <ele>1060.5</ele>
        <time>2022-05-28T10:44:04Z</time>
      </trkpt>
      <trkpt lat="48.04876" lon="6.9198">
        <ele>1059.1</ele>
        <time>2022-05-28T10:44:06Z</time>
      </trkpt>
      <trkpt lat="48.04874" lon="6.91996">
        <ele>1059.1</ele>
        <time>2022-05-28T10:44:08Z</time>
      </trkpt>
      <trkpt lat="48.04872" lon="6.9201">
        <ele>1060.7</ele>
        <time>2022-05-28T10:44:10Z</time>
      </trkpt>
      <trkpt lat="48.04869" lon="6.92028">
        <ele>1061.8</ele>
        <time>2022-05-28T10:44:13Z</time>
      </trkpt>
      <trkpt lat="48.04863" lon="6.92041">
        <ele>1063.5</ele>
        <time>2022-05-28T10:44:16Z</time>
      </trkpt>
      <trkpt lat="48.04853" lon="6.92052">
        <ele>1062.7</ele>
        <time>2022-05-28T10:44:19Z</time>
      </trkpt>
      <trkpt lat="48.04845" lon="6.92058">
        <ele>1062.8</ele>
        <time>2022-05-28T10:44:22Z</time>
      </trkpt>
      <trkpt lat="48.04835" lon="6.92056">
        <ele>1064.1</ele>
        <time>2022-05-28T10:44:29Z</time>
      </trkpt>
      <trkpt lat="48.04827" lon="6.92048">
        <ele>1064.9</ele>
        <time>2022-05-28T10:44:34Z</time>
      </trkpt>
      <trkpt lat="48.04821" lon="6.92038">
        <ele>1065.7</ele>
        <time>2022-05-28T10:44:39Z</time>
      </trkpt>
      <trkpt lat="48.04816" lon="6.92024">
        <ele>1066.6</ele>
        <time>2022-05-28T10:44:43Z</time>
      </trkpt>
      <trkpt lat="48.04812" lon="6.92011">
        <ele>1067.8</ele>
        <time>2022-05-28T10:44:47Z</time>
      </trkpt>
      <trkpt lat="48.04809" lon="6.91998">
        <ele>1070.1</ele>
        <time>2022-05-28T10:44:53Z</time>
      </trkpt>
      <trkpt lat="48.04805" lon="6.91986">
        <ele>1070.9</ele>
        <time>2022-05-28T10:45:00Z</time>
      </trkpt>
      <trkpt lat="48.04801" lon="6.91972">
        <ele>1071.9</ele>
        <time>2022-05-28T10:45:07Z</time>
      </trkpt>
      <trkpt lat="48.04796" lon="6.91959">
        <ele>1072.9</ele>
        <time>2022-05-28T10:45:14Z</time>
      </trkpt>
      <trkpt lat="48.04791" lon="6.91945">
        <ele>1073.1</ele>
        <time>2022-05-28T10:45:22Z</time>
      </trkpt>
      <trkpt lat="48.04791" lon="6.91931">
        <ele>1073.8</ele>
        <time>2022-05-28T10:45:29Z</time>
      </trkpt>
      <trkpt lat="48.04789" lon="6.91916">
        <ele>1076</ele>
        <time>2022-05-28T10:45:37Z</time>
      </trkpt>
      <trkpt lat="48.04786" lon="6.91903">
        <ele>1079</ele>
        <time>2022-05-28T10:45:43Z</time>
      </trkpt>
      <trkpt lat="48.04783" lon="6.91889">
        <ele>1080.5</ele>
        <time>2022-05-28T10:45:51Z</time>
      </trkpt>
      <trkpt lat="48.04782" lon="6.91875">
        <ele>1082</ele>
        <time>2022-05-28T10:45:59Z</time>
      </trkpt>
      <trkpt lat="48.04784" lon="6.91861">
        <ele>1084.4</ele>
        <time>2022-05-28T10:46:07Z</time>
      </trkpt>
      <trkpt lat="48.04783" lon="6.91846">
        <ele>1085.6</ele>
        <time>2022-05-28T10:46:15Z</time>
      </trkpt>
      <trkpt lat="48.04774" lon="6.91848">
        <ele>1086.4</ele>
        <time>2022-05-28T10:46:23Z</time>
      </trkpt>
      <trkpt lat="48.04764" lon="6.91854">
        <ele>1087.6</ele>
        <time>2022-05-28T10:46:30Z</time>
      </trkpt>
      <trkpt lat="48.04756" lon="6.9186">
        <ele>1088.3</ele>
        <time>2022-05-28T10:46:34Z</time>
      </trkpt>
      <trkpt lat="48.04748" lon="6.9187">
        <ele>1089.6</ele>
        <time>2022-05-28T10:46:40Z</time>
      </trkpt>
      <trkpt lat="48.04739" lon="6.91878">
        <ele>1091.3</ele>
        <time>2022-05-28T10:46:47Z</time>
      </trkpt>
      <trkpt lat="48.04731" lon="6.91886">
        <ele>1093</ele>
        <time>2022-05-28T10:46:53Z</time>
      </trkpt>
      <trkpt lat="48.04723" lon="6.91895">
        <ele>1095.9</ele>
        <time>2022-05-28T10:46:59Z</time>
      </trkpt>
      <trkpt lat="48.04716" lon="6.91902">
        <ele>1097.6</ele>
        <time>2022-05-28T10:47:04Z</time>
      </trkpt>
      <trkpt lat="48.04707" lon="6.91911">
        <ele>1098.5</ele>
        <time>2022-05-28T10:47:13Z</time>
      </trkpt>
      <trkpt lat="48.04699" lon="6.91918">
        <ele>1099.5</ele>
        <time>2022-05-28T10:47:22Z</time>
      </trkpt>
      <trkpt lat="48.04691" lon="6.91926">
        <ele>1100.4</ele>
        <time>2022-05-28T10:47:29Z</time>
      </trkpt>
      <trkpt lat="48.04681" lon="6.91929">
        <ele>1102.2</ele>
        <time>2022-05-28T10:47:40Z</time>
      </trkpt>
      <trkpt lat="48.04672" lon="6.9193">
        <ele>1103.7</ele>
        <time>2022-05-28T10:47:47Z</time>
      </trkpt>
      <trkpt lat="48.04662" lon="6.91929">
        <ele>1106.1</ele>
        <time>2022-05-28T10:47:53Z</time>
      </trkpt>
      <trkpt lat="48.04652" lon="6.91926">
        <ele>1108.3</ele>
        <time>2022-05-28T10:48:00Z</time>
      </trkpt>
      <trkpt lat="48.04643" lon="6.91926">
        <ele>1109.4</ele>
        <time>2022-05-28T10:48:06Z</time>
      </trkpt>
      <trkpt lat="48.04633" lon="6.91924">
        <ele>1110.5</ele>
        <time>2022-05-28T10:48:13Z</time>
      </trkpt>
      <trkpt lat="48.04624" lon="6.91922">
        <ele>1112.5</ele>
        <time>2022-05-28T10:48:20Z</time>
      </trkpt>
      <trkpt lat="48.04614" lon="6.91922">
        <ele>1113</ele>
        <time>2022-05-28T10:48:26Z</time>
      </trkpt>
      <trkpt lat="48.04605" lon="6.91923">
        <ele>1115.2</ele>
        <time>2022-05-28T10:48:32Z</time>
      </trkpt>
      <trkpt lat="48.04595" lon="6.91923">
        <ele>1115.3</ele>
        <time>2022-05-28T10:48:37Z</time>
      </trkpt>
      <trkpt lat="48.04585" lon="6.91924">
        <ele>1114.3</ele>
        <time>2022-05-28T10:48:42Z</time>
      </trkpt>
      <trkpt lat="48.04573" lon="6.91928">
        <ele>1113.9</ele>
        <time>2022-05-28T10:48:45Z</time>
      </trkpt>
      <trkpt lat="48.04561" lon="6.91928">
        <ele>1114.9</ele>
        <time>2022-05-28T10:48:48Z</time>
      </trkpt>
      <trkpt lat="48.0455" lon="6.9193">
        <ele>1114.8</ele>
        <time>2022-05-28T10:48:51Z</time>
      </trkpt>
      <trkpt lat="48.04539" lon="6.9193">
        <ele>1115.4</ele>
        <time>2022-05-28T10:48:55Z</time>
      </trkpt>
      <trkpt lat="48.0453" lon="6.91934">
        <ele>1115.5</ele>
        <time>2022-05-28T10:48:59Z</time>
      </trkpt>
      <trkpt lat="48.04519" lon="6.91934">
        <ele>1116.5</ele>
        <time>2022-05-28T10:49:04Z</time>
      </trkpt>
      <trkpt lat="48.04509" lon="6.91933">
        <ele>1119.3</ele>
        <time>2022-05-28T10:49:09Z</time>
      </trkpt>
      <trkpt lat="48.045" lon="6.91927">
        <ele>1121.1</ele>
        <time>2022-05-28T10:49:15Z</time>
      </trkpt>
      <trkpt lat="48.04491" lon="6.9192">
        <ele>1122.4</ele>
        <time>2022-05-28T10:49:21Z</time>
      </trkpt>
      <trkpt lat="48.04488" lon="6.91907">
        <ele>1123.8</ele>
        <time>2022-05-28T10:49:29Z</time>
      </trkpt>
      <trkpt lat="48.04493" lon="6.91895">
        <ele>1125</ele>
        <time>2022-05-28T10:49:37Z</time>
      </trkpt>
      <trkpt lat="48.04501" lon="6.91891">
        <ele>1126.9</ele>
        <time>2022-05-28T10:49:45Z</time>
      </trkpt>
      <trkpt lat="48.04509" lon="6.91882">
        <ele>1129.7</ele>
        <time>2022-05-28T10:49:55Z</time>
      </trkpt>
      <trkpt lat="48.04517" lon="6.91872">
        <ele>1131.5</ele>
        <time>2022-05-28T10:50:02Z</time>
      </trkpt>
      <trkpt lat="48.04524" lon="6.91863">
        <ele>1132.9</ele>
        <time>2022-05-28T10:50:10Z</time>
      </trkpt>
      <trkpt lat="48.04535" lon="6.91858">
        <ele>1132.9</ele>
        <time>2022-05-28T10:50:17Z</time>
      </trkpt>
      <trkpt lat="48.04544" lon="6.91851">
        <ele>1133.4</ele>
        <time>2022-05-28T10:50:22Z</time>
      </trkpt>
      <trkpt lat="48.04552" lon="6.91843">
        <ele>1135</ele>
        <time>2022-05-28T10:50:26Z</time>
      </trkpt>
      <trkpt lat="48.04561" lon="6.91837">
        <ele>1135.1</ele>
        <time>2022-05-28T10:50:31Z</time>
      </trkpt>
      <trkpt lat="48.04567" lon="6.91826">
        <ele>1135.5</ele>
        <time>2022-05-28T10:50:35Z</time>
      </trkpt>
      <trkpt lat="48.04575" lon="6.91816">
        <ele>1136.2</ele>
        <time>2022-05-28T10:50:40Z</time>
      </trkpt>
      <trkpt lat="48.04582" lon="6.91805">
        <ele>1137.5</ele>
        <time>2022-05-28T10:50:45Z</time>
      </trkpt>
      <trkpt lat="48.04582" lon="6.91789">
        <ele>1138.8</ele>
        <time>2022-05-28T10:50:50Z</time>
      </trkpt>
      <trkpt lat="48.04584" lon="6.91776">
        <ele>1139.9</ele>
        <time>2022-05-28T10:50:55Z</time>
      </trkpt>
      <trkpt lat="48.0459" lon="6.91763">
        <ele>1141.1</ele>
        <time>2022-05-28T10:51:00Z</time>
      </trkpt>
      <trkpt lat="48.04598" lon="6.91752">
        <ele>1141</ele>
        <time>2022-05-28T10:51:04Z</time>
      </trkpt>
      <trkpt lat="48.04606" lon="6.91739">
        <ele>1140.4</ele>
        <time>2022-05-28T10:51:08Z</time>
      </trkpt>
      <trkpt lat="48.04613" lon="6.9173">
        <ele>1139.1</ele>
        <time>2022-05-28T10:51:11Z</time>
      </trkpt>
      <trkpt lat="48.0462" lon="6.91721">
        <ele>1139.2</ele>
        <time>2022-05-28T10:51:14Z</time>
      </trkpt>
      <trkpt lat="48.04628" lon="6.91712">
        <ele>1139.6</ele>
        <time>2022-05-28T10:51:17Z</time>
      </trkpt>
      <trkpt lat="48.04635" lon="6.91704">
        <ele>1141</ele>
        <time>2022-05-28T10:51:20Z</time>
      </trkpt>
      <trkpt lat="48.04644" lon="6.91696">
        <ele>1141.7</ele>
        <time>2022-05-28T10:51:25Z</time>
      </trkpt>
      <trkpt lat="48.04653" lon="6.9169">
        <ele>1143.8</ele>
        <time>2022-05-28T10:51:31Z</time>
      </trkpt>
      <trkpt lat="48.04661" lon="6.91684">
        <ele>1146.2</ele>
        <time>2022-05-28T10:51:37Z</time>
      </trkpt>
      <trkpt lat="48.04669" lon="6.91676">
        <ele>1147.6</ele>
        <time>2022-05-28T10:51:44Z</time>
      </trkpt>
      <trkpt lat="48.04675" lon="6.91666">
        <ele>1148.5</ele>
        <time>2022-05-28T10:51:51Z</time>
      </trkpt>
      <trkpt lat="48.04682" lon="6.91662">
        <ele>1149.7</ele>
        <time>2022-05-28T10:52:00Z</time>
      </trkpt>
      <trkpt lat="48.04681" lon="6.91662">
        <ele>1149.7</ele>
        <time>2022-05-28T10:52:01Z</time>
      </trkpt>
      <trkpt lat="48.04673" lon="6.91669">
        <ele>1148.9</ele>
        <time>2022-05-28T10:52:15Z</time>
      </trkpt>
      <trkpt lat="48.04673" lon="6.91674">
        <ele>1147.9</ele>
        <time>2022-05-28T10:52:24Z</time>
      </trkpt>
      <trkpt lat="48.04674" lon="6.91674">
        <ele>1147.6</ele>
        <time>2022-05-28T10:56:16Z</time>
      </trkpt>
      <trkpt lat="48.04673" lon="6.91674">
        <ele>1147.2</ele>
        <time>2022-05-28T10:57:38Z</time>
      </trkpt>
      <trkpt lat="48.04664" lon="6.91678">
        <ele>1147.1</ele>
        <time>2022-05-28T10:57:50Z</time>
      </trkpt>
      <trkpt lat="48.04663" lon="6.91677">
        <ele>1146.9</ele>
        <time>2022-05-28T10:57:59Z</time>
      </trkpt>
      <trkpt lat="48.04663" lon="6.91678">
        <ele>1146.2</ele>
        <time>2022-05-28T10:58:05Z</time>
      </trkpt>
      <trkpt lat="48.04653" lon="6.91686">
        <ele>1144.8</ele>
        <time>2022-05-28T10:58:11Z</time>
      </trkpt>
      <trkpt lat="48.04642" lon="6.91693">
        <ele>1141</ele>
        <time>2022-05-28T10:58:14Z</time>
      </trkpt>
      <trkpt lat="48.04633" lon="6.91692">
        <ele>1140</ele>
        <time>2022-05-28T10:58:20Z</time>
      </trkpt>
      <trkpt lat="48.04641" lon="6.91685">
        <ele>1141</ele>
        <time>2022-05-28T10:58:34Z</time>
      </trkpt>
      <trkpt lat="48.04648" lon="6.91673">
        <ele>1141.9</ele>
        <time>2022-05-28T10:58:40Z</time>
      </trkpt>
      <trkpt lat="48.04651" lon="6.91659">
        <ele>1140.4</ele>
        <time>2022-05-28T10:58:46Z</time>
      </trkpt>
      <trkpt lat="48.04649" lon="6.91643">
        <ele>1140.8</ele>
        <time>2022-05-28T10:58:52Z</time>
      </trkpt>
      <trkpt lat="48.04644" lon="6.91638">
        <ele>1140.5</ele>
        <time>2022-05-28T10:58:57Z</time>
      </trkpt>
      <trkpt lat="48.04644" lon="6.91637">
        <ele>1140.4</ele>
        <time>2022-05-28T10:59:04Z</time>
      </trkpt>
      <trkpt lat="48.04643" lon="6.91637">
        <ele>1140.3</ele>
        <time>2022-05-28T10:59:07Z</time>
      </trkpt>
      <trkpt lat="48.04645" lon="6.91637">
        <ele>1140</ele>
        <time>2022-05-28T10:59:13Z</time>
      </trkpt>
      <trkpt lat="48.04645" lon="6.91637">
        <ele>1140.3</ele>
        <time>2022-05-28T10:59:22Z</time>
      </trkpt>
      <trkpt lat="48.04655" lon="6.91634">
        <ele>1140.5</ele>
        <time>2022-05-28T10:59:39Z</time>
      </trkpt>
      <trkpt lat="48.04664" lon="6.9163">
        <ele>1140.6</ele>
        <time>2022-05-28T10:59:48Z</time>
      </trkpt>
      <trkpt lat="48.04673" lon="6.91626">
        <ele>1140.3</ele>
        <time>2022-05-28T10:59:56Z</time>
      </trkpt>
      <trkpt lat="48.04676" lon="6.9163">
        <ele>1140.8</ele>
        <time>2022-05-28T11:00:04Z</time>
      </trkpt>
      <trkpt lat="48.04675" lon="6.9163">
        <ele>1141.1</ele>
        <time>2022-05-28T11:00:18Z</time>
      </trkpt>
      <trkpt lat="48.04668" lon="6.9164">
        <ele>1142.4</ele>
        <time>2022-05-28T11:00:28Z</time>
      </trkpt>
      <trkpt lat="48.04669" lon="6.9164">
        <ele>1142.8</ele>
        <time>2022-05-28T11:00:30Z</time>
      </trkpt>
      <trkpt lat="48.04668" lon="6.9164">
        <ele>1142.8</ele>
        <time>2022-05-28T11:00:36Z</time>
      </trkpt>
      <trkpt lat="48.04664" lon="6.91653">
        <ele>1144.2</ele>
        <time>2022-05-28T11:01:14Z</time>
      </trkpt>
      <trkpt lat="48.04667" lon="6.91666">
        <ele>1146.1</ele>
        <time>2022-05-28T11:01:24Z</time>
      </trkpt>
      <trkpt lat="48.0467" lon="6.91672">
        <ele>1146.3</ele>
        <time>2022-05-28T11:01:38Z</time>
      </trkpt>
      <trkpt lat="48.0467" lon="6.91672">
        <ele>1144.6</ele>
        <time>2022-05-28T11:18:19Z</time>
      </trkpt>
      <trkpt lat="48.04669" lon="6.91672">
        <ele>1145</ele>
        <time>2022-05-28T11:25:11Z</time>
      </trkpt>
      <trkpt lat="48.04669" lon="6.91672">
        <ele>1145.6</ele>
        <time>2022-05-28T11:28:41Z</time>
      </trkpt>
      <trkpt lat="48.04668" lon="6.91672">
        <ele>1145.2</ele>
        <time>2022-05-28T11:30:38Z</time>
      </trkpt>
      <trkpt lat="48.04668" lon="6.91672">
        <ele>1145.7</ele>
        <time>2022-05-28T11:31:05Z</time>
      </trkpt>
      <trkpt lat="48.04668" lon="6.91671">
        <ele>1146</ele>
        <time>2022-05-28T11:31:16Z</time>
      </trkpt>
      <trkpt lat="48.04672" lon="6.91671">
        <ele>1145.8</ele>
        <time>2022-05-28T11:31:25Z</time>
      </trkpt>
      <trkpt lat="48.04673" lon="6.91671">
        <ele>1145.8</ele>
        <time>2022-05-28T11:31:26Z</time>
      </trkpt>
      <trkpt lat="48.04673" lon="6.91671">
        <ele>1145.6</ele>
        <time>2022-05-28T11:33:06Z</time>
      </trkpt>
      <trkpt lat="48.04673" lon="6.91672">
        <ele>1145.3</ele>
        <time>2022-05-28T11:36:30Z</time>
      </trkpt>
      <trkpt lat="48.04674" lon="6.91672">
        <ele>1143.5</ele>
        <time>2022-05-28T11:45:07Z</time>
      </trkpt>
      <trkpt lat="48.04674" lon="6.91672">
        <ele>1143.2</ele>
        <time>2022-05-28T11:47:28Z</time>
      </trkpt>
      <trkpt lat="48.04674" lon="6.91672">
        <ele>1143.7</ele>
        <time>2022-05-28T11:55:17Z</time>
      </trkpt>
      <trkpt lat="48.04669" lon="6.91674">
        <ele>1144.4</ele>
        <time>2022-05-28T11:55:54Z</time>
      </trkpt>
      <trkpt lat="48.04669" lon="6.91675">
        <ele>1144.6</ele>
        <time>2022-05-28T11:58:00Z</time>
      </trkpt>
      <trkpt lat="48.0467" lon="6.91675">
        <ele>1144.1</ele>
        <time>2022-05-28T11:58:03Z</time>
      </trkpt>
      <trkpt lat="48.04671" lon="6.91678">
        <ele>1144</ele>
        <time>2022-05-28T11:58:11Z</time>
      </trkpt>
      <trkpt lat="48.04672" lon="6.91678">
        <ele>1144</ele>
        <time>2022-05-28T11:58:25Z</time>
      </trkpt>
      <trkpt lat="48.04672" lon="6.91677">
        <ele>1144.2</ele>
        <time>2022-05-28T11:58:43Z</time>
      </trkpt>
      <trkpt lat="48.04671" lon="6.91676">
        <ele>1144.2</ele>
        <time>2022-05-28T11:58:45Z</time>
      </trkpt>
      <trkpt lat="48.04671" lon="6.91675">
        <ele>1144.3</ele>
        <time>2022-05-28T11:59:11Z</time>
      </trkpt>
      <trkpt lat="48.04671" lon="6.91674">
        <ele>1145.2</ele>
        <time>2022-05-28T12:01:09Z</time>
      </trkpt>
      <trkpt lat="48.04671" lon="6.91675">
        <ele>1144.9</ele>
        <time>2022-05-28T12:02:16Z</time>
      </trkpt>
      <trkpt lat="48.04666" lon="6.91685">
        <ele>1144.7</ele>
        <time>2022-05-28T12:02:35Z</time>
      </trkpt>
      <trkpt lat="48.04665" lon="6.91685">
        <ele>1144.6</ele>
        <time>2022-05-28T12:02:47Z</time>
      </trkpt>
      <trkpt lat="48.04666" lon="6.91685">
        <ele>1144.6</ele>
        <time>2022-05-28T12:02:56Z</time>
      </trkpt>
      <trkpt lat="48.04666" lon="6.91684">
        <ele>1144.5</ele>
        <time>2022-05-28T12:03:06Z</time>
      </trkpt>
      <trkpt lat="48.04665" lon="6.91683">
        <ele>1144.7</ele>
        <time>2022-05-28T12:03:11Z</time>
      </trkpt>
      <trkpt lat="48.04665" lon="6.91682">
        <ele>1144.5</ele>
        <time>2022-05-28T12:03:13Z</time>
      </trkpt>
      <trkpt lat="48.04665" lon="6.91667">
        <ele>1144.5</ele>
        <time>2022-05-28T12:03:22Z</time>
      </trkpt>
      <trkpt lat="48.04661" lon="6.91681">
        <ele>1143.1</ele>
        <time>2022-05-28T12:03:39Z</time>
      </trkpt>
      <trkpt lat="48.04652" lon="6.91689">
        <ele>1140.4</ele>
        <time>2022-05-28T12:03:42Z</time>
      </trkpt>
      <trkpt lat="48.04643" lon="6.91687">
        <ele>1140.4</ele>
        <time>2022-05-28T12:03:46Z</time>
      </trkpt>
      <trkpt lat="48.04648" lon="6.91673">
        <ele>1139.6</ele>
        <time>2022-05-28T12:03:51Z</time>
      </trkpt>
      <trkpt lat="48.04651" lon="6.91658">
        <ele>1139.4</ele>
        <time>2022-05-28T12:03:57Z</time>
      </trkpt>
      <trkpt lat="48.04652" lon="6.91644">
        <ele>1139.2</ele>
        <time>2022-05-28T12:04:02Z</time>
      </trkpt>
      <trkpt lat="48.0465" lon="6.91629">
        <ele>1138.4</ele>
        <time>2022-05-28T12:04:07Z</time>
      </trkpt>
      <trkpt lat="48.0465" lon="6.9162">
        <ele>1137.7</ele>
        <time>2022-05-28T12:04:13Z</time>
      </trkpt>
      <trkpt lat="48.04649" lon="6.9162">
        <ele>1138.1</ele>
        <time>2022-05-28T12:04:21Z</time>
      </trkpt>
      <trkpt lat="48.04649" lon="6.91619">
        <ele>1137.7</ele>
        <time>2022-05-28T12:05:06Z</time>
      </trkpt>
      <trkpt lat="48.04651" lon="6.91602">
        <ele>1134.2</ele>
        <time>2022-05-28T12:05:11Z</time>
      </trkpt>
      <trkpt lat="48.04654" lon="6.91586">
        <ele>1135.4</ele>
        <time>2022-05-28T12:05:14Z</time>
      </trkpt>
      <trkpt lat="48.04661" lon="6.9157">
        <ele>1133.9</ele>
        <time>2022-05-28T12:05:17Z</time>
      </trkpt>
      <trkpt lat="48.04666" lon="6.91556">
        <ele>1132.9</ele>
        <time>2022-05-28T12:05:19Z</time>
      </trkpt>
      <trkpt lat="48.04671" lon="6.91543">
        <ele>1130.7</ele>
        <time>2022-05-28T12:05:21Z</time>
      </trkpt>
      <trkpt lat="48.04679" lon="6.91533">
        <ele>1126.8</ele>
        <time>2022-05-28T12:05:23Z</time>
      </trkpt>
      <trkpt lat="48.04687" lon="6.91524">
        <ele>1123.6</ele>
        <time>2022-05-28T12:05:25Z</time>
      </trkpt>
      <trkpt lat="48.04697" lon="6.91511">
        <ele>1123.5</ele>
        <time>2022-05-28T12:05:28Z</time>
      </trkpt>
      <trkpt lat="48.04705" lon="6.91502">
        <ele>1122</ele>
        <time>2022-05-28T12:05:30Z</time>
      </trkpt>
      <trkpt lat="48.04715" lon="6.91487">
        <ele>1120.4</ele>
        <time>2022-05-28T12:05:32Z</time>
      </trkpt>
      <trkpt lat="48.04725" lon="6.91468">
        <ele>1115.5</ele>
        <time>2022-05-28T12:05:34Z</time>
      </trkpt>
      <trkpt lat="48.04735" lon="6.91448">
        <ele>1112.7</ele>
        <time>2022-05-28T12:05:36Z</time>
      </trkpt>
      <trkpt lat="48.04742" lon="6.91438">
        <ele>1111.8</ele>
        <time>2022-05-28T12:05:37Z</time>
      </trkpt>
      <trkpt lat="48.04749" lon="6.91428">
        <ele>1110.9</ele>
        <time>2022-05-28T12:05:38Z</time>
      </trkpt>
      <trkpt lat="48.04756" lon="6.91418">
        <ele>1113.5</ele>
        <time>2022-05-28T12:05:39Z</time>
      </trkpt>
      <trkpt lat="48.04767" lon="6.91401">
        <ele>1113.3</ele>
        <time>2022-05-28T12:05:41Z</time>
      </trkpt>
      <trkpt lat="48.04778" lon="6.91381">
        <ele>1113.5</ele>
        <time>2022-05-28T12:05:43Z</time>
      </trkpt>
      <trkpt lat="48.04786" lon="6.91367">
        <ele>1115.5</ele>
        <time>2022-05-28T12:05:45Z</time>
      </trkpt>
      <trkpt lat="48.04793" lon="6.91356">
        <ele>1116.4</ele>
        <time>2022-05-28T12:05:47Z</time>
      </trkpt>
      <trkpt lat="48.04803" lon="6.91343">
        <ele>1115.8</ele>
        <time>2022-05-28T12:05:50Z</time>
      </trkpt>
      <trkpt lat="48.04811" lon="6.91331">
        <ele>1116.7</ele>
        <time>2022-05-28T12:05:53Z</time>
      </trkpt>
      <trkpt lat="48.04818" lon="6.91321">
        <ele>1116.2</ele>
        <time>2022-05-28T12:05:56Z</time>
      </trkpt>
      <trkpt lat="48.04826" lon="6.91309">
        <ele>1117.9</ele>
        <time>2022-05-28T12:06:00Z</time>
      </trkpt>
      <trkpt lat="48.04829" lon="6.91294">
        <ele>1119.5</ele>
        <time>2022-05-28T12:06:04Z</time>
      </trkpt>
      <trkpt lat="48.04831" lon="6.91278">
        <ele>1120</ele>
        <time>2022-05-28T12:06:08Z</time>
      </trkpt>
      <trkpt lat="48.04828" lon="6.91263">
        <ele>1119.5</ele>
        <time>2022-05-28T12:06:13Z</time>
      </trkpt>
      <trkpt lat="48.04818" lon="6.91262">
        <ele>1119.7</ele>
        <time>2022-05-28T12:06:18Z</time>
      </trkpt>
      <trkpt lat="48.04808" lon="6.91259">
        <ele>1118.9</ele>
        <time>2022-05-28T12:06:24Z</time>
      </trkpt>
      <trkpt lat="48.04796" lon="6.91253">
        <ele>1117.9</ele>
        <time>2022-05-28T12:06:28Z</time>
      </trkpt>
      <trkpt lat="48.04787" lon="6.91248">
        <ele>1117.6</ele>
        <time>2022-05-28T12:06:30Z</time>
      </trkpt>
      <trkpt lat="48.04778" lon="6.91246">
        <ele>1114.8</ele>
        <time>2022-05-28T12:06:32Z</time>
      </trkpt>
      <trkpt lat="48.04764" lon="6.91245">
        <ele>1113.5</ele>
        <time>2022-05-28T12:06:35Z</time>
      </trkpt>
      <trkpt lat="48.04755" lon="6.91245">
        <ele>1113.5</ele>
        <time>2022-05-28T12:06:37Z</time>
      </trkpt>
      <trkpt lat="48.04745" lon="6.91238">
        <ele>1112.3</ele>
        <time>2022-05-28T12:06:40Z</time>
      </trkpt>
      <trkpt lat="48.04737" lon="6.91228">
        <ele>1111.6</ele>
        <time>2022-05-28T12:06:43Z</time>
      </trkpt>
      <trkpt lat="48.0473" lon="6.91219">
        <ele>1108.5</ele>
        <time>2022-05-28T12:06:46Z</time>
      </trkpt>
      <trkpt lat="48.04723" lon="6.91208">
        <ele>1106.8</ele>
        <time>2022-05-28T12:06:49Z</time>
      </trkpt>
      <trkpt lat="48.04717" lon="6.91196">
        <ele>1103.9</ele>
        <time>2022-05-28T12:06:52Z</time>
      </trkpt>
      <trkpt lat="48.04713" lon="6.91182">
        <ele>1105.3</ele>
        <time>2022-05-28T12:06:55Z</time>
      </trkpt>
      <trkpt lat="48.0471" lon="6.91166">
        <ele>1103.7</ele>
        <time>2022-05-28T12:06:58Z</time>
      </trkpt>
      <trkpt lat="48.04702" lon="6.91155">
        <ele>1102.2</ele>
        <time>2022-05-28T12:07:01Z</time>
      </trkpt>
      <trkpt lat="48.04691" lon="6.91149">
        <ele>1100.9</ele>
        <time>2022-05-28T12:07:04Z</time>
      </trkpt>
      <trkpt lat="48.04681" lon="6.91146">
        <ele>1100.4</ele>
        <time>2022-05-28T12:07:06Z</time>
      </trkpt>
      <trkpt lat="48.04672" lon="6.91141">
        <ele>1100.1</ele>
        <time>2022-05-28T12:07:08Z</time>
      </trkpt>
      <trkpt lat="48.04662" lon="6.91138">
        <ele>1099.2</ele>
        <time>2022-05-28T12:07:10Z</time>
      </trkpt>
      <trkpt lat="48.0465" lon="6.91135">
        <ele>1097.3</ele>
        <time>2022-05-28T12:07:12Z</time>
      </trkpt>
      <trkpt lat="48.04637" lon="6.91137">
        <ele>1096.2</ele>
        <time>2022-05-28T12:07:14Z</time>
      </trkpt>
      <trkpt lat="48.04625" lon="6.91143">
        <ele>1096.1</ele>
        <time>2022-05-28T12:07:16Z</time>
      </trkpt>
      <trkpt lat="48.04614" lon="6.91148">
        <ele>1094.9</ele>
        <time>2022-05-28T12:07:18Z</time>
      </trkpt>
      <trkpt lat="48.04604" lon="6.91149">
        <ele>1093.3</ele>
        <time>2022-05-28T12:07:20Z</time>
      </trkpt>
      <trkpt lat="48.04592" lon="6.91146">
        <ele>1093.2</ele>
        <time>2022-05-28T12:07:22Z</time>
      </trkpt>
      <trkpt lat="48.04582" lon="6.91146">
        <ele>1092.3</ele>
        <time>2022-05-28T12:07:24Z</time>
      </trkpt>
      <trkpt lat="48.04573" lon="6.91146">
        <ele>1091.8</ele>
        <time>2022-05-28T12:07:27Z</time>
      </trkpt>
      <trkpt lat="48.04567" lon="6.91131">
        <ele>1090.8</ele>
        <time>2022-05-28T12:07:32Z</time>
      </trkpt>
      <trkpt lat="48.04566" lon="6.91115">
        <ele>1090.4</ele>
        <time>2022-05-28T12:07:35Z</time>
      </trkpt>
      <trkpt lat="48.04567" lon="6.91099">
        <ele>1087.8</ele>
        <time>2022-05-28T12:07:38Z</time>
      </trkpt>
      <trkpt lat="48.04572" lon="6.9108">
        <ele>1088.4</ele>
        <time>2022-05-28T12:07:41Z</time>
      </trkpt>
      <trkpt lat="48.04579" lon="6.91067">
        <ele>1086.8</ele>
        <time>2022-05-28T12:07:43Z</time>
      </trkpt>
      <trkpt lat="48.04587" lon="6.91053">
        <ele>1087.7</ele>
        <time>2022-05-28T12:07:45Z</time>
      </trkpt>
      <trkpt lat="48.04597" lon="6.91038">
        <ele>1085.2</ele>
        <time>2022-05-28T12:07:47Z</time>
      </trkpt>
      <trkpt lat="48.04607" lon="6.91022">
        <ele>1082.8</ele>
        <time>2022-05-28T12:07:49Z</time>
      </trkpt>
      <trkpt lat="48.04617" lon="6.91006">
        <ele>1082.6</ele>
        <time>2022-05-28T12:07:51Z</time>
      </trkpt>
      <trkpt lat="48.04626" lon="6.90992">
        <ele>1082.4</ele>
        <time>2022-05-28T12:07:53Z</time>
      </trkpt>
      <trkpt lat="48.04635" lon="6.90981">
        <ele>1084.2</ele>
        <time>2022-05-28T12:07:55Z</time>
      </trkpt>
      <trkpt lat="48.04643" lon="6.9097">
        <ele>1082</ele>
        <time>2022-05-28T12:07:57Z</time>
      </trkpt>
      <trkpt lat="48.04651" lon="6.90962">
        <ele>1082.7</ele>
        <time>2022-05-28T12:07:59Z</time>
      </trkpt>
      <trkpt lat="48.0466" lon="6.90951">
        <ele>1083.8</ele>
        <time>2022-05-28T12:08:01Z</time>
      </trkpt>
      <trkpt lat="48.04667" lon="6.90941">
        <ele>1083.6</ele>
        <time>2022-05-28T12:08:03Z</time>
      </trkpt>
      <trkpt lat="48.04678" lon="6.90934">
        <ele>1086.2</ele>
        <time>2022-05-28T12:08:05Z</time>
      </trkpt>
      <trkpt lat="48.0469" lon="6.90929">
        <ele>1084.2</ele>
        <time>2022-05-28T12:08:07Z</time>
      </trkpt>
      <trkpt lat="48.047" lon="6.90923">
        <ele>1083.8</ele>
        <time>2022-05-28T12:08:09Z</time>
      </trkpt>
      <trkpt lat="48.04709" lon="6.90916">
        <ele>1085.1</ele>
        <time>2022-05-28T12:08:11Z</time>
      </trkpt>
      <trkpt lat="48.04718" lon="6.9091">
        <ele>1084.7</ele>
        <time>2022-05-28T12:08:13Z</time>
      </trkpt>
      <trkpt lat="48.04729" lon="6.90902">
        <ele>1086.2</ele>
        <time>2022-05-28T12:08:16Z</time>
      </trkpt>
      <trkpt lat="48.0474" lon="6.90895">
        <ele>1086</ele>
        <time>2022-05-28T12:08:19Z</time>
      </trkpt>
      <trkpt lat="48.04748" lon="6.90886">
        <ele>1085.3</ele>
        <time>2022-05-28T12:08:22Z</time>
      </trkpt>
      <trkpt lat="48.04755" lon="6.90873">
        <ele>1086.5</ele>
        <time>2022-05-28T12:08:25Z</time>
      </trkpt>
      <trkpt lat="48.04764" lon="6.90861">
        <ele>1086.3</ele>
        <time>2022-05-28T12:08:28Z</time>
      </trkpt>
      <trkpt lat="48.04773" lon="6.9085">
        <ele>1086</ele>
        <time>2022-05-28T12:08:31Z</time>
      </trkpt>
      <trkpt lat="48.04782" lon="6.90839">
        <ele>1087.8</ele>
        <time>2022-05-28T12:08:34Z</time>
      </trkpt>
      <trkpt lat="48.04787" lon="6.90825">
        <ele>1086</ele>
        <time>2022-05-28T12:08:36Z</time>
      </trkpt>
      <trkpt lat="48.04792" lon="6.90811">
        <ele>1085.2</ele>
        <time>2022-05-28T12:08:38Z</time>
      </trkpt>
      <trkpt lat="48.04796" lon="6.90798">
        <ele>1083.6</ele>
        <time>2022-05-28T12:08:40Z</time>
      </trkpt>
      <trkpt lat="48.048" lon="6.90785">
        <ele>1083</ele>
        <time>2022-05-28T12:08:42Z</time>
      </trkpt>
      <trkpt lat="48.04808" lon="6.90775">
        <ele>1080.9</ele>
        <time>2022-05-28T12:08:44Z</time>
      </trkpt>
      <trkpt lat="48.04815" lon="6.90765">
        <ele>1082.1</ele>
        <time>2022-05-28T12:08:46Z</time>
      </trkpt>
      <trkpt lat="48.04823" lon="6.90754">
        <ele>1080.5</ele>
        <time>2022-05-28T12:08:48Z</time>
      </trkpt>
      <trkpt lat="48.04829" lon="6.90742">
        <ele>1080.8</ele>
        <time>2022-05-28T12:08:50Z</time>
      </trkpt>
      <trkpt lat="48.04836" lon="6.90729">
        <ele>1082.7</ele>
        <time>2022-05-28T12:08:52Z</time>
      </trkpt>
      <trkpt lat="48.04839" lon="6.9071">
        <ele>1083.6</ele>
        <time>2022-05-28T12:08:54Z</time>
      </trkpt>
      <trkpt lat="48.04844" lon="6.90696">
        <ele>1082.3</ele>
        <time>2022-05-28T12:08:56Z</time>
      </trkpt>
      <trkpt lat="48.04847" lon="6.90682">
        <ele>1082.3</ele>
        <time>2022-05-28T12:08:58Z</time>
      </trkpt>
      <trkpt lat="48.04851" lon="6.90664">
        <ele>1083.5</ele>
        <time>2022-05-28T12:09:01Z</time>
      </trkpt>
      <trkpt lat="48.04855" lon="6.90648">
        <ele>1080.3</ele>
        <time>2022-05-28T12:09:04Z</time>
      </trkpt>
      <trkpt lat="48.04859" lon="6.90635">
        <ele>1080.8</ele>
        <time>2022-05-28T12:09:07Z</time>
      </trkpt>
      <trkpt lat="48.04863" lon="6.90618">
        <ele>1077.7</ele>
        <time>2022-05-28T12:09:11Z</time>
      </trkpt>
      <trkpt lat="48.04866" lon="6.90599">
        <ele>1076.1</ele>
        <time>2022-05-28T12:09:14Z</time>
      </trkpt>
      <trkpt lat="48.04866" lon="6.90584">
        <ele>1077.4</ele>
        <time>2022-05-28T12:09:16Z</time>
      </trkpt>
      <trkpt lat="48.04868" lon="6.9056">
        <ele>1077.3</ele>
        <time>2022-05-28T12:09:18Z</time>
      </trkpt>
      <trkpt lat="48.04869" lon="6.90545">
        <ele>1076</ele>
        <time>2022-05-28T12:09:19Z</time>
      </trkpt>
      <trkpt lat="48.04871" lon="6.9053">
        <ele>1076.3</ele>
        <time>2022-05-28T12:09:20Z</time>
      </trkpt>
      <trkpt lat="48.04871" lon="6.90516">
        <ele>1074</ele>
        <time>2022-05-28T12:09:21Z</time>
      </trkpt>
      <trkpt lat="48.04872" lon="6.90498">
        <ele>1074.4</ele>
        <time>2022-05-28T12:09:22Z</time>
      </trkpt>
      <trkpt lat="48.0487" lon="6.90473">
        <ele>1074.8</ele>
        <time>2022-05-28T12:09:24Z</time>
      </trkpt>
      <trkpt lat="48.04869" lon="6.90448">
        <ele>1069.9</ele>
        <time>2022-05-28T12:09:26Z</time>
      </trkpt>
      <trkpt lat="48.04867" lon="6.90423">
        <ele>1066.1</ele>
        <time>2022-05-28T12:09:28Z</time>
      </trkpt>
      <trkpt lat="48.04869" lon="6.90393">
        <ele>1068.4</ele>
        <time>2022-05-28T12:09:30Z</time>
      </trkpt>
      <trkpt lat="48.0487" lon="6.90377">
        <ele>1068.5</ele>
        <time>2022-05-28T12:09:31Z</time>
      </trkpt>
      <trkpt lat="48.0487" lon="6.90363">
        <ele>1069.4</ele>
        <time>2022-05-28T12:09:32Z</time>
      </trkpt>
      <trkpt lat="48.04871" lon="6.90347">
        <ele>1066</ele>
        <time>2022-05-28T12:09:33Z</time>
      </trkpt>
      <trkpt lat="48.04873" lon="6.90333">
        <ele>1064.9</ele>
        <time>2022-05-28T12:09:34Z</time>
      </trkpt>
      <trkpt lat="48.04874" lon="6.90318">
        <ele>1065.5</ele>
        <time>2022-05-28T12:09:35Z</time>
      </trkpt>
      <trkpt lat="48.04874" lon="6.90302">
        <ele>1062.8</ele>
        <time>2022-05-28T12:09:36Z</time>
      </trkpt>
      <trkpt lat="48.04876" lon="6.90287">
        <ele>1062.6</ele>
        <time>2022-05-28T12:09:37Z</time>
      </trkpt>
      <trkpt lat="48.04877" lon="6.90273">
        <ele>1060.4</ele>
        <time>2022-05-28T12:09:38Z</time>
      </trkpt>
      <trkpt lat="48.04878" lon="6.90258">
        <ele>1058.3</ele>
        <time>2022-05-28T12:09:39Z</time>
      </trkpt>
      <trkpt lat="48.04878" lon="6.90243">
        <ele>1058.5</ele>
        <time>2022-05-28T12:09:40Z</time>
      </trkpt>
      <trkpt lat="48.04877" lon="6.90227">
        <ele>1058</ele>
        <time>2022-05-28T12:09:41Z</time>
      </trkpt>
      <trkpt lat="48.04877" lon="6.90211">
        <ele>1056.5</ele>
        <time>2022-05-28T12:09:42Z</time>
      </trkpt>
      <trkpt lat="48.04877" lon="6.90197">
        <ele>1052.9</ele>
        <time>2022-05-28T12:09:43Z</time>
      </trkpt>
      <trkpt lat="48.04877" lon="6.90182">
        <ele>1051</ele>
        <time>2022-05-28T12:09:44Z</time>
      </trkpt>
      <trkpt lat="48.04883" lon="6.90156">
        <ele>1053.3</ele>
        <time>2022-05-28T12:09:46Z</time>
      </trkpt>
      <trkpt lat="48.04887" lon="6.90143">
        <ele>1054.4</ele>
        <time>2022-05-28T12:09:47Z</time>
      </trkpt>
      <trkpt lat="48.04891" lon="6.9013">
        <ele>1054.3</ele>
        <time>2022-05-28T12:09:48Z</time>
      </trkpt>
      <trkpt lat="48.04894" lon="6.90115">
        <ele>1052.9</ele>
        <time>2022-05-28T12:09:49Z</time>
      </trkpt>
      <trkpt lat="48.04897" lon="6.90101">
        <ele>1052.8</ele>
        <time>2022-05-28T12:09:50Z</time>
      </trkpt>
      <trkpt lat="48.04903" lon="6.90075">
        <ele>1053.5</ele>
        <time>2022-05-28T12:09:52Z</time>
      </trkpt>
      <trkpt lat="48.04906" lon="6.90062">
        <ele>1053.6</ele>
        <time>2022-05-28T12:09:53Z</time>
      </trkpt>
      <trkpt lat="48.04908" lon="6.90048">
        <ele>1053.6</ele>
        <time>2022-05-28T12:09:54Z</time>
      </trkpt>
      <trkpt lat="48.0491" lon="6.90034">
        <ele>1054.7</ele>
        <time>2022-05-28T12:09:55Z</time>
      </trkpt>
      <trkpt lat="48.04913" lon="6.90021">
        <ele>1054.1</ele>
        <time>2022-05-28T12:09:56Z</time>
      </trkpt>
      <trkpt lat="48.04918" lon="6.89996">
        <ele>1054.3</ele>
        <time>2022-05-28T12:09:58Z</time>
      </trkpt>
      <trkpt lat="48.04922" lon="6.89971">
        <ele>1055.2</ele>
        <time>2022-05-28T12:10:00Z</time>
      </trkpt>
      <trkpt lat="48.04925" lon="6.89945">
        <ele>1053.3</ele>
        <time>2022-05-28T12:10:02Z</time>
      </trkpt>
      <trkpt lat="48.04929" lon="6.89922">
        <ele>1052.8</ele>
        <time>2022-05-28T12:10:04Z</time>
      </trkpt>
      <trkpt lat="48.04933" lon="6.89898">
        <ele>1052.3</ele>
        <time>2022-05-28T12:10:06Z</time>
      </trkpt>
      <trkpt lat="48.04935" lon="6.89873">
        <ele>1052.4</ele>
        <time>2022-05-28T12:10:08Z</time>
      </trkpt>
      <trkpt lat="48.04939" lon="6.8985">
        <ele>1053.2</ele>
        <time>2022-05-28T12:10:10Z</time>
      </trkpt>
      <trkpt lat="48.04943" lon="6.89828">
        <ele>1054.4</ele>
        <time>2022-05-28T12:10:12Z</time>
      </trkpt>
      <trkpt lat="48.04947" lon="6.89808">
        <ele>1053.1</ele>
        <time>2022-05-28T12:10:14Z</time>
      </trkpt>
      <trkpt lat="48.04952" lon="6.89791">
        <ele>1054.4</ele>
        <time>2022-05-28T12:10:16Z</time>
      </trkpt>
      <trkpt lat="48.04956" lon="6.89775">
        <ele>1054.8</ele>
        <time>2022-05-28T12:10:18Z</time>
      </trkpt>
      <trkpt lat="48.0496" lon="6.89761">
        <ele>1056.7</ele>
        <time>2022-05-28T12:10:20Z</time>
      </trkpt>
      <trkpt lat="48.04965" lon="6.89743">
        <ele>1056.2</ele>
        <time>2022-05-28T12:10:23Z</time>
      </trkpt>
      <trkpt lat="48.0497" lon="6.89726">
        <ele>1058.6</ele>
        <time>2022-05-28T12:10:26Z</time>
      </trkpt>
      <trkpt lat="48.04973" lon="6.8971">
        <ele>1057.2</ele>
        <time>2022-05-28T12:10:29Z</time>
      </trkpt>
      <trkpt lat="48.04978" lon="6.89697">
        <ele>1059.2</ele>
        <time>2022-05-28T12:10:32Z</time>
      </trkpt>
      <trkpt lat="48.04983" lon="6.89685">
        <ele>1058.5</ele>
        <time>2022-05-28T12:10:35Z</time>
      </trkpt>
      <trkpt lat="48.0499" lon="6.89676">
        <ele>1059.1</ele>
        <time>2022-05-28T12:10:38Z</time>
      </trkpt>
      <trkpt lat="48.04999" lon="6.89667">
        <ele>1058.4</ele>
        <time>2022-05-28T12:10:41Z</time>
      </trkpt>
      <trkpt lat="48.0501" lon="6.89658">
        <ele>1058.1</ele>
        <time>2022-05-28T12:10:44Z</time>
      </trkpt>
      <trkpt lat="48.05018" lon="6.89651">
        <ele>1057.3</ele>
        <time>2022-05-28T12:10:46Z</time>
      </trkpt>
      <trkpt lat="48.05028" lon="6.89643">
        <ele>1055.3</ele>
        <time>2022-05-28T12:10:48Z</time>
      </trkpt>
      <trkpt lat="48.05039" lon="6.89638">
        <ele>1055</ele>
        <time>2022-05-28T12:10:50Z</time>
      </trkpt>
      <trkpt lat="48.0505" lon="6.89636">
        <ele>1051.8</ele>
        <time>2022-05-28T12:10:52Z</time>
      </trkpt>
      <trkpt lat="48.05064" lon="6.89633">
        <ele>1049.8</ele>
        <time>2022-05-28T12:10:54Z</time>
      </trkpt>
      <trkpt lat="48.05082" lon="6.89631">
        <ele>1048.3</ele>
        <time>2022-05-28T12:10:56Z</time>
      </trkpt>
      <trkpt lat="48.05091" lon="6.89629">
        <ele>1049.5</ele>
        <time>2022-05-28T12:10:57Z</time>
      </trkpt>
      <trkpt lat="48.05101" lon="6.89626">
        <ele>1047.1</ele>
        <time>2022-05-28T12:10:58Z</time>
      </trkpt>
      <trkpt lat="48.05111" lon="6.89624">
        <ele>1044.4</ele>
        <time>2022-05-28T12:10:59Z</time>
      </trkpt>
      <trkpt lat="48.05122" lon="6.89621">
        <ele>1043.8</ele>
        <time>2022-05-28T12:11:00Z</time>
      </trkpt>
      <trkpt lat="48.05133" lon="6.89618">
        <ele>1046</ele>
        <time>2022-05-28T12:11:01Z</time>
      </trkpt>
      <trkpt lat="48.05143" lon="6.89615">
        <ele>1044.3</ele>
        <time>2022-05-28T12:11:02Z</time>
      </trkpt>
      <trkpt lat="48.05152" lon="6.89611">
        <ele>1042.7</ele>
        <time>2022-05-28T12:11:03Z</time>
      </trkpt>
      <trkpt lat="48.05167" lon="6.89599">
        <ele>1041.7</ele>
        <time>2022-05-28T12:11:05Z</time>
      </trkpt>
      <trkpt lat="48.05175" lon="6.89591">
        <ele>1043.3</ele>
        <time>2022-05-28T12:11:06Z</time>
      </trkpt>
      <trkpt lat="48.05183" lon="6.89583">
        <ele>1044.6</ele>
        <time>2022-05-28T12:11:07Z</time>
      </trkpt>
      <trkpt lat="48.05189" lon="6.89572">
        <ele>1042.6</ele>
        <time>2022-05-28T12:11:08Z</time>
      </trkpt>
      <trkpt lat="48.05195" lon="6.89557">
        <ele>1041.4</ele>
        <time>2022-05-28T12:11:09Z</time>
      </trkpt>
      <trkpt lat="48.05201" lon="6.89543">
        <ele>1041.1</ele>
        <time>2022-05-28T12:11:10Z</time>
      </trkpt>
      <trkpt lat="48.05207" lon="6.8953">
        <ele>1041.4</ele>
        <time>2022-05-28T12:11:11Z</time>
      </trkpt>
      <trkpt lat="48.05212" lon="6.89517">
        <ele>1040.1</ele>
        <time>2022-05-28T12:11:12Z</time>
      </trkpt>
      <trkpt lat="48.05222" lon="6.89496">
        <ele>1040.5</ele>
        <time>2022-05-28T12:11:14Z</time>
      </trkpt>
      <trkpt lat="48.05231" lon="6.89475">
        <ele>1039</ele>
        <time>2022-05-28T12:11:16Z</time>
      </trkpt>
      <trkpt lat="48.05236" lon="6.8945">
        <ele>1040.2</ele>
        <time>2022-05-28T12:11:18Z</time>
      </trkpt>
      <trkpt lat="48.05239" lon="6.89438">
        <ele>1039.1</ele>
        <time>2022-05-28T12:11:19Z</time>
      </trkpt>
      <trkpt lat="48.05243" lon="6.89425">
        <ele>1037.8</ele>
        <time>2022-05-28T12:11:20Z</time>
      </trkpt>
      <trkpt lat="48.05249" lon="6.89402">
        <ele>1036.7</ele>
        <time>2022-05-28T12:11:22Z</time>
      </trkpt>
      <trkpt lat="48.05254" lon="6.89378">
        <ele>1037.2</ele>
        <time>2022-05-28T12:11:24Z</time>
      </trkpt>
      <trkpt lat="48.05259" lon="6.89354">
        <ele>1037.4</ele>
        <time>2022-05-28T12:11:26Z</time>
      </trkpt>
      <trkpt lat="48.05264" lon="6.89331">
        <ele>1037.4</ele>
        <time>2022-05-28T12:11:28Z</time>
      </trkpt>
      <trkpt lat="48.05268" lon="6.89307">
        <ele>1035.3</ele>
        <time>2022-05-28T12:11:30Z</time>
      </trkpt>
      <trkpt lat="48.05274" lon="6.89284">
        <ele>1033.8</ele>
        <time>2022-05-28T12:11:32Z</time>
      </trkpt>
      <trkpt lat="48.0528" lon="6.89261">
        <ele>1032.8</ele>
        <time>2022-05-28T12:11:34Z</time>
      </trkpt>
      <trkpt lat="48.05287" lon="6.89242">
        <ele>1033.3</ele>
        <time>2022-05-28T12:11:36Z</time>
      </trkpt>
      <trkpt lat="48.05294" lon="6.89227">
        <ele>1033.2</ele>
        <time>2022-05-28T12:11:38Z</time>
      </trkpt>
      <trkpt lat="48.053" lon="6.89212">
        <ele>1034.7</ele>
        <time>2022-05-28T12:11:40Z</time>
      </trkpt>
      <trkpt lat="48.05303" lon="6.89198">
        <ele>1031</ele>
        <time>2022-05-28T12:11:42Z</time>
      </trkpt>
      <trkpt lat="48.05307" lon="6.89181">
        <ele>1027.1</ele>
        <time>2022-05-28T12:11:44Z</time>
      </trkpt>
      <trkpt lat="48.0531" lon="6.89159">
        <ele>1026.1</ele>
        <time>2022-05-28T12:11:46Z</time>
      </trkpt>
      <trkpt lat="48.05314" lon="6.89134">
        <ele>1025.3</ele>
        <time>2022-05-28T12:11:48Z</time>
      </trkpt>
      <trkpt lat="48.05317" lon="6.89108">
        <ele>1021</ele>
        <time>2022-05-28T12:11:50Z</time>
      </trkpt>
      <trkpt lat="48.05319" lon="6.89083">
        <ele>1020.7</ele>
        <time>2022-05-28T12:11:52Z</time>
      </trkpt>
      <trkpt lat="48.05321" lon="6.89061">
        <ele>1019.6</ele>
        <time>2022-05-28T12:11:54Z</time>
      </trkpt>
      <trkpt lat="48.05322" lon="6.89039">
        <ele>1019.2</ele>
        <time>2022-05-28T12:11:56Z</time>
      </trkpt>
      <trkpt lat="48.05321" lon="6.89023">
        <ele>1021</ele>
        <time>2022-05-28T12:11:58Z</time>
      </trkpt>
      <trkpt lat="48.05321" lon="6.89008">
        <ele>1019.1</ele>
        <time>2022-05-28T12:12:00Z</time>
      </trkpt>
      <trkpt lat="48.05321" lon="6.88994">
        <ele>1017.4</ele>
        <time>2022-05-28T12:12:02Z</time>
      </trkpt>
      <trkpt lat="48.05317" lon="6.88979">
        <ele>1017.6</ele>
        <time>2022-05-28T12:12:05Z</time>
      </trkpt>
      <trkpt lat="48.05305" lon="6.88975">
        <ele>1018.5</ele>
        <time>2022-05-28T12:12:09Z</time>
      </trkpt>
      <trkpt lat="48.05295" lon="6.88978">
        <ele>1019.6</ele>
        <time>2022-05-28T12:12:12Z</time>
      </trkpt>
      <trkpt lat="48.05286" lon="6.88984">
        <ele>1016.7</ele>
        <time>2022-05-28T12:12:15Z</time>
      </trkpt>
      <trkpt lat="48.05279" lon="6.88995">
        <ele>1015.5</ele>
        <time>2022-05-28T12:12:18Z</time>
      </trkpt>
      <trkpt lat="48.05274" lon="6.89007">
        <ele>1015.2</ele>
        <time>2022-05-28T12:12:22Z</time>
      </trkpt>
      <trkpt lat="48.05268" lon="6.89021">
        <ele>1013.8</ele>
        <time>2022-05-28T12:12:27Z</time>
      </trkpt>
      <trkpt lat="48.05262" lon="6.89033">
        <ele>1014</ele>
        <time>2022-05-28T12:12:30Z</time>
      </trkpt>
      <trkpt lat="48.05254" lon="6.8905">
        <ele>1012.4</ele>
        <time>2022-05-28T12:12:33Z</time>
      </trkpt>
      <trkpt lat="48.05247" lon="6.89065">
        <ele>1010.7</ele>
        <time>2022-05-28T12:12:35Z</time>
      </trkpt>
      <trkpt lat="48.0524" lon="6.89078">
        <ele>1010.4</ele>
        <time>2022-05-28T12:12:37Z</time>
      </trkpt>
      <trkpt lat="48.05232" lon="6.89091">
        <ele>1007.3</ele>
        <time>2022-05-28T12:12:39Z</time>
      </trkpt>
      <trkpt lat="48.05225" lon="6.89105">
        <ele>1006.5</ele>
        <time>2022-05-28T12:12:41Z</time>
      </trkpt>
      <trkpt lat="48.05216" lon="6.89117">
        <ele>1007.2</ele>
        <time>2022-05-28T12:12:43Z</time>
      </trkpt>
      <trkpt lat="48.05207" lon="6.89128">
        <ele>1003</ele>
        <time>2022-05-28T12:12:45Z</time>
      </trkpt>
      <trkpt lat="48.05195" lon="6.89142">
        <ele>1002.2</ele>
        <time>2022-05-28T12:12:47Z</time>
      </trkpt>
      <trkpt lat="48.05185" lon="6.89154">
        <ele>1001.5</ele>
        <time>2022-05-28T12:12:49Z</time>
      </trkpt>
      <trkpt lat="48.05176" lon="6.89161">
        <ele>1000.8</ele>
        <time>2022-05-28T12:12:51Z</time>
      </trkpt>
      <trkpt lat="48.05167" lon="6.89169">
        <ele>1000.2</ele>
        <time>2022-05-28T12:12:53Z</time>
      </trkpt>
      <trkpt lat="48.05159" lon="6.89181">
        <ele>998.8</ele>
        <time>2022-05-28T12:12:55Z</time>
      </trkpt>
      <trkpt lat="48.0515" lon="6.89196">
        <ele>997.5</ele>
        <time>2022-05-28T12:12:57Z</time>
      </trkpt>
      <trkpt lat="48.05141" lon="6.89211">
        <ele>999.4</ele>
        <time>2022-05-28T12:12:59Z</time>
      </trkpt>
      <trkpt lat="48.05129" lon="6.89223">
        <ele>998.6</ele>
        <time>2022-05-28T12:13:01Z</time>
      </trkpt>
      <trkpt lat="48.05116" lon="6.89235">
        <ele>996.7</ele>
        <time>2022-05-28T12:13:03Z</time>
      </trkpt>
      <trkpt lat="48.05105" lon="6.89247">
        <ele>994</ele>
        <time>2022-05-28T12:13:05Z</time>
      </trkpt>
      <trkpt lat="48.05096" lon="6.8926">
        <ele>992.9</ele>
        <time>2022-05-28T12:13:07Z</time>
      </trkpt>
      <trkpt lat="48.05086" lon="6.89272">
        <ele>994.9</ele>
        <time>2022-05-28T12:13:09Z</time>
      </trkpt>
      <trkpt lat="48.05072" lon="6.89278">
        <ele>994</ele>
        <time>2022-05-28T12:13:11Z</time>
      </trkpt>
      <trkpt lat="48.05059" lon="6.89279">
        <ele>991.9</ele>
        <time>2022-05-28T12:13:13Z</time>
      </trkpt>
      <trkpt lat="48.05047" lon="6.89276">
        <ele>993.4</ele>
        <time>2022-05-28T12:13:15Z</time>
      </trkpt>
      <trkpt lat="48.05034" lon="6.89273">
        <ele>990.9</ele>
        <time>2022-05-28T12:13:17Z</time>
      </trkpt>
      <trkpt lat="48.05023" lon="6.89271">
        <ele>993.2</ele>
        <time>2022-05-28T12:13:19Z</time>
      </trkpt>
      <trkpt lat="48.05012" lon="6.89268">
        <ele>993.3</ele>
        <time>2022-05-28T12:13:21Z</time>
      </trkpt>
      <trkpt lat="48.05002" lon="6.89267">
        <ele>994.3</ele>
        <time>2022-05-28T12:13:23Z</time>
      </trkpt>
      <trkpt lat="48.04991" lon="6.89265">
        <ele>992.9</ele>
        <time>2022-05-28T12:13:25Z</time>
      </trkpt>
      <trkpt lat="48.04979" lon="6.89263">
        <ele>992.7</ele>
        <time>2022-05-28T12:13:27Z</time>
      </trkpt>
      <trkpt lat="48.04968" lon="6.89263">
        <ele>993.2</ele>
        <time>2022-05-28T12:13:29Z</time>
      </trkpt>
      <trkpt lat="48.04956" lon="6.89264">
        <ele>993.3</ele>
        <time>2022-05-28T12:13:31Z</time>
      </trkpt>
      <trkpt lat="48.04947" lon="6.89265">
        <ele>993.5</ele>
        <time>2022-05-28T12:13:33Z</time>
      </trkpt>
      <trkpt lat="48.04935" lon="6.89267">
        <ele>995</ele>
        <time>2022-05-28T12:13:36Z</time>
      </trkpt>
      <trkpt lat="48.04925" lon="6.89272">
        <ele>998</ele>
        <time>2022-05-28T12:13:40Z</time>
      </trkpt>
      <trkpt lat="48.04916" lon="6.8928">
        <ele>998.6</ele>
        <time>2022-05-28T12:13:44Z</time>
      </trkpt>
      <trkpt lat="48.04908" lon="6.89287">
        <ele>998.6</ele>
        <time>2022-05-28T12:13:48Z</time>
      </trkpt>
      <trkpt lat="48.049" lon="6.89297">
        <ele>999.3</ele>
        <time>2022-05-28T12:13:52Z</time>
      </trkpt>
      <trkpt lat="48.04893" lon="6.89305">
        <ele>1000.5</ele>
        <time>2022-05-28T12:13:56Z</time>
      </trkpt>
      <trkpt lat="48.04886" lon="6.89316">
        <ele>999.6</ele>
        <time>2022-05-28T12:14:00Z</time>
      </trkpt>
      <trkpt lat="48.04881" lon="6.8933">
        <ele>1001.7</ele>
        <time>2022-05-28T12:14:05Z</time>
      </trkpt>
      <trkpt lat="48.04875" lon="6.89343">
        <ele>1002.5</ele>
        <time>2022-05-28T12:14:11Z</time>
      </trkpt>
      <trkpt lat="48.04871" lon="6.89357">
        <ele>1003.9</ele>
        <time>2022-05-28T12:14:17Z</time>
      </trkpt>
      <trkpt lat="48.04863" lon="6.89367">
        <ele>1005.2</ele>
        <time>2022-05-28T12:14:24Z</time>
      </trkpt>
      <trkpt lat="48.04855" lon="6.89374">
        <ele>1005.9</ele>
        <time>2022-05-28T12:14:30Z</time>
      </trkpt>
      <trkpt lat="48.04846" lon="6.89381">
        <ele>1005.6</ele>
        <time>2022-05-28T12:14:35Z</time>
      </trkpt>
      <trkpt lat="48.0484" lon="6.89395">
        <ele>1006.7</ele>
        <time>2022-05-28T12:14:39Z</time>
      </trkpt>
      <trkpt lat="48.04834" lon="6.89408">
        <ele>1005.6</ele>
        <time>2022-05-28T12:14:42Z</time>
      </trkpt>
      <trkpt lat="48.04829" lon="6.89426">
        <ele>1003.9</ele>
        <time>2022-05-28T12:14:45Z</time>
      </trkpt>
      <trkpt lat="48.04825" lon="6.89438">
        <ele>1005.4</ele>
        <time>2022-05-28T12:14:47Z</time>
      </trkpt>
      <trkpt lat="48.04821" lon="6.89455">
        <ele>1001.8</ele>
        <time>2022-05-28T12:14:50Z</time>
      </trkpt>
      <trkpt lat="48.04816" lon="6.89472">
        <ele>1000.7</ele>
        <time>2022-05-28T12:14:53Z</time>
      </trkpt>
      <trkpt lat="48.04811" lon="6.89484">
        <ele>1001.6</ele>
        <time>2022-05-28T12:14:55Z</time>
      </trkpt>
      <trkpt lat="48.04805" lon="6.89496">
        <ele>1003</ele>
        <time>2022-05-28T12:14:57Z</time>
      </trkpt>
      <trkpt lat="48.048" lon="6.89509">
        <ele>1002.7</ele>
        <time>2022-05-28T12:14:59Z</time>
      </trkpt>
      <trkpt lat="48.04793" lon="6.89524">
        <ele>1000.9</ele>
        <time>2022-05-28T12:15:01Z</time>
      </trkpt>
      <trkpt lat="48.04789" lon="6.8954">
        <ele>1001.1</ele>
        <time>2022-05-28T12:15:03Z</time>
      </trkpt>
      <trkpt lat="48.04788" lon="6.89557">
        <ele>1005</ele>
        <time>2022-05-28T12:15:05Z</time>
      </trkpt>
      <trkpt lat="48.04787" lon="6.89571">
        <ele>1001.8</ele>
        <time>2022-05-28T12:15:07Z</time>
      </trkpt>
      <trkpt lat="48.04786" lon="6.89588">
        <ele>1002.2</ele>
        <time>2022-05-28T12:15:10Z</time>
      </trkpt>
      <trkpt lat="48.04787" lon="6.89606">
        <ele>1002.5</ele>
        <time>2022-05-28T12:15:13Z</time>
      </trkpt>
      <trkpt lat="48.04786" lon="6.89621">
        <ele>1001.9</ele>
        <time>2022-05-28T12:15:16Z</time>
      </trkpt>
      <trkpt lat="48.04783" lon="6.89636">
        <ele>1003</ele>
        <time>2022-05-28T12:15:19Z</time>
      </trkpt>
      <trkpt lat="48.04779" lon="6.89654">
        <ele>1001.7</ele>
        <time>2022-05-28T12:15:22Z</time>
      </trkpt>
      <trkpt lat="48.04775" lon="6.89673">
        <ele>999.8</ele>
        <time>2022-05-28T12:15:25Z</time>
      </trkpt>
      <trkpt lat="48.04774" lon="6.89692">
        <ele>1000.5</ele>
        <time>2022-05-28T12:15:28Z</time>
      </trkpt>
      <trkpt lat="48.04776" lon="6.8971">
        <ele>1002</ele>
        <time>2022-05-28T12:15:31Z</time>
      </trkpt>
      <trkpt lat="48.04778" lon="6.89726">
        <ele>1001.2</ele>
        <time>2022-05-28T12:15:34Z</time>
      </trkpt>
      <trkpt lat="48.04778" lon="6.89741">
        <ele>1004.1</ele>
        <time>2022-05-28T12:15:37Z</time>
      </trkpt>
      <trkpt lat="48.04775" lon="6.89761">
        <ele>1004.1</ele>
        <time>2022-05-28T12:15:40Z</time>
      </trkpt>
      <trkpt lat="48.0477" lon="6.89777">
        <ele>999.2</ele>
        <time>2022-05-28T12:15:43Z</time>
      </trkpt>
      <trkpt lat="48.04763" lon="6.89789">
        <ele>1001.6</ele>
        <time>2022-05-28T12:15:46Z</time>
      </trkpt>
      <trkpt lat="48.04754" lon="6.89802">
        <ele>1000.6</ele>
        <time>2022-05-28T12:15:49Z</time>
      </trkpt>
      <trkpt lat="48.04743" lon="6.89811">
        <ele>1001.1</ele>
        <time>2022-05-28T12:15:52Z</time>
      </trkpt>
      <trkpt lat="48.04734" lon="6.89816">
        <ele>1000.3</ele>
        <time>2022-05-28T12:15:55Z</time>
      </trkpt>
      <trkpt lat="48.04723" lon="6.89821">
        <ele>997.6</ele>
        <time>2022-05-28T12:15:58Z</time>
      </trkpt>
      <trkpt lat="48.04715" lon="6.8983">
        <ele>996.8</ele>
        <time>2022-05-28T12:16:00Z</time>
      </trkpt>
      <trkpt lat="48.04704" lon="6.89838">
        <ele>996.4</ele>
        <time>2022-05-28T12:16:03Z</time>
      </trkpt>
      <trkpt lat="48.04692" lon="6.89838">
        <ele>994.6</ele>
        <time>2022-05-28T12:16:06Z</time>
      </trkpt>
      <trkpt lat="48.04682" lon="6.89841">
        <ele>995.6</ele>
        <time>2022-05-28T12:16:09Z</time>
      </trkpt>
      <trkpt lat="48.04675" lon="6.89851">
        <ele>995.7</ele>
        <time>2022-05-28T12:16:14Z</time>
      </trkpt>
      <trkpt lat="48.04666" lon="6.89861">
        <ele>995.6</ele>
        <time>2022-05-28T12:16:19Z</time>
      </trkpt>
      <trkpt lat="48.04659" lon="6.8987">
        <ele>996.4</ele>
        <time>2022-05-28T12:16:24Z</time>
      </trkpt>
      <trkpt lat="48.04651" lon="6.89876">
        <ele>995.7</ele>
        <time>2022-05-28T12:16:29Z</time>
      </trkpt>
      <trkpt lat="48.04641" lon="6.89885">
        <ele>994.9</ele>
        <time>2022-05-28T12:16:33Z</time>
      </trkpt>
      <trkpt lat="48.0463" lon="6.89895">
        <ele>992.1</ele>
        <time>2022-05-28T12:16:36Z</time>
      </trkpt>
      <trkpt lat="48.04622" lon="6.89902">
        <ele>993.7</ele>
        <time>2022-05-28T12:16:38Z</time>
      </trkpt>
      <trkpt lat="48.04613" lon="6.89909">
        <ele>994.6</ele>
        <time>2022-05-28T12:16:40Z</time>
      </trkpt>
      <trkpt lat="48.04604" lon="6.89918">
        <ele>994.2</ele>
        <time>2022-05-28T12:16:42Z</time>
      </trkpt>
      <trkpt lat="48.04595" lon="6.89929">
        <ele>995.1</ele>
        <time>2022-05-28T12:16:44Z</time>
      </trkpt>
      <trkpt lat="48.04587" lon="6.89938">
        <ele>992.9</ele>
        <time>2022-05-28T12:16:46Z</time>
      </trkpt>
      <trkpt lat="48.04578" lon="6.89948">
        <ele>991.4</ele>
        <time>2022-05-28T12:16:48Z</time>
      </trkpt>
      <trkpt lat="48.04566" lon="6.89957">
        <ele>991.5</ele>
        <time>2022-05-28T12:16:50Z</time>
      </trkpt>
      <trkpt lat="48.04555" lon="6.89962">
        <ele>991.5</ele>
        <time>2022-05-28T12:16:52Z</time>
      </trkpt>
      <trkpt lat="48.04546" lon="6.89966">
        <ele>992.2</ele>
        <time>2022-05-28T12:16:54Z</time>
      </trkpt>
      <trkpt lat="48.04535" lon="6.89974">
        <ele>992.9</ele>
        <time>2022-05-28T12:16:57Z</time>
      </trkpt>
      <trkpt lat="48.04525" lon="6.89986">
        <ele>993.6</ele>
        <time>2022-05-28T12:17:00Z</time>
      </trkpt>
      <trkpt lat="48.04518" lon="6.89999">
        <ele>991.9</ele>
        <time>2022-05-28T12:17:03Z</time>
      </trkpt>
      <trkpt lat="48.04511" lon="6.90013">
        <ele>992.9</ele>
        <time>2022-05-28T12:17:06Z</time>
      </trkpt>
      <trkpt lat="48.04504" lon="6.90026">
        <ele>993</ele>
        <time>2022-05-28T12:17:09Z</time>
      </trkpt>
      <trkpt lat="48.04497" lon="6.90037">
        <ele>993.4</ele>
        <time>2022-05-28T12:17:12Z</time>
      </trkpt>
      <trkpt lat="48.0449" lon="6.90048">
        <ele>992.6</ele>
        <time>2022-05-28T12:17:15Z</time>
      </trkpt>
      <trkpt lat="48.04481" lon="6.90061">
        <ele>992.9</ele>
        <time>2022-05-28T12:17:18Z</time>
      </trkpt>
      <trkpt lat="48.04473" lon="6.90077">
        <ele>992.7</ele>
        <time>2022-05-28T12:17:21Z</time>
      </trkpt>
      <trkpt lat="48.04465" lon="6.90089">
        <ele>993.8</ele>
        <time>2022-05-28T12:17:24Z</time>
      </trkpt>
      <trkpt lat="48.04455" lon="6.90098">
        <ele>993.1</ele>
        <time>2022-05-28T12:17:28Z</time>
      </trkpt>
      <trkpt lat="48.04447" lon="6.90105">
        <ele>992.4</ele>
        <time>2022-05-28T12:17:31Z</time>
      </trkpt>
      <trkpt lat="48.04438" lon="6.90113">
        <ele>990.8</ele>
        <time>2022-05-28T12:17:34Z</time>
      </trkpt>
      <trkpt lat="48.04427" lon="6.90123">
        <ele>991.8</ele>
        <time>2022-05-28T12:17:37Z</time>
      </trkpt>
      <trkpt lat="48.0442" lon="6.90132">
        <ele>989.5</ele>
        <time>2022-05-28T12:17:39Z</time>
      </trkpt>
      <trkpt lat="48.04412" lon="6.90141">
        <ele>990.9</ele>
        <time>2022-05-28T12:17:41Z</time>
      </trkpt>
      <trkpt lat="48.04403" lon="6.9015">
        <ele>989.4</ele>
        <time>2022-05-28T12:17:43Z</time>
      </trkpt>
      <trkpt lat="48.04395" lon="6.90159">
        <ele>988.8</ele>
        <time>2022-05-28T12:17:45Z</time>
      </trkpt>
      <trkpt lat="48.04388" lon="6.90169">
        <ele>988.6</ele>
        <time>2022-05-28T12:17:47Z</time>
      </trkpt>
      <trkpt lat="48.04382" lon="6.90182">
        <ele>988.7</ele>
        <time>2022-05-28T12:17:49Z</time>
      </trkpt>
      <trkpt lat="48.04378" lon="6.90196">
        <ele>988.4</ele>
        <time>2022-05-28T12:17:51Z</time>
      </trkpt>
      <trkpt lat="48.04372" lon="6.90212">
        <ele>992.5</ele>
        <time>2022-05-28T12:17:54Z</time>
      </trkpt>
      <trkpt lat="48.04365" lon="6.90226">
        <ele>990</ele>
        <time>2022-05-28T12:17:57Z</time>
      </trkpt>
      <trkpt lat="48.04357" lon="6.90238">
        <ele>991</ele>
        <time>2022-05-28T12:18:00Z</time>
      </trkpt>
      <trkpt lat="48.0435" lon="6.90248">
        <ele>993.6</ele>
        <time>2022-05-28T12:18:03Z</time>
      </trkpt>
      <trkpt lat="48.04344" lon="6.90259">
        <ele>993.7</ele>
        <time>2022-05-28T12:18:07Z</time>
      </trkpt>
      <trkpt lat="48.04339" lon="6.90275">
        <ele>995.1</ele>
        <time>2022-05-28T12:18:11Z</time>
      </trkpt>
      <trkpt lat="48.04335" lon="6.90289">
        <ele>994.9</ele>
        <time>2022-05-28T12:18:14Z</time>
      </trkpt>
      <trkpt lat="48.04332" lon="6.90303">
        <ele>993.9</ele>
        <time>2022-05-28T12:18:17Z</time>
      </trkpt>
      <trkpt lat="48.04326" lon="6.9032">
        <ele>992.6</ele>
        <time>2022-05-28T12:18:20Z</time>
      </trkpt>
      <trkpt lat="48.04321" lon="6.90331">
        <ele>994.2</ele>
        <time>2022-05-28T12:18:22Z</time>
      </trkpt>
      <trkpt lat="48.04316" lon="6.90342">
        <ele>994.5</ele>
        <time>2022-05-28T12:18:24Z</time>
      </trkpt>
      <trkpt lat="48.0431" lon="6.90357">
        <ele>993.5</ele>
        <time>2022-05-28T12:18:27Z</time>
      </trkpt>
      <trkpt lat="48.04306" lon="6.90369">
        <ele>993.8</ele>
        <time>2022-05-28T12:18:30Z</time>
      </trkpt>
      <trkpt lat="48.04301" lon="6.90385">
        <ele>996.2</ele>
        <time>2022-05-28T12:18:34Z</time>
      </trkpt>
      <trkpt lat="48.04297" lon="6.90401">
        <ele>994.9</ele>
        <time>2022-05-28T12:18:38Z</time>
      </trkpt>
      <trkpt lat="48.04295" lon="6.90414">
        <ele>995.6</ele>
        <time>2022-05-28T12:18:41Z</time>
      </trkpt>
      <trkpt lat="48.04293" lon="6.90427">
        <ele>996</ele>
        <time>2022-05-28T12:18:44Z</time>
      </trkpt>
      <trkpt lat="48.04291" lon="6.90442">
        <ele>995.6</ele>
        <time>2022-05-28T12:18:47Z</time>
      </trkpt>
      <trkpt lat="48.04289" lon="6.90456">
        <ele>996.2</ele>
        <time>2022-05-28T12:18:50Z</time>
      </trkpt>
      <trkpt lat="48.04287" lon="6.9047">
        <ele>995.7</ele>
        <time>2022-05-28T12:18:53Z</time>
      </trkpt>
      <trkpt lat="48.04284" lon="6.90484">
        <ele>997.5</ele>
        <time>2022-05-28T12:18:56Z</time>
      </trkpt>
      <trkpt lat="48.04283" lon="6.90499">
        <ele>996.4</ele>
        <time>2022-05-28T12:18:59Z</time>
      </trkpt>
      <trkpt lat="48.04283" lon="6.90513">
        <ele>996.4</ele>
        <time>2022-05-28T12:19:02Z</time>
      </trkpt>
      <trkpt lat="48.04286" lon="6.90529">
        <ele>999</ele>
        <time>2022-05-28T12:19:06Z</time>
      </trkpt>
      <trkpt lat="48.0429" lon="6.90543">
        <ele>1000.1</ele>
        <time>2022-05-28T12:19:10Z</time>
      </trkpt>
      <trkpt lat="48.04293" lon="6.90557">
        <ele>1001.3</ele>
        <time>2022-05-28T12:19:14Z</time>
      </trkpt>
      <trkpt lat="48.04295" lon="6.90571">
        <ele>1001.2</ele>
        <time>2022-05-28T12:19:18Z</time>
      </trkpt>
      <trkpt lat="48.04297" lon="6.90586">
        <ele>1002.6</ele>
        <time>2022-05-28T12:19:23Z</time>
      </trkpt>
      <trkpt lat="48.04299" lon="6.906">
        <ele>1002.4</ele>
        <time>2022-05-28T12:19:27Z</time>
      </trkpt>
      <trkpt lat="48.04302" lon="6.90614">
        <ele>1002.4</ele>
        <time>2022-05-28T12:19:31Z</time>
      </trkpt>
      <trkpt lat="48.04303" lon="6.90627">
        <ele>1002.8</ele>
        <time>2022-05-28T12:19:37Z</time>
      </trkpt>
      <trkpt lat="48.04301" lon="6.90641">
        <ele>1002.6</ele>
        <time>2022-05-28T12:19:45Z</time>
      </trkpt>
      <trkpt lat="48.04299" lon="6.90655">
        <ele>1003.2</ele>
        <time>2022-05-28T12:19:51Z</time>
      </trkpt>
      <trkpt lat="48.04299" lon="6.90669">
        <ele>1003</ele>
        <time>2022-05-28T12:19:56Z</time>
      </trkpt>
      <trkpt lat="48.04296" lon="6.90684">
        <ele>1002.6</ele>
        <time>2022-05-28T12:20:01Z</time>
      </trkpt>
      <trkpt lat="48.04293" lon="6.907">
        <ele>1002.4</ele>
        <time>2022-05-28T12:20:05Z</time>
      </trkpt>
      <trkpt lat="48.04289" lon="6.90715">
        <ele>1003.8</ele>
        <time>2022-05-28T12:20:09Z</time>
      </trkpt>
      <trkpt lat="48.04282" lon="6.90729">
        <ele>1003.6</ele>
        <time>2022-05-28T12:20:13Z</time>
      </trkpt>
      <trkpt lat="48.04277" lon="6.90742">
        <ele>1003.8</ele>
        <time>2022-05-28T12:20:16Z</time>
      </trkpt>
      <trkpt lat="48.04271" lon="6.90754">
        <ele>1004</ele>
        <time>2022-05-28T12:20:19Z</time>
      </trkpt>
      <trkpt lat="48.04262" lon="6.90765">
        <ele>1003.9</ele>
        <time>2022-05-28T12:20:22Z</time>
      </trkpt>
      <trkpt lat="48.04251" lon="6.90775">
        <ele>1002.9</ele>
        <time>2022-05-28T12:20:25Z</time>
      </trkpt>
      <trkpt lat="48.04239" lon="6.90784">
        <ele>1002.4</ele>
        <time>2022-05-28T12:20:28Z</time>
      </trkpt>
      <trkpt lat="48.04231" lon="6.9079">
        <ele>1002</ele>
        <time>2022-05-28T12:20:30Z</time>
      </trkpt>
      <trkpt lat="48.04222" lon="6.90796">
        <ele>1000.3</ele>
        <time>2022-05-28T12:20:32Z</time>
      </trkpt>
      <trkpt lat="48.04213" lon="6.90801">
        <ele>1001.2</ele>
        <time>2022-05-28T12:20:34Z</time>
      </trkpt>
      <trkpt lat="48.04204" lon="6.90806">
        <ele>1003.6</ele>
        <time>2022-05-28T12:20:36Z</time>
      </trkpt>
      <trkpt lat="48.04195" lon="6.90811">
        <ele>998.8</ele>
        <time>2022-05-28T12:20:38Z</time>
      </trkpt>
      <trkpt lat="48.04185" lon="6.90817">
        <ele>1000.3</ele>
        <time>2022-05-28T12:20:40Z</time>
      </trkpt>
      <trkpt lat="48.04174" lon="6.90821">
        <ele>997.5</ele>
        <time>2022-05-28T12:20:42Z</time>
      </trkpt>
      <trkpt lat="48.04162" lon="6.90823">
        <ele>996.9</ele>
        <time>2022-05-28T12:20:44Z</time>
      </trkpt>
      <trkpt lat="48.04152" lon="6.90825">
        <ele>995.3</ele>
        <time>2022-05-28T12:20:46Z</time>
      </trkpt>
      <trkpt lat="48.04141" lon="6.90827">
        <ele>998.3</ele>
        <time>2022-05-28T12:20:48Z</time>
      </trkpt>
      <trkpt lat="48.04132" lon="6.90832">
        <ele>999.1</ele>
        <time>2022-05-28T12:20:50Z</time>
      </trkpt>
      <trkpt lat="48.04123" lon="6.9084">
        <ele>998.5</ele>
        <time>2022-05-28T12:20:52Z</time>
      </trkpt>
      <trkpt lat="48.04115" lon="6.90849">
        <ele>997.5</ele>
        <time>2022-05-28T12:20:54Z</time>
      </trkpt>
      <trkpt lat="48.04106" lon="6.90857">
        <ele>997.5</ele>
        <time>2022-05-28T12:20:56Z</time>
      </trkpt>
      <trkpt lat="48.04097" lon="6.90861">
        <ele>996.8</ele>
        <time>2022-05-28T12:20:58Z</time>
      </trkpt>
      <trkpt lat="48.04088" lon="6.90864">
        <ele>997.9</ele>
        <time>2022-05-28T12:21:00Z</time>
      </trkpt>
      <trkpt lat="48.04076" lon="6.90865">
        <ele>997.2</ele>
        <time>2022-05-28T12:21:03Z</time>
      </trkpt>
      <trkpt lat="48.04063" lon="6.90862">
        <ele>999</ele>
        <time>2022-05-28T12:21:06Z</time>
      </trkpt>
      <trkpt lat="48.04054" lon="6.90857">
        <ele>998.2</ele>
        <time>2022-05-28T12:21:08Z</time>
      </trkpt>
      <trkpt lat="48.04043" lon="6.90853">
        <ele>999.9</ele>
        <time>2022-05-28T12:21:11Z</time>
      </trkpt>
      <trkpt lat="48.04032" lon="6.90848">
        <ele>1001.1</ele>
        <time>2022-05-28T12:21:14Z</time>
      </trkpt>
      <trkpt lat="48.04023" lon="6.90845">
        <ele>1001.2</ele>
        <time>2022-05-28T12:21:17Z</time>
      </trkpt>
      <trkpt lat="48.04013" lon="6.90843">
        <ele>1004.1</ele>
        <time>2022-05-28T12:21:21Z</time>
      </trkpt>
      <trkpt lat="48.04002" lon="6.90846">
        <ele>1005.8</ele>
        <time>2022-05-28T12:21:25Z</time>
      </trkpt>
      <trkpt lat="48.03992" lon="6.9085">
        <ele>1006.2</ele>
        <time>2022-05-28T12:21:28Z</time>
      </trkpt>
      <trkpt lat="48.03981" lon="6.9085">
        <ele>1005</ele>
        <time>2022-05-28T12:21:31Z</time>
      </trkpt>
      <trkpt lat="48.03971" lon="6.90842">
        <ele>1004</ele>
        <time>2022-05-28T12:21:34Z</time>
      </trkpt>
      <trkpt lat="48.03964" lon="6.90829">
        <ele>1003.3</ele>
        <time>2022-05-28T12:21:37Z</time>
      </trkpt>
      <trkpt lat="48.03963" lon="6.90815">
        <ele>1003.3</ele>
        <time>2022-05-28T12:21:39Z</time>
      </trkpt>
      <trkpt lat="48.03962" lon="6.90801">
        <ele>1003.3</ele>
        <time>2022-05-28T12:21:41Z</time>
      </trkpt>
      <trkpt lat="48.0396" lon="6.90783">
        <ele>1003.6</ele>
        <time>2022-05-28T12:21:44Z</time>
      </trkpt>
      <trkpt lat="48.03954" lon="6.90765">
        <ele>1003.7</ele>
        <time>2022-05-28T12:21:47Z</time>
      </trkpt>
      <trkpt lat="48.03949" lon="6.90754">
        <ele>1002.7</ele>
        <time>2022-05-28T12:21:49Z</time>
      </trkpt>
      <trkpt lat="48.03944" lon="6.90741">
        <ele>1003.6</ele>
        <time>2022-05-28T12:21:51Z</time>
      </trkpt>
      <trkpt lat="48.03938" lon="6.90726">
        <ele>1000.9</ele>
        <time>2022-05-28T12:21:53Z</time>
      </trkpt>
      <trkpt lat="48.03932" lon="6.90708">
        <ele>999.7</ele>
        <time>2022-05-28T12:21:55Z</time>
      </trkpt>
      <trkpt lat="48.03927" lon="6.90687">
        <ele>998.4</ele>
        <time>2022-05-28T12:21:57Z</time>
      </trkpt>
      <trkpt lat="48.03927" lon="6.90662">
        <ele>996.4</ele>
        <time>2022-05-28T12:21:59Z</time>
      </trkpt>
      <trkpt lat="48.0393" lon="6.90639">
        <ele>997.1</ele>
        <time>2022-05-28T12:22:01Z</time>
      </trkpt>
      <trkpt lat="48.03935" lon="6.90621">
        <ele>997.6</ele>
        <time>2022-05-28T12:22:03Z</time>
      </trkpt>
      <trkpt lat="48.03939" lon="6.90607">
        <ele>999.3</ele>
        <time>2022-05-28T12:22:05Z</time>
      </trkpt>
      <trkpt lat="48.03944" lon="6.90591">
        <ele>1000.4</ele>
        <time>2022-05-28T12:22:08Z</time>
      </trkpt>
      <trkpt lat="48.03949" lon="6.90575">
        <ele>1002.7</ele>
        <time>2022-05-28T12:22:11Z</time>
      </trkpt>
      <trkpt lat="48.03954" lon="6.90563">
        <ele>1004.1</ele>
        <time>2022-05-28T12:22:14Z</time>
      </trkpt>
      <trkpt lat="48.03958" lon="6.90548">
        <ele>1004.9</ele>
        <time>2022-05-28T12:22:17Z</time>
      </trkpt>
      <trkpt lat="48.03963" lon="6.90535">
        <ele>1005.6</ele>
        <time>2022-05-28T12:22:21Z</time>
      </trkpt>
      <trkpt lat="48.03968" lon="6.90523">
        <ele>1006.3</ele>
        <time>2022-05-28T12:22:25Z</time>
      </trkpt>
      <trkpt lat="48.03972" lon="6.9051">
        <ele>1007.3</ele>
        <time>2022-05-28T12:22:29Z</time>
      </trkpt>
      <trkpt lat="48.03975" lon="6.90497">
        <ele>1005.9</ele>
        <time>2022-05-28T12:22:33Z</time>
      </trkpt>
      <trkpt lat="48.03978" lon="6.90483">
        <ele>1008.4</ele>
        <time>2022-05-28T12:22:37Z</time>
      </trkpt>
      <trkpt lat="48.03979" lon="6.90468">
        <ele>1010.7</ele>
        <time>2022-05-28T12:22:42Z</time>
      </trkpt>
      <trkpt lat="48.03981" lon="6.90455">
        <ele>1010.6</ele>
        <time>2022-05-28T12:22:46Z</time>
      </trkpt>
      <trkpt lat="48.03984" lon="6.90441">
        <ele>1011.9</ele>
        <time>2022-05-28T12:22:51Z</time>
      </trkpt>
      <trkpt lat="48.0399" lon="6.90427">
        <ele>1013.2</ele>
        <time>2022-05-28T12:22:56Z</time>
      </trkpt>
      <trkpt lat="48.03994" lon="6.90415">
        <ele>1013.5</ele>
        <time>2022-05-28T12:23:00Z</time>
      </trkpt>
      <trkpt lat="48.04" lon="6.904">
        <ele>1014.2</ele>
        <time>2022-05-28T12:23:05Z</time>
      </trkpt>
      <trkpt lat="48.04005" lon="6.90388">
        <ele>1014.4</ele>
        <time>2022-05-28T12:23:09Z</time>
      </trkpt>
      <trkpt lat="48.0401" lon="6.90374">
        <ele>1015.1</ele>
        <time>2022-05-28T12:23:14Z</time>
      </trkpt>
      <trkpt lat="48.04007" lon="6.90361">
        <ele>1015.9</ele>
        <time>2022-05-28T12:23:18Z</time>
      </trkpt>
      <trkpt lat="48.03996" lon="6.90356">
        <ele>1017.3</ele>
        <time>2022-05-28T12:23:22Z</time>
      </trkpt>
      <trkpt lat="48.03985" lon="6.9036">
        <ele>1017.2</ele>
        <time>2022-05-28T12:23:26Z</time>
      </trkpt>
      <trkpt lat="48.03977" lon="6.90367">
        <ele>1017.9</ele>
        <time>2022-05-28T12:23:30Z</time>
      </trkpt>
      <trkpt lat="48.03968" lon="6.90374">
        <ele>1018.8</ele>
        <time>2022-05-28T12:23:34Z</time>
      </trkpt>
      <trkpt lat="48.03958" lon="6.90378">
        <ele>1019.4</ele>
        <time>2022-05-28T12:23:38Z</time>
      </trkpt>
      <trkpt lat="48.03947" lon="6.9038">
        <ele>1021.2</ele>
        <time>2022-05-28T12:23:42Z</time>
      </trkpt>
      <trkpt lat="48.03936" lon="6.90379">
        <ele>1020.6</ele>
        <time>2022-05-28T12:23:46Z</time>
      </trkpt>
      <trkpt lat="48.03926" lon="6.90373">
        <ele>1021</ele>
        <time>2022-05-28T12:23:50Z</time>
      </trkpt>
      <trkpt lat="48.03917" lon="6.90364">
        <ele>1022.1</ele>
        <time>2022-05-28T12:23:54Z</time>
      </trkpt>
      <trkpt lat="48.03912" lon="6.90353">
        <ele>1022.9</ele>
        <time>2022-05-28T12:23:58Z</time>
      </trkpt>
      <trkpt lat="48.03909" lon="6.90339">
        <ele>1023.4</ele>
        <time>2022-05-28T12:24:02Z</time>
      </trkpt>
      <trkpt lat="48.03909" lon="6.90324">
        <ele>1024.2</ele>
        <time>2022-05-28T12:24:07Z</time>
      </trkpt>
      <trkpt lat="48.0391" lon="6.90307">
        <ele>1026.4</ele>
        <time>2022-05-28T12:24:12Z</time>
      </trkpt>
      <trkpt lat="48.0391" lon="6.90291">
        <ele>1027.4</ele>
        <time>2022-05-28T12:24:16Z</time>
      </trkpt>
      <trkpt lat="48.03911" lon="6.90277">
        <ele>1027.5</ele>
        <time>2022-05-28T12:24:20Z</time>
      </trkpt>
      <trkpt lat="48.03912" lon="6.90263">
        <ele>1026.6</ele>
        <time>2022-05-28T12:24:24Z</time>
      </trkpt>
      <trkpt lat="48.03907" lon="6.90249">
        <ele>1027.7</ele>
        <time>2022-05-28T12:24:30Z</time>
      </trkpt>
      <trkpt lat="48.03903" lon="6.90236">
        <ele>1026.9</ele>
        <time>2022-05-28T12:24:34Z</time>
      </trkpt>
      <trkpt lat="48.03898" lon="6.90219">
        <ele>1025.3</ele>
        <time>2022-05-28T12:24:37Z</time>
      </trkpt>
      <trkpt lat="48.03897" lon="6.90205">
        <ele>1023.4</ele>
        <time>2022-05-28T12:24:40Z</time>
      </trkpt>
      <trkpt lat="48.03898" lon="6.90189">
        <ele>1023.6</ele>
        <time>2022-05-28T12:24:42Z</time>
      </trkpt>
      <trkpt lat="48.03899" lon="6.90171">
        <ele>1021.8</ele>
        <time>2022-05-28T12:24:44Z</time>
      </trkpt>
      <trkpt lat="48.03901" lon="6.90153">
        <ele>1017.5</ele>
        <time>2022-05-28T12:24:46Z</time>
      </trkpt>
      <trkpt lat="48.03906" lon="6.90136">
        <ele>1018.5</ele>
        <time>2022-05-28T12:24:48Z</time>
      </trkpt>
      <trkpt lat="48.03913" lon="6.90119">
        <ele>1018.6</ele>
        <time>2022-05-28T12:24:50Z</time>
      </trkpt>
      <trkpt lat="48.03919" lon="6.90101">
        <ele>1016.6</ele>
        <time>2022-05-28T12:24:52Z</time>
      </trkpt>
      <trkpt lat="48.03918" lon="6.90083">
        <ele>1016.7</ele>
        <time>2022-05-28T12:24:54Z</time>
      </trkpt>
      <trkpt lat="48.0391" lon="6.90067">
        <ele>1018</ele>
        <time>2022-05-28T12:24:56Z</time>
      </trkpt>
      <trkpt lat="48.03898" lon="6.90062">
        <ele>1020.2</ele>
        <time>2022-05-28T12:24:58Z</time>
      </trkpt>
      <trkpt lat="48.03889" lon="6.90063">
        <ele>1020.2</ele>
        <time>2022-05-28T12:25:00Z</time>
      </trkpt>
      <trkpt lat="48.03879" lon="6.9006">
        <ele>1020.9</ele>
        <time>2022-05-28T12:25:03Z</time>
      </trkpt>
      <trkpt lat="48.0387" lon="6.90049">
        <ele>1020.8</ele>
        <time>2022-05-28T12:25:07Z</time>
      </trkpt>
      <trkpt lat="48.03864" lon="6.90037">
        <ele>1021.8</ele>
        <time>2022-05-28T12:25:10Z</time>
      </trkpt>
      <trkpt lat="48.03858" lon="6.90025">
        <ele>1021.5</ele>
        <time>2022-05-28T12:25:13Z</time>
      </trkpt>
      <trkpt lat="48.03849" lon="6.90014">
        <ele>1023.5</ele>
        <time>2022-05-28T12:25:17Z</time>
      </trkpt>
      <trkpt lat="48.0384" lon="6.90006">
        <ele>1024.8</ele>
        <time>2022-05-28T12:25:21Z</time>
      </trkpt>
      <trkpt lat="48.03831" lon="6.89999">
        <ele>1025.9</ele>
        <time>2022-05-28T12:25:25Z</time>
      </trkpt>
      <trkpt lat="48.03824" lon="6.89987">
        <ele>1027</ele>
        <time>2022-05-28T12:25:30Z</time>
      </trkpt>
      <trkpt lat="48.03818" lon="6.89975">
        <ele>1028.6</ele>
        <time>2022-05-28T12:25:35Z</time>
      </trkpt>
      <trkpt lat="48.03811" lon="6.89963">
        <ele>1030</ele>
        <time>2022-05-28T12:25:40Z</time>
      </trkpt>
      <trkpt lat="48.03803" lon="6.89951">
        <ele>1030.4</ele>
        <time>2022-05-28T12:25:45Z</time>
      </trkpt>
      <trkpt lat="48.03796" lon="6.8994">
        <ele>1031.2</ele>
        <time>2022-05-28T12:25:50Z</time>
      </trkpt>
      <trkpt lat="48.03788" lon="6.89928">
        <ele>1032.6</ele>
        <time>2022-05-28T12:25:55Z</time>
      </trkpt>
      <trkpt lat="48.03779" lon="6.89918">
        <ele>1033.6</ele>
        <time>2022-05-28T12:26:00Z</time>
      </trkpt>
      <trkpt lat="48.03772" lon="6.8991">
        <ele>1034.6</ele>
        <time>2022-05-28T12:26:04Z</time>
      </trkpt>
      <trkpt lat="48.03762" lon="6.89901">
        <ele>1034.5</ele>
        <time>2022-05-28T12:26:09Z</time>
      </trkpt>
      <trkpt lat="48.03753" lon="6.89893">
        <ele>1036.5</ele>
        <time>2022-05-28T12:26:14Z</time>
      </trkpt>
      <trkpt lat="48.03744" lon="6.89889">
        <ele>1037.8</ele>
        <time>2022-05-28T12:26:18Z</time>
      </trkpt>
      <trkpt lat="48.03734" lon="6.89886">
        <ele>1037.8</ele>
        <time>2022-05-28T12:26:22Z</time>
      </trkpt>
      <trkpt lat="48.03725" lon="6.8988">
        <ele>1039.1</ele>
        <time>2022-05-28T12:26:26Z</time>
      </trkpt>
      <trkpt lat="48.03717" lon="6.89873">
        <ele>1038.8</ele>
        <time>2022-05-28T12:26:30Z</time>
      </trkpt>
      <trkpt lat="48.03708" lon="6.89864">
        <ele>1040.8</ele>
        <time>2022-05-28T12:26:35Z</time>
      </trkpt>
      <trkpt lat="48.03702" lon="6.89852">
        <ele>1042</ele>
        <time>2022-05-28T12:26:40Z</time>
      </trkpt>
      <trkpt lat="48.03695" lon="6.89841">
        <ele>1043.1</ele>
        <time>2022-05-28T12:26:44Z</time>
      </trkpt>
      <trkpt lat="48.03688" lon="6.89829">
        <ele>1043.6</ele>
        <time>2022-05-28T12:26:49Z</time>
      </trkpt>
      <trkpt lat="48.0368" lon="6.89819">
        <ele>1043.5</ele>
        <time>2022-05-28T12:26:53Z</time>
      </trkpt>
      <trkpt lat="48.03672" lon="6.89811">
        <ele>1044.2</ele>
        <time>2022-05-28T12:26:57Z</time>
      </trkpt>
      <trkpt lat="48.03663" lon="6.89802">
        <ele>1044</ele>
        <time>2022-05-28T12:27:01Z</time>
      </trkpt>
      <trkpt lat="48.03655" lon="6.89792">
        <ele>1046.7</ele>
        <time>2022-05-28T12:27:05Z</time>
      </trkpt>
      <trkpt lat="48.03647" lon="6.89784">
        <ele>1047</ele>
        <time>2022-05-28T12:27:09Z</time>
      </trkpt>
      <trkpt lat="48.03644" lon="6.8977">
        <ele>1047.5</ele>
        <time>2022-05-28T12:27:15Z</time>
      </trkpt>
      <trkpt lat="48.0365" lon="6.89757">
        <ele>1046.7</ele>
        <time>2022-05-28T12:27:19Z</time>
      </trkpt>
      <trkpt lat="48.03659" lon="6.89748">
        <ele>1045.6</ele>
        <time>2022-05-28T12:27:23Z</time>
      </trkpt>
      <trkpt lat="48.03668" lon="6.8974">
        <ele>1045.6</ele>
        <time>2022-05-28T12:27:27Z</time>
      </trkpt>
      <trkpt lat="48.03676" lon="6.89731">
        <ele>1045.7</ele>
        <time>2022-05-28T12:27:30Z</time>
      </trkpt>
      <trkpt lat="48.03686" lon="6.89724">
        <ele>1048.1</ele>
        <time>2022-05-28T12:27:34Z</time>
      </trkpt>
      <trkpt lat="48.03695" lon="6.89724">
        <ele>1048.8</ele>
        <time>2022-05-28T12:27:39Z</time>
      </trkpt>
      <trkpt lat="48.03698" lon="6.89728">
        <ele>1047.5</ele>
        <time>2022-05-28T12:27:44Z</time>
      </trkpt>
      <trkpt lat="48.03698" lon="6.89729">
        <ele>1047.7</ele>
        <time>2022-05-28T12:28:19Z</time>
      </trkpt>
      <trkpt lat="48.03699" lon="6.8973">
        <ele>1047.2</ele>
        <time>2022-05-28T12:29:34Z</time>
      </trkpt>
      <trkpt lat="48.03699" lon="6.89731">
        <ele>1047.4</ele>
        <time>2022-05-28T12:29:47Z</time>
      </trkpt>
      <trkpt lat="48.03709" lon="6.89732">
        <ele>1047.6</ele>
        <time>2022-05-28T12:29:54Z</time>
      </trkpt>
      <trkpt lat="48.03719" lon="6.89732">
        <ele>1046.3</ele>
        <time>2022-05-28T12:29:57Z</time>
      </trkpt>
      <trkpt lat="48.03728" lon="6.89733">
        <ele>1044.5</ele>
        <time>2022-05-28T12:29:59Z</time>
      </trkpt>
      <trkpt lat="48.0374" lon="6.89733">
        <ele>1041.9</ele>
        <time>2022-05-28T12:30:01Z</time>
      </trkpt>
      <trkpt lat="48.03753" lon="6.8973">
        <ele>1038</ele>
        <time>2022-05-28T12:30:03Z</time>
      </trkpt>
      <trkpt lat="48.03766" lon="6.89728">
        <ele>1037</ele>
        <time>2022-05-28T12:30:05Z</time>
      </trkpt>
      <trkpt lat="48.03781" lon="6.89719">
        <ele>1037.1</ele>
        <time>2022-05-28T12:30:07Z</time>
      </trkpt>
      <trkpt lat="48.03796" lon="6.89705">
        <ele>1032</ele>
        <time>2022-05-28T12:30:09Z</time>
      </trkpt>
      <trkpt lat="48.03804" lon="6.89697">
        <ele>1030.1</ele>
        <time>2022-05-28T12:30:10Z</time>
      </trkpt>
      <trkpt lat="48.03812" lon="6.89689">
        <ele>1031</ele>
        <time>2022-05-28T12:30:11Z</time>
      </trkpt>
      <trkpt lat="48.03819" lon="6.89682">
        <ele>1029.7</ele>
        <time>2022-05-28T12:30:12Z</time>
      </trkpt>
      <trkpt lat="48.03828" lon="6.89674">
        <ele>1029</ele>
        <time>2022-05-28T12:30:13Z</time>
      </trkpt>
      <trkpt lat="48.03836" lon="6.89665">
        <ele>1029.9</ele>
        <time>2022-05-28T12:30:14Z</time>
      </trkpt>
      <trkpt lat="48.03844" lon="6.89657">
        <ele>1032.9</ele>
        <time>2022-05-28T12:30:15Z</time>
      </trkpt>
      <trkpt lat="48.03852" lon="6.89647">
        <ele>1031.1</ele>
        <time>2022-05-28T12:30:16Z</time>
      </trkpt>
      <trkpt lat="48.0386" lon="6.89638">
        <ele>1029.5</ele>
        <time>2022-05-28T12:30:17Z</time>
      </trkpt>
      <trkpt lat="48.03869" lon="6.89628">
        <ele>1029.4</ele>
        <time>2022-05-28T12:30:18Z</time>
      </trkpt>
      <trkpt lat="48.03877" lon="6.89618">
        <ele>1030.6</ele>
        <time>2022-05-28T12:30:19Z</time>
      </trkpt>
      <trkpt lat="48.03884" lon="6.89608">
        <ele>1030</ele>
        <time>2022-05-28T12:30:20Z</time>
      </trkpt>
      <trkpt lat="48.03891" lon="6.89598">
        <ele>1029.8</ele>
        <time>2022-05-28T12:30:21Z</time>
      </trkpt>
      <trkpt lat="48.03897" lon="6.89588">
        <ele>1030</ele>
        <time>2022-05-28T12:30:22Z</time>
      </trkpt>
      <trkpt lat="48.03908" lon="6.89568">
        <ele>1028.9</ele>
        <time>2022-05-28T12:30:24Z</time>
      </trkpt>
      <trkpt lat="48.03918" lon="6.89548">
        <ele>1027.4</ele>
        <time>2022-05-28T12:30:26Z</time>
      </trkpt>
      <trkpt lat="48.03927" lon="6.89531">
        <ele>1028.5</ele>
        <time>2022-05-28T12:30:28Z</time>
      </trkpt>
      <trkpt lat="48.03935" lon="6.89517">
        <ele>1029.3</ele>
        <time>2022-05-28T12:30:30Z</time>
      </trkpt>
      <trkpt lat="48.03943" lon="6.89503">
        <ele>1030.5</ele>
        <time>2022-05-28T12:30:32Z</time>
      </trkpt>
      <trkpt lat="48.03951" lon="6.89488">
        <ele>1030.2</ele>
        <time>2022-05-28T12:30:34Z</time>
      </trkpt>
      <trkpt lat="48.0396" lon="6.89473">
        <ele>1030</ele>
        <time>2022-05-28T12:30:36Z</time>
      </trkpt>
      <trkpt lat="48.03969" lon="6.89456">
        <ele>1027.9</ele>
        <time>2022-05-28T12:30:38Z</time>
      </trkpt>
      <trkpt lat="48.03978" lon="6.89441">
        <ele>1028.7</ele>
        <time>2022-05-28T12:30:40Z</time>
      </trkpt>
      <trkpt lat="48.03987" lon="6.89426">
        <ele>1028.2</ele>
        <time>2022-05-28T12:30:42Z</time>
      </trkpt>
      <trkpt lat="48.03994" lon="6.89413">
        <ele>1029.1</ele>
        <time>2022-05-28T12:30:44Z</time>
      </trkpt>
      <trkpt lat="48.04002" lon="6.894">
        <ele>1029.3</ele>
        <time>2022-05-28T12:30:46Z</time>
      </trkpt>
      <trkpt lat="48.0401" lon="6.89388">
        <ele>1028.3</ele>
        <time>2022-05-28T12:30:48Z</time>
      </trkpt>
      <trkpt lat="48.04017" lon="6.89377">
        <ele>1030</ele>
        <time>2022-05-28T12:30:50Z</time>
      </trkpt>
      <trkpt lat="48.04023" lon="6.89365">
        <ele>1030.5</ele>
        <time>2022-05-28T12:30:52Z</time>
      </trkpt>
      <trkpt lat="48.0403" lon="6.89354">
        <ele>1030.6</ele>
        <time>2022-05-28T12:30:54Z</time>
      </trkpt>
      <trkpt lat="48.04036" lon="6.89343">
        <ele>1031.5</ele>
        <time>2022-05-28T12:30:56Z</time>
      </trkpt>
      <trkpt lat="48.04043" lon="6.89331">
        <ele>1031.5</ele>
        <time>2022-05-28T12:30:58Z</time>
      </trkpt>
      <trkpt lat="48.04049" lon="6.89321">
        <ele>1030.7</ele>
        <time>2022-05-28T12:31:00Z</time>
      </trkpt>
      <trkpt lat="48.04056" lon="6.8931">
        <ele>1031.1</ele>
        <time>2022-05-28T12:31:02Z</time>
      </trkpt>
      <trkpt lat="48.04062" lon="6.893">
        <ele>1031.7</ele>
        <time>2022-05-28T12:31:04Z</time>
      </trkpt>
      <trkpt lat="48.04068" lon="6.89289">
        <ele>1032.1</ele>
        <time>2022-05-28T12:31:06Z</time>
      </trkpt>
      <trkpt lat="48.04076" lon="6.89274">
        <ele>1034.3</ele>
        <time>2022-05-28T12:31:09Z</time>
      </trkpt>
      <trkpt lat="48.04083" lon="6.89261">
        <ele>1035.2</ele>
        <time>2022-05-28T12:31:12Z</time>
      </trkpt>
      <trkpt lat="48.04089" lon="6.89249">
        <ele>1037.3</ele>
        <time>2022-05-28T12:31:16Z</time>
      </trkpt>
      <trkpt lat="48.04095" lon="6.89235">
        <ele>1038</ele>
        <time>2022-05-28T12:31:21Z</time>
      </trkpt>
      <trkpt lat="48.04101" lon="6.89225">
        <ele>1039.4</ele>
        <time>2022-05-28T12:31:26Z</time>
      </trkpt>
      <trkpt lat="48.04107" lon="6.89213">
        <ele>1040.1</ele>
        <time>2022-05-28T12:31:31Z</time>
      </trkpt>
      <trkpt lat="48.04111" lon="6.892">
        <ele>1041.5</ele>
        <time>2022-05-28T12:31:36Z</time>
      </trkpt>
      <trkpt lat="48.04105" lon="6.89189">
        <ele>1042.3</ele>
        <time>2022-05-28T12:31:41Z</time>
      </trkpt>
      <trkpt lat="48.04095" lon="6.89188">
        <ele>1041.1</ele>
        <time>2022-05-28T12:31:46Z</time>
      </trkpt>
      <trkpt lat="48.04084" lon="6.89192">
        <ele>1040.1</ele>
        <time>2022-05-28T12:31:50Z</time>
      </trkpt>
      <trkpt lat="48.04074" lon="6.89196">
        <ele>1038.9</ele>
        <time>2022-05-28T12:31:53Z</time>
      </trkpt>
      <trkpt lat="48.04065" lon="6.89202">
        <ele>1037.3</ele>
        <time>2022-05-28T12:31:55Z</time>
      </trkpt>
      <trkpt lat="48.04057" lon="6.89211">
        <ele>1036.6</ele>
        <time>2022-05-28T12:31:57Z</time>
      </trkpt>
      <trkpt lat="48.04049" lon="6.89225">
        <ele>1036.4</ele>
        <time>2022-05-28T12:31:59Z</time>
      </trkpt>
      <trkpt lat="48.04042" lon="6.89242">
        <ele>1033</ele>
        <time>2022-05-28T12:32:01Z</time>
      </trkpt>
      <trkpt lat="48.04035" lon="6.89257">
        <ele>1033.9</ele>
        <time>2022-05-28T12:32:03Z</time>
      </trkpt>
      <trkpt lat="48.04027" lon="6.89271">
        <ele>1035.3</ele>
        <time>2022-05-28T12:32:05Z</time>
      </trkpt>
      <trkpt lat="48.04019" lon="6.89283">
        <ele>1036.5</ele>
        <time>2022-05-28T12:32:07Z</time>
      </trkpt>
      <trkpt lat="48.04012" lon="6.89293">
        <ele>1035.7</ele>
        <time>2022-05-28T12:32:09Z</time>
      </trkpt>
      <trkpt lat="48.04005" lon="6.89303">
        <ele>1035.1</ele>
        <time>2022-05-28T12:32:11Z</time>
      </trkpt>
      <trkpt lat="48.03995" lon="6.89314">
        <ele>1037.1</ele>
        <time>2022-05-28T12:32:14Z</time>
      </trkpt>
      <trkpt lat="48.03987" lon="6.89327">
        <ele>1036.2</ele>
        <time>2022-05-28T12:32:17Z</time>
      </trkpt>
      <trkpt lat="48.03978" lon="6.89341">
        <ele>1034.1</ele>
        <time>2022-05-28T12:32:20Z</time>
      </trkpt>
      <trkpt lat="48.03969" lon="6.89355">
        <ele>1035.9</ele>
        <time>2022-05-28T12:32:23Z</time>
      </trkpt>
      <trkpt lat="48.03961" lon="6.8937">
        <ele>1036.3</ele>
        <time>2022-05-28T12:32:26Z</time>
      </trkpt>
      <trkpt lat="48.03951" lon="6.89382">
        <ele>1034.6</ele>
        <time>2022-05-28T12:32:29Z</time>
      </trkpt>
      <trkpt lat="48.0394" lon="6.89392">
        <ele>1033</ele>
        <time>2022-05-28T12:32:32Z</time>
      </trkpt>
      <trkpt lat="48.03931" lon="6.89402">
        <ele>1035.6</ele>
        <time>2022-05-28T12:32:35Z</time>
      </trkpt>
      <trkpt lat="48.0392" lon="6.8941">
        <ele>1037.4</ele>
        <time>2022-05-28T12:32:38Z</time>
      </trkpt>
      <trkpt lat="48.0391" lon="6.89411">
        <ele>1036.8</ele>
        <time>2022-05-28T12:32:41Z</time>
      </trkpt>
      <trkpt lat="48.03902" lon="6.89403">
        <ele>1037.8</ele>
        <time>2022-05-28T12:32:44Z</time>
      </trkpt>
      <trkpt lat="48.03893" lon="6.89395">
        <ele>1035.3</ele>
        <time>2022-05-28T12:32:47Z</time>
      </trkpt>
      <trkpt lat="48.03884" lon="6.89393">
        <ele>1036.4</ele>
        <time>2022-05-28T12:32:50Z</time>
      </trkpt>
      <trkpt lat="48.03873" lon="6.89388">
        <ele>1038</ele>
        <time>2022-05-28T12:32:53Z</time>
      </trkpt>
      <trkpt lat="48.03865" lon="6.89385">
        <ele>1040.1</ele>
        <time>2022-05-28T12:32:56Z</time>
      </trkpt>
      <trkpt lat="48.03856" lon="6.89379">
        <ele>1038.9</ele>
        <time>2022-05-28T12:33:00Z</time>
      </trkpt>
      <trkpt lat="48.03845" lon="6.89384">
        <ele>1039.6</ele>
        <time>2022-05-28T12:33:05Z</time>
      </trkpt>
      <trkpt lat="48.03836" lon="6.89381">
        <ele>1041.7</ele>
        <time>2022-05-28T12:33:09Z</time>
      </trkpt>
      <trkpt lat="48.03831" lon="6.89367">
        <ele>1040.7</ele>
        <time>2022-05-28T12:33:15Z</time>
      </trkpt>
      <trkpt lat="48.03822" lon="6.89359">
        <ele>1041.4</ele>
        <time>2022-05-28T12:33:19Z</time>
      </trkpt>
      <trkpt lat="48.03812" lon="6.89354">
        <ele>1040.9</ele>
        <time>2022-05-28T12:33:23Z</time>
      </trkpt>
      <trkpt lat="48.03803" lon="6.89351">
        <ele>1040.8</ele>
        <time>2022-05-28T12:33:26Z</time>
      </trkpt>
      <trkpt lat="48.03794" lon="6.89349">
        <ele>1039.4</ele>
        <time>2022-05-28T12:33:29Z</time>
      </trkpt>
      <trkpt lat="48.03784" lon="6.89348">
        <ele>1040.6</ele>
        <time>2022-05-28T12:33:33Z</time>
      </trkpt>
      <trkpt lat="48.03773" lon="6.89343">
        <ele>1040.8</ele>
        <time>2022-05-28T12:33:37Z</time>
      </trkpt>
      <trkpt lat="48.03765" lon="6.89338">
        <ele>1040.2</ele>
        <time>2022-05-28T12:33:40Z</time>
      </trkpt>
      <trkpt lat="48.03755" lon="6.89334">
        <ele>1041.1</ele>
        <time>2022-05-28T12:33:44Z</time>
      </trkpt>
      <trkpt lat="48.03746" lon="6.89329">
        <ele>1041.3</ele>
        <time>2022-05-28T12:33:50Z</time>
      </trkpt>
      <trkpt lat="48.03745" lon="6.89327">
        <ele>1041.6</ele>
        <time>2022-05-28T12:33:54Z</time>
      </trkpt>
      <trkpt lat="48.03745" lon="6.89326">
        <ele>1041.8</ele>
        <time>2022-05-28T12:34:23Z</time>
      </trkpt>
      <trkpt lat="48.03746" lon="6.89326">
        <ele>1041.5</ele>
        <time>2022-05-28T12:34:27Z</time>
      </trkpt>
      <trkpt lat="48.03745" lon="6.89327">
        <ele>1041.9</ele>
        <time>2022-05-28T12:34:36Z</time>
      </trkpt>
      <trkpt lat="48.03745" lon="6.89326">
        <ele>1041.7</ele>
        <time>2022-05-28T12:35:25Z</time>
      </trkpt>
      <trkpt lat="48.03735" lon="6.89318">
        <ele>1041.8</ele>
        <time>2022-05-28T12:35:30Z</time>
      </trkpt>
      <trkpt lat="48.03724" lon="6.89309">
        <ele>1041.6</ele>
        <time>2022-05-28T12:35:34Z</time>
      </trkpt>
      <trkpt lat="48.03712" lon="6.89302">
        <ele>1040.5</ele>
        <time>2022-05-28T12:35:37Z</time>
      </trkpt>
      <trkpt lat="48.03703" lon="6.89298">
        <ele>1040.7</ele>
        <time>2022-05-28T12:35:39Z</time>
      </trkpt>
      <trkpt lat="48.03693" lon="6.89295">
        <ele>1041.6</ele>
        <time>2022-05-28T12:35:41Z</time>
      </trkpt>
      <trkpt lat="48.03683" lon="6.89291">
        <ele>1041.4</ele>
        <time>2022-05-28T12:35:43Z</time>
      </trkpt>
      <trkpt lat="48.03674" lon="6.89287">
        <ele>1041.3</ele>
        <time>2022-05-28T12:35:45Z</time>
      </trkpt>
      <trkpt lat="48.03661" lon="6.89281">
        <ele>1041.6</ele>
        <time>2022-05-28T12:35:48Z</time>
      </trkpt>
      <trkpt lat="48.03652" lon="6.8928">
        <ele>1042.5</ele>
        <time>2022-05-28T12:35:50Z</time>
      </trkpt>
      <trkpt lat="48.03643" lon="6.89281">
        <ele>1042.9</ele>
        <time>2022-05-28T12:35:52Z</time>
      </trkpt>
      <trkpt lat="48.03634" lon="6.89283">
        <ele>1041.8</ele>
        <time>2022-05-28T12:35:54Z</time>
      </trkpt>
      <trkpt lat="48.0362" lon="6.89287">
        <ele>1041</ele>
        <time>2022-05-28T12:35:57Z</time>
      </trkpt>
      <trkpt lat="48.03611" lon="6.8929">
        <ele>1041.7</ele>
        <time>2022-05-28T12:35:59Z</time>
      </trkpt>
      <trkpt lat="48.03602" lon="6.89294">
        <ele>1040.6</ele>
        <time>2022-05-28T12:36:01Z</time>
      </trkpt>
      <trkpt lat="48.03593" lon="6.89297">
        <ele>1040.6</ele>
        <time>2022-05-28T12:36:03Z</time>
      </trkpt>
      <trkpt lat="48.03584" lon="6.89299">
        <ele>1039.6</ele>
        <time>2022-05-28T12:36:05Z</time>
      </trkpt>
      <trkpt lat="48.03574" lon="6.89304">
        <ele>1040.4</ele>
        <time>2022-05-28T12:36:07Z</time>
      </trkpt>
      <trkpt lat="48.03565" lon="6.89308">
        <ele>1040.7</ele>
        <time>2022-05-28T12:36:09Z</time>
      </trkpt>
      <trkpt lat="48.03556" lon="6.89312">
        <ele>1040.2</ele>
        <time>2022-05-28T12:36:11Z</time>
      </trkpt>
      <trkpt lat="48.03547" lon="6.89315">
        <ele>1042.4</ele>
        <time>2022-05-28T12:36:13Z</time>
      </trkpt>
      <trkpt lat="48.03537" lon="6.8932">
        <ele>1041.6</ele>
        <time>2022-05-28T12:36:15Z</time>
      </trkpt>
      <trkpt lat="48.03527" lon="6.89321">
        <ele>1041.2</ele>
        <time>2022-05-28T12:36:17Z</time>
      </trkpt>
      <trkpt lat="48.03518" lon="6.8932">
        <ele>1041.6</ele>
        <time>2022-05-28T12:36:19Z</time>
      </trkpt>
      <trkpt lat="48.03514" lon="6.89305">
        <ele>1043.3</ele>
        <time>2022-05-28T12:36:22Z</time>
      </trkpt>
      <trkpt lat="48.03514" lon="6.8929">
        <ele>1040.9</ele>
        <time>2022-05-28T12:36:24Z</time>
      </trkpt>
      <trkpt lat="48.03515" lon="6.89274">
        <ele>1040.3</ele>
        <time>2022-05-28T12:36:26Z</time>
      </trkpt>
      <trkpt lat="48.03516" lon="6.89257">
        <ele>1039.5</ele>
        <time>2022-05-28T12:36:28Z</time>
      </trkpt>
      <trkpt lat="48.03518" lon="6.8924">
        <ele>1038.9</ele>
        <time>2022-05-28T12:36:30Z</time>
      </trkpt>
      <trkpt lat="48.03521" lon="6.89224">
        <ele>1038.7</ele>
        <time>2022-05-28T12:36:32Z</time>
      </trkpt>
      <trkpt lat="48.03523" lon="6.8921">
        <ele>1038.8</ele>
        <time>2022-05-28T12:36:34Z</time>
      </trkpt>
      <trkpt lat="48.03524" lon="6.89196">
        <ele>1039.6</ele>
        <time>2022-05-28T12:36:36Z</time>
      </trkpt>
      <trkpt lat="48.03524" lon="6.89183">
        <ele>1038.9</ele>
        <time>2022-05-28T12:36:38Z</time>
      </trkpt>
      <trkpt lat="48.03521" lon="6.89169">
        <ele>1041</ele>
        <time>2022-05-28T12:36:40Z</time>
      </trkpt>
      <trkpt lat="48.03519" lon="6.89156">
        <ele>1040.6</ele>
        <time>2022-05-28T12:36:42Z</time>
      </trkpt>
      <trkpt lat="48.03512" lon="6.8914">
        <ele>1043.5</ele>
        <time>2022-05-28T12:36:45Z</time>
      </trkpt>
      <trkpt lat="48.03505" lon="6.89131">
        <ele>1041</ele>
        <time>2022-05-28T12:36:47Z</time>
      </trkpt>
      <trkpt lat="48.03499" lon="6.89119">
        <ele>1041.5</ele>
        <time>2022-05-28T12:36:49Z</time>
      </trkpt>
      <trkpt lat="48.03496" lon="6.89103">
        <ele>1041.1</ele>
        <time>2022-05-28T12:36:51Z</time>
      </trkpt>
      <trkpt lat="48.035" lon="6.89086">
        <ele>1040.7</ele>
        <time>2022-05-28T12:36:53Z</time>
      </trkpt>
      <trkpt lat="48.03503" lon="6.89068">
        <ele>1038.4</ele>
        <time>2022-05-28T12:36:55Z</time>
      </trkpt>
      <trkpt lat="48.03506" lon="6.89051">
        <ele>1038.1</ele>
        <time>2022-05-28T12:36:57Z</time>
      </trkpt>
      <trkpt lat="48.03511" lon="6.89036">
        <ele>1040.1</ele>
        <time>2022-05-28T12:36:59Z</time>
      </trkpt>
      <trkpt lat="48.0352" lon="6.89024">
        <ele>1039.8</ele>
        <time>2022-05-28T12:37:01Z</time>
      </trkpt>
      <trkpt lat="48.03528" lon="6.89012">
        <ele>1038.5</ele>
        <time>2022-05-28T12:37:03Z</time>
      </trkpt>
      <trkpt lat="48.03536" lon="6.88999">
        <ele>1038.1</ele>
        <time>2022-05-28T12:37:05Z</time>
      </trkpt>
      <trkpt lat="48.03543" lon="6.88985">
        <ele>1038.6</ele>
        <time>2022-05-28T12:37:07Z</time>
      </trkpt>
      <trkpt lat="48.03549" lon="6.8897">
        <ele>1037.9</ele>
        <time>2022-05-28T12:37:09Z</time>
      </trkpt>
      <trkpt lat="48.03553" lon="6.88954">
        <ele>1036</ele>
        <time>2022-05-28T12:37:11Z</time>
      </trkpt>
      <trkpt lat="48.03556" lon="6.88938">
        <ele>1035.9</ele>
        <time>2022-05-28T12:37:13Z</time>
      </trkpt>
      <trkpt lat="48.03557" lon="6.8892">
        <ele>1036.4</ele>
        <time>2022-05-28T12:37:15Z</time>
      </trkpt>
      <trkpt lat="48.03554" lon="6.88902">
        <ele>1036.7</ele>
        <time>2022-05-28T12:37:17Z</time>
      </trkpt>
      <trkpt lat="48.03549" lon="6.88889">
        <ele>1036.6</ele>
        <time>2022-05-28T12:37:19Z</time>
      </trkpt>
      <trkpt lat="48.03541" lon="6.88878">
        <ele>1036</ele>
        <time>2022-05-28T12:37:21Z</time>
      </trkpt>
      <trkpt lat="48.03531" lon="6.88869">
        <ele>1035.8</ele>
        <time>2022-05-28T12:37:23Z</time>
      </trkpt>
      <trkpt lat="48.0352" lon="6.8886">
        <ele>1035</ele>
        <time>2022-05-28T12:37:25Z</time>
      </trkpt>
      <trkpt lat="48.03509" lon="6.8885">
        <ele>1035.2</ele>
        <time>2022-05-28T12:37:27Z</time>
      </trkpt>
      <trkpt lat="48.03499" lon="6.88838">
        <ele>1034.2</ele>
        <time>2022-05-28T12:37:29Z</time>
      </trkpt>
      <trkpt lat="48.03489" lon="6.88828">
        <ele>1037</ele>
        <time>2022-05-28T12:37:31Z</time>
      </trkpt>
      <trkpt lat="48.03478" lon="6.88818">
        <ele>1033.9</ele>
        <time>2022-05-28T12:37:33Z</time>
      </trkpt>
      <trkpt lat="48.03467" lon="6.88807">
        <ele>1034</ele>
        <time>2022-05-28T12:37:35Z</time>
      </trkpt>
      <trkpt lat="48.03455" lon="6.88797">
        <ele>1032.7</ele>
        <time>2022-05-28T12:37:37Z</time>
      </trkpt>
      <trkpt lat="48.03444" lon="6.88789">
        <ele>1033.4</ele>
        <time>2022-05-28T12:37:39Z</time>
      </trkpt>
      <trkpt lat="48.03434" lon="6.88782">
        <ele>1033.7</ele>
        <time>2022-05-28T12:37:41Z</time>
      </trkpt>
      <trkpt lat="48.03423" lon="6.88778">
        <ele>1034.6</ele>
        <time>2022-05-28T12:37:43Z</time>
      </trkpt>
      <trkpt lat="48.03414" lon="6.88774">
        <ele>1032.7</ele>
        <time>2022-05-28T12:37:45Z</time>
      </trkpt>
      <trkpt lat="48.03406" lon="6.88765">
        <ele>1033.4</ele>
        <time>2022-05-28T12:37:47Z</time>
      </trkpt>
      <trkpt lat="48.03398" lon="6.88753">
        <ele>1032.9</ele>
        <time>2022-05-28T12:37:49Z</time>
      </trkpt>
      <trkpt lat="48.03391" lon="6.88737">
        <ele>1033.2</ele>
        <time>2022-05-28T12:37:51Z</time>
      </trkpt>
      <trkpt lat="48.03387" lon="6.88719">
        <ele>1029.8</ele>
        <time>2022-05-28T12:37:53Z</time>
      </trkpt>
      <trkpt lat="48.03383" lon="6.88701">
        <ele>1029.6</ele>
        <time>2022-05-28T12:37:55Z</time>
      </trkpt>
      <trkpt lat="48.03377" lon="6.88681">
        <ele>1028.3</ele>
        <time>2022-05-28T12:37:57Z</time>
      </trkpt>
      <trkpt lat="48.0337" lon="6.88662">
        <ele>1028.4</ele>
        <time>2022-05-28T12:37:59Z</time>
      </trkpt>
      <trkpt lat="48.03363" lon="6.88644">
        <ele>1026.9</ele>
        <time>2022-05-28T12:38:01Z</time>
      </trkpt>
      <trkpt lat="48.03355" lon="6.8863">
        <ele>1024.7</ele>
        <time>2022-05-28T12:38:03Z</time>
      </trkpt>
      <trkpt lat="48.03347" lon="6.88621">
        <ele>1027</ele>
        <time>2022-05-28T12:38:05Z</time>
      </trkpt>
      <trkpt lat="48.03336" lon="6.88613">
        <ele>1025.6</ele>
        <time>2022-05-28T12:38:07Z</time>
      </trkpt>
      <trkpt lat="48.03327" lon="6.886">
        <ele>1023.8</ele>
        <time>2022-05-28T12:38:09Z</time>
      </trkpt>
      <trkpt lat="48.03321" lon="6.88586">
        <ele>1023.7</ele>
        <time>2022-05-28T12:38:11Z</time>
      </trkpt>
      <trkpt lat="48.03315" lon="6.88572">
        <ele>1024.8</ele>
        <time>2022-05-28T12:38:13Z</time>
      </trkpt>
      <trkpt lat="48.03305" lon="6.88563">
        <ele>1025.5</ele>
        <time>2022-05-28T12:38:15Z</time>
      </trkpt>
      <trkpt lat="48.03294" lon="6.88559">
        <ele>1022.7</ele>
        <time>2022-05-28T12:38:17Z</time>
      </trkpt>
      <trkpt lat="48.0328" lon="6.88556">
        <ele>1020.8</ele>
        <time>2022-05-28T12:38:19Z</time>
      </trkpt>
      <trkpt lat="48.03264" lon="6.88557">
        <ele>1015.2</ele>
        <time>2022-05-28T12:38:21Z</time>
      </trkpt>
      <trkpt lat="48.03249" lon="6.88554">
        <ele>1016.5</ele>
        <time>2022-05-28T12:38:23Z</time>
      </trkpt>
      <trkpt lat="48.03235" lon="6.88543">
        <ele>1018.1</ele>
        <time>2022-05-28T12:38:25Z</time>
      </trkpt>
      <trkpt lat="48.03225" lon="6.88529">
        <ele>1018.9</ele>
        <time>2022-05-28T12:38:27Z</time>
      </trkpt>
      <trkpt lat="48.03217" lon="6.88511">
        <ele>1019.7</ele>
        <time>2022-05-28T12:38:29Z</time>
      </trkpt>
      <trkpt lat="48.03211" lon="6.88494">
        <ele>1019.8</ele>
        <time>2022-05-28T12:38:31Z</time>
      </trkpt>
      <trkpt lat="48.0321" lon="6.88477">
        <ele>1017.1</ele>
        <time>2022-05-28T12:38:33Z</time>
      </trkpt>
      <trkpt lat="48.03211" lon="6.88456">
        <ele>1018.6</ele>
        <time>2022-05-28T12:38:35Z</time>
      </trkpt>
      <trkpt lat="48.03212" lon="6.88434">
        <ele>1018.5</ele>
        <time>2022-05-28T12:38:37Z</time>
      </trkpt>
      <trkpt lat="48.03209" lon="6.88413">
        <ele>1015.1</ele>
        <time>2022-05-28T12:38:39Z</time>
      </trkpt>
      <trkpt lat="48.03202" lon="6.88396">
        <ele>1019</ele>
        <time>2022-05-28T12:38:41Z</time>
      </trkpt>
      <trkpt lat="48.03191" lon="6.88381">
        <ele>1018.3</ele>
        <time>2022-05-28T12:38:43Z</time>
      </trkpt>
      <trkpt lat="48.03181" lon="6.88365">
        <ele>1017.2</ele>
        <time>2022-05-28T12:38:45Z</time>
      </trkpt>
      <trkpt lat="48.03173" lon="6.88347">
        <ele>1016.5</ele>
        <time>2022-05-28T12:38:47Z</time>
      </trkpt>
      <trkpt lat="48.03167" lon="6.88327">
        <ele>1015.4</ele>
        <time>2022-05-28T12:38:49Z</time>
      </trkpt>
      <trkpt lat="48.03163" lon="6.88308">
        <ele>1010</ele>
        <time>2022-05-28T12:38:51Z</time>
      </trkpt>
      <trkpt lat="48.03162" lon="6.88287">
        <ele>1008.9</ele>
        <time>2022-05-28T12:38:53Z</time>
      </trkpt>
      <trkpt lat="48.03163" lon="6.88263">
        <ele>1013.6</ele>
        <time>2022-05-28T12:38:55Z</time>
      </trkpt>
      <trkpt lat="48.03165" lon="6.88242">
        <ele>1010</ele>
        <time>2022-05-28T12:38:57Z</time>
      </trkpt>
      <trkpt lat="48.03166" lon="6.88222">
        <ele>1011</ele>
        <time>2022-05-28T12:38:59Z</time>
      </trkpt>
      <trkpt lat="48.03167" lon="6.88202">
        <ele>1010.9</ele>
        <time>2022-05-28T12:39:01Z</time>
      </trkpt>
      <trkpt lat="48.0317" lon="6.8818">
        <ele>1013.6</ele>
        <time>2022-05-28T12:39:03Z</time>
      </trkpt>
      <trkpt lat="48.03177" lon="6.88163">
        <ele>1011.5</ele>
        <time>2022-05-28T12:39:05Z</time>
      </trkpt>
      <trkpt lat="48.03185" lon="6.88151">
        <ele>1011.4</ele>
        <time>2022-05-28T12:39:07Z</time>
      </trkpt>
      <trkpt lat="48.03193" lon="6.88143">
        <ele>1014.3</ele>
        <time>2022-05-28T12:39:09Z</time>
      </trkpt>
      <trkpt lat="48.03201" lon="6.88136">
        <ele>1016.9</ele>
        <time>2022-05-28T12:39:11Z</time>
      </trkpt>
      <trkpt lat="48.0321" lon="6.88125">
        <ele>1017.9</ele>
        <time>2022-05-28T12:39:14Z</time>
      </trkpt>
      <trkpt lat="48.03216" lon="6.88113">
        <ele>1016</ele>
        <time>2022-05-28T12:39:17Z</time>
      </trkpt>
      <trkpt lat="48.03222" lon="6.88102">
        <ele>1015.7</ele>
        <time>2022-05-28T12:39:20Z</time>
      </trkpt>
      <trkpt lat="48.03226" lon="6.88087">
        <ele>1019.2</ele>
        <time>2022-05-28T12:39:24Z</time>
      </trkpt>
      <trkpt lat="48.03228" lon="6.88072">
        <ele>1019.7</ele>
        <time>2022-05-28T12:39:29Z</time>
      </trkpt>
      <trkpt lat="48.03226" lon="6.88059">
        <ele>1018</ele>
        <time>2022-05-28T12:39:32Z</time>
      </trkpt>
      <trkpt lat="48.03224" lon="6.88045">
        <ele>1019.7</ele>
        <time>2022-05-28T12:39:35Z</time>
      </trkpt>
      <trkpt lat="48.03223" lon="6.88027">
        <ele>1019.7</ele>
        <time>2022-05-28T12:39:39Z</time>
      </trkpt>
      <trkpt lat="48.03226" lon="6.8801">
        <ele>1020</ele>
        <time>2022-05-28T12:39:43Z</time>
      </trkpt>
      <trkpt lat="48.03227" lon="6.87996">
        <ele>1022.4</ele>
        <time>2022-05-28T12:39:46Z</time>
      </trkpt>
      <trkpt lat="48.0323" lon="6.87983">
        <ele>1023.6</ele>
        <time>2022-05-28T12:39:49Z</time>
      </trkpt>
      <trkpt lat="48.03235" lon="6.8797">
        <ele>1022.9</ele>
        <time>2022-05-28T12:39:52Z</time>
      </trkpt>
      <trkpt lat="48.03241" lon="6.87958">
        <ele>1023.1</ele>
        <time>2022-05-28T12:39:55Z</time>
      </trkpt>
      <trkpt lat="48.03249" lon="6.87945">
        <ele>1020.2</ele>
        <time>2022-05-28T12:39:58Z</time>
      </trkpt>
      <trkpt lat="48.03254" lon="6.87934">
        <ele>1019.4</ele>
        <time>2022-05-28T12:40:00Z</time>
      </trkpt>
      <trkpt lat="48.03259" lon="6.8792">
        <ele>1016.6</ele>
        <time>2022-05-28T12:40:02Z</time>
      </trkpt>
      <trkpt lat="48.03263" lon="6.87904">
        <ele>1014.5</ele>
        <time>2022-05-28T12:40:04Z</time>
      </trkpt>
      <trkpt lat="48.0327" lon="6.87886">
        <ele>1014.9</ele>
        <time>2022-05-28T12:40:06Z</time>
      </trkpt>
      <trkpt lat="48.03278" lon="6.87869">
        <ele>1015.1</ele>
        <time>2022-05-28T12:40:08Z</time>
      </trkpt>
      <trkpt lat="48.03287" lon="6.87854">
        <ele>1011.7</ele>
        <time>2022-05-28T12:40:10Z</time>
      </trkpt>
      <trkpt lat="48.03297" lon="6.87841">
        <ele>1010.8</ele>
        <time>2022-05-28T12:40:12Z</time>
      </trkpt>
      <trkpt lat="48.03306" lon="6.87825">
        <ele>1010.9</ele>
        <time>2022-05-28T12:40:14Z</time>
      </trkpt>
      <trkpt lat="48.03312" lon="6.87807">
        <ele>1010.9</ele>
        <time>2022-05-28T12:40:16Z</time>
      </trkpt>
      <trkpt lat="48.03317" lon="6.87788">
        <ele>1009.9</ele>
        <time>2022-05-28T12:40:18Z</time>
      </trkpt>
      <trkpt lat="48.03323" lon="6.87768">
        <ele>1007.7</ele>
        <time>2022-05-28T12:40:20Z</time>
      </trkpt>
      <trkpt lat="48.0333" lon="6.87748">
        <ele>1004</ele>
        <time>2022-05-28T12:40:22Z</time>
      </trkpt>
      <trkpt lat="48.03337" lon="6.87728">
        <ele>1010.3</ele>
        <time>2022-05-28T12:40:24Z</time>
      </trkpt>
      <trkpt lat="48.03345" lon="6.87707">
        <ele>1005.6</ele>
        <time>2022-05-28T12:40:26Z</time>
      </trkpt>
      <trkpt lat="48.0335" lon="6.87687">
        <ele>1000.2</ele>
        <time>2022-05-28T12:40:28Z</time>
      </trkpt>
      <trkpt lat="48.03351" lon="6.87668">
        <ele>1001.2</ele>
        <time>2022-05-28T12:40:30Z</time>
      </trkpt>
      <trkpt lat="48.03345" lon="6.87651">
        <ele>1004.3</ele>
        <time>2022-05-28T12:40:32Z</time>
      </trkpt>
      <trkpt lat="48.03342" lon="6.87629">
        <ele>1005</ele>
        <time>2022-05-28T12:40:34Z</time>
      </trkpt>
      <trkpt lat="48.03347" lon="6.8761">
        <ele>1004</ele>
        <time>2022-05-28T12:40:36Z</time>
      </trkpt>
      <trkpt lat="48.03355" lon="6.87595">
        <ele>1006.3</ele>
        <time>2022-05-28T12:40:38Z</time>
      </trkpt>
      <trkpt lat="48.03363" lon="6.87578">
        <ele>1004.8</ele>
        <time>2022-05-28T12:40:40Z</time>
      </trkpt>
      <trkpt lat="48.03372" lon="6.87563">
        <ele>1003.8</ele>
        <time>2022-05-28T12:40:42Z</time>
      </trkpt>
      <trkpt lat="48.03384" lon="6.87554">
        <ele>998.1</ele>
        <time>2022-05-28T12:40:44Z</time>
      </trkpt>
      <trkpt lat="48.03395" lon="6.8755">
        <ele>1001.3</ele>
        <time>2022-05-28T12:40:46Z</time>
      </trkpt>
      <trkpt lat="48.03406" lon="6.87547">
        <ele>1001.8</ele>
        <time>2022-05-28T12:40:48Z</time>
      </trkpt>
      <trkpt lat="48.03417" lon="6.87541">
        <ele>1003</ele>
        <time>2022-05-28T12:40:51Z</time>
      </trkpt>
      <trkpt lat="48.03429" lon="6.87533">
        <ele>1003.9</ele>
        <time>2022-05-28T12:40:54Z</time>
      </trkpt>
      <trkpt lat="48.0344" lon="6.87527">
        <ele>1002.8</ele>
        <time>2022-05-28T12:40:56Z</time>
      </trkpt>
      <trkpt lat="48.03451" lon="6.8752">
        <ele>1001.6</ele>
        <time>2022-05-28T12:40:58Z</time>
      </trkpt>
      <trkpt lat="48.03461" lon="6.87514">
        <ele>1000.2</ele>
        <time>2022-05-28T12:41:00Z</time>
      </trkpt>
      <trkpt lat="48.03474" lon="6.87507">
        <ele>1001.8</ele>
        <time>2022-05-28T12:41:02Z</time>
      </trkpt>
      <trkpt lat="48.03485" lon="6.87497">
        <ele>1000.7</ele>
        <time>2022-05-28T12:41:04Z</time>
      </trkpt>
      <trkpt lat="48.03494" lon="6.87482">
        <ele>1001.1</ele>
        <time>2022-05-28T12:41:06Z</time>
      </trkpt>
      <trkpt lat="48.03503" lon="6.87465">
        <ele>1000.6</ele>
        <time>2022-05-28T12:41:08Z</time>
      </trkpt>
      <trkpt lat="48.03512" lon="6.87449">
        <ele>1000.5</ele>
        <time>2022-05-28T12:41:10Z</time>
      </trkpt>
      <trkpt lat="48.03517" lon="6.8743">
        <ele>1000.2</ele>
        <time>2022-05-28T12:41:12Z</time>
      </trkpt>
      <trkpt lat="48.03523" lon="6.87411">
        <ele>999.1</ele>
        <time>2022-05-28T12:41:14Z</time>
      </trkpt>
      <trkpt lat="48.03528" lon="6.87394">
        <ele>998.3</ele>
        <time>2022-05-28T12:41:16Z</time>
      </trkpt>
      <trkpt lat="48.03532" lon="6.87386">
        <ele>999.8</ele>
        <time>2022-05-28T12:41:20Z</time>
      </trkpt>
      <trkpt lat="48.03531" lon="6.87385">
        <ele>1000</ele>
        <time>2022-05-28T12:41:21Z</time>
      </trkpt>
      <trkpt lat="48.03528" lon="6.87383">
        <ele>999.4</ele>
        <time>2022-05-28T12:41:27Z</time>
      </trkpt>
      <trkpt lat="48.03528" lon="6.87384">
        <ele>999.3</ele>
        <time>2022-05-28T12:41:58Z</time>
      </trkpt>
      <trkpt lat="48.03528" lon="6.87384">
        <ele>999.5</ele>
        <time>2022-05-28T12:42:28Z</time>
      </trkpt>
      <trkpt lat="48.03527" lon="6.87384">
        <ele>999.8</ele>
        <time>2022-05-28T12:43:29Z</time>
      </trkpt>
      <trkpt lat="48.03527" lon="6.87385">
        <ele>999.5</ele>
        <time>2022-05-28T12:44:22Z</time>
      </trkpt>
      <trkpt lat="48.03527" lon="6.87385">
        <ele>999.3</ele>
        <time>2022-05-28T12:44:32Z</time>
      </trkpt>
      <trkpt lat="48.03526" lon="6.87385">
        <ele>1000</ele>
        <time>2022-05-28T12:45:57Z</time>
      </trkpt>
      <trkpt lat="48.03526" lon="6.87385">
        <ele>1000.1</ele>
        <time>2022-05-28T12:46:17Z</time>
      </trkpt>
      <trkpt lat="48.03524" lon="6.87387">
        <ele>1000.5</ele>
        <time>2022-05-28T12:46:24Z</time>
      </trkpt>
      <trkpt lat="48.03524" lon="6.87386">
        <ele>1000.8</ele>
        <time>2022-05-28T12:46:37Z</time>
      </trkpt>
      <trkpt lat="48.03524" lon="6.87385">
        <ele>1000.7</ele>
        <time>2022-05-28T12:46:44Z</time>
      </trkpt>
      <trkpt lat="48.03529" lon="6.87373">
        <ele>1000.6</ele>
        <time>2022-05-28T12:46:49Z</time>
      </trkpt>
      <trkpt lat="48.03531" lon="6.87355">
        <ele>999.1</ele>
        <time>2022-05-28T12:46:53Z</time>
      </trkpt>
      <trkpt lat="48.03533" lon="6.87342">
        <ele>998.9</ele>
        <time>2022-05-28T12:46:55Z</time>
      </trkpt>
      <trkpt lat="48.03535" lon="6.87326">
        <ele>999</ele>
        <time>2022-05-28T12:46:57Z</time>
      </trkpt>
      <trkpt lat="48.03538" lon="6.8731">
        <ele>999.1</ele>
        <time>2022-05-28T12:46:59Z</time>
      </trkpt>
      <trkpt lat="48.03543" lon="6.87294">
        <ele>997.6</ele>
        <time>2022-05-28T12:47:01Z</time>
      </trkpt>
      <trkpt lat="48.0355" lon="6.87278">
        <ele>996.3</ele>
        <time>2022-05-28T12:47:03Z</time>
      </trkpt>
      <trkpt lat="48.03557" lon="6.87264">
        <ele>997.3</ele>
        <time>2022-05-28T12:47:05Z</time>
      </trkpt>
      <trkpt lat="48.0356" lon="6.87249">
        <ele>998.2</ele>
        <time>2022-05-28T12:47:07Z</time>
      </trkpt>
      <trkpt lat="48.03559" lon="6.87234">
        <ele>997</ele>
        <time>2022-05-28T12:47:09Z</time>
      </trkpt>
      <trkpt lat="48.03555" lon="6.87219">
        <ele>996</ele>
        <time>2022-05-28T12:47:11Z</time>
      </trkpt>
      <trkpt lat="48.03552" lon="6.87202">
        <ele>993.5</ele>
        <time>2022-05-28T12:47:13Z</time>
      </trkpt>
      <trkpt lat="48.0355" lon="6.87184">
        <ele>992.1</ele>
        <time>2022-05-28T12:47:15Z</time>
      </trkpt>
      <trkpt lat="48.03548" lon="6.87165">
        <ele>992.6</ele>
        <time>2022-05-28T12:47:17Z</time>
      </trkpt>
      <trkpt lat="48.03546" lon="6.87147">
        <ele>992.8</ele>
        <time>2022-05-28T12:47:19Z</time>
      </trkpt>
      <trkpt lat="48.03545" lon="6.87129">
        <ele>993.9</ele>
        <time>2022-05-28T12:47:21Z</time>
      </trkpt>
      <trkpt lat="48.03542" lon="6.87111">
        <ele>995.5</ele>
        <time>2022-05-28T12:47:23Z</time>
      </trkpt>
      <trkpt lat="48.03535" lon="6.87096">
        <ele>992</ele>
        <time>2022-05-28T12:47:25Z</time>
      </trkpt>
      <trkpt lat="48.03529" lon="6.87079">
        <ele>994.4</ele>
        <time>2022-05-28T12:47:27Z</time>
      </trkpt>
      <trkpt lat="48.03527" lon="6.87061">
        <ele>993.2</ele>
        <time>2022-05-28T12:47:29Z</time>
      </trkpt>
      <trkpt lat="48.03529" lon="6.87044">
        <ele>992.5</ele>
        <time>2022-05-28T12:47:31Z</time>
      </trkpt>
      <trkpt lat="48.03529" lon="6.87029">
        <ele>993.7</ele>
        <time>2022-05-28T12:47:33Z</time>
      </trkpt>
      <trkpt lat="48.03529" lon="6.87012">
        <ele>994.2</ele>
        <time>2022-05-28T12:47:36Z</time>
      </trkpt>
      <trkpt lat="48.03527" lon="6.86992">
        <ele>992.1</ele>
        <time>2022-05-28T12:47:39Z</time>
      </trkpt>
      <trkpt lat="48.03531" lon="6.86977">
        <ele>992.3</ele>
        <time>2022-05-28T12:47:41Z</time>
      </trkpt>
      <trkpt lat="48.03538" lon="6.86966">
        <ele>992.5</ele>
        <time>2022-05-28T12:47:43Z</time>
      </trkpt>
      <trkpt lat="48.03545" lon="6.86957">
        <ele>992.3</ele>
        <time>2022-05-28T12:47:45Z</time>
      </trkpt>
      <trkpt lat="48.03553" lon="6.86949">
        <ele>991.1</ele>
        <time>2022-05-28T12:47:47Z</time>
      </trkpt>
      <trkpt lat="48.0356" lon="6.86939">
        <ele>991.9</ele>
        <time>2022-05-28T12:47:49Z</time>
      </trkpt>
      <trkpt lat="48.03563" lon="6.86926">
        <ele>993.1</ele>
        <time>2022-05-28T12:47:51Z</time>
      </trkpt>
      <trkpt lat="48.03562" lon="6.86912">
        <ele>993.3</ele>
        <time>2022-05-28T12:47:53Z</time>
      </trkpt>
      <trkpt lat="48.0356" lon="6.86897">
        <ele>991.6</ele>
        <time>2022-05-28T12:47:55Z</time>
      </trkpt>
      <trkpt lat="48.03562" lon="6.8688">
        <ele>989.8</ele>
        <time>2022-05-28T12:47:57Z</time>
      </trkpt>
      <trkpt lat="48.03571" lon="6.86869">
        <ele>988.3</ele>
        <time>2022-05-28T12:47:59Z</time>
      </trkpt>
      <trkpt lat="48.03584" lon="6.86863">
        <ele>988.7</ele>
        <time>2022-05-28T12:48:01Z</time>
      </trkpt>
      <trkpt lat="48.03593" lon="6.86857">
        <ele>987.2</ele>
        <time>2022-05-28T12:48:03Z</time>
      </trkpt>
      <trkpt lat="48.03601" lon="6.86843">
        <ele>988.6</ele>
        <time>2022-05-28T12:48:05Z</time>
      </trkpt>
      <trkpt lat="48.03605" lon="6.86828">
        <ele>988.5</ele>
        <time>2022-05-28T12:48:07Z</time>
      </trkpt>
      <trkpt lat="48.03607" lon="6.86812">
        <ele>986.3</ele>
        <time>2022-05-28T12:48:09Z</time>
      </trkpt>
      <trkpt lat="48.03611" lon="6.86793">
        <ele>983.8</ele>
        <time>2022-05-28T12:48:11Z</time>
      </trkpt>
      <trkpt lat="48.03619" lon="6.86783">
        <ele>981.6</ele>
        <time>2022-05-28T12:48:13Z</time>
      </trkpt>
      <trkpt lat="48.03631" lon="6.86771">
        <ele>982.6</ele>
        <time>2022-05-28T12:48:15Z</time>
      </trkpt>
      <trkpt lat="48.03637" lon="6.86753">
        <ele>982.9</ele>
        <time>2022-05-28T12:48:17Z</time>
      </trkpt>
      <trkpt lat="48.03632" lon="6.86736">
        <ele>983.5</ele>
        <time>2022-05-28T12:48:19Z</time>
      </trkpt>
      <trkpt lat="48.03622" lon="6.86721">
        <ele>983.6</ele>
        <time>2022-05-28T12:48:21Z</time>
      </trkpt>
      <trkpt lat="48.03614" lon="6.86711">
        <ele>983.2</ele>
        <time>2022-05-28T12:48:23Z</time>
      </trkpt>
      <trkpt lat="48.03607" lon="6.86702">
        <ele>984.3</ele>
        <time>2022-05-28T12:48:26Z</time>
      </trkpt>
      <trkpt lat="48.03598" lon="6.86698">
        <ele>983.3</ele>
        <time>2022-05-28T12:48:30Z</time>
      </trkpt>
      <trkpt lat="48.03593" lon="6.86693">
        <ele>984.4</ele>
        <time>2022-05-28T12:48:35Z</time>
      </trkpt>
      <trkpt lat="48.03592" lon="6.86694">
        <ele>984.4</ele>
        <time>2022-05-28T12:48:36Z</time>
      </trkpt>
      <trkpt lat="48.03591" lon="6.86695">
        <ele>984.2</ele>
        <time>2022-05-28T12:48:38Z</time>
      </trkpt>
      <trkpt lat="48.03591" lon="6.86694">
        <ele>983.8</ele>
        <time>2022-05-28T12:48:50Z</time>
      </trkpt>
      <trkpt lat="48.03591" lon="6.86693">
        <ele>984.2</ele>
        <time>2022-05-28T12:48:52Z</time>
      </trkpt>
      <trkpt lat="48.03581" lon="6.86701">
        <ele>984.2</ele>
        <time>2022-05-28T12:49:01Z</time>
      </trkpt>
      <trkpt lat="48.03574" lon="6.86709">
        <ele>985.2</ele>
        <time>2022-05-28T12:49:05Z</time>
      </trkpt>
      <trkpt lat="48.03569" lon="6.86722">
        <ele>987.6</ele>
        <time>2022-05-28T12:49:10Z</time>
      </trkpt>
      <trkpt lat="48.03565" lon="6.86735">
        <ele>989.2</ele>
        <time>2022-05-28T12:49:16Z</time>
      </trkpt>
      <trkpt lat="48.03558" lon="6.86744">
        <ele>992.4</ele>
        <time>2022-05-28T12:49:23Z</time>
      </trkpt>
      <trkpt lat="48.0355" lon="6.86753">
        <ele>993.3</ele>
        <time>2022-05-28T12:49:30Z</time>
      </trkpt>
      <trkpt lat="48.03543" lon="6.86762">
        <ele>993.8</ele>
        <time>2022-05-28T12:49:36Z</time>
      </trkpt>
      <trkpt lat="48.03532" lon="6.86766">
        <ele>994.9</ele>
        <time>2022-05-28T12:49:43Z</time>
      </trkpt>
      <trkpt lat="48.03523" lon="6.86765">
        <ele>996.8</ele>
        <time>2022-05-28T12:49:49Z</time>
      </trkpt>
      <trkpt lat="48.03513" lon="6.86764">
        <ele>997.8</ele>
        <time>2022-05-28T12:49:56Z</time>
      </trkpt>
      <trkpt lat="48.03503" lon="6.86768">
        <ele>997.5</ele>
        <time>2022-05-28T12:50:02Z</time>
      </trkpt>
      <trkpt lat="48.03495" lon="6.86778">
        <ele>1001</ele>
        <time>2022-05-28T12:50:08Z</time>
      </trkpt>
      <trkpt lat="48.03487" lon="6.86786">
        <ele>1002.7</ele>
        <time>2022-05-28T12:50:17Z</time>
      </trkpt>
      <trkpt lat="48.03478" lon="6.86794">
        <ele>1003.4</ele>
        <time>2022-05-28T12:50:23Z</time>
      </trkpt>
      <trkpt lat="48.0347" lon="6.86802">
        <ele>1005</ele>
        <time>2022-05-28T12:50:29Z</time>
      </trkpt>
      <trkpt lat="48.03465" lon="6.86813">
        <ele>1006</ele>
        <time>2022-05-28T12:50:36Z</time>
      </trkpt>
      <trkpt lat="48.03462" lon="6.86826">
        <ele>1005.6</ele>
        <time>2022-05-28T12:50:41Z</time>
      </trkpt>
      <trkpt lat="48.03458" lon="6.86839">
        <ele>1005.8</ele>
        <time>2022-05-28T12:50:45Z</time>
      </trkpt>
      <trkpt lat="48.03451" lon="6.86848">
        <ele>1006.1</ele>
        <time>2022-05-28T12:50:53Z</time>
      </trkpt>
      <trkpt lat="48.03451" lon="6.86849">
        <ele>1006.1</ele>
        <time>2022-05-28T12:50:55Z</time>
      </trkpt>
      <trkpt lat="48.03445" lon="6.86854">
        <ele>1006</ele>
        <time>2022-05-28T12:51:07Z</time>
      </trkpt>
      <trkpt lat="48.03446" lon="6.86853">
        <ele>1005.8</ele>
        <time>2022-05-28T12:51:13Z</time>
      </trkpt>
      <trkpt lat="48.03453" lon="6.86847">
        <ele>1005.8</ele>
        <time>2022-05-28T12:51:22Z</time>
      </trkpt>
      <trkpt lat="48.03453" lon="6.86846">
        <ele>1005.7</ele>
        <time>2022-05-28T12:51:28Z</time>
      </trkpt>
      <trkpt lat="48.03452" lon="6.86847">
        <ele>1006</ele>
        <time>2022-05-28T12:51:32Z</time>
      </trkpt>
      <trkpt lat="48.03443" lon="6.86854">
        <ele>1005.9</ele>
        <time>2022-05-28T12:51:38Z</time>
      </trkpt>
      <trkpt lat="48.03434" lon="6.86859">
        <ele>1005.7</ele>
        <time>2022-05-28T12:51:42Z</time>
      </trkpt>
      <trkpt lat="48.03423" lon="6.86864">
        <ele>1003.3</ele>
        <time>2022-05-28T12:51:45Z</time>
      </trkpt>
      <trkpt lat="48.03411" lon="6.86871">
        <ele>1003.4</ele>
        <time>2022-05-28T12:51:48Z</time>
      </trkpt>
      <trkpt lat="48.03403" lon="6.86877">
        <ele>1003.7</ele>
        <time>2022-05-28T12:51:51Z</time>
      </trkpt>
      <trkpt lat="48.03392" lon="6.86884">
        <ele>1003.3</ele>
        <time>2022-05-28T12:51:55Z</time>
      </trkpt>
      <trkpt lat="48.03382" lon="6.86891">
        <ele>1003.7</ele>
        <time>2022-05-28T12:51:59Z</time>
      </trkpt>
      <trkpt lat="48.03373" lon="6.86898">
        <ele>1005</ele>
        <time>2022-05-28T12:52:03Z</time>
      </trkpt>
      <trkpt lat="48.03366" lon="6.86906">
        <ele>1005.2</ele>
        <time>2022-05-28T12:52:07Z</time>
      </trkpt>
      <trkpt lat="48.03358" lon="6.86913">
        <ele>1005.5</ele>
        <time>2022-05-28T12:52:11Z</time>
      </trkpt>
      <trkpt lat="48.03348" lon="6.8692">
        <ele>1007.3</ele>
        <time>2022-05-28T12:52:16Z</time>
      </trkpt>
      <trkpt lat="48.03339" lon="6.86928">
        <ele>1007.4</ele>
        <time>2022-05-28T12:52:21Z</time>
      </trkpt>
      <trkpt lat="48.03332" lon="6.86939">
        <ele>1007.7</ele>
        <time>2022-05-28T12:52:25Z</time>
      </trkpt>
      <trkpt lat="48.03327" lon="6.86951">
        <ele>1006.9</ele>
        <time>2022-05-28T12:52:28Z</time>
      </trkpt>
      <trkpt lat="48.03321" lon="6.86965">
        <ele>1007.8</ele>
        <time>2022-05-28T12:52:32Z</time>
      </trkpt>
      <trkpt lat="48.03315" lon="6.86979">
        <ele>1009.7</ele>
        <time>2022-05-28T12:52:36Z</time>
      </trkpt>
      <trkpt lat="48.03308" lon="6.8699">
        <ele>1009.8</ele>
        <time>2022-05-28T12:52:40Z</time>
      </trkpt>
      <trkpt lat="48.03299" lon="6.87002">
        <ele>1009.2</ele>
        <time>2022-05-28T12:52:44Z</time>
      </trkpt>
      <trkpt lat="48.03293" lon="6.87012">
        <ele>1008.3</ele>
        <time>2022-05-28T12:52:47Z</time>
      </trkpt>
      <trkpt lat="48.03287" lon="6.87026">
        <ele>1010</ele>
        <time>2022-05-28T12:52:51Z</time>
      </trkpt>
      <trkpt lat="48.03284" lon="6.87041">
        <ele>1010.2</ele>
        <time>2022-05-28T12:52:55Z</time>
      </trkpt>
      <trkpt lat="48.03282" lon="6.87057">
        <ele>1010.9</ele>
        <time>2022-05-28T12:53:00Z</time>
      </trkpt>
      <trkpt lat="48.03279" lon="6.87072">
        <ele>1011.6</ele>
        <time>2022-05-28T12:53:05Z</time>
      </trkpt>
      <trkpt lat="48.03275" lon="6.87087">
        <ele>1013</ele>
        <time>2022-05-28T12:53:10Z</time>
      </trkpt>
      <trkpt lat="48.0327" lon="6.87099">
        <ele>1013.5</ele>
        <time>2022-05-28T12:53:15Z</time>
      </trkpt>
      <trkpt lat="48.03264" lon="6.87113">
        <ele>1014.5</ele>
        <time>2022-05-28T12:53:21Z</time>
      </trkpt>
      <trkpt lat="48.0326" lon="6.87126">
        <ele>1016</ele>
        <time>2022-05-28T12:53:27Z</time>
      </trkpt>
      <trkpt lat="48.0326" lon="6.8714">
        <ele>1017.5</ele>
        <time>2022-05-28T12:53:32Z</time>
      </trkpt>
      <trkpt lat="48.03264" lon="6.87154">
        <ele>1018.5</ele>
        <time>2022-05-28T12:53:38Z</time>
      </trkpt>
      <trkpt lat="48.03265" lon="6.87168">
        <ele>1018.9</ele>
        <time>2022-05-28T12:53:43Z</time>
      </trkpt>
      <trkpt lat="48.03268" lon="6.87183">
        <ele>1019.5</ele>
        <time>2022-05-28T12:53:49Z</time>
      </trkpt>
      <trkpt lat="48.03272" lon="6.87197">
        <ele>1020.6</ele>
        <time>2022-05-28T12:53:55Z</time>
      </trkpt>
      <trkpt lat="48.03276" lon="6.8721">
        <ele>1021.2</ele>
        <time>2022-05-28T12:54:01Z</time>
      </trkpt>
      <trkpt lat="48.03282" lon="6.87223">
        <ele>1022.4</ele>
        <time>2022-05-28T12:54:06Z</time>
      </trkpt>
      <trkpt lat="48.03288" lon="6.87234">
        <ele>1024.1</ele>
        <time>2022-05-28T12:54:11Z</time>
      </trkpt>
      <trkpt lat="48.03295" lon="6.87244">
        <ele>1024.9</ele>
        <time>2022-05-28T12:54:17Z</time>
      </trkpt>
      <trkpt lat="48.03302" lon="6.87253">
        <ele>1026.4</ele>
        <time>2022-05-28T12:54:23Z</time>
      </trkpt>
      <trkpt lat="48.03308" lon="6.87266">
        <ele>1026.3</ele>
        <time>2022-05-28T12:54:29Z</time>
      </trkpt>
      <trkpt lat="48.0331" lon="6.87281">
        <ele>1027.1</ele>
        <time>2022-05-28T12:54:35Z</time>
      </trkpt>
      <trkpt lat="48.033" lon="6.87286">
        <ele>1027.9</ele>
        <time>2022-05-28T12:54:39Z</time>
      </trkpt>
      <trkpt lat="48.0329" lon="6.87283">
        <ele>1028.3</ele>
        <time>2022-05-28T12:54:45Z</time>
      </trkpt>
      <trkpt lat="48.03281" lon="6.87282">
        <ele>1029</ele>
        <time>2022-05-28T12:54:50Z</time>
      </trkpt>
      <trkpt lat="48.03271" lon="6.87286">
        <ele>1028.8</ele>
        <time>2022-05-28T12:54:56Z</time>
      </trkpt>
      <trkpt lat="48.03263" lon="6.87294">
        <ele>1029.4</ele>
        <time>2022-05-28T12:55:02Z</time>
      </trkpt>
      <trkpt lat="48.03256" lon="6.87303">
        <ele>1029.9</ele>
        <time>2022-05-28T12:55:06Z</time>
      </trkpt>
      <trkpt lat="48.03248" lon="6.87317">
        <ele>1027.8</ele>
        <time>2022-05-28T12:55:10Z</time>
      </trkpt>
      <trkpt lat="48.03241" lon="6.87328">
        <ele>1028</ele>
        <time>2022-05-28T12:55:13Z</time>
      </trkpt>
      <trkpt lat="48.03232" lon="6.87343">
        <ele>1028.4</ele>
        <time>2022-05-28T12:55:16Z</time>
      </trkpt>
      <trkpt lat="48.03225" lon="6.87359">
        <ele>1026.6</ele>
        <time>2022-05-28T12:55:19Z</time>
      </trkpt>
      <trkpt lat="48.03226" lon="6.87378">
        <ele>1028</ele>
        <time>2022-05-28T12:55:22Z</time>
      </trkpt>
      <trkpt lat="48.03231" lon="6.8739">
        <ele>1030.7</ele>
        <time>2022-05-28T12:55:25Z</time>
      </trkpt>
      <trkpt lat="48.03241" lon="6.87401">
        <ele>1027.9</ele>
        <time>2022-05-28T12:55:29Z</time>
      </trkpt>
      <trkpt lat="48.03249" lon="6.8741">
        <ele>1028.2</ele>
        <time>2022-05-28T12:55:32Z</time>
      </trkpt>
      <trkpt lat="48.03258" lon="6.87418">
        <ele>1028.8</ele>
        <time>2022-05-28T12:55:35Z</time>
      </trkpt>
      <trkpt lat="48.03265" lon="6.87431">
        <ele>1027.5</ele>
        <time>2022-05-28T12:55:38Z</time>
      </trkpt>
      <trkpt lat="48.03268" lon="6.8745">
        <ele>1027</ele>
        <time>2022-05-28T12:55:41Z</time>
      </trkpt>
      <trkpt lat="48.03265" lon="6.87464">
        <ele>1026.6</ele>
        <time>2022-05-28T12:55:43Z</time>
      </trkpt>
      <trkpt lat="48.03261" lon="6.87478">
        <ele>1025.2</ele>
        <time>2022-05-28T12:55:45Z</time>
      </trkpt>
      <trkpt lat="48.03256" lon="6.87492">
        <ele>1024.4</ele>
        <time>2022-05-28T12:55:47Z</time>
      </trkpt>
      <trkpt lat="48.03253" lon="6.87505">
        <ele>1025.8</ele>
        <time>2022-05-28T12:55:49Z</time>
      </trkpt>
      <trkpt lat="48.03247" lon="6.8752">
        <ele>1027.5</ele>
        <time>2022-05-28T12:55:52Z</time>
      </trkpt>
      <trkpt lat="48.03241" lon="6.87535">
        <ele>1028.6</ele>
        <time>2022-05-28T12:55:56Z</time>
      </trkpt>
      <trkpt lat="48.03237" lon="6.8755">
        <ele>1026</ele>
        <time>2022-05-28T12:55:59Z</time>
      </trkpt>
      <trkpt lat="48.03233" lon="6.87566">
        <ele>1025.5</ele>
        <time>2022-05-28T12:56:01Z</time>
      </trkpt>
      <trkpt lat="48.03222" lon="6.87579">
        <ele>1023.7</ele>
        <time>2022-05-28T12:56:03Z</time>
      </trkpt>
      <trkpt lat="48.03211" lon="6.87585">
        <ele>1020.1</ele>
        <time>2022-05-28T12:56:05Z</time>
      </trkpt>
      <trkpt lat="48.032" lon="6.87584">
        <ele>1021.5</ele>
        <time>2022-05-28T12:56:07Z</time>
      </trkpt>
      <trkpt lat="48.03191" lon="6.87582">
        <ele>1024.4</ele>
        <time>2022-05-28T12:56:09Z</time>
      </trkpt>
      <trkpt lat="48.03179" lon="6.8758">
        <ele>1023.3</ele>
        <time>2022-05-28T12:56:12Z</time>
      </trkpt>
      <trkpt lat="48.03169" lon="6.87585">
        <ele>1021.6</ele>
        <time>2022-05-28T12:56:15Z</time>
      </trkpt>
      <trkpt lat="48.0316" lon="6.876">
        <ele>1022.7</ele>
        <time>2022-05-28T12:56:18Z</time>
      </trkpt>
      <trkpt lat="48.03153" lon="6.87616">
        <ele>1024.4</ele>
        <time>2022-05-28T12:56:21Z</time>
      </trkpt>
      <trkpt lat="48.03149" lon="6.87629">
        <ele>1024</ele>
        <time>2022-05-28T12:56:24Z</time>
      </trkpt>
      <trkpt lat="48.03144" lon="6.87645">
        <ele>1025</ele>
        <time>2022-05-28T12:56:28Z</time>
      </trkpt>
      <trkpt lat="48.03142" lon="6.8766">
        <ele>1026.6</ele>
        <time>2022-05-28T12:56:32Z</time>
      </trkpt>
      <trkpt lat="48.03142" lon="6.87674">
        <ele>1029.1</ele>
        <time>2022-05-28T12:56:36Z</time>
      </trkpt>
      <trkpt lat="48.03141" lon="6.8769">
        <ele>1029.7</ele>
        <time>2022-05-28T12:56:41Z</time>
      </trkpt>
      <trkpt lat="48.0314" lon="6.87705">
        <ele>1031.3</ele>
        <time>2022-05-28T12:56:47Z</time>
      </trkpt>
      <trkpt lat="48.03138" lon="6.8772">
        <ele>1031.6</ele>
        <time>2022-05-28T12:56:52Z</time>
      </trkpt>
      <trkpt lat="48.03136" lon="6.87734">
        <ele>1031.4</ele>
        <time>2022-05-28T12:56:56Z</time>
      </trkpt>
      <trkpt lat="48.03134" lon="6.8775">
        <ele>1031.5</ele>
        <time>2022-05-28T12:57:00Z</time>
      </trkpt>
      <trkpt lat="48.03131" lon="6.87765">
        <ele>1032.4</ele>
        <time>2022-05-28T12:57:04Z</time>
      </trkpt>
      <trkpt lat="48.0313" lon="6.8778">
        <ele>1033.5</ele>
        <time>2022-05-28T12:57:09Z</time>
      </trkpt>
      <trkpt lat="48.03129" lon="6.87795">
        <ele>1035</ele>
        <time>2022-05-28T12:57:14Z</time>
      </trkpt>
      <trkpt lat="48.03129" lon="6.87809">
        <ele>1036.8</ele>
        <time>2022-05-28T12:57:19Z</time>
      </trkpt>
      <trkpt lat="48.03127" lon="6.87824">
        <ele>1037.5</ele>
        <time>2022-05-28T12:57:25Z</time>
      </trkpt>
      <trkpt lat="48.03124" lon="6.87839">
        <ele>1039.1</ele>
        <time>2022-05-28T12:57:30Z</time>
      </trkpt>
      <trkpt lat="48.03124" lon="6.87853">
        <ele>1039.6</ele>
        <time>2022-05-28T12:57:35Z</time>
      </trkpt>
      <trkpt lat="48.03123" lon="6.87868">
        <ele>1041</ele>
        <time>2022-05-28T12:57:41Z</time>
      </trkpt>
      <trkpt lat="48.0312" lon="6.87882">
        <ele>1042.3</ele>
        <time>2022-05-28T12:57:47Z</time>
      </trkpt>
      <trkpt lat="48.03114" lon="6.87894">
        <ele>1044</ele>
        <time>2022-05-28T12:57:55Z</time>
      </trkpt>
      <trkpt lat="48.03108" lon="6.87904">
        <ele>1045</ele>
        <time>2022-05-28T12:58:01Z</time>
      </trkpt>
      <trkpt lat="48.03101" lon="6.87914">
        <ele>1046.8</ele>
        <time>2022-05-28T12:58:07Z</time>
      </trkpt>
      <trkpt lat="48.03092" lon="6.87922">
        <ele>1047.9</ele>
        <time>2022-05-28T12:58:15Z</time>
      </trkpt>
      <trkpt lat="48.03084" lon="6.87932">
        <ele>1049.9</ele>
        <time>2022-05-28T12:58:21Z</time>
      </trkpt>
      <trkpt lat="48.03076" lon="6.87942">
        <ele>1050.7</ele>
        <time>2022-05-28T12:58:26Z</time>
      </trkpt>
      <trkpt lat="48.0307" lon="6.87953">
        <ele>1052.5</ele>
        <time>2022-05-28T12:58:31Z</time>
      </trkpt>
      <trkpt lat="48.03064" lon="6.87965">
        <ele>1053.1</ele>
        <time>2022-05-28T12:58:37Z</time>
      </trkpt>
      <trkpt lat="48.03059" lon="6.87978">
        <ele>1053.2</ele>
        <time>2022-05-28T12:58:42Z</time>
      </trkpt>
      <trkpt lat="48.03055" lon="6.87994">
        <ele>1052.1</ele>
        <time>2022-05-28T12:58:46Z</time>
      </trkpt>
      <trkpt lat="48.03053" lon="6.8801">
        <ele>1052.5</ele>
        <time>2022-05-28T12:58:49Z</time>
      </trkpt>
      <trkpt lat="48.03051" lon="6.88023">
        <ele>1052.9</ele>
        <time>2022-05-28T12:58:52Z</time>
      </trkpt>
      <trkpt lat="48.03047" lon="6.88039">
        <ele>1052</ele>
        <time>2022-05-28T12:58:55Z</time>
      </trkpt>
      <trkpt lat="48.03042" lon="6.88057">
        <ele>1052.9</ele>
        <time>2022-05-28T12:58:58Z</time>
      </trkpt>
      <trkpt lat="48.03037" lon="6.8807">
        <ele>1052.4</ele>
        <time>2022-05-28T12:59:01Z</time>
      </trkpt>
      <trkpt lat="48.03033" lon="6.88084">
        <ele>1052.8</ele>
        <time>2022-05-28T12:59:04Z</time>
      </trkpt>
      <trkpt lat="48.0303" lon="6.88097">
        <ele>1053.4</ele>
        <time>2022-05-28T12:59:07Z</time>
      </trkpt>
      <trkpt lat="48.03022" lon="6.88105">
        <ele>1053.4</ele>
        <time>2022-05-28T12:59:11Z</time>
      </trkpt>
      <trkpt lat="48.03012" lon="6.8811">
        <ele>1053.5</ele>
        <time>2022-05-28T12:59:16Z</time>
      </trkpt>
      <trkpt lat="48.03002" lon="6.88119">
        <ele>1053.1</ele>
        <time>2022-05-28T12:59:21Z</time>
      </trkpt>
      <trkpt lat="48.02991" lon="6.88126">
        <ele>1048.8</ele>
        <time>2022-05-28T12:59:24Z</time>
      </trkpt>
      <trkpt lat="48.0298" lon="6.88132">
        <ele>1049</ele>
        <time>2022-05-28T12:59:26Z</time>
      </trkpt>
      <trkpt lat="48.0297" lon="6.88139">
        <ele>1050.1</ele>
        <time>2022-05-28T12:59:28Z</time>
      </trkpt>
      <trkpt lat="48.02962" lon="6.88146">
        <ele>1048</ele>
        <time>2022-05-28T12:59:30Z</time>
      </trkpt>
      <trkpt lat="48.02954" lon="6.88155">
        <ele>1047.1</ele>
        <time>2022-05-28T12:59:32Z</time>
      </trkpt>
      <trkpt lat="48.02945" lon="6.88168">
        <ele>1044.4</ele>
        <time>2022-05-28T12:59:35Z</time>
      </trkpt>
      <trkpt lat="48.02937" lon="6.88181">
        <ele>1039.1</ele>
        <time>2022-05-28T12:59:38Z</time>
      </trkpt>
      <trkpt lat="48.0293" lon="6.88191">
        <ele>1038.5</ele>
        <time>2022-05-28T12:59:40Z</time>
      </trkpt>
      <trkpt lat="48.02923" lon="6.88204">
        <ele>1038.1</ele>
        <time>2022-05-28T12:59:42Z</time>
      </trkpt>
      <trkpt lat="48.02916" lon="6.88217">
        <ele>1033.9</ele>
        <time>2022-05-28T12:59:45Z</time>
      </trkpt>
      <trkpt lat="48.0291" lon="6.88227">
        <ele>1034.1</ele>
        <time>2022-05-28T12:59:48Z</time>
      </trkpt>
      <trkpt lat="48.029" lon="6.88237">
        <ele>1030</ele>
        <time>2022-05-28T12:59:51Z</time>
      </trkpt>
      <trkpt lat="48.02891" lon="6.88248">
        <ele>1024.9</ele>
        <time>2022-05-28T12:59:54Z</time>
      </trkpt>
      <trkpt lat="48.02883" lon="6.8826">
        <ele>1023.2</ele>
        <time>2022-05-28T12:59:57Z</time>
      </trkpt>
      <trkpt lat="48.02877" lon="6.88271">
        <ele>1024.1</ele>
        <time>2022-05-28T12:59:59Z</time>
      </trkpt>
      <trkpt lat="48.02874" lon="6.88285">
        <ele>1023.4</ele>
        <time>2022-05-28T13:00:02Z</time>
      </trkpt>
      <trkpt lat="48.02873" lon="6.88289">
        <ele>1023.5</ele>
        <time>2022-05-28T13:00:05Z</time>
      </trkpt>
      <trkpt lat="48.02873" lon="6.8829">
        <ele>1023.4</ele>
        <time>2022-05-28T13:00:15Z</time>
      </trkpt>
      <trkpt lat="48.02872" lon="6.88295">
        <ele>1023.1</ele>
        <time>2022-05-28T13:00:20Z</time>
      </trkpt>
      <trkpt lat="48.02865" lon="6.88304">
        <ele>1021.7</ele>
        <time>2022-05-28T13:00:31Z</time>
      </trkpt>
      <trkpt lat="48.02861" lon="6.88319">
        <ele>1019.3</ele>
        <time>2022-05-28T13:00:34Z</time>
      </trkpt>
      <trkpt lat="48.02857" lon="6.88335">
        <ele>1016.9</ele>
        <time>2022-05-28T13:00:36Z</time>
      </trkpt>
      <trkpt lat="48.02853" lon="6.88353">
        <ele>1017.6</ele>
        <time>2022-05-28T13:00:38Z</time>
      </trkpt>
      <trkpt lat="48.02851" lon="6.88366">
        <ele>1017.8</ele>
        <time>2022-05-28T13:00:40Z</time>
      </trkpt>
      <trkpt lat="48.02848" lon="6.88381">
        <ele>1013.9</ele>
        <time>2022-05-28T13:00:43Z</time>
      </trkpt>
      <trkpt lat="48.02839" lon="6.88391">
        <ele>1011</ele>
        <time>2022-05-28T13:00:47Z</time>
      </trkpt>
      <trkpt lat="48.02828" lon="6.88395">
        <ele>1008.2</ele>
        <time>2022-05-28T13:00:51Z</time>
      </trkpt>
      <trkpt lat="48.02819" lon="6.88396">
        <ele>1004.7</ele>
        <time>2022-05-28T13:00:54Z</time>
      </trkpt>
      <trkpt lat="48.02808" lon="6.88395">
        <ele>1004.1</ele>
        <time>2022-05-28T13:00:58Z</time>
      </trkpt>
      <trkpt lat="48.02798" lon="6.88388">
        <ele>999.9</ele>
        <time>2022-05-28T13:01:01Z</time>
      </trkpt>
      <trkpt lat="48.02786" lon="6.88387">
        <ele>998.5</ele>
        <time>2022-05-28T13:01:04Z</time>
      </trkpt>
      <trkpt lat="48.02773" lon="6.88384">
        <ele>997</ele>
        <time>2022-05-28T13:01:08Z</time>
      </trkpt>
      <trkpt lat="48.02761" lon="6.88389">
        <ele>993.6</ele>
        <time>2022-05-28T13:01:11Z</time>
      </trkpt>
      <trkpt lat="48.02749" lon="6.88395">
        <ele>992.3</ele>
        <time>2022-05-28T13:01:13Z</time>
      </trkpt>
      <trkpt lat="48.02737" lon="6.88402">
        <ele>989.5</ele>
        <time>2022-05-28T13:01:15Z</time>
      </trkpt>
      <trkpt lat="48.02726" lon="6.8841">
        <ele>989.1</ele>
        <time>2022-05-28T13:01:17Z</time>
      </trkpt>
      <trkpt lat="48.02716" lon="6.88418">
        <ele>985.9</ele>
        <time>2022-05-28T13:01:19Z</time>
      </trkpt>
      <trkpt lat="48.02706" lon="6.88417">
        <ele>984.5</ele>
        <time>2022-05-28T13:01:21Z</time>
      </trkpt>
      <trkpt lat="48.027" lon="6.88402">
        <ele>982.8</ele>
        <time>2022-05-28T13:01:25Z</time>
      </trkpt>
      <trkpt lat="48.02711" lon="6.88397">
        <ele>986</ele>
        <time>2022-05-28T13:01:29Z</time>
      </trkpt>
      <trkpt lat="48.02711" lon="6.88411">
        <ele>986.2</ele>
        <time>2022-05-28T13:01:34Z</time>
      </trkpt>
      <trkpt lat="48.02711" lon="6.88415">
        <ele>986.3</ele>
        <time>2022-05-28T13:01:37Z</time>
      </trkpt>
      <trkpt lat="48.02712" lon="6.88415">
        <ele>985.7</ele>
        <time>2022-05-28T13:02:29Z</time>
      </trkpt>
      <trkpt lat="48.02709" lon="6.88429">
        <ele>985.8</ele>
        <time>2022-05-28T13:02:39Z</time>
      </trkpt>
      <trkpt lat="48.02711" lon="6.88432">
        <ele>984.4</ele>
        <time>2022-05-28T13:02:46Z</time>
      </trkpt>
      <trkpt lat="48.02711" lon="6.88435">
        <ele>984.7</ele>
        <time>2022-05-28T13:02:56Z</time>
      </trkpt>
      <trkpt lat="48.0271" lon="6.88435">
        <ele>984.8</ele>
        <time>2022-05-28T13:02:58Z</time>
      </trkpt>
      <trkpt lat="48.02702" lon="6.8844">
        <ele>983.1</ele>
        <time>2022-05-28T13:03:05Z</time>
      </trkpt>
      <trkpt lat="48.02695" lon="6.88455">
        <ele>983</ele>
        <time>2022-05-28T13:03:09Z</time>
      </trkpt>
      <trkpt lat="48.02687" lon="6.88467">
        <ele>980.5</ele>
        <time>2022-05-28T13:03:12Z</time>
      </trkpt>
      <trkpt lat="48.02678" lon="6.88478">
        <ele>980.3</ele>
        <time>2022-05-28T13:03:15Z</time>
      </trkpt>
      <trkpt lat="48.02669" lon="6.88485">
        <ele>977.6</ele>
        <time>2022-05-28T13:03:20Z</time>
      </trkpt>
      <trkpt lat="48.02663" lon="6.88492">
        <ele>976.1</ele>
        <time>2022-05-28T13:03:27Z</time>
      </trkpt>
      <trkpt lat="48.02662" lon="6.88493">
        <ele>976</ele>
        <time>2022-05-28T13:03:29Z</time>
      </trkpt>
      <trkpt lat="48.0266" lon="6.88501">
        <ele>975.2</ele>
        <time>2022-05-28T13:03:48Z</time>
      </trkpt>
      <trkpt lat="48.02659" lon="6.885">
        <ele>973.4</ele>
        <time>2022-05-28T13:03:53Z</time>
      </trkpt>
      <trkpt lat="48.02658" lon="6.88502">
        <ele>973.8</ele>
        <time>2022-05-28T13:03:56Z</time>
      </trkpt>
      <trkpt lat="48.02653" lon="6.88516">
        <ele>973</ele>
        <time>2022-05-28T13:04:03Z</time>
      </trkpt>
      <trkpt lat="48.02649" lon="6.88531">
        <ele>973</ele>
        <time>2022-05-28T13:04:08Z</time>
      </trkpt>
      <trkpt lat="48.02647" lon="6.88534">
        <ele>972.7</ele>
        <time>2022-05-28T13:04:11Z</time>
      </trkpt>
      <trkpt lat="48.02647" lon="6.88535">
        <ele>972.7</ele>
        <time>2022-05-28T13:04:38Z</time>
      </trkpt>
      <trkpt lat="48.02646" lon="6.88536">
        <ele>972.3</ele>
        <time>2022-05-28T13:05:06Z</time>
      </trkpt>
      <trkpt lat="48.02638" lon="6.88546">
        <ele>971.7</ele>
        <time>2022-05-28T13:05:11Z</time>
      </trkpt>
      <trkpt lat="48.02634" lon="6.8856">
        <ele>971.3</ele>
        <time>2022-05-28T13:05:15Z</time>
      </trkpt>
      <trkpt lat="48.02632" lon="6.88574">
        <ele>971.2</ele>
        <time>2022-05-28T13:05:18Z</time>
      </trkpt>
      <trkpt lat="48.02625" lon="6.88583">
        <ele>970.1</ele>
        <time>2022-05-28T13:05:21Z</time>
      </trkpt>
      <trkpt lat="48.02614" lon="6.88584">
        <ele>969.4</ele>
        <time>2022-05-28T13:05:24Z</time>
      </trkpt>
      <trkpt lat="48.02604" lon="6.88579">
        <ele>969</ele>
        <time>2022-05-28T13:05:27Z</time>
      </trkpt>
      <trkpt lat="48.02595" lon="6.88573">
        <ele>968.2</ele>
        <time>2022-05-28T13:05:30Z</time>
      </trkpt>
      <trkpt lat="48.02584" lon="6.88566">
        <ele>967.1</ele>
        <time>2022-05-28T13:05:33Z</time>
      </trkpt>
      <trkpt lat="48.02573" lon="6.88561">
        <ele>967.3</ele>
        <time>2022-05-28T13:05:36Z</time>
      </trkpt>
      <trkpt lat="48.02563" lon="6.88549">
        <ele>966.4</ele>
        <time>2022-05-28T13:05:39Z</time>
      </trkpt>
      <trkpt lat="48.02559" lon="6.88537">
        <ele>963.9</ele>
        <time>2022-05-28T13:05:41Z</time>
      </trkpt>
      <trkpt lat="48.02556" lon="6.88523">
        <ele>964.2</ele>
        <time>2022-05-28T13:05:43Z</time>
      </trkpt>
      <trkpt lat="48.02553" lon="6.8851">
        <ele>966.7</ele>
        <time>2022-05-28T13:05:45Z</time>
      </trkpt>
      <trkpt lat="48.0255" lon="6.88496">
        <ele>964.2</ele>
        <time>2022-05-28T13:05:47Z</time>
      </trkpt>
      <trkpt lat="48.02544" lon="6.88479">
        <ele>966.9</ele>
        <time>2022-05-28T13:05:50Z</time>
      </trkpt>
      <trkpt lat="48.02538" lon="6.88467">
        <ele>966.8</ele>
        <time>2022-05-28T13:05:53Z</time>
      </trkpt>
      <trkpt lat="48.0253" lon="6.88458">
        <ele>966.9</ele>
        <time>2022-05-28T13:05:56Z</time>
      </trkpt>
      <trkpt lat="48.02522" lon="6.88449">
        <ele>967.7</ele>
        <time>2022-05-28T13:05:59Z</time>
      </trkpt>
      <trkpt lat="48.02513" lon="6.88443">
        <ele>967.9</ele>
        <time>2022-05-28T13:06:02Z</time>
      </trkpt>
      <trkpt lat="48.02503" lon="6.88439">
        <ele>966.5</ele>
        <time>2022-05-28T13:06:05Z</time>
      </trkpt>
      <trkpt lat="48.02492" lon="6.88435">
        <ele>966.7</ele>
        <time>2022-05-28T13:06:08Z</time>
      </trkpt>
      <trkpt lat="48.02481" lon="6.88434">
        <ele>967.5</ele>
        <time>2022-05-28T13:06:11Z</time>
      </trkpt>
      <trkpt lat="48.0247" lon="6.88435">
        <ele>968.3</ele>
        <time>2022-05-28T13:06:14Z</time>
      </trkpt>
      <trkpt lat="48.02461" lon="6.88438">
        <ele>968.3</ele>
        <time>2022-05-28T13:06:17Z</time>
      </trkpt>
      <trkpt lat="48.02452" lon="6.88441">
        <ele>968.5</ele>
        <time>2022-05-28T13:06:20Z</time>
      </trkpt>
      <trkpt lat="48.02442" lon="6.88443">
        <ele>967.5</ele>
        <time>2022-05-28T13:06:23Z</time>
      </trkpt>
      <trkpt lat="48.02432" lon="6.88436">
        <ele>969.6</ele>
        <time>2022-05-28T13:06:26Z</time>
      </trkpt>
      <trkpt lat="48.02425" lon="6.88428">
        <ele>966.4</ele>
        <time>2022-05-28T13:06:29Z</time>
      </trkpt>
      <trkpt lat="48.02422" lon="6.88426">
        <ele>965.3</ele>
        <time>2022-05-28T13:06:35Z</time>
      </trkpt>
      <trkpt lat="48.02414" lon="6.88415">
        <ele>966.3</ele>
        <time>2022-05-28T13:06:40Z</time>
      </trkpt>
      <trkpt lat="48.02405" lon="6.88406">
        <ele>963.1</ele>
        <time>2022-05-28T13:06:42Z</time>
      </trkpt>
      <trkpt lat="48.02396" lon="6.88399">
        <ele>963</ele>
        <time>2022-05-28T13:06:44Z</time>
      </trkpt>
      <trkpt lat="48.02384" lon="6.88395">
        <ele>963.4</ele>
        <time>2022-05-28T13:06:47Z</time>
      </trkpt>
      <trkpt lat="48.02373" lon="6.88393">
        <ele>964.9</ele>
        <time>2022-05-28T13:06:51Z</time>
      </trkpt>
      <trkpt lat="48.02362" lon="6.88391">
        <ele>967.2</ele>
        <time>2022-05-28T13:06:55Z</time>
      </trkpt>
      <trkpt lat="48.02352" lon="6.88389">
        <ele>966.6</ele>
        <time>2022-05-28T13:06:59Z</time>
      </trkpt>
      <trkpt lat="48.02343" lon="6.88392">
        <ele>968.7</ele>
        <time>2022-05-28T13:07:06Z</time>
      </trkpt>
      <trkpt lat="48.0235" lon="6.88381">
        <ele>968.6</ele>
        <time>2022-05-28T13:07:16Z</time>
      </trkpt>
      <trkpt lat="48.02361" lon="6.8838">
        <ele>967.7</ele>
        <time>2022-05-28T13:07:24Z</time>
      </trkpt>
      <trkpt lat="48.0237" lon="6.88375">
        <ele>967.5</ele>
        <time>2022-05-28T13:07:28Z</time>
      </trkpt>
      <trkpt lat="48.0238" lon="6.88368">
        <ele>967.2</ele>
        <time>2022-05-28T13:07:32Z</time>
      </trkpt>
      <trkpt lat="48.02388" lon="6.88359">
        <ele>966.8</ele>
        <time>2022-05-28T13:07:35Z</time>
      </trkpt>
      <trkpt lat="48.02393" lon="6.88342">
        <ele>966.1</ele>
        <time>2022-05-28T13:07:39Z</time>
      </trkpt>
      <trkpt lat="48.02398" lon="6.88331">
        <ele>965.8</ele>
        <time>2022-05-28T13:07:42Z</time>
      </trkpt>
      <trkpt lat="48.02404" lon="6.88318">
        <ele>966.1</ele>
        <time>2022-05-28T13:07:48Z</time>
      </trkpt>
      <trkpt lat="48.02409" lon="6.88305">
        <ele>965.9</ele>
        <time>2022-05-28T13:07:53Z</time>
      </trkpt>
      <trkpt lat="48.02405" lon="6.88293">
        <ele>966.4</ele>
        <time>2022-05-28T13:07:57Z</time>
      </trkpt>
      <trkpt lat="48.02398" lon="6.88278">
        <ele>967.3</ele>
        <time>2022-05-28T13:08:01Z</time>
      </trkpt>
      <trkpt lat="48.02392" lon="6.88267">
        <ele>967.6</ele>
        <time>2022-05-28T13:08:06Z</time>
      </trkpt>
      <trkpt lat="48.02384" lon="6.88259">
        <ele>967.5</ele>
        <time>2022-05-28T13:08:11Z</time>
      </trkpt>
      <trkpt lat="48.02382" lon="6.88257">
        <ele>967.6</ele>
        <time>2022-05-28T13:08:15Z</time>
      </trkpt>
      <trkpt lat="48.02382" lon="6.88256">
        <ele>967</ele>
        <time>2022-05-28T13:08:19Z</time>
      </trkpt>
      <trkpt lat="48.02381" lon="6.88256">
        <ele>967.2</ele>
        <time>2022-05-28T13:08:21Z</time>
      </trkpt>
      <trkpt lat="48.02382" lon="6.88255">
        <ele>967.2</ele>
        <time>2022-05-28T13:08:26Z</time>
      </trkpt>
      <trkpt lat="48.02381" lon="6.88255">
        <ele>967.3</ele>
        <time>2022-05-28T13:08:31Z</time>
      </trkpt>
      <trkpt lat="48.02383" lon="6.88256">
        <ele>967.7</ele>
        <time>2022-05-28T13:08:38Z</time>
      </trkpt>
      <trkpt lat="48.0239" lon="6.88266">
        <ele>968.9</ele>
        <time>2022-05-28T13:08:51Z</time>
      </trkpt>
      <trkpt lat="48.02394" lon="6.88278">
        <ele>968</ele>
        <time>2022-05-28T13:08:59Z</time>
      </trkpt>
      <trkpt lat="48.02399" lon="6.8829">
        <ele>968</ele>
        <time>2022-05-28T13:09:06Z</time>
      </trkpt>
      <trkpt lat="48.02404" lon="6.88303">
        <ele>968.1</ele>
        <time>2022-05-28T13:09:13Z</time>
      </trkpt>
      <trkpt lat="48.02402" lon="6.88308">
        <ele>968.4</ele>
        <time>2022-05-28T13:09:18Z</time>
      </trkpt>
      <trkpt lat="48.02403" lon="6.88308">
        <ele>968.6</ele>
        <time>2022-05-28T13:09:20Z</time>
      </trkpt>
      <trkpt lat="48.02402" lon="6.88309">
        <ele>968.5</ele>
        <time>2022-05-28T13:09:24Z</time>
      </trkpt>
      <trkpt lat="48.02398" lon="6.88321">
        <ele>968.6</ele>
        <time>2022-05-28T13:09:31Z</time>
      </trkpt>
      <trkpt lat="48.02394" lon="6.88337">
        <ele>968.4</ele>
        <time>2022-05-28T13:09:37Z</time>
      </trkpt>
      <trkpt lat="48.02391" lon="6.88352">
        <ele>968.6</ele>
        <time>2022-05-28T13:09:41Z</time>
      </trkpt>
      <trkpt lat="48.02385" lon="6.88366">
        <ele>968.6</ele>
        <time>2022-05-28T13:09:45Z</time>
      </trkpt>
      <trkpt lat="48.02374" lon="6.88374">
        <ele>968.9</ele>
        <time>2022-05-28T13:09:49Z</time>
      </trkpt>
      <trkpt lat="48.02365" lon="6.88376">
        <ele>969.4</ele>
        <time>2022-05-28T13:09:53Z</time>
      </trkpt>
      <trkpt lat="48.02355" lon="6.88375">
        <ele>969.8</ele>
        <time>2022-05-28T13:10:00Z</time>
      </trkpt>
      <trkpt lat="48.02346" lon="6.88369">
        <ele>972.9</ele>
        <time>2022-05-28T13:10:07Z</time>
      </trkpt>
      <trkpt lat="48.02335" lon="6.8837">
        <ele>974.1</ele>
        <time>2022-05-28T13:10:15Z</time>
      </trkpt>
      <trkpt lat="48.02326" lon="6.8837">
        <ele>975</ele>
        <time>2022-05-28T13:10:23Z</time>
      </trkpt>
      <trkpt lat="48.02316" lon="6.88368">
        <ele>977.1</ele>
        <time>2022-05-28T13:10:30Z</time>
      </trkpt>
      <trkpt lat="48.02307" lon="6.88371">
        <ele>979.4</ele>
        <time>2022-05-28T13:10:37Z</time>
      </trkpt>
      <trkpt lat="48.02299" lon="6.88362">
        <ele>980.3</ele>
        <time>2022-05-28T13:10:47Z</time>
      </trkpt>
      <trkpt lat="48.02293" lon="6.88351">
        <ele>981.7</ele>
        <time>2022-05-28T13:10:57Z</time>
      </trkpt>
      <trkpt lat="48.02284" lon="6.88347">
        <ele>981.5</ele>
        <time>2022-05-28T13:11:04Z</time>
      </trkpt>
      <trkpt lat="48.02291" lon="6.88351">
        <ele>981.3</ele>
        <time>2022-05-28T13:11:17Z</time>
      </trkpt>
      <trkpt lat="48.02291" lon="6.88352">
        <ele>981.2</ele>
        <time>2022-05-28T13:13:23Z</time>
      </trkpt>
      <trkpt lat="48.02291" lon="6.88352">
        <ele>981.7</ele>
        <time>2022-05-28T13:14:44Z</time>
      </trkpt>
      <trkpt lat="48.023" lon="6.88361">
        <ele>980.7</ele>
        <time>2022-05-28T13:14:51Z</time>
      </trkpt>
      <trkpt lat="48.02308" lon="6.88373">
        <ele>979.2</ele>
        <time>2022-05-28T13:14:55Z</time>
      </trkpt>
      <trkpt lat="48.02311" lon="6.88374">
        <ele>979.9</ele>
        <time>2022-05-28T13:15:00Z</time>
      </trkpt>
      <trkpt lat="48.02311" lon="6.88373">
        <ele>979.1</ele>
        <time>2022-05-28T13:15:08Z</time>
      </trkpt>
      <trkpt lat="48.0231" lon="6.88373">
        <ele>979.7</ele>
        <time>2022-05-28T13:15:24Z</time>
      </trkpt>
      <trkpt lat="48.0231" lon="6.88373">
        <ele>979.9</ele>
        <time>2022-05-28T13:15:39Z</time>
      </trkpt>
      <trkpt lat="48.0231" lon="6.88372">
        <ele>979.6</ele>
        <time>2022-05-28T13:16:33Z</time>
      </trkpt>
      <trkpt lat="48.02311" lon="6.8837">
        <ele>979.1</ele>
        <time>2022-05-28T13:16:37Z</time>
      </trkpt>
      <trkpt lat="48.02322" lon="6.88371">
        <ele>976.2</ele>
        <time>2022-05-28T13:16:54Z</time>
      </trkpt>
      <trkpt lat="48.02333" lon="6.88376">
        <ele>972.8</ele>
        <time>2022-05-28T13:16:57Z</time>
      </trkpt>
      <trkpt lat="48.02342" lon="6.88374">
        <ele>972.6</ele>
        <time>2022-05-28T13:17:00Z</time>
      </trkpt>
      <trkpt lat="48.02353" lon="6.88379">
        <ele>971.7</ele>
        <time>2022-05-28T13:17:05Z</time>
      </trkpt>
      <trkpt lat="48.02362" lon="6.88384">
        <ele>970.9</ele>
        <time>2022-05-28T13:17:08Z</time>
      </trkpt>
      <trkpt lat="48.02374" lon="6.88382">
        <ele>968.9</ele>
        <time>2022-05-28T13:17:11Z</time>
      </trkpt>
      <trkpt lat="48.02383" lon="6.88378">
        <ele>969.7</ele>
        <time>2022-05-28T13:17:14Z</time>
      </trkpt>
      <trkpt lat="48.02393" lon="6.88371">
        <ele>969.3</ele>
        <time>2022-05-28T13:17:18Z</time>
      </trkpt>
      <trkpt lat="48.02394" lon="6.88358">
        <ele>968.8</ele>
        <time>2022-05-28T13:17:23Z</time>
      </trkpt>
      <trkpt lat="48.02397" lon="6.88343">
        <ele>968.8</ele>
        <time>2022-05-28T13:17:27Z</time>
      </trkpt>
      <trkpt lat="48.02401" lon="6.88331">
        <ele>969.4</ele>
        <time>2022-05-28T13:17:31Z</time>
      </trkpt>
      <trkpt lat="48.02403" lon="6.88329">
        <ele>969.5</ele>
        <time>2022-05-28T13:17:34Z</time>
      </trkpt>
      <trkpt lat="48.02403" lon="6.88328">
        <ele>969.4</ele>
        <time>2022-05-28T13:17:37Z</time>
      </trkpt>
      <trkpt lat="48.02406" lon="6.88314">
        <ele>969.4</ele>
        <time>2022-05-28T13:17:45Z</time>
      </trkpt>
      <trkpt lat="48.0241" lon="6.88301">
        <ele>969.7</ele>
        <time>2022-05-28T13:17:52Z</time>
      </trkpt>
      <trkpt lat="48.02417" lon="6.88301">
        <ele>969.7</ele>
        <time>2022-05-28T13:18:06Z</time>
      </trkpt>
      <trkpt lat="48.02417" lon="6.883">
        <ele>969.7</ele>
        <time>2022-05-28T13:18:07Z</time>
      </trkpt>
      <trkpt lat="48.02418" lon="6.88297">
        <ele>968.3</ele>
        <time>2022-05-28T13:18:13Z</time>
      </trkpt>
      <trkpt lat="48.02424" lon="6.88291">
        <ele>965.5</ele>
        <time>2022-05-28T13:18:25Z</time>
      </trkpt>
      <trkpt lat="48.02424" lon="6.8829">
        <ele>965.2</ele>
        <time>2022-05-28T13:18:28Z</time>
      </trkpt>
      <trkpt lat="48.02432" lon="6.88282">
        <ele>962.3</ele>
        <time>2022-05-28T13:18:41Z</time>
      </trkpt>
      <trkpt lat="48.02433" lon="6.88281">
        <ele>962</ele>
        <time>2022-05-28T13:18:43Z</time>
      </trkpt>
      <trkpt lat="48.02436" lon="6.88276">
        <ele>959.1</ele>
        <time>2022-05-28T13:18:57Z</time>
      </trkpt>
      <trkpt lat="48.02436" lon="6.88274">
        <ele>957.6</ele>
        <time>2022-05-28T13:19:10Z</time>
      </trkpt>
      <trkpt lat="48.02436" lon="6.88275">
        <ele>957.5</ele>
        <time>2022-05-28T13:19:12Z</time>
      </trkpt>
      <trkpt lat="48.02437" lon="6.88273">
        <ele>956.6</ele>
        <time>2022-05-28T13:19:16Z</time>
      </trkpt>
      <trkpt lat="48.02442" lon="6.88266">
        <ele>954.3</ele>
        <time>2022-05-28T13:19:45Z</time>
      </trkpt>
      <trkpt lat="48.02442" lon="6.88265">
        <ele>954.1</ele>
        <time>2022-05-28T13:19:46Z</time>
      </trkpt>
      <trkpt lat="48.02441" lon="6.88262">
        <ele>951.5</ele>
        <time>2022-05-28T13:20:07Z</time>
      </trkpt>
      <trkpt lat="48.02442" lon="6.88262">
        <ele>951.4</ele>
        <time>2022-05-28T13:20:09Z</time>
      </trkpt>
      <trkpt lat="48.02443" lon="6.88263">
        <ele>950.5</ele>
        <time>2022-05-28T13:20:15Z</time>
      </trkpt>
      <trkpt lat="48.02445" lon="6.88265">
        <ele>950.8</ele>
        <time>2022-05-28T13:20:21Z</time>
      </trkpt>
      <trkpt lat="48.02446" lon="6.88265">
        <ele>949.9</ele>
        <time>2022-05-28T13:20:25Z</time>
      </trkpt>
      <trkpt lat="48.02446" lon="6.88265">
        <ele>949.8</ele>
        <time>2022-05-28T13:20:50Z</time>
      </trkpt>
      <trkpt lat="48.0245" lon="6.8826">
        <ele>946.7</ele>
        <time>2022-05-28T13:21:08Z</time>
      </trkpt>
      <trkpt lat="48.02451" lon="6.8826">
        <ele>946.5</ele>
        <time>2022-05-28T13:21:09Z</time>
      </trkpt>
      <trkpt lat="48.02453" lon="6.88257">
        <ele>945</ele>
        <time>2022-05-28T13:21:17Z</time>
      </trkpt>
      <trkpt lat="48.02454" lon="6.88257">
        <ele>944.9</ele>
        <time>2022-05-28T13:21:20Z</time>
      </trkpt>
      <trkpt lat="48.02455" lon="6.88258">
        <ele>944.3</ele>
        <time>2022-05-28T13:21:28Z</time>
      </trkpt>
      <trkpt lat="48.02456" lon="6.88258">
        <ele>944.3</ele>
        <time>2022-05-28T13:21:29Z</time>
      </trkpt>
      <trkpt lat="48.02457" lon="6.88245">
        <ele>941.3</ele>
        <time>2022-05-28T13:21:58Z</time>
      </trkpt>
      <trkpt lat="48.0245" lon="6.88234">
        <ele>939.7</ele>
        <time>2022-05-28T13:22:11Z</time>
      </trkpt>
      <trkpt lat="48.0245" lon="6.8822">
        <ele>939</ele>
        <time>2022-05-28T13:22:22Z</time>
      </trkpt>
      <trkpt lat="48.02453" lon="6.88206">
        <ele>936.8</ele>
        <time>2022-05-28T13:22:41Z</time>
      </trkpt>
      <trkpt lat="48.0245" lon="6.88196">
        <ele>936.1</ele>
        <time>2022-05-28T13:22:58Z</time>
      </trkpt>
      <trkpt lat="48.0245" lon="6.88196">
        <ele>935.6</ele>
        <time>2022-05-28T13:23:56Z</time>
      </trkpt>
      <trkpt lat="48.02448" lon="6.88195">
        <ele>935.7</ele>
        <time>2022-05-28T13:24:55Z</time>
      </trkpt>
      <trkpt lat="48.02449" lon="6.88195">
        <ele>936.1</ele>
        <time>2022-05-28T13:25:02Z</time>
      </trkpt>
      <trkpt lat="48.0245" lon="6.88182">
        <ele>935.3</ele>
        <time>2022-05-28T13:25:17Z</time>
      </trkpt>
      <trkpt lat="48.02454" lon="6.8817">
        <ele>932.8</ele>
        <time>2022-05-28T13:25:32Z</time>
      </trkpt>
      <trkpt lat="48.02458" lon="6.88169">
        <ele>932.6</ele>
        <time>2022-05-28T13:25:38Z</time>
      </trkpt>
      <trkpt lat="48.02458" lon="6.88167">
        <ele>931.6</ele>
        <time>2022-05-28T13:25:53Z</time>
      </trkpt>
      <trkpt lat="48.02459" lon="6.88166">
        <ele>931.7</ele>
        <time>2022-05-28T13:25:54Z</time>
      </trkpt>
      <trkpt lat="48.02458" lon="6.88166">
        <ele>931.5</ele>
        <time>2022-05-28T13:26:07Z</time>
      </trkpt>
      <trkpt lat="48.02466" lon="6.88176">
        <ele>930.9</ele>
        <time>2022-05-28T13:26:16Z</time>
      </trkpt>
      <trkpt lat="48.02473" lon="6.88185">
        <ele>930.4</ele>
        <time>2022-05-28T13:26:24Z</time>
      </trkpt>
      <trkpt lat="48.02481" lon="6.88192">
        <ele>929</ele>
        <time>2022-05-28T13:26:34Z</time>
      </trkpt>
      <trkpt lat="48.02484" lon="6.88195">
        <ele>928.8</ele>
        <time>2022-05-28T13:26:39Z</time>
      </trkpt>
      <trkpt lat="48.02475" lon="6.88188">
        <ele>928.6</ele>
        <time>2022-05-28T13:26:49Z</time>
      </trkpt>
      <trkpt lat="48.02466" lon="6.88182">
        <ele>929.9</ele>
        <time>2022-05-28T13:26:56Z</time>
      </trkpt>
      <trkpt lat="48.02461" lon="6.8817">
        <ele>930.4</ele>
        <time>2022-05-28T13:27:04Z</time>
      </trkpt>
      <trkpt lat="48.02459" lon="6.88167">
        <ele>930.7</ele>
        <time>2022-05-28T13:27:09Z</time>
      </trkpt>
      <trkpt lat="48.0246" lon="6.88167">
        <ele>930.9</ele>
        <time>2022-05-28T13:27:23Z</time>
      </trkpt>
      <trkpt lat="48.0246" lon="6.88168">
        <ele>930.6</ele>
        <time>2022-05-28T13:27:37Z</time>
      </trkpt>
      <trkpt lat="48.02454" lon="6.88156">
        <ele>931.2</ele>
        <time>2022-05-28T13:27:47Z</time>
      </trkpt>
      <trkpt lat="48.02451" lon="6.88142">
        <ele>931.4</ele>
        <time>2022-05-28T13:27:54Z</time>
      </trkpt>
      <trkpt lat="48.02444" lon="6.88129">
        <ele>932.5</ele>
        <time>2022-05-28T13:28:00Z</time>
      </trkpt>
      <trkpt lat="48.02437" lon="6.88117">
        <ele>931.8</ele>
        <time>2022-05-28T13:28:04Z</time>
      </trkpt>
      <trkpt lat="48.0243" lon="6.88104">
        <ele>932.5</ele>
        <time>2022-05-28T13:28:09Z</time>
      </trkpt>
      <trkpt lat="48.02424" lon="6.88091">
        <ele>933.7</ele>
        <time>2022-05-28T13:28:13Z</time>
      </trkpt>
      <trkpt lat="48.02419" lon="6.88078">
        <ele>933.2</ele>
        <time>2022-05-28T13:28:17Z</time>
      </trkpt>
      <trkpt lat="48.02416" lon="6.88065">
        <ele>934.5</ele>
        <time>2022-05-28T13:28:21Z</time>
      </trkpt>
      <trkpt lat="48.02412" lon="6.88052">
        <ele>935.5</ele>
        <time>2022-05-28T13:28:25Z</time>
      </trkpt>
      <trkpt lat="48.0241" lon="6.88038">
        <ele>934.8</ele>
        <time>2022-05-28T13:28:29Z</time>
      </trkpt>
      <trkpt lat="48.02409" lon="6.88023">
        <ele>936.9</ele>
        <time>2022-05-28T13:28:34Z</time>
      </trkpt>
      <trkpt lat="48.02408" lon="6.88009">
        <ele>937.5</ele>
        <time>2022-05-28T13:28:39Z</time>
      </trkpt>
      <trkpt lat="48.02406" lon="6.87994">
        <ele>938.4</ele>
        <time>2022-05-28T13:28:44Z</time>
      </trkpt>
      <trkpt lat="48.02408" lon="6.87981">
        <ele>939.5</ele>
        <time>2022-05-28T13:28:49Z</time>
      </trkpt>
      <trkpt lat="48.02414" lon="6.87971">
        <ele>939.6</ele>
        <time>2022-05-28T13:28:53Z</time>
      </trkpt>
      <trkpt lat="48.02421" lon="6.87961">
        <ele>940.6</ele>
        <time>2022-05-28T13:28:58Z</time>
      </trkpt>
      <trkpt lat="48.02427" lon="6.87951">
        <ele>941</ele>
        <time>2022-05-28T13:29:02Z</time>
      </trkpt>
      <trkpt lat="48.02434" lon="6.8794">
        <ele>941.1</ele>
        <time>2022-05-28T13:29:07Z</time>
      </trkpt>
      <trkpt lat="48.02439" lon="6.87926">
        <ele>942.9</ele>
        <time>2022-05-28T13:29:12Z</time>
      </trkpt>
      <trkpt lat="48.02442" lon="6.87912">
        <ele>943.3</ele>
        <time>2022-05-28T13:29:16Z</time>
      </trkpt>
      <trkpt lat="48.02447" lon="6.87899">
        <ele>943.9</ele>
        <time>2022-05-28T13:29:20Z</time>
      </trkpt>
      <trkpt lat="48.02447" lon="6.87883">
        <ele>944.7</ele>
        <time>2022-05-28T13:29:24Z</time>
      </trkpt>
      <trkpt lat="48.0245" lon="6.87869">
        <ele>946.1</ele>
        <time>2022-05-28T13:29:28Z</time>
      </trkpt>
      <trkpt lat="48.02454" lon="6.87854">
        <ele>945.2</ele>
        <time>2022-05-28T13:29:32Z</time>
      </trkpt>
      <trkpt lat="48.02456" lon="6.87841">
        <ele>946</ele>
        <time>2022-05-28T13:29:36Z</time>
      </trkpt>
      <trkpt lat="48.02457" lon="6.87826">
        <ele>946.1</ele>
        <time>2022-05-28T13:29:40Z</time>
      </trkpt>
      <trkpt lat="48.02457" lon="6.87811">
        <ele>946.6</ele>
        <time>2022-05-28T13:29:44Z</time>
      </trkpt>
      <trkpt lat="48.02459" lon="6.87795">
        <ele>947.2</ele>
        <time>2022-05-28T13:29:49Z</time>
      </trkpt>
      <trkpt lat="48.02461" lon="6.8778">
        <ele>948.2</ele>
        <time>2022-05-28T13:29:54Z</time>
      </trkpt>
      <trkpt lat="48.02464" lon="6.87765">
        <ele>946.9</ele>
        <time>2022-05-28T13:29:58Z</time>
      </trkpt>
      <trkpt lat="48.02467" lon="6.87751">
        <ele>949.2</ele>
        <time>2022-05-28T13:30:02Z</time>
      </trkpt>
      <trkpt lat="48.02472" lon="6.87738">
        <ele>949.5</ele>
        <time>2022-05-28T13:30:06Z</time>
      </trkpt>
      <trkpt lat="48.02475" lon="6.87724">
        <ele>949.4</ele>
        <time>2022-05-28T13:30:10Z</time>
      </trkpt>
      <trkpt lat="48.02479" lon="6.8771">
        <ele>949.2</ele>
        <time>2022-05-28T13:30:14Z</time>
      </trkpt>
      <trkpt lat="48.02483" lon="6.87694">
        <ele>950</ele>
        <time>2022-05-28T13:30:18Z</time>
      </trkpt>
      <trkpt lat="48.02487" lon="6.87679">
        <ele>950.5</ele>
        <time>2022-05-28T13:30:22Z</time>
      </trkpt>
      <trkpt lat="48.02491" lon="6.87665">
        <ele>950.5</ele>
        <time>2022-05-28T13:30:26Z</time>
      </trkpt>
      <trkpt lat="48.02496" lon="6.87652">
        <ele>950.3</ele>
        <time>2022-05-28T13:30:30Z</time>
      </trkpt>
      <trkpt lat="48.02498" lon="6.87637">
        <ele>950.4</ele>
        <time>2022-05-28T13:30:35Z</time>
      </trkpt>
      <trkpt lat="48.02498" lon="6.87623">
        <ele>951.4</ele>
        <time>2022-05-28T13:30:43Z</time>
      </trkpt>
      <trkpt lat="48.02501" lon="6.87609">
        <ele>953.8</ele>
        <time>2022-05-28T13:30:54Z</time>
      </trkpt>
      <trkpt lat="48.02501" lon="6.87606">
        <ele>954.8</ele>
        <time>2022-05-28T13:31:00Z</time>
      </trkpt>
      <trkpt lat="48.02504" lon="6.87593">
        <ele>957.2</ele>
        <time>2022-05-28T13:31:19Z</time>
      </trkpt>
      <trkpt lat="48.02504" lon="6.87578">
        <ele>959.4</ele>
        <time>2022-05-28T13:31:33Z</time>
      </trkpt>
      <trkpt lat="48.02502" lon="6.87565">
        <ele>960.2</ele>
        <time>2022-05-28T13:31:42Z</time>
      </trkpt>
      <trkpt lat="48.02497" lon="6.87552">
        <ele>961.1</ele>
        <time>2022-05-28T13:31:51Z</time>
      </trkpt>
      <trkpt lat="48.02499" lon="6.87538">
        <ele>962.1</ele>
        <time>2022-05-28T13:32:02Z</time>
      </trkpt>
      <trkpt lat="48.025" lon="6.87524">
        <ele>963.6</ele>
        <time>2022-05-28T13:32:12Z</time>
      </trkpt>
      <trkpt lat="48.02499" lon="6.87509">
        <ele>965.8</ele>
        <time>2022-05-28T13:32:22Z</time>
      </trkpt>
      <trkpt lat="48.02501" lon="6.87495">
        <ele>968.3</ele>
        <time>2022-05-28T13:32:34Z</time>
      </trkpt>
      <trkpt lat="48.025" lon="6.87481">
        <ele>970.9</ele>
        <time>2022-05-28T13:32:47Z</time>
      </trkpt>
      <trkpt lat="48.02498" lon="6.87468">
        <ele>973.3</ele>
        <time>2022-05-28T13:32:58Z</time>
      </trkpt>
      <trkpt lat="48.02498" lon="6.87455">
        <ele>975.2</ele>
        <time>2022-05-28T13:33:12Z</time>
      </trkpt>
      <trkpt lat="48.02497" lon="6.87441">
        <ele>977.6</ele>
        <time>2022-05-28T13:33:24Z</time>
      </trkpt>
      <trkpt lat="48.02498" lon="6.87426">
        <ele>979.1</ele>
        <time>2022-05-28T13:33:37Z</time>
      </trkpt>
      <trkpt lat="48.025" lon="6.87412">
        <ele>981.4</ele>
        <time>2022-05-28T13:33:49Z</time>
      </trkpt>
      <trkpt lat="48.025" lon="6.87398">
        <ele>984</ele>
        <time>2022-05-28T13:34:01Z</time>
      </trkpt>
      <trkpt lat="48.02499" lon="6.87384">
        <ele>985.1</ele>
        <time>2022-05-28T13:34:12Z</time>
      </trkpt>
      <trkpt lat="48.02497" lon="6.8737">
        <ele>987.2</ele>
        <time>2022-05-28T13:34:26Z</time>
      </trkpt>
      <trkpt lat="48.02496" lon="6.87356">
        <ele>989.5</ele>
        <time>2022-05-28T13:34:39Z</time>
      </trkpt>
      <trkpt lat="48.02495" lon="6.87343">
        <ele>991.3</ele>
        <time>2022-05-28T13:34:50Z</time>
      </trkpt>
      <trkpt lat="48.02495" lon="6.87337">
        <ele>991.4</ele>
        <time>2022-05-28T13:34:56Z</time>
      </trkpt>
      <trkpt lat="48.02495" lon="6.87336">
        <ele>991</ele>
        <time>2022-05-28T13:35:00Z</time>
      </trkpt>
      <trkpt lat="48.02495" lon="6.87321">
        <ele>993.2</ele>
        <time>2022-05-28T13:35:08Z</time>
      </trkpt>
      <trkpt lat="48.02493" lon="6.87307">
        <ele>995</ele>
        <time>2022-05-28T13:35:15Z</time>
      </trkpt>
      <trkpt lat="48.02491" lon="6.87293">
        <ele>997.6</ele>
        <time>2022-05-28T13:35:23Z</time>
      </trkpt>
      <trkpt lat="48.02494" lon="6.87279">
        <ele>998.9</ele>
        <time>2022-05-28T13:35:32Z</time>
      </trkpt>
      <trkpt lat="48.02499" lon="6.87267">
        <ele>999.4</ele>
        <time>2022-05-28T13:35:39Z</time>
      </trkpt>
      <trkpt lat="48.02504" lon="6.87254">
        <ele>999.6</ele>
        <time>2022-05-28T13:35:48Z</time>
      </trkpt>
      <trkpt lat="48.02507" lon="6.8724">
        <ele>999.7</ele>
        <time>2022-05-28T13:35:55Z</time>
      </trkpt>
      <trkpt lat="48.02509" lon="6.87238">
        <ele>999.6</ele>
        <time>2022-05-28T13:36:00Z</time>
      </trkpt>
      <trkpt lat="48.02509" lon="6.87238">
        <ele>999.3</ele>
        <time>2022-05-28T13:38:03Z</time>
      </trkpt>
      <trkpt lat="48.0251" lon="6.87237">
        <ele>999.2</ele>
        <time>2022-05-28T13:38:06Z</time>
      </trkpt>
      <trkpt lat="48.02516" lon="6.87224">
        <ele>999.1</ele>
        <time>2022-05-28T13:38:13Z</time>
      </trkpt>
      <trkpt lat="48.02522" lon="6.87211">
        <ele>998.7</ele>
        <time>2022-05-28T13:38:17Z</time>
      </trkpt>
      <trkpt lat="48.02528" lon="6.87197">
        <ele>996.4</ele>
        <time>2022-05-28T13:38:21Z</time>
      </trkpt>
      <trkpt lat="48.02528" lon="6.87183">
        <ele>994.7</ele>
        <time>2022-05-28T13:38:26Z</time>
      </trkpt>
      <trkpt lat="48.02527" lon="6.87167">
        <ele>993.7</ele>
        <time>2022-05-28T13:38:33Z</time>
      </trkpt>
      <trkpt lat="48.02525" lon="6.87153">
        <ele>992.7</ele>
        <time>2022-05-28T13:38:37Z</time>
      </trkpt>
      <trkpt lat="48.02524" lon="6.87136">
        <ele>994</ele>
        <time>2022-05-28T13:38:41Z</time>
      </trkpt>
      <trkpt lat="48.02526" lon="6.87121">
        <ele>992.8</ele>
        <time>2022-05-28T13:38:45Z</time>
      </trkpt>
      <trkpt lat="48.0253" lon="6.87106">
        <ele>993.7</ele>
        <time>2022-05-28T13:38:49Z</time>
      </trkpt>
      <trkpt lat="48.02532" lon="6.8709">
        <ele>993.9</ele>
        <time>2022-05-28T13:38:53Z</time>
      </trkpt>
      <trkpt lat="48.02534" lon="6.87074">
        <ele>992.7</ele>
        <time>2022-05-28T13:38:57Z</time>
      </trkpt>
      <trkpt lat="48.02537" lon="6.8706">
        <ele>993.2</ele>
        <time>2022-05-28T13:39:00Z</time>
      </trkpt>
      <trkpt lat="48.02539" lon="6.87045">
        <ele>991</ele>
        <time>2022-05-28T13:39:04Z</time>
      </trkpt>
      <trkpt lat="48.02544" lon="6.87034">
        <ele>987.6</ele>
        <time>2022-05-28T13:39:07Z</time>
      </trkpt>
      <trkpt lat="48.0255" lon="6.8702">
        <ele>989.1</ele>
        <time>2022-05-28T13:39:10Z</time>
      </trkpt>
      <trkpt lat="48.02554" lon="6.87007">
        <ele>986.3</ele>
        <time>2022-05-28T13:39:13Z</time>
      </trkpt>
      <trkpt lat="48.02557" lon="6.8699">
        <ele>984.9</ele>
        <time>2022-05-28T13:39:17Z</time>
      </trkpt>
      <trkpt lat="48.02559" lon="6.86975">
        <ele>980.5</ele>
        <time>2022-05-28T13:39:19Z</time>
      </trkpt>
      <trkpt lat="48.02559" lon="6.86958">
        <ele>978.6</ele>
        <time>2022-05-28T13:39:21Z</time>
      </trkpt>
      <trkpt lat="48.02557" lon="6.86943">
        <ele>981.8</ele>
        <time>2022-05-28T13:39:23Z</time>
      </trkpt>
      <trkpt lat="48.02554" lon="6.86928">
        <ele>981.9</ele>
        <time>2022-05-28T13:39:26Z</time>
      </trkpt>
      <trkpt lat="48.0255" lon="6.86915">
        <ele>982.6</ele>
        <time>2022-05-28T13:39:32Z</time>
      </trkpt>
      <trkpt lat="48.02549" lon="6.86912">
        <ele>982.2</ele>
        <time>2022-05-28T13:39:36Z</time>
      </trkpt>
      <trkpt lat="48.02548" lon="6.86912">
        <ele>982.8</ele>
        <time>2022-05-28T13:39:49Z</time>
      </trkpt>
      <trkpt lat="48.02548" lon="6.86911">
        <ele>982.9</ele>
        <time>2022-05-28T13:39:53Z</time>
      </trkpt>
      <trkpt lat="48.02548" lon="6.8691">
        <ele>982.6</ele>
        <time>2022-05-28T13:40:02Z</time>
      </trkpt>
      <trkpt lat="48.02548" lon="6.86904">
        <ele>982.2</ele>
        <time>2022-05-28T13:40:11Z</time>
      </trkpt>
      <trkpt lat="48.02548" lon="6.86903">
        <ele>982.2</ele>
        <time>2022-05-28T13:40:16Z</time>
      </trkpt>
      <trkpt lat="48.02548" lon="6.86902">
        <ele>982</ele>
        <time>2022-05-28T13:40:19Z</time>
      </trkpt>
      <trkpt lat="48.02548" lon="6.86901">
        <ele>981.7</ele>
        <time>2022-05-28T13:40:26Z</time>
      </trkpt>
      <trkpt lat="48.02548" lon="6.869">
        <ele>982</ele>
        <time>2022-05-28T13:40:33Z</time>
      </trkpt>
      <trkpt lat="48.02548" lon="6.86899">
        <ele>981.8</ele>
        <time>2022-05-28T13:40:39Z</time>
      </trkpt>
      <trkpt lat="48.02547" lon="6.86897">
        <ele>981.3</ele>
        <time>2022-05-28T13:40:44Z</time>
      </trkpt>
      <trkpt lat="48.02547" lon="6.86896">
        <ele>981.7</ele>
        <time>2022-05-28T13:40:45Z</time>
      </trkpt>
      <trkpt lat="48.02547" lon="6.8688">
        <ele>978.2</ele>
        <time>2022-05-28T13:40:49Z</time>
      </trkpt>
      <trkpt lat="48.02548" lon="6.86864">
        <ele>976.4</ele>
        <time>2022-05-28T13:40:52Z</time>
      </trkpt>
      <trkpt lat="48.0255" lon="6.86845">
        <ele>973.8</ele>
        <time>2022-05-28T13:40:55Z</time>
      </trkpt>
      <trkpt lat="48.02549" lon="6.8683">
        <ele>972.2</ele>
        <time>2022-05-28T13:40:57Z</time>
      </trkpt>
      <trkpt lat="48.02545" lon="6.86815">
        <ele>974.5</ele>
        <time>2022-05-28T13:41:00Z</time>
      </trkpt>
      <trkpt lat="48.02545" lon="6.86816">
        <ele>974.5</ele>
        <time>2022-05-28T13:41:02Z</time>
      </trkpt>
      <trkpt lat="48.02545" lon="6.86815">
        <ele>974.3</ele>
        <time>2022-05-28T13:41:04Z</time>
      </trkpt>
      <trkpt lat="48.02544" lon="6.86814">
        <ele>974.7</ele>
        <time>2022-05-28T13:41:13Z</time>
      </trkpt>
      <trkpt lat="48.02539" lon="6.86799">
        <ele>973.9</ele>
        <time>2022-05-28T13:41:32Z</time>
      </trkpt>
      <trkpt lat="48.02534" lon="6.86784">
        <ele>975</ele>
        <time>2022-05-28T13:41:37Z</time>
      </trkpt>
      <trkpt lat="48.02529" lon="6.86769">
        <ele>975.3</ele>
        <time>2022-05-28T13:41:42Z</time>
      </trkpt>
      <trkpt lat="48.02527" lon="6.86754">
        <ele>974.4</ele>
        <time>2022-05-28T13:41:47Z</time>
      </trkpt>
      <trkpt lat="48.02531" lon="6.86739">
        <ele>971.4</ele>
        <time>2022-05-28T13:41:51Z</time>
      </trkpt>
      <trkpt lat="48.02532" lon="6.86723">
        <ele>968.6</ele>
        <time>2022-05-28T13:41:56Z</time>
      </trkpt>
      <trkpt lat="48.02532" lon="6.86708">
        <ele>966.1</ele>
        <time>2022-05-28T13:42:01Z</time>
      </trkpt>
      <trkpt lat="48.02537" lon="6.86696">
        <ele>961.9</ele>
        <time>2022-05-28T13:42:05Z</time>
      </trkpt>
      <trkpt lat="48.02546" lon="6.86683">
        <ele>959.2</ele>
        <time>2022-05-28T13:42:09Z</time>
      </trkpt>
      <trkpt lat="48.02552" lon="6.86672">
        <ele>956.2</ele>
        <time>2022-05-28T13:42:13Z</time>
      </trkpt>
      <trkpt lat="48.02562" lon="6.86675">
        <ele>954</ele>
        <time>2022-05-28T13:42:18Z</time>
      </trkpt>
      <trkpt lat="48.02571" lon="6.86684">
        <ele>951</ele>
        <time>2022-05-28T13:42:25Z</time>
      </trkpt>
      <trkpt lat="48.02579" lon="6.86693">
        <ele>949.5</ele>
        <time>2022-05-28T13:42:30Z</time>
      </trkpt>
      <trkpt lat="48.02588" lon="6.86701">
        <ele>945.9</ele>
        <time>2022-05-28T13:42:35Z</time>
      </trkpt>
      <trkpt lat="48.02594" lon="6.86711">
        <ele>943.3</ele>
        <time>2022-05-28T13:42:40Z</time>
      </trkpt>
      <trkpt lat="48.02598" lon="6.86723">
        <ele>940.6</ele>
        <time>2022-05-28T13:42:45Z</time>
      </trkpt>
      <trkpt lat="48.02605" lon="6.86732">
        <ele>938</ele>
        <time>2022-05-28T13:42:49Z</time>
      </trkpt>
      <trkpt lat="48.02613" lon="6.86742">
        <ele>934.7</ele>
        <time>2022-05-28T13:42:52Z</time>
      </trkpt>
      <trkpt lat="48.0262" lon="6.86753">
        <ele>931.7</ele>
        <time>2022-05-28T13:42:55Z</time>
      </trkpt>
      <trkpt lat="48.02629" lon="6.86762">
        <ele>930.5</ele>
        <time>2022-05-28T13:42:59Z</time>
      </trkpt>
      <trkpt lat="48.02637" lon="6.86772">
        <ele>927.4</ele>
        <time>2022-05-28T13:43:04Z</time>
      </trkpt>
      <trkpt lat="48.02644" lon="6.86782">
        <ele>924.6</ele>
        <time>2022-05-28T13:43:16Z</time>
      </trkpt>
      <trkpt lat="48.02643" lon="6.86782">
        <ele>923.9</ele>
        <time>2022-05-28T13:43:20Z</time>
      </trkpt>
      <trkpt lat="48.02643" lon="6.86783">
        <ele>923.8</ele>
        <time>2022-05-28T13:43:21Z</time>
      </trkpt>
      <trkpt lat="48.02642" lon="6.8678">
        <ele>923.2</ele>
        <time>2022-05-28T13:43:29Z</time>
      </trkpt>
      <trkpt lat="48.02642" lon="6.86779">
        <ele>923.9</ele>
        <time>2022-05-28T13:43:46Z</time>
      </trkpt>
      <trkpt lat="48.02641" lon="6.86778">
        <ele>923.6</ele>
        <time>2022-05-28T13:44:19Z</time>
      </trkpt>
      <trkpt lat="48.02641" lon="6.86776">
        <ele>923.3</ele>
        <time>2022-05-28T13:44:34Z</time>
      </trkpt>
      <trkpt lat="48.0264" lon="6.86776">
        <ele>923.3</ele>
        <time>2022-05-28T13:44:35Z</time>
      </trkpt>
      <trkpt lat="48.0264" lon="6.86775">
        <ele>923.7</ele>
        <time>2022-05-28T13:44:44Z</time>
      </trkpt>
      <trkpt lat="48.02639" lon="6.86774">
        <ele>923.5</ele>
        <time>2022-05-28T13:44:46Z</time>
      </trkpt>
      <trkpt lat="48.02633" lon="6.86762">
        <ele>924.5</ele>
        <time>2022-05-28T13:44:52Z</time>
      </trkpt>
      <trkpt lat="48.02626" lon="6.86754">
        <ele>925.7</ele>
        <time>2022-05-28T13:44:57Z</time>
      </trkpt>
      <trkpt lat="48.02618" lon="6.86745">
        <ele>926.7</ele>
        <time>2022-05-28T13:45:02Z</time>
      </trkpt>
      <trkpt lat="48.02611" lon="6.86734">
        <ele>927.6</ele>
        <time>2022-05-28T13:45:08Z</time>
      </trkpt>
      <trkpt lat="48.02608" lon="6.8672">
        <ele>928.6</ele>
        <time>2022-05-28T13:45:14Z</time>
      </trkpt>
      <trkpt lat="48.02605" lon="6.86706">
        <ele>930.1</ele>
        <time>2022-05-28T13:45:22Z</time>
      </trkpt>
      <trkpt lat="48.026" lon="6.86693">
        <ele>932.4</ele>
        <time>2022-05-28T13:45:30Z</time>
      </trkpt>
      <trkpt lat="48.02595" lon="6.86679">
        <ele>933.7</ele>
        <time>2022-05-28T13:45:37Z</time>
      </trkpt>
      <trkpt lat="48.02592" lon="6.86666">
        <ele>934.9</ele>
        <time>2022-05-28T13:45:43Z</time>
      </trkpt>
      <trkpt lat="48.0259" lon="6.86652">
        <ele>936</ele>
        <time>2022-05-28T13:45:50Z</time>
      </trkpt>
      <trkpt lat="48.02584" lon="6.86639">
        <ele>935.9</ele>
        <time>2022-05-28T13:45:56Z</time>
      </trkpt>
      <trkpt lat="48.02579" lon="6.86627">
        <ele>937.5</ele>
        <time>2022-05-28T13:46:03Z</time>
      </trkpt>
      <trkpt lat="48.02571" lon="6.8662">
        <ele>937.9</ele>
        <time>2022-05-28T13:46:09Z</time>
      </trkpt>
      <trkpt lat="48.02562" lon="6.86614">
        <ele>937.7</ele>
        <time>2022-05-28T13:46:15Z</time>
      </trkpt>
      <trkpt lat="48.02555" lon="6.86602">
        <ele>937.5</ele>
        <time>2022-05-28T13:46:19Z</time>
      </trkpt>
      <trkpt lat="48.02553" lon="6.86589">
        <ele>938.4</ele>
        <time>2022-05-28T13:46:23Z</time>
      </trkpt>
      <trkpt lat="48.02552" lon="6.86573">
        <ele>938.5</ele>
        <time>2022-05-28T13:46:29Z</time>
      </trkpt>
      <trkpt lat="48.0255" lon="6.86557">
        <ele>940.3</ele>
        <time>2022-05-28T13:46:35Z</time>
      </trkpt>
      <trkpt lat="48.02547" lon="6.86542">
        <ele>940.6</ele>
        <time>2022-05-28T13:46:42Z</time>
      </trkpt>
      <trkpt lat="48.02546" lon="6.86527">
        <ele>942.8</ele>
        <time>2022-05-28T13:46:50Z</time>
      </trkpt>
      <trkpt lat="48.02549" lon="6.86512">
        <ele>944.2</ele>
        <time>2022-05-28T13:46:57Z</time>
      </trkpt>
      <trkpt lat="48.02554" lon="6.86501">
        <ele>945.3</ele>
        <time>2022-05-28T13:47:03Z</time>
      </trkpt>
      <trkpt lat="48.02555" lon="6.86487">
        <ele>946.2</ele>
        <time>2022-05-28T13:47:09Z</time>
      </trkpt>
      <trkpt lat="48.02557" lon="6.86472">
        <ele>947.2</ele>
        <time>2022-05-28T13:47:15Z</time>
      </trkpt>
      <trkpt lat="48.02559" lon="6.86458">
        <ele>947.7</ele>
        <time>2022-05-28T13:47:22Z</time>
      </trkpt>
      <trkpt lat="48.02565" lon="6.86445">
        <ele>947.7</ele>
        <time>2022-05-28T13:47:28Z</time>
      </trkpt>
      <trkpt lat="48.0257" lon="6.86433">
        <ele>949</ele>
        <time>2022-05-28T13:47:33Z</time>
      </trkpt>
      <trkpt lat="48.02571" lon="6.86418">
        <ele>949.3</ele>
        <time>2022-05-28T13:47:38Z</time>
      </trkpt>
      <trkpt lat="48.0257" lon="6.86403">
        <ele>949.4</ele>
        <time>2022-05-28T13:47:43Z</time>
      </trkpt>
      <trkpt lat="48.02569" lon="6.86386">
        <ele>948.4</ele>
        <time>2022-05-28T13:47:48Z</time>
      </trkpt>
      <trkpt lat="48.02568" lon="6.86371">
        <ele>948</ele>
        <time>2022-05-28T13:47:51Z</time>
      </trkpt>
      <trkpt lat="48.02569" lon="6.86356">
        <ele>948.3</ele>
        <time>2022-05-28T13:47:55Z</time>
      </trkpt>
      <trkpt lat="48.02572" lon="6.86342">
        <ele>951</ele>
        <time>2022-05-28T13:48:01Z</time>
      </trkpt>
      <trkpt lat="48.02577" lon="6.8633">
        <ele>952.4</ele>
        <time>2022-05-28T13:48:08Z</time>
      </trkpt>
      <trkpt lat="48.02583" lon="6.86318">
        <ele>955.1</ele>
        <time>2022-05-28T13:48:15Z</time>
      </trkpt>
      <trkpt lat="48.02589" lon="6.86306">
        <ele>957.4</ele>
        <time>2022-05-28T13:48:23Z</time>
      </trkpt>
      <trkpt lat="48.02596" lon="6.86297">
        <ele>958.9</ele>
        <time>2022-05-28T13:48:30Z</time>
      </trkpt>
      <trkpt lat="48.02601" lon="6.86284">
        <ele>960.1</ele>
        <time>2022-05-28T13:48:38Z</time>
      </trkpt>
      <trkpt lat="48.02607" lon="6.86273">
        <ele>961.6</ele>
        <time>2022-05-28T13:48:45Z</time>
      </trkpt>
      <trkpt lat="48.02613" lon="6.86263">
        <ele>963.1</ele>
        <time>2022-05-28T13:48:52Z</time>
      </trkpt>
      <trkpt lat="48.02619" lon="6.86252">
        <ele>964.7</ele>
        <time>2022-05-28T13:48:59Z</time>
      </trkpt>
      <trkpt lat="48.02625" lon="6.86241">
        <ele>966.2</ele>
        <time>2022-05-28T13:49:06Z</time>
      </trkpt>
      <trkpt lat="48.02629" lon="6.86227">
        <ele>967.8</ele>
        <time>2022-05-28T13:49:15Z</time>
      </trkpt>
      <trkpt lat="48.02633" lon="6.86214">
        <ele>968.7</ele>
        <time>2022-05-28T13:49:22Z</time>
      </trkpt>
      <trkpt lat="48.02637" lon="6.862">
        <ele>970</ele>
        <time>2022-05-28T13:49:29Z</time>
      </trkpt>
      <trkpt lat="48.02641" lon="6.86186">
        <ele>971.5</ele>
        <time>2022-05-28T13:49:36Z</time>
      </trkpt>
      <trkpt lat="48.02646" lon="6.86173">
        <ele>972.8</ele>
        <time>2022-05-28T13:49:43Z</time>
      </trkpt>
      <trkpt lat="48.0265" lon="6.8616">
        <ele>973.8</ele>
        <time>2022-05-28T13:49:49Z</time>
      </trkpt>
      <trkpt lat="48.02655" lon="6.86146">
        <ele>975.7</ele>
        <time>2022-05-28T13:49:54Z</time>
      </trkpt>
      <trkpt lat="48.02659" lon="6.86133">
        <ele>976.1</ele>
        <time>2022-05-28T13:49:58Z</time>
      </trkpt>
      <trkpt lat="48.02664" lon="6.8612">
        <ele>976.2</ele>
        <time>2022-05-28T13:50:03Z</time>
      </trkpt>
      <trkpt lat="48.02668" lon="6.86108">
        <ele>976.6</ele>
        <time>2022-05-28T13:50:07Z</time>
      </trkpt>
      <trkpt lat="48.0267" lon="6.86095">
        <ele>976.1</ele>
        <time>2022-05-28T13:50:11Z</time>
      </trkpt>
      <trkpt lat="48.02671" lon="6.86079">
        <ele>977.1</ele>
        <time>2022-05-28T13:50:16Z</time>
      </trkpt>
      <trkpt lat="48.02671" lon="6.86064">
        <ele>977.3</ele>
        <time>2022-05-28T13:50:21Z</time>
      </trkpt>
      <trkpt lat="48.02669" lon="6.86051">
        <ele>978.1</ele>
        <time>2022-05-28T13:50:25Z</time>
      </trkpt>
      <trkpt lat="48.02666" lon="6.86036">
        <ele>979.5</ele>
        <time>2022-05-28T13:50:30Z</time>
      </trkpt>
      <trkpt lat="48.02661" lon="6.86023">
        <ele>979.7</ele>
        <time>2022-05-28T13:50:36Z</time>
      </trkpt>
      <trkpt lat="48.02658" lon="6.86019">
        <ele>979.4</ele>
        <time>2022-05-28T13:50:42Z</time>
      </trkpt>
      <trkpt lat="48.02659" lon="6.86019">
        <ele>979.3</ele>
        <time>2022-05-28T13:51:10Z</time>
      </trkpt>
      <trkpt lat="48.02659" lon="6.86018">
        <ele>980.3</ele>
        <time>2022-05-28T13:54:07Z</time>
      </trkpt>
      <trkpt lat="48.02659" lon="6.86018">
        <ele>980.1</ele>
        <time>2022-05-28T13:54:44Z</time>
      </trkpt>
      <trkpt lat="48.0266" lon="6.86018">
        <ele>980.1</ele>
        <time>2022-05-28T13:55:19Z</time>
      </trkpt>
      <trkpt lat="48.02662" lon="6.86016">
        <ele>980.8</ele>
        <time>2022-05-28T13:55:26Z</time>
      </trkpt>
      <trkpt lat="48.02662" lon="6.86017">
        <ele>980.1</ele>
        <time>2022-05-28T13:56:56Z</time>
      </trkpt>
      <trkpt lat="48.02662" lon="6.86017">
        <ele>980</ele>
        <time>2022-05-28T13:58:02Z</time>
      </trkpt>
      <trkpt lat="48.02662" lon="6.86016">
        <ele>980</ele>
        <time>2022-05-28T13:59:13Z</time>
      </trkpt>
      <trkpt lat="48.02656" lon="6.86003">
        <ele>979.7</ele>
        <time>2022-05-28T13:59:20Z</time>
      </trkpt>
      <trkpt lat="48.02649" lon="6.85991">
        <ele>976.4</ele>
        <time>2022-05-28T13:59:25Z</time>
      </trkpt>
      <trkpt lat="48.02643" lon="6.85977">
        <ele>975.6</ele>
        <time>2022-05-28T13:59:28Z</time>
      </trkpt>
      <trkpt lat="48.02638" lon="6.85961">
        <ele>968.4</ele>
        <time>2022-05-28T13:59:31Z</time>
      </trkpt>
      <trkpt lat="48.02632" lon="6.85947">
        <ele>969.1</ele>
        <time>2022-05-28T13:59:34Z</time>
      </trkpt>
      <trkpt lat="48.02622" lon="6.85939">
        <ele>969.3</ele>
        <time>2022-05-28T13:59:36Z</time>
      </trkpt>
      <trkpt lat="48.02613" lon="6.85934">
        <ele>967.6</ele>
        <time>2022-05-28T13:59:37Z</time>
      </trkpt>
      <trkpt lat="48.02604" lon="6.8593">
        <ele>968.6</ele>
        <time>2022-05-28T13:59:38Z</time>
      </trkpt>
      <trkpt lat="48.02591" lon="6.85925">
        <ele>968.4</ele>
        <time>2022-05-28T13:59:39Z</time>
      </trkpt>
      <trkpt lat="48.02578" lon="6.85919">
        <ele>964.9</ele>
        <time>2022-05-28T13:59:41Z</time>
      </trkpt>
      <trkpt lat="48.02568" lon="6.85912">
        <ele>967</ele>
        <time>2022-05-28T13:59:43Z</time>
      </trkpt>
      <trkpt lat="48.02557" lon="6.85908">
        <ele>963.4</ele>
        <time>2022-05-28T13:59:45Z</time>
      </trkpt>
      <trkpt lat="48.02544" lon="6.85906">
        <ele>962.5</ele>
        <time>2022-05-28T13:59:47Z</time>
      </trkpt>
      <trkpt lat="48.02532" lon="6.85905">
        <ele>959.6</ele>
        <time>2022-05-28T13:59:49Z</time>
      </trkpt>
      <trkpt lat="48.02523" lon="6.85904">
        <ele>956.5</ele>
        <time>2022-05-28T13:59:51Z</time>
      </trkpt>
      <trkpt lat="48.02509" lon="6.85903">
        <ele>955.4</ele>
        <time>2022-05-28T13:59:53Z</time>
      </trkpt>
      <trkpt lat="48.025" lon="6.85899">
        <ele>957.3</ele>
        <time>2022-05-28T13:59:55Z</time>
      </trkpt>
      <trkpt lat="48.02494" lon="6.85886">
        <ele>955.3</ele>
        <time>2022-05-28T13:59:58Z</time>
      </trkpt>
      <trkpt lat="48.02485" lon="6.85873">
        <ele>954.4</ele>
        <time>2022-05-28T14:00:01Z</time>
      </trkpt>
      <trkpt lat="48.02474" lon="6.85868">
        <ele>954.5</ele>
        <time>2022-05-28T14:00:03Z</time>
      </trkpt>
      <trkpt lat="48.02464" lon="6.85867">
        <ele>954.3</ele>
        <time>2022-05-28T14:00:05Z</time>
      </trkpt>
      <trkpt lat="48.02452" lon="6.85866">
        <ele>947.7</ele>
        <time>2022-05-28T14:00:08Z</time>
      </trkpt>
      <trkpt lat="48.02442" lon="6.85862">
        <ele>949</ele>
        <time>2022-05-28T14:00:10Z</time>
      </trkpt>
      <trkpt lat="48.02431" lon="6.85855">
        <ele>948.9</ele>
        <time>2022-05-28T14:00:13Z</time>
      </trkpt>
      <trkpt lat="48.0242" lon="6.85844">
        <ele>946.7</ele>
        <time>2022-05-28T14:00:16Z</time>
      </trkpt>
      <trkpt lat="48.02408" lon="6.85836">
        <ele>947</ele>
        <time>2022-05-28T14:00:19Z</time>
      </trkpt>
      <trkpt lat="48.02396" lon="6.85828">
        <ele>945.5</ele>
        <time>2022-05-28T14:00:22Z</time>
      </trkpt>
      <trkpt lat="48.02387" lon="6.85823">
        <ele>942.7</ele>
        <time>2022-05-28T14:00:24Z</time>
      </trkpt>
      <trkpt lat="48.02372" lon="6.85817">
        <ele>941.1</ele>
        <time>2022-05-28T14:00:26Z</time>
      </trkpt>
      <trkpt lat="48.02361" lon="6.85815">
        <ele>941.3</ele>
        <time>2022-05-28T14:00:27Z</time>
      </trkpt>
      <trkpt lat="48.02352" lon="6.85812">
        <ele>941.4</ele>
        <time>2022-05-28T14:00:28Z</time>
      </trkpt>
      <trkpt lat="48.02337" lon="6.85811">
        <ele>943.1</ele>
        <time>2022-05-28T14:00:30Z</time>
      </trkpt>
      <trkpt lat="48.02323" lon="6.85814">
        <ele>941.9</ele>
        <time>2022-05-28T14:00:32Z</time>
      </trkpt>
      <trkpt lat="48.02313" lon="6.85818">
        <ele>941.1</ele>
        <time>2022-05-28T14:00:34Z</time>
      </trkpt>
      <trkpt lat="48.02303" lon="6.85819">
        <ele>939.5</ele>
        <time>2022-05-28T14:00:36Z</time>
      </trkpt>
      <trkpt lat="48.02294" lon="6.85819">
        <ele>940</ele>
        <time>2022-05-28T14:00:38Z</time>
      </trkpt>
      <trkpt lat="48.02284" lon="6.8582">
        <ele>934.5</ele>
        <time>2022-05-28T14:00:40Z</time>
      </trkpt>
      <trkpt lat="48.02274" lon="6.8582">
        <ele>935.2</ele>
        <time>2022-05-28T14:00:42Z</time>
      </trkpt>
      <trkpt lat="48.02262" lon="6.85821">
        <ele>938</ele>
        <time>2022-05-28T14:00:45Z</time>
      </trkpt>
      <trkpt lat="48.02253" lon="6.85823">
        <ele>940.3</ele>
        <time>2022-05-28T14:00:49Z</time>
      </trkpt>
      <trkpt lat="48.02244" lon="6.85829">
        <ele>940.8</ele>
        <time>2022-05-28T14:00:54Z</time>
      </trkpt>
      <trkpt lat="48.02234" lon="6.85836">
        <ele>941.9</ele>
        <time>2022-05-28T14:00:59Z</time>
      </trkpt>
      <trkpt lat="48.02226" lon="6.85844">
        <ele>944.4</ele>
        <time>2022-05-28T14:01:04Z</time>
      </trkpt>
      <trkpt lat="48.02216" lon="6.8585">
        <ele>945.2</ele>
        <time>2022-05-28T14:01:10Z</time>
      </trkpt>
      <trkpt lat="48.02206" lon="6.85855">
        <ele>946.9</ele>
        <time>2022-05-28T14:01:17Z</time>
      </trkpt>
      <trkpt lat="48.02199" lon="6.85864">
        <ele>949.1</ele>
        <time>2022-05-28T14:01:24Z</time>
      </trkpt>
      <trkpt lat="48.02191" lon="6.85872">
        <ele>950.1</ele>
        <time>2022-05-28T14:01:31Z</time>
      </trkpt>
      <trkpt lat="48.02182" lon="6.8588">
        <ele>951.8</ele>
        <time>2022-05-28T14:01:38Z</time>
      </trkpt>
      <trkpt lat="48.02174" lon="6.85888">
        <ele>952.9</ele>
        <time>2022-05-28T14:01:45Z</time>
      </trkpt>
      <trkpt lat="48.02164" lon="6.85893">
        <ele>953.9</ele>
        <time>2022-05-28T14:01:51Z</time>
      </trkpt>
      <trkpt lat="48.02155" lon="6.85901">
        <ele>955.1</ele>
        <time>2022-05-28T14:01:58Z</time>
      </trkpt>
      <trkpt lat="48.02148" lon="6.85908">
        <ele>956.4</ele>
        <time>2022-05-28T14:02:04Z</time>
      </trkpt>
      <trkpt lat="48.02139" lon="6.85917">
        <ele>956.6</ele>
        <time>2022-05-28T14:02:09Z</time>
      </trkpt>
      <trkpt lat="48.02131" lon="6.85926">
        <ele>957.8</ele>
        <time>2022-05-28T14:02:14Z</time>
      </trkpt>
      <trkpt lat="48.02124" lon="6.85938">
        <ele>958.9</ele>
        <time>2022-05-28T14:02:20Z</time>
      </trkpt>
      <trkpt lat="48.02116" lon="6.85947">
        <ele>960.1</ele>
        <time>2022-05-28T14:02:25Z</time>
      </trkpt>
      <trkpt lat="48.02111" lon="6.85962">
        <ele>960.9</ele>
        <time>2022-05-28T14:02:31Z</time>
      </trkpt>
      <trkpt lat="48.02106" lon="6.85975">
        <ele>961.9</ele>
        <time>2022-05-28T14:02:37Z</time>
      </trkpt>
      <trkpt lat="48.021" lon="6.85988">
        <ele>962.9</ele>
        <time>2022-05-28T14:02:43Z</time>
      </trkpt>
      <trkpt lat="48.02097" lon="6.86001">
        <ele>963.8</ele>
        <time>2022-05-28T14:02:48Z</time>
      </trkpt>
      <trkpt lat="48.02092" lon="6.86013">
        <ele>964.3</ele>
        <time>2022-05-28T14:02:53Z</time>
      </trkpt>
      <trkpt lat="48.0209" lon="6.86029">
        <ele>965.5</ele>
        <time>2022-05-28T14:02:59Z</time>
      </trkpt>
      <trkpt lat="48.02086" lon="6.86042">
        <ele>966.1</ele>
        <time>2022-05-28T14:03:04Z</time>
      </trkpt>
      <trkpt lat="48.02082" lon="6.86055">
        <ele>967.2</ele>
        <time>2022-05-28T14:03:09Z</time>
      </trkpt>
      <trkpt lat="48.0208" lon="6.86069">
        <ele>967.2</ele>
        <time>2022-05-28T14:03:15Z</time>
      </trkpt>
      <trkpt lat="48.02081" lon="6.86084">
        <ele>967.8</ele>
        <time>2022-05-28T14:03:20Z</time>
      </trkpt>
      <trkpt lat="48.02081" lon="6.861">
        <ele>967.8</ele>
        <time>2022-05-28T14:03:25Z</time>
      </trkpt>
      <trkpt lat="48.02077" lon="6.86113">
        <ele>969.8</ele>
        <time>2022-05-28T14:03:32Z</time>
      </trkpt>
      <trkpt lat="48.02071" lon="6.86123">
        <ele>970.4</ele>
        <time>2022-05-28T14:03:37Z</time>
      </trkpt>
      <trkpt lat="48.02066" lon="6.86137">
        <ele>971.8</ele>
        <time>2022-05-28T14:03:43Z</time>
      </trkpt>
      <trkpt lat="48.02059" lon="6.86148">
        <ele>973.7</ele>
        <time>2022-05-28T14:03:49Z</time>
      </trkpt>
      <trkpt lat="48.02054" lon="6.86161">
        <ele>974.4</ele>
        <time>2022-05-28T14:03:54Z</time>
      </trkpt>
      <trkpt lat="48.02052" lon="6.86166">
        <ele>974.1</ele>
        <time>2022-05-28T14:04:01Z</time>
      </trkpt>
      <trkpt lat="48.02051" lon="6.86167">
        <ele>974</ele>
        <time>2022-05-28T14:04:31Z</time>
      </trkpt>
      <trkpt lat="48.02049" lon="6.86172">
        <ele>974.4</ele>
        <time>2022-05-28T14:04:44Z</time>
      </trkpt>
      <trkpt lat="48.02049" lon="6.86172">
        <ele>974.3</ele>
        <time>2022-05-28T14:05:00Z</time>
      </trkpt>
      <trkpt lat="48.02049" lon="6.86173">
        <ele>973.8</ele>
        <time>2022-05-28T14:06:03Z</time>
      </trkpt>
      <trkpt lat="48.02049" lon="6.86175">
        <ele>974.2</ele>
        <time>2022-05-28T14:06:06Z</time>
      </trkpt>
      <trkpt lat="48.02048" lon="6.86175">
        <ele>973.5</ele>
        <time>2022-05-28T14:07:37Z</time>
      </trkpt>
      <trkpt lat="48.02039" lon="6.86184">
        <ele>971.6</ele>
        <time>2022-05-28T14:07:42Z</time>
      </trkpt>
      <trkpt lat="48.02028" lon="6.86191">
        <ele>970</ele>
        <time>2022-05-28T14:07:45Z</time>
      </trkpt>
      <trkpt lat="48.02019" lon="6.86197">
        <ele>971.6</ele>
        <time>2022-05-28T14:07:47Z</time>
      </trkpt>
      <trkpt lat="48.02011" lon="6.86204">
        <ele>969.8</ele>
        <time>2022-05-28T14:07:49Z</time>
      </trkpt>
      <trkpt lat="48.02002" lon="6.86211">
        <ele>969.6</ele>
        <time>2022-05-28T14:07:51Z</time>
      </trkpt>
      <trkpt lat="48.0199" lon="6.86221">
        <ele>966.8</ele>
        <time>2022-05-28T14:07:54Z</time>
      </trkpt>
      <trkpt lat="48.01979" lon="6.86227">
        <ele>967.4</ele>
        <time>2022-05-28T14:07:56Z</time>
      </trkpt>
      <trkpt lat="48.0197" lon="6.86235">
        <ele>965.6</ele>
        <time>2022-05-28T14:07:58Z</time>
      </trkpt>
      <trkpt lat="48.01959" lon="6.86246">
        <ele>964.6</ele>
        <time>2022-05-28T14:08:00Z</time>
      </trkpt>
      <trkpt lat="48.01953" lon="6.86255">
        <ele>963</ele>
        <time>2022-05-28T14:08:01Z</time>
      </trkpt>
      <trkpt lat="48.01941" lon="6.86275">
        <ele>963.5</ele>
        <time>2022-05-28T14:08:03Z</time>
      </trkpt>
      <trkpt lat="48.01933" lon="6.86295">
        <ele>965.8</ele>
        <time>2022-05-28T14:08:05Z</time>
      </trkpt>
      <trkpt lat="48.01924" lon="6.86312">
        <ele>961</ele>
        <time>2022-05-28T14:08:07Z</time>
      </trkpt>
      <trkpt lat="48.01913" lon="6.86325">
        <ele>961.3</ele>
        <time>2022-05-28T14:08:09Z</time>
      </trkpt>
      <trkpt lat="48.01902" lon="6.86341">
        <ele>956.5</ele>
        <time>2022-05-28T14:08:11Z</time>
      </trkpt>
      <trkpt lat="48.01891" lon="6.86358">
        <ele>956.2</ele>
        <time>2022-05-28T14:08:13Z</time>
      </trkpt>
      <trkpt lat="48.01878" lon="6.86375">
        <ele>957</ele>
        <time>2022-05-28T14:08:15Z</time>
      </trkpt>
      <trkpt lat="48.01871" lon="6.86384">
        <ele>956</ele>
        <time>2022-05-28T14:08:16Z</time>
      </trkpt>
      <trkpt lat="48.01863" lon="6.86394">
        <ele>951.2</ele>
        <time>2022-05-28T14:08:17Z</time>
      </trkpt>
      <trkpt lat="48.01855" lon="6.86402">
        <ele>949.8</ele>
        <time>2022-05-28T14:08:18Z</time>
      </trkpt>
      <trkpt lat="48.01847" lon="6.86409">
        <ele>948.2</ele>
        <time>2022-05-28T14:08:19Z</time>
      </trkpt>
      <trkpt lat="48.01832" lon="6.86415">
        <ele>951</ele>
        <time>2022-05-28T14:08:21Z</time>
      </trkpt>
      <trkpt lat="48.01819" lon="6.86423">
        <ele>954.3</ele>
        <time>2022-05-28T14:08:23Z</time>
      </trkpt>
      <trkpt lat="48.01807" lon="6.86437">
        <ele>953.1</ele>
        <time>2022-05-28T14:08:25Z</time>
      </trkpt>
      <trkpt lat="48.01796" lon="6.86447">
        <ele>952.1</ele>
        <time>2022-05-28T14:08:27Z</time>
      </trkpt>
      <trkpt lat="48.01785" lon="6.86452">
        <ele>954.1</ele>
        <time>2022-05-28T14:08:29Z</time>
      </trkpt>
      <trkpt lat="48.01776" lon="6.86454">
        <ele>954.8</ele>
        <time>2022-05-28T14:08:31Z</time>
      </trkpt>
      <trkpt lat="48.01766" lon="6.8646">
        <ele>956.2</ele>
        <time>2022-05-28T14:08:35Z</time>
      </trkpt>
      <trkpt lat="48.01756" lon="6.86468">
        <ele>956.6</ele>
        <time>2022-05-28T14:08:39Z</time>
      </trkpt>
      <trkpt lat="48.01747" lon="6.86474">
        <ele>956.6</ele>
        <time>2022-05-28T14:08:43Z</time>
      </trkpt>
      <trkpt lat="48.01738" lon="6.86481">
        <ele>956.9</ele>
        <time>2022-05-28T14:08:47Z</time>
      </trkpt>
      <trkpt lat="48.0173" lon="6.86491">
        <ele>957.9</ele>
        <time>2022-05-28T14:08:52Z</time>
      </trkpt>
      <trkpt lat="48.01729" lon="6.86498">
        <ele>957.7</ele>
        <time>2022-05-28T14:08:57Z</time>
      </trkpt>
      <trkpt lat="48.01729" lon="6.86499">
        <ele>958.3</ele>
        <time>2022-05-28T14:09:54Z</time>
      </trkpt>
      <trkpt lat="48.01729" lon="6.86498">
        <ele>958.2</ele>
        <time>2022-05-28T14:10:08Z</time>
      </trkpt>
      <trkpt lat="48.01728" lon="6.86498">
        <ele>958</ele>
        <time>2022-05-28T14:10:10Z</time>
      </trkpt>
      <trkpt lat="48.01729" lon="6.86498">
        <ele>957.8</ele>
        <time>2022-05-28T14:10:12Z</time>
      </trkpt>
      <trkpt lat="48.01729" lon="6.86496">
        <ele>958</ele>
        <time>2022-05-28T14:10:16Z</time>
      </trkpt>
      <trkpt lat="48.0173" lon="6.86495">
        <ele>957.3</ele>
        <time>2022-05-28T14:11:48Z</time>
      </trkpt>
      <trkpt lat="48.01729" lon="6.86494">
        <ele>957.9</ele>
        <time>2022-05-28T14:13:58Z</time>
      </trkpt>
      <trkpt lat="48.01725" lon="6.8648">
        <ele>956.7</ele>
        <time>2022-05-28T14:14:04Z</time>
      </trkpt>
      <trkpt lat="48.01724" lon="6.86462">
        <ele>956.2</ele>
        <time>2022-05-28T14:14:08Z</time>
      </trkpt>
      <trkpt lat="48.01723" lon="6.86446">
        <ele>952.7</ele>
        <time>2022-05-28T14:14:11Z</time>
      </trkpt>
      <trkpt lat="48.01723" lon="6.86426">
        <ele>952.7</ele>
        <time>2022-05-28T14:14:14Z</time>
      </trkpt>
      <trkpt lat="48.01723" lon="6.86411">
        <ele>951.4</ele>
        <time>2022-05-28T14:14:16Z</time>
      </trkpt>
      <trkpt lat="48.01723" lon="6.86396">
        <ele>949.4</ele>
        <time>2022-05-28T14:14:18Z</time>
      </trkpt>
      <trkpt lat="48.0172" lon="6.86381">
        <ele>946.9</ele>
        <time>2022-05-28T14:14:20Z</time>
      </trkpt>
      <trkpt lat="48.01717" lon="6.86368">
        <ele>944.5</ele>
        <time>2022-05-28T14:14:22Z</time>
      </trkpt>
      <trkpt lat="48.01713" lon="6.86355">
        <ele>944.6</ele>
        <time>2022-05-28T14:14:24Z</time>
      </trkpt>
      <trkpt lat="48.01711" lon="6.86341">
        <ele>946.7</ele>
        <time>2022-05-28T14:14:26Z</time>
      </trkpt>
      <trkpt lat="48.01713" lon="6.86327">
        <ele>942</ele>
        <time>2022-05-28T14:14:28Z</time>
      </trkpt>
      <trkpt lat="48.01715" lon="6.86313">
        <ele>940.6</ele>
        <time>2022-05-28T14:14:30Z</time>
      </trkpt>
      <trkpt lat="48.01717" lon="6.86297">
        <ele>938.8</ele>
        <time>2022-05-28T14:14:33Z</time>
      </trkpt>
      <trkpt lat="48.01722" lon="6.86278">
        <ele>936.9</ele>
        <time>2022-05-28T14:14:36Z</time>
      </trkpt>
      <trkpt lat="48.01724" lon="6.86262">
        <ele>935.3</ele>
        <time>2022-05-28T14:14:38Z</time>
      </trkpt>
      <trkpt lat="48.01726" lon="6.86242">
        <ele>933.1</ele>
        <time>2022-05-28T14:14:40Z</time>
      </trkpt>
      <trkpt lat="48.01728" lon="6.86221">
        <ele>934.6</ele>
        <time>2022-05-28T14:14:42Z</time>
      </trkpt>
      <trkpt lat="48.01728" lon="6.86203">
        <ele>937.4</ele>
        <time>2022-05-28T14:14:44Z</time>
      </trkpt>
      <trkpt lat="48.01735" lon="6.8619">
        <ele>931.7</ele>
        <time>2022-05-28T14:14:46Z</time>
      </trkpt>
      <trkpt lat="48.01743" lon="6.86178">
        <ele>930.3</ele>
        <time>2022-05-28T14:14:48Z</time>
      </trkpt>
      <trkpt lat="48.01751" lon="6.86165">
        <ele>934.1</ele>
        <time>2022-05-28T14:14:50Z</time>
      </trkpt>
      <trkpt lat="48.01761" lon="6.86151">
        <ele>933.7</ele>
        <time>2022-05-28T14:14:52Z</time>
      </trkpt>
      <trkpt lat="48.0177" lon="6.86135">
        <ele>932.4</ele>
        <time>2022-05-28T14:14:54Z</time>
      </trkpt>
      <trkpt lat="48.01778" lon="6.86119">
        <ele>928.3</ele>
        <time>2022-05-28T14:14:56Z</time>
      </trkpt>
      <trkpt lat="48.01787" lon="6.861">
        <ele>927.2</ele>
        <time>2022-05-28T14:14:58Z</time>
      </trkpt>
      <trkpt lat="48.01796" lon="6.8608">
        <ele>922.6</ele>
        <time>2022-05-28T14:15:00Z</time>
      </trkpt>
      <trkpt lat="48.01803" lon="6.8606">
        <ele>921</ele>
        <time>2022-05-28T14:15:02Z</time>
      </trkpt>
      <trkpt lat="48.01807" lon="6.86037">
        <ele>921.7</ele>
        <time>2022-05-28T14:15:04Z</time>
      </trkpt>
      <trkpt lat="48.01806" lon="6.86012">
        <ele>921.4</ele>
        <time>2022-05-28T14:15:06Z</time>
      </trkpt>
      <trkpt lat="48.01806" lon="6.85993">
        <ele>920.3</ele>
        <time>2022-05-28T14:15:08Z</time>
      </trkpt>
      <trkpt lat="48.01799" lon="6.8597">
        <ele>921.2</ele>
        <time>2022-05-28T14:15:10Z</time>
      </trkpt>
      <trkpt lat="48.01795" lon="6.85958">
        <ele>918.7</ele>
        <time>2022-05-28T14:15:11Z</time>
      </trkpt>
      <trkpt lat="48.01788" lon="6.85933">
        <ele>916.8</ele>
        <time>2022-05-28T14:15:13Z</time>
      </trkpt>
      <trkpt lat="48.01783" lon="6.85909">
        <ele>916.7</ele>
        <time>2022-05-28T14:15:15Z</time>
      </trkpt>
      <trkpt lat="48.01783" lon="6.85883">
        <ele>916.7</ele>
        <time>2022-05-28T14:15:17Z</time>
      </trkpt>
      <trkpt lat="48.01779" lon="6.85861">
        <ele>915.1</ele>
        <time>2022-05-28T14:15:19Z</time>
      </trkpt>
      <trkpt lat="48.01775" lon="6.8584">
        <ele>910.2</ele>
        <time>2022-05-28T14:15:21Z</time>
      </trkpt>
      <trkpt lat="48.01773" lon="6.85821">
        <ele>911.2</ele>
        <time>2022-05-28T14:15:23Z</time>
      </trkpt>
      <trkpt lat="48.01777" lon="6.85801">
        <ele>914.9</ele>
        <time>2022-05-28T14:15:25Z</time>
      </trkpt>
      <trkpt lat="48.01782" lon="6.85783">
        <ele>912.6</ele>
        <time>2022-05-28T14:15:27Z</time>
      </trkpt>
      <trkpt lat="48.01787" lon="6.85764">
        <ele>912.5</ele>
        <time>2022-05-28T14:15:29Z</time>
      </trkpt>
      <trkpt lat="48.01793" lon="6.85744">
        <ele>908.6</ele>
        <time>2022-05-28T14:15:31Z</time>
      </trkpt>
      <trkpt lat="48.01793" lon="6.85725">
        <ele>911</ele>
        <time>2022-05-28T14:15:33Z</time>
      </trkpt>
      <trkpt lat="48.01787" lon="6.85708">
        <ele>908.2</ele>
        <time>2022-05-28T14:15:35Z</time>
      </trkpt>
      <trkpt lat="48.01777" lon="6.85692">
        <ele>909.3</ele>
        <time>2022-05-28T14:15:37Z</time>
      </trkpt>
      <trkpt lat="48.0177" lon="6.85673">
        <ele>904.4</ele>
        <time>2022-05-28T14:15:39Z</time>
      </trkpt>
      <trkpt lat="48.01765" lon="6.85652">
        <ele>905.5</ele>
        <time>2022-05-28T14:15:41Z</time>
      </trkpt>
      <trkpt lat="48.01763" lon="6.8563">
        <ele>908.6</ele>
        <time>2022-05-28T14:15:43Z</time>
      </trkpt>
      <trkpt lat="48.01767" lon="6.85611">
        <ele>903</ele>
        <time>2022-05-28T14:15:45Z</time>
      </trkpt>
      <trkpt lat="48.0178" lon="6.85597">
        <ele>905.7</ele>
        <time>2022-05-28T14:15:47Z</time>
      </trkpt>
      <trkpt lat="48.01794" lon="6.85581">
        <ele>904.3</ele>
        <time>2022-05-28T14:15:49Z</time>
      </trkpt>
      <trkpt lat="48.01801" lon="6.85561">
        <ele>904.1</ele>
        <time>2022-05-28T14:15:51Z</time>
      </trkpt>
      <trkpt lat="48.01803" lon="6.85544">
        <ele>901</ele>
        <time>2022-05-28T14:15:53Z</time>
      </trkpt>
      <trkpt lat="48.01802" lon="6.85524">
        <ele>901</ele>
        <time>2022-05-28T14:15:55Z</time>
      </trkpt>
      <trkpt lat="48.01807" lon="6.85501">
        <ele>901.4</ele>
        <time>2022-05-28T14:15:57Z</time>
      </trkpt>
      <trkpt lat="48.01816" lon="6.8548">
        <ele>893.8</ele>
        <time>2022-05-28T14:15:59Z</time>
      </trkpt>
      <trkpt lat="48.01826" lon="6.8546">
        <ele>892.6</ele>
        <time>2022-05-28T14:16:01Z</time>
      </trkpt>
      <trkpt lat="48.01834" lon="6.85437">
        <ele>893.9</ele>
        <time>2022-05-28T14:16:03Z</time>
      </trkpt>
      <trkpt lat="48.01838" lon="6.85412">
        <ele>892.4</ele>
        <time>2022-05-28T14:16:05Z</time>
      </trkpt>
      <trkpt lat="48.0184" lon="6.85398">
        <ele>894.7</ele>
        <time>2022-05-28T14:16:06Z</time>
      </trkpt>
      <trkpt lat="48.01842" lon="6.85385">
        <ele>894.8</ele>
        <time>2022-05-28T14:16:07Z</time>
      </trkpt>
      <trkpt lat="48.01844" lon="6.85372">
        <ele>892.5</ele>
        <time>2022-05-28T14:16:08Z</time>
      </trkpt>
      <trkpt lat="48.01851" lon="6.85347">
        <ele>886.9</ele>
        <time>2022-05-28T14:16:10Z</time>
      </trkpt>
      <trkpt lat="48.01856" lon="6.85336">
        <ele>886.1</ele>
        <time>2022-05-28T14:16:11Z</time>
      </trkpt>
      <trkpt lat="48.01866" lon="6.85313">
        <ele>888.3</ele>
        <time>2022-05-28T14:16:13Z</time>
      </trkpt>
      <trkpt lat="48.01875" lon="6.85294">
        <ele>890.7</ele>
        <time>2022-05-28T14:16:15Z</time>
      </trkpt>
      <trkpt lat="48.01879" lon="6.85276">
        <ele>889.1</ele>
        <time>2022-05-28T14:16:17Z</time>
      </trkpt>
      <trkpt lat="48.01879" lon="6.85257">
        <ele>891.5</ele>
        <time>2022-05-28T14:16:19Z</time>
      </trkpt>
      <trkpt lat="48.01879" lon="6.85237">
        <ele>890</ele>
        <time>2022-05-28T14:16:21Z</time>
      </trkpt>
      <trkpt lat="48.01881" lon="6.8522">
        <ele>890.8</ele>
        <time>2022-05-28T14:16:23Z</time>
      </trkpt>
      <trkpt lat="48.01883" lon="6.85207">
        <ele>890.2</ele>
        <time>2022-05-28T14:16:25Z</time>
      </trkpt>
      <trkpt lat="48.01888" lon="6.8519">
        <ele>890.6</ele>
        <time>2022-05-28T14:16:28Z</time>
      </trkpt>
      <trkpt lat="48.01891" lon="6.85176">
        <ele>892.1</ele>
        <time>2022-05-28T14:16:31Z</time>
      </trkpt>
      <trkpt lat="48.01892" lon="6.85162">
        <ele>894.9</ele>
        <time>2022-05-28T14:16:35Z</time>
      </trkpt>
      <trkpt lat="48.01894" lon="6.85148">
        <ele>898.3</ele>
        <time>2022-05-28T14:16:40Z</time>
      </trkpt>
      <trkpt lat="48.01895" lon="6.85132">
        <ele>897.5</ele>
        <time>2022-05-28T14:16:45Z</time>
      </trkpt>
      <trkpt lat="48.01899" lon="6.85118">
        <ele>899.6</ele>
        <time>2022-05-28T14:16:50Z</time>
      </trkpt>
      <trkpt lat="48.01907" lon="6.8511">
        <ele>900</ele>
        <time>2022-05-28T14:16:55Z</time>
      </trkpt>
      <trkpt lat="48.01917" lon="6.85103">
        <ele>900.1</ele>
        <time>2022-05-28T14:17:00Z</time>
      </trkpt>
      <trkpt lat="48.01926" lon="6.85099">
        <ele>901.2</ele>
        <time>2022-05-28T14:17:05Z</time>
      </trkpt>
      <trkpt lat="48.01935" lon="6.85096">
        <ele>901.1</ele>
        <time>2022-05-28T14:17:11Z</time>
      </trkpt>
      <trkpt lat="48.01946" lon="6.85091">
        <ele>900.8</ele>
        <time>2022-05-28T14:17:17Z</time>
      </trkpt>
      <trkpt lat="48.01954" lon="6.85084">
        <ele>902.4</ele>
        <time>2022-05-28T14:17:21Z</time>
      </trkpt>
      <trkpt lat="48.01962" lon="6.85078">
        <ele>902.3</ele>
        <time>2022-05-28T14:17:25Z</time>
      </trkpt>
      <trkpt lat="48.0197" lon="6.85073">
        <ele>903.2</ele>
        <time>2022-05-28T14:17:29Z</time>
      </trkpt>
      <trkpt lat="48.01981" lon="6.85066">
        <ele>903.1</ele>
        <time>2022-05-28T14:17:33Z</time>
      </trkpt>
      <trkpt lat="48.01991" lon="6.85061">
        <ele>905.5</ele>
        <time>2022-05-28T14:17:37Z</time>
      </trkpt>
      <trkpt lat="48.02" lon="6.85049">
        <ele>905</ele>
        <time>2022-05-28T14:17:41Z</time>
      </trkpt>
      <trkpt lat="48.02006" lon="6.85037">
        <ele>906.9</ele>
        <time>2022-05-28T14:17:45Z</time>
      </trkpt>
      <trkpt lat="48.0201" lon="6.85025">
        <ele>907.5</ele>
        <time>2022-05-28T14:17:49Z</time>
      </trkpt>
      <trkpt lat="48.02014" lon="6.8501">
        <ele>908.6</ele>
        <time>2022-05-28T14:17:55Z</time>
      </trkpt>
      <trkpt lat="48.02024" lon="6.85006">
        <ele>907.6</ele>
        <time>2022-05-28T14:18:00Z</time>
      </trkpt>
      <trkpt lat="48.02033" lon="6.85007">
        <ele>908.9</ele>
        <time>2022-05-28T14:18:04Z</time>
      </trkpt>
      <trkpt lat="48.02043" lon="6.85012">
        <ele>907.9</ele>
        <time>2022-05-28T14:18:08Z</time>
      </trkpt>
      <trkpt lat="48.02053" lon="6.85013">
        <ele>908.1</ele>
        <time>2022-05-28T14:18:12Z</time>
      </trkpt>
      <trkpt lat="48.02062" lon="6.85013">
        <ele>907.7</ele>
        <time>2022-05-28T14:18:17Z</time>
      </trkpt>
      <trkpt lat="48.02072" lon="6.85023">
        <ele>906.8</ele>
        <time>2022-05-28T14:18:21Z</time>
      </trkpt>
      <trkpt lat="48.02081" lon="6.85032">
        <ele>905.8</ele>
        <time>2022-05-28T14:18:24Z</time>
      </trkpt>
      <trkpt lat="48.02091" lon="6.85041">
        <ele>904.2</ele>
        <time>2022-05-28T14:18:27Z</time>
      </trkpt>
      <trkpt lat="48.02099" lon="6.85047">
        <ele>905.4</ele>
        <time>2022-05-28T14:18:29Z</time>
      </trkpt>
      <trkpt lat="48.02108" lon="6.8505">
        <ele>904.8</ele>
        <time>2022-05-28T14:18:31Z</time>
      </trkpt>
      <trkpt lat="48.02117" lon="6.85052">
        <ele>907.5</ele>
        <time>2022-05-28T14:18:33Z</time>
      </trkpt>
      <trkpt lat="48.02129" lon="6.85052">
        <ele>903.1</ele>
        <time>2022-05-28T14:18:36Z</time>
      </trkpt>
      <trkpt lat="48.02141" lon="6.85051">
        <ele>902</ele>
        <time>2022-05-28T14:18:39Z</time>
      </trkpt>
      <trkpt lat="48.02152" lon="6.85051">
        <ele>901</ele>
        <time>2022-05-28T14:18:41Z</time>
      </trkpt>
      <trkpt lat="48.02163" lon="6.85051">
        <ele>903.7</ele>
        <time>2022-05-28T14:18:43Z</time>
      </trkpt>
      <trkpt lat="48.02172" lon="6.85043">
        <ele>899.6</ele>
        <time>2022-05-28T14:18:46Z</time>
      </trkpt>
      <trkpt lat="48.02184" lon="6.85034">
        <ele>899.1</ele>
        <time>2022-05-28T14:18:49Z</time>
      </trkpt>
      <trkpt lat="48.02195" lon="6.85024">
        <ele>899.5</ele>
        <time>2022-05-28T14:18:51Z</time>
      </trkpt>
      <trkpt lat="48.02205" lon="6.85015">
        <ele>901.9</ele>
        <time>2022-05-28T14:18:53Z</time>
      </trkpt>
      <trkpt lat="48.02213" lon="6.85007">
        <ele>902.7</ele>
        <time>2022-05-28T14:18:55Z</time>
      </trkpt>
      <trkpt lat="48.02222" lon="6.84997">
        <ele>903</ele>
        <time>2022-05-28T14:18:58Z</time>
      </trkpt>
      <trkpt lat="48.02231" lon="6.84988">
        <ele>905.5</ele>
        <time>2022-05-28T14:19:01Z</time>
      </trkpt>
      <trkpt lat="48.0224" lon="6.8498">
        <ele>905.1</ele>
        <time>2022-05-28T14:19:04Z</time>
      </trkpt>
      <trkpt lat="48.02246" lon="6.84969">
        <ele>907.4</ele>
        <time>2022-05-28T14:19:09Z</time>
      </trkpt>
      <trkpt lat="48.02255" lon="6.84962">
        <ele>907.3</ele>
        <time>2022-05-28T14:19:12Z</time>
      </trkpt>
      <trkpt lat="48.02262" lon="6.84954">
        <ele>910.1</ele>
        <time>2022-05-28T14:19:16Z</time>
      </trkpt>
      <trkpt lat="48.02269" lon="6.84942">
        <ele>912.2</ele>
        <time>2022-05-28T14:19:22Z</time>
      </trkpt>
      <trkpt lat="48.02276" lon="6.8493">
        <ele>912.8</ele>
        <time>2022-05-28T14:19:26Z</time>
      </trkpt>
      <trkpt lat="48.02279" lon="6.84915">
        <ele>912.4</ele>
        <time>2022-05-28T14:19:31Z</time>
      </trkpt>
      <trkpt lat="48.02281" lon="6.84901">
        <ele>913.8</ele>
        <time>2022-05-28T14:19:35Z</time>
      </trkpt>
      <trkpt lat="48.02283" lon="6.84885">
        <ele>914.9</ele>
        <time>2022-05-28T14:19:39Z</time>
      </trkpt>
      <trkpt lat="48.02288" lon="6.84871">
        <ele>915</ele>
        <time>2022-05-28T14:19:44Z</time>
      </trkpt>
      <trkpt lat="48.02292" lon="6.84859">
        <ele>915.3</ele>
        <time>2022-05-28T14:19:48Z</time>
      </trkpt>
      <trkpt lat="48.02299" lon="6.8485">
        <ele>916.5</ele>
        <time>2022-05-28T14:19:52Z</time>
      </trkpt>
      <trkpt lat="48.02309" lon="6.8484">
        <ele>917</ele>
        <time>2022-05-28T14:19:56Z</time>
      </trkpt>
      <trkpt lat="48.02317" lon="6.84825">
        <ele>916.9</ele>
        <time>2022-05-28T14:20:01Z</time>
      </trkpt>
      <trkpt lat="48.02324" lon="6.84815">
        <ele>918.4</ele>
        <time>2022-05-28T14:20:04Z</time>
      </trkpt>
      <trkpt lat="48.02329" lon="6.84801">
        <ele>919.2</ele>
        <time>2022-05-28T14:20:08Z</time>
      </trkpt>
      <trkpt lat="48.02333" lon="6.84789">
        <ele>917.2</ele>
        <time>2022-05-28T14:20:11Z</time>
      </trkpt>
      <trkpt lat="48.02335" lon="6.84775">
        <ele>914.9</ele>
        <time>2022-05-28T14:20:14Z</time>
      </trkpt>
      <trkpt lat="48.02339" lon="6.84762">
        <ele>916.7</ele>
        <time>2022-05-28T14:20:16Z</time>
      </trkpt>
      <trkpt lat="48.02343" lon="6.84747">
        <ele>917</ele>
        <time>2022-05-28T14:20:19Z</time>
      </trkpt>
      <trkpt lat="48.02347" lon="6.84735">
        <ele>917.5</ele>
        <time>2022-05-28T14:20:22Z</time>
      </trkpt>
      <trkpt lat="48.02355" lon="6.84723">
        <ele>918.2</ele>
        <time>2022-05-28T14:20:26Z</time>
      </trkpt>
      <trkpt lat="48.02362" lon="6.84713">
        <ele>920.5</ele>
        <time>2022-05-28T14:20:30Z</time>
      </trkpt>
      <trkpt lat="48.02368" lon="6.847">
        <ele>919.4</ele>
        <time>2022-05-28T14:20:35Z</time>
      </trkpt>
      <trkpt lat="48.02375" lon="6.84687">
        <ele>921.7</ele>
        <time>2022-05-28T14:20:40Z</time>
      </trkpt>
      <trkpt lat="48.02381" lon="6.84677">
        <ele>923.4</ele>
        <time>2022-05-28T14:20:44Z</time>
      </trkpt>
      <trkpt lat="48.02386" lon="6.84665">
        <ele>924.3</ele>
        <time>2022-05-28T14:20:49Z</time>
      </trkpt>
      <trkpt lat="48.02395" lon="6.84655">
        <ele>926.8</ele>
        <time>2022-05-28T14:20:55Z</time>
      </trkpt>
      <trkpt lat="48.02401" lon="6.84643">
        <ele>927.4</ele>
        <time>2022-05-28T14:21:01Z</time>
      </trkpt>
      <trkpt lat="48.02404" lon="6.8463">
        <ele>928.8</ele>
        <time>2022-05-28T14:21:07Z</time>
      </trkpt>
      <trkpt lat="48.02408" lon="6.84616">
        <ele>929.4</ele>
        <time>2022-05-28T14:21:13Z</time>
      </trkpt>
      <trkpt lat="48.02413" lon="6.84602">
        <ele>930.5</ele>
        <time>2022-05-28T14:21:19Z</time>
      </trkpt>
      <trkpt lat="48.0242" lon="6.84592">
        <ele>932.2</ele>
        <time>2022-05-28T14:21:25Z</time>
      </trkpt>
      <trkpt lat="48.02427" lon="6.84582">
        <ele>932.3</ele>
        <time>2022-05-28T14:21:31Z</time>
      </trkpt>
      <trkpt lat="48.02433" lon="6.84571">
        <ele>933.5</ele>
        <time>2022-05-28T14:21:37Z</time>
      </trkpt>
      <trkpt lat="48.02439" lon="6.84559">
        <ele>934.9</ele>
        <time>2022-05-28T14:21:44Z</time>
      </trkpt>
      <trkpt lat="48.02439" lon="6.84545">
        <ele>937.7</ele>
        <time>2022-05-28T14:21:51Z</time>
      </trkpt>
      <trkpt lat="48.02433" lon="6.84533">
        <ele>940.1</ele>
        <time>2022-05-28T14:21:58Z</time>
      </trkpt>
      <trkpt lat="48.02424" lon="6.84532">
        <ele>940.8</ele>
        <time>2022-05-28T14:22:05Z</time>
      </trkpt>
      <trkpt lat="48.02415" lon="6.84535">
        <ele>942.7</ele>
        <time>2022-05-28T14:22:12Z</time>
      </trkpt>
      <trkpt lat="48.02406" lon="6.84539">
        <ele>943.4</ele>
        <time>2022-05-28T14:22:18Z</time>
      </trkpt>
      <trkpt lat="48.02397" lon="6.84543">
        <ele>944.3</ele>
        <time>2022-05-28T14:22:23Z</time>
      </trkpt>
      <trkpt lat="48.02388" lon="6.84546">
        <ele>945.8</ele>
        <time>2022-05-28T14:22:28Z</time>
      </trkpt>
      <trkpt lat="48.02379" lon="6.8455">
        <ele>946</ele>
        <time>2022-05-28T14:22:33Z</time>
      </trkpt>
      <trkpt lat="48.0237" lon="6.84557">
        <ele>947.6</ele>
        <time>2022-05-28T14:22:38Z</time>
      </trkpt>
      <trkpt lat="48.0236" lon="6.84562">
        <ele>947.6</ele>
        <time>2022-05-28T14:22:43Z</time>
      </trkpt>
      <trkpt lat="48.02351" lon="6.84566">
        <ele>947.5</ele>
        <time>2022-05-28T14:22:47Z</time>
      </trkpt>
      <trkpt lat="48.02342" lon="6.84573">
        <ele>947.8</ele>
        <time>2022-05-28T14:22:52Z</time>
      </trkpt>
      <trkpt lat="48.02332" lon="6.84578">
        <ele>948.5</ele>
        <time>2022-05-28T14:22:56Z</time>
      </trkpt>
      <trkpt lat="48.02321" lon="6.84584">
        <ele>948.6</ele>
        <time>2022-05-28T14:23:01Z</time>
      </trkpt>
      <trkpt lat="48.02312" lon="6.8459">
        <ele>949</ele>
        <time>2022-05-28T14:23:05Z</time>
      </trkpt>
      <trkpt lat="48.02302" lon="6.84598">
        <ele>950.1</ele>
        <time>2022-05-28T14:23:10Z</time>
      </trkpt>
      <trkpt lat="48.02294" lon="6.84602">
        <ele>950.4</ele>
        <time>2022-05-28T14:23:17Z</time>
      </trkpt>
      <trkpt lat="48.023" lon="6.84609">
        <ele>950.8</ele>
        <time>2022-05-28T14:23:31Z</time>
      </trkpt>
      <trkpt lat="48.02302" lon="6.84609">
        <ele>950.9</ele>
        <time>2022-05-28T14:23:37Z</time>
      </trkpt>
      <trkpt lat="48.02303" lon="6.84608">
        <ele>950.9</ele>
        <time>2022-05-28T14:24:03Z</time>
      </trkpt>
      <trkpt lat="48.02303" lon="6.84607">
        <ele>950.9</ele>
        <time>2022-05-28T14:24:49Z</time>
      </trkpt>
      <trkpt lat="48.02302" lon="6.84606">
        <ele>950.5</ele>
        <time>2022-05-28T14:25:34Z</time>
      </trkpt>
      <trkpt lat="48.02302" lon="6.84605">
        <ele>950.7</ele>
        <time>2022-05-28T14:25:36Z</time>
      </trkpt>
      <trkpt lat="48.02301" lon="6.84605">
        <ele>951.2</ele>
        <time>2022-05-28T14:25:43Z</time>
      </trkpt>
      <trkpt lat="48.02292" lon="6.84609">
        <ele>950.8</ele>
        <time>2022-05-28T14:25:49Z</time>
      </trkpt>
      <trkpt lat="48.02282" lon="6.84616">
        <ele>951.6</ele>
        <time>2022-05-28T14:25:54Z</time>
      </trkpt>
      <trkpt lat="48.02274" lon="6.84621">
        <ele>950.4</ele>
        <time>2022-05-28T14:25:57Z</time>
      </trkpt>
      <trkpt lat="48.02264" lon="6.84625">
        <ele>950.7</ele>
        <time>2022-05-28T14:26:00Z</time>
      </trkpt>
      <trkpt lat="48.02255" lon="6.8463">
        <ele>950.9</ele>
        <time>2022-05-28T14:26:03Z</time>
      </trkpt>
      <trkpt lat="48.02246" lon="6.84634">
        <ele>951.1</ele>
        <time>2022-05-28T14:26:06Z</time>
      </trkpt>
      <trkpt lat="48.02238" lon="6.84642">
        <ele>951.4</ele>
        <time>2022-05-28T14:26:09Z</time>
      </trkpt>
      <trkpt lat="48.02228" lon="6.84651">
        <ele>951.2</ele>
        <time>2022-05-28T14:26:12Z</time>
      </trkpt>
      <trkpt lat="48.0222" lon="6.84658">
        <ele>952.6</ele>
        <time>2022-05-28T14:26:15Z</time>
      </trkpt>
      <trkpt lat="48.02213" lon="6.84669">
        <ele>951.5</ele>
        <time>2022-05-28T14:26:18Z</time>
      </trkpt>
      <trkpt lat="48.02206" lon="6.84677">
        <ele>952.3</ele>
        <time>2022-05-28T14:26:21Z</time>
      </trkpt>
      <trkpt lat="48.02198" lon="6.84687">
        <ele>954.2</ele>
        <time>2022-05-28T14:26:25Z</time>
      </trkpt>
      <trkpt lat="48.02192" lon="6.84698">
        <ele>956.3</ele>
        <time>2022-05-28T14:26:29Z</time>
      </trkpt>
      <trkpt lat="48.02184" lon="6.84708">
        <ele>955.6</ele>
        <time>2022-05-28T14:26:33Z</time>
      </trkpt>
      <trkpt lat="48.02177" lon="6.84717">
        <ele>954.9</ele>
        <time>2022-05-28T14:26:37Z</time>
      </trkpt>
      <trkpt lat="48.02168" lon="6.84724">
        <ele>953.8</ele>
        <time>2022-05-28T14:26:41Z</time>
      </trkpt>
      <trkpt lat="48.02157" lon="6.8473">
        <ele>955.4</ele>
        <time>2022-05-28T14:26:45Z</time>
      </trkpt>
      <trkpt lat="48.02146" lon="6.84739">
        <ele>951.2</ele>
        <time>2022-05-28T14:26:48Z</time>
      </trkpt>
      <trkpt lat="48.02136" lon="6.84745">
        <ele>951.7</ele>
        <time>2022-05-28T14:26:50Z</time>
      </trkpt>
      <trkpt lat="48.02125" lon="6.84752">
        <ele>950.1</ele>
        <time>2022-05-28T14:26:52Z</time>
      </trkpt>
      <trkpt lat="48.02113" lon="6.84763">
        <ele>950</ele>
        <time>2022-05-28T14:26:54Z</time>
      </trkpt>
      <trkpt lat="48.021" lon="6.84773">
        <ele>945.3</ele>
        <time>2022-05-28T14:26:56Z</time>
      </trkpt>
      <trkpt lat="48.02088" lon="6.8478">
        <ele>946.3</ele>
        <time>2022-05-28T14:26:58Z</time>
      </trkpt>
      <trkpt lat="48.02075" lon="6.84774">
        <ele>946.9</ele>
        <time>2022-05-28T14:27:01Z</time>
      </trkpt>
      <trkpt lat="48.02067" lon="6.84762">
        <ele>944.9</ele>
        <time>2022-05-28T14:27:03Z</time>
      </trkpt>
      <trkpt lat="48.02058" lon="6.8474">
        <ele>943.3</ele>
        <time>2022-05-28T14:27:05Z</time>
      </trkpt>
      <trkpt lat="48.02055" lon="6.84727">
        <ele>942.2</ele>
        <time>2022-05-28T14:27:06Z</time>
      </trkpt>
      <trkpt lat="48.02053" lon="6.84714">
        <ele>941</ele>
        <time>2022-05-28T14:27:07Z</time>
      </trkpt>
      <trkpt lat="48.02052" lon="6.847">
        <ele>941.7</ele>
        <time>2022-05-28T14:27:08Z</time>
      </trkpt>
      <trkpt lat="48.02052" lon="6.84675">
        <ele>939</ele>
        <time>2022-05-28T14:27:10Z</time>
      </trkpt>
      <trkpt lat="48.02053" lon="6.84653">
        <ele>940</ele>
        <time>2022-05-28T14:27:12Z</time>
      </trkpt>
      <trkpt lat="48.0205" lon="6.84635">
        <ele>939.6</ele>
        <time>2022-05-28T14:27:14Z</time>
      </trkpt>
      <trkpt lat="48.02042" lon="6.84623">
        <ele>940</ele>
        <time>2022-05-28T14:27:16Z</time>
      </trkpt>
      <trkpt lat="48.02031" lon="6.84618">
        <ele>941</ele>
        <time>2022-05-28T14:27:18Z</time>
      </trkpt>
      <trkpt lat="48.0202" lon="6.84619">
        <ele>942.4</ele>
        <time>2022-05-28T14:27:21Z</time>
      </trkpt>
      <trkpt lat="48.02009" lon="6.84626">
        <ele>944.9</ele>
        <time>2022-05-28T14:27:24Z</time>
      </trkpt>
      <trkpt lat="48.02" lon="6.8463">
        <ele>945.3</ele>
        <time>2022-05-28T14:27:27Z</time>
      </trkpt>
      <trkpt lat="48.0199" lon="6.84633">
        <ele>947.4</ele>
        <time>2022-05-28T14:27:32Z</time>
      </trkpt>
      <trkpt lat="48.01981" lon="6.84637">
        <ele>948.4</ele>
        <time>2022-05-28T14:27:38Z</time>
      </trkpt>
      <trkpt lat="48.0197" lon="6.8464">
        <ele>950.5</ele>
        <time>2022-05-28T14:27:42Z</time>
      </trkpt>
      <trkpt lat="48.01961" lon="6.8464">
        <ele>950.1</ele>
        <time>2022-05-28T14:27:46Z</time>
      </trkpt>
      <trkpt lat="48.01952" lon="6.84641">
        <ele>950.6</ele>
        <time>2022-05-28T14:27:50Z</time>
      </trkpt>
      <trkpt lat="48.01943" lon="6.84644">
        <ele>952</ele>
        <time>2022-05-28T14:27:55Z</time>
      </trkpt>
      <trkpt lat="48.01933" lon="6.84646">
        <ele>954.8</ele>
        <time>2022-05-28T14:28:00Z</time>
      </trkpt>
      <trkpt lat="48.01923" lon="6.84645">
        <ele>954</ele>
        <time>2022-05-28T14:28:06Z</time>
      </trkpt>
      <trkpt lat="48.01913" lon="6.84644">
        <ele>954.7</ele>
        <time>2022-05-28T14:28:12Z</time>
      </trkpt>
      <trkpt lat="48.01903" lon="6.84644">
        <ele>956.1</ele>
        <time>2022-05-28T14:28:17Z</time>
      </trkpt>
      <trkpt lat="48.01893" lon="6.8464">
        <ele>957.3</ele>
        <time>2022-05-28T14:28:25Z</time>
      </trkpt>
      <trkpt lat="48.01884" lon="6.84636">
        <ele>958.6</ele>
        <time>2022-05-28T14:28:30Z</time>
      </trkpt>
      <trkpt lat="48.01875" lon="6.84629">
        <ele>959.5</ele>
        <time>2022-05-28T14:28:34Z</time>
      </trkpt>
      <trkpt lat="48.01867" lon="6.84619">
        <ele>960.5</ele>
        <time>2022-05-28T14:28:39Z</time>
      </trkpt>
      <trkpt lat="48.01862" lon="6.84605">
        <ele>961.4</ele>
        <time>2022-05-28T14:28:45Z</time>
      </trkpt>
      <trkpt lat="48.01858" lon="6.84592">
        <ele>963.2</ele>
        <time>2022-05-28T14:28:51Z</time>
      </trkpt>
      <trkpt lat="48.01851" lon="6.84583">
        <ele>963.8</ele>
        <time>2022-05-28T14:28:56Z</time>
      </trkpt>
      <trkpt lat="48.01844" lon="6.84575">
        <ele>965.8</ele>
        <time>2022-05-28T14:29:01Z</time>
      </trkpt>
      <trkpt lat="48.01835" lon="6.84567">
        <ele>965.5</ele>
        <time>2022-05-28T14:29:07Z</time>
      </trkpt>
      <trkpt lat="48.01826" lon="6.84561">
        <ele>966.5</ele>
        <time>2022-05-28T14:29:12Z</time>
      </trkpt>
      <trkpt lat="48.01816" lon="6.84559">
        <ele>967.4</ele>
        <time>2022-05-28T14:29:17Z</time>
      </trkpt>
      <trkpt lat="48.01807" lon="6.84554">
        <ele>967.9</ele>
        <time>2022-05-28T14:29:22Z</time>
      </trkpt>
      <trkpt lat="48.01798" lon="6.84552">
        <ele>969.7</ele>
        <time>2022-05-28T14:29:26Z</time>
      </trkpt>
      <trkpt lat="48.01788" lon="6.84551">
        <ele>969.8</ele>
        <time>2022-05-28T14:29:30Z</time>
      </trkpt>
      <trkpt lat="48.01779" lon="6.84551">
        <ele>970.1</ele>
        <time>2022-05-28T14:29:33Z</time>
      </trkpt>
      <trkpt lat="48.0177" lon="6.84555">
        <ele>969.7</ele>
        <time>2022-05-28T14:29:36Z</time>
      </trkpt>
      <trkpt lat="48.01759" lon="6.84561">
        <ele>968.8</ele>
        <time>2022-05-28T14:29:39Z</time>
      </trkpt>
      <trkpt lat="48.01747" lon="6.84568">
        <ele>967.8</ele>
        <time>2022-05-28T14:29:42Z</time>
      </trkpt>
      <trkpt lat="48.01735" lon="6.84575">
        <ele>967.5</ele>
        <time>2022-05-28T14:29:45Z</time>
      </trkpt>
      <trkpt lat="48.01726" lon="6.84577">
        <ele>967.3</ele>
        <time>2022-05-28T14:29:47Z</time>
      </trkpt>
      <trkpt lat="48.01714" lon="6.8457">
        <ele>966.9</ele>
        <time>2022-05-28T14:29:49Z</time>
      </trkpt>
      <trkpt lat="48.01706" lon="6.84559">
        <ele>967.8</ele>
        <time>2022-05-28T14:29:51Z</time>
      </trkpt>
      <trkpt lat="48.01698" lon="6.8455">
        <ele>966.2</ele>
        <time>2022-05-28T14:29:53Z</time>
      </trkpt>
      <trkpt lat="48.01687" lon="6.84545">
        <ele>964.7</ele>
        <time>2022-05-28T14:29:55Z</time>
      </trkpt>
      <trkpt lat="48.01674" lon="6.84544">
        <ele>963.3</ele>
        <time>2022-05-28T14:29:57Z</time>
      </trkpt>
      <trkpt lat="48.01662" lon="6.84543">
        <ele>961.7</ele>
        <time>2022-05-28T14:29:59Z</time>
      </trkpt>
      <trkpt lat="48.01652" lon="6.84543">
        <ele>962.2</ele>
        <time>2022-05-28T14:30:01Z</time>
      </trkpt>
      <trkpt lat="48.0164" lon="6.84544">
        <ele>963</ele>
        <time>2022-05-28T14:30:03Z</time>
      </trkpt>
      <trkpt lat="48.0163" lon="6.84548">
        <ele>961.1</ele>
        <time>2022-05-28T14:30:05Z</time>
      </trkpt>
      <trkpt lat="48.01618" lon="6.84554">
        <ele>960.2</ele>
        <time>2022-05-28T14:30:07Z</time>
      </trkpt>
      <trkpt lat="48.01606" lon="6.84559">
        <ele>961.2</ele>
        <time>2022-05-28T14:30:09Z</time>
      </trkpt>
      <trkpt lat="48.01596" lon="6.84563">
        <ele>961.5</ele>
        <time>2022-05-28T14:30:11Z</time>
      </trkpt>
      <trkpt lat="48.01586" lon="6.84565">
        <ele>961.8</ele>
        <time>2022-05-28T14:30:13Z</time>
      </trkpt>
      <trkpt lat="48.01577" lon="6.84569">
        <ele>962.5</ele>
        <time>2022-05-28T14:30:15Z</time>
      </trkpt>
      <trkpt lat="48.01568" lon="6.84573">
        <ele>963.5</ele>
        <time>2022-05-28T14:30:17Z</time>
      </trkpt>
      <trkpt lat="48.01556" lon="6.84581">
        <ele>965.3</ele>
        <time>2022-05-28T14:30:20Z</time>
      </trkpt>
      <trkpt lat="48.01545" lon="6.84588">
        <ele>964.6</ele>
        <time>2022-05-28T14:30:23Z</time>
      </trkpt>
      <trkpt lat="48.01536" lon="6.84597">
        <ele>966.8</ele>
        <time>2022-05-28T14:30:27Z</time>
      </trkpt>
      <trkpt lat="48.01527" lon="6.84603">
        <ele>967.1</ele>
        <time>2022-05-28T14:30:30Z</time>
      </trkpt>
      <trkpt lat="48.01517" lon="6.8461">
        <ele>967.5</ele>
        <time>2022-05-28T14:30:34Z</time>
      </trkpt>
      <trkpt lat="48.01507" lon="6.84616">
        <ele>969</ele>
        <time>2022-05-28T14:30:39Z</time>
      </trkpt>
      <trkpt lat="48.01499" lon="6.84624">
        <ele>969.9</ele>
        <time>2022-05-28T14:30:46Z</time>
      </trkpt>
      <trkpt lat="48.01488" lon="6.8463">
        <ele>970.9</ele>
        <time>2022-05-28T14:30:52Z</time>
      </trkpt>
      <trkpt lat="48.01479" lon="6.84633">
        <ele>972.6</ele>
        <time>2022-05-28T14:30:55Z</time>
      </trkpt>
      <trkpt lat="48.01469" lon="6.84635">
        <ele>973.9</ele>
        <time>2022-05-28T14:30:59Z</time>
      </trkpt>
      <trkpt lat="48.01459" lon="6.84639">
        <ele>974.7</ele>
        <time>2022-05-28T14:31:04Z</time>
      </trkpt>
      <trkpt lat="48.01451" lon="6.84647">
        <ele>975.1</ele>
        <time>2022-05-28T14:31:08Z</time>
      </trkpt>
      <trkpt lat="48.01443" lon="6.84655">
        <ele>974.8</ele>
        <time>2022-05-28T14:31:12Z</time>
      </trkpt>
      <trkpt lat="48.01436" lon="6.84669">
        <ele>976.1</ele>
        <time>2022-05-28T14:31:16Z</time>
      </trkpt>
      <trkpt lat="48.0143" lon="6.84682">
        <ele>976.2</ele>
        <time>2022-05-28T14:31:21Z</time>
      </trkpt>
      <trkpt lat="48.01424" lon="6.84694">
        <ele>976.9</ele>
        <time>2022-05-28T14:31:26Z</time>
      </trkpt>
      <trkpt lat="48.0142" lon="6.84681">
        <ele>975.6</ele>
        <time>2022-05-28T14:31:40Z</time>
      </trkpt>
      <trkpt lat="48.01414" lon="6.84667">
        <ele>977.3</ele>
        <time>2022-05-28T14:31:45Z</time>
      </trkpt>
      <trkpt lat="48.01409" lon="6.84653">
        <ele>975.5</ele>
        <time>2022-05-28T14:31:50Z</time>
      </trkpt>
      <trkpt lat="48.01405" lon="6.84641">
        <ele>976.3</ele>
        <time>2022-05-28T14:31:58Z</time>
      </trkpt>
      <trkpt lat="48.014" lon="6.84633">
        <ele>976</ele>
        <time>2022-05-28T14:32:09Z</time>
      </trkpt>
      <trkpt lat="48.01399" lon="6.84632">
        <ele>976</ele>
        <time>2022-05-28T14:32:26Z</time>
      </trkpt>
      <trkpt lat="48.01398" lon="6.84634">
        <ele>976.2</ele>
        <time>2022-05-28T14:32:34Z</time>
      </trkpt>
      <trkpt lat="48.01397" lon="6.84634">
        <ele>975.7</ele>
        <time>2022-05-28T14:32:37Z</time>
      </trkpt>
      <trkpt lat="48.01396" lon="6.84633">
        <ele>976</ele>
        <time>2022-05-28T14:32:47Z</time>
      </trkpt>
      <trkpt lat="48.01396" lon="6.84634">
        <ele>976.2</ele>
        <time>2022-05-28T14:32:50Z</time>
      </trkpt>
      <trkpt lat="48.01401" lon="6.84647">
        <ele>976.6</ele>
        <time>2022-05-28T14:33:10Z</time>
      </trkpt>
      <trkpt lat="48.01408" lon="6.84659">
        <ele>975.6</ele>
        <time>2022-05-28T14:33:15Z</time>
      </trkpt>
      <trkpt lat="48.01414" lon="6.84674">
        <ele>976.7</ele>
        <time>2022-05-28T14:33:19Z</time>
      </trkpt>
      <trkpt lat="48.0142" lon="6.84686">
        <ele>977.6</ele>
        <time>2022-05-28T14:33:23Z</time>
      </trkpt>
      <trkpt lat="48.01426" lon="6.84699">
        <ele>976.6</ele>
        <time>2022-05-28T14:33:26Z</time>
      </trkpt>
      <trkpt lat="48.01424" lon="6.84714">
        <ele>978.1</ele>
        <time>2022-05-28T14:33:30Z</time>
      </trkpt>
      <trkpt lat="48.01418" lon="6.84728">
        <ele>978.3</ele>
        <time>2022-05-28T14:33:34Z</time>
      </trkpt>
      <trkpt lat="48.01415" lon="6.84741">
        <ele>979.1</ele>
        <time>2022-05-28T14:33:42Z</time>
      </trkpt>
      <trkpt lat="48.0141" lon="6.84754">
        <ele>978</ele>
        <time>2022-05-28T14:34:52Z</time>
      </trkpt>
      <trkpt lat="48.01402" lon="6.84762">
        <ele>977.7</ele>
        <time>2022-05-28T14:34:56Z</time>
      </trkpt>
      <trkpt lat="48.01394" lon="6.84773">
        <ele>979.4</ele>
        <time>2022-05-28T14:34:59Z</time>
      </trkpt>
      <trkpt lat="48.01386" lon="6.84782">
        <ele>979.6</ele>
        <time>2022-05-28T14:35:02Z</time>
      </trkpt>
      <trkpt lat="48.01378" lon="6.84792">
        <ele>979.8</ele>
        <time>2022-05-28T14:35:06Z</time>
      </trkpt>
      <trkpt lat="48.01371" lon="6.84803">
        <ele>981</ele>
        <time>2022-05-28T14:35:10Z</time>
      </trkpt>
      <trkpt lat="48.01365" lon="6.84814">
        <ele>982.3</ele>
        <time>2022-05-28T14:35:15Z</time>
      </trkpt>
      <trkpt lat="48.01358" lon="6.84826">
        <ele>982.4</ele>
        <time>2022-05-28T14:35:21Z</time>
      </trkpt>
      <trkpt lat="48.01356" lon="6.84839">
        <ele>983.3</ele>
        <time>2022-05-28T14:35:26Z</time>
      </trkpt>
      <trkpt lat="48.0135" lon="6.8485">
        <ele>983.4</ele>
        <time>2022-05-28T14:35:31Z</time>
      </trkpt>
      <trkpt lat="48.01342" lon="6.84858">
        <ele>981</ele>
        <time>2022-05-28T14:35:35Z</time>
      </trkpt>
      <trkpt lat="48.0133" lon="6.84867">
        <ele>980.1</ele>
        <time>2022-05-28T14:35:39Z</time>
      </trkpt>
      <trkpt lat="48.01319" lon="6.84874">
        <ele>979.8</ele>
        <time>2022-05-28T14:35:42Z</time>
      </trkpt>
      <trkpt lat="48.0131" lon="6.84876">
        <ele>980.9</ele>
        <time>2022-05-28T14:35:45Z</time>
      </trkpt>
      <trkpt lat="48.013" lon="6.8488">
        <ele>981.9</ele>
        <time>2022-05-28T14:35:50Z</time>
      </trkpt>
      <trkpt lat="48.01291" lon="6.8489">
        <ele>982.2</ele>
        <time>2022-05-28T14:35:56Z</time>
      </trkpt>
      <trkpt lat="48.01282" lon="6.84894">
        <ele>983.2</ele>
        <time>2022-05-28T14:35:59Z</time>
      </trkpt>
      <trkpt lat="48.01273" lon="6.849">
        <ele>983.7</ele>
        <time>2022-05-28T14:36:05Z</time>
      </trkpt>
      <trkpt lat="48.01263" lon="6.849">
        <ele>984.9</ele>
        <time>2022-05-28T14:36:14Z</time>
      </trkpt>
      <trkpt lat="48.01257" lon="6.84887">
        <ele>984.6</ele>
        <time>2022-05-28T14:36:27Z</time>
      </trkpt>
      <trkpt lat="48.01253" lon="6.84872">
        <ele>986.5</ele>
        <time>2022-05-28T14:36:33Z</time>
      </trkpt>
      <trkpt lat="48.01248" lon="6.8486">
        <ele>986.8</ele>
        <time>2022-05-28T14:36:38Z</time>
      </trkpt>
      <trkpt lat="48.01243" lon="6.84848">
        <ele>988.3</ele>
        <time>2022-05-28T14:36:43Z</time>
      </trkpt>
      <trkpt lat="48.01238" lon="6.84837">
        <ele>989.5</ele>
        <time>2022-05-28T14:36:51Z</time>
      </trkpt>
      <trkpt lat="48.01231" lon="6.84827">
        <ele>990.3</ele>
        <time>2022-05-28T14:36:56Z</time>
      </trkpt>
      <trkpt lat="48.01224" lon="6.84818">
        <ele>992.1</ele>
        <time>2022-05-28T14:37:04Z</time>
      </trkpt>
      <trkpt lat="48.0122" lon="6.84814">
        <ele>993.3</ele>
        <time>2022-05-28T14:37:10Z</time>
      </trkpt>
      <trkpt lat="48.01211" lon="6.8481">
        <ele>995.5</ele>
        <time>2022-05-28T14:37:21Z</time>
      </trkpt>
      <trkpt lat="48.01201" lon="6.84809">
        <ele>997.5</ele>
        <time>2022-05-28T14:37:31Z</time>
      </trkpt>
      <trkpt lat="48.01192" lon="6.84808">
        <ele>999.3</ele>
        <time>2022-05-28T14:37:43Z</time>
      </trkpt>
      <trkpt lat="48.01184" lon="6.84808">
        <ele>1001.6</ele>
        <time>2022-05-28T14:37:55Z</time>
      </trkpt>
      <trkpt lat="48.01183" lon="6.84807">
        <ele>1001.8</ele>
        <time>2022-05-28T14:37:58Z</time>
      </trkpt>
      <trkpt lat="48.01174" lon="6.84808">
        <ele>1002.5</ele>
        <time>2022-05-28T14:38:04Z</time>
      </trkpt>
      <trkpt lat="48.01163" lon="6.84806">
        <ele>1005.7</ele>
        <time>2022-05-28T14:38:10Z</time>
      </trkpt>
      <trkpt lat="48.01153" lon="6.84809">
        <ele>1006.1</ele>
        <time>2022-05-28T14:38:15Z</time>
      </trkpt>
      <trkpt lat="48.01144" lon="6.84808">
        <ele>1006.4</ele>
        <time>2022-05-28T14:38:22Z</time>
      </trkpt>
      <trkpt lat="48.01144" lon="6.84809">
        <ele>1006.4</ele>
        <time>2022-05-28T14:38:25Z</time>
      </trkpt>
      <trkpt lat="48.01144" lon="6.84808">
        <ele>1006</ele>
        <time>2022-05-28T14:38:54Z</time>
      </trkpt>
      <trkpt lat="48.01144" lon="6.84808">
        <ele>1005.8</ele>
        <time>2022-05-28T14:38:56Z</time>
      </trkpt>
      <trkpt lat="48.01143" lon="6.84807">
        <ele>1006.1</ele>
        <time>2022-05-28T14:39:04Z</time>
      </trkpt>
      <trkpt lat="48.01143" lon="6.84807">
        <ele>1005.9</ele>
        <time>2022-05-28T14:39:44Z</time>
      </trkpt>
      <trkpt lat="48.01143" lon="6.84808">
        <ele>1005.4</ele>
        <time>2022-05-28T14:39:58Z</time>
      </trkpt>
      <trkpt lat="48.01137" lon="6.84799">
        <ele>1005.6</ele>
        <time>2022-05-28T14:40:15Z</time>
      </trkpt>
      <trkpt lat="48.01136" lon="6.848">
        <ele>1005.4</ele>
        <time>2022-05-28T14:40:36Z</time>
      </trkpt>
      <trkpt lat="48.01144" lon="6.84812">
        <ele>1003.2</ele>
        <time>2022-05-28T14:42:09Z</time>
      </trkpt>
      <trkpt lat="48.01149" lon="6.84822">
        <ele>1004.9</ele>
        <time>2022-05-28T14:42:14Z</time>
      </trkpt>
      <trkpt lat="48.01157" lon="6.84831">
        <ele>1005.2</ele>
        <time>2022-05-28T14:42:20Z</time>
      </trkpt>
      <trkpt lat="48.01167" lon="6.84834">
        <ele>1008.1</ele>
        <time>2022-05-28T14:42:28Z</time>
      </trkpt>
      <trkpt lat="48.01176" lon="6.84837">
        <ele>1009.6</ele>
        <time>2022-05-28T14:42:35Z</time>
      </trkpt>
      <trkpt lat="48.01184" lon="6.84842">
        <ele>1008.5</ele>
        <time>2022-05-28T14:42:40Z</time>
      </trkpt>
      <trkpt lat="48.01194" lon="6.84852">
        <ele>1007.4</ele>
        <time>2022-05-28T14:42:45Z</time>
      </trkpt>
      <trkpt lat="48.012" lon="6.84863">
        <ele>1007.4</ele>
        <time>2022-05-28T14:42:48Z</time>
      </trkpt>
      <trkpt lat="48.01205" lon="6.84876">
        <ele>1007.6</ele>
        <time>2022-05-28T14:42:52Z</time>
      </trkpt>
      <trkpt lat="48.0121" lon="6.84888">
        <ele>1008.8</ele>
        <time>2022-05-28T14:42:56Z</time>
      </trkpt>
      <trkpt lat="48.0121" lon="6.84903">
        <ele>1008.6</ele>
        <time>2022-05-28T14:43:00Z</time>
      </trkpt>
      <trkpt lat="48.01213" lon="6.84918">
        <ele>1010</ele>
        <time>2022-05-28T14:43:04Z</time>
      </trkpt>
      <trkpt lat="48.01217" lon="6.84932">
        <ele>1009.5</ele>
        <time>2022-05-28T14:43:08Z</time>
      </trkpt>
      <trkpt lat="48.01221" lon="6.84948">
        <ele>1009.1</ele>
        <time>2022-05-28T14:43:11Z</time>
      </trkpt>
      <trkpt lat="48.01224" lon="6.84966">
        <ele>1008.7</ele>
        <time>2022-05-28T14:43:14Z</time>
      </trkpt>
      <trkpt lat="48.01224" lon="6.84984">
        <ele>1008.3</ele>
        <time>2022-05-28T14:43:17Z</time>
      </trkpt>
      <trkpt lat="48.01224" lon="6.85001">
        <ele>1009.6</ele>
        <time>2022-05-28T14:43:20Z</time>
      </trkpt>
      <trkpt lat="48.01232" lon="6.8501">
        <ele>1008.1</ele>
        <time>2022-05-28T14:43:23Z</time>
      </trkpt>
      <trkpt lat="48.01243" lon="6.85008">
        <ele>1007.8</ele>
        <time>2022-05-28T14:43:26Z</time>
      </trkpt>
      <trkpt lat="48.01252" lon="6.85002">
        <ele>1008.4</ele>
        <time>2022-05-28T14:43:29Z</time>
      </trkpt>
      <trkpt lat="48.01261" lon="6.85">
        <ele>1008.3</ele>
        <time>2022-05-28T14:43:32Z</time>
      </trkpt>
      <trkpt lat="48.01271" lon="6.85004">
        <ele>1008.6</ele>
        <time>2022-05-28T14:43:35Z</time>
      </trkpt>
      <trkpt lat="48.01283" lon="6.85014">
        <ele>1008.1</ele>
        <time>2022-05-28T14:43:38Z</time>
      </trkpt>
      <trkpt lat="48.01291" lon="6.85023">
        <ele>1007.2</ele>
        <time>2022-05-28T14:43:40Z</time>
      </trkpt>
      <trkpt lat="48.01302" lon="6.85031">
        <ele>1005.6</ele>
        <time>2022-05-28T14:43:43Z</time>
      </trkpt>
      <trkpt lat="48.01313" lon="6.85029">
        <ele>1005.7</ele>
        <time>2022-05-28T14:43:47Z</time>
      </trkpt>
      <trkpt lat="48.01324" lon="6.85021">
        <ele>1003.9</ele>
        <time>2022-05-28T14:43:51Z</time>
      </trkpt>
      <trkpt lat="48.01334" lon="6.85014">
        <ele>1003.5</ele>
        <time>2022-05-28T14:43:54Z</time>
      </trkpt>
      <trkpt lat="48.01344" lon="6.85008">
        <ele>1003.2</ele>
        <time>2022-05-28T14:43:56Z</time>
      </trkpt>
      <trkpt lat="48.01354" lon="6.85001">
        <ele>1003.4</ele>
        <time>2022-05-28T14:43:58Z</time>
      </trkpt>
      <trkpt lat="48.01366" lon="6.84999">
        <ele>1001.5</ele>
        <time>2022-05-28T14:44:01Z</time>
      </trkpt>
      <trkpt lat="48.0138" lon="6.85003">
        <ele>1003.9</ele>
        <time>2022-05-28T14:44:04Z</time>
      </trkpt>
      <trkpt lat="48.01391" lon="6.85007">
        <ele>1003.6</ele>
        <time>2022-05-28T14:44:07Z</time>
      </trkpt>
      <trkpt lat="48.014" lon="6.85013">
        <ele>1004.9</ele>
        <time>2022-05-28T14:44:10Z</time>
      </trkpt>
      <trkpt lat="48.01407" lon="6.85021">
        <ele>1006.8</ele>
        <time>2022-05-28T14:44:14Z</time>
      </trkpt>
      <trkpt lat="48.01415" lon="6.85031">
        <ele>1006.7</ele>
        <time>2022-05-28T14:44:17Z</time>
      </trkpt>
      <trkpt lat="48.01423" lon="6.85041">
        <ele>1006.2</ele>
        <time>2022-05-28T14:44:20Z</time>
      </trkpt>
      <trkpt lat="48.0143" lon="6.85051">
        <ele>1008.7</ele>
        <time>2022-05-28T14:44:23Z</time>
      </trkpt>
      <trkpt lat="48.01439" lon="6.85056">
        <ele>1010.4</ele>
        <time>2022-05-28T14:44:28Z</time>
      </trkpt>
      <trkpt lat="48.01449" lon="6.85061">
        <ele>1011.4</ele>
        <time>2022-05-28T14:44:33Z</time>
      </trkpt>
      <trkpt lat="48.01458" lon="6.85066">
        <ele>1013.4</ele>
        <time>2022-05-28T14:44:37Z</time>
      </trkpt>
      <trkpt lat="48.01457" lon="6.8508">
        <ele>1013.6</ele>
        <time>2022-05-28T14:44:44Z</time>
      </trkpt>
      <trkpt lat="48.01463" lon="6.85092">
        <ele>1013.3</ele>
        <time>2022-05-28T14:45:07Z</time>
      </trkpt>
      <trkpt lat="48.01469" lon="6.85102">
        <ele>1014.4</ele>
        <time>2022-05-28T14:45:12Z</time>
      </trkpt>
      <trkpt lat="48.01471" lon="6.85115">
        <ele>1015.9</ele>
        <time>2022-05-28T14:45:18Z</time>
      </trkpt>
      <trkpt lat="48.0147" lon="6.8513">
        <ele>1017.5</ele>
        <time>2022-05-28T14:45:25Z</time>
      </trkpt>
      <trkpt lat="48.01471" lon="6.85143">
        <ele>1019.6</ele>
        <time>2022-05-28T14:45:31Z</time>
      </trkpt>
      <trkpt lat="48.01468" lon="6.85157">
        <ele>1021.6</ele>
        <time>2022-05-28T14:45:39Z</time>
      </trkpt>
      <trkpt lat="48.01465" lon="6.85171">
        <ele>1022.7</ele>
        <time>2022-05-28T14:45:46Z</time>
      </trkpt>
      <trkpt lat="48.01466" lon="6.85185">
        <ele>1024.2</ele>
        <time>2022-05-28T14:45:55Z</time>
      </trkpt>
      <trkpt lat="48.01469" lon="6.852">
        <ele>1026.6</ele>
        <time>2022-05-28T14:46:03Z</time>
      </trkpt>
      <trkpt lat="48.01473" lon="6.85211">
        <ele>1028.4</ele>
        <time>2022-05-28T14:46:09Z</time>
      </trkpt>
      <trkpt lat="48.01473" lon="6.85225">
        <ele>1028.6</ele>
        <time>2022-05-28T14:46:15Z</time>
      </trkpt>
      <trkpt lat="48.01465" lon="6.85235">
        <ele>1029.5</ele>
        <time>2022-05-28T14:46:22Z</time>
      </trkpt>
      <trkpt lat="48.01455" lon="6.85235">
        <ele>1031.4</ele>
        <time>2022-05-28T14:46:29Z</time>
      </trkpt>
      <trkpt lat="48.01447" lon="6.85243">
        <ele>1032.8</ele>
        <time>2022-05-28T14:46:37Z</time>
      </trkpt>
      <trkpt lat="48.01439" lon="6.85249">
        <ele>1034.8</ele>
        <time>2022-05-28T14:46:44Z</time>
      </trkpt>
      <trkpt lat="48.0143" lon="6.85257">
        <ele>1035.5</ele>
        <time>2022-05-28T14:46:51Z</time>
      </trkpt>
      <trkpt lat="48.01422" lon="6.85261">
        <ele>1036</ele>
        <time>2022-05-28T14:46:56Z</time>
      </trkpt>
      <trkpt lat="48.01412" lon="6.85264">
        <ele>1037.2</ele>
        <time>2022-05-28T14:47:02Z</time>
      </trkpt>
      <trkpt lat="48.01402" lon="6.85263">
        <ele>1037.8</ele>
        <time>2022-05-28T14:47:07Z</time>
      </trkpt>
      <trkpt lat="48.01391" lon="6.85264">
        <ele>1038.1</ele>
        <time>2022-05-28T14:47:12Z</time>
      </trkpt>
      <trkpt lat="48.01381" lon="6.85266">
        <ele>1038.4</ele>
        <time>2022-05-28T14:47:16Z</time>
      </trkpt>
      <trkpt lat="48.01373" lon="6.8527">
        <ele>1037.7</ele>
        <time>2022-05-28T14:47:21Z</time>
      </trkpt>
      <trkpt lat="48.01363" lon="6.85271">
        <ele>1037.8</ele>
        <time>2022-05-28T14:47:27Z</time>
      </trkpt>
      <trkpt lat="48.01354" lon="6.85271">
        <ele>1038.8</ele>
        <time>2022-05-28T14:47:31Z</time>
      </trkpt>
      <trkpt lat="48.01345" lon="6.85274">
        <ele>1037.9</ele>
        <time>2022-05-28T14:47:36Z</time>
      </trkpt>
      <trkpt lat="48.01335" lon="6.85274">
        <ele>1037.9</ele>
        <time>2022-05-28T14:47:41Z</time>
      </trkpt>
      <trkpt lat="48.01325" lon="6.85275">
        <ele>1038.5</ele>
        <time>2022-05-28T14:47:47Z</time>
      </trkpt>
      <trkpt lat="48.01313" lon="6.85276">
        <ele>1038.7</ele>
        <time>2022-05-28T14:47:51Z</time>
      </trkpt>
      <trkpt lat="48.01304" lon="6.85275">
        <ele>1038.7</ele>
        <time>2022-05-28T14:47:55Z</time>
      </trkpt>
      <trkpt lat="48.01294" lon="6.85272">
        <ele>1038.8</ele>
        <time>2022-05-28T14:47:59Z</time>
      </trkpt>
      <trkpt lat="48.01283" lon="6.85269">
        <ele>1038.6</ele>
        <time>2022-05-28T14:48:03Z</time>
      </trkpt>
      <trkpt lat="48.01272" lon="6.85268">
        <ele>1038.5</ele>
        <time>2022-05-28T14:48:07Z</time>
      </trkpt>
      <trkpt lat="48.01263" lon="6.85267">
        <ele>1038.6</ele>
        <time>2022-05-28T14:48:10Z</time>
      </trkpt>
      <trkpt lat="48.01254" lon="6.85267">
        <ele>1038.7</ele>
        <time>2022-05-28T14:48:13Z</time>
      </trkpt>
      <trkpt lat="48.01243" lon="6.85264">
        <ele>1039.3</ele>
        <time>2022-05-28T14:48:17Z</time>
      </trkpt>
      <trkpt lat="48.01233" lon="6.85261">
        <ele>1040</ele>
        <time>2022-05-28T14:48:22Z</time>
      </trkpt>
      <trkpt lat="48.01222" lon="6.85261">
        <ele>1040.8</ele>
        <time>2022-05-28T14:48:27Z</time>
      </trkpt>
      <trkpt lat="48.01211" lon="6.85258">
        <ele>1041.2</ele>
        <time>2022-05-28T14:48:32Z</time>
      </trkpt>
      <trkpt lat="48.01201" lon="6.85254">
        <ele>1041.3</ele>
        <time>2022-05-28T14:48:35Z</time>
      </trkpt>
      <trkpt lat="48.01192" lon="6.85249">
        <ele>1040.5</ele>
        <time>2022-05-28T14:48:38Z</time>
      </trkpt>
      <trkpt lat="48.01183" lon="6.85241">
        <ele>1039</ele>
        <time>2022-05-28T14:48:41Z</time>
      </trkpt>
      <trkpt lat="48.01173" lon="6.85234">
        <ele>1037.6</ele>
        <time>2022-05-28T14:48:44Z</time>
      </trkpt>
      <trkpt lat="48.01162" lon="6.85231">
        <ele>1037.1</ele>
        <time>2022-05-28T14:48:48Z</time>
      </trkpt>
      <trkpt lat="48.01152" lon="6.85231">
        <ele>1035.7</ele>
        <time>2022-05-28T14:48:52Z</time>
      </trkpt>
      <trkpt lat="48.01143" lon="6.85234">
        <ele>1034</ele>
        <time>2022-05-28T14:48:56Z</time>
      </trkpt>
      <trkpt lat="48.0113" lon="6.85237">
        <ele>1032</ele>
        <time>2022-05-28T14:49:00Z</time>
      </trkpt>
      <trkpt lat="48.01119" lon="6.85238">
        <ele>1029.8</ele>
        <time>2022-05-28T14:49:03Z</time>
      </trkpt>
      <trkpt lat="48.01112" lon="6.85246">
        <ele>1029.5</ele>
        <time>2022-05-28T14:49:07Z</time>
      </trkpt>
      <trkpt lat="48.01107" lon="6.85259">
        <ele>1029</ele>
        <time>2022-05-28T14:49:11Z</time>
      </trkpt>
      <trkpt lat="48.01104" lon="6.85267">
        <ele>1028.9</ele>
        <time>2022-05-28T14:49:16Z</time>
      </trkpt>
      <trkpt lat="48.01104" lon="6.85266">
        <ele>1029.4</ele>
        <time>2022-05-28T14:49:19Z</time>
      </trkpt>
      <trkpt lat="48.01103" lon="6.85266">
        <ele>1026.4</ele>
        <time>2022-05-28T14:51:41Z</time>
      </trkpt>
      <trkpt lat="48.011" lon="6.85282">
        <ele>1024.9</ele>
        <time>2022-05-28T14:51:48Z</time>
      </trkpt>
      <trkpt lat="48.01097" lon="6.85295">
        <ele>1025.1</ele>
        <time>2022-05-28T14:51:51Z</time>
      </trkpt>
      <trkpt lat="48.01094" lon="6.85309">
        <ele>1025.4</ele>
        <time>2022-05-28T14:51:55Z</time>
      </trkpt>
      <trkpt lat="48.01089" lon="6.85321">
        <ele>1024.7</ele>
        <time>2022-05-28T14:51:59Z</time>
      </trkpt>
      <trkpt lat="48.01085" lon="6.85337">
        <ele>1023.1</ele>
        <time>2022-05-28T14:52:03Z</time>
      </trkpt>
      <trkpt lat="48.01081" lon="6.85349">
        <ele>1018.9</ele>
        <time>2022-05-28T14:52:05Z</time>
      </trkpt>
      <trkpt lat="48.01076" lon="6.85364">
        <ele>1020.7</ele>
        <time>2022-05-28T14:52:07Z</time>
      </trkpt>
      <trkpt lat="48.0107" lon="6.8538">
        <ele>1020.7</ele>
        <time>2022-05-28T14:52:09Z</time>
      </trkpt>
      <trkpt lat="48.01061" lon="6.85391">
        <ele>1019</ele>
        <time>2022-05-28T14:52:11Z</time>
      </trkpt>
      <trkpt lat="48.01051" lon="6.85398">
        <ele>1019.4</ele>
        <time>2022-05-28T14:52:13Z</time>
      </trkpt>
      <trkpt lat="48.01043" lon="6.85408">
        <ele>1018.8</ele>
        <time>2022-05-28T14:52:15Z</time>
      </trkpt>
      <trkpt lat="48.01037" lon="6.85422">
        <ele>1018.5</ele>
        <time>2022-05-28T14:52:17Z</time>
      </trkpt>
      <trkpt lat="48.01034" lon="6.85436">
        <ele>1019.6</ele>
        <time>2022-05-28T14:52:19Z</time>
      </trkpt>
      <trkpt lat="48.01032" lon="6.8545">
        <ele>1019.4</ele>
        <time>2022-05-28T14:52:21Z</time>
      </trkpt>
      <trkpt lat="48.0103" lon="6.85466">
        <ele>1021.3</ele>
        <time>2022-05-28T14:52:24Z</time>
      </trkpt>
      <trkpt lat="48.01028" lon="6.85483">
        <ele>1020.1</ele>
        <time>2022-05-28T14:52:27Z</time>
      </trkpt>
      <trkpt lat="48.01026" lon="6.855">
        <ele>1022</ele>
        <time>2022-05-28T14:52:30Z</time>
      </trkpt>
      <trkpt lat="48.01025" lon="6.85519">
        <ele>1021.2</ele>
        <time>2022-05-28T14:52:33Z</time>
      </trkpt>
      <trkpt lat="48.01023" lon="6.85531">
        <ele>1021.7</ele>
        <time>2022-05-28T14:52:35Z</time>
      </trkpt>
      <trkpt lat="48.01017" lon="6.85549">
        <ele>1019.6</ele>
        <time>2022-05-28T14:52:38Z</time>
      </trkpt>
      <trkpt lat="48.01011" lon="6.85566">
        <ele>1020.2</ele>
        <time>2022-05-28T14:52:41Z</time>
      </trkpt>
      <trkpt lat="48.01008" lon="6.8558">
        <ele>1022.2</ele>
        <time>2022-05-28T14:52:44Z</time>
      </trkpt>
      <trkpt lat="48.01006" lon="6.85598">
        <ele>1021.1</ele>
        <time>2022-05-28T14:52:48Z</time>
      </trkpt>
      <trkpt lat="48.01003" lon="6.85616">
        <ele>1019</ele>
        <time>2022-05-28T14:52:51Z</time>
      </trkpt>
      <trkpt lat="48.01002" lon="6.8563">
        <ele>1021.4</ele>
        <time>2022-05-28T14:52:53Z</time>
      </trkpt>
      <trkpt lat="48.01002" lon="6.85648">
        <ele>1019.6</ele>
        <time>2022-05-28T14:52:56Z</time>
      </trkpt>
      <trkpt lat="48.01003" lon="6.85664">
        <ele>1019.2</ele>
        <time>2022-05-28T14:52:59Z</time>
      </trkpt>
      <trkpt lat="48.01006" lon="6.85683">
        <ele>1016.5</ele>
        <time>2022-05-28T14:53:02Z</time>
      </trkpt>
      <trkpt lat="48.01007" lon="6.85697">
        <ele>1016.6</ele>
        <time>2022-05-28T14:53:04Z</time>
      </trkpt>
      <trkpt lat="48.0101" lon="6.85714">
        <ele>1017.4</ele>
        <time>2022-05-28T14:53:07Z</time>
      </trkpt>
      <trkpt lat="48.01012" lon="6.85728">
        <ele>1018.7</ele>
        <time>2022-05-28T14:53:12Z</time>
      </trkpt>
      <trkpt lat="48.01016" lon="6.85743">
        <ele>1017.2</ele>
        <time>2022-05-28T14:53:17Z</time>
      </trkpt>
      <trkpt lat="48.01018" lon="6.85759">
        <ele>1016.8</ele>
        <time>2022-05-28T14:53:21Z</time>
      </trkpt>
      <trkpt lat="48.01017" lon="6.85773">
        <ele>1015.6</ele>
        <time>2022-05-28T14:53:24Z</time>
      </trkpt>
      <trkpt lat="48.01012" lon="6.8579">
        <ele>1013.4</ele>
        <time>2022-05-28T14:53:27Z</time>
      </trkpt>
      <trkpt lat="48.01011" lon="6.85804">
        <ele>1012.4</ele>
        <time>2022-05-28T14:53:29Z</time>
      </trkpt>
      <trkpt lat="48.01013" lon="6.85822">
        <ele>1011</ele>
        <time>2022-05-28T14:53:31Z</time>
      </trkpt>
      <trkpt lat="48.01013" lon="6.8584">
        <ele>1010.4</ele>
        <time>2022-05-28T14:53:33Z</time>
      </trkpt>
      <trkpt lat="48.01011" lon="6.85857">
        <ele>1010.8</ele>
        <time>2022-05-28T14:53:35Z</time>
      </trkpt>
      <trkpt lat="48.01007" lon="6.85873">
        <ele>1010</ele>
        <time>2022-05-28T14:53:37Z</time>
      </trkpt>
      <trkpt lat="48.01004" lon="6.85888">
        <ele>1008</ele>
        <time>2022-05-28T14:53:39Z</time>
      </trkpt>
      <trkpt lat="48.01002" lon="6.85904">
        <ele>1006.8</ele>
        <time>2022-05-28T14:53:41Z</time>
      </trkpt>
      <trkpt lat="48.01001" lon="6.85921">
        <ele>1005.7</ele>
        <time>2022-05-28T14:53:43Z</time>
      </trkpt>
      <trkpt lat="48.01003" lon="6.85937">
        <ele>1002.1</ele>
        <time>2022-05-28T14:53:45Z</time>
      </trkpt>
      <trkpt lat="48.01009" lon="6.85954">
        <ele>1000.6</ele>
        <time>2022-05-28T14:53:47Z</time>
      </trkpt>
      <trkpt lat="48.01017" lon="6.85973">
        <ele>1001.4</ele>
        <time>2022-05-28T14:53:49Z</time>
      </trkpt>
      <trkpt lat="48.01028" lon="6.85991">
        <ele>1001.2</ele>
        <time>2022-05-28T14:53:51Z</time>
      </trkpt>
      <trkpt lat="48.01039" lon="6.8601">
        <ele>995.9</ele>
        <time>2022-05-28T14:53:53Z</time>
      </trkpt>
      <trkpt lat="48.01046" lon="6.86032">
        <ele>994.3</ele>
        <time>2022-05-28T14:53:55Z</time>
      </trkpt>
      <trkpt lat="48.01055" lon="6.86051">
        <ele>992.3</ele>
        <time>2022-05-28T14:53:57Z</time>
      </trkpt>
      <trkpt lat="48.01065" lon="6.86068">
        <ele>995.5</ele>
        <time>2022-05-28T14:53:59Z</time>
      </trkpt>
      <trkpt lat="48.01077" lon="6.86082">
        <ele>993.6</ele>
        <time>2022-05-28T14:54:01Z</time>
      </trkpt>
      <trkpt lat="48.01089" lon="6.86092">
        <ele>993.9</ele>
        <time>2022-05-28T14:54:03Z</time>
      </trkpt>
      <trkpt lat="48.01101" lon="6.86095">
        <ele>994.7</ele>
        <time>2022-05-28T14:54:05Z</time>
      </trkpt>
      <trkpt lat="48.01113" lon="6.86096">
        <ele>996.2</ele>
        <time>2022-05-28T14:54:07Z</time>
      </trkpt>
      <trkpt lat="48.01124" lon="6.86096">
        <ele>997.2</ele>
        <time>2022-05-28T14:54:09Z</time>
      </trkpt>
      <trkpt lat="48.01134" lon="6.86095">
        <ele>996.7</ele>
        <time>2022-05-28T14:54:11Z</time>
      </trkpt>
      <trkpt lat="48.01145" lon="6.86095">
        <ele>996.2</ele>
        <time>2022-05-28T14:54:13Z</time>
      </trkpt>
      <trkpt lat="48.01155" lon="6.86097">
        <ele>995.7</ele>
        <time>2022-05-28T14:54:15Z</time>
      </trkpt>
      <trkpt lat="48.01165" lon="6.861">
        <ele>997.5</ele>
        <time>2022-05-28T14:54:17Z</time>
      </trkpt>
      <trkpt lat="48.01174" lon="6.86105">
        <ele>997.9</ele>
        <time>2022-05-28T14:54:19Z</time>
      </trkpt>
      <trkpt lat="48.01183" lon="6.86109">
        <ele>998.4</ele>
        <time>2022-05-28T14:54:21Z</time>
      </trkpt>
      <trkpt lat="48.01194" lon="6.86114">
        <ele>998.7</ele>
        <time>2022-05-28T14:54:24Z</time>
      </trkpt>
      <trkpt lat="48.01203" lon="6.86119">
        <ele>1000.1</ele>
        <time>2022-05-28T14:54:27Z</time>
      </trkpt>
      <trkpt lat="48.01214" lon="6.86127">
        <ele>1000.8</ele>
        <time>2022-05-28T14:54:30Z</time>
      </trkpt>
      <trkpt lat="48.01225" lon="6.86133">
        <ele>1000.3</ele>
        <time>2022-05-28T14:54:33Z</time>
      </trkpt>
      <trkpt lat="48.01236" lon="6.86136">
        <ele>999.2</ele>
        <time>2022-05-28T14:54:36Z</time>
      </trkpt>
      <trkpt lat="48.01246" lon="6.86138">
        <ele>1001.5</ele>
        <time>2022-05-28T14:54:39Z</time>
      </trkpt>
      <trkpt lat="48.01255" lon="6.86139">
        <ele>1004</ele>
        <time>2022-05-28T14:54:43Z</time>
      </trkpt>
      <trkpt lat="48.01265" lon="6.86139">
        <ele>1004.7</ele>
        <time>2022-05-28T14:54:48Z</time>
      </trkpt>
      <trkpt lat="48.01274" lon="6.86137">
        <ele>1004.9</ele>
        <time>2022-05-28T14:54:52Z</time>
      </trkpt>
      <trkpt lat="48.01285" lon="6.86136">
        <ele>1004.9</ele>
        <time>2022-05-28T14:54:57Z</time>
      </trkpt>
      <trkpt lat="48.01295" lon="6.8614">
        <ele>1006.4</ele>
        <time>2022-05-28T14:55:01Z</time>
      </trkpt>
      <trkpt lat="48.01299" lon="6.86155">
        <ele>1005.2</ele>
        <time>2022-05-28T14:55:05Z</time>
      </trkpt>
      <trkpt lat="48.01303" lon="6.8617">
        <ele>1003.6</ele>
        <time>2022-05-28T14:55:08Z</time>
      </trkpt>
      <trkpt lat="48.01309" lon="6.86188">
        <ele>1003.4</ele>
        <time>2022-05-28T14:55:11Z</time>
      </trkpt>
      <trkpt lat="48.01314" lon="6.862">
        <ele>1003.1</ele>
        <time>2022-05-28T14:55:13Z</time>
      </trkpt>
      <trkpt lat="48.01322" lon="6.86212">
        <ele>1001</ele>
        <time>2022-05-28T14:55:15Z</time>
      </trkpt>
      <trkpt lat="48.01332" lon="6.86222">
        <ele>1000.6</ele>
        <time>2022-05-28T14:55:17Z</time>
      </trkpt>
      <trkpt lat="48.01341" lon="6.86233">
        <ele>1001.8</ele>
        <time>2022-05-28T14:55:19Z</time>
      </trkpt>
      <trkpt lat="48.01349" lon="6.86244">
        <ele>1000.3</ele>
        <time>2022-05-28T14:55:21Z</time>
      </trkpt>
      <trkpt lat="48.01355" lon="6.86256">
        <ele>999.5</ele>
        <time>2022-05-28T14:55:23Z</time>
      </trkpt>
      <trkpt lat="48.01361" lon="6.86271">
        <ele>1001.8</ele>
        <time>2022-05-28T14:55:26Z</time>
      </trkpt>
      <trkpt lat="48.01366" lon="6.86283">
        <ele>1001.9</ele>
        <time>2022-05-28T14:55:36Z</time>
      </trkpt>
      <trkpt lat="48.01369" lon="6.86281">
        <ele>1001.6</ele>
        <time>2022-05-28T14:55:44Z</time>
      </trkpt>
      <trkpt lat="48.0137" lon="6.86281">
        <ele>1001</ele>
        <time>2022-05-28T14:56:32Z</time>
      </trkpt>
      <trkpt lat="48.01369" lon="6.86281">
        <ele>999</ele>
        <time>2022-05-28T14:58:32Z</time>
      </trkpt>
      <trkpt lat="48.0137" lon="6.86282">
        <ele>999.1</ele>
        <time>2022-05-28T14:58:42Z</time>
      </trkpt>
      <trkpt lat="48.01378" lon="6.86291">
        <ele>995.9</ele>
        <time>2022-05-28T14:58:46Z</time>
      </trkpt>
      <trkpt lat="48.01387" lon="6.86299">
        <ele>993.7</ele>
        <time>2022-05-28T14:58:48Z</time>
      </trkpt>
      <trkpt lat="48.01395" lon="6.86312">
        <ele>996.3</ele>
        <time>2022-05-28T14:58:50Z</time>
      </trkpt>
      <trkpt lat="48.01402" lon="6.86329">
        <ele>995</ele>
        <time>2022-05-28T14:58:52Z</time>
      </trkpt>
      <trkpt lat="48.01409" lon="6.86346">
        <ele>992</ele>
        <time>2022-05-28T14:58:54Z</time>
      </trkpt>
      <trkpt lat="48.01416" lon="6.86362">
        <ele>992.3</ele>
        <time>2022-05-28T14:58:56Z</time>
      </trkpt>
      <trkpt lat="48.01427" lon="6.86372">
        <ele>990.2</ele>
        <time>2022-05-28T14:58:58Z</time>
      </trkpt>
      <trkpt lat="48.01441" lon="6.86371">
        <ele>987.5</ele>
        <time>2022-05-28T14:59:00Z</time>
      </trkpt>
      <trkpt lat="48.01455" lon="6.86364">
        <ele>983.3</ele>
        <time>2022-05-28T14:59:02Z</time>
      </trkpt>
      <trkpt lat="48.01469" lon="6.86356">
        <ele>984.7</ele>
        <time>2022-05-28T14:59:04Z</time>
      </trkpt>
      <trkpt lat="48.01484" lon="6.86351">
        <ele>987.8</ele>
        <time>2022-05-28T14:59:06Z</time>
      </trkpt>
      <trkpt lat="48.015" lon="6.8635">
        <ele>990.9</ele>
        <time>2022-05-28T14:59:08Z</time>
      </trkpt>
      <trkpt lat="48.01513" lon="6.86351">
        <ele>984.8</ele>
        <time>2022-05-28T14:59:10Z</time>
      </trkpt>
      <trkpt lat="48.0152" lon="6.8636">
        <ele>982.9</ele>
        <time>2022-05-28T14:59:12Z</time>
      </trkpt>
      <trkpt lat="48.01518" lon="6.86374">
        <ele>982.9</ele>
        <time>2022-05-28T14:59:14Z</time>
      </trkpt>
      <trkpt lat="48.01511" lon="6.86387">
        <ele>982.1</ele>
        <time>2022-05-28T14:59:16Z</time>
      </trkpt>
      <trkpt lat="48.01503" lon="6.86399">
        <ele>983.2</ele>
        <time>2022-05-28T14:59:18Z</time>
      </trkpt>
      <trkpt lat="48.01495" lon="6.86409">
        <ele>982.1</ele>
        <time>2022-05-28T14:59:20Z</time>
      </trkpt>
      <trkpt lat="48.01488" lon="6.8642">
        <ele>981.7</ele>
        <time>2022-05-28T14:59:22Z</time>
      </trkpt>
      <trkpt lat="48.01481" lon="6.8643">
        <ele>982.5</ele>
        <time>2022-05-28T14:59:24Z</time>
      </trkpt>
      <trkpt lat="48.01476" lon="6.86442">
        <ele>982.4</ele>
        <time>2022-05-28T14:59:26Z</time>
      </trkpt>
      <trkpt lat="48.01474" lon="6.86456">
        <ele>981.3</ele>
        <time>2022-05-28T14:59:28Z</time>
      </trkpt>
      <trkpt lat="48.01475" lon="6.86475">
        <ele>982.2</ele>
        <time>2022-05-28T14:59:30Z</time>
      </trkpt>
      <trkpt lat="48.01476" lon="6.86495">
        <ele>979</ele>
        <time>2022-05-28T14:59:32Z</time>
      </trkpt>
      <trkpt lat="48.01474" lon="6.86513">
        <ele>974.9</ele>
        <time>2022-05-28T14:59:34Z</time>
      </trkpt>
      <trkpt lat="48.01478" lon="6.86528">
        <ele>975.3</ele>
        <time>2022-05-28T14:59:36Z</time>
      </trkpt>
      <trkpt lat="48.01489" lon="6.86534">
        <ele>973.9</ele>
        <time>2022-05-28T14:59:38Z</time>
      </trkpt>
      <trkpt lat="48.01502" lon="6.86538">
        <ele>972.7</ele>
        <time>2022-05-28T14:59:40Z</time>
      </trkpt>
      <trkpt lat="48.0151" lon="6.86551">
        <ele>974.9</ele>
        <time>2022-05-28T14:59:42Z</time>
      </trkpt>
      <trkpt lat="48.01513" lon="6.86569">
        <ele>975.6</ele>
        <time>2022-05-28T14:59:44Z</time>
      </trkpt>
      <trkpt lat="48.01514" lon="6.86587">
        <ele>976</ele>
        <time>2022-05-28T14:59:46Z</time>
      </trkpt>
      <trkpt lat="48.01515" lon="6.86605">
        <ele>973.2</ele>
        <time>2022-05-28T14:59:48Z</time>
      </trkpt>
      <trkpt lat="48.01517" lon="6.86624">
        <ele>972.3</ele>
        <time>2022-05-28T14:59:50Z</time>
      </trkpt>
      <trkpt lat="48.01519" lon="6.86642">
        <ele>972.6</ele>
        <time>2022-05-28T14:59:52Z</time>
      </trkpt>
      <trkpt lat="48.01521" lon="6.8666">
        <ele>972.7</ele>
        <time>2022-05-28T14:59:54Z</time>
      </trkpt>
      <trkpt lat="48.01522" lon="6.86678">
        <ele>973.5</ele>
        <time>2022-05-28T14:59:56Z</time>
      </trkpt>
      <trkpt lat="48.0152" lon="6.86696">
        <ele>972.2</ele>
        <time>2022-05-28T14:59:58Z</time>
      </trkpt>
      <trkpt lat="48.01519" lon="6.86712">
        <ele>971.9</ele>
        <time>2022-05-28T15:00:00Z</time>
      </trkpt>
      <trkpt lat="48.01518" lon="6.86727">
        <ele>973.8</ele>
        <time>2022-05-28T15:00:02Z</time>
      </trkpt>
      <trkpt lat="48.01516" lon="6.86745">
        <ele>976.8</ele>
        <time>2022-05-28T15:00:05Z</time>
      </trkpt>
      <trkpt lat="48.01516" lon="6.86763">
        <ele>977.1</ele>
        <time>2022-05-28T15:00:08Z</time>
      </trkpt>
      <trkpt lat="48.01517" lon="6.86776">
        <ele>977.4</ele>
        <time>2022-05-28T15:00:10Z</time>
      </trkpt>
      <trkpt lat="48.0152" lon="6.8679">
        <ele>976.9</ele>
        <time>2022-05-28T15:00:12Z</time>
      </trkpt>
      <trkpt lat="48.01524" lon="6.86808">
        <ele>975.8</ele>
        <time>2022-05-28T15:00:15Z</time>
      </trkpt>
      <trkpt lat="48.01528" lon="6.86821">
        <ele>975.9</ele>
        <time>2022-05-28T15:00:17Z</time>
      </trkpt>
      <trkpt lat="48.01533" lon="6.86835">
        <ele>974.3</ele>
        <time>2022-05-28T15:00:19Z</time>
      </trkpt>
      <trkpt lat="48.01539" lon="6.86849">
        <ele>972.8</ele>
        <time>2022-05-28T15:00:21Z</time>
      </trkpt>
      <trkpt lat="48.01546" lon="6.86862">
        <ele>974.4</ele>
        <time>2022-05-28T15:00:23Z</time>
      </trkpt>
      <trkpt lat="48.01554" lon="6.86873">
        <ele>974.3</ele>
        <time>2022-05-28T15:00:25Z</time>
      </trkpt>
      <trkpt lat="48.01563" lon="6.86879">
        <ele>974.8</ele>
        <time>2022-05-28T15:00:27Z</time>
      </trkpt>
      <trkpt lat="48.01572" lon="6.86879">
        <ele>974.7</ele>
        <time>2022-05-28T15:00:29Z</time>
      </trkpt>
      <trkpt lat="48.01582" lon="6.86876">
        <ele>974.5</ele>
        <time>2022-05-28T15:00:31Z</time>
      </trkpt>
      <trkpt lat="48.01593" lon="6.8687">
        <ele>972.1</ele>
        <time>2022-05-28T15:00:33Z</time>
      </trkpt>
      <trkpt lat="48.01604" lon="6.86866">
        <ele>968.6</ele>
        <time>2022-05-28T15:00:35Z</time>
      </trkpt>
      <trkpt lat="48.01615" lon="6.86865">
        <ele>967.1</ele>
        <time>2022-05-28T15:00:37Z</time>
      </trkpt>
      <trkpt lat="48.01627" lon="6.86869">
        <ele>970.4</ele>
        <time>2022-05-28T15:00:39Z</time>
      </trkpt>
      <trkpt lat="48.01638" lon="6.86874">
        <ele>970.9</ele>
        <time>2022-05-28T15:00:41Z</time>
      </trkpt>
      <trkpt lat="48.01648" lon="6.86877">
        <ele>968.2</ele>
        <time>2022-05-28T15:00:43Z</time>
      </trkpt>
      <trkpt lat="48.01659" lon="6.86881">
        <ele>965.3</ele>
        <time>2022-05-28T15:00:45Z</time>
      </trkpt>
      <trkpt lat="48.01668" lon="6.86889">
        <ele>968.4</ele>
        <time>2022-05-28T15:00:47Z</time>
      </trkpt>
      <trkpt lat="48.0167" lon="6.86906">
        <ele>967.6</ele>
        <time>2022-05-28T15:00:50Z</time>
      </trkpt>
      <trkpt lat="48.01665" lon="6.86918">
        <ele>969.5</ele>
        <time>2022-05-28T15:00:53Z</time>
      </trkpt>
      <trkpt lat="48.01659" lon="6.86931">
        <ele>970.7</ele>
        <time>2022-05-28T15:00:57Z</time>
      </trkpt>
      <trkpt lat="48.01657" lon="6.86945">
        <ele>971.6</ele>
        <time>2022-05-28T15:01:01Z</time>
      </trkpt>
      <trkpt lat="48.01653" lon="6.86959">
        <ele>970.5</ele>
        <time>2022-05-28T15:01:05Z</time>
      </trkpt>
      <trkpt lat="48.01652" lon="6.86976">
        <ele>972.1</ele>
        <time>2022-05-28T15:01:09Z</time>
      </trkpt>
      <trkpt lat="48.0165" lon="6.86992">
        <ele>973</ele>
        <time>2022-05-28T15:01:12Z</time>
      </trkpt>
      <trkpt lat="48.0165" lon="6.87008">
        <ele>973.2</ele>
        <time>2022-05-28T15:01:15Z</time>
      </trkpt>
      <trkpt lat="48.01651" lon="6.87025">
        <ele>975.3</ele>
        <time>2022-05-28T15:01:18Z</time>
      </trkpt>
      <trkpt lat="48.01652" lon="6.87041">
        <ele>975.3</ele>
        <time>2022-05-28T15:01:21Z</time>
      </trkpt>
      <trkpt lat="48.01655" lon="6.87056">
        <ele>975.4</ele>
        <time>2022-05-28T15:01:25Z</time>
      </trkpt>
      <trkpt lat="48.01659" lon="6.87072">
        <ele>976.3</ele>
        <time>2022-05-28T15:01:29Z</time>
      </trkpt>
      <trkpt lat="48.01666" lon="6.87086">
        <ele>976.6</ele>
        <time>2022-05-28T15:01:33Z</time>
      </trkpt>
      <trkpt lat="48.01673" lon="6.87095">
        <ele>977</ele>
        <time>2022-05-28T15:01:36Z</time>
      </trkpt>
      <trkpt lat="48.01681" lon="6.87103">
        <ele>975.8</ele>
        <time>2022-05-28T15:01:39Z</time>
      </trkpt>
      <trkpt lat="48.01689" lon="6.87113">
        <ele>975.7</ele>
        <time>2022-05-28T15:01:42Z</time>
      </trkpt>
      <trkpt lat="48.01698" lon="6.87124">
        <ele>976.2</ele>
        <time>2022-05-28T15:01:45Z</time>
      </trkpt>
      <trkpt lat="48.01706" lon="6.87135">
        <ele>977.1</ele>
        <time>2022-05-28T15:01:48Z</time>
      </trkpt>
      <trkpt lat="48.01712" lon="6.87148">
        <ele>978.5</ele>
        <time>2022-05-28T15:01:51Z</time>
      </trkpt>
      <trkpt lat="48.01718" lon="6.87161">
        <ele>979.2</ele>
        <time>2022-05-28T15:01:54Z</time>
      </trkpt>
      <trkpt lat="48.01725" lon="6.87175">
        <ele>978.6</ele>
        <time>2022-05-28T15:01:58Z</time>
      </trkpt>
      <trkpt lat="48.01732" lon="6.87185">
        <ele>979.1</ele>
        <time>2022-05-28T15:02:01Z</time>
      </trkpt>
      <trkpt lat="48.01739" lon="6.87194">
        <ele>980</ele>
        <time>2022-05-28T15:02:04Z</time>
      </trkpt>
      <trkpt lat="48.01745" lon="6.87206">
        <ele>979.5</ele>
        <time>2022-05-28T15:02:07Z</time>
      </trkpt>
      <trkpt lat="48.01745" lon="6.87222">
        <ele>980</ele>
        <time>2022-05-28T15:02:10Z</time>
      </trkpt>
      <trkpt lat="48.01742" lon="6.87234">
        <ele>980.3</ele>
        <time>2022-05-28T15:02:13Z</time>
      </trkpt>
      <trkpt lat="48.01738" lon="6.87248">
        <ele>981.5</ele>
        <time>2022-05-28T15:02:17Z</time>
      </trkpt>
      <trkpt lat="48.01735" lon="6.87261">
        <ele>984</ele>
        <time>2022-05-28T15:02:22Z</time>
      </trkpt>
      <trkpt lat="48.01735" lon="6.87275">
        <ele>984.9</ele>
        <time>2022-05-28T15:02:27Z</time>
      </trkpt>
      <trkpt lat="48.01742" lon="6.87287">
        <ele>984.8</ele>
        <time>2022-05-28T15:02:33Z</time>
      </trkpt>
      <trkpt lat="48.01751" lon="6.87292">
        <ele>986.4</ele>
        <time>2022-05-28T15:02:40Z</time>
      </trkpt>
      <trkpt lat="48.01758" lon="6.87301">
        <ele>987.1</ele>
        <time>2022-05-28T15:02:48Z</time>
      </trkpt>
      <trkpt lat="48.01757" lon="6.87315">
        <ele>988.6</ele>
        <time>2022-05-28T15:02:54Z</time>
      </trkpt>
      <trkpt lat="48.01758" lon="6.87328">
        <ele>989.4</ele>
        <time>2022-05-28T15:03:00Z</time>
      </trkpt>
      <trkpt lat="48.01761" lon="6.87334">
        <ele>989.5</ele>
        <time>2022-05-28T15:03:06Z</time>
      </trkpt>
      <trkpt lat="48.01762" lon="6.87335">
        <ele>989.8</ele>
        <time>2022-05-28T15:03:09Z</time>
      </trkpt>
      <trkpt lat="48.0177" lon="6.8734">
        <ele>992.6</ele>
        <time>2022-05-28T15:03:28Z</time>
      </trkpt>
      <trkpt lat="48.01774" lon="6.87341">
        <ele>992.2</ele>
        <time>2022-05-28T15:03:43Z</time>
      </trkpt>
      <trkpt lat="48.01774" lon="6.8734">
        <ele>992.7</ele>
        <time>2022-05-28T15:03:57Z</time>
      </trkpt>
      <trkpt lat="48.01774" lon="6.8734">
        <ele>991.2</ele>
        <time>2022-05-28T15:05:47Z</time>
      </trkpt>
      <trkpt lat="48.01775" lon="6.87341">
        <ele>991</ele>
        <time>2022-05-28T15:05:50Z</time>
      </trkpt>
      <trkpt lat="48.0178" lon="6.87357">
        <ele>989.2</ele>
        <time>2022-05-28T15:05:55Z</time>
      </trkpt>
      <trkpt lat="48.01786" lon="6.8737">
        <ele>989.3</ele>
        <time>2022-05-28T15:05:58Z</time>
      </trkpt>
      <trkpt lat="48.01793" lon="6.87382">
        <ele>990.8</ele>
        <time>2022-05-28T15:06:02Z</time>
      </trkpt>
      <trkpt lat="48.01799" lon="6.87394">
        <ele>992</ele>
        <time>2022-05-28T15:06:06Z</time>
      </trkpt>
      <trkpt lat="48.01804" lon="6.87405">
        <ele>992.9</ele>
        <time>2022-05-28T15:06:10Z</time>
      </trkpt>
      <trkpt lat="48.0181" lon="6.87419">
        <ele>994.1</ele>
        <time>2022-05-28T15:06:15Z</time>
      </trkpt>
      <trkpt lat="48.01816" lon="6.87433">
        <ele>993.8</ele>
        <time>2022-05-28T15:06:20Z</time>
      </trkpt>
      <trkpt lat="48.01819" lon="6.87447">
        <ele>994.8</ele>
        <time>2022-05-28T15:06:24Z</time>
      </trkpt>
      <trkpt lat="48.01821" lon="6.87461">
        <ele>994.8</ele>
        <time>2022-05-28T15:06:28Z</time>
      </trkpt>
      <trkpt lat="48.01821" lon="6.87477">
        <ele>994.7</ele>
        <time>2022-05-28T15:06:32Z</time>
      </trkpt>
      <trkpt lat="48.01821" lon="6.87493">
        <ele>994.2</ele>
        <time>2022-05-28T15:06:35Z</time>
      </trkpt>
      <trkpt lat="48.01821" lon="6.87508">
        <ele>995.1</ele>
        <time>2022-05-28T15:06:39Z</time>
      </trkpt>
      <trkpt lat="48.01822" lon="6.87522">
        <ele>995.2</ele>
        <time>2022-05-28T15:06:45Z</time>
      </trkpt>
      <trkpt lat="48.01823" lon="6.87538">
        <ele>993.9</ele>
        <time>2022-05-28T15:06:52Z</time>
      </trkpt>
      <trkpt lat="48.01825" lon="6.87555">
        <ele>992.7</ele>
        <time>2022-05-28T15:06:55Z</time>
      </trkpt>
      <trkpt lat="48.01826" lon="6.87571">
        <ele>992.3</ele>
        <time>2022-05-28T15:06:58Z</time>
      </trkpt>
      <trkpt lat="48.01827" lon="6.87585">
        <ele>992.3</ele>
        <time>2022-05-28T15:07:01Z</time>
      </trkpt>
      <trkpt lat="48.01829" lon="6.87602">
        <ele>988.7</ele>
        <time>2022-05-28T15:07:04Z</time>
      </trkpt>
      <trkpt lat="48.01831" lon="6.87615">
        <ele>989.1</ele>
        <time>2022-05-28T15:07:06Z</time>
      </trkpt>
      <trkpt lat="48.01832" lon="6.87633">
        <ele>987.5</ele>
        <time>2022-05-28T15:07:08Z</time>
      </trkpt>
      <trkpt lat="48.01832" lon="6.87653">
        <ele>984</ele>
        <time>2022-05-28T15:07:10Z</time>
      </trkpt>
      <trkpt lat="48.01834" lon="6.87675">
        <ele>980.8</ele>
        <time>2022-05-28T15:07:12Z</time>
      </trkpt>
      <trkpt lat="48.01834" lon="6.87695">
        <ele>977.8</ele>
        <time>2022-05-28T15:07:14Z</time>
      </trkpt>
      <trkpt lat="48.01833" lon="6.87715">
        <ele>973.9</ele>
        <time>2022-05-28T15:07:16Z</time>
      </trkpt>
      <trkpt lat="48.01832" lon="6.87735">
        <ele>973.4</ele>
        <time>2022-05-28T15:07:18Z</time>
      </trkpt>
      <trkpt lat="48.01832" lon="6.87758">
        <ele>974.2</ele>
        <time>2022-05-28T15:07:20Z</time>
      </trkpt>
      <trkpt lat="48.01834" lon="6.87781">
        <ele>971.7</ele>
        <time>2022-05-28T15:07:22Z</time>
      </trkpt>
      <trkpt lat="48.01837" lon="6.87799">
        <ele>975.6</ele>
        <time>2022-05-28T15:07:24Z</time>
      </trkpt>
      <trkpt lat="48.0184" lon="6.87813">
        <ele>977.3</ele>
        <time>2022-05-28T15:07:26Z</time>
      </trkpt>
      <trkpt lat="48.01846" lon="6.8783">
        <ele>975.9</ele>
        <time>2022-05-28T15:07:29Z</time>
      </trkpt>
      <trkpt lat="48.01852" lon="6.87847">
        <ele>974.3</ele>
        <time>2022-05-28T15:07:32Z</time>
      </trkpt>
      <trkpt lat="48.01857" lon="6.87858">
        <ele>973.5</ele>
        <time>2022-05-28T15:07:34Z</time>
      </trkpt>
      <trkpt lat="48.01862" lon="6.87873">
        <ele>972.3</ele>
        <time>2022-05-28T15:07:36Z</time>
      </trkpt>
      <trkpt lat="48.01868" lon="6.87889">
        <ele>972</ele>
        <time>2022-05-28T15:07:38Z</time>
      </trkpt>
      <trkpt lat="48.01874" lon="6.87906">
        <ele>971</ele>
        <time>2022-05-28T15:07:40Z</time>
      </trkpt>
      <trkpt lat="48.01879" lon="6.8792">
        <ele>973.1</ele>
        <time>2022-05-28T15:07:42Z</time>
      </trkpt>
      <trkpt lat="48.01886" lon="6.87933">
        <ele>975.3</ele>
        <time>2022-05-28T15:07:45Z</time>
      </trkpt>
      <trkpt lat="48.01895" lon="6.87944">
        <ele>977</ele>
        <time>2022-05-28T15:07:48Z</time>
      </trkpt>
      <trkpt lat="48.01903" lon="6.87958">
        <ele>975.5</ele>
        <time>2022-05-28T15:07:51Z</time>
      </trkpt>
      <trkpt lat="48.01911" lon="6.87971">
        <ele>976.3</ele>
        <time>2022-05-28T15:07:54Z</time>
      </trkpt>
      <trkpt lat="48.01919" lon="6.87982">
        <ele>977</ele>
        <time>2022-05-28T15:07:57Z</time>
      </trkpt>
      <trkpt lat="48.01927" lon="6.87991">
        <ele>977.8</ele>
        <time>2022-05-28T15:08:00Z</time>
      </trkpt>
      <trkpt lat="48.01935" lon="6.88">
        <ele>979.6</ele>
        <time>2022-05-28T15:08:04Z</time>
      </trkpt>
      <trkpt lat="48.01944" lon="6.88008">
        <ele>981</ele>
        <time>2022-05-28T15:08:10Z</time>
      </trkpt>
      <trkpt lat="48.01951" lon="6.88018">
        <ele>980.2</ele>
        <time>2022-05-28T15:08:33Z</time>
      </trkpt>
      <trkpt lat="48.01954" lon="6.88021">
        <ele>980.5</ele>
        <time>2022-05-28T15:08:40Z</time>
      </trkpt>
      <trkpt lat="48.0196" lon="6.88033">
        <ele>979.9</ele>
        <time>2022-05-28T15:08:53Z</time>
      </trkpt>
      <trkpt lat="48.01966" lon="6.88045">
        <ele>979.6</ele>
        <time>2022-05-28T15:08:59Z</time>
      </trkpt>
      <trkpt lat="48.01967" lon="6.88046">
        <ele>979.7</ele>
        <time>2022-05-28T15:09:02Z</time>
      </trkpt>
      <trkpt lat="48.01968" lon="6.88047">
        <ele>979.4</ele>
        <time>2022-05-28T15:09:08Z</time>
      </trkpt>
      <trkpt lat="48.01972" lon="6.88061">
        <ele>979.6</ele>
        <time>2022-05-28T15:09:13Z</time>
      </trkpt>
      <trkpt lat="48.01975" lon="6.88077">
        <ele>979.8</ele>
        <time>2022-05-28T15:09:18Z</time>
      </trkpt>
      <trkpt lat="48.01979" lon="6.88089">
        <ele>979.3</ele>
        <time>2022-05-28T15:09:22Z</time>
      </trkpt>
      <trkpt lat="48.01986" lon="6.88103">
        <ele>979.5</ele>
        <time>2022-05-28T15:09:26Z</time>
      </trkpt>
      <trkpt lat="48.01993" lon="6.88114">
        <ele>977.7</ele>
        <time>2022-05-28T15:09:29Z</time>
      </trkpt>
      <trkpt lat="48.02002" lon="6.88127">
        <ele>978</ele>
        <time>2022-05-28T15:09:32Z</time>
      </trkpt>
      <trkpt lat="48.02009" lon="6.88138">
        <ele>975.1</ele>
        <time>2022-05-28T15:09:34Z</time>
      </trkpt>
      <trkpt lat="48.02015" lon="6.88151">
        <ele>972.3</ele>
        <time>2022-05-28T15:09:36Z</time>
      </trkpt>
      <trkpt lat="48.02023" lon="6.88165">
        <ele>968.5</ele>
        <time>2022-05-28T15:09:38Z</time>
      </trkpt>
      <trkpt lat="48.02032" lon="6.88179">
        <ele>966.9</ele>
        <time>2022-05-28T15:09:40Z</time>
      </trkpt>
      <trkpt lat="48.02042" lon="6.88192">
        <ele>967.9</ele>
        <time>2022-05-28T15:09:42Z</time>
      </trkpt>
      <trkpt lat="48.02052" lon="6.88202">
        <ele>970.3</ele>
        <time>2022-05-28T15:09:44Z</time>
      </trkpt>
      <trkpt lat="48.02061" lon="6.88211">
        <ele>970.2</ele>
        <time>2022-05-28T15:09:46Z</time>
      </trkpt>
      <trkpt lat="48.0207" lon="6.88218">
        <ele>969.8</ele>
        <time>2022-05-28T15:09:48Z</time>
      </trkpt>
      <trkpt lat="48.02081" lon="6.88226">
        <ele>970.4</ele>
        <time>2022-05-28T15:09:51Z</time>
      </trkpt>
      <trkpt lat="48.02091" lon="6.88233">
        <ele>970.3</ele>
        <time>2022-05-28T15:09:54Z</time>
      </trkpt>
      <trkpt lat="48.021" lon="6.88237">
        <ele>969.8</ele>
        <time>2022-05-28T15:09:56Z</time>
      </trkpt>
      <trkpt lat="48.02109" lon="6.88241">
        <ele>969.8</ele>
        <time>2022-05-28T15:09:58Z</time>
      </trkpt>
      <trkpt lat="48.02119" lon="6.88244">
        <ele>970.5</ele>
        <time>2022-05-28T15:10:00Z</time>
      </trkpt>
      <trkpt lat="48.02129" lon="6.88248">
        <ele>970.5</ele>
        <time>2022-05-28T15:10:02Z</time>
      </trkpt>
      <trkpt lat="48.02138" lon="6.88251">
        <ele>971.4</ele>
        <time>2022-05-28T15:10:04Z</time>
      </trkpt>
      <trkpt lat="48.02148" lon="6.88255">
        <ele>971.5</ele>
        <time>2022-05-28T15:10:07Z</time>
      </trkpt>
      <trkpt lat="48.02157" lon="6.88262">
        <ele>972.5</ele>
        <time>2022-05-28T15:10:11Z</time>
      </trkpt>
      <trkpt lat="48.02166" lon="6.88271">
        <ele>972.4</ele>
        <time>2022-05-28T15:10:15Z</time>
      </trkpt>
      <trkpt lat="48.02173" lon="6.88281">
        <ele>969.1</ele>
        <time>2022-05-28T15:10:17Z</time>
      </trkpt>
      <trkpt lat="48.02181" lon="6.88293">
        <ele>967.6</ele>
        <time>2022-05-28T15:10:20Z</time>
      </trkpt>
      <trkpt lat="48.02189" lon="6.88302">
        <ele>967.7</ele>
        <time>2022-05-28T15:10:23Z</time>
      </trkpt>
      <trkpt lat="48.02195" lon="6.88312">
        <ele>966</ele>
        <time>2022-05-28T15:10:26Z</time>
      </trkpt>
      <trkpt lat="48.02205" lon="6.88322">
        <ele>964.4</ele>
        <time>2022-05-28T15:10:29Z</time>
      </trkpt>
      <trkpt lat="48.02217" lon="6.88329">
        <ele>962.8</ele>
        <time>2022-05-28T15:10:31Z</time>
      </trkpt>
      <trkpt lat="48.02228" lon="6.88336">
        <ele>963.2</ele>
        <time>2022-05-28T15:10:33Z</time>
      </trkpt>
      <trkpt lat="48.02238" lon="6.88342">
        <ele>963.6</ele>
        <time>2022-05-28T15:10:36Z</time>
      </trkpt>
      <trkpt lat="48.02247" lon="6.88345">
        <ele>964</ele>
        <time>2022-05-28T15:10:38Z</time>
      </trkpt>
      <trkpt lat="48.02257" lon="6.88345">
        <ele>965.4</ele>
        <time>2022-05-28T15:10:42Z</time>
      </trkpt>
      <trkpt lat="48.02266" lon="6.88347">
        <ele>965</ele>
        <time>2022-05-28T15:10:46Z</time>
      </trkpt>
      <trkpt lat="48.02277" lon="6.8835">
        <ele>964.6</ele>
        <time>2022-05-28T15:10:50Z</time>
      </trkpt>
      <trkpt lat="48.02288" lon="6.88355">
        <ele>964.6</ele>
        <time>2022-05-28T15:10:54Z</time>
      </trkpt>
      <trkpt lat="48.02297" lon="6.88364">
        <ele>964.5</ele>
        <time>2022-05-28T15:10:58Z</time>
      </trkpt>
      <trkpt lat="48.02304" lon="6.88375">
        <ele>963</ele>
        <time>2022-05-28T15:11:01Z</time>
      </trkpt>
      <trkpt lat="48.02299" lon="6.88388">
        <ele>961</ele>
        <time>2022-05-28T15:11:06Z</time>
      </trkpt>
      <trkpt lat="48.0229" lon="6.884">
        <ele>958</ele>
        <time>2022-05-28T15:11:09Z</time>
      </trkpt>
      <trkpt lat="48.0229" lon="6.88418">
        <ele>957.3</ele>
        <time>2022-05-28T15:11:12Z</time>
      </trkpt>
      <trkpt lat="48.02297" lon="6.88427">
        <ele>957.4</ele>
        <time>2022-05-28T15:11:16Z</time>
      </trkpt>
      <trkpt lat="48.02306" lon="6.88434">
        <ele>956.9</ele>
        <time>2022-05-28T15:11:22Z</time>
      </trkpt>
      <trkpt lat="48.02316" lon="6.88434">
        <ele>952.5</ele>
        <time>2022-05-28T15:11:25Z</time>
      </trkpt>
      <trkpt lat="48.02325" lon="6.88432">
        <ele>953.8</ele>
        <time>2022-05-28T15:11:27Z</time>
      </trkpt>
      <trkpt lat="48.02335" lon="6.88427">
        <ele>951.7</ele>
        <time>2022-05-28T15:11:29Z</time>
      </trkpt>
      <trkpt lat="48.02343" lon="6.88418">
        <ele>951.4</ele>
        <time>2022-05-28T15:11:31Z</time>
      </trkpt>
      <trkpt lat="48.02352" lon="6.88412">
        <ele>949</ele>
        <time>2022-05-28T15:11:33Z</time>
      </trkpt>
      <trkpt lat="48.02361" lon="6.8841">
        <ele>947.2</ele>
        <time>2022-05-28T15:11:35Z</time>
      </trkpt>
      <trkpt lat="48.02373" lon="6.8841">
        <ele>948.5</ele>
        <time>2022-05-28T15:11:38Z</time>
      </trkpt>
      <trkpt lat="48.02385" lon="6.88413">
        <ele>948.3</ele>
        <time>2022-05-28T15:11:41Z</time>
      </trkpt>
      <trkpt lat="48.02394" lon="6.88415">
        <ele>946.7</ele>
        <time>2022-05-28T15:11:43Z</time>
      </trkpt>
      <trkpt lat="48.02407" lon="6.88418">
        <ele>947.3</ele>
        <time>2022-05-28T15:11:46Z</time>
      </trkpt>
      <trkpt lat="48.02416" lon="6.88424">
        <ele>947.5</ele>
        <time>2022-05-28T15:11:49Z</time>
      </trkpt>
      <trkpt lat="48.02426" lon="6.88429">
        <ele>949.1</ele>
        <time>2022-05-28T15:11:52Z</time>
      </trkpt>
      <trkpt lat="48.02432" lon="6.88439">
        <ele>952.8</ele>
        <time>2022-05-28T15:11:55Z</time>
      </trkpt>
      <trkpt lat="48.02442" lon="6.88449">
        <ele>952.1</ele>
        <time>2022-05-28T15:11:59Z</time>
      </trkpt>
      <trkpt lat="48.02452" lon="6.88454">
        <ele>951.7</ele>
        <time>2022-05-28T15:12:03Z</time>
      </trkpt>
      <trkpt lat="48.02462" lon="6.8845">
        <ele>952.1</ele>
        <time>2022-05-28T15:12:07Z</time>
      </trkpt>
      <trkpt lat="48.02472" lon="6.88445">
        <ele>952.8</ele>
        <time>2022-05-28T15:12:19Z</time>
      </trkpt>
      <trkpt lat="48.02482" lon="6.88446">
        <ele>951.7</ele>
        <time>2022-05-28T15:12:24Z</time>
      </trkpt>
      <trkpt lat="48.02492" lon="6.88457">
        <ele>951.8</ele>
        <time>2022-05-28T15:12:28Z</time>
      </trkpt>
      <trkpt lat="48.025" lon="6.88468">
        <ele>949</ele>
        <time>2022-05-28T15:12:31Z</time>
      </trkpt>
      <trkpt lat="48.02511" lon="6.88477">
        <ele>952.9</ele>
        <time>2022-05-28T15:12:34Z</time>
      </trkpt>
      <trkpt lat="48.02523" lon="6.88485">
        <ele>952</ele>
        <time>2022-05-28T15:12:37Z</time>
      </trkpt>
      <trkpt lat="48.02533" lon="6.8849">
        <ele>949</ele>
        <time>2022-05-28T15:12:39Z</time>
      </trkpt>
      <trkpt lat="48.02544" lon="6.88501">
        <ele>950.6</ele>
        <time>2022-05-28T15:12:42Z</time>
      </trkpt>
      <trkpt lat="48.02541" lon="6.88515">
        <ele>949</ele>
        <time>2022-05-28T15:12:45Z</time>
      </trkpt>
      <trkpt lat="48.02535" lon="6.88526">
        <ele>949</ele>
        <time>2022-05-28T15:12:48Z</time>
      </trkpt>
      <trkpt lat="48.02534" lon="6.88542">
        <ele>950.6</ele>
        <time>2022-05-28T15:12:52Z</time>
      </trkpt>
      <trkpt lat="48.02535" lon="6.88558">
        <ele>950.3</ele>
        <time>2022-05-28T15:12:56Z</time>
      </trkpt>
      <trkpt lat="48.02534" lon="6.88572">
        <ele>950.7</ele>
        <time>2022-05-28T15:13:00Z</time>
      </trkpt>
      <trkpt lat="48.02534" lon="6.88587">
        <ele>950.9</ele>
        <time>2022-05-28T15:13:04Z</time>
      </trkpt>
      <trkpt lat="48.02541" lon="6.88597">
        <ele>950.8</ele>
        <time>2022-05-28T15:13:07Z</time>
      </trkpt>
      <trkpt lat="48.02548" lon="6.88604">
        <ele>952.7</ele>
        <time>2022-05-28T15:13:11Z</time>
      </trkpt>
      <trkpt lat="48.02558" lon="6.8861">
        <ele>953.6</ele>
        <time>2022-05-28T15:13:15Z</time>
      </trkpt>
      <trkpt lat="48.02569" lon="6.88615">
        <ele>952.9</ele>
        <time>2022-05-28T15:13:19Z</time>
      </trkpt>
      <trkpt lat="48.02578" lon="6.8862">
        <ele>953.2</ele>
        <time>2022-05-28T15:13:23Z</time>
      </trkpt>
      <trkpt lat="48.02589" lon="6.88626">
        <ele>953.5</ele>
        <time>2022-05-28T15:13:28Z</time>
      </trkpt>
      <trkpt lat="48.02598" lon="6.88631">
        <ele>953.1</ele>
        <time>2022-05-28T15:13:33Z</time>
      </trkpt>
      <trkpt lat="48.02608" lon="6.88636">
        <ele>953.1</ele>
        <time>2022-05-28T15:13:38Z</time>
      </trkpt>
      <trkpt lat="48.026" lon="6.88643">
        <ele>955.4</ele>
        <time>2022-05-28T15:13:47Z</time>
      </trkpt>
      <trkpt lat="48.02601" lon="6.88656">
        <ele>954.3</ele>
        <time>2022-05-28T15:13:51Z</time>
      </trkpt>
      <trkpt lat="48.02606" lon="6.8867">
        <ele>956.9</ele>
        <time>2022-05-28T15:13:57Z</time>
      </trkpt>
      <trkpt lat="48.02615" lon="6.88675">
        <ele>957</ele>
        <time>2022-05-28T15:14:03Z</time>
      </trkpt>
      <trkpt lat="48.02625" lon="6.88676">
        <ele>957.4</ele>
        <time>2022-05-28T15:14:08Z</time>
      </trkpt>
      <trkpt lat="48.02634" lon="6.88677">
        <ele>958.1</ele>
        <time>2022-05-28T15:14:13Z</time>
      </trkpt>
      <trkpt lat="48.02642" lon="6.88684">
        <ele>958.6</ele>
        <time>2022-05-28T15:14:19Z</time>
      </trkpt>
      <trkpt lat="48.02648" lon="6.88698">
        <ele>960.2</ele>
        <time>2022-05-28T15:14:25Z</time>
      </trkpt>
      <trkpt lat="48.02656" lon="6.88707">
        <ele>961.3</ele>
        <time>2022-05-28T15:14:32Z</time>
      </trkpt>
      <trkpt lat="48.02665" lon="6.88713">
        <ele>962.6</ele>
        <time>2022-05-28T15:14:38Z</time>
      </trkpt>
      <trkpt lat="48.02675" lon="6.88719">
        <ele>964.6</ele>
        <time>2022-05-28T15:14:44Z</time>
      </trkpt>
      <trkpt lat="48.02683" lon="6.88724">
        <ele>967.3</ele>
        <time>2022-05-28T15:14:50Z</time>
      </trkpt>
      <trkpt lat="48.0269" lon="6.88734">
        <ele>968.7</ele>
        <time>2022-05-28T15:15:00Z</time>
      </trkpt>
      <trkpt lat="48.02694" lon="6.88747">
        <ele>969.8</ele>
        <time>2022-05-28T15:15:08Z</time>
      </trkpt>
      <trkpt lat="48.02699" lon="6.8876">
        <ele>970.9</ele>
        <time>2022-05-28T15:15:16Z</time>
      </trkpt>
      <trkpt lat="48.02707" lon="6.88771">
        <ele>972.2</ele>
        <time>2022-05-28T15:15:23Z</time>
      </trkpt>
      <trkpt lat="48.02715" lon="6.8878">
        <ele>972</ele>
        <time>2022-05-28T15:15:28Z</time>
      </trkpt>
      <trkpt lat="48.02722" lon="6.88791">
        <ele>973.9</ele>
        <time>2022-05-28T15:15:32Z</time>
      </trkpt>
      <trkpt lat="48.02729" lon="6.88804">
        <ele>973.7</ele>
        <time>2022-05-28T15:15:37Z</time>
      </trkpt>
      <trkpt lat="48.02733" lon="6.88819">
        <ele>974.2</ele>
        <time>2022-05-28T15:15:42Z</time>
      </trkpt>
      <trkpt lat="48.02735" lon="6.88833">
        <ele>975.4</ele>
        <time>2022-05-28T15:15:46Z</time>
      </trkpt>
      <trkpt lat="48.02737" lon="6.88848">
        <ele>974.6</ele>
        <time>2022-05-28T15:15:51Z</time>
      </trkpt>
      <trkpt lat="48.02741" lon="6.88863">
        <ele>975.4</ele>
        <time>2022-05-28T15:15:56Z</time>
      </trkpt>
      <trkpt lat="48.02745" lon="6.88876">
        <ele>975.1</ele>
        <time>2022-05-28T15:16:00Z</time>
      </trkpt>
      <trkpt lat="48.0275" lon="6.8889">
        <ele>975.8</ele>
        <time>2022-05-28T15:16:04Z</time>
      </trkpt>
      <trkpt lat="48.02754" lon="6.88904">
        <ele>977</ele>
        <time>2022-05-28T15:16:08Z</time>
      </trkpt>
      <trkpt lat="48.02758" lon="6.88918">
        <ele>977.5</ele>
        <time>2022-05-28T15:16:12Z</time>
      </trkpt>
      <trkpt lat="48.02762" lon="6.88932">
        <ele>978.4</ele>
        <time>2022-05-28T15:16:16Z</time>
      </trkpt>
      <trkpt lat="48.02764" lon="6.88947">
        <ele>976.9</ele>
        <time>2022-05-28T15:16:20Z</time>
      </trkpt>
      <trkpt lat="48.02767" lon="6.88961">
        <ele>979.4</ele>
        <time>2022-05-28T15:16:24Z</time>
      </trkpt>
      <trkpt lat="48.0277" lon="6.88977">
        <ele>980.7</ele>
        <time>2022-05-28T15:16:29Z</time>
      </trkpt>
      <trkpt lat="48.02775" lon="6.88991">
        <ele>981</ele>
        <time>2022-05-28T15:16:33Z</time>
      </trkpt>
      <trkpt lat="48.0278" lon="6.89004">
        <ele>980.4</ele>
        <time>2022-05-28T15:16:37Z</time>
      </trkpt>
      <trkpt lat="48.02785" lon="6.89017">
        <ele>981.4</ele>
        <time>2022-05-28T15:16:41Z</time>
      </trkpt>
      <trkpt lat="48.0279" lon="6.89028">
        <ele>981.7</ele>
        <time>2022-05-28T15:16:45Z</time>
      </trkpt>
      <trkpt lat="48.02797" lon="6.89041">
        <ele>983.2</ele>
        <time>2022-05-28T15:16:50Z</time>
      </trkpt>
      <trkpt lat="48.02803" lon="6.89053">
        <ele>984.3</ele>
        <time>2022-05-28T15:16:55Z</time>
      </trkpt>
      <trkpt lat="48.02809" lon="6.89064">
        <ele>985.4</ele>
        <time>2022-05-28T15:17:00Z</time>
      </trkpt>
      <trkpt lat="48.02814" lon="6.89075">
        <ele>985.8</ele>
        <time>2022-05-28T15:17:05Z</time>
      </trkpt>
      <trkpt lat="48.0282" lon="6.89087">
        <ele>987</ele>
        <time>2022-05-28T15:17:10Z</time>
      </trkpt>
      <trkpt lat="48.02824" lon="6.89099">
        <ele>988.5</ele>
        <time>2022-05-28T15:17:15Z</time>
      </trkpt>
      <trkpt lat="48.02829" lon="6.89112">
        <ele>988.2</ele>
        <time>2022-05-28T15:17:20Z</time>
      </trkpt>
      <trkpt lat="48.02834" lon="6.89125">
        <ele>989.8</ele>
        <time>2022-05-28T15:17:25Z</time>
      </trkpt>
      <trkpt lat="48.02839" lon="6.89137">
        <ele>990.9</ele>
        <time>2022-05-28T15:17:30Z</time>
      </trkpt>
      <trkpt lat="48.02844" lon="6.89149">
        <ele>992</ele>
        <time>2022-05-28T15:17:35Z</time>
      </trkpt>
      <trkpt lat="48.02848" lon="6.89162">
        <ele>992.1</ele>
        <time>2022-05-28T15:17:40Z</time>
      </trkpt>
      <trkpt lat="48.02852" lon="6.89174">
        <ele>993</ele>
        <time>2022-05-28T15:17:45Z</time>
      </trkpt>
      <trkpt lat="48.02858" lon="6.89186">
        <ele>994.5</ele>
        <time>2022-05-28T15:17:50Z</time>
      </trkpt>
      <trkpt lat="48.02865" lon="6.89196">
        <ele>995.1</ele>
        <time>2022-05-28T15:17:55Z</time>
      </trkpt>
      <trkpt lat="48.02873" lon="6.89207">
        <ele>996.3</ele>
        <time>2022-05-28T15:18:01Z</time>
      </trkpt>
      <trkpt lat="48.0288" lon="6.89217">
        <ele>997.6</ele>
        <time>2022-05-28T15:18:07Z</time>
      </trkpt>
      <trkpt lat="48.02887" lon="6.89229">
        <ele>1000</ele>
        <time>2022-05-28T15:18:13Z</time>
      </trkpt>
      <trkpt lat="48.02894" lon="6.8924">
        <ele>1001.2</ele>
        <time>2022-05-28T15:18:19Z</time>
      </trkpt>
      <trkpt lat="48.02901" lon="6.89251">
        <ele>1002.6</ele>
        <time>2022-05-28T15:18:25Z</time>
      </trkpt>
      <trkpt lat="48.02908" lon="6.89261">
        <ele>1003.6</ele>
        <time>2022-05-28T15:18:31Z</time>
      </trkpt>
      <trkpt lat="48.02915" lon="6.89271">
        <ele>1005.4</ele>
        <time>2022-05-28T15:18:37Z</time>
      </trkpt>
      <trkpt lat="48.02922" lon="6.8928">
        <ele>1006.7</ele>
        <time>2022-05-28T15:18:43Z</time>
      </trkpt>
      <trkpt lat="48.0293" lon="6.89288">
        <ele>1007.6</ele>
        <time>2022-05-28T15:18:48Z</time>
      </trkpt>
      <trkpt lat="48.02938" lon="6.89294">
        <ele>1009.6</ele>
        <time>2022-05-28T15:18:53Z</time>
      </trkpt>
      <trkpt lat="48.02947" lon="6.89299">
        <ele>1010.2</ele>
        <time>2022-05-28T15:18:58Z</time>
      </trkpt>
      <trkpt lat="48.02955" lon="6.89304">
        <ele>1011.1</ele>
        <time>2022-05-28T15:19:03Z</time>
      </trkpt>
      <trkpt lat="48.02965" lon="6.89309">
        <ele>1012.6</ele>
        <time>2022-05-28T15:19:09Z</time>
      </trkpt>
      <trkpt lat="48.02975" lon="6.89314">
        <ele>1012.9</ele>
        <time>2022-05-28T15:19:15Z</time>
      </trkpt>
      <trkpt lat="48.02984" lon="6.89316">
        <ele>1015.5</ele>
        <time>2022-05-28T15:19:20Z</time>
      </trkpt>
      <trkpt lat="48.02994" lon="6.89321">
        <ele>1015.5</ele>
        <time>2022-05-28T15:19:25Z</time>
      </trkpt>
      <trkpt lat="48.03002" lon="6.89329">
        <ele>1017</ele>
        <time>2022-05-28T15:19:29Z</time>
      </trkpt>
      <trkpt lat="48.0301" lon="6.89337">
        <ele>1017.1</ele>
        <time>2022-05-28T15:19:33Z</time>
      </trkpt>
      <trkpt lat="48.0302" lon="6.89345">
        <ele>1017.9</ele>
        <time>2022-05-28T15:19:38Z</time>
      </trkpt>
      <trkpt lat="48.03027" lon="6.89354">
        <ele>1019.5</ele>
        <time>2022-05-28T15:19:42Z</time>
      </trkpt>
      <trkpt lat="48.03032" lon="6.89366">
        <ele>1019</ele>
        <time>2022-05-28T15:19:46Z</time>
      </trkpt>
      <trkpt lat="48.03038" lon="6.89379">
        <ele>1021</ele>
        <time>2022-05-28T15:19:51Z</time>
      </trkpt>
      <trkpt lat="48.03043" lon="6.89392">
        <ele>1022.4</ele>
        <time>2022-05-28T15:19:56Z</time>
      </trkpt>
      <trkpt lat="48.03049" lon="6.89406">
        <ele>1022.3</ele>
        <time>2022-05-28T15:20:01Z</time>
      </trkpt>
      <trkpt lat="48.03054" lon="6.8942">
        <ele>1023.6</ele>
        <time>2022-05-28T15:20:06Z</time>
      </trkpt>
      <trkpt lat="48.03059" lon="6.89431">
        <ele>1024.5</ele>
        <time>2022-05-28T15:20:10Z</time>
      </trkpt>
      <trkpt lat="48.03065" lon="6.89443">
        <ele>1024.8</ele>
        <time>2022-05-28T15:20:14Z</time>
      </trkpt>
      <trkpt lat="48.03072" lon="6.89456">
        <ele>1025.4</ele>
        <time>2022-05-28T15:20:18Z</time>
      </trkpt>
      <trkpt lat="48.0308" lon="6.89469">
        <ele>1025.5</ele>
        <time>2022-05-28T15:20:22Z</time>
      </trkpt>
      <trkpt lat="48.03087" lon="6.89482">
        <ele>1025.9</ele>
        <time>2022-05-28T15:20:26Z</time>
      </trkpt>
      <trkpt lat="48.03093" lon="6.89496">
        <ele>1027.4</ele>
        <time>2022-05-28T15:20:30Z</time>
      </trkpt>
      <trkpt lat="48.03101" lon="6.89509">
        <ele>1027</ele>
        <time>2022-05-28T15:20:34Z</time>
      </trkpt>
      <trkpt lat="48.03108" lon="6.89519">
        <ele>1029</ele>
        <time>2022-05-28T15:20:38Z</time>
      </trkpt>
      <trkpt lat="48.03116" lon="6.89529">
        <ele>1029.9</ele>
        <time>2022-05-28T15:20:42Z</time>
      </trkpt>
      <trkpt lat="48.03123" lon="6.89542">
        <ele>1029.1</ele>
        <time>2022-05-28T15:20:46Z</time>
      </trkpt>
      <trkpt lat="48.0313" lon="6.89552">
        <ele>1033.5</ele>
        <time>2022-05-28T15:20:50Z</time>
      </trkpt>
      <trkpt lat="48.03137" lon="6.89563">
        <ele>1033.7</ele>
        <time>2022-05-28T15:20:54Z</time>
      </trkpt>
      <trkpt lat="48.03145" lon="6.89573">
        <ele>1033.7</ele>
        <time>2022-05-28T15:20:58Z</time>
      </trkpt>
      <trkpt lat="48.03155" lon="6.89582">
        <ele>1034.7</ele>
        <time>2022-05-28T15:21:02Z</time>
      </trkpt>
      <trkpt lat="48.03163" lon="6.89591">
        <ele>1034.5</ele>
        <time>2022-05-28T15:21:06Z</time>
      </trkpt>
      <trkpt lat="48.03171" lon="6.896">
        <ele>1037.6</ele>
        <time>2022-05-28T15:21:10Z</time>
      </trkpt>
      <trkpt lat="48.03178" lon="6.8961">
        <ele>1036.4</ele>
        <time>2022-05-28T15:21:14Z</time>
      </trkpt>
      <trkpt lat="48.03185" lon="6.89621">
        <ele>1036.6</ele>
        <time>2022-05-28T15:21:18Z</time>
      </trkpt>
      <trkpt lat="48.03192" lon="6.89632">
        <ele>1038.5</ele>
        <time>2022-05-28T15:21:22Z</time>
      </trkpt>
      <trkpt lat="48.03199" lon="6.89643">
        <ele>1039.3</ele>
        <time>2022-05-28T15:21:26Z</time>
      </trkpt>
      <trkpt lat="48.03205" lon="6.89655">
        <ele>1040.3</ele>
        <time>2022-05-28T15:21:30Z</time>
      </trkpt>
      <trkpt lat="48.03212" lon="6.89664">
        <ele>1040.1</ele>
        <time>2022-05-28T15:21:34Z</time>
      </trkpt>
      <trkpt lat="48.03221" lon="6.89672">
        <ele>1042.4</ele>
        <time>2022-05-28T15:21:38Z</time>
      </trkpt>
      <trkpt lat="48.03231" lon="6.89677">
        <ele>1040.5</ele>
        <time>2022-05-28T15:21:42Z</time>
      </trkpt>
      <trkpt lat="48.03242" lon="6.89681">
        <ele>1043.2</ele>
        <time>2022-05-28T15:21:46Z</time>
      </trkpt>
      <trkpt lat="48.03251" lon="6.89685">
        <ele>1043.2</ele>
        <time>2022-05-28T15:21:49Z</time>
      </trkpt>
      <trkpt lat="48.03261" lon="6.89689">
        <ele>1043.8</ele>
        <time>2022-05-28T15:21:52Z</time>
      </trkpt>
      <trkpt lat="48.03272" lon="6.89694">
        <ele>1043.2</ele>
        <time>2022-05-28T15:21:55Z</time>
      </trkpt>
      <trkpt lat="48.03281" lon="6.89702">
        <ele>1045.3</ele>
        <time>2022-05-28T15:21:58Z</time>
      </trkpt>
      <trkpt lat="48.03287" lon="6.89713">
        <ele>1044.5</ele>
        <time>2022-05-28T15:22:01Z</time>
      </trkpt>
      <trkpt lat="48.03291" lon="6.89725">
        <ele>1047.5</ele>
        <time>2022-05-28T15:22:04Z</time>
      </trkpt>
      <trkpt lat="48.03299" lon="6.89736">
        <ele>1047.4</ele>
        <time>2022-05-28T15:22:07Z</time>
      </trkpt>
      <trkpt lat="48.03306" lon="6.89746">
        <ele>1047.3</ele>
        <time>2022-05-28T15:22:10Z</time>
      </trkpt>
      <trkpt lat="48.03313" lon="6.89757">
        <ele>1047.3</ele>
        <time>2022-05-28T15:22:13Z</time>
      </trkpt>
      <trkpt lat="48.0332" lon="6.89766">
        <ele>1048.9</ele>
        <time>2022-05-28T15:22:16Z</time>
      </trkpt>
      <trkpt lat="48.03328" lon="6.89774">
        <ele>1050.9</ele>
        <time>2022-05-28T15:22:19Z</time>
      </trkpt>
      <trkpt lat="48.03337" lon="6.89781">
        <ele>1048.7</ele>
        <time>2022-05-28T15:22:22Z</time>
      </trkpt>
      <trkpt lat="48.03344" lon="6.89789">
        <ele>1048.7</ele>
        <time>2022-05-28T15:22:25Z</time>
      </trkpt>
      <trkpt lat="48.03351" lon="6.89797">
        <ele>1049.7</ele>
        <time>2022-05-28T15:22:28Z</time>
      </trkpt>
      <trkpt lat="48.0336" lon="6.89807">
        <ele>1050.2</ele>
        <time>2022-05-28T15:22:32Z</time>
      </trkpt>
      <trkpt lat="48.03367" lon="6.89815">
        <ele>1051.7</ele>
        <time>2022-05-28T15:22:39Z</time>
      </trkpt>
      <trkpt lat="48.03376" lon="6.89813">
        <ele>1052</ele>
        <time>2022-05-28T15:22:46Z</time>
      </trkpt>
      <trkpt lat="48.03379" lon="6.89816">
        <ele>1052.4</ele>
        <time>2022-05-28T15:22:51Z</time>
      </trkpt>
      <trkpt lat="48.03378" lon="6.89816">
        <ele>1052.4</ele>
        <time>2022-05-28T15:24:04Z</time>
      </trkpt>
      <trkpt lat="48.03379" lon="6.89817">
        <ele>1052.6</ele>
        <time>2022-05-28T15:24:42Z</time>
      </trkpt>
      <trkpt lat="48.03378" lon="6.89812">
        <ele>1052.8</ele>
        <time>2022-05-28T15:25:58Z</time>
      </trkpt>
      <trkpt lat="48.03378" lon="6.89812">
        <ele>1053.2</ele>
        <time>2022-05-28T15:27:03Z</time>
      </trkpt>
      <trkpt lat="48.03378" lon="6.89813">
        <ele>1052.9</ele>
        <time>2022-05-28T15:27:37Z</time>
      </trkpt>
      <trkpt lat="48.03381" lon="6.89818">
        <ele>1053.4</ele>
        <time>2022-05-28T15:27:46Z</time>
      </trkpt>
      <trkpt lat="48.03381" lon="6.89819">
        <ele>1053.9</ele>
        <time>2022-05-28T15:28:32Z</time>
      </trkpt>
      <trkpt lat="48.0338" lon="6.89819">
        <ele>1053.9</ele>
        <time>2022-05-28T15:28:34Z</time>
      </trkpt>
      <trkpt lat="48.03381" lon="6.8982">
        <ele>1053.7</ele>
        <time>2022-05-28T15:29:04Z</time>
      </trkpt>
      <trkpt lat="48.03389" lon="6.89826">
        <ele>1051.3</ele>
        <time>2022-05-28T15:29:09Z</time>
      </trkpt>
      <trkpt lat="48.03398" lon="6.89832">
        <ele>1051.6</ele>
        <time>2022-05-28T15:29:12Z</time>
      </trkpt>
      <trkpt lat="48.03408" lon="6.8984">
        <ele>1052.2</ele>
        <time>2022-05-28T15:29:16Z</time>
      </trkpt>
      <trkpt lat="48.03418" lon="6.89845">
        <ele>1052.9</ele>
        <time>2022-05-28T15:29:20Z</time>
      </trkpt>
      <trkpt lat="48.03429" lon="6.89849">
        <ele>1053</ele>
        <time>2022-05-28T15:29:23Z</time>
      </trkpt>
      <trkpt lat="48.03439" lon="6.8985">
        <ele>1052.2</ele>
        <time>2022-05-28T15:29:26Z</time>
      </trkpt>
      <trkpt lat="48.03448" lon="6.89849">
        <ele>1051.9</ele>
        <time>2022-05-28T15:29:29Z</time>
      </trkpt>
      <trkpt lat="48.03459" lon="6.89846">
        <ele>1051.7</ele>
        <time>2022-05-28T15:29:32Z</time>
      </trkpt>
      <trkpt lat="48.03468" lon="6.89845">
        <ele>1051.8</ele>
        <time>2022-05-28T15:29:35Z</time>
      </trkpt>
      <trkpt lat="48.03477" lon="6.89848">
        <ele>1054.5</ele>
        <time>2022-05-28T15:29:38Z</time>
      </trkpt>
      <trkpt lat="48.03486" lon="6.89859">
        <ele>1054.2</ele>
        <time>2022-05-28T15:29:42Z</time>
      </trkpt>
      <trkpt lat="48.03491" lon="6.89875">
        <ele>1055.3</ele>
        <time>2022-05-28T15:29:46Z</time>
      </trkpt>
      <trkpt lat="48.03491" lon="6.89891">
        <ele>1055.2</ele>
        <time>2022-05-28T15:29:50Z</time>
      </trkpt>
      <trkpt lat="48.03486" lon="6.89904">
        <ele>1057.5</ele>
        <time>2022-05-28T15:29:55Z</time>
      </trkpt>
      <trkpt lat="48.03481" lon="6.89918">
        <ele>1058.9</ele>
        <time>2022-05-28T15:30:00Z</time>
      </trkpt>
      <trkpt lat="48.03477" lon="6.89932">
        <ele>1057.9</ele>
        <time>2022-05-28T15:30:05Z</time>
      </trkpt>
      <trkpt lat="48.03472" lon="6.89946">
        <ele>1059.9</ele>
        <time>2022-05-28T15:30:10Z</time>
      </trkpt>
      <trkpt lat="48.03466" lon="6.89958">
        <ele>1060.9</ele>
        <time>2022-05-28T15:30:15Z</time>
      </trkpt>
      <trkpt lat="48.03461" lon="6.8997">
        <ele>1062.8</ele>
        <time>2022-05-28T15:30:20Z</time>
      </trkpt>
      <trkpt lat="48.03455" lon="6.89983">
        <ele>1063.5</ele>
        <time>2022-05-28T15:30:26Z</time>
      </trkpt>
      <trkpt lat="48.03453" lon="6.89997">
        <ele>1063.5</ele>
        <time>2022-05-28T15:30:31Z</time>
      </trkpt>
      <trkpt lat="48.03453" lon="6.90012">
        <ele>1065.2</ele>
        <time>2022-05-28T15:30:36Z</time>
      </trkpt>
      <trkpt lat="48.03451" lon="6.90028">
        <ele>1065.1</ele>
        <time>2022-05-28T15:30:41Z</time>
      </trkpt>
      <trkpt lat="48.03449" lon="6.90043">
        <ele>1065.7</ele>
        <time>2022-05-28T15:30:46Z</time>
      </trkpt>
      <trkpt lat="48.03445" lon="6.90057">
        <ele>1066.6</ele>
        <time>2022-05-28T15:30:51Z</time>
      </trkpt>
      <trkpt lat="48.03443" lon="6.9007">
        <ele>1066.9</ele>
        <time>2022-05-28T15:30:55Z</time>
      </trkpt>
      <trkpt lat="48.03441" lon="6.90084">
        <ele>1067.4</ele>
        <time>2022-05-28T15:30:59Z</time>
      </trkpt>
      <trkpt lat="48.03441" lon="6.901">
        <ele>1068</ele>
        <time>2022-05-28T15:31:04Z</time>
      </trkpt>
      <trkpt lat="48.03444" lon="6.90115">
        <ele>1068.3</ele>
        <time>2022-05-28T15:31:09Z</time>
      </trkpt>
      <trkpt lat="48.03448" lon="6.90127">
        <ele>1069.7</ele>
        <time>2022-05-28T15:31:14Z</time>
      </trkpt>
      <trkpt lat="48.03454" lon="6.90141">
        <ele>1071.6</ele>
        <time>2022-05-28T15:31:20Z</time>
      </trkpt>
      <trkpt lat="48.03459" lon="6.90153">
        <ele>1072.6</ele>
        <time>2022-05-28T15:31:26Z</time>
      </trkpt>
      <trkpt lat="48.03464" lon="6.90166">
        <ele>1072.6</ele>
        <time>2022-05-28T15:31:31Z</time>
      </trkpt>
      <trkpt lat="48.0347" lon="6.90177">
        <ele>1073.2</ele>
        <time>2022-05-28T15:31:36Z</time>
      </trkpt>
      <trkpt lat="48.0348" lon="6.90185">
        <ele>1072.8</ele>
        <time>2022-05-28T15:31:41Z</time>
      </trkpt>
      <trkpt lat="48.03489" lon="6.90189">
        <ele>1073.5</ele>
        <time>2022-05-28T15:31:45Z</time>
      </trkpt>
      <trkpt lat="48.035" lon="6.90193">
        <ele>1075.2</ele>
        <time>2022-05-28T15:31:50Z</time>
      </trkpt>
      <trkpt lat="48.03509" lon="6.902">
        <ele>1075</ele>
        <time>2022-05-28T15:31:54Z</time>
      </trkpt>
      <trkpt lat="48.03517" lon="6.90213">
        <ele>1075.4</ele>
        <time>2022-05-28T15:31:58Z</time>
      </trkpt>
      <trkpt lat="48.0352" lon="6.90226">
        <ele>1075.6</ele>
        <time>2022-05-28T15:32:01Z</time>
      </trkpt>
      <trkpt lat="48.03522" lon="6.90243">
        <ele>1077.4</ele>
        <time>2022-05-28T15:32:05Z</time>
      </trkpt>
      <trkpt lat="48.03522" lon="6.9026">
        <ele>1076.4</ele>
        <time>2022-05-28T15:32:09Z</time>
      </trkpt>
      <trkpt lat="48.03522" lon="6.90277">
        <ele>1076.3</ele>
        <time>2022-05-28T15:32:13Z</time>
      </trkpt>
      <trkpt lat="48.03523" lon="6.90291">
        <ele>1078.5</ele>
        <time>2022-05-28T15:32:16Z</time>
      </trkpt>
      <trkpt lat="48.03524" lon="6.90306">
        <ele>1077.5</ele>
        <time>2022-05-28T15:32:19Z</time>
      </trkpt>
      <trkpt lat="48.03523" lon="6.90323">
        <ele>1077.4</ele>
        <time>2022-05-28T15:32:23Z</time>
      </trkpt>
      <trkpt lat="48.03522" lon="6.90339">
        <ele>1075.1</ele>
        <time>2022-05-28T15:32:26Z</time>
      </trkpt>
      <trkpt lat="48.03521" lon="6.90353">
        <ele>1073.8</ele>
        <time>2022-05-28T15:32:28Z</time>
      </trkpt>
      <trkpt lat="48.03519" lon="6.9037">
        <ele>1071.9</ele>
        <time>2022-05-28T15:32:30Z</time>
      </trkpt>
      <trkpt lat="48.03518" lon="6.90387">
        <ele>1071.8</ele>
        <time>2022-05-28T15:32:32Z</time>
      </trkpt>
      <trkpt lat="48.03516" lon="6.90405">
        <ele>1073.3</ele>
        <time>2022-05-28T15:32:35Z</time>
      </trkpt>
      <trkpt lat="48.03512" lon="6.90421">
        <ele>1074.1</ele>
        <time>2022-05-28T15:32:39Z</time>
      </trkpt>
      <trkpt lat="48.03508" lon="6.90437">
        <ele>1074.9</ele>
        <time>2022-05-28T15:32:43Z</time>
      </trkpt>
      <trkpt lat="48.035" lon="6.90446">
        <ele>1076.1</ele>
        <time>2022-05-28T15:32:46Z</time>
      </trkpt>
      <trkpt lat="48.03489" lon="6.90454">
        <ele>1076.3</ele>
        <time>2022-05-28T15:32:49Z</time>
      </trkpt>
      <trkpt lat="48.0348" lon="6.90462">
        <ele>1076.4</ele>
        <time>2022-05-28T15:32:52Z</time>
      </trkpt>
      <trkpt lat="48.03475" lon="6.90474">
        <ele>1076</ele>
        <time>2022-05-28T15:32:55Z</time>
      </trkpt>
      <trkpt lat="48.03478" lon="6.90491">
        <ele>1074.4</ele>
        <time>2022-05-28T15:32:58Z</time>
      </trkpt>
      <trkpt lat="48.03481" lon="6.90505">
        <ele>1069.3</ele>
        <time>2022-05-28T15:33:00Z</time>
      </trkpt>
      <trkpt lat="48.03479" lon="6.9052">
        <ele>1068.6</ele>
        <time>2022-05-28T15:33:02Z</time>
      </trkpt>
      <trkpt lat="48.03476" lon="6.90537">
        <ele>1066.7</ele>
        <time>2022-05-28T15:33:04Z</time>
      </trkpt>
      <trkpt lat="48.0347" lon="6.90552">
        <ele>1066.6</ele>
        <time>2022-05-28T15:33:06Z</time>
      </trkpt>
      <trkpt lat="48.0346" lon="6.90561">
        <ele>1066.2</ele>
        <time>2022-05-28T15:33:08Z</time>
      </trkpt>
      <trkpt lat="48.0345" lon="6.90569">
        <ele>1067.8</ele>
        <time>2022-05-28T15:33:10Z</time>
      </trkpt>
      <trkpt lat="48.03441" lon="6.90583">
        <ele>1065.1</ele>
        <time>2022-05-28T15:33:12Z</time>
      </trkpt>
      <trkpt lat="48.03435" lon="6.90602">
        <ele>1064.4</ele>
        <time>2022-05-28T15:33:14Z</time>
      </trkpt>
      <trkpt lat="48.0343" lon="6.90623">
        <ele>1065.1</ele>
        <time>2022-05-28T15:33:16Z</time>
      </trkpt>
      <trkpt lat="48.03424" lon="6.90645">
        <ele>1060.8</ele>
        <time>2022-05-28T15:33:18Z</time>
      </trkpt>
      <trkpt lat="48.03419" lon="6.90669">
        <ele>1058.6</ele>
        <time>2022-05-28T15:33:20Z</time>
      </trkpt>
      <trkpt lat="48.03415" lon="6.90681">
        <ele>1058.8</ele>
        <time>2022-05-28T15:33:21Z</time>
      </trkpt>
      <trkpt lat="48.03411" lon="6.90693">
        <ele>1057.7</ele>
        <time>2022-05-28T15:33:22Z</time>
      </trkpt>
      <trkpt lat="48.03406" lon="6.90706">
        <ele>1058.8</ele>
        <time>2022-05-28T15:33:23Z</time>
      </trkpt>
      <trkpt lat="48.03403" lon="6.90719">
        <ele>1059.8</ele>
        <time>2022-05-28T15:33:24Z</time>
      </trkpt>
      <trkpt lat="48.034" lon="6.90732">
        <ele>1059.3</ele>
        <time>2022-05-28T15:33:25Z</time>
      </trkpt>
      <trkpt lat="48.03394" lon="6.90755">
        <ele>1060</ele>
        <time>2022-05-28T15:33:27Z</time>
      </trkpt>
      <trkpt lat="48.03386" lon="6.90771">
        <ele>1058.2</ele>
        <time>2022-05-28T15:33:29Z</time>
      </trkpt>
      <trkpt lat="48.0338" lon="6.90787">
        <ele>1058.8</ele>
        <time>2022-05-28T15:33:31Z</time>
      </trkpt>
      <trkpt lat="48.0338" lon="6.90806">
        <ele>1057.4</ele>
        <time>2022-05-28T15:33:33Z</time>
      </trkpt>
      <trkpt lat="48.03382" lon="6.90825">
        <ele>1057.7</ele>
        <time>2022-05-28T15:33:35Z</time>
      </trkpt>
      <trkpt lat="48.03386" lon="6.90843">
        <ele>1057</ele>
        <time>2022-05-28T15:33:37Z</time>
      </trkpt>
      <trkpt lat="48.03391" lon="6.90861">
        <ele>1055.9</ele>
        <time>2022-05-28T15:33:39Z</time>
      </trkpt>
      <trkpt lat="48.03396" lon="6.90878">
        <ele>1056.4</ele>
        <time>2022-05-28T15:33:41Z</time>
      </trkpt>
      <trkpt lat="48.034" lon="6.90893">
        <ele>1056.8</ele>
        <time>2022-05-28T15:33:43Z</time>
      </trkpt>
      <trkpt lat="48.03406" lon="6.9091">
        <ele>1058.9</ele>
        <time>2022-05-28T15:33:46Z</time>
      </trkpt>
      <trkpt lat="48.0341" lon="6.90925">
        <ele>1058.3</ele>
        <time>2022-05-28T15:33:49Z</time>
      </trkpt>
      <trkpt lat="48.03413" lon="6.90944">
        <ele>1056.6</ele>
        <time>2022-05-28T15:33:52Z</time>
      </trkpt>
      <trkpt lat="48.03415" lon="6.90957">
        <ele>1058.7</ele>
        <time>2022-05-28T15:33:54Z</time>
      </trkpt>
      <trkpt lat="48.03418" lon="6.90975">
        <ele>1059.5</ele>
        <time>2022-05-28T15:33:57Z</time>
      </trkpt>
      <trkpt lat="48.03422" lon="6.90991">
        <ele>1059</ele>
        <time>2022-05-28T15:34:00Z</time>
      </trkpt>
      <trkpt lat="48.03428" lon="6.91007">
        <ele>1059.5</ele>
        <time>2022-05-28T15:34:03Z</time>
      </trkpt>
      <trkpt lat="48.03436" lon="6.9102">
        <ele>1060.1</ele>
        <time>2022-05-28T15:34:06Z</time>
      </trkpt>
      <trkpt lat="48.03443" lon="6.9103">
        <ele>1056.8</ele>
        <time>2022-05-28T15:34:08Z</time>
      </trkpt>
      <trkpt lat="48.03451" lon="6.9104">
        <ele>1057.7</ele>
        <time>2022-05-28T15:34:10Z</time>
      </trkpt>
      <trkpt lat="48.03459" lon="6.91051">
        <ele>1058.8</ele>
        <time>2022-05-28T15:34:12Z</time>
      </trkpt>
      <trkpt lat="48.03467" lon="6.91062">
        <ele>1056.5</ele>
        <time>2022-05-28T15:34:14Z</time>
      </trkpt>
      <trkpt lat="48.03475" lon="6.91075">
        <ele>1056</ele>
        <time>2022-05-28T15:34:16Z</time>
      </trkpt>
      <trkpt lat="48.03483" lon="6.91085">
        <ele>1057.4</ele>
        <time>2022-05-28T15:34:18Z</time>
      </trkpt>
      <trkpt lat="48.03492" lon="6.91096">
        <ele>1060.4</ele>
        <time>2022-05-28T15:34:21Z</time>
      </trkpt>
      <trkpt lat="48.035" lon="6.91105">
        <ele>1060.8</ele>
        <time>2022-05-28T15:34:24Z</time>
      </trkpt>
      <trkpt lat="48.03509" lon="6.91116">
        <ele>1061.9</ele>
        <time>2022-05-28T15:34:28Z</time>
      </trkpt>
      <trkpt lat="48.03517" lon="6.91123">
        <ele>1061.6</ele>
        <time>2022-05-28T15:34:31Z</time>
      </trkpt>
      <trkpt lat="48.03526" lon="6.91128">
        <ele>1062.8</ele>
        <time>2022-05-28T15:34:34Z</time>
      </trkpt>
      <trkpt lat="48.03535" lon="6.91136">
        <ele>1063.7</ele>
        <time>2022-05-28T15:34:38Z</time>
      </trkpt>
      <trkpt lat="48.03544" lon="6.91145">
        <ele>1065.9</ele>
        <time>2022-05-28T15:34:42Z</time>
      </trkpt>
      <trkpt lat="48.03554" lon="6.91154">
        <ele>1066.2</ele>
        <time>2022-05-28T15:34:46Z</time>
      </trkpt>
      <trkpt lat="48.03563" lon="6.91163">
        <ele>1067.4</ele>
        <time>2022-05-28T15:34:50Z</time>
      </trkpt>
      <trkpt lat="48.03573" lon="6.91172">
        <ele>1067.1</ele>
        <time>2022-05-28T15:34:54Z</time>
      </trkpt>
      <trkpt lat="48.03582" lon="6.91178">
        <ele>1067.8</ele>
        <time>2022-05-28T15:34:58Z</time>
      </trkpt>
      <trkpt lat="48.03592" lon="6.91182">
        <ele>1068.7</ele>
        <time>2022-05-28T15:35:02Z</time>
      </trkpt>
      <trkpt lat="48.03601" lon="6.91189">
        <ele>1067.8</ele>
        <time>2022-05-28T15:35:05Z</time>
      </trkpt>
      <trkpt lat="48.03613" lon="6.91197">
        <ele>1065.3</ele>
        <time>2022-05-28T15:35:08Z</time>
      </trkpt>
      <trkpt lat="48.03622" lon="6.91202">
        <ele>1065</ele>
        <time>2022-05-28T15:35:10Z</time>
      </trkpt>
      <trkpt lat="48.03631" lon="6.91206">
        <ele>1066</ele>
        <time>2022-05-28T15:35:12Z</time>
      </trkpt>
      <trkpt lat="48.0364" lon="6.91209">
        <ele>1066.4</ele>
        <time>2022-05-28T15:35:14Z</time>
      </trkpt>
      <trkpt lat="48.03649" lon="6.91213">
        <ele>1065.8</ele>
        <time>2022-05-28T15:35:16Z</time>
      </trkpt>
      <trkpt lat="48.03658" lon="6.91216">
        <ele>1065.2</ele>
        <time>2022-05-28T15:35:18Z</time>
      </trkpt>
      <trkpt lat="48.0367" lon="6.91223">
        <ele>1065.9</ele>
        <time>2022-05-28T15:35:21Z</time>
      </trkpt>
      <trkpt lat="48.03679" lon="6.91229">
        <ele>1064.8</ele>
        <time>2022-05-28T15:35:23Z</time>
      </trkpt>
      <trkpt lat="48.03687" lon="6.91236">
        <ele>1062.9</ele>
        <time>2022-05-28T15:35:25Z</time>
      </trkpt>
      <trkpt lat="48.03695" lon="6.91244">
        <ele>1062.1</ele>
        <time>2022-05-28T15:35:27Z</time>
      </trkpt>
      <trkpt lat="48.03704" lon="6.91253">
        <ele>1062.4</ele>
        <time>2022-05-28T15:35:29Z</time>
      </trkpt>
      <trkpt lat="48.03714" lon="6.91264">
        <ele>1062.6</ele>
        <time>2022-05-28T15:35:31Z</time>
      </trkpt>
      <trkpt lat="48.03723" lon="6.91276">
        <ele>1064.5</ele>
        <time>2022-05-28T15:35:33Z</time>
      </trkpt>
      <trkpt lat="48.03732" lon="6.9129">
        <ele>1061.6</ele>
        <time>2022-05-28T15:35:35Z</time>
      </trkpt>
      <trkpt lat="48.03741" lon="6.91303">
        <ele>1062</ele>
        <time>2022-05-28T15:35:37Z</time>
      </trkpt>
      <trkpt lat="48.03749" lon="6.91315">
        <ele>1063</ele>
        <time>2022-05-28T15:35:39Z</time>
      </trkpt>
      <trkpt lat="48.03756" lon="6.91327">
        <ele>1063.4</ele>
        <time>2022-05-28T15:35:41Z</time>
      </trkpt>
      <trkpt lat="48.03762" lon="6.91339">
        <ele>1064.7</ele>
        <time>2022-05-28T15:35:43Z</time>
      </trkpt>
      <trkpt lat="48.03768" lon="6.91351">
        <ele>1064.6</ele>
        <time>2022-05-28T15:35:45Z</time>
      </trkpt>
      <trkpt lat="48.03777" lon="6.91366">
        <ele>1063.2</ele>
        <time>2022-05-28T15:35:48Z</time>
      </trkpt>
      <trkpt lat="48.03784" lon="6.91375">
        <ele>1064.8</ele>
        <time>2022-05-28T15:35:50Z</time>
      </trkpt>
      <trkpt lat="48.03791" lon="6.91383">
        <ele>1065.4</ele>
        <time>2022-05-28T15:35:52Z</time>
      </trkpt>
      <trkpt lat="48.03801" lon="6.91395">
        <ele>1066</ele>
        <time>2022-05-28T15:35:55Z</time>
      </trkpt>
      <trkpt lat="48.03811" lon="6.91404">
        <ele>1065.2</ele>
        <time>2022-05-28T15:35:58Z</time>
      </trkpt>
      <trkpt lat="48.03818" lon="6.91415">
        <ele>1067.5</ele>
        <time>2022-05-28T15:36:01Z</time>
      </trkpt>
      <trkpt lat="48.03822" lon="6.9143">
        <ele>1067.2</ele>
        <time>2022-05-28T15:36:04Z</time>
      </trkpt>
      <trkpt lat="48.03825" lon="6.91447">
        <ele>1067.2</ele>
        <time>2022-05-28T15:36:07Z</time>
      </trkpt>
      <trkpt lat="48.03829" lon="6.91465">
        <ele>1067.8</ele>
        <time>2022-05-28T15:36:10Z</time>
      </trkpt>
      <trkpt lat="48.03832" lon="6.91479">
        <ele>1067.7</ele>
        <time>2022-05-28T15:36:12Z</time>
      </trkpt>
      <trkpt lat="48.03836" lon="6.91493">
        <ele>1066.5</ele>
        <time>2022-05-28T15:36:14Z</time>
      </trkpt>
      <trkpt lat="48.03842" lon="6.91507">
        <ele>1066</ele>
        <time>2022-05-28T15:36:16Z</time>
      </trkpt>
      <trkpt lat="48.03849" lon="6.9152">
        <ele>1064.9</ele>
        <time>2022-05-28T15:36:18Z</time>
      </trkpt>
      <trkpt lat="48.03856" lon="6.91532">
        <ele>1064.1</ele>
        <time>2022-05-28T15:36:20Z</time>
      </trkpt>
      <trkpt lat="48.03863" lon="6.91542">
        <ele>1065.2</ele>
        <time>2022-05-28T15:36:22Z</time>
      </trkpt>
      <trkpt lat="48.03871" lon="6.91551">
        <ele>1067.5</ele>
        <time>2022-05-28T15:36:24Z</time>
      </trkpt>
      <trkpt lat="48.03882" lon="6.91563">
        <ele>1068</ele>
        <time>2022-05-28T15:36:27Z</time>
      </trkpt>
      <trkpt lat="48.0389" lon="6.9157">
        <ele>1067.4</ele>
        <time>2022-05-28T15:36:29Z</time>
      </trkpt>
      <trkpt lat="48.03898" lon="6.91576">
        <ele>1065.8</ele>
        <time>2022-05-28T15:36:31Z</time>
      </trkpt>
      <trkpt lat="48.03907" lon="6.91581">
        <ele>1066.9</ele>
        <time>2022-05-28T15:36:33Z</time>
      </trkpt>
      <trkpt lat="48.03916" lon="6.91583">
        <ele>1066.4</ele>
        <time>2022-05-28T15:36:35Z</time>
      </trkpt>
      <trkpt lat="48.03925" lon="6.91585">
        <ele>1066.6</ele>
        <time>2022-05-28T15:36:37Z</time>
      </trkpt>
      <trkpt lat="48.03934" lon="6.91587">
        <ele>1066.7</ele>
        <time>2022-05-28T15:36:39Z</time>
      </trkpt>
      <trkpt lat="48.03943" lon="6.91588">
        <ele>1066.5</ele>
        <time>2022-05-28T15:36:41Z</time>
      </trkpt>
      <trkpt lat="48.03954" lon="6.91594">
        <ele>1068.3</ele>
        <time>2022-05-28T15:36:44Z</time>
      </trkpt>
      <trkpt lat="48.03962" lon="6.91604">
        <ele>1067.6</ele>
        <time>2022-05-28T15:36:47Z</time>
      </trkpt>
      <trkpt lat="48.03969" lon="6.91614">
        <ele>1067</ele>
        <time>2022-05-28T15:36:49Z</time>
      </trkpt>
      <trkpt lat="48.03977" lon="6.91623">
        <ele>1065.6</ele>
        <time>2022-05-28T15:36:51Z</time>
      </trkpt>
      <trkpt lat="48.03986" lon="6.91633">
        <ele>1066.4</ele>
        <time>2022-05-28T15:36:54Z</time>
      </trkpt>
      <trkpt lat="48.03987" lon="6.91636">
        <ele>1066.9</ele>
        <time>2022-05-28T15:37:00Z</time>
      </trkpt>
      <trkpt lat="48.03988" lon="6.91637">
        <ele>1066.9</ele>
        <time>2022-05-28T15:37:48Z</time>
      </trkpt>
      <trkpt lat="48.03996" lon="6.91647">
        <ele>1067</ele>
        <time>2022-05-28T15:37:55Z</time>
      </trkpt>
      <trkpt lat="48.04004" lon="6.91657">
        <ele>1069.9</ele>
        <time>2022-05-28T15:38:01Z</time>
      </trkpt>
      <trkpt lat="48.04013" lon="6.91666">
        <ele>1069.4</ele>
        <time>2022-05-28T15:38:06Z</time>
      </trkpt>
      <trkpt lat="48.04021" lon="6.91675">
        <ele>1071.6</ele>
        <time>2022-05-28T15:38:11Z</time>
      </trkpt>
      <trkpt lat="48.04029" lon="6.91685">
        <ele>1071</ele>
        <time>2022-05-28T15:38:15Z</time>
      </trkpt>
      <trkpt lat="48.04035" lon="6.91697">
        <ele>1071</ele>
        <time>2022-05-28T15:38:19Z</time>
      </trkpt>
      <trkpt lat="48.04042" lon="6.91707">
        <ele>1070.9</ele>
        <time>2022-05-28T15:38:23Z</time>
      </trkpt>
      <trkpt lat="48.04049" lon="6.91717">
        <ele>1070.6</ele>
        <time>2022-05-28T15:38:27Z</time>
      </trkpt>
      <trkpt lat="48.04055" lon="6.91732">
        <ele>1070.9</ele>
        <time>2022-05-28T15:38:31Z</time>
      </trkpt>
      <trkpt lat="48.04057" lon="6.91747">
        <ele>1071</ele>
        <time>2022-05-28T15:38:35Z</time>
      </trkpt>
      <trkpt lat="48.04061" lon="6.9176">
        <ele>1070.3</ele>
        <time>2022-05-28T15:38:39Z</time>
      </trkpt>
      <trkpt lat="48.04062" lon="6.91776">
        <ele>1070</ele>
        <time>2022-05-28T15:38:42Z</time>
      </trkpt>
      <trkpt lat="48.04067" lon="6.91792">
        <ele>1070</ele>
        <time>2022-05-28T15:38:45Z</time>
      </trkpt>
      <trkpt lat="48.04073" lon="6.91808">
        <ele>1069.5</ele>
        <time>2022-05-28T15:38:48Z</time>
      </trkpt>
      <trkpt lat="48.04081" lon="6.91825">
        <ele>1068.2</ele>
        <time>2022-05-28T15:38:51Z</time>
      </trkpt>
      <trkpt lat="48.04088" lon="6.91841">
        <ele>1068.8</ele>
        <time>2022-05-28T15:38:54Z</time>
      </trkpt>
      <trkpt lat="48.04093" lon="6.91853">
        <ele>1067.1</ele>
        <time>2022-05-28T15:38:56Z</time>
      </trkpt>
      <trkpt lat="48.041" lon="6.91864">
        <ele>1066.6</ele>
        <time>2022-05-28T15:38:58Z</time>
      </trkpt>
      <trkpt lat="48.0411" lon="6.91872">
        <ele>1062.4</ele>
        <time>2022-05-28T15:39:01Z</time>
      </trkpt>
      <trkpt lat="48.04122" lon="6.91878">
        <ele>1062.4</ele>
        <time>2022-05-28T15:39:04Z</time>
      </trkpt>
      <trkpt lat="48.04131" lon="6.91884">
        <ele>1061.6</ele>
        <time>2022-05-28T15:39:06Z</time>
      </trkpt>
      <trkpt lat="48.04142" lon="6.91893">
        <ele>1061.8</ele>
        <time>2022-05-28T15:39:08Z</time>
      </trkpt>
      <trkpt lat="48.04155" lon="6.91902">
        <ele>1062.3</ele>
        <time>2022-05-28T15:39:10Z</time>
      </trkpt>
      <trkpt lat="48.04168" lon="6.91909">
        <ele>1063</ele>
        <time>2022-05-28T15:39:12Z</time>
      </trkpt>
      <trkpt lat="48.0418" lon="6.91916">
        <ele>1063.6</ele>
        <time>2022-05-28T15:39:14Z</time>
      </trkpt>
      <trkpt lat="48.04189" lon="6.91924">
        <ele>1062.7</ele>
        <time>2022-05-28T15:39:16Z</time>
      </trkpt>
      <trkpt lat="48.04198" lon="6.91932">
        <ele>1063.7</ele>
        <time>2022-05-28T15:39:18Z</time>
      </trkpt>
      <trkpt lat="48.04209" lon="6.9194">
        <ele>1065.8</ele>
        <time>2022-05-28T15:39:21Z</time>
      </trkpt>
      <trkpt lat="48.04218" lon="6.9195">
        <ele>1065.1</ele>
        <time>2022-05-28T15:39:24Z</time>
      </trkpt>
      <trkpt lat="48.04227" lon="6.91959">
        <ele>1067.4</ele>
        <time>2022-05-28T15:39:27Z</time>
      </trkpt>
      <trkpt lat="48.04235" lon="6.91969">
        <ele>1068.1</ele>
        <time>2022-05-28T15:39:30Z</time>
      </trkpt>
      <trkpt lat="48.04243" lon="6.91976">
        <ele>1067.6</ele>
        <time>2022-05-28T15:39:33Z</time>
      </trkpt>
      <trkpt lat="48.04252" lon="6.91981">
        <ele>1068.2</ele>
        <time>2022-05-28T15:39:36Z</time>
      </trkpt>
      <trkpt lat="48.0426" lon="6.91986">
        <ele>1070.6</ele>
        <time>2022-05-28T15:39:39Z</time>
      </trkpt>
      <trkpt lat="48.04269" lon="6.91992">
        <ele>1069.7</ele>
        <time>2022-05-28T15:39:43Z</time>
      </trkpt>
      <trkpt lat="48.04278" lon="6.91999">
        <ele>1072.7</ele>
        <time>2022-05-28T15:39:48Z</time>
      </trkpt>
      <trkpt lat="48.04288" lon="6.92007">
        <ele>1073.3</ele>
        <time>2022-05-28T15:39:53Z</time>
      </trkpt>
      <trkpt lat="48.04296" lon="6.92015">
        <ele>1073.7</ele>
        <time>2022-05-28T15:39:57Z</time>
      </trkpt>
      <trkpt lat="48.04306" lon="6.92022">
        <ele>1074.8</ele>
        <time>2022-05-28T15:40:01Z</time>
      </trkpt>
      <trkpt lat="48.04316" lon="6.9203">
        <ele>1075.7</ele>
        <time>2022-05-28T15:40:05Z</time>
      </trkpt>
      <trkpt lat="48.04324" lon="6.92036">
        <ele>1077</ele>
        <time>2022-05-28T15:40:09Z</time>
      </trkpt>
      <trkpt lat="48.04332" lon="6.92047">
        <ele>1075.8</ele>
        <time>2022-05-28T15:40:14Z</time>
      </trkpt>
      <trkpt lat="48.0434" lon="6.92061">
        <ele>1072.1</ele>
        <time>2022-05-28T15:40:17Z</time>
      </trkpt>
      <trkpt lat="48.04346" lon="6.92072">
        <ele>1073.5</ele>
        <time>2022-05-28T15:40:19Z</time>
      </trkpt>
      <trkpt lat="48.04352" lon="6.92083">
        <ele>1074.8</ele>
        <time>2022-05-28T15:40:21Z</time>
      </trkpt>
      <trkpt lat="48.04358" lon="6.92094">
        <ele>1074.3</ele>
        <time>2022-05-28T15:40:23Z</time>
      </trkpt>
      <trkpt lat="48.04365" lon="6.9211">
        <ele>1073.8</ele>
        <time>2022-05-28T15:40:26Z</time>
      </trkpt>
      <trkpt lat="48.04372" lon="6.92125">
        <ele>1072.8</ele>
        <time>2022-05-28T15:40:29Z</time>
      </trkpt>
      <trkpt lat="48.0438" lon="6.92139">
        <ele>1072.8</ele>
        <time>2022-05-28T15:40:32Z</time>
      </trkpt>
      <trkpt lat="48.0439" lon="6.92149">
        <ele>1072.4</ele>
        <time>2022-05-28T15:40:36Z</time>
      </trkpt>
      <trkpt lat="48.04397" lon="6.92163">
        <ele>1070.2</ele>
        <time>2022-05-28T15:40:40Z</time>
      </trkpt>
      <trkpt lat="48.04404" lon="6.92177">
        <ele>1067.2</ele>
        <time>2022-05-28T15:40:43Z</time>
      </trkpt>
      <trkpt lat="48.04402" lon="6.92193">
        <ele>1066.4</ele>
        <time>2022-05-28T15:40:47Z</time>
      </trkpt>
      <trkpt lat="48.04395" lon="6.92206">
        <ele>1064.7</ele>
        <time>2022-05-28T15:40:50Z</time>
      </trkpt>
      <trkpt lat="48.04387" lon="6.92214">
        <ele>1063.5</ele>
        <time>2022-05-28T15:40:52Z</time>
      </trkpt>
      <trkpt lat="48.04378" lon="6.92219">
        <ele>1063.2</ele>
        <time>2022-05-28T15:40:54Z</time>
      </trkpt>
      <trkpt lat="48.04369" lon="6.92218">
        <ele>1063</ele>
        <time>2022-05-28T15:40:58Z</time>
      </trkpt>
      <trkpt lat="48.04358" lon="6.92217">
        <ele>1060.2</ele>
        <time>2022-05-28T15:41:01Z</time>
      </trkpt>
      <trkpt lat="48.04349" lon="6.92213">
        <ele>1058.3</ele>
        <time>2022-05-28T15:41:03Z</time>
      </trkpt>
      <trkpt lat="48.04339" lon="6.92206">
        <ele>1058.8</ele>
        <time>2022-05-28T15:41:05Z</time>
      </trkpt>
      <trkpt lat="48.04329" lon="6.92199">
        <ele>1057.4</ele>
        <time>2022-05-28T15:41:07Z</time>
      </trkpt>
      <trkpt lat="48.04321" lon="6.92189">
        <ele>1056.6</ele>
        <time>2022-05-28T15:41:09Z</time>
      </trkpt>
      <trkpt lat="48.04311" lon="6.92178">
        <ele>1055.6</ele>
        <time>2022-05-28T15:41:11Z</time>
      </trkpt>
      <trkpt lat="48.043" lon="6.92166">
        <ele>1053.3</ele>
        <time>2022-05-28T15:41:13Z</time>
      </trkpt>
      <trkpt lat="48.04291" lon="6.92151">
        <ele>1052</ele>
        <time>2022-05-28T15:41:15Z</time>
      </trkpt>
      <trkpt lat="48.04284" lon="6.92134">
        <ele>1051.5</ele>
        <time>2022-05-28T15:41:17Z</time>
      </trkpt>
      <trkpt lat="48.04278" lon="6.92117">
        <ele>1051.3</ele>
        <time>2022-05-28T15:41:19Z</time>
      </trkpt>
      <trkpt lat="48.04267" lon="6.92104">
        <ele>1049.5</ele>
        <time>2022-05-28T15:41:21Z</time>
      </trkpt>
      <trkpt lat="48.04254" lon="6.9209">
        <ele>1045.6</ele>
        <time>2022-05-28T15:41:23Z</time>
      </trkpt>
      <trkpt lat="48.04242" lon="6.92076">
        <ele>1047.6</ele>
        <time>2022-05-28T15:41:25Z</time>
      </trkpt>
      <trkpt lat="48.04233" lon="6.92064">
        <ele>1046.3</ele>
        <time>2022-05-28T15:41:27Z</time>
      </trkpt>
      <trkpt lat="48.04228" lon="6.92052">
        <ele>1045.7</ele>
        <time>2022-05-28T15:41:29Z</time>
      </trkpt>
      <trkpt lat="48.04219" lon="6.92041">
        <ele>1045.9</ele>
        <time>2022-05-28T15:41:32Z</time>
      </trkpt>
      <trkpt lat="48.04209" lon="6.92039">
        <ele>1045.3</ele>
        <time>2022-05-28T15:41:34Z</time>
      </trkpt>
      <trkpt lat="48.04198" lon="6.92035">
        <ele>1043</ele>
        <time>2022-05-28T15:41:37Z</time>
      </trkpt>
      <trkpt lat="48.04201" lon="6.92047">
        <ele>1042.1</ele>
        <time>2022-05-28T15:41:44Z</time>
      </trkpt>
      <trkpt lat="48.04202" lon="6.92046">
        <ele>1042.1</ele>
        <time>2022-05-28T15:41:51Z</time>
      </trkpt>
      <trkpt lat="48.04204" lon="6.92046">
        <ele>1041.9</ele>
        <time>2022-05-28T15:41:53Z</time>
      </trkpt>
      <trkpt lat="48.04204" lon="6.92047">
        <ele>1041.8</ele>
        <time>2022-05-28T15:42:14Z</time>
      </trkpt>
      <trkpt lat="48.04211" lon="6.92056">
        <ele>1041.5</ele>
        <time>2022-05-28T15:42:18Z</time>
      </trkpt>
      <trkpt lat="48.04219" lon="6.92068">
        <ele>1040.6</ele>
        <time>2022-05-28T15:42:22Z</time>
      </trkpt>
      <trkpt lat="48.04224" lon="6.92073">
        <ele>1041.5</ele>
        <time>2022-05-28T15:42:27Z</time>
      </trkpt>
      <trkpt lat="48.04224" lon="6.92073">
        <ele>1041.9</ele>
        <time>2022-05-28T15:42:58Z</time>
      </trkpt>
      <trkpt lat="48.04225" lon="6.92073">
        <ele>1041.8</ele>
        <time>2022-05-28T15:43:00Z</time>
      </trkpt>
      <trkpt lat="48.04226" lon="6.92072">
        <ele>1042</ele>
        <time>2022-05-28T15:43:16Z</time>
      </trkpt>
      <trkpt lat="48.0423" lon="6.92084">
        <ele>1041.8</ele>
        <time>2022-05-28T15:43:28Z</time>
      </trkpt>
      <trkpt lat="48.04235" lon="6.92101">
        <ele>1042.1</ele>
        <time>2022-05-28T15:43:32Z</time>
      </trkpt>
      <trkpt lat="48.04239" lon="6.92114">
        <ele>1042.4</ele>
        <time>2022-05-28T15:43:35Z</time>
      </trkpt>
      <trkpt lat="48.04245" lon="6.92126">
        <ele>1042.2</ele>
        <time>2022-05-28T15:43:38Z</time>
      </trkpt>
      <trkpt lat="48.04252" lon="6.92138">
        <ele>1041.5</ele>
        <time>2022-05-28T15:43:41Z</time>
      </trkpt>
      <trkpt lat="48.04258" lon="6.92148">
        <ele>1042.1</ele>
        <time>2022-05-28T15:43:43Z</time>
      </trkpt>
      <trkpt lat="48.04265" lon="6.92165">
        <ele>1042.6</ele>
        <time>2022-05-28T15:43:46Z</time>
      </trkpt>
      <trkpt lat="48.04266" lon="6.92183">
        <ele>1042.8</ele>
        <time>2022-05-28T15:43:49Z</time>
      </trkpt>
      <trkpt lat="48.04266" lon="6.92196">
        <ele>1042.9</ele>
        <time>2022-05-28T15:43:51Z</time>
      </trkpt>
      <trkpt lat="48.04265" lon="6.92214">
        <ele>1041.8</ele>
        <time>2022-05-28T15:43:54Z</time>
      </trkpt>
      <trkpt lat="48.04264" lon="6.92232">
        <ele>1042.1</ele>
        <time>2022-05-28T15:43:57Z</time>
      </trkpt>
      <trkpt lat="48.04263" lon="6.92245">
        <ele>1042</ele>
        <time>2022-05-28T15:43:59Z</time>
      </trkpt>
      <trkpt lat="48.04263" lon="6.92259">
        <ele>1042.4</ele>
        <time>2022-05-28T15:44:01Z</time>
      </trkpt>
      <trkpt lat="48.04264" lon="6.92274">
        <ele>1041.9</ele>
        <time>2022-05-28T15:44:03Z</time>
      </trkpt>
      <trkpt lat="48.04266" lon="6.92289">
        <ele>1042.6</ele>
        <time>2022-05-28T15:44:05Z</time>
      </trkpt>
      <trkpt lat="48.04267" lon="6.92302">
        <ele>1042.9</ele>
        <time>2022-05-28T15:44:07Z</time>
      </trkpt>
      <trkpt lat="48.04271" lon="6.92316">
        <ele>1041.7</ele>
        <time>2022-05-28T15:44:09Z</time>
      </trkpt>
      <trkpt lat="48.04275" lon="6.9233">
        <ele>1039.5</ele>
        <time>2022-05-28T15:44:11Z</time>
      </trkpt>
      <trkpt lat="48.04279" lon="6.92344">
        <ele>1039.1</ele>
        <time>2022-05-28T15:44:13Z</time>
      </trkpt>
      <trkpt lat="48.04283" lon="6.92357">
        <ele>1039.7</ele>
        <time>2022-05-28T15:44:15Z</time>
      </trkpt>
      <trkpt lat="48.04287" lon="6.9237">
        <ele>1039.2</ele>
        <time>2022-05-28T15:44:17Z</time>
      </trkpt>
      <trkpt lat="48.04292" lon="6.92382">
        <ele>1040.1</ele>
        <time>2022-05-28T15:44:19Z</time>
      </trkpt>
      <trkpt lat="48.04299" lon="6.92391">
        <ele>1040.4</ele>
        <time>2022-05-28T15:44:21Z</time>
      </trkpt>
      <trkpt lat="48.04308" lon="6.92396">
        <ele>1039.6</ele>
        <time>2022-05-28T15:44:23Z</time>
      </trkpt>
      <trkpt lat="48.04318" lon="6.92397">
        <ele>1038.9</ele>
        <time>2022-05-28T15:44:25Z</time>
      </trkpt>
      <trkpt lat="48.04327" lon="6.92394">
        <ele>1038.7</ele>
        <time>2022-05-28T15:44:27Z</time>
      </trkpt>
      <trkpt lat="48.04336" lon="6.92387">
        <ele>1038.4</ele>
        <time>2022-05-28T15:44:29Z</time>
      </trkpt>
      <trkpt lat="48.04344" lon="6.9238">
        <ele>1038.7</ele>
        <time>2022-05-28T15:44:31Z</time>
      </trkpt>
      <trkpt lat="48.04353" lon="6.92373">
        <ele>1038.7</ele>
        <time>2022-05-28T15:44:33Z</time>
      </trkpt>
      <trkpt lat="48.04362" lon="6.92366">
        <ele>1038.8</ele>
        <time>2022-05-28T15:44:35Z</time>
      </trkpt>
      <trkpt lat="48.04371" lon="6.92359">
        <ele>1039</ele>
        <time>2022-05-28T15:44:37Z</time>
      </trkpt>
      <trkpt lat="48.04379" lon="6.92353">
        <ele>1040.9</ele>
        <time>2022-05-28T15:44:39Z</time>
      </trkpt>
      <trkpt lat="48.04389" lon="6.92344">
        <ele>1040.9</ele>
        <time>2022-05-28T15:44:42Z</time>
      </trkpt>
      <trkpt lat="48.04398" lon="6.92335">
        <ele>1043.1</ele>
        <time>2022-05-28T15:44:45Z</time>
      </trkpt>
      <trkpt lat="48.04407" lon="6.92323">
        <ele>1043.4</ele>
        <time>2022-05-28T15:44:48Z</time>
      </trkpt>
      <trkpt lat="48.04414" lon="6.92313">
        <ele>1043.3</ele>
        <time>2022-05-28T15:44:51Z</time>
      </trkpt>
      <trkpt lat="48.0442" lon="6.92304">
        <ele>1044.1</ele>
        <time>2022-05-28T15:44:54Z</time>
      </trkpt>
      <trkpt lat="48.04427" lon="6.92291">
        <ele>1044.4</ele>
        <time>2022-05-28T15:44:57Z</time>
      </trkpt>
      <trkpt lat="48.04434" lon="6.92275">
        <ele>1044.4</ele>
        <time>2022-05-28T15:45:00Z</time>
      </trkpt>
      <trkpt lat="48.0444" lon="6.92263">
        <ele>1043.7</ele>
        <time>2022-05-28T15:45:03Z</time>
      </trkpt>
      <trkpt lat="48.04449" lon="6.92255">
        <ele>1046.2</ele>
        <time>2022-05-28T15:45:06Z</time>
      </trkpt>
      <trkpt lat="48.04459" lon="6.92252">
        <ele>1045.8</ele>
        <time>2022-05-28T15:45:09Z</time>
      </trkpt>
      <trkpt lat="48.0447" lon="6.92249">
        <ele>1045.1</ele>
        <time>2022-05-28T15:45:12Z</time>
      </trkpt>
      <trkpt lat="48.04481" lon="6.92246">
        <ele>1045.1</ele>
        <time>2022-05-28T15:45:15Z</time>
      </trkpt>
      <trkpt lat="48.04494" lon="6.92241">
        <ele>1044</ele>
        <time>2022-05-28T15:45:18Z</time>
      </trkpt>
      <trkpt lat="48.04504" lon="6.92237">
        <ele>1044.2</ele>
        <time>2022-05-28T15:45:20Z</time>
      </trkpt>
      <trkpt lat="48.04513" lon="6.92227">
        <ele>1043.5</ele>
        <time>2022-05-28T15:45:22Z</time>
      </trkpt>
      <trkpt lat="48.0452" lon="6.92215">
        <ele>1043.7</ele>
        <time>2022-05-28T15:45:24Z</time>
      </trkpt>
      <trkpt lat="48.04525" lon="6.92201">
        <ele>1043.3</ele>
        <time>2022-05-28T15:45:26Z</time>
      </trkpt>
      <trkpt lat="48.04528" lon="6.92187">
        <ele>1043.1</ele>
        <time>2022-05-28T15:45:28Z</time>
      </trkpt>
      <trkpt lat="48.04532" lon="6.92173">
        <ele>1043.1</ele>
        <time>2022-05-28T15:45:30Z</time>
      </trkpt>
      <trkpt lat="48.04535" lon="6.9216">
        <ele>1042.6</ele>
        <time>2022-05-28T15:45:32Z</time>
      </trkpt>
      <trkpt lat="48.04539" lon="6.92147">
        <ele>1043.7</ele>
        <time>2022-05-28T15:45:34Z</time>
      </trkpt>
      <trkpt lat="48.04545" lon="6.92137">
        <ele>1043.4</ele>
        <time>2022-05-28T15:45:36Z</time>
      </trkpt>
      <trkpt lat="48.04553" lon="6.92128">
        <ele>1042.2</ele>
        <time>2022-05-28T15:45:38Z</time>
      </trkpt>
      <trkpt lat="48.04562" lon="6.92122">
        <ele>1043.4</ele>
        <time>2022-05-28T15:45:40Z</time>
      </trkpt>
      <trkpt lat="48.0457" lon="6.92115">
        <ele>1043.2</ele>
        <time>2022-05-28T15:45:42Z</time>
      </trkpt>
      <trkpt lat="48.04581" lon="6.92107">
        <ele>1043.9</ele>
        <time>2022-05-28T15:45:45Z</time>
      </trkpt>
      <trkpt lat="48.04592" lon="6.92099">
        <ele>1044.9</ele>
        <time>2022-05-28T15:45:48Z</time>
      </trkpt>
      <trkpt lat="48.04605" lon="6.9209">
        <ele>1043.3</ele>
        <time>2022-05-28T15:45:51Z</time>
      </trkpt>
      <trkpt lat="48.04613" lon="6.92082">
        <ele>1043.6</ele>
        <time>2022-05-28T15:45:53Z</time>
      </trkpt>
      <trkpt lat="48.04622" lon="6.92074">
        <ele>1044.2</ele>
        <time>2022-05-28T15:45:55Z</time>
      </trkpt>
      <trkpt lat="48.04631" lon="6.92068">
        <ele>1045.8</ele>
        <time>2022-05-28T15:45:57Z</time>
      </trkpt>
      <trkpt lat="48.04644" lon="6.92064">
        <ele>1046.4</ele>
        <time>2022-05-28T15:46:00Z</time>
      </trkpt>
      <trkpt lat="48.04657" lon="6.92063">
        <ele>1047.7</ele>
        <time>2022-05-28T15:46:03Z</time>
      </trkpt>
      <trkpt lat="48.04669" lon="6.92065">
        <ele>1049.5</ele>
        <time>2022-05-28T15:46:06Z</time>
      </trkpt>
      <trkpt lat="48.04681" lon="6.92069">
        <ele>1048.1</ele>
        <time>2022-05-28T15:46:09Z</time>
      </trkpt>
      <trkpt lat="48.04693" lon="6.92074">
        <ele>1048.1</ele>
        <time>2022-05-28T15:46:12Z</time>
      </trkpt>
      <trkpt lat="48.04704" lon="6.92083">
        <ele>1047.8</ele>
        <time>2022-05-28T15:46:15Z</time>
      </trkpt>
      <trkpt lat="48.04712" lon="6.92089">
        <ele>1049.4</ele>
        <time>2022-05-28T15:46:17Z</time>
      </trkpt>
      <trkpt lat="48.04723" lon="6.92098">
        <ele>1049.6</ele>
        <time>2022-05-28T15:46:20Z</time>
      </trkpt>
      <trkpt lat="48.04734" lon="6.92108">
        <ele>1050.6</ele>
        <time>2022-05-28T15:46:23Z</time>
      </trkpt>
      <trkpt lat="48.04744" lon="6.92118">
        <ele>1051</ele>
        <time>2022-05-28T15:46:26Z</time>
      </trkpt>
      <trkpt lat="48.04752" lon="6.92129">
        <ele>1051.3</ele>
        <time>2022-05-28T15:46:29Z</time>
      </trkpt>
      <trkpt lat="48.0476" lon="6.9214">
        <ele>1052.1</ele>
        <time>2022-05-28T15:46:32Z</time>
      </trkpt>
      <trkpt lat="48.04768" lon="6.92153">
        <ele>1051.9</ele>
        <time>2022-05-28T15:46:36Z</time>
      </trkpt>
      <trkpt lat="48.04775" lon="6.92164">
        <ele>1052.8</ele>
        <time>2022-05-28T15:46:40Z</time>
      </trkpt>
      <trkpt lat="48.04778" lon="6.92171">
        <ele>1053.5</ele>
        <time>2022-05-28T15:46:45Z</time>
      </trkpt>
      <trkpt lat="48.04778" lon="6.9217">
        <ele>1053.5</ele>
        <time>2022-05-28T15:47:06Z</time>
      </trkpt>
      <trkpt lat="48.04778" lon="6.92169">
        <ele>1053.5</ele>
        <time>2022-05-28T15:47:25Z</time>
      </trkpt>
      <trkpt lat="48.04777" lon="6.92169">
        <ele>1053.7</ele>
        <time>2022-05-28T15:48:30Z</time>
      </trkpt>
      <trkpt lat="48.04777" lon="6.92169">
        <ele>1054</ele>
        <time>2022-05-28T15:48:31Z</time>
      </trkpt>
      <trkpt lat="48.04776" lon="6.92167">
        <ele>1053.1</ele>
        <time>2022-05-28T15:48:37Z</time>
      </trkpt>
      <trkpt lat="48.04776" lon="6.92167">
        <ele>1053.7</ele>
        <time>2022-05-28T15:48:51Z</time>
      </trkpt>
      <trkpt lat="48.04776" lon="6.92168">
        <ele>1053.4</ele>
        <time>2022-05-28T15:49:11Z</time>
      </trkpt>
      <trkpt lat="48.04771" lon="6.92182">
        <ele>1052.3</ele>
        <time>2022-05-28T15:49:17Z</time>
      </trkpt>
      <trkpt lat="48.04771" lon="6.92197">
        <ele>1050.1</ele>
        <time>2022-05-28T15:49:21Z</time>
      </trkpt>
      <trkpt lat="48.04774" lon="6.92209">
        <ele>1048.9</ele>
        <time>2022-05-28T15:49:24Z</time>
      </trkpt>
      <trkpt lat="48.0478" lon="6.92224">
        <ele>1051</ele>
        <time>2022-05-28T15:49:27Z</time>
      </trkpt>
      <trkpt lat="48.04781" lon="6.92243">
        <ele>1048.2</ele>
        <time>2022-05-28T15:49:30Z</time>
      </trkpt>
      <trkpt lat="48.0478" lon="6.92258">
        <ele>1046.9</ele>
        <time>2022-05-28T15:49:33Z</time>
      </trkpt>
      <trkpt lat="48.04781" lon="6.92271">
        <ele>1044.8</ele>
        <time>2022-05-28T15:49:38Z</time>
      </trkpt>
      <trkpt lat="48.04786" lon="6.92285">
        <ele>1043.6</ele>
        <time>2022-05-28T15:49:42Z</time>
      </trkpt>
      <trkpt lat="48.04788" lon="6.92299">
        <ele>1042</ele>
        <time>2022-05-28T15:49:45Z</time>
      </trkpt>
      <trkpt lat="48.04788" lon="6.92313">
        <ele>1042.6</ele>
        <time>2022-05-28T15:49:49Z</time>
      </trkpt>
      <trkpt lat="48.04793" lon="6.92327">
        <ele>1040</ele>
        <time>2022-05-28T15:49:52Z</time>
      </trkpt>
      <trkpt lat="48.04798" lon="6.92342">
        <ele>1040.1</ele>
        <time>2022-05-28T15:49:56Z</time>
      </trkpt>
      <trkpt lat="48.04801" lon="6.92358">
        <ele>1036.9</ele>
        <time>2022-05-28T15:50:00Z</time>
      </trkpt>
      <trkpt lat="48.04803" lon="6.92376">
        <ele>1034.8</ele>
        <time>2022-05-28T15:50:03Z</time>
      </trkpt>
      <trkpt lat="48.04807" lon="6.92393">
        <ele>1035.6</ele>
        <time>2022-05-28T15:50:06Z</time>
      </trkpt>
      <trkpt lat="48.04811" lon="6.92406">
        <ele>1032.3</ele>
        <time>2022-05-28T15:50:09Z</time>
      </trkpt>
      <trkpt lat="48.04813" lon="6.92421">
        <ele>1030.4</ele>
        <time>2022-05-28T15:50:12Z</time>
      </trkpt>
      <trkpt lat="48.04813" lon="6.92436">
        <ele>1029</ele>
        <time>2022-05-28T15:50:16Z</time>
      </trkpt>
      <trkpt lat="48.04812" lon="6.92451">
        <ele>1024.5</ele>
        <time>2022-05-28T15:50:21Z</time>
      </trkpt>
      <trkpt lat="48.04815" lon="6.92465">
        <ele>1023.2</ele>
        <time>2022-05-28T15:50:24Z</time>
      </trkpt>
      <trkpt lat="48.04819" lon="6.92479">
        <ele>1023.8</ele>
        <time>2022-05-28T15:50:27Z</time>
      </trkpt>
      <trkpt lat="48.04823" lon="6.92493">
        <ele>1024.4</ele>
        <time>2022-05-28T15:50:31Z</time>
      </trkpt>
      <trkpt lat="48.04829" lon="6.92506">
        <ele>1020.3</ele>
        <time>2022-05-28T15:50:35Z</time>
      </trkpt>
      <trkpt lat="48.0483" lon="6.92526">
        <ele>1016.8</ele>
        <time>2022-05-28T15:50:38Z</time>
      </trkpt>
      <trkpt lat="48.04831" lon="6.92541">
        <ele>1017.9</ele>
        <time>2022-05-28T15:50:42Z</time>
      </trkpt>
      <trkpt lat="48.0483" lon="6.92555">
        <ele>1015.9</ele>
        <time>2022-05-28T15:50:46Z</time>
      </trkpt>
      <trkpt lat="48.04834" lon="6.92571">
        <ele>1014.1</ele>
        <time>2022-05-28T15:50:50Z</time>
      </trkpt>
      <trkpt lat="48.04838" lon="6.92586">
        <ele>1012.7</ele>
        <time>2022-05-28T15:50:53Z</time>
      </trkpt>
      <trkpt lat="48.04836" lon="6.92601">
        <ele>1012.7</ele>
        <time>2022-05-28T15:50:56Z</time>
      </trkpt>
      <trkpt lat="48.04835" lon="6.92618">
        <ele>1009.4</ele>
        <time>2022-05-28T15:50:59Z</time>
      </trkpt>
      <trkpt lat="48.04836" lon="6.92633">
        <ele>1007.6</ele>
        <time>2022-05-28T15:51:02Z</time>
      </trkpt>
      <trkpt lat="48.0484" lon="6.92647">
        <ele>1006.5</ele>
        <time>2022-05-28T15:51:05Z</time>
      </trkpt>
      <trkpt lat="48.04844" lon="6.92662">
        <ele>1005.6</ele>
        <time>2022-05-28T15:51:07Z</time>
      </trkpt>
      <trkpt lat="48.04848" lon="6.92675">
        <ele>1003.1</ele>
        <time>2022-05-28T15:51:09Z</time>
      </trkpt>
      <trkpt lat="48.04852" lon="6.92688">
        <ele>1003.8</ele>
        <time>2022-05-28T15:51:12Z</time>
      </trkpt>
      <trkpt lat="48.04844" lon="6.92697">
        <ele>1001.3</ele>
        <time>2022-05-28T15:51:17Z</time>
      </trkpt>
      <trkpt lat="48.04837" lon="6.92688">
        <ele>1001</ele>
        <time>2022-05-28T15:51:21Z</time>
      </trkpt>
      <trkpt lat="48.04832" lon="6.92674">
        <ele>1001</ele>
        <time>2022-05-28T15:51:24Z</time>
      </trkpt>
      <trkpt lat="48.04825" lon="6.9266">
        <ele>998.2</ele>
        <time>2022-05-28T15:51:27Z</time>
      </trkpt>
      <trkpt lat="48.04822" lon="6.92673">
        <ele>995.7</ele>
        <time>2022-05-28T15:51:32Z</time>
      </trkpt>
      <trkpt lat="48.04827" lon="6.92689">
        <ele>994.8</ele>
        <time>2022-05-28T15:51:35Z</time>
      </trkpt>
      <trkpt lat="48.04832" lon="6.92703">
        <ele>993.1</ele>
        <time>2022-05-28T15:51:38Z</time>
      </trkpt>
      <trkpt lat="48.04838" lon="6.92716">
        <ele>992.3</ele>
        <time>2022-05-28T15:51:41Z</time>
      </trkpt>
      <trkpt lat="48.04841" lon="6.9273">
        <ele>991.7</ele>
        <time>2022-05-28T15:51:55Z</time>
      </trkpt>
      <trkpt lat="48.04841" lon="6.92731">
        <ele>991.4</ele>
        <time>2022-05-28T15:51:58Z</time>
      </trkpt>
      <trkpt lat="48.04838" lon="6.92733">
        <ele>989.9</ele>
        <time>2022-05-28T15:52:09Z</time>
      </trkpt>
      <trkpt lat="48.04838" lon="6.92732">
        <ele>989.9</ele>
        <time>2022-05-28T15:52:10Z</time>
      </trkpt>
      <trkpt lat="48.04838" lon="6.92731">
        <ele>989.9</ele>
        <time>2022-05-28T15:53:03Z</time>
      </trkpt>
      <trkpt lat="48.04828" lon="6.92733">
        <ele>987.2</ele>
        <time>2022-05-28T15:53:14Z</time>
      </trkpt>
      <trkpt lat="48.04821" lon="6.92743">
        <ele>983.9</ele>
        <time>2022-05-28T15:53:19Z</time>
      </trkpt>
      <trkpt lat="48.04811" lon="6.92746">
        <ele>985.2</ele>
        <time>2022-05-28T15:53:23Z</time>
      </trkpt>
      <trkpt lat="48.048" lon="6.92738">
        <ele>981.3</ele>
        <time>2022-05-28T15:53:26Z</time>
      </trkpt>
      <trkpt lat="48.04797" lon="6.92748">
        <ele>980.4</ele>
        <time>2022-05-28T15:53:32Z</time>
      </trkpt>
      <trkpt lat="48.04798" lon="6.92748">
        <ele>980.4</ele>
        <time>2022-05-28T15:53:46Z</time>
      </trkpt>
      <trkpt lat="48.04796" lon="6.92734">
        <ele>980.7</ele>
        <time>2022-05-28T15:54:18Z</time>
      </trkpt>
      <trkpt lat="48.04792" lon="6.92717">
        <ele>980.6</ele>
        <time>2022-05-28T15:54:23Z</time>
      </trkpt>
      <trkpt lat="48.04787" lon="6.92702">
        <ele>982</ele>
        <time>2022-05-28T15:54:27Z</time>
      </trkpt>
      <trkpt lat="48.0478" lon="6.92688">
        <ele>982</ele>
        <time>2022-05-28T15:54:31Z</time>
      </trkpt>
      <trkpt lat="48.04775" lon="6.92673">
        <ele>981.1</ele>
        <time>2022-05-28T15:54:35Z</time>
      </trkpt>
      <trkpt lat="48.0477" lon="6.92658">
        <ele>981.2</ele>
        <time>2022-05-28T15:54:38Z</time>
      </trkpt>
      <trkpt lat="48.04766" lon="6.92643">
        <ele>982.3</ele>
        <time>2022-05-28T15:54:41Z</time>
      </trkpt>
      <trkpt lat="48.04762" lon="6.92627">
        <ele>981.5</ele>
        <time>2022-05-28T15:54:44Z</time>
      </trkpt>
      <trkpt lat="48.04758" lon="6.92608">
        <ele>981.3</ele>
        <time>2022-05-28T15:54:47Z</time>
      </trkpt>
      <trkpt lat="48.04754" lon="6.92591">
        <ele>982.2</ele>
        <time>2022-05-28T15:54:50Z</time>
      </trkpt>
      <trkpt lat="48.04747" lon="6.92576">
        <ele>982.8</ele>
        <time>2022-05-28T15:54:53Z</time>
      </trkpt>
      <trkpt lat="48.04742" lon="6.9256">
        <ele>982.8</ele>
        <time>2022-05-28T15:54:56Z</time>
      </trkpt>
      <trkpt lat="48.04738" lon="6.92547">
        <ele>982.7</ele>
        <time>2022-05-28T15:54:58Z</time>
      </trkpt>
      <trkpt lat="48.04733" lon="6.92534">
        <ele>982.6</ele>
        <time>2022-05-28T15:55:00Z</time>
      </trkpt>
      <trkpt lat="48.04725" lon="6.92523">
        <ele>980</ele>
        <time>2022-05-28T15:55:02Z</time>
      </trkpt>
      <trkpt lat="48.04716" lon="6.92511">
        <ele>978.4</ele>
        <time>2022-05-28T15:55:04Z</time>
      </trkpt>
      <trkpt lat="48.04706" lon="6.92499">
        <ele>974.4</ele>
        <time>2022-05-28T15:55:06Z</time>
      </trkpt>
      <trkpt lat="48.04695" lon="6.92486">
        <ele>978.5</ele>
        <time>2022-05-28T15:55:08Z</time>
      </trkpt>
      <trkpt lat="48.04683" lon="6.92472">
        <ele>978.1</ele>
        <time>2022-05-28T15:55:10Z</time>
      </trkpt>
      <trkpt lat="48.04671" lon="6.92456">
        <ele>975.3</ele>
        <time>2022-05-28T15:55:12Z</time>
      </trkpt>
      <trkpt lat="48.04657" lon="6.92439">
        <ele>972.4</ele>
        <time>2022-05-28T15:55:14Z</time>
      </trkpt>
      <trkpt lat="48.04645" lon="6.92423">
        <ele>971.1</ele>
        <time>2022-05-28T15:55:16Z</time>
      </trkpt>
      <trkpt lat="48.04634" lon="6.9241">
        <ele>975.7</ele>
        <time>2022-05-28T15:55:18Z</time>
      </trkpt>
      <trkpt lat="48.04623" lon="6.92398">
        <ele>973.9</ele>
        <time>2022-05-28T15:55:20Z</time>
      </trkpt>
      <trkpt lat="48.04611" lon="6.92396">
        <ele>974.2</ele>
        <time>2022-05-28T15:55:22Z</time>
      </trkpt>
      <trkpt lat="48.046" lon="6.92398">
        <ele>975.5</ele>
        <time>2022-05-28T15:55:24Z</time>
      </trkpt>
      <trkpt lat="48.0459" lon="6.92403">
        <ele>976</ele>
        <time>2022-05-28T15:55:26Z</time>
      </trkpt>
      <trkpt lat="48.04579" lon="6.92409">
        <ele>978</ele>
        <time>2022-05-28T15:55:29Z</time>
      </trkpt>
      <trkpt lat="48.04568" lon="6.92417">
        <ele>977.3</ele>
        <time>2022-05-28T15:55:32Z</time>
      </trkpt>
      <trkpt lat="48.04559" lon="6.92424">
        <ele>977.8</ele>
        <time>2022-05-28T15:55:34Z</time>
      </trkpt>
      <trkpt lat="48.04551" lon="6.92431">
        <ele>977.2</ele>
        <time>2022-05-28T15:55:36Z</time>
      </trkpt>
      <trkpt lat="48.04539" lon="6.9244">
        <ele>976.9</ele>
        <time>2022-05-28T15:55:39Z</time>
      </trkpt>
      <trkpt lat="48.04529" lon="6.92449">
        <ele>976.4</ele>
        <time>2022-05-28T15:55:42Z</time>
      </trkpt>
      <trkpt lat="48.0452" lon="6.92458">
        <ele>979.4</ele>
        <time>2022-05-28T15:55:45Z</time>
      </trkpt>
      <trkpt lat="48.04513" lon="6.92468">
        <ele>980.1</ele>
        <time>2022-05-28T15:55:48Z</time>
      </trkpt>
      <trkpt lat="48.04506" lon="6.92477">
        <ele>981.3</ele>
        <time>2022-05-28T15:55:51Z</time>
      </trkpt>
      <trkpt lat="48.04497" lon="6.92488">
        <ele>982.8</ele>
        <time>2022-05-28T15:55:55Z</time>
      </trkpt>
      <trkpt lat="48.04488" lon="6.92494">
        <ele>984.3</ele>
        <time>2022-05-28T15:55:58Z</time>
      </trkpt>
      <trkpt lat="48.0448" lon="6.92498">
        <ele>984.2</ele>
        <time>2022-05-28T15:56:01Z</time>
      </trkpt>
      <trkpt lat="48.04471" lon="6.92504">
        <ele>984.5</ele>
        <time>2022-05-28T15:56:04Z</time>
      </trkpt>
      <trkpt lat="48.04462" lon="6.92512">
        <ele>986</ele>
        <time>2022-05-28T15:56:08Z</time>
      </trkpt>
      <trkpt lat="48.04456" lon="6.92523">
        <ele>986.4</ele>
        <time>2022-05-28T15:56:12Z</time>
      </trkpt>
      <trkpt lat="48.04449" lon="6.92533">
        <ele>984.6</ele>
        <time>2022-05-28T15:56:15Z</time>
      </trkpt>
      <trkpt lat="48.04444" lon="6.92545">
        <ele>983.5</ele>
        <time>2022-05-28T15:56:17Z</time>
      </trkpt>
      <trkpt lat="48.04437" lon="6.92561">
        <ele>981.9</ele>
        <time>2022-05-28T15:56:19Z</time>
      </trkpt>
      <trkpt lat="48.0443" lon="6.92579">
        <ele>981.4</ele>
        <time>2022-05-28T15:56:21Z</time>
      </trkpt>
      <trkpt lat="48.04421" lon="6.92597">
        <ele>976.9</ele>
        <time>2022-05-28T15:56:23Z</time>
      </trkpt>
      <trkpt lat="48.04409" lon="6.92612">
        <ele>975.3</ele>
        <time>2022-05-28T15:56:25Z</time>
      </trkpt>
      <trkpt lat="48.04396" lon="6.92624">
        <ele>973.4</ele>
        <time>2022-05-28T15:56:27Z</time>
      </trkpt>
      <trkpt lat="48.0438" lon="6.92635">
        <ele>973</ele>
        <time>2022-05-28T15:56:29Z</time>
      </trkpt>
      <trkpt lat="48.04371" lon="6.92641">
        <ele>972</ele>
        <time>2022-05-28T15:56:30Z</time>
      </trkpt>
      <trkpt lat="48.04362" lon="6.92645">
        <ele>969.8</ele>
        <time>2022-05-28T15:56:31Z</time>
      </trkpt>
      <trkpt lat="48.04353" lon="6.92647">
        <ele>970.5</ele>
        <time>2022-05-28T15:56:32Z</time>
      </trkpt>
      <trkpt lat="48.04343" lon="6.92647">
        <ele>972.4</ele>
        <time>2022-05-28T15:56:33Z</time>
      </trkpt>
      <trkpt lat="48.04334" lon="6.92645">
        <ele>969.7</ele>
        <time>2022-05-28T15:56:34Z</time>
      </trkpt>
      <trkpt lat="48.04325" lon="6.92644">
        <ele>968.5</ele>
        <time>2022-05-28T15:56:35Z</time>
      </trkpt>
      <trkpt lat="48.04309" lon="6.92647">
        <ele>971.2</ele>
        <time>2022-05-28T15:56:37Z</time>
      </trkpt>
      <trkpt lat="48.04295" lon="6.9265">
        <ele>972.2</ele>
        <time>2022-05-28T15:56:39Z</time>
      </trkpt>
      <trkpt lat="48.0428" lon="6.9265">
        <ele>970.5</ele>
        <time>2022-05-28T15:56:41Z</time>
      </trkpt>
      <trkpt lat="48.04266" lon="6.9265">
        <ele>971.3</ele>
        <time>2022-05-28T15:56:43Z</time>
      </trkpt>
      <trkpt lat="48.04253" lon="6.92648">
        <ele>969.5</ele>
        <time>2022-05-28T15:56:45Z</time>
      </trkpt>
      <trkpt lat="48.04241" lon="6.92644">
        <ele>972.4</ele>
        <time>2022-05-28T15:56:47Z</time>
      </trkpt>
      <trkpt lat="48.0423" lon="6.92639">
        <ele>972.6</ele>
        <time>2022-05-28T15:56:49Z</time>
      </trkpt>
      <trkpt lat="48.04219" lon="6.92632">
        <ele>972.6</ele>
        <time>2022-05-28T15:56:51Z</time>
      </trkpt>
      <trkpt lat="48.04208" lon="6.92626">
        <ele>972.4</ele>
        <time>2022-05-28T15:56:53Z</time>
      </trkpt>
      <trkpt lat="48.04196" lon="6.92619">
        <ele>972.7</ele>
        <time>2022-05-28T15:56:55Z</time>
      </trkpt>
      <trkpt lat="48.04184" lon="6.92613">
        <ele>973.3</ele>
        <time>2022-05-28T15:56:57Z</time>
      </trkpt>
      <trkpt lat="48.0417" lon="6.92608">
        <ele>973.7</ele>
        <time>2022-05-28T15:56:59Z</time>
      </trkpt>
      <trkpt lat="48.04155" lon="6.92602">
        <ele>972.2</ele>
        <time>2022-05-28T15:57:01Z</time>
      </trkpt>
      <trkpt lat="48.0414" lon="6.92594">
        <ele>973.2</ele>
        <time>2022-05-28T15:57:03Z</time>
      </trkpt>
      <trkpt lat="48.04126" lon="6.92579">
        <ele>973.3</ele>
        <time>2022-05-28T15:57:05Z</time>
      </trkpt>
      <trkpt lat="48.04114" lon="6.92569">
        <ele>973.9</ele>
        <time>2022-05-28T15:57:07Z</time>
      </trkpt>
      <trkpt lat="48.04104" lon="6.92562">
        <ele>974.8</ele>
        <time>2022-05-28T15:57:09Z</time>
      </trkpt>
      <trkpt lat="48.04092" lon="6.92556">
        <ele>975.4</ele>
        <time>2022-05-28T15:57:11Z</time>
      </trkpt>
      <trkpt lat="48.04082" lon="6.9255">
        <ele>973.5</ele>
        <time>2022-05-28T15:57:13Z</time>
      </trkpt>
      <trkpt lat="48.04071" lon="6.92543">
        <ele>972.1</ele>
        <time>2022-05-28T15:57:16Z</time>
      </trkpt>
      <trkpt lat="48.04061" lon="6.92534">
        <ele>971.9</ele>
        <time>2022-05-28T15:57:19Z</time>
      </trkpt>
      <trkpt lat="48.04049" lon="6.92524">
        <ele>968</ele>
        <time>2022-05-28T15:57:22Z</time>
      </trkpt>
      <trkpt lat="48.04039" lon="6.92517">
        <ele>969.3</ele>
        <time>2022-05-28T15:57:24Z</time>
      </trkpt>
      <trkpt lat="48.04027" lon="6.92512">
        <ele>966.8</ele>
        <time>2022-05-28T15:57:26Z</time>
      </trkpt>
      <trkpt lat="48.04013" lon="6.92509">
        <ele>966.4</ele>
        <time>2022-05-28T15:57:28Z</time>
      </trkpt>
      <trkpt lat="48.04" lon="6.92504">
        <ele>965.9</ele>
        <time>2022-05-28T15:57:30Z</time>
      </trkpt>
      <trkpt lat="48.03987" lon="6.92498">
        <ele>961.6</ele>
        <time>2022-05-28T15:57:32Z</time>
      </trkpt>
      <trkpt lat="48.03973" lon="6.92488">
        <ele>959</ele>
        <time>2022-05-28T15:57:34Z</time>
      </trkpt>
      <trkpt lat="48.03959" lon="6.92471">
        <ele>956.5</ele>
        <time>2022-05-28T15:57:36Z</time>
      </trkpt>
      <trkpt lat="48.03952" lon="6.92461">
        <ele>955.1</ele>
        <time>2022-05-28T15:57:37Z</time>
      </trkpt>
      <trkpt lat="48.03946" lon="6.9245">
        <ele>953</ele>
        <time>2022-05-28T15:57:38Z</time>
      </trkpt>
      <trkpt lat="48.0394" lon="6.92439">
        <ele>955</ele>
        <time>2022-05-28T15:57:39Z</time>
      </trkpt>
      <trkpt lat="48.03935" lon="6.92427">
        <ele>955.2</ele>
        <time>2022-05-28T15:57:40Z</time>
      </trkpt>
      <trkpt lat="48.0393" lon="6.92416">
        <ele>954.5</ele>
        <time>2022-05-28T15:57:41Z</time>
      </trkpt>
      <trkpt lat="48.03921" lon="6.92393">
        <ele>955.5</ele>
        <time>2022-05-28T15:57:43Z</time>
      </trkpt>
      <trkpt lat="48.03916" lon="6.9237">
        <ele>956.5</ele>
        <time>2022-05-28T15:57:45Z</time>
      </trkpt>
      <trkpt lat="48.03914" lon="6.92346">
        <ele>952.5</ele>
        <time>2022-05-28T15:57:47Z</time>
      </trkpt>
      <trkpt lat="48.03916" lon="6.92326">
        <ele>956</ele>
        <time>2022-05-28T15:57:49Z</time>
      </trkpt>
      <trkpt lat="48.03922" lon="6.92308">
        <ele>955.7</ele>
        <time>2022-05-28T15:57:51Z</time>
      </trkpt>
      <trkpt lat="48.03924" lon="6.92292">
        <ele>954.6</ele>
        <time>2022-05-28T15:57:53Z</time>
      </trkpt>
      <trkpt lat="48.03917" lon="6.92277">
        <ele>955.9</ele>
        <time>2022-05-28T15:57:55Z</time>
      </trkpt>
      <trkpt lat="48.03906" lon="6.92266">
        <ele>955</ele>
        <time>2022-05-28T15:57:57Z</time>
      </trkpt>
      <trkpt lat="48.03892" lon="6.92253">
        <ele>950.9</ele>
        <time>2022-05-28T15:57:59Z</time>
      </trkpt>
      <trkpt lat="48.03885" lon="6.92245">
        <ele>951.2</ele>
        <time>2022-05-28T15:58:00Z</time>
      </trkpt>
      <trkpt lat="48.0387" lon="6.92229">
        <ele>952.1</ele>
        <time>2022-05-28T15:58:02Z</time>
      </trkpt>
      <trkpt lat="48.03857" lon="6.92215">
        <ele>952.2</ele>
        <time>2022-05-28T15:58:04Z</time>
      </trkpt>
      <trkpt lat="48.03843" lon="6.92201">
        <ele>952</ele>
        <time>2022-05-28T15:58:06Z</time>
      </trkpt>
      <trkpt lat="48.0383" lon="6.9219">
        <ele>950.6</ele>
        <time>2022-05-28T15:58:08Z</time>
      </trkpt>
      <trkpt lat="48.03817" lon="6.92177">
        <ele>950.1</ele>
        <time>2022-05-28T15:58:10Z</time>
      </trkpt>
      <trkpt lat="48.03806" lon="6.92162">
        <ele>951</ele>
        <time>2022-05-28T15:58:12Z</time>
      </trkpt>
      <trkpt lat="48.03797" lon="6.92148">
        <ele>949.8</ele>
        <time>2022-05-28T15:58:14Z</time>
      </trkpt>
      <trkpt lat="48.03787" lon="6.92136">
        <ele>948.9</ele>
        <time>2022-05-28T15:58:16Z</time>
      </trkpt>
      <trkpt lat="48.03776" lon="6.92126">
        <ele>948.9</ele>
        <time>2022-05-28T15:58:18Z</time>
      </trkpt>
      <trkpt lat="48.03764" lon="6.92119">
        <ele>948.2</ele>
        <time>2022-05-28T15:58:20Z</time>
      </trkpt>
      <trkpt lat="48.03755" lon="6.9211">
        <ele>947.6</ele>
        <time>2022-05-28T15:58:22Z</time>
      </trkpt>
      <trkpt lat="48.03747" lon="6.92098">
        <ele>949.2</ele>
        <time>2022-05-28T15:58:24Z</time>
      </trkpt>
      <trkpt lat="48.0374" lon="6.92086">
        <ele>949.7</ele>
        <time>2022-05-28T15:58:26Z</time>
      </trkpt>
      <trkpt lat="48.03736" lon="6.92074">
        <ele>948.7</ele>
        <time>2022-05-28T15:58:28Z</time>
      </trkpt>
      <trkpt lat="48.0373" lon="6.92063">
        <ele>947.6</ele>
        <time>2022-05-28T15:58:31Z</time>
      </trkpt>
      <trkpt lat="48.03719" lon="6.92056">
        <ele>948.6</ele>
        <time>2022-05-28T15:58:35Z</time>
      </trkpt>
      <trkpt lat="48.03711" lon="6.92048">
        <ele>947.2</ele>
        <time>2022-05-28T15:58:38Z</time>
      </trkpt>
      <trkpt lat="48.03705" lon="6.92038">
        <ele>946.5</ele>
        <time>2022-05-28T15:58:41Z</time>
      </trkpt>
      <trkpt lat="48.03698" lon="6.92024">
        <ele>946.7</ele>
        <time>2022-05-28T15:58:44Z</time>
      </trkpt>
      <trkpt lat="48.0369" lon="6.92007">
        <ele>946.8</ele>
        <time>2022-05-28T15:58:47Z</time>
      </trkpt>
      <trkpt lat="48.03684" lon="6.91996">
        <ele>946.4</ele>
        <time>2022-05-28T15:58:49Z</time>
      </trkpt>
      <trkpt lat="48.03677" lon="6.9198">
        <ele>946.5</ele>
        <time>2022-05-28T15:58:52Z</time>
      </trkpt>
      <trkpt lat="48.0367" lon="6.91967">
        <ele>947.9</ele>
        <time>2022-05-28T15:58:55Z</time>
      </trkpt>
      <trkpt lat="48.03665" lon="6.91954">
        <ele>948.2</ele>
        <time>2022-05-28T15:58:58Z</time>
      </trkpt>
      <trkpt lat="48.03659" lon="6.91937">
        <ele>948.4</ele>
        <time>2022-05-28T15:59:01Z</time>
      </trkpt>
      <trkpt lat="48.03653" lon="6.91926">
        <ele>947.6</ele>
        <time>2022-05-28T15:59:04Z</time>
      </trkpt>
      <trkpt lat="48.03645" lon="6.9191">
        <ele>948.9</ele>
        <time>2022-05-28T15:59:08Z</time>
      </trkpt>
      <trkpt lat="48.03639" lon="6.91896">
        <ele>948.4</ele>
        <time>2022-05-28T15:59:11Z</time>
      </trkpt>
      <trkpt lat="48.03632" lon="6.91882">
        <ele>950.4</ele>
        <time>2022-05-28T15:59:14Z</time>
      </trkpt>
      <trkpt lat="48.03627" lon="6.91868">
        <ele>949.2</ele>
        <time>2022-05-28T15:59:17Z</time>
      </trkpt>
      <trkpt lat="48.03623" lon="6.91849">
        <ele>947.5</ele>
        <time>2022-05-28T15:59:20Z</time>
      </trkpt>
      <trkpt lat="48.03622" lon="6.91836">
        <ele>945.9</ele>
        <time>2022-05-28T15:59:22Z</time>
      </trkpt>
      <trkpt lat="48.03617" lon="6.91823">
        <ele>949</ele>
        <time>2022-05-28T15:59:24Z</time>
      </trkpt>
      <trkpt lat="48.03611" lon="6.91814">
        <ele>947</ele>
        <time>2022-05-28T15:59:26Z</time>
      </trkpt>
      <trkpt lat="48.03603" lon="6.91802">
        <ele>947.7</ele>
        <time>2022-05-28T15:59:29Z</time>
      </trkpt>
      <trkpt lat="48.03596" lon="6.91786">
        <ele>947.9</ele>
        <time>2022-05-28T15:59:33Z</time>
      </trkpt>
      <trkpt lat="48.03592" lon="6.91775">
        <ele>948.2</ele>
        <time>2022-05-28T15:59:35Z</time>
      </trkpt>
      <trkpt lat="48.03586" lon="6.91761">
        <ele>945</ele>
        <time>2022-05-28T15:59:37Z</time>
      </trkpt>
      <trkpt lat="48.0358" lon="6.91748">
        <ele>944.8</ele>
        <time>2022-05-28T15:59:39Z</time>
      </trkpt>
      <trkpt lat="48.03574" lon="6.91737">
        <ele>945.9</ele>
        <time>2022-05-28T15:59:41Z</time>
      </trkpt>
      <trkpt lat="48.03565" lon="6.91722">
        <ele>947</ele>
        <time>2022-05-28T15:59:44Z</time>
      </trkpt>
      <trkpt lat="48.03559" lon="6.91711">
        <ele>943.5</ele>
        <time>2022-05-28T15:59:46Z</time>
      </trkpt>
      <trkpt lat="48.03552" lon="6.91697">
        <ele>943.5</ele>
        <time>2022-05-28T15:59:49Z</time>
      </trkpt>
      <trkpt lat="48.03545" lon="6.91686">
        <ele>942.4</ele>
        <time>2022-05-28T15:59:52Z</time>
      </trkpt>
      <trkpt lat="48.03537" lon="6.91677">
        <ele>940.1</ele>
        <time>2022-05-28T15:59:55Z</time>
      </trkpt>
      <trkpt lat="48.03528" lon="6.91672">
        <ele>940.6</ele>
        <time>2022-05-28T15:59:58Z</time>
      </trkpt>
      <trkpt lat="48.03517" lon="6.91664">
        <ele>936.4</ele>
        <time>2022-05-28T16:00:01Z</time>
      </trkpt>
      <trkpt lat="48.03509" lon="6.91656">
        <ele>938.3</ele>
        <time>2022-05-28T16:00:03Z</time>
      </trkpt>
      <trkpt lat="48.03501" lon="6.91648">
        <ele>938.3</ele>
        <time>2022-05-28T16:00:05Z</time>
      </trkpt>
      <trkpt lat="48.03493" lon="6.91642">
        <ele>938.3</ele>
        <time>2022-05-28T16:00:07Z</time>
      </trkpt>
      <trkpt lat="48.03481" lon="6.91632">
        <ele>938.4</ele>
        <time>2022-05-28T16:00:10Z</time>
      </trkpt>
      <trkpt lat="48.03468" lon="6.91626">
        <ele>934.3</ele>
        <time>2022-05-28T16:00:13Z</time>
      </trkpt>
      <trkpt lat="48.03458" lon="6.9162">
        <ele>932.5</ele>
        <time>2022-05-28T16:00:15Z</time>
      </trkpt>
      <trkpt lat="48.03447" lon="6.91613">
        <ele>932.5</ele>
        <time>2022-05-28T16:00:17Z</time>
      </trkpt>
      <trkpt lat="48.03435" lon="6.91608">
        <ele>928.7</ele>
        <time>2022-05-28T16:00:19Z</time>
      </trkpt>
      <trkpt lat="48.03424" lon="6.91604">
        <ele>932.4</ele>
        <time>2022-05-28T16:00:21Z</time>
      </trkpt>
      <trkpt lat="48.03412" lon="6.91602">
        <ele>931.3</ele>
        <time>2022-05-28T16:00:23Z</time>
      </trkpt>
      <trkpt lat="48.034" lon="6.91599">
        <ele>928.3</ele>
        <time>2022-05-28T16:00:25Z</time>
      </trkpt>
      <trkpt lat="48.03387" lon="6.91599">
        <ele>928.3</ele>
        <time>2022-05-28T16:00:27Z</time>
      </trkpt>
      <trkpt lat="48.03376" lon="6.91599">
        <ele>927.6</ele>
        <time>2022-05-28T16:00:29Z</time>
      </trkpt>
      <trkpt lat="48.03363" lon="6.91597">
        <ele>927.9</ele>
        <time>2022-05-28T16:00:31Z</time>
      </trkpt>
      <trkpt lat="48.03351" lon="6.91593">
        <ele>928.5</ele>
        <time>2022-05-28T16:00:33Z</time>
      </trkpt>
      <trkpt lat="48.03338" lon="6.9159">
        <ele>930.6</ele>
        <time>2022-05-28T16:00:35Z</time>
      </trkpt>
      <trkpt lat="48.03325" lon="6.9159">
        <ele>928.7</ele>
        <time>2022-05-28T16:00:37Z</time>
      </trkpt>
      <trkpt lat="48.03311" lon="6.91589">
        <ele>922.2</ele>
        <time>2022-05-28T16:00:39Z</time>
      </trkpt>
      <trkpt lat="48.03297" lon="6.91587">
        <ele>922.7</ele>
        <time>2022-05-28T16:00:41Z</time>
      </trkpt>
      <trkpt lat="48.03283" lon="6.91583">
        <ele>922.6</ele>
        <time>2022-05-28T16:00:43Z</time>
      </trkpt>
      <trkpt lat="48.03271" lon="6.9158">
        <ele>920.3</ele>
        <time>2022-05-28T16:00:45Z</time>
      </trkpt>
      <trkpt lat="48.03262" lon="6.91578">
        <ele>922.8</ele>
        <time>2022-05-28T16:00:47Z</time>
      </trkpt>
      <trkpt lat="48.03251" lon="6.91578">
        <ele>920.5</ele>
        <time>2022-05-28T16:00:49Z</time>
      </trkpt>
      <trkpt lat="48.03238" lon="6.91577">
        <ele>920.5</ele>
        <time>2022-05-28T16:00:51Z</time>
      </trkpt>
      <trkpt lat="48.03225" lon="6.91576">
        <ele>918.1</ele>
        <time>2022-05-28T16:00:53Z</time>
      </trkpt>
      <trkpt lat="48.03212" lon="6.91576">
        <ele>915.1</ele>
        <time>2022-05-28T16:00:55Z</time>
      </trkpt>
      <trkpt lat="48.03199" lon="6.91575">
        <ele>919.3</ele>
        <time>2022-05-28T16:00:57Z</time>
      </trkpt>
      <trkpt lat="48.03188" lon="6.91574">
        <ele>912.7</ele>
        <time>2022-05-28T16:00:59Z</time>
      </trkpt>
      <trkpt lat="48.03178" lon="6.91574">
        <ele>916.5</ele>
        <time>2022-05-28T16:01:03Z</time>
      </trkpt>
      <trkpt lat="48.03179" lon="6.91579">
        <ele>916</ele>
        <time>2022-05-28T16:01:08Z</time>
      </trkpt>
      <trkpt lat="48.0318" lon="6.91579">
        <ele>915.6</ele>
        <time>2022-05-28T16:01:24Z</time>
      </trkpt>
      <trkpt lat="48.0319" lon="6.91584">
        <ele>913.7</ele>
        <time>2022-05-28T16:01:28Z</time>
      </trkpt>
      <trkpt lat="48.03199" lon="6.91589">
        <ele>912.7</ele>
        <time>2022-05-28T16:01:30Z</time>
      </trkpt>
      <trkpt lat="48.03208" lon="6.91594">
        <ele>911.4</ele>
        <time>2022-05-28T16:01:32Z</time>
      </trkpt>
      <trkpt lat="48.03217" lon="6.91599">
        <ele>911.2</ele>
        <time>2022-05-28T16:01:34Z</time>
      </trkpt>
      <trkpt lat="48.03226" lon="6.91605">
        <ele>910.7</ele>
        <time>2022-05-28T16:01:36Z</time>
      </trkpt>
      <trkpt lat="48.03236" lon="6.91612">
        <ele>909.4</ele>
        <time>2022-05-28T16:01:38Z</time>
      </trkpt>
      <trkpt lat="48.03248" lon="6.9162">
        <ele>908.2</ele>
        <time>2022-05-28T16:01:40Z</time>
      </trkpt>
      <trkpt lat="48.03258" lon="6.91632">
        <ele>907.5</ele>
        <time>2022-05-28T16:01:42Z</time>
      </trkpt>
      <trkpt lat="48.03268" lon="6.91644">
        <ele>907.6</ele>
        <time>2022-05-28T16:01:44Z</time>
      </trkpt>
      <trkpt lat="48.0328" lon="6.91652">
        <ele>907.6</ele>
        <time>2022-05-28T16:01:46Z</time>
      </trkpt>
      <trkpt lat="48.03294" lon="6.91658">
        <ele>906.6</ele>
        <time>2022-05-28T16:01:48Z</time>
      </trkpt>
      <trkpt lat="48.03308" lon="6.91666">
        <ele>904.8</ele>
        <time>2022-05-28T16:01:50Z</time>
      </trkpt>
      <trkpt lat="48.03322" lon="6.91678">
        <ele>903.3</ele>
        <time>2022-05-28T16:01:52Z</time>
      </trkpt>
      <trkpt lat="48.03333" lon="6.91691">
        <ele>902.5</ele>
        <time>2022-05-28T16:01:54Z</time>
      </trkpt>
      <trkpt lat="48.03341" lon="6.91707">
        <ele>902.2</ele>
        <time>2022-05-28T16:01:56Z</time>
      </trkpt>
      <trkpt lat="48.03344" lon="6.91722">
        <ele>900.6</ele>
        <time>2022-05-28T16:01:58Z</time>
      </trkpt>
      <trkpt lat="48.03339" lon="6.91736">
        <ele>898.8</ele>
        <time>2022-05-28T16:02:00Z</time>
      </trkpt>
      <trkpt lat="48.03327" lon="6.91743">
        <ele>896.1</ele>
        <time>2022-05-28T16:02:02Z</time>
      </trkpt>
      <trkpt lat="48.03317" lon="6.9175">
        <ele>894.8</ele>
        <time>2022-05-28T16:02:04Z</time>
      </trkpt>
      <trkpt lat="48.03315" lon="6.91763">
        <ele>893.5</ele>
        <time>2022-05-28T16:02:06Z</time>
      </trkpt>
      <trkpt lat="48.0332" lon="6.91777">
        <ele>892.5</ele>
        <time>2022-05-28T16:02:08Z</time>
      </trkpt>
      <trkpt lat="48.03329" lon="6.9179">
        <ele>891</ele>
        <time>2022-05-28T16:02:10Z</time>
      </trkpt>
      <trkpt lat="48.0334" lon="6.91804">
        <ele>889</ele>
        <time>2022-05-28T16:02:12Z</time>
      </trkpt>
      <trkpt lat="48.03352" lon="6.91821">
        <ele>887.9</ele>
        <time>2022-05-28T16:02:14Z</time>
      </trkpt>
      <trkpt lat="48.03363" lon="6.91838">
        <ele>886.9</ele>
        <time>2022-05-28T16:02:16Z</time>
      </trkpt>
      <trkpt lat="48.03371" lon="6.91859">
        <ele>884.9</ele>
        <time>2022-05-28T16:02:18Z</time>
      </trkpt>
      <trkpt lat="48.03373" lon="6.91873">
        <ele>883.6</ele>
        <time>2022-05-28T16:02:19Z</time>
      </trkpt>
      <trkpt lat="48.03376" lon="6.91886">
        <ele>882.8</ele>
        <time>2022-05-28T16:02:20Z</time>
      </trkpt>
      <trkpt lat="48.03379" lon="6.919">
        <ele>882.3</ele>
        <time>2022-05-28T16:02:21Z</time>
      </trkpt>
      <trkpt lat="48.03384" lon="6.91912">
        <ele>881.4</ele>
        <time>2022-05-28T16:02:22Z</time>
      </trkpt>
      <trkpt lat="48.03394" lon="6.91933">
        <ele>879.2</ele>
        <time>2022-05-28T16:02:24Z</time>
      </trkpt>
      <trkpt lat="48.034" lon="6.91944">
        <ele>878.5</ele>
        <time>2022-05-28T16:02:25Z</time>
      </trkpt>
      <trkpt lat="48.03405" lon="6.91956">
        <ele>877.2</ele>
        <time>2022-05-28T16:02:26Z</time>
      </trkpt>
      <trkpt lat="48.03408" lon="6.91969">
        <ele>876.3</ele>
        <time>2022-05-28T16:02:27Z</time>
      </trkpt>
      <trkpt lat="48.03411" lon="6.91983">
        <ele>874.5</ele>
        <time>2022-05-28T16:02:28Z</time>
      </trkpt>
      <trkpt lat="48.03414" lon="6.91996">
        <ele>871.6</ele>
        <time>2022-05-28T16:02:29Z</time>
      </trkpt>
      <trkpt lat="48.03418" lon="6.92009">
        <ele>869.9</ele>
        <time>2022-05-28T16:02:30Z</time>
      </trkpt>
      <trkpt lat="48.03424" lon="6.92022">
        <ele>868.4</ele>
        <time>2022-05-28T16:02:31Z</time>
      </trkpt>
      <trkpt lat="48.03431" lon="6.92035">
        <ele>867</ele>
        <time>2022-05-28T16:02:32Z</time>
      </trkpt>
      <trkpt lat="48.03438" lon="6.92048">
        <ele>865.8</ele>
        <time>2022-05-28T16:02:33Z</time>
      </trkpt>
      <trkpt lat="48.03445" lon="6.9206">
        <ele>864.6</ele>
        <time>2022-05-28T16:02:34Z</time>
      </trkpt>
      <trkpt lat="48.03453" lon="6.92073">
        <ele>863.5</ele>
        <time>2022-05-28T16:02:35Z</time>
      </trkpt>
      <trkpt lat="48.0346" lon="6.92086">
        <ele>863</ele>
        <time>2022-05-28T16:02:36Z</time>
      </trkpt>
      <trkpt lat="48.03467" lon="6.921">
        <ele>862.9</ele>
        <time>2022-05-28T16:02:37Z</time>
      </trkpt>
      <trkpt lat="48.03474" lon="6.92113">
        <ele>862.3</ele>
        <time>2022-05-28T16:02:38Z</time>
      </trkpt>
      <trkpt lat="48.03479" lon="6.92125">
        <ele>861.5</ele>
        <time>2022-05-28T16:02:39Z</time>
      </trkpt>
      <trkpt lat="48.03484" lon="6.92137">
        <ele>860.7</ele>
        <time>2022-05-28T16:02:40Z</time>
      </trkpt>
      <trkpt lat="48.0349" lon="6.92149">
        <ele>859.9</ele>
        <time>2022-05-28T16:02:41Z</time>
      </trkpt>
      <trkpt lat="48.035" lon="6.9217">
        <ele>858.1</ele>
        <time>2022-05-28T16:02:43Z</time>
      </trkpt>
      <trkpt lat="48.03506" lon="6.92181">
        <ele>857</ele>
        <time>2022-05-28T16:02:44Z</time>
      </trkpt>
      <trkpt lat="48.03511" lon="6.92192">
        <ele>856.1</ele>
        <time>2022-05-28T16:02:45Z</time>
      </trkpt>
      <trkpt lat="48.03517" lon="6.92203">
        <ele>854.8</ele>
        <time>2022-05-28T16:02:46Z</time>
      </trkpt>
      <trkpt lat="48.03524" lon="6.92214">
        <ele>853.6</ele>
        <time>2022-05-28T16:02:47Z</time>
      </trkpt>
      <trkpt lat="48.0353" lon="6.92225">
        <ele>852.8</ele>
        <time>2022-05-28T16:02:48Z</time>
      </trkpt>
      <trkpt lat="48.03538" lon="6.92235">
        <ele>852.1</ele>
        <time>2022-05-28T16:02:49Z</time>
      </trkpt>
      <trkpt lat="48.03545" lon="6.92245">
        <ele>851.7</ele>
        <time>2022-05-28T16:02:50Z</time>
      </trkpt>
      <trkpt lat="48.03553" lon="6.92253">
        <ele>851.3</ele>
        <time>2022-05-28T16:02:51Z</time>
      </trkpt>
      <trkpt lat="48.03561" lon="6.92263">
        <ele>851.1</ele>
        <time>2022-05-28T16:02:52Z</time>
      </trkpt>
      <trkpt lat="48.03568" lon="6.92274">
        <ele>851.1</ele>
        <time>2022-05-28T16:02:53Z</time>
      </trkpt>
      <trkpt lat="48.03574" lon="6.92286">
        <ele>851.5</ele>
        <time>2022-05-28T16:02:54Z</time>
      </trkpt>
      <trkpt lat="48.03578" lon="6.92298">
        <ele>851.6</ele>
        <time>2022-05-28T16:02:55Z</time>
      </trkpt>
      <trkpt lat="48.03582" lon="6.92312">
        <ele>850.7</ele>
        <time>2022-05-28T16:02:56Z</time>
      </trkpt>
      <trkpt lat="48.03585" lon="6.92325">
        <ele>850.8</ele>
        <time>2022-05-28T16:02:57Z</time>
      </trkpt>
      <trkpt lat="48.03589" lon="6.92349">
        <ele>850.9</ele>
        <time>2022-05-28T16:02:59Z</time>
      </trkpt>
      <trkpt lat="48.03592" lon="6.92372">
        <ele>849.6</ele>
        <time>2022-05-28T16:03:01Z</time>
      </trkpt>
      <trkpt lat="48.03593" lon="6.92395">
        <ele>850</ele>
        <time>2022-05-28T16:03:03Z</time>
      </trkpt>
      <trkpt lat="48.03591" lon="6.92416">
        <ele>849.1</ele>
        <time>2022-05-28T16:03:05Z</time>
      </trkpt>
      <trkpt lat="48.03586" lon="6.92435">
        <ele>849.9</ele>
        <time>2022-05-28T16:03:07Z</time>
      </trkpt>
      <trkpt lat="48.03582" lon="6.92454">
        <ele>849</ele>
        <time>2022-05-28T16:03:09Z</time>
      </trkpt>
      <trkpt lat="48.03577" lon="6.92471">
        <ele>848.3</ele>
        <time>2022-05-28T16:03:11Z</time>
      </trkpt>
      <trkpt lat="48.03573" lon="6.92485">
        <ele>847.3</ele>
        <time>2022-05-28T16:03:13Z</time>
      </trkpt>
      <trkpt lat="48.03572" lon="6.925">
        <ele>847.5</ele>
        <time>2022-05-28T16:03:16Z</time>
      </trkpt>
      <trkpt lat="48.03579" lon="6.92511">
        <ele>848.5</ele>
        <time>2022-05-28T16:03:20Z</time>
      </trkpt>
      <trkpt lat="48.03584" lon="6.92523">
        <ele>848.9</ele>
        <time>2022-05-28T16:03:24Z</time>
      </trkpt>
      <trkpt lat="48.03591" lon="6.92533">
        <ele>849.3</ele>
        <time>2022-05-28T16:03:28Z</time>
      </trkpt>
      <trkpt lat="48.03598" lon="6.92543">
        <ele>849.2</ele>
        <time>2022-05-28T16:03:32Z</time>
      </trkpt>
      <trkpt lat="48.03607" lon="6.92554">
        <ele>850.2</ele>
        <time>2022-05-28T16:03:36Z</time>
      </trkpt>
      <trkpt lat="48.03616" lon="6.92565">
        <ele>851.4</ele>
        <time>2022-05-28T16:03:40Z</time>
      </trkpt>
      <trkpt lat="48.03623" lon="6.92574">
        <ele>851.5</ele>
        <time>2022-05-28T16:03:43Z</time>
      </trkpt>
      <trkpt lat="48.03632" lon="6.92585">
        <ele>851.6</ele>
        <time>2022-05-28T16:03:47Z</time>
      </trkpt>
      <trkpt lat="48.03641" lon="6.92591">
        <ele>852.4</ele>
        <time>2022-05-28T16:03:51Z</time>
      </trkpt>
      <trkpt lat="48.03645" lon="6.92577">
        <ele>853.8</ele>
        <time>2022-05-28T16:03:55Z</time>
      </trkpt>
      <trkpt lat="48.0364" lon="6.92564">
        <ele>853.9</ele>
        <time>2022-05-28T16:03:58Z</time>
      </trkpt>
      <trkpt lat="48.03633" lon="6.92552">
        <ele>853.2</ele>
        <time>2022-05-28T16:04:01Z</time>
      </trkpt>
      <trkpt lat="48.03625" lon="6.92537">
        <ele>852.8</ele>
        <time>2022-05-28T16:04:04Z</time>
      </trkpt>
      <trkpt lat="48.03618" lon="6.92523">
        <ele>853.1</ele>
        <time>2022-05-28T16:04:07Z</time>
      </trkpt>
      <trkpt lat="48.03611" lon="6.92511">
        <ele>854.2</ele>
        <time>2022-05-28T16:04:10Z</time>
      </trkpt>
      <trkpt lat="48.03606" lon="6.92499">
        <ele>854.9</ele>
        <time>2022-05-28T16:04:14Z</time>
      </trkpt>
      <trkpt lat="48.03603" lon="6.92485">
        <ele>856.6</ele>
        <time>2022-05-28T16:04:22Z</time>
      </trkpt>
      <trkpt lat="48.03598" lon="6.92474">
        <ele>857.4</ele>
        <time>2022-05-28T16:04:29Z</time>
      </trkpt>
      <trkpt lat="48.03606" lon="6.92469">
        <ele>857.6</ele>
        <time>2022-05-28T16:04:39Z</time>
      </trkpt>
      <trkpt lat="48.03607" lon="6.92469">
        <ele>857.6</ele>
        <time>2022-05-28T16:04:43Z</time>
      </trkpt>
      <trkpt lat="48.03608" lon="6.92469">
        <ele>857.3</ele>
        <time>2022-05-28T16:04:48Z</time>
      </trkpt>
      <trkpt lat="48.03607" lon="6.92469">
        <ele>857.4</ele>
        <time>2022-05-28T16:05:00Z</time>
      </trkpt>
      <trkpt lat="48.03608" lon="6.92469">
        <ele>857.1</ele>
        <time>2022-05-28T16:06:01Z</time>
      </trkpt>
    </trkseg>
  </trk>
</gpx>